<?xml version="1.0" encoding="UTF-8" standalone="no" ?>
<gpx xmlns="http://www.topografix.com/GPX/1/1" xmlns:xsi="http://www.w3.org/2001/XMLSchema-instance" xsi:schemaLocation="http://www.topografix.com/GPX/1/1 http://www.topografix.com/GPX/1/1/gpx.xsd" version="1.1" creator="VisuGPX - https://www.visugpx.com">
  <metadata>
    <name>Gresse en boucle</name>
  </metadata>
  <trk>
    <name><![CDATA[Gresse en boucle]]></name>
    <trkseg>
      <trkpt lat="44.93352" lon="5.62532">
        <ele>793.9</ele>
        <time>2021-08-08T11:27:12Z</time>
      </trkpt>
      <trkpt lat="44.9335" lon="5.62532">
        <ele>794</ele>
        <time>2021-08-08T11:27:13Z</time>
      </trkpt>
      <trkpt lat="44.93347" lon="5.62526">
        <ele>794</ele>
        <time>2021-08-08T11:27:14Z</time>
      </trkpt>
      <trkpt lat="44.93346" lon="5.62522">
        <ele>794</ele>
        <time>2021-08-08T11:27:15Z</time>
      </trkpt>
      <trkpt lat="44.93341" lon="5.62517">
        <ele>794.1</ele>
        <time>2021-08-08T11:27:18Z</time>
      </trkpt>
      <trkpt lat="44.9334" lon="5.62516">
        <ele>794.1</ele>
        <time>2021-08-08T11:27:20Z</time>
      </trkpt>
      <trkpt lat="44.93341" lon="5.62517">
        <ele>794.1</ele>
        <time>2021-08-08T11:27:22Z</time>
      </trkpt>
      <trkpt lat="44.93341" lon="5.62517">
        <ele>794.1</ele>
        <time>2021-08-08T11:27:23Z</time>
      </trkpt>
      <trkpt lat="44.93341" lon="5.62517">
        <ele>794.1</ele>
        <time>2021-08-08T11:27:26Z</time>
      </trkpt>
      <trkpt lat="44.93341" lon="5.62517">
        <ele>794.1</ele>
        <time>2021-08-08T11:27:28Z</time>
      </trkpt>
      <trkpt lat="44.93341" lon="5.62517">
        <ele>794.1</ele>
        <time>2021-08-08T11:27:29Z</time>
      </trkpt>
      <trkpt lat="44.93341" lon="5.62517">
        <ele>794.1</ele>
        <time>2021-08-08T11:27:31Z</time>
      </trkpt>
      <trkpt lat="44.9334" lon="5.62521">
        <ele>794.1</ele>
        <time>2021-08-08T11:29:34Z</time>
      </trkpt>
      <trkpt lat="44.9334" lon="5.6252">
        <ele>794.1</ele>
        <time>2021-08-08T11:29:36Z</time>
      </trkpt>
      <trkpt lat="44.9334" lon="5.6252">
        <ele>794.1</ele>
        <time>2021-08-08T11:29:38Z</time>
      </trkpt>
      <trkpt lat="44.9334" lon="5.6252">
        <ele>794.1</ele>
        <time>2021-08-08T11:29:40Z</time>
      </trkpt>
      <trkpt lat="44.9334" lon="5.62519">
        <ele>794.1</ele>
        <time>2021-08-08T11:29:43Z</time>
      </trkpt>
      <trkpt lat="44.9334" lon="5.62519">
        <ele>794.1</ele>
        <time>2021-08-08T11:29:44Z</time>
      </trkpt>
      <trkpt lat="44.9334" lon="5.6252">
        <ele>794.1</ele>
        <time>2021-08-08T11:29:45Z</time>
      </trkpt>
      <trkpt lat="44.9334" lon="5.6252">
        <ele>794.1</ele>
        <time>2021-08-08T11:29:46Z</time>
      </trkpt>
      <trkpt lat="44.9334" lon="5.6252">
        <ele>794.1</ele>
        <time>2021-08-08T11:29:47Z</time>
      </trkpt>
      <trkpt lat="44.9334" lon="5.6252">
        <ele>794.1</ele>
        <time>2021-08-08T11:29:50Z</time>
      </trkpt>
      <trkpt lat="44.9334" lon="5.62519">
        <ele>794.1</ele>
        <time>2021-08-08T11:29:51Z</time>
      </trkpt>
      <trkpt lat="44.93339" lon="5.62519">
        <ele>794.2</ele>
        <time>2021-08-08T11:29:52Z</time>
      </trkpt>
      <trkpt lat="44.93339" lon="5.62518">
        <ele>794.2</ele>
        <time>2021-08-08T11:29:54Z</time>
      </trkpt>
      <trkpt lat="44.93341" lon="5.62517">
        <ele>794.2</ele>
        <time>2021-08-08T11:29:55Z</time>
      </trkpt>
      <trkpt lat="44.93341" lon="5.62517">
        <ele>794.2</ele>
        <time>2021-08-08T11:29:57Z</time>
      </trkpt>
      <trkpt lat="44.93341" lon="5.62517">
        <ele>794.2</ele>
        <time>2021-08-08T11:29:59Z</time>
      </trkpt>
      <trkpt lat="44.93341" lon="5.62518">
        <ele>794.2</ele>
        <time>2021-08-08T11:30:00Z</time>
      </trkpt>
      <trkpt lat="44.9334" lon="5.62518">
        <ele>794.2</ele>
        <time>2021-08-08T11:30:02Z</time>
      </trkpt>
      <trkpt lat="44.9334" lon="5.62517">
        <ele>794.2</ele>
        <time>2021-08-08T11:30:05Z</time>
      </trkpt>
      <trkpt lat="44.9334" lon="5.62518">
        <ele>794.2</ele>
        <time>2021-08-08T11:30:07Z</time>
      </trkpt>
      <trkpt lat="44.9334" lon="5.62517">
        <ele>794.2</ele>
        <time>2021-08-08T11:30:08Z</time>
      </trkpt>
      <trkpt lat="44.9334" lon="5.62517">
        <ele>794.2</ele>
        <time>2021-08-08T11:30:10Z</time>
      </trkpt>
      <trkpt lat="44.9334" lon="5.62513">
        <ele>794.2</ele>
        <time>2021-08-08T11:30:56Z</time>
      </trkpt>
      <trkpt lat="44.9334" lon="5.62511">
        <ele>794.2</ele>
        <time>2021-08-08T11:30:57Z</time>
      </trkpt>
      <trkpt lat="44.9334" lon="5.62509">
        <ele>794.3</ele>
        <time>2021-08-08T11:30:58Z</time>
      </trkpt>
      <trkpt lat="44.93337" lon="5.62509">
        <ele>794.4</ele>
        <time>2021-08-08T11:30:59Z</time>
      </trkpt>
      <trkpt lat="44.93336" lon="5.62511">
        <ele>794.4</ele>
        <time>2021-08-08T11:31:00Z</time>
      </trkpt>
      <trkpt lat="44.93333" lon="5.62514">
        <ele>794.5</ele>
        <time>2021-08-08T11:31:01Z</time>
      </trkpt>
      <trkpt lat="44.93332" lon="5.62515">
        <ele>794.6</ele>
        <time>2021-08-08T11:31:02Z</time>
      </trkpt>
      <trkpt lat="44.93328" lon="5.62518">
        <ele>794.7</ele>
        <time>2021-08-08T11:31:04Z</time>
      </trkpt>
      <trkpt lat="44.93326" lon="5.62519">
        <ele>794.7</ele>
        <time>2021-08-08T11:31:05Z</time>
      </trkpt>
      <trkpt lat="44.93324" lon="5.62519">
        <ele>794.8</ele>
        <time>2021-08-08T11:31:06Z</time>
      </trkpt>
      <trkpt lat="44.93321" lon="5.62521">
        <ele>794.9</ele>
        <time>2021-08-08T11:31:07Z</time>
      </trkpt>
      <trkpt lat="44.93318" lon="5.62523">
        <ele>794.9</ele>
        <time>2021-08-08T11:31:09Z</time>
      </trkpt>
      <trkpt lat="44.93314" lon="5.62525">
        <ele>795</ele>
        <time>2021-08-08T11:31:10Z</time>
      </trkpt>
      <trkpt lat="44.93311" lon="5.62526">
        <ele>795.1</ele>
        <time>2021-08-08T11:31:11Z</time>
      </trkpt>
      <trkpt lat="44.93306" lon="5.62529">
        <ele>795.2</ele>
        <time>2021-08-08T11:31:13Z</time>
      </trkpt>
      <trkpt lat="44.93304" lon="5.62533">
        <ele>795.2</ele>
        <time>2021-08-08T11:31:14Z</time>
      </trkpt>
      <trkpt lat="44.933" lon="5.62536">
        <ele>795.3</ele>
        <time>2021-08-08T11:31:15Z</time>
      </trkpt>
      <trkpt lat="44.93295" lon="5.62539">
        <ele>795.3</ele>
        <time>2021-08-08T11:31:17Z</time>
      </trkpt>
      <trkpt lat="44.93291" lon="5.62543">
        <ele>795.3</ele>
        <time>2021-08-08T11:31:18Z</time>
      </trkpt>
      <trkpt lat="44.93287" lon="5.62545">
        <ele>795.3</ele>
        <time>2021-08-08T11:31:19Z</time>
      </trkpt>
      <trkpt lat="44.9328" lon="5.62549">
        <ele>795.3</ele>
        <time>2021-08-08T11:31:21Z</time>
      </trkpt>
      <trkpt lat="44.93275" lon="5.62551">
        <ele>795.4</ele>
        <time>2021-08-08T11:31:23Z</time>
      </trkpt>
      <trkpt lat="44.93271" lon="5.62553">
        <ele>795.5</ele>
        <time>2021-08-08T11:31:24Z</time>
      </trkpt>
      <trkpt lat="44.93265" lon="5.62556">
        <ele>795.6</ele>
        <time>2021-08-08T11:31:25Z</time>
      </trkpt>
      <trkpt lat="44.93259" lon="5.62559">
        <ele>795.6</ele>
        <time>2021-08-08T11:31:26Z</time>
      </trkpt>
      <trkpt lat="44.93255" lon="5.62561">
        <ele>795.7</ele>
        <time>2021-08-08T11:31:28Z</time>
      </trkpt>
      <trkpt lat="44.93247" lon="5.62565">
        <ele>795.9</ele>
        <time>2021-08-08T11:31:29Z</time>
      </trkpt>
      <trkpt lat="44.93242" lon="5.62566">
        <ele>796</ele>
        <time>2021-08-08T11:31:30Z</time>
      </trkpt>
      <trkpt lat="44.93234" lon="5.62569">
        <ele>796.1</ele>
        <time>2021-08-08T11:31:32Z</time>
      </trkpt>
      <trkpt lat="44.93229" lon="5.6257">
        <ele>796.2</ele>
        <time>2021-08-08T11:31:33Z</time>
      </trkpt>
      <trkpt lat="44.9322" lon="5.62571">
        <ele>796.3</ele>
        <time>2021-08-08T11:31:36Z</time>
      </trkpt>
      <trkpt lat="44.93216" lon="5.62568">
        <ele>796.3</ele>
        <time>2021-08-08T11:31:37Z</time>
      </trkpt>
      <trkpt lat="44.93211" lon="5.62568">
        <ele>796.3</ele>
        <time>2021-08-08T11:31:38Z</time>
      </trkpt>
      <trkpt lat="44.93202" lon="5.62574">
        <ele>796.4</ele>
        <time>2021-08-08T11:31:40Z</time>
      </trkpt>
      <trkpt lat="44.93192" lon="5.62575">
        <ele>796.5</ele>
        <time>2021-08-08T11:31:41Z</time>
      </trkpt>
      <trkpt lat="44.93183" lon="5.62576">
        <ele>796.6</ele>
        <time>2021-08-08T11:31:43Z</time>
      </trkpt>
      <trkpt lat="44.93178" lon="5.62577">
        <ele>796.6</ele>
        <time>2021-08-08T11:31:44Z</time>
      </trkpt>
      <trkpt lat="44.93169" lon="5.62581">
        <ele>796.6</ele>
        <time>2021-08-08T11:31:47Z</time>
      </trkpt>
      <trkpt lat="44.9316" lon="5.62587">
        <ele>796.7</ele>
        <time>2021-08-08T11:31:49Z</time>
      </trkpt>
      <trkpt lat="44.93156" lon="5.62589">
        <ele>796.8</ele>
        <time>2021-08-08T11:31:50Z</time>
      </trkpt>
      <trkpt lat="44.93152" lon="5.62592">
        <ele>796.9</ele>
        <time>2021-08-08T11:31:51Z</time>
      </trkpt>
      <trkpt lat="44.93143" lon="5.62596">
        <ele>797.1</ele>
        <time>2021-08-08T11:31:53Z</time>
      </trkpt>
      <trkpt lat="44.93133" lon="5.626">
        <ele>797.4</ele>
        <time>2021-08-08T11:31:55Z</time>
      </trkpt>
      <trkpt lat="44.93122" lon="5.62603">
        <ele>797.6</ele>
        <time>2021-08-08T11:31:56Z</time>
      </trkpt>
      <trkpt lat="44.93119" lon="5.62603">
        <ele>797.7</ele>
        <time>2021-08-08T11:31:58Z</time>
      </trkpt>
      <trkpt lat="44.9311" lon="5.62598">
        <ele>797.8</ele>
        <time>2021-08-08T11:31:59Z</time>
      </trkpt>
      <trkpt lat="44.93106" lon="5.62596">
        <ele>797.8</ele>
        <time>2021-08-08T11:32:01Z</time>
      </trkpt>
      <trkpt lat="44.93098" lon="5.62589">
        <ele>798</ele>
        <time>2021-08-08T11:32:03Z</time>
      </trkpt>
      <trkpt lat="44.93092" lon="5.62585">
        <ele>798.2</ele>
        <time>2021-08-08T11:32:04Z</time>
      </trkpt>
      <trkpt lat="44.93085" lon="5.6258">
        <ele>798.5</ele>
        <time>2021-08-08T11:32:07Z</time>
      </trkpt>
      <trkpt lat="44.93077" lon="5.62574">
        <ele>799</ele>
        <time>2021-08-08T11:32:09Z</time>
      </trkpt>
      <trkpt lat="44.93074" lon="5.62572">
        <ele>799.2</ele>
        <time>2021-08-08T11:32:10Z</time>
      </trkpt>
      <trkpt lat="44.9307" lon="5.62567">
        <ele>799.6</ele>
        <time>2021-08-08T11:32:11Z</time>
      </trkpt>
      <trkpt lat="44.93064" lon="5.62564">
        <ele>800.1</ele>
        <time>2021-08-08T11:32:13Z</time>
      </trkpt>
      <trkpt lat="44.93059" lon="5.62562">
        <ele>800.4</ele>
        <time>2021-08-08T11:32:14Z</time>
      </trkpt>
      <trkpt lat="44.93055" lon="5.62561">
        <ele>800.8</ele>
        <time>2021-08-08T11:32:15Z</time>
      </trkpt>
      <trkpt lat="44.9305" lon="5.62556">
        <ele>801.2</ele>
        <time>2021-08-08T11:32:17Z</time>
      </trkpt>
      <trkpt lat="44.93048" lon="5.62551">
        <ele>802.1</ele>
        <time>2021-08-08T11:32:19Z</time>
      </trkpt>
      <trkpt lat="44.93048" lon="5.62545">
        <ele>802.1</ele>
        <time>2021-08-08T11:32:20Z</time>
      </trkpt>
      <trkpt lat="44.93048" lon="5.6254">
        <ele>802.1</ele>
        <time>2021-08-08T11:32:21Z</time>
      </trkpt>
      <trkpt lat="44.9305" lon="5.62535">
        <ele>802.1</ele>
        <time>2021-08-08T11:32:22Z</time>
      </trkpt>
      <trkpt lat="44.93052" lon="5.62529">
        <ele>802.1</ele>
        <time>2021-08-08T11:32:24Z</time>
      </trkpt>
      <trkpt lat="44.93055" lon="5.62521">
        <ele>802.1</ele>
        <time>2021-08-08T11:32:25Z</time>
      </trkpt>
      <trkpt lat="44.93058" lon="5.62514">
        <ele>802.1</ele>
        <time>2021-08-08T11:32:26Z</time>
      </trkpt>
      <trkpt lat="44.93061" lon="5.62508">
        <ele>802.2</ele>
        <time>2021-08-08T11:32:27Z</time>
      </trkpt>
      <trkpt lat="44.93063" lon="5.62502">
        <ele>802.2</ele>
        <time>2021-08-08T11:32:29Z</time>
      </trkpt>
      <trkpt lat="44.93066" lon="5.62493">
        <ele>802.2</ele>
        <time>2021-08-08T11:32:30Z</time>
      </trkpt>
      <trkpt lat="44.93068" lon="5.62486">
        <ele>802.3</ele>
        <time>2021-08-08T11:32:31Z</time>
      </trkpt>
      <trkpt lat="44.9307" lon="5.6248">
        <ele>802.3</ele>
        <time>2021-08-08T11:32:33Z</time>
      </trkpt>
      <trkpt lat="44.93073" lon="5.62472">
        <ele>802.4</ele>
        <time>2021-08-08T11:32:34Z</time>
      </trkpt>
      <trkpt lat="44.93074" lon="5.62466">
        <ele>802.4</ele>
        <time>2021-08-08T11:32:35Z</time>
      </trkpt>
      <trkpt lat="44.93076" lon="5.6246">
        <ele>802.5</ele>
        <time>2021-08-08T11:32:36Z</time>
      </trkpt>
      <trkpt lat="44.93078" lon="5.62451">
        <ele>802.5</ele>
        <time>2021-08-08T11:32:38Z</time>
      </trkpt>
      <trkpt lat="44.9308" lon="5.62443">
        <ele>802.6</ele>
        <time>2021-08-08T11:32:39Z</time>
      </trkpt>
      <trkpt lat="44.93082" lon="5.62437">
        <ele>802.6</ele>
        <time>2021-08-08T11:32:40Z</time>
      </trkpt>
      <trkpt lat="44.93084" lon="5.6243">
        <ele>802.6</ele>
        <time>2021-08-08T11:32:41Z</time>
      </trkpt>
      <trkpt lat="44.93087" lon="5.62421">
        <ele>802.7</ele>
        <time>2021-08-08T11:32:42Z</time>
      </trkpt>
      <trkpt lat="44.93089" lon="5.62414">
        <ele>802.8</ele>
        <time>2021-08-08T11:32:44Z</time>
      </trkpt>
      <trkpt lat="44.93093" lon="5.62409">
        <ele>802.8</ele>
        <time>2021-08-08T11:32:45Z</time>
      </trkpt>
      <trkpt lat="44.93095" lon="5.62398">
        <ele>802.9</ele>
        <time>2021-08-08T11:32:47Z</time>
      </trkpt>
      <trkpt lat="44.93094" lon="5.62393">
        <ele>803</ele>
        <time>2021-08-08T11:32:48Z</time>
      </trkpt>
      <trkpt lat="44.93094" lon="5.62386">
        <ele>803.1</ele>
        <time>2021-08-08T11:32:49Z</time>
      </trkpt>
      <trkpt lat="44.93098" lon="5.62378">
        <ele>803.1</ele>
        <time>2021-08-08T11:32:50Z</time>
      </trkpt>
      <trkpt lat="44.93101" lon="5.62372">
        <ele>803.2</ele>
        <time>2021-08-08T11:32:51Z</time>
      </trkpt>
      <trkpt lat="44.93104" lon="5.62366">
        <ele>803.3</ele>
        <time>2021-08-08T11:32:52Z</time>
      </trkpt>
      <trkpt lat="44.93107" lon="5.6236">
        <ele>803.3</ele>
        <time>2021-08-08T11:32:54Z</time>
      </trkpt>
      <trkpt lat="44.9311" lon="5.62353">
        <ele>803.4</ele>
        <time>2021-08-08T11:32:55Z</time>
      </trkpt>
      <trkpt lat="44.93116" lon="5.62341">
        <ele>803.6</ele>
        <time>2021-08-08T11:32:57Z</time>
      </trkpt>
      <trkpt lat="44.93118" lon="5.62335">
        <ele>803.7</ele>
        <time>2021-08-08T11:32:58Z</time>
      </trkpt>
      <trkpt lat="44.93118" lon="5.62329">
        <ele>803.7</ele>
        <time>2021-08-08T11:32:59Z</time>
      </trkpt>
      <trkpt lat="44.9312" lon="5.62322">
        <ele>803.9</ele>
        <time>2021-08-08T11:33:00Z</time>
      </trkpt>
      <trkpt lat="44.93124" lon="5.62312">
        <ele>804</ele>
        <time>2021-08-08T11:33:01Z</time>
      </trkpt>
      <trkpt lat="44.93126" lon="5.62304">
        <ele>804.2</ele>
        <time>2021-08-08T11:33:03Z</time>
      </trkpt>
      <trkpt lat="44.93128" lon="5.62297">
        <ele>804.3</ele>
        <time>2021-08-08T11:33:05Z</time>
      </trkpt>
      <trkpt lat="44.93131" lon="5.62283">
        <ele>804.5</ele>
        <time>2021-08-08T11:33:07Z</time>
      </trkpt>
      <trkpt lat="44.93132" lon="5.62277">
        <ele>804.6</ele>
        <time>2021-08-08T11:33:08Z</time>
      </trkpt>
      <trkpt lat="44.93133" lon="5.6227">
        <ele>804.7</ele>
        <time>2021-08-08T11:33:09Z</time>
      </trkpt>
      <trkpt lat="44.93133" lon="5.62256">
        <ele>804.9</ele>
        <time>2021-08-08T11:33:11Z</time>
      </trkpt>
      <trkpt lat="44.93132" lon="5.62243">
        <ele>805.1</ele>
        <time>2021-08-08T11:33:12Z</time>
      </trkpt>
      <trkpt lat="44.93131" lon="5.62236">
        <ele>805.2</ele>
        <time>2021-08-08T11:33:14Z</time>
      </trkpt>
      <trkpt lat="44.93129" lon="5.62217">
        <ele>805.6</ele>
        <time>2021-08-08T11:33:16Z</time>
      </trkpt>
      <trkpt lat="44.93128" lon="5.6221">
        <ele>805.7</ele>
        <time>2021-08-08T11:33:18Z</time>
      </trkpt>
      <trkpt lat="44.93123" lon="5.62204">
        <ele>805.9</ele>
        <time>2021-08-08T11:33:20Z</time>
      </trkpt>
      <trkpt lat="44.93125" lon="5.62194">
        <ele>806.1</ele>
        <time>2021-08-08T11:33:21Z</time>
      </trkpt>
      <trkpt lat="44.93125" lon="5.62187">
        <ele>806.3</ele>
        <time>2021-08-08T11:33:22Z</time>
      </trkpt>
      <trkpt lat="44.93124" lon="5.62175">
        <ele>806.4</ele>
        <time>2021-08-08T11:33:23Z</time>
      </trkpt>
      <trkpt lat="44.93124" lon="5.6217">
        <ele>806.5</ele>
        <time>2021-08-08T11:33:25Z</time>
      </trkpt>
      <trkpt lat="44.93123" lon="5.62162">
        <ele>806.6</ele>
        <time>2021-08-08T11:33:26Z</time>
      </trkpt>
      <trkpt lat="44.93123" lon="5.62155">
        <ele>806.7</ele>
        <time>2021-08-08T11:33:27Z</time>
      </trkpt>
      <trkpt lat="44.93124" lon="5.62146">
        <ele>806.8</ele>
        <time>2021-08-08T11:33:28Z</time>
      </trkpt>
      <trkpt lat="44.93126" lon="5.62137">
        <ele>807</ele>
        <time>2021-08-08T11:33:30Z</time>
      </trkpt>
      <trkpt lat="44.93128" lon="5.62128">
        <ele>807.3</ele>
        <time>2021-08-08T11:33:31Z</time>
      </trkpt>
      <trkpt lat="44.9313" lon="5.62122">
        <ele>807.5</ele>
        <time>2021-08-08T11:33:33Z</time>
      </trkpt>
      <trkpt lat="44.93131" lon="5.62116">
        <ele>807.7</ele>
        <time>2021-08-08T11:33:34Z</time>
      </trkpt>
      <trkpt lat="44.93133" lon="5.6211">
        <ele>807.9</ele>
        <time>2021-08-08T11:33:35Z</time>
      </trkpt>
      <trkpt lat="44.93136" lon="5.62105">
        <ele>808.1</ele>
        <time>2021-08-08T11:33:36Z</time>
      </trkpt>
      <trkpt lat="44.93139" lon="5.621">
        <ele>808.3</ele>
        <time>2021-08-08T11:33:37Z</time>
      </trkpt>
      <trkpt lat="44.93142" lon="5.62095">
        <ele>808.6</ele>
        <time>2021-08-08T11:33:38Z</time>
      </trkpt>
      <trkpt lat="44.93145" lon="5.6209">
        <ele>808.8</ele>
        <time>2021-08-08T11:33:40Z</time>
      </trkpt>
      <trkpt lat="44.93149" lon="5.62085">
        <ele>809.1</ele>
        <time>2021-08-08T11:33:41Z</time>
      </trkpt>
      <trkpt lat="44.93153" lon="5.6208">
        <ele>809.3</ele>
        <time>2021-08-08T11:33:43Z</time>
      </trkpt>
      <trkpt lat="44.93158" lon="5.62077">
        <ele>809.6</ele>
        <time>2021-08-08T11:33:44Z</time>
      </trkpt>
      <trkpt lat="44.93162" lon="5.62074">
        <ele>809.8</ele>
        <time>2021-08-08T11:33:45Z</time>
      </trkpt>
      <trkpt lat="44.93166" lon="5.62071">
        <ele>810</ele>
        <time>2021-08-08T11:33:46Z</time>
      </trkpt>
      <trkpt lat="44.93169" lon="5.62068">
        <ele>810.2</ele>
        <time>2021-08-08T11:33:48Z</time>
      </trkpt>
      <trkpt lat="44.93174" lon="5.62065">
        <ele>810.4</ele>
        <time>2021-08-08T11:33:49Z</time>
      </trkpt>
      <trkpt lat="44.93177" lon="5.62062">
        <ele>810.6</ele>
        <time>2021-08-08T11:33:50Z</time>
      </trkpt>
      <trkpt lat="44.93181" lon="5.62059">
        <ele>810.8</ele>
        <time>2021-08-08T11:33:52Z</time>
      </trkpt>
      <trkpt lat="44.93186" lon="5.62055">
        <ele>811.1</ele>
        <time>2021-08-08T11:33:53Z</time>
      </trkpt>
      <trkpt lat="44.93189" lon="5.62053">
        <ele>811.3</ele>
        <time>2021-08-08T11:33:54Z</time>
      </trkpt>
      <trkpt lat="44.93192" lon="5.6205">
        <ele>811.5</ele>
        <time>2021-08-08T11:33:56Z</time>
      </trkpt>
      <trkpt lat="44.93195" lon="5.62047">
        <ele>811.7</ele>
        <time>2021-08-08T11:33:57Z</time>
      </trkpt>
      <trkpt lat="44.93198" lon="5.62046">
        <ele>811.8</ele>
        <time>2021-08-08T11:33:58Z</time>
      </trkpt>
      <trkpt lat="44.93204" lon="5.62041">
        <ele>812.1</ele>
        <time>2021-08-08T11:34:00Z</time>
      </trkpt>
      <trkpt lat="44.93209" lon="5.62037">
        <ele>812.4</ele>
        <time>2021-08-08T11:34:01Z</time>
      </trkpt>
      <trkpt lat="44.93213" lon="5.62034">
        <ele>812.6</ele>
        <time>2021-08-08T11:34:02Z</time>
      </trkpt>
      <trkpt lat="44.93216" lon="5.62032">
        <ele>812.7</ele>
        <time>2021-08-08T11:34:04Z</time>
      </trkpt>
      <trkpt lat="44.93221" lon="5.6203">
        <ele>812.9</ele>
        <time>2021-08-08T11:34:05Z</time>
      </trkpt>
      <trkpt lat="44.93224" lon="5.62027">
        <ele>813.1</ele>
        <time>2021-08-08T11:34:06Z</time>
      </trkpt>
      <trkpt lat="44.93227" lon="5.62025">
        <ele>813.3</ele>
        <time>2021-08-08T11:34:07Z</time>
      </trkpt>
      <trkpt lat="44.93231" lon="5.62022">
        <ele>813.4</ele>
        <time>2021-08-08T11:34:09Z</time>
      </trkpt>
      <trkpt lat="44.93235" lon="5.6202">
        <ele>813.6</ele>
        <time>2021-08-08T11:34:10Z</time>
      </trkpt>
      <trkpt lat="44.93239" lon="5.62017">
        <ele>813.8</ele>
        <time>2021-08-08T11:34:11Z</time>
      </trkpt>
      <trkpt lat="44.93243" lon="5.62014">
        <ele>814</ele>
        <time>2021-08-08T11:34:12Z</time>
      </trkpt>
      <trkpt lat="44.93247" lon="5.62012">
        <ele>814.2</ele>
        <time>2021-08-08T11:34:13Z</time>
      </trkpt>
      <trkpt lat="44.93251" lon="5.6201">
        <ele>814.3</ele>
        <time>2021-08-08T11:34:14Z</time>
      </trkpt>
      <trkpt lat="44.93256" lon="5.62007">
        <ele>814.6</ele>
        <time>2021-08-08T11:34:16Z</time>
      </trkpt>
      <trkpt lat="44.93259" lon="5.62006">
        <ele>814.7</ele>
        <time>2021-08-08T11:34:17Z</time>
      </trkpt>
      <trkpt lat="44.93263" lon="5.62004">
        <ele>814.8</ele>
        <time>2021-08-08T11:34:18Z</time>
      </trkpt>
      <trkpt lat="44.93268" lon="5.62001">
        <ele>815</ele>
        <time>2021-08-08T11:34:19Z</time>
      </trkpt>
      <trkpt lat="44.93273" lon="5.61999">
        <ele>815.3</ele>
        <time>2021-08-08T11:34:21Z</time>
      </trkpt>
      <trkpt lat="44.93277" lon="5.61996">
        <ele>815.5</ele>
        <time>2021-08-08T11:34:22Z</time>
      </trkpt>
      <trkpt lat="44.93281" lon="5.61995">
        <ele>815.7</ele>
        <time>2021-08-08T11:34:23Z</time>
      </trkpt>
      <trkpt lat="44.93285" lon="5.61994">
        <ele>815.9</ele>
        <time>2021-08-08T11:34:25Z</time>
      </trkpt>
      <trkpt lat="44.9329" lon="5.61992">
        <ele>816.1</ele>
        <time>2021-08-08T11:34:26Z</time>
      </trkpt>
      <trkpt lat="44.93296" lon="5.6199">
        <ele>816.3</ele>
        <time>2021-08-08T11:34:27Z</time>
      </trkpt>
      <trkpt lat="44.933" lon="5.61989">
        <ele>816.5</ele>
        <time>2021-08-08T11:34:29Z</time>
      </trkpt>
      <trkpt lat="44.93306" lon="5.61987">
        <ele>816.8</ele>
        <time>2021-08-08T11:34:31Z</time>
      </trkpt>
      <trkpt lat="44.9331" lon="5.61987">
        <ele>817</ele>
        <time>2021-08-08T11:34:32Z</time>
      </trkpt>
      <trkpt lat="44.93316" lon="5.61986">
        <ele>817.2</ele>
        <time>2021-08-08T11:34:33Z</time>
      </trkpt>
      <trkpt lat="44.93319" lon="5.61985">
        <ele>817.3</ele>
        <time>2021-08-08T11:34:34Z</time>
      </trkpt>
      <trkpt lat="44.93323" lon="5.61986">
        <ele>817.5</ele>
        <time>2021-08-08T11:34:35Z</time>
      </trkpt>
      <trkpt lat="44.93327" lon="5.61986">
        <ele>817.7</ele>
        <time>2021-08-08T11:34:37Z</time>
      </trkpt>
      <trkpt lat="44.93333" lon="5.61986">
        <ele>817.9</ele>
        <time>2021-08-08T11:34:38Z</time>
      </trkpt>
      <trkpt lat="44.93337" lon="5.61987">
        <ele>818.2</ele>
        <time>2021-08-08T11:34:39Z</time>
      </trkpt>
      <trkpt lat="44.93341" lon="5.61987">
        <ele>818.3</ele>
        <time>2021-08-08T11:34:40Z</time>
      </trkpt>
      <trkpt lat="44.93348" lon="5.61988">
        <ele>818.6</ele>
        <time>2021-08-08T11:34:43Z</time>
      </trkpt>
      <trkpt lat="44.93352" lon="5.61989">
        <ele>818.9</ele>
        <time>2021-08-08T11:34:44Z</time>
      </trkpt>
      <trkpt lat="44.93358" lon="5.61991">
        <ele>819.1</ele>
        <time>2021-08-08T11:34:46Z</time>
      </trkpt>
      <trkpt lat="44.93361" lon="5.61992">
        <ele>819.2</ele>
        <time>2021-08-08T11:34:47Z</time>
      </trkpt>
      <trkpt lat="44.93364" lon="5.61993">
        <ele>819.4</ele>
        <time>2021-08-08T11:34:48Z</time>
      </trkpt>
      <trkpt lat="44.9337" lon="5.61996">
        <ele>819.7</ele>
        <time>2021-08-08T11:34:49Z</time>
      </trkpt>
      <trkpt lat="44.93373" lon="5.61997">
        <ele>819.8</ele>
        <time>2021-08-08T11:34:50Z</time>
      </trkpt>
      <trkpt lat="44.93378" lon="5.61999">
        <ele>820</ele>
        <time>2021-08-08T11:34:52Z</time>
      </trkpt>
      <trkpt lat="44.93381" lon="5.62001">
        <ele>820.2</ele>
        <time>2021-08-08T11:34:53Z</time>
      </trkpt>
      <trkpt lat="44.93385" lon="5.62003">
        <ele>820.4</ele>
        <time>2021-08-08T11:34:54Z</time>
      </trkpt>
      <trkpt lat="44.93389" lon="5.62004">
        <ele>820.6</ele>
        <time>2021-08-08T11:34:56Z</time>
      </trkpt>
      <trkpt lat="44.93393" lon="5.62006">
        <ele>820.8</ele>
        <time>2021-08-08T11:34:57Z</time>
      </trkpt>
      <trkpt lat="44.93398" lon="5.62008">
        <ele>821.1</ele>
        <time>2021-08-08T11:34:59Z</time>
      </trkpt>
      <trkpt lat="44.93403" lon="5.6201">
        <ele>821.4</ele>
        <time>2021-08-08T11:35:00Z</time>
      </trkpt>
      <trkpt lat="44.93408" lon="5.62012">
        <ele>821.7</ele>
        <time>2021-08-08T11:35:02Z</time>
      </trkpt>
      <trkpt lat="44.93412" lon="5.62013">
        <ele>821.8</ele>
        <time>2021-08-08T11:35:03Z</time>
      </trkpt>
      <trkpt lat="44.93415" lon="5.62013">
        <ele>822</ele>
        <time>2021-08-08T11:35:04Z</time>
      </trkpt>
      <trkpt lat="44.93419" lon="5.62013">
        <ele>822.2</ele>
        <time>2021-08-08T11:35:06Z</time>
      </trkpt>
      <trkpt lat="44.93423" lon="5.62012">
        <ele>822.4</ele>
        <time>2021-08-08T11:35:07Z</time>
      </trkpt>
      <trkpt lat="44.93427" lon="5.62011">
        <ele>822.6</ele>
        <time>2021-08-08T11:35:08Z</time>
      </trkpt>
      <trkpt lat="44.93431" lon="5.62009">
        <ele>822.8</ele>
        <time>2021-08-08T11:35:09Z</time>
      </trkpt>
      <trkpt lat="44.93434" lon="5.62006">
        <ele>823</ele>
        <time>2021-08-08T11:35:11Z</time>
      </trkpt>
      <trkpt lat="44.9344" lon="5.62">
        <ele>823.3</ele>
        <time>2021-08-08T11:35:12Z</time>
      </trkpt>
      <trkpt lat="44.93442" lon="5.61995">
        <ele>823.4</ele>
        <time>2021-08-08T11:35:13Z</time>
      </trkpt>
      <trkpt lat="44.93444" lon="5.6199">
        <ele>823.6</ele>
        <time>2021-08-08T11:35:15Z</time>
      </trkpt>
      <trkpt lat="44.93445" lon="5.61981">
        <ele>823.8</ele>
        <time>2021-08-08T11:35:16Z</time>
      </trkpt>
      <trkpt lat="44.93446" lon="5.61976">
        <ele>823.9</ele>
        <time>2021-08-08T11:35:17Z</time>
      </trkpt>
      <trkpt lat="44.93445" lon="5.61968">
        <ele>824.1</ele>
        <time>2021-08-08T11:35:19Z</time>
      </trkpt>
      <trkpt lat="44.93443" lon="5.61961">
        <ele>824.2</ele>
        <time>2021-08-08T11:35:20Z</time>
      </trkpt>
      <trkpt lat="44.93442" lon="5.61955">
        <ele>824.3</ele>
        <time>2021-08-08T11:35:21Z</time>
      </trkpt>
      <trkpt lat="44.9344" lon="5.61949">
        <ele>824.4</ele>
        <time>2021-08-08T11:35:22Z</time>
      </trkpt>
      <trkpt lat="44.93438" lon="5.61942">
        <ele>824.5</ele>
        <time>2021-08-08T11:35:24Z</time>
      </trkpt>
      <trkpt lat="44.93436" lon="5.61936">
        <ele>824.6</ele>
        <time>2021-08-08T11:35:25Z</time>
      </trkpt>
      <trkpt lat="44.93433" lon="5.61928">
        <ele>824.8</ele>
        <time>2021-08-08T11:35:26Z</time>
      </trkpt>
      <trkpt lat="44.93431" lon="5.61923">
        <ele>824.8</ele>
        <time>2021-08-08T11:35:28Z</time>
      </trkpt>
      <trkpt lat="44.9343" lon="5.61918">
        <ele>824.9</ele>
        <time>2021-08-08T11:35:29Z</time>
      </trkpt>
      <trkpt lat="44.93427" lon="5.6191">
        <ele>825.1</ele>
        <time>2021-08-08T11:35:30Z</time>
      </trkpt>
      <trkpt lat="44.93425" lon="5.61901">
        <ele>825.2</ele>
        <time>2021-08-08T11:35:32Z</time>
      </trkpt>
      <trkpt lat="44.93422" lon="5.61894">
        <ele>825.4</ele>
        <time>2021-08-08T11:35:33Z</time>
      </trkpt>
      <trkpt lat="44.9342" lon="5.61885">
        <ele>825.6</ele>
        <time>2021-08-08T11:35:35Z</time>
      </trkpt>
      <trkpt lat="44.93417" lon="5.61876">
        <ele>825.8</ele>
        <time>2021-08-08T11:35:36Z</time>
      </trkpt>
      <trkpt lat="44.93415" lon="5.61868">
        <ele>826</ele>
        <time>2021-08-08T11:35:38Z</time>
      </trkpt>
      <trkpt lat="44.93413" lon="5.61858">
        <ele>826.2</ele>
        <time>2021-08-08T11:35:39Z</time>
      </trkpt>
      <trkpt lat="44.93411" lon="5.61851">
        <ele>826.3</ele>
        <time>2021-08-08T11:35:40Z</time>
      </trkpt>
      <trkpt lat="44.9341" lon="5.61845">
        <ele>826.5</ele>
        <time>2021-08-08T11:35:42Z</time>
      </trkpt>
      <trkpt lat="44.9341" lon="5.61836">
        <ele>826.7</ele>
        <time>2021-08-08T11:35:43Z</time>
      </trkpt>
      <trkpt lat="44.93409" lon="5.6183">
        <ele>826.8</ele>
        <time>2021-08-08T11:35:44Z</time>
      </trkpt>
      <trkpt lat="44.93409" lon="5.61824">
        <ele>826.9</ele>
        <time>2021-08-08T11:35:45Z</time>
      </trkpt>
      <trkpt lat="44.93408" lon="5.61818">
        <ele>827.1</ele>
        <time>2021-08-08T11:35:46Z</time>
      </trkpt>
      <trkpt lat="44.93408" lon="5.61811">
        <ele>827.2</ele>
        <time>2021-08-08T11:35:48Z</time>
      </trkpt>
      <trkpt lat="44.93407" lon="5.61802">
        <ele>827.5</ele>
        <time>2021-08-08T11:35:49Z</time>
      </trkpt>
      <trkpt lat="44.93407" lon="5.61794">
        <ele>827.7</ele>
        <time>2021-08-08T11:35:50Z</time>
      </trkpt>
      <trkpt lat="44.93406" lon="5.61787">
        <ele>827.9</ele>
        <time>2021-08-08T11:35:52Z</time>
      </trkpt>
      <trkpt lat="44.93406" lon="5.61775">
        <ele>828.2</ele>
        <time>2021-08-08T11:35:53Z</time>
      </trkpt>
      <trkpt lat="44.93405" lon="5.61769">
        <ele>828.3</ele>
        <time>2021-08-08T11:35:55Z</time>
      </trkpt>
      <trkpt lat="44.93405" lon="5.6176">
        <ele>828.5</ele>
        <time>2021-08-08T11:35:56Z</time>
      </trkpt>
      <trkpt lat="44.93405" lon="5.61752">
        <ele>828.7</ele>
        <time>2021-08-08T11:35:57Z</time>
      </trkpt>
      <trkpt lat="44.93405" lon="5.61745">
        <ele>828.9</ele>
        <time>2021-08-08T11:35:58Z</time>
      </trkpt>
      <trkpt lat="44.93405" lon="5.61737">
        <ele>829.1</ele>
        <time>2021-08-08T11:36:00Z</time>
      </trkpt>
      <trkpt lat="44.93404" lon="5.6173">
        <ele>829.3</ele>
        <time>2021-08-08T11:36:01Z</time>
      </trkpt>
      <trkpt lat="44.93404" lon="5.61725">
        <ele>829.4</ele>
        <time>2021-08-08T11:36:02Z</time>
      </trkpt>
      <trkpt lat="44.93404" lon="5.61718">
        <ele>829.6</ele>
        <time>2021-08-08T11:36:04Z</time>
      </trkpt>
      <trkpt lat="44.93404" lon="5.61713">
        <ele>829.7</ele>
        <time>2021-08-08T11:36:05Z</time>
      </trkpt>
      <trkpt lat="44.93404" lon="5.6171">
        <ele>829.8</ele>
        <time>2021-08-08T11:36:06Z</time>
      </trkpt>
      <trkpt lat="44.93404" lon="5.61705">
        <ele>830</ele>
        <time>2021-08-08T11:36:07Z</time>
      </trkpt>
      <trkpt lat="44.93404" lon="5.617">
        <ele>830.1</ele>
        <time>2021-08-08T11:36:08Z</time>
      </trkpt>
      <trkpt lat="44.93404" lon="5.6169">
        <ele>830.3</ele>
        <time>2021-08-08T11:36:09Z</time>
      </trkpt>
      <trkpt lat="44.93405" lon="5.61685">
        <ele>830.5</ele>
        <time>2021-08-08T11:36:10Z</time>
      </trkpt>
      <trkpt lat="44.93406" lon="5.61679">
        <ele>830.6</ele>
        <time>2021-08-08T11:36:12Z</time>
      </trkpt>
      <trkpt lat="44.93406" lon="5.61673">
        <ele>830.7</ele>
        <time>2021-08-08T11:36:13Z</time>
      </trkpt>
      <trkpt lat="44.93407" lon="5.61667">
        <ele>830.9</ele>
        <time>2021-08-08T11:36:14Z</time>
      </trkpt>
      <trkpt lat="44.93408" lon="5.61659">
        <ele>831.1</ele>
        <time>2021-08-08T11:36:16Z</time>
      </trkpt>
      <trkpt lat="44.93408" lon="5.61654">
        <ele>831.2</ele>
        <time>2021-08-08T11:36:17Z</time>
      </trkpt>
      <trkpt lat="44.93409" lon="5.61646">
        <ele>831.4</ele>
        <time>2021-08-08T11:36:18Z</time>
      </trkpt>
      <trkpt lat="44.9341" lon="5.6164">
        <ele>831.5</ele>
        <time>2021-08-08T11:36:20Z</time>
      </trkpt>
      <trkpt lat="44.93411" lon="5.61635">
        <ele>831.7</ele>
        <time>2021-08-08T11:36:21Z</time>
      </trkpt>
      <trkpt lat="44.93412" lon="5.61629">
        <ele>831.8</ele>
        <time>2021-08-08T11:36:22Z</time>
      </trkpt>
      <trkpt lat="44.93413" lon="5.6162">
        <ele>832</ele>
        <time>2021-08-08T11:36:24Z</time>
      </trkpt>
      <trkpt lat="44.93413" lon="5.61614">
        <ele>832.2</ele>
        <time>2021-08-08T11:36:25Z</time>
      </trkpt>
      <trkpt lat="44.93414" lon="5.61607">
        <ele>832.4</ele>
        <time>2021-08-08T11:36:27Z</time>
      </trkpt>
      <trkpt lat="44.93415" lon="5.61597">
        <ele>832.6</ele>
        <time>2021-08-08T11:36:28Z</time>
      </trkpt>
      <trkpt lat="44.93415" lon="5.6159">
        <ele>832.8</ele>
        <time>2021-08-08T11:36:29Z</time>
      </trkpt>
      <trkpt lat="44.93416" lon="5.61582">
        <ele>832.9</ele>
        <time>2021-08-08T11:36:30Z</time>
      </trkpt>
      <trkpt lat="44.93416" lon="5.61573">
        <ele>833.1</ele>
        <time>2021-08-08T11:36:32Z</time>
      </trkpt>
      <trkpt lat="44.93416" lon="5.61562">
        <ele>833.4</ele>
        <time>2021-08-08T11:36:33Z</time>
      </trkpt>
      <trkpt lat="44.93416" lon="5.61554">
        <ele>833.6</ele>
        <time>2021-08-08T11:36:34Z</time>
      </trkpt>
      <trkpt lat="44.93417" lon="5.61546">
        <ele>833.8</ele>
        <time>2021-08-08T11:36:35Z</time>
      </trkpt>
      <trkpt lat="44.93417" lon="5.61536">
        <ele>834.1</ele>
        <time>2021-08-08T11:36:37Z</time>
      </trkpt>
      <trkpt lat="44.93417" lon="5.61529">
        <ele>834.3</ele>
        <time>2021-08-08T11:36:38Z</time>
      </trkpt>
      <trkpt lat="44.93418" lon="5.61523">
        <ele>834.4</ele>
        <time>2021-08-08T11:36:40Z</time>
      </trkpt>
      <trkpt lat="44.93419" lon="5.61514">
        <ele>834.6</ele>
        <time>2021-08-08T11:36:41Z</time>
      </trkpt>
      <trkpt lat="44.9342" lon="5.61506">
        <ele>834.8</ele>
        <time>2021-08-08T11:36:42Z</time>
      </trkpt>
      <trkpt lat="44.93421" lon="5.615">
        <ele>835</ele>
        <time>2021-08-08T11:36:43Z</time>
      </trkpt>
      <trkpt lat="44.93423" lon="5.61489">
        <ele>835.3</ele>
        <time>2021-08-08T11:36:45Z</time>
      </trkpt>
      <trkpt lat="44.93425" lon="5.61481">
        <ele>835.5</ele>
        <time>2021-08-08T11:36:46Z</time>
      </trkpt>
      <trkpt lat="44.93427" lon="5.61475">
        <ele>835.6</ele>
        <time>2021-08-08T11:36:47Z</time>
      </trkpt>
      <trkpt lat="44.9343" lon="5.61469">
        <ele>835.8</ele>
        <time>2021-08-08T11:36:48Z</time>
      </trkpt>
      <trkpt lat="44.93432" lon="5.61463">
        <ele>836</ele>
        <time>2021-08-08T11:36:49Z</time>
      </trkpt>
      <trkpt lat="44.93434" lon="5.61454">
        <ele>836.2</ele>
        <time>2021-08-08T11:36:51Z</time>
      </trkpt>
      <trkpt lat="44.93437" lon="5.61446">
        <ele>836.4</ele>
        <time>2021-08-08T11:36:52Z</time>
      </trkpt>
      <trkpt lat="44.93439" lon="5.61439">
        <ele>836.6</ele>
        <time>2021-08-08T11:36:53Z</time>
      </trkpt>
      <trkpt lat="44.93441" lon="5.6143">
        <ele>836.8</ele>
        <time>2021-08-08T11:36:55Z</time>
      </trkpt>
      <trkpt lat="44.93443" lon="5.61424">
        <ele>837</ele>
        <time>2021-08-08T11:36:56Z</time>
      </trkpt>
      <trkpt lat="44.93445" lon="5.61418">
        <ele>837.1</ele>
        <time>2021-08-08T11:36:57Z</time>
      </trkpt>
      <trkpt lat="44.93447" lon="5.61412">
        <ele>837.3</ele>
        <time>2021-08-08T11:36:58Z</time>
      </trkpt>
      <trkpt lat="44.93449" lon="5.61404">
        <ele>837.4</ele>
        <time>2021-08-08T11:36:59Z</time>
      </trkpt>
      <trkpt lat="44.93451" lon="5.61395">
        <ele>837.5</ele>
        <time>2021-08-08T11:37:01Z</time>
      </trkpt>
      <trkpt lat="44.93454" lon="5.61388">
        <ele>837.5</ele>
        <time>2021-08-08T11:37:02Z</time>
      </trkpt>
      <trkpt lat="44.93457" lon="5.61379">
        <ele>837.6</ele>
        <time>2021-08-08T11:37:03Z</time>
      </trkpt>
      <trkpt lat="44.93459" lon="5.61372">
        <ele>837.6</ele>
        <time>2021-08-08T11:37:05Z</time>
      </trkpt>
      <trkpt lat="44.93464" lon="5.61359">
        <ele>837.8</ele>
        <time>2021-08-08T11:37:06Z</time>
      </trkpt>
      <trkpt lat="44.93469" lon="5.61349">
        <ele>837.9</ele>
        <time>2021-08-08T11:37:09Z</time>
      </trkpt>
      <trkpt lat="44.93474" lon="5.61335">
        <ele>838.1</ele>
        <time>2021-08-08T11:37:11Z</time>
      </trkpt>
      <trkpt lat="44.93476" lon="5.61329">
        <ele>838.1</ele>
        <time>2021-08-08T11:37:12Z</time>
      </trkpt>
      <trkpt lat="44.9348" lon="5.61316">
        <ele>838.3</ele>
        <time>2021-08-08T11:37:14Z</time>
      </trkpt>
      <trkpt lat="44.93482" lon="5.6131">
        <ele>838.4</ele>
        <time>2021-08-08T11:37:15Z</time>
      </trkpt>
      <trkpt lat="44.93487" lon="5.61297">
        <ele>838.6</ele>
        <time>2021-08-08T11:37:16Z</time>
      </trkpt>
      <trkpt lat="44.93492" lon="5.61286">
        <ele>838.7</ele>
        <time>2021-08-08T11:37:19Z</time>
      </trkpt>
      <trkpt lat="44.93499" lon="5.61274">
        <ele>838.9</ele>
        <time>2021-08-08T11:37:21Z</time>
      </trkpt>
      <trkpt lat="44.93505" lon="5.61263">
        <ele>839.1</ele>
        <time>2021-08-08T11:37:22Z</time>
      </trkpt>
      <trkpt lat="44.93513" lon="5.61253">
        <ele>839.4</ele>
        <time>2021-08-08T11:37:25Z</time>
      </trkpt>
      <trkpt lat="44.93516" lon="5.61248">
        <ele>839.5</ele>
        <time>2021-08-08T11:37:26Z</time>
      </trkpt>
      <trkpt lat="44.93524" lon="5.61238">
        <ele>839.7</ele>
        <time>2021-08-08T11:37:27Z</time>
      </trkpt>
      <trkpt lat="44.93531" lon="5.61227">
        <ele>839.9</ele>
        <time>2021-08-08T11:37:30Z</time>
      </trkpt>
      <trkpt lat="44.93534" lon="5.61222">
        <ele>840</ele>
        <time>2021-08-08T11:37:31Z</time>
      </trkpt>
      <trkpt lat="44.9354" lon="5.61211">
        <ele>840.2</ele>
        <time>2021-08-08T11:37:33Z</time>
      </trkpt>
      <trkpt lat="44.93547" lon="5.612">
        <ele>840.4</ele>
        <time>2021-08-08T11:37:34Z</time>
      </trkpt>
      <trkpt lat="44.9355" lon="5.61195">
        <ele>840.4</ele>
        <time>2021-08-08T11:37:35Z</time>
      </trkpt>
      <trkpt lat="44.93558" lon="5.61185">
        <ele>840.6</ele>
        <time>2021-08-08T11:37:38Z</time>
      </trkpt>
      <trkpt lat="44.93562" lon="5.6118">
        <ele>840.7</ele>
        <time>2021-08-08T11:37:39Z</time>
      </trkpt>
      <trkpt lat="44.93566" lon="5.61174">
        <ele>840.8</ele>
        <time>2021-08-08T11:37:40Z</time>
      </trkpt>
      <trkpt lat="44.93574" lon="5.61165">
        <ele>841</ele>
        <time>2021-08-08T11:37:42Z</time>
      </trkpt>
      <trkpt lat="44.93582" lon="5.61155">
        <ele>841.1</ele>
        <time>2021-08-08T11:37:44Z</time>
      </trkpt>
      <trkpt lat="44.93589" lon="5.61146">
        <ele>841.3</ele>
        <time>2021-08-08T11:37:46Z</time>
      </trkpt>
      <trkpt lat="44.93597" lon="5.61137">
        <ele>841.5</ele>
        <time>2021-08-08T11:37:47Z</time>
      </trkpt>
      <trkpt lat="44.93605" lon="5.61129">
        <ele>841.7</ele>
        <time>2021-08-08T11:37:50Z</time>
      </trkpt>
      <trkpt lat="44.93613" lon="5.61121">
        <ele>841.8</ele>
        <time>2021-08-08T11:37:52Z</time>
      </trkpt>
      <trkpt lat="44.93617" lon="5.61117">
        <ele>841.9</ele>
        <time>2021-08-08T11:37:53Z</time>
      </trkpt>
      <trkpt lat="44.93625" lon="5.61109">
        <ele>842</ele>
        <time>2021-08-08T11:37:55Z</time>
      </trkpt>
      <trkpt lat="44.93632" lon="5.61101">
        <ele>842.1</ele>
        <time>2021-08-08T11:37:57Z</time>
      </trkpt>
      <trkpt lat="44.93639" lon="5.61091">
        <ele>842.2</ele>
        <time>2021-08-08T11:37:59Z</time>
      </trkpt>
      <trkpt lat="44.93643" lon="5.61087">
        <ele>842.3</ele>
        <time>2021-08-08T11:38:00Z</time>
      </trkpt>
      <trkpt lat="44.9365" lon="5.61077">
        <ele>842.4</ele>
        <time>2021-08-08T11:38:02Z</time>
      </trkpt>
      <trkpt lat="44.93653" lon="5.61072">
        <ele>842.4</ele>
        <time>2021-08-08T11:38:03Z</time>
      </trkpt>
      <trkpt lat="44.93656" lon="5.61066">
        <ele>842.5</ele>
        <time>2021-08-08T11:38:04Z</time>
      </trkpt>
      <trkpt lat="44.93663" lon="5.61055">
        <ele>842.5</ele>
        <time>2021-08-08T11:38:05Z</time>
      </trkpt>
      <trkpt lat="44.93666" lon="5.61048">
        <ele>842.5</ele>
        <time>2021-08-08T11:38:07Z</time>
      </trkpt>
      <trkpt lat="44.93672" lon="5.61034">
        <ele>842.5</ele>
        <time>2021-08-08T11:38:08Z</time>
      </trkpt>
      <trkpt lat="44.93679" lon="5.61021">
        <ele>842.4</ele>
        <time>2021-08-08T11:38:10Z</time>
      </trkpt>
      <trkpt lat="44.93688" lon="5.61009">
        <ele>842.3</ele>
        <time>2021-08-08T11:38:13Z</time>
      </trkpt>
      <trkpt lat="44.93699" lon="5.61001">
        <ele>842.2</ele>
        <time>2021-08-08T11:38:14Z</time>
      </trkpt>
      <trkpt lat="44.9371" lon="5.60995">
        <ele>842.1</ele>
        <time>2021-08-08T11:38:17Z</time>
      </trkpt>
      <trkpt lat="44.93722" lon="5.60992">
        <ele>842</ele>
        <time>2021-08-08T11:38:19Z</time>
      </trkpt>
      <trkpt lat="44.93734" lon="5.60988">
        <ele>842</ele>
        <time>2021-08-08T11:38:21Z</time>
      </trkpt>
      <trkpt lat="44.93746" lon="5.60984">
        <ele>841.9</ele>
        <time>2021-08-08T11:38:23Z</time>
      </trkpt>
      <trkpt lat="44.93757" lon="5.6098">
        <ele>842</ele>
        <time>2021-08-08T11:38:25Z</time>
      </trkpt>
      <trkpt lat="44.93768" lon="5.60975">
        <ele>842</ele>
        <time>2021-08-08T11:38:27Z</time>
      </trkpt>
      <trkpt lat="44.93773" lon="5.60971">
        <ele>842.1</ele>
        <time>2021-08-08T11:38:28Z</time>
      </trkpt>
      <trkpt lat="44.93784" lon="5.60962">
        <ele>842.3</ele>
        <time>2021-08-08T11:38:30Z</time>
      </trkpt>
      <trkpt lat="44.93789" lon="5.60957">
        <ele>842.4</ele>
        <time>2021-08-08T11:38:31Z</time>
      </trkpt>
      <trkpt lat="44.93798" lon="5.60948">
        <ele>842.4</ele>
        <time>2021-08-08T11:38:32Z</time>
      </trkpt>
      <trkpt lat="44.93808" lon="5.60942">
        <ele>842.4</ele>
        <time>2021-08-08T11:38:35Z</time>
      </trkpt>
      <trkpt lat="44.93817" lon="5.60937">
        <ele>842.4</ele>
        <time>2021-08-08T11:38:37Z</time>
      </trkpt>
      <trkpt lat="44.93827" lon="5.60931">
        <ele>842.4</ele>
        <time>2021-08-08T11:38:39Z</time>
      </trkpt>
      <trkpt lat="44.93837" lon="5.60926">
        <ele>842.4</ele>
        <time>2021-08-08T11:38:40Z</time>
      </trkpt>
      <trkpt lat="44.93843" lon="5.60923">
        <ele>842.4</ele>
        <time>2021-08-08T11:38:42Z</time>
      </trkpt>
      <trkpt lat="44.93848" lon="5.60921">
        <ele>842.3</ele>
        <time>2021-08-08T11:38:43Z</time>
      </trkpt>
      <trkpt lat="44.93853" lon="5.60917">
        <ele>842.3</ele>
        <time>2021-08-08T11:38:44Z</time>
      </trkpt>
      <trkpt lat="44.93858" lon="5.60915">
        <ele>842.2</ele>
        <time>2021-08-08T11:38:45Z</time>
      </trkpt>
      <trkpt lat="44.9387" lon="5.60912">
        <ele>842</ele>
        <time>2021-08-08T11:38:47Z</time>
      </trkpt>
      <trkpt lat="44.93882" lon="5.60909">
        <ele>841.7</ele>
        <time>2021-08-08T11:38:49Z</time>
      </trkpt>
      <trkpt lat="44.93887" lon="5.60909">
        <ele>841.5</ele>
        <time>2021-08-08T11:38:50Z</time>
      </trkpt>
      <trkpt lat="44.93893" lon="5.60908">
        <ele>841.3</ele>
        <time>2021-08-08T11:38:51Z</time>
      </trkpt>
      <trkpt lat="44.93906" lon="5.60908">
        <ele>840.9</ele>
        <time>2021-08-08T11:38:52Z</time>
      </trkpt>
      <trkpt lat="44.93913" lon="5.60908">
        <ele>840.6</ele>
        <time>2021-08-08T11:38:54Z</time>
      </trkpt>
      <trkpt lat="44.9392" lon="5.60907">
        <ele>840.3</ele>
        <time>2021-08-08T11:38:55Z</time>
      </trkpt>
      <trkpt lat="44.93927" lon="5.60907">
        <ele>840.1</ele>
        <time>2021-08-08T11:38:56Z</time>
      </trkpt>
      <trkpt lat="44.93933" lon="5.60906">
        <ele>839.8</ele>
        <time>2021-08-08T11:38:57Z</time>
      </trkpt>
      <trkpt lat="44.9394" lon="5.60906">
        <ele>839.5</ele>
        <time>2021-08-08T11:38:58Z</time>
      </trkpt>
      <trkpt lat="44.93947" lon="5.60905">
        <ele>839.3</ele>
        <time>2021-08-08T11:38:59Z</time>
      </trkpt>
      <trkpt lat="44.93961" lon="5.60901">
        <ele>838.8</ele>
        <time>2021-08-08T11:39:01Z</time>
      </trkpt>
      <trkpt lat="44.93968" lon="5.60898">
        <ele>838.5</ele>
        <time>2021-08-08T11:39:02Z</time>
      </trkpt>
      <trkpt lat="44.93975" lon="5.60895">
        <ele>838.3</ele>
        <time>2021-08-08T11:39:03Z</time>
      </trkpt>
      <trkpt lat="44.9399" lon="5.60885">
        <ele>837.7</ele>
        <time>2021-08-08T11:39:05Z</time>
      </trkpt>
      <trkpt lat="44.93997" lon="5.6088">
        <ele>837.4</ele>
        <time>2021-08-08T11:39:06Z</time>
      </trkpt>
      <trkpt lat="44.94005" lon="5.60875">
        <ele>837.1</ele>
        <time>2021-08-08T11:39:07Z</time>
      </trkpt>
      <trkpt lat="44.94012" lon="5.6087">
        <ele>836.8</ele>
        <time>2021-08-08T11:39:08Z</time>
      </trkpt>
      <trkpt lat="44.94026" lon="5.60859">
        <ele>836.3</ele>
        <time>2021-08-08T11:39:10Z</time>
      </trkpt>
      <trkpt lat="44.94033" lon="5.60855">
        <ele>836</ele>
        <time>2021-08-08T11:39:11Z</time>
      </trkpt>
      <trkpt lat="44.94047" lon="5.60844">
        <ele>835.4</ele>
        <time>2021-08-08T11:39:13Z</time>
      </trkpt>
      <trkpt lat="44.94061" lon="5.60835">
        <ele>835</ele>
        <time>2021-08-08T11:39:15Z</time>
      </trkpt>
      <trkpt lat="44.94075" lon="5.60825">
        <ele>834.6</ele>
        <time>2021-08-08T11:39:16Z</time>
      </trkpt>
      <trkpt lat="44.94089" lon="5.60815">
        <ele>834.2</ele>
        <time>2021-08-08T11:39:19Z</time>
      </trkpt>
      <trkpt lat="44.94096" lon="5.60812">
        <ele>834</ele>
        <time>2021-08-08T11:39:20Z</time>
      </trkpt>
      <trkpt lat="44.94104" lon="5.60808">
        <ele>833.9</ele>
        <time>2021-08-08T11:39:21Z</time>
      </trkpt>
      <trkpt lat="44.94112" lon="5.60804">
        <ele>833.6</ele>
        <time>2021-08-08T11:39:22Z</time>
      </trkpt>
      <trkpt lat="44.94127" lon="5.60797">
        <ele>833.1</ele>
        <time>2021-08-08T11:39:24Z</time>
      </trkpt>
      <trkpt lat="44.94135" lon="5.60793">
        <ele>832.9</ele>
        <time>2021-08-08T11:39:25Z</time>
      </trkpt>
      <trkpt lat="44.9415" lon="5.60786">
        <ele>832.5</ele>
        <time>2021-08-08T11:39:27Z</time>
      </trkpt>
      <trkpt lat="44.94165" lon="5.60779">
        <ele>832.2</ele>
        <time>2021-08-08T11:39:28Z</time>
      </trkpt>
      <trkpt lat="44.94179" lon="5.60771">
        <ele>831.9</ele>
        <time>2021-08-08T11:39:31Z</time>
      </trkpt>
      <trkpt lat="44.94191" lon="5.60759">
        <ele>831.5</ele>
        <time>2021-08-08T11:39:32Z</time>
      </trkpt>
      <trkpt lat="44.94204" lon="5.60748">
        <ele>831.1</ele>
        <time>2021-08-08T11:39:35Z</time>
      </trkpt>
      <trkpt lat="44.9421" lon="5.60742">
        <ele>831</ele>
        <time>2021-08-08T11:39:36Z</time>
      </trkpt>
      <trkpt lat="44.94217" lon="5.60736">
        <ele>830.9</ele>
        <time>2021-08-08T11:39:37Z</time>
      </trkpt>
      <trkpt lat="44.94229" lon="5.60723">
        <ele>830.7</ele>
        <time>2021-08-08T11:39:38Z</time>
      </trkpt>
      <trkpt lat="44.94235" lon="5.60717">
        <ele>830.6</ele>
        <time>2021-08-08T11:39:40Z</time>
      </trkpt>
      <trkpt lat="44.94247" lon="5.60705">
        <ele>830.5</ele>
        <time>2021-08-08T11:39:42Z</time>
      </trkpt>
      <trkpt lat="44.94253" lon="5.60699">
        <ele>830.4</ele>
        <time>2021-08-08T11:39:43Z</time>
      </trkpt>
      <trkpt lat="44.94259" lon="5.60692">
        <ele>830.4</ele>
        <time>2021-08-08T11:39:44Z</time>
      </trkpt>
      <trkpt lat="44.94271" lon="5.6068">
        <ele>830.4</ele>
        <time>2021-08-08T11:39:46Z</time>
      </trkpt>
      <trkpt lat="44.94283" lon="5.6067">
        <ele>830.5</ele>
        <time>2021-08-08T11:39:47Z</time>
      </trkpt>
      <trkpt lat="44.94294" lon="5.6066">
        <ele>830.8</ele>
        <time>2021-08-08T11:39:50Z</time>
      </trkpt>
      <trkpt lat="44.94306" lon="5.60651">
        <ele>831.1</ele>
        <time>2021-08-08T11:39:52Z</time>
      </trkpt>
      <trkpt lat="44.94317" lon="5.60644">
        <ele>831.5</ele>
        <time>2021-08-08T11:39:54Z</time>
      </trkpt>
      <trkpt lat="44.94323" lon="5.60642">
        <ele>831.7</ele>
        <time>2021-08-08T11:39:55Z</time>
      </trkpt>
      <trkpt lat="44.94333" lon="5.60641">
        <ele>832.1</ele>
        <time>2021-08-08T11:39:57Z</time>
      </trkpt>
      <trkpt lat="44.94338" lon="5.60641">
        <ele>832.3</ele>
        <time>2021-08-08T11:39:58Z</time>
      </trkpt>
      <trkpt lat="44.94342" lon="5.60641">
        <ele>832.5</ele>
        <time>2021-08-08T11:39:59Z</time>
      </trkpt>
      <trkpt lat="44.94347" lon="5.60641">
        <ele>832.7</ele>
        <time>2021-08-08T11:40:00Z</time>
      </trkpt>
      <trkpt lat="44.94352" lon="5.60641">
        <ele>832.9</ele>
        <time>2021-08-08T11:40:01Z</time>
      </trkpt>
      <trkpt lat="44.94359" lon="5.60643">
        <ele>833.2</ele>
        <time>2021-08-08T11:40:03Z</time>
      </trkpt>
      <trkpt lat="44.94362" lon="5.60644">
        <ele>833.4</ele>
        <time>2021-08-08T11:40:04Z</time>
      </trkpt>
      <trkpt lat="44.94371" lon="5.60646">
        <ele>833.8</ele>
        <time>2021-08-08T11:40:06Z</time>
      </trkpt>
      <trkpt lat="44.94375" lon="5.60647">
        <ele>834</ele>
        <time>2021-08-08T11:40:07Z</time>
      </trkpt>
      <trkpt lat="44.94379" lon="5.60648">
        <ele>834.2</ele>
        <time>2021-08-08T11:40:08Z</time>
      </trkpt>
      <trkpt lat="44.94384" lon="5.60652">
        <ele>834.5</ele>
        <time>2021-08-08T11:40:09Z</time>
      </trkpt>
      <trkpt lat="44.94388" lon="5.60652">
        <ele>834.7</ele>
        <time>2021-08-08T11:40:10Z</time>
      </trkpt>
      <trkpt lat="44.94394" lon="5.60652">
        <ele>835</ele>
        <time>2021-08-08T11:40:12Z</time>
      </trkpt>
      <trkpt lat="44.944" lon="5.60651">
        <ele>835.3</ele>
        <time>2021-08-08T11:40:13Z</time>
      </trkpt>
      <trkpt lat="44.94406" lon="5.60651">
        <ele>835.7</ele>
        <time>2021-08-08T11:40:14Z</time>
      </trkpt>
      <trkpt lat="44.94413" lon="5.60651">
        <ele>836</ele>
        <time>2021-08-08T11:40:16Z</time>
      </trkpt>
      <trkpt lat="44.94418" lon="5.6065">
        <ele>836.3</ele>
        <time>2021-08-08T11:40:18Z</time>
      </trkpt>
      <trkpt lat="44.94425" lon="5.60649">
        <ele>836.7</ele>
        <time>2021-08-08T11:40:19Z</time>
      </trkpt>
      <trkpt lat="44.94429" lon="5.60648">
        <ele>836.9</ele>
        <time>2021-08-08T11:40:20Z</time>
      </trkpt>
      <trkpt lat="44.94434" lon="5.60647">
        <ele>837</ele>
        <time>2021-08-08T11:40:22Z</time>
      </trkpt>
      <trkpt lat="44.94438" lon="5.60646">
        <ele>837.1</ele>
        <time>2021-08-08T11:40:23Z</time>
      </trkpt>
      <trkpt lat="44.94444" lon="5.60644">
        <ele>837.2</ele>
        <time>2021-08-08T11:40:24Z</time>
      </trkpt>
      <trkpt lat="44.9445" lon="5.60642">
        <ele>837.4</ele>
        <time>2021-08-08T11:40:25Z</time>
      </trkpt>
      <trkpt lat="44.94457" lon="5.60639">
        <ele>837.5</ele>
        <time>2021-08-08T11:40:27Z</time>
      </trkpt>
      <trkpt lat="44.94464" lon="5.60637">
        <ele>837.6</ele>
        <time>2021-08-08T11:40:29Z</time>
      </trkpt>
      <trkpt lat="44.94469" lon="5.60635">
        <ele>837.7</ele>
        <time>2021-08-08T11:40:30Z</time>
      </trkpt>
      <trkpt lat="44.94474" lon="5.60633">
        <ele>837.7</ele>
        <time>2021-08-08T11:40:31Z</time>
      </trkpt>
      <trkpt lat="44.94478" lon="5.60632">
        <ele>837.7</ele>
        <time>2021-08-08T11:40:33Z</time>
      </trkpt>
      <trkpt lat="44.94484" lon="5.60629">
        <ele>837.8</ele>
        <time>2021-08-08T11:40:34Z</time>
      </trkpt>
      <trkpt lat="44.94489" lon="5.60627">
        <ele>837.8</ele>
        <time>2021-08-08T11:40:35Z</time>
      </trkpt>
      <trkpt lat="44.94495" lon="5.60623">
        <ele>837.9</ele>
        <time>2021-08-08T11:40:36Z</time>
      </trkpt>
      <trkpt lat="44.94504" lon="5.60619">
        <ele>838</ele>
        <time>2021-08-08T11:40:38Z</time>
      </trkpt>
      <trkpt lat="44.94513" lon="5.60615">
        <ele>837.9</ele>
        <time>2021-08-08T11:40:40Z</time>
      </trkpt>
      <trkpt lat="44.94518" lon="5.60612">
        <ele>837.9</ele>
        <time>2021-08-08T11:40:42Z</time>
      </trkpt>
      <trkpt lat="44.94526" lon="5.60607">
        <ele>837.9</ele>
        <time>2021-08-08T11:40:43Z</time>
      </trkpt>
      <trkpt lat="44.94536" lon="5.60599">
        <ele>837.8</ele>
        <time>2021-08-08T11:40:45Z</time>
      </trkpt>
      <trkpt lat="44.94541" lon="5.60595">
        <ele>837.8</ele>
        <time>2021-08-08T11:40:47Z</time>
      </trkpt>
      <trkpt lat="44.9455" lon="5.60587">
        <ele>837.7</ele>
        <time>2021-08-08T11:40:48Z</time>
      </trkpt>
      <trkpt lat="44.9456" lon="5.60578">
        <ele>837.5</ele>
        <time>2021-08-08T11:40:51Z</time>
      </trkpt>
      <trkpt lat="44.94565" lon="5.60574">
        <ele>837.4</ele>
        <time>2021-08-08T11:40:52Z</time>
      </trkpt>
      <trkpt lat="44.9457" lon="5.60569">
        <ele>837.4</ele>
        <time>2021-08-08T11:40:53Z</time>
      </trkpt>
      <trkpt lat="44.94575" lon="5.60564">
        <ele>837.3</ele>
        <time>2021-08-08T11:40:54Z</time>
      </trkpt>
      <trkpt lat="44.9458" lon="5.60559">
        <ele>837.2</ele>
        <time>2021-08-08T11:40:55Z</time>
      </trkpt>
      <trkpt lat="44.94591" lon="5.60548">
        <ele>837</ele>
        <time>2021-08-08T11:40:57Z</time>
      </trkpt>
      <trkpt lat="44.94602" lon="5.60536">
        <ele>836.8</ele>
        <time>2021-08-08T11:40:59Z</time>
      </trkpt>
      <trkpt lat="44.94607" lon="5.6053">
        <ele>836.7</ele>
        <time>2021-08-08T11:41:00Z</time>
      </trkpt>
      <trkpt lat="44.94613" lon="5.60525">
        <ele>836.7</ele>
        <time>2021-08-08T11:41:01Z</time>
      </trkpt>
      <trkpt lat="44.94618" lon="5.60519">
        <ele>836.6</ele>
        <time>2021-08-08T11:41:02Z</time>
      </trkpt>
      <trkpt lat="44.94629" lon="5.60506">
        <ele>836.3</ele>
        <time>2021-08-08T11:41:03Z</time>
      </trkpt>
      <trkpt lat="44.94634" lon="5.605">
        <ele>836.2</ele>
        <time>2021-08-08T11:41:05Z</time>
      </trkpt>
      <trkpt lat="44.94639" lon="5.60492">
        <ele>836.1</ele>
        <time>2021-08-08T11:41:06Z</time>
      </trkpt>
      <trkpt lat="44.94649" lon="5.60479">
        <ele>835.8</ele>
        <time>2021-08-08T11:41:08Z</time>
      </trkpt>
      <trkpt lat="44.94654" lon="5.60472">
        <ele>835.7</ele>
        <time>2021-08-08T11:41:09Z</time>
      </trkpt>
      <trkpt lat="44.94658" lon="5.60464">
        <ele>835.6</ele>
        <time>2021-08-08T11:41:10Z</time>
      </trkpt>
      <trkpt lat="44.94662" lon="5.60456">
        <ele>835.5</ele>
        <time>2021-08-08T11:41:11Z</time>
      </trkpt>
      <trkpt lat="44.94666" lon="5.60448">
        <ele>835.4</ele>
        <time>2021-08-08T11:41:12Z</time>
      </trkpt>
      <trkpt lat="44.94676" lon="5.60433">
        <ele>835.3</ele>
        <time>2021-08-08T11:41:14Z</time>
      </trkpt>
      <trkpt lat="44.94681" lon="5.60427">
        <ele>835.2</ele>
        <time>2021-08-08T11:41:15Z</time>
      </trkpt>
      <trkpt lat="44.94693" lon="5.60416">
        <ele>835.1</ele>
        <time>2021-08-08T11:41:17Z</time>
      </trkpt>
      <trkpt lat="44.94706" lon="5.60408">
        <ele>835</ele>
        <time>2021-08-08T11:41:19Z</time>
      </trkpt>
      <trkpt lat="44.94718" lon="5.60399">
        <ele>835.6</ele>
        <time>2021-08-08T11:41:21Z</time>
      </trkpt>
      <trkpt lat="44.94728" lon="5.60389">
        <ele>837.1</ele>
        <time>2021-08-08T11:41:22Z</time>
      </trkpt>
      <trkpt lat="44.94735" lon="5.60377">
        <ele>837.6</ele>
        <time>2021-08-08T11:41:24Z</time>
      </trkpt>
      <trkpt lat="44.94738" lon="5.60371">
        <ele>837.9</ele>
        <time>2021-08-08T11:41:26Z</time>
      </trkpt>
      <trkpt lat="44.94744" lon="5.60361">
        <ele>838.3</ele>
        <time>2021-08-08T11:41:28Z</time>
      </trkpt>
      <trkpt lat="44.94748" lon="5.60354">
        <ele>838.7</ele>
        <time>2021-08-08T11:41:30Z</time>
      </trkpt>
      <trkpt lat="44.94753" lon="5.60346">
        <ele>839.1</ele>
        <time>2021-08-08T11:41:32Z</time>
      </trkpt>
      <trkpt lat="44.94755" lon="5.60342">
        <ele>839.3</ele>
        <time>2021-08-08T11:41:33Z</time>
      </trkpt>
      <trkpt lat="44.9476" lon="5.60333">
        <ele>839.7</ele>
        <time>2021-08-08T11:41:35Z</time>
      </trkpt>
      <trkpt lat="44.94762" lon="5.60326">
        <ele>839.9</ele>
        <time>2021-08-08T11:41:36Z</time>
      </trkpt>
      <trkpt lat="44.94766" lon="5.6032">
        <ele>840.2</ele>
        <time>2021-08-08T11:41:38Z</time>
      </trkpt>
      <trkpt lat="44.9477" lon="5.60315">
        <ele>840.5</ele>
        <time>2021-08-08T11:41:39Z</time>
      </trkpt>
      <trkpt lat="44.94773" lon="5.6031">
        <ele>840.7</ele>
        <time>2021-08-08T11:41:40Z</time>
      </trkpt>
      <trkpt lat="44.94775" lon="5.60306">
        <ele>840.9</ele>
        <time>2021-08-08T11:41:41Z</time>
      </trkpt>
      <trkpt lat="44.94779" lon="5.60301">
        <ele>841.2</ele>
        <time>2021-08-08T11:41:42Z</time>
      </trkpt>
      <trkpt lat="44.94781" lon="5.60297">
        <ele>841.4</ele>
        <time>2021-08-08T11:41:43Z</time>
      </trkpt>
      <trkpt lat="44.94785" lon="5.6029">
        <ele>841.6</ele>
        <time>2021-08-08T11:41:45Z</time>
      </trkpt>
      <trkpt lat="44.94787" lon="5.60285">
        <ele>841.9</ele>
        <time>2021-08-08T11:41:46Z</time>
      </trkpt>
      <trkpt lat="44.94789" lon="5.60279">
        <ele>842.1</ele>
        <time>2021-08-08T11:41:48Z</time>
      </trkpt>
      <trkpt lat="44.94792" lon="5.60273">
        <ele>842.4</ele>
        <time>2021-08-08T11:41:49Z</time>
      </trkpt>
      <trkpt lat="44.94794" lon="5.60266">
        <ele>842.7</ele>
        <time>2021-08-08T11:41:51Z</time>
      </trkpt>
      <trkpt lat="44.94796" lon="5.6026">
        <ele>843</ele>
        <time>2021-08-08T11:41:52Z</time>
      </trkpt>
      <trkpt lat="44.94798" lon="5.60255">
        <ele>843.2</ele>
        <time>2021-08-08T11:41:53Z</time>
      </trkpt>
      <trkpt lat="44.948" lon="5.60249">
        <ele>843.4</ele>
        <time>2021-08-08T11:41:54Z</time>
      </trkpt>
      <trkpt lat="44.94802" lon="5.60243">
        <ele>843.7</ele>
        <time>2021-08-08T11:41:56Z</time>
      </trkpt>
      <trkpt lat="44.94803" lon="5.60238">
        <ele>843.9</ele>
        <time>2021-08-08T11:41:57Z</time>
      </trkpt>
      <trkpt lat="44.94804" lon="5.60233">
        <ele>844.1</ele>
        <time>2021-08-08T11:41:58Z</time>
      </trkpt>
      <trkpt lat="44.94805" lon="5.60228">
        <ele>844.2</ele>
        <time>2021-08-08T11:42:00Z</time>
      </trkpt>
      <trkpt lat="44.94806" lon="5.60222">
        <ele>844.4</ele>
        <time>2021-08-08T11:42:01Z</time>
      </trkpt>
      <trkpt lat="44.94807" lon="5.60215">
        <ele>844.7</ele>
        <time>2021-08-08T11:42:02Z</time>
      </trkpt>
      <trkpt lat="44.94808" lon="5.60209">
        <ele>844.9</ele>
        <time>2021-08-08T11:42:04Z</time>
      </trkpt>
      <trkpt lat="44.94809" lon="5.60194">
        <ele>845.4</ele>
        <time>2021-08-08T11:42:06Z</time>
      </trkpt>
      <trkpt lat="44.94809" lon="5.60185">
        <ele>845.8</ele>
        <time>2021-08-08T11:42:08Z</time>
      </trkpt>
      <trkpt lat="44.9481" lon="5.60179">
        <ele>846</ele>
        <time>2021-08-08T11:42:09Z</time>
      </trkpt>
      <trkpt lat="44.9481" lon="5.60172">
        <ele>846.2</ele>
        <time>2021-08-08T11:42:10Z</time>
      </trkpt>
      <trkpt lat="44.9481" lon="5.60164">
        <ele>846.5</ele>
        <time>2021-08-08T11:42:12Z</time>
      </trkpt>
      <trkpt lat="44.94811" lon="5.60151">
        <ele>847</ele>
        <time>2021-08-08T11:42:14Z</time>
      </trkpt>
      <trkpt lat="44.94811" lon="5.60144">
        <ele>847.2</ele>
        <time>2021-08-08T11:42:16Z</time>
      </trkpt>
      <trkpt lat="44.94811" lon="5.60137">
        <ele>847.5</ele>
        <time>2021-08-08T11:42:17Z</time>
      </trkpt>
      <trkpt lat="44.94811" lon="5.60128">
        <ele>847.8</ele>
        <time>2021-08-08T11:42:19Z</time>
      </trkpt>
      <trkpt lat="44.94811" lon="5.60124">
        <ele>847.9</ele>
        <time>2021-08-08T11:42:20Z</time>
      </trkpt>
      <trkpt lat="44.94811" lon="5.60118">
        <ele>848.1</ele>
        <time>2021-08-08T11:42:22Z</time>
      </trkpt>
      <trkpt lat="44.94811" lon="5.60113">
        <ele>848.3</ele>
        <time>2021-08-08T11:42:23Z</time>
      </trkpt>
      <trkpt lat="44.94811" lon="5.60109">
        <ele>848.5</ele>
        <time>2021-08-08T11:42:24Z</time>
      </trkpt>
      <trkpt lat="44.94811" lon="5.60104">
        <ele>848.7</ele>
        <time>2021-08-08T11:42:25Z</time>
      </trkpt>
      <trkpt lat="44.9481" lon="5.60098">
        <ele>848.9</ele>
        <time>2021-08-08T11:42:26Z</time>
      </trkpt>
      <trkpt lat="44.9481" lon="5.60093">
        <ele>849.1</ele>
        <time>2021-08-08T11:42:27Z</time>
      </trkpt>
      <trkpt lat="44.94809" lon="5.60089">
        <ele>849.2</ele>
        <time>2021-08-08T11:42:28Z</time>
      </trkpt>
      <trkpt lat="44.94808" lon="5.60083">
        <ele>849.5</ele>
        <time>2021-08-08T11:42:29Z</time>
      </trkpt>
      <trkpt lat="44.94808" lon="5.60077">
        <ele>849.7</ele>
        <time>2021-08-08T11:42:30Z</time>
      </trkpt>
      <trkpt lat="44.94807" lon="5.60073">
        <ele>849.8</ele>
        <time>2021-08-08T11:42:32Z</time>
      </trkpt>
      <trkpt lat="44.94806" lon="5.60066">
        <ele>850.1</ele>
        <time>2021-08-08T11:42:33Z</time>
      </trkpt>
      <trkpt lat="44.94805" lon="5.60061">
        <ele>850.3</ele>
        <time>2021-08-08T11:42:34Z</time>
      </trkpt>
      <trkpt lat="44.94803" lon="5.60056">
        <ele>850.5</ele>
        <time>2021-08-08T11:42:35Z</time>
      </trkpt>
      <trkpt lat="44.94803" lon="5.60052">
        <ele>850.7</ele>
        <time>2021-08-08T11:42:36Z</time>
      </trkpt>
      <trkpt lat="44.94802" lon="5.60045">
        <ele>850.9</ele>
        <time>2021-08-08T11:42:38Z</time>
      </trkpt>
      <trkpt lat="44.94801" lon="5.60038">
        <ele>851.2</ele>
        <time>2021-08-08T11:42:39Z</time>
      </trkpt>
      <trkpt lat="44.948" lon="5.60032">
        <ele>851.4</ele>
        <time>2021-08-08T11:42:41Z</time>
      </trkpt>
      <trkpt lat="44.94799" lon="5.60025">
        <ele>851.7</ele>
        <time>2021-08-08T11:42:42Z</time>
      </trkpt>
      <trkpt lat="44.94799" lon="5.60019">
        <ele>851.9</ele>
        <time>2021-08-08T11:42:43Z</time>
      </trkpt>
      <trkpt lat="44.94799" lon="5.60013">
        <ele>852.1</ele>
        <time>2021-08-08T11:42:44Z</time>
      </trkpt>
      <trkpt lat="44.94799" lon="5.60007">
        <ele>852.4</ele>
        <time>2021-08-08T11:42:46Z</time>
      </trkpt>
      <trkpt lat="44.948" lon="5.59999">
        <ele>852.7</ele>
        <time>2021-08-08T11:42:47Z</time>
      </trkpt>
      <trkpt lat="44.948" lon="5.59993">
        <ele>852.9</ele>
        <time>2021-08-08T11:42:48Z</time>
      </trkpt>
      <trkpt lat="44.94801" lon="5.59988">
        <ele>853.1</ele>
        <time>2021-08-08T11:42:49Z</time>
      </trkpt>
      <trkpt lat="44.94801" lon="5.59983">
        <ele>853.3</ele>
        <time>2021-08-08T11:42:50Z</time>
      </trkpt>
      <trkpt lat="44.94803" lon="5.59974">
        <ele>853.6</ele>
        <time>2021-08-08T11:42:52Z</time>
      </trkpt>
      <trkpt lat="44.94804" lon="5.5997">
        <ele>853.8</ele>
        <time>2021-08-08T11:42:53Z</time>
      </trkpt>
      <trkpt lat="44.94806" lon="5.59959">
        <ele>854.2</ele>
        <time>2021-08-08T11:42:55Z</time>
      </trkpt>
      <trkpt lat="44.94807" lon="5.59954">
        <ele>854.4</ele>
        <time>2021-08-08T11:42:57Z</time>
      </trkpt>
      <trkpt lat="44.94808" lon="5.59946">
        <ele>854.8</ele>
        <time>2021-08-08T11:42:58Z</time>
      </trkpt>
      <trkpt lat="44.94809" lon="5.5994">
        <ele>855</ele>
        <time>2021-08-08T11:42:59Z</time>
      </trkpt>
      <trkpt lat="44.9481" lon="5.59929">
        <ele>855.3</ele>
        <time>2021-08-08T11:43:01Z</time>
      </trkpt>
      <trkpt lat="44.94812" lon="5.5992">
        <ele>855.7</ele>
        <time>2021-08-08T11:43:03Z</time>
      </trkpt>
      <trkpt lat="44.94813" lon="5.59914">
        <ele>856</ele>
        <time>2021-08-08T11:43:05Z</time>
      </trkpt>
      <trkpt lat="44.94814" lon="5.59908">
        <ele>856.2</ele>
        <time>2021-08-08T11:43:06Z</time>
      </trkpt>
      <trkpt lat="44.94815" lon="5.59902">
        <ele>856.5</ele>
        <time>2021-08-08T11:43:07Z</time>
      </trkpt>
      <trkpt lat="44.94816" lon="5.59897">
        <ele>856.8</ele>
        <time>2021-08-08T11:43:08Z</time>
      </trkpt>
      <trkpt lat="44.94817" lon="5.5989">
        <ele>857.1</ele>
        <time>2021-08-08T11:43:10Z</time>
      </trkpt>
      <trkpt lat="44.94818" lon="5.59884">
        <ele>857.4</ele>
        <time>2021-08-08T11:43:11Z</time>
      </trkpt>
      <trkpt lat="44.94819" lon="5.59878">
        <ele>857.7</ele>
        <time>2021-08-08T11:43:13Z</time>
      </trkpt>
      <trkpt lat="44.9482" lon="5.59873">
        <ele>858</ele>
        <time>2021-08-08T11:43:14Z</time>
      </trkpt>
      <trkpt lat="44.9482" lon="5.59868">
        <ele>858.2</ele>
        <time>2021-08-08T11:43:15Z</time>
      </trkpt>
      <trkpt lat="44.94819" lon="5.59862">
        <ele>858.6</ele>
        <time>2021-08-08T11:43:16Z</time>
      </trkpt>
      <trkpt lat="44.94819" lon="5.59855">
        <ele>858.9</ele>
        <time>2021-08-08T11:43:18Z</time>
      </trkpt>
      <trkpt lat="44.94819" lon="5.59849">
        <ele>859.1</ele>
        <time>2021-08-08T11:43:19Z</time>
      </trkpt>
      <trkpt lat="44.94819" lon="5.59847">
        <ele>859.2</ele>
        <time>2021-08-08T11:43:20Z</time>
      </trkpt>
      <trkpt lat="44.94818" lon="5.59842">
        <ele>859.5</ele>
        <time>2021-08-08T11:43:22Z</time>
      </trkpt>
      <trkpt lat="44.94817" lon="5.59838">
        <ele>859.6</ele>
        <time>2021-08-08T11:43:23Z</time>
      </trkpt>
      <trkpt lat="44.94815" lon="5.59832">
        <ele>859.9</ele>
        <time>2021-08-08T11:43:24Z</time>
      </trkpt>
      <trkpt lat="44.94814" lon="5.59828">
        <ele>860.1</ele>
        <time>2021-08-08T11:43:25Z</time>
      </trkpt>
      <trkpt lat="44.94812" lon="5.59823">
        <ele>860.3</ele>
        <time>2021-08-08T11:43:26Z</time>
      </trkpt>
      <trkpt lat="44.9481" lon="5.59819">
        <ele>860.5</ele>
        <time>2021-08-08T11:43:27Z</time>
      </trkpt>
      <trkpt lat="44.94807" lon="5.59815">
        <ele>860.8</ele>
        <time>2021-08-08T11:43:28Z</time>
      </trkpt>
      <trkpt lat="44.94806" lon="5.59811">
        <ele>860.9</ele>
        <time>2021-08-08T11:43:29Z</time>
      </trkpt>
      <trkpt lat="44.94803" lon="5.59806">
        <ele>861.2</ele>
        <time>2021-08-08T11:43:31Z</time>
      </trkpt>
      <trkpt lat="44.94799" lon="5.59801">
        <ele>861.5</ele>
        <time>2021-08-08T11:43:32Z</time>
      </trkpt>
      <trkpt lat="44.94796" lon="5.59796">
        <ele>861.8</ele>
        <time>2021-08-08T11:43:34Z</time>
      </trkpt>
      <trkpt lat="44.94792" lon="5.5979">
        <ele>862.1</ele>
        <time>2021-08-08T11:43:35Z</time>
      </trkpt>
      <trkpt lat="44.9479" lon="5.59784">
        <ele>862.4</ele>
        <time>2021-08-08T11:43:36Z</time>
      </trkpt>
      <trkpt lat="44.94787" lon="5.59779">
        <ele>862.7</ele>
        <time>2021-08-08T11:43:38Z</time>
      </trkpt>
      <trkpt lat="44.94786" lon="5.59775">
        <ele>862.9</ele>
        <time>2021-08-08T11:43:39Z</time>
      </trkpt>
      <trkpt lat="44.94784" lon="5.5977">
        <ele>863.1</ele>
        <time>2021-08-08T11:43:40Z</time>
      </trkpt>
      <trkpt lat="44.94781" lon="5.59762">
        <ele>863.5</ele>
        <time>2021-08-08T11:43:41Z</time>
      </trkpt>
      <trkpt lat="44.9478" lon="5.59756">
        <ele>863.8</ele>
        <time>2021-08-08T11:43:42Z</time>
      </trkpt>
      <trkpt lat="44.94779" lon="5.59749">
        <ele>864</ele>
        <time>2021-08-08T11:43:44Z</time>
      </trkpt>
      <trkpt lat="44.94779" lon="5.59743">
        <ele>864.3</ele>
        <time>2021-08-08T11:43:45Z</time>
      </trkpt>
      <trkpt lat="44.9478" lon="5.59734">
        <ele>864.7</ele>
        <time>2021-08-08T11:43:47Z</time>
      </trkpt>
      <trkpt lat="44.9478" lon="5.5973">
        <ele>864.8</ele>
        <time>2021-08-08T11:43:48Z</time>
      </trkpt>
      <trkpt lat="44.94781" lon="5.59725">
        <ele>865</ele>
        <time>2021-08-08T11:43:49Z</time>
      </trkpt>
      <trkpt lat="44.94783" lon="5.59716">
        <ele>865.4</ele>
        <time>2021-08-08T11:43:51Z</time>
      </trkpt>
      <trkpt lat="44.94785" lon="5.59709">
        <ele>865.7</ele>
        <time>2021-08-08T11:43:53Z</time>
      </trkpt>
      <trkpt lat="44.94786" lon="5.59704">
        <ele>866</ele>
        <time>2021-08-08T11:43:54Z</time>
      </trkpt>
      <trkpt lat="44.94789" lon="5.59698">
        <ele>866.2</ele>
        <time>2021-08-08T11:43:56Z</time>
      </trkpt>
      <trkpt lat="44.94792" lon="5.59691">
        <ele>866.6</ele>
        <time>2021-08-08T11:43:57Z</time>
      </trkpt>
      <trkpt lat="44.94795" lon="5.59687">
        <ele>866.8</ele>
        <time>2021-08-08T11:43:58Z</time>
      </trkpt>
      <trkpt lat="44.94797" lon="5.59683">
        <ele>867</ele>
        <time>2021-08-08T11:43:59Z</time>
      </trkpt>
      <trkpt lat="44.94799" lon="5.59679">
        <ele>867.2</ele>
        <time>2021-08-08T11:44:01Z</time>
      </trkpt>
      <trkpt lat="44.94801" lon="5.59674">
        <ele>867.4</ele>
        <time>2021-08-08T11:44:02Z</time>
      </trkpt>
      <trkpt lat="44.94802" lon="5.59669">
        <ele>867.6</ele>
        <time>2021-08-08T11:44:03Z</time>
      </trkpt>
      <trkpt lat="44.94803" lon="5.59663">
        <ele>867.8</ele>
        <time>2021-08-08T11:44:04Z</time>
      </trkpt>
      <trkpt lat="44.94804" lon="5.59659">
        <ele>868</ele>
        <time>2021-08-08T11:44:05Z</time>
      </trkpt>
      <trkpt lat="44.94804" lon="5.59648">
        <ele>868.4</ele>
        <time>2021-08-08T11:44:07Z</time>
      </trkpt>
      <trkpt lat="44.94804" lon="5.59643">
        <ele>868.6</ele>
        <time>2021-08-08T11:44:08Z</time>
      </trkpt>
      <trkpt lat="44.94804" lon="5.59635">
        <ele>868.9</ele>
        <time>2021-08-08T11:44:10Z</time>
      </trkpt>
      <trkpt lat="44.94804" lon="5.59629">
        <ele>869.1</ele>
        <time>2021-08-08T11:44:12Z</time>
      </trkpt>
      <trkpt lat="44.94803" lon="5.59623">
        <ele>869.3</ele>
        <time>2021-08-08T11:44:13Z</time>
      </trkpt>
      <trkpt lat="44.94803" lon="5.59617">
        <ele>869.5</ele>
        <time>2021-08-08T11:44:14Z</time>
      </trkpt>
      <trkpt lat="44.94803" lon="5.59616">
        <ele>869.6</ele>
        <time>2021-08-08T11:44:15Z</time>
      </trkpt>
      <trkpt lat="44.94802" lon="5.59611">
        <ele>869.8</ele>
        <time>2021-08-08T11:44:17Z</time>
      </trkpt>
      <trkpt lat="44.94801" lon="5.59605">
        <ele>870</ele>
        <time>2021-08-08T11:44:18Z</time>
      </trkpt>
      <trkpt lat="44.94801" lon="5.596">
        <ele>870.2</ele>
        <time>2021-08-08T11:44:20Z</time>
      </trkpt>
      <trkpt lat="44.94801" lon="5.59594">
        <ele>870.5</ele>
        <time>2021-08-08T11:44:21Z</time>
      </trkpt>
      <trkpt lat="44.94801" lon="5.59588">
        <ele>870.7</ele>
        <time>2021-08-08T11:44:23Z</time>
      </trkpt>
      <trkpt lat="44.94801" lon="5.59584">
        <ele>870.8</ele>
        <time>2021-08-08T11:44:24Z</time>
      </trkpt>
      <trkpt lat="44.94801" lon="5.59579">
        <ele>871.1</ele>
        <time>2021-08-08T11:44:25Z</time>
      </trkpt>
      <trkpt lat="44.94801" lon="5.59578">
        <ele>871.1</ele>
        <time>2021-08-08T11:44:26Z</time>
      </trkpt>
      <trkpt lat="44.94801" lon="5.59573">
        <ele>871.3</ele>
        <time>2021-08-08T11:44:28Z</time>
      </trkpt>
      <trkpt lat="44.94802" lon="5.59568">
        <ele>871.6</ele>
        <time>2021-08-08T11:44:29Z</time>
      </trkpt>
      <trkpt lat="44.94802" lon="5.59565">
        <ele>871.7</ele>
        <time>2021-08-08T11:44:30Z</time>
      </trkpt>
      <trkpt lat="44.94803" lon="5.59559">
        <ele>871.9</ele>
        <time>2021-08-08T11:44:32Z</time>
      </trkpt>
      <trkpt lat="44.94803" lon="5.59554">
        <ele>872.2</ele>
        <time>2021-08-08T11:44:33Z</time>
      </trkpt>
      <trkpt lat="44.94804" lon="5.59547">
        <ele>872.4</ele>
        <time>2021-08-08T11:44:34Z</time>
      </trkpt>
      <trkpt lat="44.94804" lon="5.59542">
        <ele>872.6</ele>
        <time>2021-08-08T11:44:35Z</time>
      </trkpt>
      <trkpt lat="44.94804" lon="5.59532">
        <ele>873</ele>
        <time>2021-08-08T11:44:37Z</time>
      </trkpt>
      <trkpt lat="44.94805" lon="5.59523">
        <ele>873.3</ele>
        <time>2021-08-08T11:44:40Z</time>
      </trkpt>
      <trkpt lat="44.94805" lon="5.59518">
        <ele>873.5</ele>
        <time>2021-08-08T11:44:41Z</time>
      </trkpt>
      <trkpt lat="44.94805" lon="5.5951">
        <ele>873.9</ele>
        <time>2021-08-08T11:44:42Z</time>
      </trkpt>
      <trkpt lat="44.94805" lon="5.59505">
        <ele>874.1</ele>
        <time>2021-08-08T11:44:44Z</time>
      </trkpt>
      <trkpt lat="44.94805" lon="5.59501">
        <ele>874.3</ele>
        <time>2021-08-08T11:44:45Z</time>
      </trkpt>
      <trkpt lat="44.94805" lon="5.59495">
        <ele>874.6</ele>
        <time>2021-08-08T11:44:46Z</time>
      </trkpt>
      <trkpt lat="44.94805" lon="5.59488">
        <ele>874.9</ele>
        <time>2021-08-08T11:44:47Z</time>
      </trkpt>
      <trkpt lat="44.94805" lon="5.59481">
        <ele>875.3</ele>
        <time>2021-08-08T11:44:48Z</time>
      </trkpt>
      <trkpt lat="44.94805" lon="5.59474">
        <ele>875.7</ele>
        <time>2021-08-08T11:44:49Z</time>
      </trkpt>
      <trkpt lat="44.94806" lon="5.59465">
        <ele>876.1</ele>
        <time>2021-08-08T11:44:51Z</time>
      </trkpt>
      <trkpt lat="44.94807" lon="5.59459">
        <ele>876.4</ele>
        <time>2021-08-08T11:44:52Z</time>
      </trkpt>
      <trkpt lat="44.94808" lon="5.5945">
        <ele>876.8</ele>
        <time>2021-08-08T11:44:54Z</time>
      </trkpt>
      <trkpt lat="44.94809" lon="5.5944">
        <ele>877.3</ele>
        <time>2021-08-08T11:44:55Z</time>
      </trkpt>
      <trkpt lat="44.9481" lon="5.59433">
        <ele>877.7</ele>
        <time>2021-08-08T11:44:57Z</time>
      </trkpt>
      <trkpt lat="44.94811" lon="5.59423">
        <ele>878.2</ele>
        <time>2021-08-08T11:44:58Z</time>
      </trkpt>
      <trkpt lat="44.94812" lon="5.59415">
        <ele>878.6</ele>
        <time>2021-08-08T11:44:59Z</time>
      </trkpt>
      <trkpt lat="44.94812" lon="5.59409">
        <ele>879</ele>
        <time>2021-08-08T11:45:01Z</time>
      </trkpt>
      <trkpt lat="44.94813" lon="5.59403">
        <ele>879.3</ele>
        <time>2021-08-08T11:45:02Z</time>
      </trkpt>
      <trkpt lat="44.94814" lon="5.59393">
        <ele>879.7</ele>
        <time>2021-08-08T11:45:03Z</time>
      </trkpt>
      <trkpt lat="44.94815" lon="5.59388">
        <ele>880</ele>
        <time>2021-08-08T11:45:05Z</time>
      </trkpt>
      <trkpt lat="44.94816" lon="5.59379">
        <ele>880.4</ele>
        <time>2021-08-08T11:45:06Z</time>
      </trkpt>
      <trkpt lat="44.94816" lon="5.59374">
        <ele>880.6</ele>
        <time>2021-08-08T11:45:08Z</time>
      </trkpt>
      <trkpt lat="44.94817" lon="5.59367">
        <ele>880.9</ele>
        <time>2021-08-08T11:45:09Z</time>
      </trkpt>
      <trkpt lat="44.94818" lon="5.59359">
        <ele>881.2</ele>
        <time>2021-08-08T11:45:11Z</time>
      </trkpt>
      <trkpt lat="44.94819" lon="5.59351">
        <ele>881.5</ele>
        <time>2021-08-08T11:45:12Z</time>
      </trkpt>
      <trkpt lat="44.9482" lon="5.59346">
        <ele>881.7</ele>
        <time>2021-08-08T11:45:13Z</time>
      </trkpt>
      <trkpt lat="44.9482" lon="5.5934">
        <ele>881.9</ele>
        <time>2021-08-08T11:45:15Z</time>
      </trkpt>
      <trkpt lat="44.94821" lon="5.59333">
        <ele>882.2</ele>
        <time>2021-08-08T11:45:16Z</time>
      </trkpt>
      <trkpt lat="44.94822" lon="5.59325">
        <ele>882.5</ele>
        <time>2021-08-08T11:45:18Z</time>
      </trkpt>
      <trkpt lat="44.94823" lon="5.5932">
        <ele>882.7</ele>
        <time>2021-08-08T11:45:19Z</time>
      </trkpt>
      <trkpt lat="44.94823" lon="5.59315">
        <ele>882.9</ele>
        <time>2021-08-08T11:45:20Z</time>
      </trkpt>
      <trkpt lat="44.94824" lon="5.59308">
        <ele>883.2</ele>
        <time>2021-08-08T11:45:21Z</time>
      </trkpt>
      <trkpt lat="44.94825" lon="5.59302">
        <ele>883.5</ele>
        <time>2021-08-08T11:45:22Z</time>
      </trkpt>
      <trkpt lat="44.94825" lon="5.59296">
        <ele>883.7</ele>
        <time>2021-08-08T11:45:24Z</time>
      </trkpt>
      <trkpt lat="44.94826" lon="5.5929">
        <ele>884</ele>
        <time>2021-08-08T11:45:25Z</time>
      </trkpt>
      <trkpt lat="44.94826" lon="5.59284">
        <ele>884.3</ele>
        <time>2021-08-08T11:45:27Z</time>
      </trkpt>
      <trkpt lat="44.94827" lon="5.59278">
        <ele>884.6</ele>
        <time>2021-08-08T11:45:28Z</time>
      </trkpt>
      <trkpt lat="44.94827" lon="5.59273">
        <ele>884.9</ele>
        <time>2021-08-08T11:45:29Z</time>
      </trkpt>
      <trkpt lat="44.94828" lon="5.59269">
        <ele>885.1</ele>
        <time>2021-08-08T11:45:30Z</time>
      </trkpt>
      <trkpt lat="44.94829" lon="5.59263">
        <ele>885.3</ele>
        <time>2021-08-08T11:45:32Z</time>
      </trkpt>
      <trkpt lat="44.94829" lon="5.59258">
        <ele>885.5</ele>
        <time>2021-08-08T11:45:33Z</time>
      </trkpt>
      <trkpt lat="44.9483" lon="5.59254">
        <ele>885.7</ele>
        <time>2021-08-08T11:45:34Z</time>
      </trkpt>
      <trkpt lat="44.9483" lon="5.59249">
        <ele>886</ele>
        <time>2021-08-08T11:45:36Z</time>
      </trkpt>
      <trkpt lat="44.94831" lon="5.59243">
        <ele>886.2</ele>
        <time>2021-08-08T11:45:37Z</time>
      </trkpt>
      <trkpt lat="44.94831" lon="5.59238">
        <ele>886.4</ele>
        <time>2021-08-08T11:45:38Z</time>
      </trkpt>
      <trkpt lat="44.94831" lon="5.59233">
        <ele>886.6</ele>
        <time>2021-08-08T11:45:39Z</time>
      </trkpt>
      <trkpt lat="44.94832" lon="5.59225">
        <ele>886.7</ele>
        <time>2021-08-08T11:45:41Z</time>
      </trkpt>
      <trkpt lat="44.94832" lon="5.5922">
        <ele>886.7</ele>
        <time>2021-08-08T11:45:43Z</time>
      </trkpt>
      <trkpt lat="44.94833" lon="5.59214">
        <ele>886.8</ele>
        <time>2021-08-08T11:45:44Z</time>
      </trkpt>
      <trkpt lat="44.94833" lon="5.59208">
        <ele>886.8</ele>
        <time>2021-08-08T11:45:46Z</time>
      </trkpt>
      <trkpt lat="44.94834" lon="5.59202">
        <ele>886.9</ele>
        <time>2021-08-08T11:45:47Z</time>
      </trkpt>
      <trkpt lat="44.94835" lon="5.59197">
        <ele>887</ele>
        <time>2021-08-08T11:45:49Z</time>
      </trkpt>
      <trkpt lat="44.94834" lon="5.59191">
        <ele>887.2</ele>
        <time>2021-08-08T11:45:50Z</time>
      </trkpt>
      <trkpt lat="44.94834" lon="5.59184">
        <ele>887.5</ele>
        <time>2021-08-08T11:45:51Z</time>
      </trkpt>
      <trkpt lat="44.94834" lon="5.5918">
        <ele>887.7</ele>
        <time>2021-08-08T11:45:53Z</time>
      </trkpt>
      <trkpt lat="44.94833" lon="5.59171">
        <ele>888</ele>
        <time>2021-08-08T11:45:55Z</time>
      </trkpt>
      <trkpt lat="44.94832" lon="5.59168">
        <ele>888.2</ele>
        <time>2021-08-08T11:45:56Z</time>
      </trkpt>
      <trkpt lat="44.94831" lon="5.59162">
        <ele>888.5</ele>
        <time>2021-08-08T11:45:57Z</time>
      </trkpt>
      <trkpt lat="44.94829" lon="5.59155">
        <ele>888.7</ele>
        <time>2021-08-08T11:45:59Z</time>
      </trkpt>
      <trkpt lat="44.94828" lon="5.59149">
        <ele>889</ele>
        <time>2021-08-08T11:46:00Z</time>
      </trkpt>
      <trkpt lat="44.94827" lon="5.59143">
        <ele>889.2</ele>
        <time>2021-08-08T11:46:02Z</time>
      </trkpt>
      <trkpt lat="44.94824" lon="5.59138">
        <ele>889.5</ele>
        <time>2021-08-08T11:46:03Z</time>
      </trkpt>
      <trkpt lat="44.94822" lon="5.59131">
        <ele>889.8</ele>
        <time>2021-08-08T11:46:05Z</time>
      </trkpt>
      <trkpt lat="44.94821" lon="5.59125">
        <ele>890</ele>
        <time>2021-08-08T11:46:06Z</time>
      </trkpt>
      <trkpt lat="44.94818" lon="5.59118">
        <ele>890.4</ele>
        <time>2021-08-08T11:46:07Z</time>
      </trkpt>
      <trkpt lat="44.94816" lon="5.59109">
        <ele>890.7</ele>
        <time>2021-08-08T11:46:09Z</time>
      </trkpt>
      <trkpt lat="44.94816" lon="5.59105">
        <ele>890.9</ele>
        <time>2021-08-08T11:46:11Z</time>
      </trkpt>
      <trkpt lat="44.94815" lon="5.59101">
        <ele>891.1</ele>
        <time>2021-08-08T11:46:12Z</time>
      </trkpt>
      <trkpt lat="44.94813" lon="5.59095">
        <ele>891.4</ele>
        <time>2021-08-08T11:46:13Z</time>
      </trkpt>
      <trkpt lat="44.94811" lon="5.59089">
        <ele>891.6</ele>
        <time>2021-08-08T11:46:14Z</time>
      </trkpt>
      <trkpt lat="44.9481" lon="5.59085">
        <ele>891.8</ele>
        <time>2021-08-08T11:46:15Z</time>
      </trkpt>
      <trkpt lat="44.94808" lon="5.5908">
        <ele>892</ele>
        <time>2021-08-08T11:46:17Z</time>
      </trkpt>
      <trkpt lat="44.94805" lon="5.59072">
        <ele>892.3</ele>
        <time>2021-08-08T11:46:18Z</time>
      </trkpt>
      <trkpt lat="44.94804" lon="5.59066">
        <ele>892.5</ele>
        <time>2021-08-08T11:46:19Z</time>
      </trkpt>
      <trkpt lat="44.94802" lon="5.59058">
        <ele>892.9</ele>
        <time>2021-08-08T11:46:22Z</time>
      </trkpt>
      <trkpt lat="44.948" lon="5.59049">
        <ele>893.3</ele>
        <time>2021-08-08T11:46:23Z</time>
      </trkpt>
      <trkpt lat="44.94798" lon="5.59044">
        <ele>893.5</ele>
        <time>2021-08-08T11:46:25Z</time>
      </trkpt>
      <trkpt lat="44.94797" lon="5.59038">
        <ele>893.8</ele>
        <time>2021-08-08T11:46:26Z</time>
      </trkpt>
      <trkpt lat="44.94796" lon="5.59032">
        <ele>894</ele>
        <time>2021-08-08T11:46:28Z</time>
      </trkpt>
      <trkpt lat="44.94795" lon="5.59027">
        <ele>894.3</ele>
        <time>2021-08-08T11:46:29Z</time>
      </trkpt>
      <trkpt lat="44.94793" lon="5.59021">
        <ele>894.5</ele>
        <time>2021-08-08T11:46:30Z</time>
      </trkpt>
      <trkpt lat="44.94792" lon="5.59014">
        <ele>894.9</ele>
        <time>2021-08-08T11:46:32Z</time>
      </trkpt>
      <trkpt lat="44.94791" lon="5.59008">
        <ele>895.1</ele>
        <time>2021-08-08T11:46:33Z</time>
      </trkpt>
      <trkpt lat="44.9479" lon="5.59002">
        <ele>895.4</ele>
        <time>2021-08-08T11:46:35Z</time>
      </trkpt>
      <trkpt lat="44.94789" lon="5.58997">
        <ele>895.7</ele>
        <time>2021-08-08T11:46:36Z</time>
      </trkpt>
      <trkpt lat="44.94789" lon="5.58993">
        <ele>895.8</ele>
        <time>2021-08-08T11:46:38Z</time>
      </trkpt>
      <trkpt lat="44.94788" lon="5.58987">
        <ele>896.1</ele>
        <time>2021-08-08T11:46:39Z</time>
      </trkpt>
      <trkpt lat="44.94788" lon="5.58982">
        <ele>896.3</ele>
        <time>2021-08-08T11:46:40Z</time>
      </trkpt>
      <trkpt lat="44.94788" lon="5.58978">
        <ele>896.5</ele>
        <time>2021-08-08T11:46:41Z</time>
      </trkpt>
      <trkpt lat="44.94788" lon="5.58973">
        <ele>896.7</ele>
        <time>2021-08-08T11:46:42Z</time>
      </trkpt>
      <trkpt lat="44.94788" lon="5.58967">
        <ele>897</ele>
        <time>2021-08-08T11:46:44Z</time>
      </trkpt>
      <trkpt lat="44.94788" lon="5.58963">
        <ele>897.2</ele>
        <time>2021-08-08T11:46:45Z</time>
      </trkpt>
      <trkpt lat="44.94788" lon="5.58956">
        <ele>897.5</ele>
        <time>2021-08-08T11:46:46Z</time>
      </trkpt>
      <trkpt lat="44.94787" lon="5.58948">
        <ele>897.9</ele>
        <time>2021-08-08T11:46:48Z</time>
      </trkpt>
      <trkpt lat="44.94787" lon="5.58943">
        <ele>898.1</ele>
        <time>2021-08-08T11:46:49Z</time>
      </trkpt>
      <trkpt lat="44.94787" lon="5.58938">
        <ele>898.3</ele>
        <time>2021-08-08T11:46:50Z</time>
      </trkpt>
      <trkpt lat="44.94787" lon="5.58934">
        <ele>898.5</ele>
        <time>2021-08-08T11:46:52Z</time>
      </trkpt>
      <trkpt lat="44.94787" lon="5.58928">
        <ele>898.8</ele>
        <time>2021-08-08T11:46:53Z</time>
      </trkpt>
      <trkpt lat="44.94787" lon="5.58925">
        <ele>898.9</ele>
        <time>2021-08-08T11:46:54Z</time>
      </trkpt>
      <trkpt lat="44.94787" lon="5.58916">
        <ele>899.3</ele>
        <time>2021-08-08T11:46:56Z</time>
      </trkpt>
      <trkpt lat="44.94787" lon="5.58911">
        <ele>899.5</ele>
        <time>2021-08-08T11:46:58Z</time>
      </trkpt>
      <trkpt lat="44.94787" lon="5.58906">
        <ele>899.8</ele>
        <time>2021-08-08T11:46:59Z</time>
      </trkpt>
      <trkpt lat="44.94787" lon="5.58902">
        <ele>900</ele>
        <time>2021-08-08T11:47:00Z</time>
      </trkpt>
      <trkpt lat="44.94787" lon="5.58901">
        <ele>900</ele>
        <time>2021-08-08T11:47:01Z</time>
      </trkpt>
      <trkpt lat="44.94786" lon="5.58897">
        <ele>900.2</ele>
        <time>2021-08-08T11:47:02Z</time>
      </trkpt>
      <trkpt lat="44.94786" lon="5.58893">
        <ele>900.4</ele>
        <time>2021-08-08T11:47:04Z</time>
      </trkpt>
      <trkpt lat="44.94786" lon="5.58887">
        <ele>900.7</ele>
        <time>2021-08-08T11:47:05Z</time>
      </trkpt>
      <trkpt lat="44.94786" lon="5.58885">
        <ele>900.8</ele>
        <time>2021-08-08T11:47:06Z</time>
      </trkpt>
      <trkpt lat="44.94785" lon="5.58879">
        <ele>901.1</ele>
        <time>2021-08-08T11:47:07Z</time>
      </trkpt>
      <trkpt lat="44.94785" lon="5.58873">
        <ele>901.4</ele>
        <time>2021-08-08T11:47:08Z</time>
      </trkpt>
      <trkpt lat="44.94784" lon="5.58868">
        <ele>901.7</ele>
        <time>2021-08-08T11:47:10Z</time>
      </trkpt>
      <trkpt lat="44.94784" lon="5.58862">
        <ele>902</ele>
        <time>2021-08-08T11:47:11Z</time>
      </trkpt>
      <trkpt lat="44.94784" lon="5.58857">
        <ele>902.3</ele>
        <time>2021-08-08T11:47:12Z</time>
      </trkpt>
      <trkpt lat="44.94784" lon="5.58853">
        <ele>902.5</ele>
        <time>2021-08-08T11:47:13Z</time>
      </trkpt>
      <trkpt lat="44.94785" lon="5.58849">
        <ele>902.7</ele>
        <time>2021-08-08T11:47:14Z</time>
      </trkpt>
      <trkpt lat="44.94785" lon="5.58844">
        <ele>902.9</ele>
        <time>2021-08-08T11:47:16Z</time>
      </trkpt>
      <trkpt lat="44.94785" lon="5.58838">
        <ele>903.2</ele>
        <time>2021-08-08T11:47:17Z</time>
      </trkpt>
      <trkpt lat="44.94786" lon="5.58832">
        <ele>903.5</ele>
        <time>2021-08-08T11:47:18Z</time>
      </trkpt>
      <trkpt lat="44.94786" lon="5.58826">
        <ele>903.8</ele>
        <time>2021-08-08T11:47:20Z</time>
      </trkpt>
      <trkpt lat="44.94787" lon="5.58822">
        <ele>904</ele>
        <time>2021-08-08T11:47:21Z</time>
      </trkpt>
      <trkpt lat="44.94788" lon="5.58818">
        <ele>904.2</ele>
        <time>2021-08-08T11:47:22Z</time>
      </trkpt>
      <trkpt lat="44.94789" lon="5.58813">
        <ele>904.4</ele>
        <time>2021-08-08T11:47:24Z</time>
      </trkpt>
      <trkpt lat="44.94791" lon="5.58808">
        <ele>904.7</ele>
        <time>2021-08-08T11:47:25Z</time>
      </trkpt>
      <trkpt lat="44.94792" lon="5.58802">
        <ele>905</ele>
        <time>2021-08-08T11:47:26Z</time>
      </trkpt>
      <trkpt lat="44.94794" lon="5.58795">
        <ele>905.4</ele>
        <time>2021-08-08T11:47:27Z</time>
      </trkpt>
      <trkpt lat="44.94795" lon="5.58788">
        <ele>905.7</ele>
        <time>2021-08-08T11:47:29Z</time>
      </trkpt>
      <trkpt lat="44.94796" lon="5.58782">
        <ele>906</ele>
        <time>2021-08-08T11:47:30Z</time>
      </trkpt>
      <trkpt lat="44.94797" lon="5.58778">
        <ele>906.3</ele>
        <time>2021-08-08T11:47:31Z</time>
      </trkpt>
      <trkpt lat="44.94799" lon="5.5877">
        <ele>906.7</ele>
        <time>2021-08-08T11:47:32Z</time>
      </trkpt>
      <trkpt lat="44.948" lon="5.58764">
        <ele>907</ele>
        <time>2021-08-08T11:47:33Z</time>
      </trkpt>
      <trkpt lat="44.94803" lon="5.58756">
        <ele>907.5</ele>
        <time>2021-08-08T11:47:35Z</time>
      </trkpt>
      <trkpt lat="44.94805" lon="5.5875">
        <ele>907.8</ele>
        <time>2021-08-08T11:47:36Z</time>
      </trkpt>
      <trkpt lat="44.94807" lon="5.58743">
        <ele>908.2</ele>
        <time>2021-08-08T11:47:37Z</time>
      </trkpt>
      <trkpt lat="44.94808" lon="5.58737">
        <ele>908.6</ele>
        <time>2021-08-08T11:47:38Z</time>
      </trkpt>
      <trkpt lat="44.9481" lon="5.5873">
        <ele>909</ele>
        <time>2021-08-08T11:47:40Z</time>
      </trkpt>
      <trkpt lat="44.94811" lon="5.58725">
        <ele>909.2</ele>
        <time>2021-08-08T11:47:41Z</time>
      </trkpt>
      <trkpt lat="44.94814" lon="5.58716">
        <ele>909.8</ele>
        <time>2021-08-08T11:47:42Z</time>
      </trkpt>
      <trkpt lat="44.94814" lon="5.5871">
        <ele>910.1</ele>
        <time>2021-08-08T11:47:44Z</time>
      </trkpt>
      <trkpt lat="44.94816" lon="5.58702">
        <ele>910.6</ele>
        <time>2021-08-08T11:47:45Z</time>
      </trkpt>
      <trkpt lat="44.94817" lon="5.58695">
        <ele>911</ele>
        <time>2021-08-08T11:47:47Z</time>
      </trkpt>
      <trkpt lat="44.94818" lon="5.58688">
        <ele>911.4</ele>
        <time>2021-08-08T11:47:48Z</time>
      </trkpt>
      <trkpt lat="44.94819" lon="5.58683">
        <ele>911.6</ele>
        <time>2021-08-08T11:47:49Z</time>
      </trkpt>
      <trkpt lat="44.94819" lon="5.58678">
        <ele>911.9</ele>
        <time>2021-08-08T11:47:50Z</time>
      </trkpt>
      <trkpt lat="44.94819" lon="5.58673">
        <ele>912.2</ele>
        <time>2021-08-08T11:47:52Z</time>
      </trkpt>
      <trkpt lat="44.94818" lon="5.58666">
        <ele>912.5</ele>
        <time>2021-08-08T11:47:53Z</time>
      </trkpt>
      <trkpt lat="44.94818" lon="5.58661">
        <ele>912.8</ele>
        <time>2021-08-08T11:47:54Z</time>
      </trkpt>
      <trkpt lat="44.94817" lon="5.58656">
        <ele>913.1</ele>
        <time>2021-08-08T11:47:56Z</time>
      </trkpt>
      <trkpt lat="44.94815" lon="5.58647">
        <ele>913.5</ele>
        <time>2021-08-08T11:47:57Z</time>
      </trkpt>
      <trkpt lat="44.94814" lon="5.5864">
        <ele>913.9</ele>
        <time>2021-08-08T11:47:59Z</time>
      </trkpt>
      <trkpt lat="44.94812" lon="5.58635">
        <ele>914.2</ele>
        <time>2021-08-08T11:48:01Z</time>
      </trkpt>
      <trkpt lat="44.9481" lon="5.5863">
        <ele>914.5</ele>
        <time>2021-08-08T11:48:02Z</time>
      </trkpt>
      <trkpt lat="44.94808" lon="5.58626">
        <ele>914.8</ele>
        <time>2021-08-08T11:48:03Z</time>
      </trkpt>
      <trkpt lat="44.94807" lon="5.58622">
        <ele>915.1</ele>
        <time>2021-08-08T11:48:05Z</time>
      </trkpt>
      <trkpt lat="44.94805" lon="5.58616">
        <ele>915.4</ele>
        <time>2021-08-08T11:48:06Z</time>
      </trkpt>
      <trkpt lat="44.94804" lon="5.5861">
        <ele>915.7</ele>
        <time>2021-08-08T11:48:07Z</time>
      </trkpt>
      <trkpt lat="44.94803" lon="5.58606">
        <ele>916</ele>
        <time>2021-08-08T11:48:09Z</time>
      </trkpt>
      <trkpt lat="44.94803" lon="5.58602">
        <ele>916.2</ele>
        <time>2021-08-08T11:48:10Z</time>
      </trkpt>
      <trkpt lat="44.94804" lon="5.58594">
        <ele>916.6</ele>
        <time>2021-08-08T11:48:12Z</time>
      </trkpt>
      <trkpt lat="44.94805" lon="5.5859">
        <ele>916.8</ele>
        <time>2021-08-08T11:48:13Z</time>
      </trkpt>
      <trkpt lat="44.94807" lon="5.58584">
        <ele>917.1</ele>
        <time>2021-08-08T11:48:14Z</time>
      </trkpt>
      <trkpt lat="44.94812" lon="5.58578">
        <ele>917.5</ele>
        <time>2021-08-08T11:48:16Z</time>
      </trkpt>
      <trkpt lat="44.94814" lon="5.58575">
        <ele>917.6</ele>
        <time>2021-08-08T11:48:17Z</time>
      </trkpt>
      <trkpt lat="44.94817" lon="5.58573">
        <ele>917.8</ele>
        <time>2021-08-08T11:48:18Z</time>
      </trkpt>
      <trkpt lat="44.9482" lon="5.5857">
        <ele>918</ele>
        <time>2021-08-08T11:48:20Z</time>
      </trkpt>
      <trkpt lat="44.94823" lon="5.58568">
        <ele>918.1</ele>
        <time>2021-08-08T11:48:21Z</time>
      </trkpt>
      <trkpt lat="44.94826" lon="5.58566">
        <ele>918.3</ele>
        <time>2021-08-08T11:48:22Z</time>
      </trkpt>
      <trkpt lat="44.94829" lon="5.58563">
        <ele>918.4</ele>
        <time>2021-08-08T11:48:23Z</time>
      </trkpt>
      <trkpt lat="44.94831" lon="5.5856">
        <ele>918.5</ele>
        <time>2021-08-08T11:48:24Z</time>
      </trkpt>
      <trkpt lat="44.94835" lon="5.58557">
        <ele>918.7</ele>
        <time>2021-08-08T11:48:25Z</time>
      </trkpt>
      <trkpt lat="44.94839" lon="5.58552">
        <ele>919</ele>
        <time>2021-08-08T11:48:27Z</time>
      </trkpt>
      <trkpt lat="44.94842" lon="5.5855">
        <ele>919.1</ele>
        <time>2021-08-08T11:48:29Z</time>
      </trkpt>
      <trkpt lat="44.94845" lon="5.58546">
        <ele>919.3</ele>
        <time>2021-08-08T11:48:30Z</time>
      </trkpt>
      <trkpt lat="44.94847" lon="5.58542">
        <ele>919.5</ele>
        <time>2021-08-08T11:48:31Z</time>
      </trkpt>
      <trkpt lat="44.94849" lon="5.58538">
        <ele>919.7</ele>
        <time>2021-08-08T11:48:32Z</time>
      </trkpt>
      <trkpt lat="44.9485" lon="5.58535">
        <ele>919.8</ele>
        <time>2021-08-08T11:48:33Z</time>
      </trkpt>
      <trkpt lat="44.94852" lon="5.5853">
        <ele>920</ele>
        <time>2021-08-08T11:48:34Z</time>
      </trkpt>
      <trkpt lat="44.94853" lon="5.58525">
        <ele>920.2</ele>
        <time>2021-08-08T11:48:36Z</time>
      </trkpt>
      <trkpt lat="44.94856" lon="5.58517">
        <ele>920.7</ele>
        <time>2021-08-08T11:48:37Z</time>
      </trkpt>
      <trkpt lat="44.94857" lon="5.58512">
        <ele>920.9</ele>
        <time>2021-08-08T11:48:39Z</time>
      </trkpt>
      <trkpt lat="44.9486" lon="5.58506">
        <ele>921.2</ele>
        <time>2021-08-08T11:48:40Z</time>
      </trkpt>
      <trkpt lat="44.94861" lon="5.58501">
        <ele>921.5</ele>
        <time>2021-08-08T11:48:41Z</time>
      </trkpt>
      <trkpt lat="44.94862" lon="5.58495">
        <ele>921.8</ele>
        <time>2021-08-08T11:48:43Z</time>
      </trkpt>
      <trkpt lat="44.94863" lon="5.58487">
        <ele>922.2</ele>
        <time>2021-08-08T11:48:45Z</time>
      </trkpt>
      <trkpt lat="44.94864" lon="5.58483">
        <ele>922.4</ele>
        <time>2021-08-08T11:48:46Z</time>
      </trkpt>
      <trkpt lat="44.94864" lon="5.58476">
        <ele>922.7</ele>
        <time>2021-08-08T11:48:47Z</time>
      </trkpt>
      <trkpt lat="44.94864" lon="5.58471">
        <ele>923</ele>
        <time>2021-08-08T11:48:48Z</time>
      </trkpt>
      <trkpt lat="44.94864" lon="5.58464">
        <ele>923.3</ele>
        <time>2021-08-08T11:48:50Z</time>
      </trkpt>
      <trkpt lat="44.94863" lon="5.5846">
        <ele>923.5</ele>
        <time>2021-08-08T11:48:51Z</time>
      </trkpt>
      <trkpt lat="44.94863" lon="5.58456">
        <ele>923.7</ele>
        <time>2021-08-08T11:48:53Z</time>
      </trkpt>
      <trkpt lat="44.94862" lon="5.58452">
        <ele>923.9</ele>
        <time>2021-08-08T11:48:54Z</time>
      </trkpt>
      <trkpt lat="44.94862" lon="5.58445">
        <ele>924.2</ele>
        <time>2021-08-08T11:48:55Z</time>
      </trkpt>
      <trkpt lat="44.94862" lon="5.58439">
        <ele>924.6</ele>
        <time>2021-08-08T11:48:57Z</time>
      </trkpt>
      <trkpt lat="44.94863" lon="5.58434">
        <ele>924.8</ele>
        <time>2021-08-08T11:48:58Z</time>
      </trkpt>
      <trkpt lat="44.94864" lon="5.58429">
        <ele>925.1</ele>
        <time>2021-08-08T11:48:59Z</time>
      </trkpt>
      <trkpt lat="44.94866" lon="5.58421">
        <ele>925.5</ele>
        <time>2021-08-08T11:49:01Z</time>
      </trkpt>
      <trkpt lat="44.94868" lon="5.58415">
        <ele>925.9</ele>
        <time>2021-08-08T11:49:02Z</time>
      </trkpt>
      <trkpt lat="44.9487" lon="5.58411">
        <ele>926.1</ele>
        <time>2021-08-08T11:49:03Z</time>
      </trkpt>
      <trkpt lat="44.94874" lon="5.58406">
        <ele>926.5</ele>
        <time>2021-08-08T11:49:05Z</time>
      </trkpt>
      <trkpt lat="44.94877" lon="5.58402">
        <ele>926.8</ele>
        <time>2021-08-08T11:49:06Z</time>
      </trkpt>
      <trkpt lat="44.94879" lon="5.58397">
        <ele>927.1</ele>
        <time>2021-08-08T11:49:07Z</time>
      </trkpt>
      <trkpt lat="44.94882" lon="5.58392">
        <ele>927.4</ele>
        <time>2021-08-08T11:49:09Z</time>
      </trkpt>
      <trkpt lat="44.94884" lon="5.58387">
        <ele>927.7</ele>
        <time>2021-08-08T11:49:10Z</time>
      </trkpt>
      <trkpt lat="44.94886" lon="5.58383">
        <ele>927.9</ele>
        <time>2021-08-08T11:49:11Z</time>
      </trkpt>
      <trkpt lat="44.94888" lon="5.5838">
        <ele>928.1</ele>
        <time>2021-08-08T11:49:12Z</time>
      </trkpt>
      <trkpt lat="44.9489" lon="5.58375">
        <ele>928.4</ele>
        <time>2021-08-08T11:49:14Z</time>
      </trkpt>
      <trkpt lat="44.94892" lon="5.5837">
        <ele>928.6</ele>
        <time>2021-08-08T11:49:15Z</time>
      </trkpt>
      <trkpt lat="44.94894" lon="5.58364">
        <ele>928.9</ele>
        <time>2021-08-08T11:49:17Z</time>
      </trkpt>
      <trkpt lat="44.94895" lon="5.58361">
        <ele>929.1</ele>
        <time>2021-08-08T11:49:18Z</time>
      </trkpt>
      <trkpt lat="44.94897" lon="5.5835">
        <ele>929.6</ele>
        <time>2021-08-08T11:49:20Z</time>
      </trkpt>
      <trkpt lat="44.94897" lon="5.58345">
        <ele>929.9</ele>
        <time>2021-08-08T11:49:22Z</time>
      </trkpt>
      <trkpt lat="44.94897" lon="5.58338">
        <ele>930.2</ele>
        <time>2021-08-08T11:49:23Z</time>
      </trkpt>
      <trkpt lat="44.94896" lon="5.58333">
        <ele>930.5</ele>
        <time>2021-08-08T11:49:24Z</time>
      </trkpt>
      <trkpt lat="44.94895" lon="5.58326">
        <ele>930.8</ele>
        <time>2021-08-08T11:49:26Z</time>
      </trkpt>
      <trkpt lat="44.94895" lon="5.58323">
        <ele>931</ele>
        <time>2021-08-08T11:49:27Z</time>
      </trkpt>
      <trkpt lat="44.94894" lon="5.58317">
        <ele>931.3</ele>
        <time>2021-08-08T11:49:28Z</time>
      </trkpt>
      <trkpt lat="44.94894" lon="5.58311">
        <ele>931.6</ele>
        <time>2021-08-08T11:49:30Z</time>
      </trkpt>
      <trkpt lat="44.94893" lon="5.58305">
        <ele>931.8</ele>
        <time>2021-08-08T11:49:31Z</time>
      </trkpt>
      <trkpt lat="44.94893" lon="5.58298">
        <ele>932.1</ele>
        <time>2021-08-08T11:49:33Z</time>
      </trkpt>
      <trkpt lat="44.94894" lon="5.58294">
        <ele>932.3</ele>
        <time>2021-08-08T11:49:34Z</time>
      </trkpt>
      <trkpt lat="44.94895" lon="5.58287">
        <ele>932.6</ele>
        <time>2021-08-08T11:49:35Z</time>
      </trkpt>
      <trkpt lat="44.94896" lon="5.58283">
        <ele>932.8</ele>
        <time>2021-08-08T11:49:36Z</time>
      </trkpt>
      <trkpt lat="44.949" lon="5.58276">
        <ele>933.1</ele>
        <time>2021-08-08T11:49:38Z</time>
      </trkpt>
      <trkpt lat="44.94902" lon="5.58274">
        <ele>933.2</ele>
        <time>2021-08-08T11:49:39Z</time>
      </trkpt>
      <trkpt lat="44.94906" lon="5.58269">
        <ele>933.5</ele>
        <time>2021-08-08T11:49:41Z</time>
      </trkpt>
      <trkpt lat="44.94909" lon="5.58264">
        <ele>933.7</ele>
        <time>2021-08-08T11:49:43Z</time>
      </trkpt>
      <trkpt lat="44.94911" lon="5.58261">
        <ele>933.8</ele>
        <time>2021-08-08T11:49:44Z</time>
      </trkpt>
      <trkpt lat="44.94913" lon="5.58254">
        <ele>934</ele>
        <time>2021-08-08T11:49:45Z</time>
      </trkpt>
      <trkpt lat="44.94915" lon="5.58249">
        <ele>934.1</ele>
        <time>2021-08-08T11:49:46Z</time>
      </trkpt>
      <trkpt lat="44.94917" lon="5.58239">
        <ele>934.3</ele>
        <time>2021-08-08T11:49:48Z</time>
      </trkpt>
      <trkpt lat="44.94918" lon="5.58233">
        <ele>934.5</ele>
        <time>2021-08-08T11:49:50Z</time>
      </trkpt>
      <trkpt lat="44.94918" lon="5.58228">
        <ele>934.6</ele>
        <time>2021-08-08T11:49:51Z</time>
      </trkpt>
      <trkpt lat="44.94918" lon="5.58225">
        <ele>934.6</ele>
        <time>2021-08-08T11:49:52Z</time>
      </trkpt>
      <trkpt lat="44.94919" lon="5.58218">
        <ele>934.8</ele>
        <time>2021-08-08T11:49:55Z</time>
      </trkpt>
      <trkpt lat="44.9492" lon="5.58214">
        <ele>934.8</ele>
        <time>2021-08-08T11:49:56Z</time>
      </trkpt>
      <trkpt lat="44.94922" lon="5.58208">
        <ele>935</ele>
        <time>2021-08-08T11:49:57Z</time>
      </trkpt>
      <trkpt lat="44.94923" lon="5.58204">
        <ele>935</ele>
        <time>2021-08-08T11:49:59Z</time>
      </trkpt>
      <trkpt lat="44.94925" lon="5.582">
        <ele>935.2</ele>
        <time>2021-08-08T11:50:00Z</time>
      </trkpt>
      <trkpt lat="44.94927" lon="5.58196">
        <ele>935.3</ele>
        <time>2021-08-08T11:50:01Z</time>
      </trkpt>
      <trkpt lat="44.94929" lon="5.58193">
        <ele>935.4</ele>
        <time>2021-08-08T11:50:02Z</time>
      </trkpt>
      <trkpt lat="44.94931" lon="5.58189">
        <ele>935.5</ele>
        <time>2021-08-08T11:50:03Z</time>
      </trkpt>
      <trkpt lat="44.94933" lon="5.58185">
        <ele>935.6</ele>
        <time>2021-08-08T11:50:04Z</time>
      </trkpt>
      <trkpt lat="44.94935" lon="5.58181">
        <ele>935.7</ele>
        <time>2021-08-08T11:50:06Z</time>
      </trkpt>
      <trkpt lat="44.94937" lon="5.58178">
        <ele>935.9</ele>
        <time>2021-08-08T11:50:07Z</time>
      </trkpt>
      <trkpt lat="44.9494" lon="5.58172">
        <ele>936.1</ele>
        <time>2021-08-08T11:50:08Z</time>
      </trkpt>
      <trkpt lat="44.94941" lon="5.58168">
        <ele>936.3</ele>
        <time>2021-08-08T11:50:09Z</time>
      </trkpt>
      <trkpt lat="44.94943" lon="5.58163">
        <ele>936.5</ele>
        <time>2021-08-08T11:50:10Z</time>
      </trkpt>
      <trkpt lat="44.94945" lon="5.58158">
        <ele>936.7</ele>
        <time>2021-08-08T11:50:12Z</time>
      </trkpt>
      <trkpt lat="44.94947" lon="5.58151">
        <ele>937</ele>
        <time>2021-08-08T11:50:13Z</time>
      </trkpt>
      <trkpt lat="44.94948" lon="5.58145">
        <ele>937.2</ele>
        <time>2021-08-08T11:50:14Z</time>
      </trkpt>
      <trkpt lat="44.94948" lon="5.58141">
        <ele>937.4</ele>
        <time>2021-08-08T11:50:16Z</time>
      </trkpt>
      <trkpt lat="44.94949" lon="5.58135">
        <ele>937.6</ele>
        <time>2021-08-08T11:50:17Z</time>
      </trkpt>
      <trkpt lat="44.9495" lon="5.58128">
        <ele>937.8</ele>
        <time>2021-08-08T11:50:18Z</time>
      </trkpt>
      <trkpt lat="44.94951" lon="5.58124">
        <ele>938</ele>
        <time>2021-08-08T11:50:19Z</time>
      </trkpt>
      <trkpt lat="44.94952" lon="5.58116">
        <ele>938.3</ele>
        <time>2021-08-08T11:50:21Z</time>
      </trkpt>
      <trkpt lat="44.94953" lon="5.58111">
        <ele>938.5</ele>
        <time>2021-08-08T11:50:22Z</time>
      </trkpt>
      <trkpt lat="44.94953" lon="5.58107">
        <ele>938.7</ele>
        <time>2021-08-08T11:50:23Z</time>
      </trkpt>
      <trkpt lat="44.94954" lon="5.58103">
        <ele>938.8</ele>
        <time>2021-08-08T11:50:24Z</time>
      </trkpt>
      <trkpt lat="44.94955" lon="5.58095">
        <ele>939.2</ele>
        <time>2021-08-08T11:50:26Z</time>
      </trkpt>
      <trkpt lat="44.94957" lon="5.58091">
        <ele>939.4</ele>
        <time>2021-08-08T11:50:28Z</time>
      </trkpt>
      <trkpt lat="44.94958" lon="5.58086">
        <ele>939.6</ele>
        <time>2021-08-08T11:50:29Z</time>
      </trkpt>
      <trkpt lat="44.94959" lon="5.58078">
        <ele>939.9</ele>
        <time>2021-08-08T11:50:30Z</time>
      </trkpt>
      <trkpt lat="44.94961" lon="5.58073">
        <ele>940.1</ele>
        <time>2021-08-08T11:50:32Z</time>
      </trkpt>
      <trkpt lat="44.94962" lon="5.58069">
        <ele>940.3</ele>
        <time>2021-08-08T11:50:33Z</time>
      </trkpt>
      <trkpt lat="44.94964" lon="5.58063">
        <ele>940.6</ele>
        <time>2021-08-08T11:50:34Z</time>
      </trkpt>
      <trkpt lat="44.94966" lon="5.58057">
        <ele>940.9</ele>
        <time>2021-08-08T11:50:36Z</time>
      </trkpt>
      <trkpt lat="44.94967" lon="5.5805">
        <ele>941.2</ele>
        <time>2021-08-08T11:50:37Z</time>
      </trkpt>
      <trkpt lat="44.94967" lon="5.58045">
        <ele>941.4</ele>
        <time>2021-08-08T11:50:38Z</time>
      </trkpt>
      <trkpt lat="44.94968" lon="5.5804">
        <ele>941.6</ele>
        <time>2021-08-08T11:50:40Z</time>
      </trkpt>
      <trkpt lat="44.94969" lon="5.58036">
        <ele>941.8</ele>
        <time>2021-08-08T11:50:41Z</time>
      </trkpt>
      <trkpt lat="44.94971" lon="5.5803">
        <ele>942.1</ele>
        <time>2021-08-08T11:50:42Z</time>
      </trkpt>
      <trkpt lat="44.94973" lon="5.58023">
        <ele>942.5</ele>
        <time>2021-08-08T11:50:44Z</time>
      </trkpt>
      <trkpt lat="44.94974" lon="5.58019">
        <ele>942.7</ele>
        <time>2021-08-08T11:50:45Z</time>
      </trkpt>
      <trkpt lat="44.94975" lon="5.58014">
        <ele>943</ele>
        <time>2021-08-08T11:50:46Z</time>
      </trkpt>
      <trkpt lat="44.94977" lon="5.58008">
        <ele>943.3</ele>
        <time>2021-08-08T11:50:47Z</time>
      </trkpt>
      <trkpt lat="44.94978" lon="5.58002">
        <ele>943.6</ele>
        <time>2021-08-08T11:50:49Z</time>
      </trkpt>
      <trkpt lat="44.94979" lon="5.57998">
        <ele>943.8</ele>
        <time>2021-08-08T11:50:50Z</time>
      </trkpt>
      <trkpt lat="44.94981" lon="5.57993">
        <ele>944.1</ele>
        <time>2021-08-08T11:50:51Z</time>
      </trkpt>
      <trkpt lat="44.94983" lon="5.57988">
        <ele>944.4</ele>
        <time>2021-08-08T11:50:53Z</time>
      </trkpt>
      <trkpt lat="44.94984" lon="5.57984">
        <ele>944.6</ele>
        <time>2021-08-08T11:50:54Z</time>
      </trkpt>
      <trkpt lat="44.94985" lon="5.57979">
        <ele>944.9</ele>
        <time>2021-08-08T11:50:55Z</time>
      </trkpt>
      <trkpt lat="44.94987" lon="5.57974">
        <ele>945.1</ele>
        <time>2021-08-08T11:50:56Z</time>
      </trkpt>
      <trkpt lat="44.94988" lon="5.57971">
        <ele>945.3</ele>
        <time>2021-08-08T11:50:58Z</time>
      </trkpt>
      <trkpt lat="44.94989" lon="5.57966">
        <ele>945.5</ele>
        <time>2021-08-08T11:51:00Z</time>
      </trkpt>
      <trkpt lat="44.94991" lon="5.57961">
        <ele>945.8</ele>
        <time>2021-08-08T11:51:01Z</time>
      </trkpt>
      <trkpt lat="44.94993" lon="5.57956">
        <ele>946.1</ele>
        <time>2021-08-08T11:51:02Z</time>
      </trkpt>
      <trkpt lat="44.94996" lon="5.57948">
        <ele>946.5</ele>
        <time>2021-08-08T11:51:04Z</time>
      </trkpt>
      <trkpt lat="44.94998" lon="5.57944">
        <ele>946.7</ele>
        <time>2021-08-08T11:51:06Z</time>
      </trkpt>
      <trkpt lat="44.95" lon="5.57938">
        <ele>947</ele>
        <time>2021-08-08T11:51:07Z</time>
      </trkpt>
      <trkpt lat="44.95002" lon="5.57933">
        <ele>947.2</ele>
        <time>2021-08-08T11:51:08Z</time>
      </trkpt>
      <trkpt lat="44.95004" lon="5.57928">
        <ele>947.5</ele>
        <time>2021-08-08T11:51:09Z</time>
      </trkpt>
      <trkpt lat="44.95006" lon="5.57925">
        <ele>947.7</ele>
        <time>2021-08-08T11:51:11Z</time>
      </trkpt>
      <trkpt lat="44.95008" lon="5.5792">
        <ele>947.9</ele>
        <time>2021-08-08T11:51:12Z</time>
      </trkpt>
      <trkpt lat="44.9501" lon="5.57916">
        <ele>948.1</ele>
        <time>2021-08-08T11:51:13Z</time>
      </trkpt>
      <trkpt lat="44.95011" lon="5.57912">
        <ele>948.3</ele>
        <time>2021-08-08T11:51:14Z</time>
      </trkpt>
      <trkpt lat="44.95013" lon="5.57908">
        <ele>948.5</ele>
        <time>2021-08-08T11:51:16Z</time>
      </trkpt>
      <trkpt lat="44.95015" lon="5.57905">
        <ele>948.7</ele>
        <time>2021-08-08T11:51:17Z</time>
      </trkpt>
      <trkpt lat="44.95017" lon="5.57899">
        <ele>949</ele>
        <time>2021-08-08T11:51:18Z</time>
      </trkpt>
      <trkpt lat="44.95019" lon="5.57893">
        <ele>949.3</ele>
        <time>2021-08-08T11:51:20Z</time>
      </trkpt>
      <trkpt lat="44.95021" lon="5.57887">
        <ele>949.7</ele>
        <time>2021-08-08T11:51:21Z</time>
      </trkpt>
      <trkpt lat="44.95023" lon="5.57882">
        <ele>949.9</ele>
        <time>2021-08-08T11:51:22Z</time>
      </trkpt>
      <trkpt lat="44.95025" lon="5.57876">
        <ele>950.2</ele>
        <time>2021-08-08T11:51:23Z</time>
      </trkpt>
      <trkpt lat="44.95026" lon="5.57872">
        <ele>950.4</ele>
        <time>2021-08-08T11:51:24Z</time>
      </trkpt>
      <trkpt lat="44.95028" lon="5.57868">
        <ele>950.6</ele>
        <time>2021-08-08T11:51:25Z</time>
      </trkpt>
      <trkpt lat="44.95029" lon="5.57864">
        <ele>950.8</ele>
        <time>2021-08-08T11:51:27Z</time>
      </trkpt>
      <trkpt lat="44.9503" lon="5.5786">
        <ele>951.1</ele>
        <time>2021-08-08T11:51:28Z</time>
      </trkpt>
      <trkpt lat="44.95031" lon="5.57854">
        <ele>951.3</ele>
        <time>2021-08-08T11:51:29Z</time>
      </trkpt>
      <trkpt lat="44.95033" lon="5.57848">
        <ele>951.6</ele>
        <time>2021-08-08T11:51:30Z</time>
      </trkpt>
      <trkpt lat="44.95034" lon="5.57844">
        <ele>951.8</ele>
        <time>2021-08-08T11:51:32Z</time>
      </trkpt>
      <trkpt lat="44.95035" lon="5.57839">
        <ele>952</ele>
        <time>2021-08-08T11:51:33Z</time>
      </trkpt>
      <trkpt lat="44.95037" lon="5.5783">
        <ele>952.4</ele>
        <time>2021-08-08T11:51:35Z</time>
      </trkpt>
      <trkpt lat="44.95038" lon="5.57827">
        <ele>952.6</ele>
        <time>2021-08-08T11:51:36Z</time>
      </trkpt>
      <trkpt lat="44.9504" lon="5.57822">
        <ele>952.8</ele>
        <time>2021-08-08T11:51:38Z</time>
      </trkpt>
      <trkpt lat="44.95041" lon="5.57819">
        <ele>952.9</ele>
        <time>2021-08-08T11:51:39Z</time>
      </trkpt>
      <trkpt lat="44.95043" lon="5.57814">
        <ele>953.2</ele>
        <time>2021-08-08T11:51:40Z</time>
      </trkpt>
      <trkpt lat="44.95045" lon="5.57809">
        <ele>953.4</ele>
        <time>2021-08-08T11:51:41Z</time>
      </trkpt>
      <trkpt lat="44.95046" lon="5.57805">
        <ele>953.6</ele>
        <time>2021-08-08T11:51:43Z</time>
      </trkpt>
      <trkpt lat="44.95048" lon="5.57799">
        <ele>953.9</ele>
        <time>2021-08-08T11:51:44Z</time>
      </trkpt>
      <trkpt lat="44.9505" lon="5.57794">
        <ele>954.2</ele>
        <time>2021-08-08T11:51:45Z</time>
      </trkpt>
      <trkpt lat="44.95051" lon="5.57789">
        <ele>954.4</ele>
        <time>2021-08-08T11:51:46Z</time>
      </trkpt>
      <trkpt lat="44.95052" lon="5.57785">
        <ele>954.6</ele>
        <time>2021-08-08T11:51:48Z</time>
      </trkpt>
      <trkpt lat="44.95054" lon="5.57779">
        <ele>954.9</ele>
        <time>2021-08-08T11:51:49Z</time>
      </trkpt>
      <trkpt lat="44.95055" lon="5.57773">
        <ele>955.2</ele>
        <time>2021-08-08T11:51:50Z</time>
      </trkpt>
      <trkpt lat="44.95056" lon="5.5777">
        <ele>955.3</ele>
        <time>2021-08-08T11:51:51Z</time>
      </trkpt>
      <trkpt lat="44.95057" lon="5.57766">
        <ele>955.5</ele>
        <time>2021-08-08T11:51:52Z</time>
      </trkpt>
      <trkpt lat="44.95058" lon="5.57762">
        <ele>955.7</ele>
        <time>2021-08-08T11:51:53Z</time>
      </trkpt>
      <trkpt lat="44.95059" lon="5.57757">
        <ele>955.9</ele>
        <time>2021-08-08T11:51:55Z</time>
      </trkpt>
      <trkpt lat="44.9506" lon="5.57753">
        <ele>956.2</ele>
        <time>2021-08-08T11:51:56Z</time>
      </trkpt>
      <trkpt lat="44.95062" lon="5.57748">
        <ele>956.4</ele>
        <time>2021-08-08T11:51:57Z</time>
      </trkpt>
      <trkpt lat="44.95062" lon="5.57743">
        <ele>956.6</ele>
        <time>2021-08-08T11:51:58Z</time>
      </trkpt>
      <trkpt lat="44.95064" lon="5.57737">
        <ele>956.9</ele>
        <time>2021-08-08T11:51:59Z</time>
      </trkpt>
      <trkpt lat="44.95064" lon="5.57735">
        <ele>957</ele>
        <time>2021-08-08T11:52:00Z</time>
      </trkpt>
      <trkpt lat="44.95064" lon="5.57731">
        <ele>957.2</ele>
        <time>2021-08-08T11:52:02Z</time>
      </trkpt>
      <trkpt lat="44.95065" lon="5.57725">
        <ele>957.5</ele>
        <time>2021-08-08T11:52:04Z</time>
      </trkpt>
      <trkpt lat="44.95066" lon="5.57719">
        <ele>957.7</ele>
        <time>2021-08-08T11:52:05Z</time>
      </trkpt>
      <trkpt lat="44.95067" lon="5.57716">
        <ele>957.8</ele>
        <time>2021-08-08T11:52:06Z</time>
      </trkpt>
      <trkpt lat="44.95067" lon="5.57712">
        <ele>958</ele>
        <time>2021-08-08T11:52:07Z</time>
      </trkpt>
      <trkpt lat="44.95068" lon="5.57706">
        <ele>958.3</ele>
        <time>2021-08-08T11:52:09Z</time>
      </trkpt>
      <trkpt lat="44.95069" lon="5.57698">
        <ele>958.6</ele>
        <time>2021-08-08T11:52:10Z</time>
      </trkpt>
      <trkpt lat="44.9507" lon="5.57693">
        <ele>958.9</ele>
        <time>2021-08-08T11:52:12Z</time>
      </trkpt>
      <trkpt lat="44.95072" lon="5.57684">
        <ele>959.2</ele>
        <time>2021-08-08T11:52:13Z</time>
      </trkpt>
      <trkpt lat="44.95073" lon="5.57679">
        <ele>959.4</ele>
        <time>2021-08-08T11:52:15Z</time>
      </trkpt>
      <trkpt lat="44.95075" lon="5.57674">
        <ele>959.7</ele>
        <time>2021-08-08T11:52:16Z</time>
      </trkpt>
      <trkpt lat="44.95076" lon="5.5767">
        <ele>959.9</ele>
        <time>2021-08-08T11:52:17Z</time>
      </trkpt>
      <trkpt lat="44.95077" lon="5.57664">
        <ele>960.1</ele>
        <time>2021-08-08T11:52:18Z</time>
      </trkpt>
      <trkpt lat="44.95079" lon="5.57659">
        <ele>960.3</ele>
        <time>2021-08-08T11:52:19Z</time>
      </trkpt>
      <trkpt lat="44.9508" lon="5.57653">
        <ele>960.5</ele>
        <time>2021-08-08T11:52:20Z</time>
      </trkpt>
      <trkpt lat="44.95082" lon="5.57649">
        <ele>960.7</ele>
        <time>2021-08-08T11:52:22Z</time>
      </trkpt>
      <trkpt lat="44.95084" lon="5.5764">
        <ele>961.1</ele>
        <time>2021-08-08T11:52:23Z</time>
      </trkpt>
      <trkpt lat="44.95086" lon="5.57635">
        <ele>961.3</ele>
        <time>2021-08-08T11:52:25Z</time>
      </trkpt>
      <trkpt lat="44.95087" lon="5.57631">
        <ele>961.5</ele>
        <time>2021-08-08T11:52:26Z</time>
      </trkpt>
      <trkpt lat="44.95089" lon="5.57627">
        <ele>961.6</ele>
        <time>2021-08-08T11:52:27Z</time>
      </trkpt>
      <trkpt lat="44.95091" lon="5.57617">
        <ele>962</ele>
        <time>2021-08-08T11:52:28Z</time>
      </trkpt>
      <trkpt lat="44.95094" lon="5.57611">
        <ele>962.3</ele>
        <time>2021-08-08T11:52:30Z</time>
      </trkpt>
      <trkpt lat="44.95096" lon="5.57605">
        <ele>962.5</ele>
        <time>2021-08-08T11:52:31Z</time>
      </trkpt>
      <trkpt lat="44.95099" lon="5.57599">
        <ele>962.8</ele>
        <time>2021-08-08T11:52:32Z</time>
      </trkpt>
      <trkpt lat="44.95101" lon="5.57592">
        <ele>963.1</ele>
        <time>2021-08-08T11:52:34Z</time>
      </trkpt>
      <trkpt lat="44.95103" lon="5.57587">
        <ele>963.3</ele>
        <time>2021-08-08T11:52:35Z</time>
      </trkpt>
      <trkpt lat="44.95106" lon="5.57582">
        <ele>963.6</ele>
        <time>2021-08-08T11:52:36Z</time>
      </trkpt>
      <trkpt lat="44.95107" lon="5.57577">
        <ele>963.8</ele>
        <time>2021-08-08T11:52:37Z</time>
      </trkpt>
      <trkpt lat="44.95109" lon="5.57567">
        <ele>964.2</ele>
        <time>2021-08-08T11:52:39Z</time>
      </trkpt>
      <trkpt lat="44.9511" lon="5.57559">
        <ele>964.5</ele>
        <time>2021-08-08T11:52:41Z</time>
      </trkpt>
      <trkpt lat="44.9511" lon="5.57553">
        <ele>964.8</ele>
        <time>2021-08-08T11:52:43Z</time>
      </trkpt>
      <trkpt lat="44.95111" lon="5.57549">
        <ele>965</ele>
        <time>2021-08-08T11:52:44Z</time>
      </trkpt>
      <trkpt lat="44.9511" lon="5.57539">
        <ele>965.3</ele>
        <time>2021-08-08T11:52:45Z</time>
      </trkpt>
      <trkpt lat="44.9511" lon="5.57534">
        <ele>965.5</ele>
        <time>2021-08-08T11:52:47Z</time>
      </trkpt>
      <trkpt lat="44.9511" lon="5.57528">
        <ele>965.8</ele>
        <time>2021-08-08T11:52:48Z</time>
      </trkpt>
      <trkpt lat="44.95109" lon="5.57521">
        <ele>966.1</ele>
        <time>2021-08-08T11:52:49Z</time>
      </trkpt>
      <trkpt lat="44.95109" lon="5.57517">
        <ele>966.3</ele>
        <time>2021-08-08T11:52:50Z</time>
      </trkpt>
      <trkpt lat="44.95107" lon="5.57511">
        <ele>966.5</ele>
        <time>2021-08-08T11:52:51Z</time>
      </trkpt>
      <trkpt lat="44.95105" lon="5.57504">
        <ele>966.8</ele>
        <time>2021-08-08T11:52:53Z</time>
      </trkpt>
      <trkpt lat="44.95104" lon="5.57501">
        <ele>966.9</ele>
        <time>2021-08-08T11:52:54Z</time>
      </trkpt>
      <trkpt lat="44.95102" lon="5.57496">
        <ele>967.1</ele>
        <time>2021-08-08T11:52:55Z</time>
      </trkpt>
      <trkpt lat="44.95099" lon="5.57491">
        <ele>967.3</ele>
        <time>2021-08-08T11:52:57Z</time>
      </trkpt>
      <trkpt lat="44.95097" lon="5.57488">
        <ele>967.5</ele>
        <time>2021-08-08T11:52:58Z</time>
      </trkpt>
      <trkpt lat="44.95094" lon="5.57485">
        <ele>967.6</ele>
        <time>2021-08-08T11:52:59Z</time>
      </trkpt>
      <trkpt lat="44.95092" lon="5.57482">
        <ele>967.8</ele>
        <time>2021-08-08T11:53:00Z</time>
      </trkpt>
      <trkpt lat="44.95088" lon="5.5748">
        <ele>968</ele>
        <time>2021-08-08T11:53:01Z</time>
      </trkpt>
      <trkpt lat="44.95084" lon="5.57478">
        <ele>968.2</ele>
        <time>2021-08-08T11:53:02Z</time>
      </trkpt>
      <trkpt lat="44.95078" lon="5.57476">
        <ele>968.5</ele>
        <time>2021-08-08T11:53:04Z</time>
      </trkpt>
      <trkpt lat="44.95075" lon="5.57475">
        <ele>968.7</ele>
        <time>2021-08-08T11:53:05Z</time>
      </trkpt>
      <trkpt lat="44.95068" lon="5.57473">
        <ele>969.1</ele>
        <time>2021-08-08T11:53:07Z</time>
      </trkpt>
      <trkpt lat="44.95062" lon="5.57472">
        <ele>969.4</ele>
        <time>2021-08-08T11:53:09Z</time>
      </trkpt>
      <trkpt lat="44.95057" lon="5.5747">
        <ele>969.7</ele>
        <time>2021-08-08T11:53:11Z</time>
      </trkpt>
      <trkpt lat="44.95053" lon="5.57468">
        <ele>969.9</ele>
        <time>2021-08-08T11:53:13Z</time>
      </trkpt>
      <trkpt lat="44.95048" lon="5.57466">
        <ele>970.2</ele>
        <time>2021-08-08T11:53:14Z</time>
      </trkpt>
      <trkpt lat="44.95044" lon="5.57464">
        <ele>970.4</ele>
        <time>2021-08-08T11:53:15Z</time>
      </trkpt>
      <trkpt lat="44.95041" lon="5.57462">
        <ele>970.6</ele>
        <time>2021-08-08T11:53:16Z</time>
      </trkpt>
      <trkpt lat="44.95038" lon="5.57461">
        <ele>970.8</ele>
        <time>2021-08-08T11:53:18Z</time>
      </trkpt>
      <trkpt lat="44.95033" lon="5.57459">
        <ele>971</ele>
        <time>2021-08-08T11:53:19Z</time>
      </trkpt>
      <trkpt lat="44.95029" lon="5.57458">
        <ele>971.3</ele>
        <time>2021-08-08T11:53:21Z</time>
      </trkpt>
      <trkpt lat="44.95024" lon="5.57456">
        <ele>971.6</ele>
        <time>2021-08-08T11:53:22Z</time>
      </trkpt>
      <trkpt lat="44.95018" lon="5.57453">
        <ele>972</ele>
        <time>2021-08-08T11:53:24Z</time>
      </trkpt>
      <trkpt lat="44.95015" lon="5.57451">
        <ele>972.1</ele>
        <time>2021-08-08T11:53:25Z</time>
      </trkpt>
      <trkpt lat="44.95011" lon="5.5745">
        <ele>972.4</ele>
        <time>2021-08-08T11:53:26Z</time>
      </trkpt>
      <trkpt lat="44.95007" lon="5.57448">
        <ele>972.6</ele>
        <time>2021-08-08T11:53:28Z</time>
      </trkpt>
      <trkpt lat="44.95004" lon="5.57446">
        <ele>972.8</ele>
        <time>2021-08-08T11:53:29Z</time>
      </trkpt>
      <trkpt lat="44.95001" lon="5.57444">
        <ele>973</ele>
        <time>2021-08-08T11:53:30Z</time>
      </trkpt>
      <trkpt lat="44.94997" lon="5.57443">
        <ele>973.3</ele>
        <time>2021-08-08T11:53:31Z</time>
      </trkpt>
      <trkpt lat="44.94994" lon="5.57441">
        <ele>973.5</ele>
        <time>2021-08-08T11:53:33Z</time>
      </trkpt>
      <trkpt lat="44.94991" lon="5.57438">
        <ele>973.7</ele>
        <time>2021-08-08T11:53:34Z</time>
      </trkpt>
      <trkpt lat="44.94986" lon="5.57435">
        <ele>974.1</ele>
        <time>2021-08-08T11:53:35Z</time>
      </trkpt>
      <trkpt lat="44.94981" lon="5.57432">
        <ele>974.4</ele>
        <time>2021-08-08T11:53:36Z</time>
      </trkpt>
      <trkpt lat="44.94977" lon="5.5743">
        <ele>974.6</ele>
        <time>2021-08-08T11:53:38Z</time>
      </trkpt>
      <trkpt lat="44.94973" lon="5.57427">
        <ele>974.9</ele>
        <time>2021-08-08T11:53:39Z</time>
      </trkpt>
      <trkpt lat="44.9497" lon="5.57426">
        <ele>975.1</ele>
        <time>2021-08-08T11:53:40Z</time>
      </trkpt>
      <trkpt lat="44.94966" lon="5.57425">
        <ele>975.4</ele>
        <time>2021-08-08T11:53:41Z</time>
      </trkpt>
      <trkpt lat="44.94963" lon="5.57424">
        <ele>975.6</ele>
        <time>2021-08-08T11:53:43Z</time>
      </trkpt>
      <trkpt lat="44.9496" lon="5.57423">
        <ele>975.8</ele>
        <time>2021-08-08T11:53:44Z</time>
      </trkpt>
      <trkpt lat="44.94957" lon="5.57423">
        <ele>976</ele>
        <time>2021-08-08T11:53:45Z</time>
      </trkpt>
      <trkpt lat="44.94953" lon="5.57423">
        <ele>976.2</ele>
        <time>2021-08-08T11:53:46Z</time>
      </trkpt>
      <trkpt lat="44.94949" lon="5.57423">
        <ele>976.6</ele>
        <time>2021-08-08T11:53:47Z</time>
      </trkpt>
      <trkpt lat="44.94947" lon="5.57424">
        <ele>976.7</ele>
        <time>2021-08-08T11:53:48Z</time>
      </trkpt>
      <trkpt lat="44.94941" lon="5.57425">
        <ele>977.1</ele>
        <time>2021-08-08T11:53:50Z</time>
      </trkpt>
      <trkpt lat="44.94937" lon="5.57426">
        <ele>977.4</ele>
        <time>2021-08-08T11:53:51Z</time>
      </trkpt>
      <trkpt lat="44.9493" lon="5.5743">
        <ele>977.9</ele>
        <time>2021-08-08T11:53:53Z</time>
      </trkpt>
      <trkpt lat="44.94925" lon="5.57432">
        <ele>978.2</ele>
        <time>2021-08-08T11:53:55Z</time>
      </trkpt>
      <trkpt lat="44.94919" lon="5.57433">
        <ele>978.6</ele>
        <time>2021-08-08T11:53:56Z</time>
      </trkpt>
      <trkpt lat="44.94916" lon="5.57433">
        <ele>978.7</ele>
        <time>2021-08-08T11:53:57Z</time>
      </trkpt>
      <trkpt lat="44.94911" lon="5.57434">
        <ele>979.1</ele>
        <time>2021-08-08T11:53:59Z</time>
      </trkpt>
      <trkpt lat="44.94907" lon="5.57434">
        <ele>979.3</ele>
        <time>2021-08-08T11:54:00Z</time>
      </trkpt>
      <trkpt lat="44.94902" lon="5.57433">
        <ele>979.6</ele>
        <time>2021-08-08T11:54:03Z</time>
      </trkpt>
      <trkpt lat="44.94898" lon="5.57432">
        <ele>979.8</ele>
        <time>2021-08-08T11:54:04Z</time>
      </trkpt>
      <trkpt lat="44.94894" lon="5.57429">
        <ele>980.1</ele>
        <time>2021-08-08T11:54:05Z</time>
      </trkpt>
      <trkpt lat="44.94892" lon="5.57428">
        <ele>980.2</ele>
        <time>2021-08-08T11:54:06Z</time>
      </trkpt>
      <trkpt lat="44.94889" lon="5.57426">
        <ele>980.4</ele>
        <time>2021-08-08T11:54:08Z</time>
      </trkpt>
      <trkpt lat="44.94886" lon="5.57423">
        <ele>980.6</ele>
        <time>2021-08-08T11:54:09Z</time>
      </trkpt>
      <trkpt lat="44.94881" lon="5.57418">
        <ele>980.9</ele>
        <time>2021-08-08T11:54:10Z</time>
      </trkpt>
      <trkpt lat="44.94877" lon="5.57415">
        <ele>981.1</ele>
        <time>2021-08-08T11:54:11Z</time>
      </trkpt>
      <trkpt lat="44.94874" lon="5.57413">
        <ele>981.3</ele>
        <time>2021-08-08T11:54:13Z</time>
      </trkpt>
      <trkpt lat="44.94869" lon="5.57408">
        <ele>981.6</ele>
        <time>2021-08-08T11:54:14Z</time>
      </trkpt>
      <trkpt lat="44.94865" lon="5.57406">
        <ele>981.9</ele>
        <time>2021-08-08T11:54:16Z</time>
      </trkpt>
      <trkpt lat="44.9486" lon="5.57402">
        <ele>982.2</ele>
        <time>2021-08-08T11:54:17Z</time>
      </trkpt>
      <trkpt lat="44.94853" lon="5.57399">
        <ele>982.6</ele>
        <time>2021-08-08T11:54:19Z</time>
      </trkpt>
      <trkpt lat="44.94847" lon="5.57397">
        <ele>983</ele>
        <time>2021-08-08T11:54:21Z</time>
      </trkpt>
      <trkpt lat="44.94844" lon="5.57396">
        <ele>983.2</ele>
        <time>2021-08-08T11:54:22Z</time>
      </trkpt>
      <trkpt lat="44.94839" lon="5.57395">
        <ele>983.4</ele>
        <time>2021-08-08T11:54:24Z</time>
      </trkpt>
      <trkpt lat="44.94834" lon="5.57392">
        <ele>983.7</ele>
        <time>2021-08-08T11:54:25Z</time>
      </trkpt>
      <trkpt lat="44.94829" lon="5.5739">
        <ele>984</ele>
        <time>2021-08-08T11:54:27Z</time>
      </trkpt>
      <trkpt lat="44.94824" lon="5.5739">
        <ele>984.3</ele>
        <time>2021-08-08T11:54:28Z</time>
      </trkpt>
      <trkpt lat="44.94819" lon="5.57389">
        <ele>984.6</ele>
        <time>2021-08-08T11:54:29Z</time>
      </trkpt>
      <trkpt lat="44.94814" lon="5.57388">
        <ele>984.9</ele>
        <time>2021-08-08T11:54:30Z</time>
      </trkpt>
      <trkpt lat="44.9481" lon="5.57388">
        <ele>985.1</ele>
        <time>2021-08-08T11:54:32Z</time>
      </trkpt>
      <trkpt lat="44.94803" lon="5.57388">
        <ele>985.4</ele>
        <time>2021-08-08T11:54:33Z</time>
      </trkpt>
      <trkpt lat="44.94797" lon="5.57388">
        <ele>985.8</ele>
        <time>2021-08-08T11:54:35Z</time>
      </trkpt>
      <trkpt lat="44.94793" lon="5.57388">
        <ele>986</ele>
        <time>2021-08-08T11:54:36Z</time>
      </trkpt>
      <trkpt lat="44.94786" lon="5.57388">
        <ele>986.4</ele>
        <time>2021-08-08T11:54:38Z</time>
      </trkpt>
      <trkpt lat="44.94782" lon="5.57387">
        <ele>986.6</ele>
        <time>2021-08-08T11:54:39Z</time>
      </trkpt>
      <trkpt lat="44.94777" lon="5.57387">
        <ele>986.9</ele>
        <time>2021-08-08T11:54:41Z</time>
      </trkpt>
      <trkpt lat="44.94774" lon="5.57386">
        <ele>987.1</ele>
        <time>2021-08-08T11:54:42Z</time>
      </trkpt>
      <trkpt lat="44.94771" lon="5.57384">
        <ele>987.3</ele>
        <time>2021-08-08T11:54:43Z</time>
      </trkpt>
      <trkpt lat="44.94767" lon="5.57382">
        <ele>987.6</ele>
        <time>2021-08-08T11:54:44Z</time>
      </trkpt>
      <trkpt lat="44.94763" lon="5.57381">
        <ele>987.8</ele>
        <time>2021-08-08T11:54:45Z</time>
      </trkpt>
      <trkpt lat="44.94757" lon="5.57378">
        <ele>988.1</ele>
        <time>2021-08-08T11:54:47Z</time>
      </trkpt>
      <trkpt lat="44.94755" lon="5.57376">
        <ele>988.3</ele>
        <time>2021-08-08T11:54:48Z</time>
      </trkpt>
      <trkpt lat="44.94752" lon="5.57373">
        <ele>988.5</ele>
        <time>2021-08-08T11:54:49Z</time>
      </trkpt>
      <trkpt lat="44.94747" lon="5.57369">
        <ele>988.8</ele>
        <time>2021-08-08T11:54:51Z</time>
      </trkpt>
      <trkpt lat="44.94744" lon="5.57366">
        <ele>989</ele>
        <time>2021-08-08T11:54:52Z</time>
      </trkpt>
      <trkpt lat="44.94741" lon="5.57362">
        <ele>989.3</ele>
        <time>2021-08-08T11:54:53Z</time>
      </trkpt>
      <trkpt lat="44.94738" lon="5.5736">
        <ele>989.5</ele>
        <time>2021-08-08T11:54:55Z</time>
      </trkpt>
      <trkpt lat="44.94735" lon="5.57357">
        <ele>989.7</ele>
        <time>2021-08-08T11:54:56Z</time>
      </trkpt>
      <trkpt lat="44.94732" lon="5.57354">
        <ele>989.9</ele>
        <time>2021-08-08T11:54:57Z</time>
      </trkpt>
      <trkpt lat="44.94727" lon="5.5735">
        <ele>990.2</ele>
        <time>2021-08-08T11:54:58Z</time>
      </trkpt>
      <trkpt lat="44.94723" lon="5.57347">
        <ele>990.5</ele>
        <time>2021-08-08T11:55:00Z</time>
      </trkpt>
      <trkpt lat="44.94717" lon="5.57343">
        <ele>990.9</ele>
        <time>2021-08-08T11:55:01Z</time>
      </trkpt>
      <trkpt lat="44.94713" lon="5.57341">
        <ele>991.2</ele>
        <time>2021-08-08T11:55:03Z</time>
      </trkpt>
      <trkpt lat="44.94709" lon="5.57339">
        <ele>991.4</ele>
        <time>2021-08-08T11:55:04Z</time>
      </trkpt>
      <trkpt lat="44.94705" lon="5.57337">
        <ele>991.6</ele>
        <time>2021-08-08T11:55:05Z</time>
      </trkpt>
      <trkpt lat="44.947" lon="5.57333">
        <ele>991.9</ele>
        <time>2021-08-08T11:55:07Z</time>
      </trkpt>
      <trkpt lat="44.94696" lon="5.57331">
        <ele>992.1</ele>
        <time>2021-08-08T11:55:08Z</time>
      </trkpt>
      <trkpt lat="44.94692" lon="5.57328">
        <ele>992.4</ele>
        <time>2021-08-08T11:55:09Z</time>
      </trkpt>
      <trkpt lat="44.94688" lon="5.57325">
        <ele>992.6</ele>
        <time>2021-08-08T11:55:10Z</time>
      </trkpt>
      <trkpt lat="44.94682" lon="5.57321">
        <ele>992.9</ele>
        <time>2021-08-08T11:55:12Z</time>
      </trkpt>
      <trkpt lat="44.94679" lon="5.57319">
        <ele>993.1</ele>
        <time>2021-08-08T11:55:13Z</time>
      </trkpt>
      <trkpt lat="44.94675" lon="5.57316">
        <ele>993.3</ele>
        <time>2021-08-08T11:55:15Z</time>
      </trkpt>
      <trkpt lat="44.94669" lon="5.57313">
        <ele>993.7</ele>
        <time>2021-08-08T11:55:16Z</time>
      </trkpt>
      <trkpt lat="44.94665" lon="5.57311">
        <ele>993.9</ele>
        <time>2021-08-08T11:55:17Z</time>
      </trkpt>
      <trkpt lat="44.94661" lon="5.57309">
        <ele>994.1</ele>
        <time>2021-08-08T11:55:19Z</time>
      </trkpt>
      <trkpt lat="44.94653" lon="5.57306">
        <ele>994.5</ele>
        <time>2021-08-08T11:55:21Z</time>
      </trkpt>
      <trkpt lat="44.94647" lon="5.57304">
        <ele>994.8</ele>
        <time>2021-08-08T11:55:22Z</time>
      </trkpt>
      <trkpt lat="44.9464" lon="5.57301">
        <ele>995.2</ele>
        <time>2021-08-08T11:55:24Z</time>
      </trkpt>
      <trkpt lat="44.94636" lon="5.57299">
        <ele>995.5</ele>
        <time>2021-08-08T11:55:26Z</time>
      </trkpt>
      <trkpt lat="44.94633" lon="5.57298">
        <ele>995.7</ele>
        <time>2021-08-08T11:55:27Z</time>
      </trkpt>
      <trkpt lat="44.9463" lon="5.57297">
        <ele>995.8</ele>
        <time>2021-08-08T11:55:28Z</time>
      </trkpt>
      <trkpt lat="44.94627" lon="5.57296">
        <ele>996</ele>
        <time>2021-08-08T11:55:29Z</time>
      </trkpt>
      <trkpt lat="44.94623" lon="5.57294">
        <ele>996.3</ele>
        <time>2021-08-08T11:55:31Z</time>
      </trkpt>
      <trkpt lat="44.9462" lon="5.57294">
        <ele>996.5</ele>
        <time>2021-08-08T11:55:32Z</time>
      </trkpt>
      <trkpt lat="44.94615" lon="5.57292">
        <ele>996.8</ele>
        <time>2021-08-08T11:55:33Z</time>
      </trkpt>
      <trkpt lat="44.94611" lon="5.57291">
        <ele>997</ele>
        <time>2021-08-08T11:55:34Z</time>
      </trkpt>
      <trkpt lat="44.94608" lon="5.57289">
        <ele>997.2</ele>
        <time>2021-08-08T11:55:35Z</time>
      </trkpt>
      <trkpt lat="44.94604" lon="5.57288">
        <ele>997.5</ele>
        <time>2021-08-08T11:55:36Z</time>
      </trkpt>
      <trkpt lat="44.94601" lon="5.57287">
        <ele>997.7</ele>
        <time>2021-08-08T11:55:37Z</time>
      </trkpt>
      <trkpt lat="44.94598" lon="5.57286">
        <ele>997.9</ele>
        <time>2021-08-08T11:55:38Z</time>
      </trkpt>
      <trkpt lat="44.94593" lon="5.57285">
        <ele>998.2</ele>
        <time>2021-08-08T11:55:40Z</time>
      </trkpt>
      <trkpt lat="44.94588" lon="5.57284">
        <ele>998.5</ele>
        <time>2021-08-08T11:55:42Z</time>
      </trkpt>
      <trkpt lat="44.94583" lon="5.57283">
        <ele>998.9</ele>
        <time>2021-08-08T11:55:43Z</time>
      </trkpt>
      <trkpt lat="44.9458" lon="5.57282">
        <ele>999.1</ele>
        <time>2021-08-08T11:55:44Z</time>
      </trkpt>
      <trkpt lat="44.94577" lon="5.57282">
        <ele>999.3</ele>
        <time>2021-08-08T11:55:45Z</time>
      </trkpt>
      <trkpt lat="44.94574" lon="5.57283">
        <ele>999.5</ele>
        <time>2021-08-08T11:55:47Z</time>
      </trkpt>
      <trkpt lat="44.9457" lon="5.57283">
        <ele>999.8</ele>
        <time>2021-08-08T11:55:48Z</time>
      </trkpt>
      <trkpt lat="44.94566" lon="5.57283">
        <ele>1000</ele>
        <time>2021-08-08T11:55:49Z</time>
      </trkpt>
      <trkpt lat="44.94562" lon="5.57283">
        <ele>1000.3</ele>
        <time>2021-08-08T11:55:50Z</time>
      </trkpt>
      <trkpt lat="44.94558" lon="5.57283">
        <ele>1000.6</ele>
        <time>2021-08-08T11:55:51Z</time>
      </trkpt>
      <trkpt lat="44.94555" lon="5.57283">
        <ele>1000.8</ele>
        <time>2021-08-08T11:55:53Z</time>
      </trkpt>
      <trkpt lat="44.94551" lon="5.57283">
        <ele>1001.1</ele>
        <time>2021-08-08T11:55:54Z</time>
      </trkpt>
      <trkpt lat="44.94547" lon="5.57283">
        <ele>1001.4</ele>
        <time>2021-08-08T11:55:55Z</time>
      </trkpt>
      <trkpt lat="44.94543" lon="5.57283">
        <ele>1001.6</ele>
        <time>2021-08-08T11:55:57Z</time>
      </trkpt>
      <trkpt lat="44.9454" lon="5.57282">
        <ele>1001.9</ele>
        <time>2021-08-08T11:55:58Z</time>
      </trkpt>
      <trkpt lat="44.94536" lon="5.57282">
        <ele>1002.2</ele>
        <time>2021-08-08T11:55:59Z</time>
      </trkpt>
      <trkpt lat="44.94532" lon="5.57282">
        <ele>1002.4</ele>
        <time>2021-08-08T11:56:01Z</time>
      </trkpt>
      <trkpt lat="44.94528" lon="5.57282">
        <ele>1002.7</ele>
        <time>2021-08-08T11:56:02Z</time>
      </trkpt>
      <trkpt lat="44.94525" lon="5.57282">
        <ele>1002.9</ele>
        <time>2021-08-08T11:56:03Z</time>
      </trkpt>
      <trkpt lat="44.94523" lon="5.57282">
        <ele>1003.1</ele>
        <time>2021-08-08T11:56:05Z</time>
      </trkpt>
      <trkpt lat="44.94519" lon="5.57283">
        <ele>1003.4</ele>
        <time>2021-08-08T11:56:06Z</time>
      </trkpt>
      <trkpt lat="44.94516" lon="5.57283">
        <ele>1003.6</ele>
        <time>2021-08-08T11:56:07Z</time>
      </trkpt>
      <trkpt lat="44.94512" lon="5.57283">
        <ele>1003.9</ele>
        <time>2021-08-08T11:56:08Z</time>
      </trkpt>
      <trkpt lat="44.94506" lon="5.57284">
        <ele>1004.3</ele>
        <time>2021-08-08T11:56:10Z</time>
      </trkpt>
      <trkpt lat="44.94503" lon="5.57285">
        <ele>1004.6</ele>
        <time>2021-08-08T11:56:12Z</time>
      </trkpt>
      <trkpt lat="44.945" lon="5.57285">
        <ele>1004.8</ele>
        <time>2021-08-08T11:56:13Z</time>
      </trkpt>
      <trkpt lat="44.94497" lon="5.57285">
        <ele>1005</ele>
        <time>2021-08-08T11:56:14Z</time>
      </trkpt>
      <trkpt lat="44.94492" lon="5.57286">
        <ele>1005.3</ele>
        <time>2021-08-08T11:56:15Z</time>
      </trkpt>
      <trkpt lat="44.94491" lon="5.57286">
        <ele>1005.4</ele>
        <time>2021-08-08T11:56:16Z</time>
      </trkpt>
      <trkpt lat="44.94487" lon="5.57286">
        <ele>1005.6</ele>
        <time>2021-08-08T11:56:17Z</time>
      </trkpt>
      <trkpt lat="44.94483" lon="5.57287">
        <ele>1005.9</ele>
        <time>2021-08-08T11:56:18Z</time>
      </trkpt>
      <trkpt lat="44.9448" lon="5.57286">
        <ele>1006.1</ele>
        <time>2021-08-08T11:56:19Z</time>
      </trkpt>
      <trkpt lat="44.94475" lon="5.57285">
        <ele>1006.4</ele>
        <time>2021-08-08T11:56:21Z</time>
      </trkpt>
      <trkpt lat="44.94471" lon="5.57285">
        <ele>1006.6</ele>
        <time>2021-08-08T11:56:22Z</time>
      </trkpt>
      <trkpt lat="44.94468" lon="5.57285">
        <ele>1006.8</ele>
        <time>2021-08-08T11:56:23Z</time>
      </trkpt>
      <trkpt lat="44.94463" lon="5.57283">
        <ele>1007.1</ele>
        <time>2021-08-08T11:56:25Z</time>
      </trkpt>
      <trkpt lat="44.9446" lon="5.57282">
        <ele>1007.3</ele>
        <time>2021-08-08T11:56:26Z</time>
      </trkpt>
      <trkpt lat="44.94456" lon="5.5728">
        <ele>1007.5</ele>
        <time>2021-08-08T11:56:27Z</time>
      </trkpt>
      <trkpt lat="44.94452" lon="5.57278">
        <ele>1007.8</ele>
        <time>2021-08-08T11:56:29Z</time>
      </trkpt>
      <trkpt lat="44.94449" lon="5.57277">
        <ele>1008</ele>
        <time>2021-08-08T11:56:30Z</time>
      </trkpt>
      <trkpt lat="44.94447" lon="5.57276">
        <ele>1008.1</ele>
        <time>2021-08-08T11:56:31Z</time>
      </trkpt>
      <trkpt lat="44.94442" lon="5.57273">
        <ele>1008.4</ele>
        <time>2021-08-08T11:56:33Z</time>
      </trkpt>
      <trkpt lat="44.9444" lon="5.57271">
        <ele>1008.5</ele>
        <time>2021-08-08T11:56:34Z</time>
      </trkpt>
      <trkpt lat="44.94438" lon="5.57269">
        <ele>1008.7</ele>
        <time>2021-08-08T11:56:36Z</time>
      </trkpt>
      <trkpt lat="44.94433" lon="5.57265">
        <ele>1009</ele>
        <time>2021-08-08T11:56:37Z</time>
      </trkpt>
      <trkpt lat="44.9443" lon="5.57261">
        <ele>1009.2</ele>
        <time>2021-08-08T11:56:38Z</time>
      </trkpt>
      <trkpt lat="44.94427" lon="5.57259">
        <ele>1009.4</ele>
        <time>2021-08-08T11:56:40Z</time>
      </trkpt>
      <trkpt lat="44.94424" lon="5.57255">
        <ele>1009.6</ele>
        <time>2021-08-08T11:56:41Z</time>
      </trkpt>
      <trkpt lat="44.94422" lon="5.57254">
        <ele>1009.7</ele>
        <time>2021-08-08T11:56:42Z</time>
      </trkpt>
      <trkpt lat="44.94417" lon="5.57249">
        <ele>1010</ele>
        <time>2021-08-08T11:56:44Z</time>
      </trkpt>
      <trkpt lat="44.94413" lon="5.57245">
        <ele>1010.3</ele>
        <time>2021-08-08T11:56:45Z</time>
      </trkpt>
      <trkpt lat="44.9441" lon="5.57242">
        <ele>1010.6</ele>
        <time>2021-08-08T11:56:46Z</time>
      </trkpt>
      <trkpt lat="44.94407" lon="5.57239">
        <ele>1010.8</ele>
        <time>2021-08-08T11:56:48Z</time>
      </trkpt>
      <trkpt lat="44.94403" lon="5.57235">
        <ele>1011.1</ele>
        <time>2021-08-08T11:56:49Z</time>
      </trkpt>
      <trkpt lat="44.94399" lon="5.57232">
        <ele>1011.5</ele>
        <time>2021-08-08T11:56:51Z</time>
      </trkpt>
      <trkpt lat="44.94397" lon="5.5723">
        <ele>1011.7</ele>
        <time>2021-08-08T11:56:52Z</time>
      </trkpt>
      <trkpt lat="44.94393" lon="5.57226">
        <ele>1012</ele>
        <time>2021-08-08T11:56:53Z</time>
      </trkpt>
      <trkpt lat="44.94392" lon="5.57225">
        <ele>1012.1</ele>
        <time>2021-08-08T11:56:54Z</time>
      </trkpt>
      <trkpt lat="44.94387" lon="5.57223">
        <ele>1012.5</ele>
        <time>2021-08-08T11:56:55Z</time>
      </trkpt>
      <trkpt lat="44.94384" lon="5.57222">
        <ele>1012.7</ele>
        <time>2021-08-08T11:56:56Z</time>
      </trkpt>
      <trkpt lat="44.9438" lon="5.5722">
        <ele>1013</ele>
        <time>2021-08-08T11:56:58Z</time>
      </trkpt>
      <trkpt lat="44.94376" lon="5.57219">
        <ele>1013.3</ele>
        <time>2021-08-08T11:56:59Z</time>
      </trkpt>
      <trkpt lat="44.94372" lon="5.57217">
        <ele>1013.7</ele>
        <time>2021-08-08T11:57:00Z</time>
      </trkpt>
      <trkpt lat="44.94368" lon="5.57216">
        <ele>1013.9</ele>
        <time>2021-08-08T11:57:02Z</time>
      </trkpt>
      <trkpt lat="44.94365" lon="5.57215">
        <ele>1014.2</ele>
        <time>2021-08-08T11:57:03Z</time>
      </trkpt>
      <trkpt lat="44.9436" lon="5.57215">
        <ele>1014.6</ele>
        <time>2021-08-08T11:57:04Z</time>
      </trkpt>
      <trkpt lat="44.94356" lon="5.57216">
        <ele>1014.9</ele>
        <time>2021-08-08T11:57:05Z</time>
      </trkpt>
      <trkpt lat="44.94352" lon="5.57216">
        <ele>1015.2</ele>
        <time>2021-08-08T11:57:06Z</time>
      </trkpt>
      <trkpt lat="44.94348" lon="5.57217">
        <ele>1015.4</ele>
        <time>2021-08-08T11:57:07Z</time>
      </trkpt>
      <trkpt lat="44.94342" lon="5.57217">
        <ele>1015.8</ele>
        <time>2021-08-08T11:57:09Z</time>
      </trkpt>
      <trkpt lat="44.94338" lon="5.57217">
        <ele>1016</ele>
        <time>2021-08-08T11:57:10Z</time>
      </trkpt>
      <trkpt lat="44.94335" lon="5.57218">
        <ele>1016.2</ele>
        <time>2021-08-08T11:57:12Z</time>
      </trkpt>
      <trkpt lat="44.94332" lon="5.57218">
        <ele>1016.4</ele>
        <time>2021-08-08T11:57:13Z</time>
      </trkpt>
      <trkpt lat="44.94326" lon="5.5722">
        <ele>1016.8</ele>
        <time>2021-08-08T11:57:14Z</time>
      </trkpt>
      <trkpt lat="44.9432" lon="5.57222">
        <ele>1017.2</ele>
        <time>2021-08-08T11:57:16Z</time>
      </trkpt>
      <trkpt lat="44.94316" lon="5.57222">
        <ele>1017.4</ele>
        <time>2021-08-08T11:57:18Z</time>
      </trkpt>
      <trkpt lat="44.94312" lon="5.57223">
        <ele>1017.6</ele>
        <time>2021-08-08T11:57:19Z</time>
      </trkpt>
      <trkpt lat="44.94307" lon="5.57222">
        <ele>1017.9</ele>
        <time>2021-08-08T11:57:20Z</time>
      </trkpt>
      <trkpt lat="44.94303" lon="5.57221">
        <ele>1018.2</ele>
        <time>2021-08-08T11:57:21Z</time>
      </trkpt>
      <trkpt lat="44.94297" lon="5.5722">
        <ele>1018.5</ele>
        <time>2021-08-08T11:57:23Z</time>
      </trkpt>
      <trkpt lat="44.94293" lon="5.57219">
        <ele>1018.8</ele>
        <time>2021-08-08T11:57:25Z</time>
      </trkpt>
      <trkpt lat="44.94289" lon="5.57218">
        <ele>1019</ele>
        <time>2021-08-08T11:57:26Z</time>
      </trkpt>
      <trkpt lat="44.94286" lon="5.57216">
        <ele>1019.2</ele>
        <time>2021-08-08T11:57:28Z</time>
      </trkpt>
      <trkpt lat="44.9428" lon="5.57214">
        <ele>1019.6</ele>
        <time>2021-08-08T11:57:29Z</time>
      </trkpt>
      <trkpt lat="44.94274" lon="5.57211">
        <ele>1019.9</ele>
        <time>2021-08-08T11:57:31Z</time>
      </trkpt>
      <trkpt lat="44.94269" lon="5.57208">
        <ele>1020.4</ele>
        <time>2021-08-08T11:57:33Z</time>
      </trkpt>
      <trkpt lat="44.94264" lon="5.57205">
        <ele>1020.7</ele>
        <time>2021-08-08T11:57:35Z</time>
      </trkpt>
      <trkpt lat="44.9426" lon="5.57203">
        <ele>1021</ele>
        <time>2021-08-08T11:57:36Z</time>
      </trkpt>
      <trkpt lat="44.94254" lon="5.57199">
        <ele>1021.4</ele>
        <time>2021-08-08T11:57:38Z</time>
      </trkpt>
      <trkpt lat="44.9425" lon="5.57197">
        <ele>1021.7</ele>
        <time>2021-08-08T11:57:40Z</time>
      </trkpt>
      <trkpt lat="44.94247" lon="5.57194">
        <ele>1022</ele>
        <time>2021-08-08T11:57:42Z</time>
      </trkpt>
      <trkpt lat="44.94243" lon="5.57192">
        <ele>1022.2</ele>
        <time>2021-08-08T11:57:43Z</time>
      </trkpt>
      <trkpt lat="44.9424" lon="5.57189">
        <ele>1022.5</ele>
        <time>2021-08-08T11:57:44Z</time>
      </trkpt>
      <trkpt lat="44.94236" lon="5.57187">
        <ele>1022.8</ele>
        <time>2021-08-08T11:57:45Z</time>
      </trkpt>
      <trkpt lat="44.94231" lon="5.57184">
        <ele>1023.2</ele>
        <time>2021-08-08T11:57:47Z</time>
      </trkpt>
      <trkpt lat="44.94227" lon="5.57181">
        <ele>1023.5</ele>
        <time>2021-08-08T11:57:49Z</time>
      </trkpt>
      <trkpt lat="44.94222" lon="5.57178">
        <ele>1023.8</ele>
        <time>2021-08-08T11:57:50Z</time>
      </trkpt>
      <trkpt lat="44.94219" lon="5.57176">
        <ele>1024</ele>
        <time>2021-08-08T11:57:51Z</time>
      </trkpt>
      <trkpt lat="44.94216" lon="5.57174">
        <ele>1024.2</ele>
        <time>2021-08-08T11:57:52Z</time>
      </trkpt>
      <trkpt lat="44.94211" lon="5.57172">
        <ele>1024.6</ele>
        <time>2021-08-08T11:57:54Z</time>
      </trkpt>
      <trkpt lat="44.94207" lon="5.57171">
        <ele>1024.9</ele>
        <time>2021-08-08T11:57:56Z</time>
      </trkpt>
      <trkpt lat="44.94203" lon="5.5717">
        <ele>1025.1</ele>
        <time>2021-08-08T11:57:57Z</time>
      </trkpt>
      <trkpt lat="44.94199" lon="5.5717">
        <ele>1025.4</ele>
        <time>2021-08-08T11:57:58Z</time>
      </trkpt>
      <trkpt lat="44.94193" lon="5.57169">
        <ele>1025.8</ele>
        <time>2021-08-08T11:58:00Z</time>
      </trkpt>
      <trkpt lat="44.94189" lon="5.57168">
        <ele>1026</ele>
        <time>2021-08-08T11:58:01Z</time>
      </trkpt>
      <trkpt lat="44.94186" lon="5.57167">
        <ele>1026.3</ele>
        <time>2021-08-08T11:58:03Z</time>
      </trkpt>
      <trkpt lat="44.9418" lon="5.57165">
        <ele>1026.7</ele>
        <time>2021-08-08T11:58:04Z</time>
      </trkpt>
      <trkpt lat="44.94176" lon="5.57164">
        <ele>1027</ele>
        <time>2021-08-08T11:58:06Z</time>
      </trkpt>
      <trkpt lat="44.94173" lon="5.57163">
        <ele>1027.2</ele>
        <time>2021-08-08T11:58:07Z</time>
      </trkpt>
      <trkpt lat="44.94168" lon="5.57162">
        <ele>1027.5</ele>
        <time>2021-08-08T11:58:08Z</time>
      </trkpt>
      <trkpt lat="44.94163" lon="5.5716">
        <ele>1027.9</ele>
        <time>2021-08-08T11:58:10Z</time>
      </trkpt>
      <trkpt lat="44.94159" lon="5.5716">
        <ele>1028.2</ele>
        <time>2021-08-08T11:58:12Z</time>
      </trkpt>
      <trkpt lat="44.94154" lon="5.5716">
        <ele>1028.6</ele>
        <time>2021-08-08T11:58:13Z</time>
      </trkpt>
      <trkpt lat="44.9415" lon="5.5716">
        <ele>1028.8</ele>
        <time>2021-08-08T11:58:14Z</time>
      </trkpt>
      <trkpt lat="44.94146" lon="5.57161">
        <ele>1029.1</ele>
        <time>2021-08-08T11:58:15Z</time>
      </trkpt>
      <trkpt lat="44.94141" lon="5.57162">
        <ele>1029.5</ele>
        <time>2021-08-08T11:58:17Z</time>
      </trkpt>
      <trkpt lat="44.94137" lon="5.57163">
        <ele>1029.7</ele>
        <time>2021-08-08T11:58:19Z</time>
      </trkpt>
      <trkpt lat="44.94131" lon="5.57165">
        <ele>1030.1</ele>
        <time>2021-08-08T11:58:21Z</time>
      </trkpt>
      <trkpt lat="44.94128" lon="5.57167">
        <ele>1030.3</ele>
        <time>2021-08-08T11:58:22Z</time>
      </trkpt>
      <trkpt lat="44.94124" lon="5.57169">
        <ele>1030.6</ele>
        <time>2021-08-08T11:58:23Z</time>
      </trkpt>
      <trkpt lat="44.9412" lon="5.57171">
        <ele>1030.9</ele>
        <time>2021-08-08T11:58:25Z</time>
      </trkpt>
      <trkpt lat="44.94116" lon="5.57173">
        <ele>1031.2</ele>
        <time>2021-08-08T11:58:26Z</time>
      </trkpt>
      <trkpt lat="44.94113" lon="5.57174">
        <ele>1031.4</ele>
        <time>2021-08-08T11:58:27Z</time>
      </trkpt>
      <trkpt lat="44.9411" lon="5.57175">
        <ele>1031.7</ele>
        <time>2021-08-08T11:58:29Z</time>
      </trkpt>
      <trkpt lat="44.94106" lon="5.57177">
        <ele>1031.9</ele>
        <time>2021-08-08T11:58:30Z</time>
      </trkpt>
      <trkpt lat="44.94104" lon="5.57179">
        <ele>1032.1</ele>
        <time>2021-08-08T11:58:31Z</time>
      </trkpt>
      <trkpt lat="44.94101" lon="5.57181">
        <ele>1032.3</ele>
        <time>2021-08-08T11:58:32Z</time>
      </trkpt>
      <trkpt lat="44.94097" lon="5.57183">
        <ele>1032.6</ele>
        <time>2021-08-08T11:58:33Z</time>
      </trkpt>
      <trkpt lat="44.94095" lon="5.57184">
        <ele>1032.8</ele>
        <time>2021-08-08T11:58:34Z</time>
      </trkpt>
      <trkpt lat="44.94092" lon="5.57185">
        <ele>1033.1</ele>
        <time>2021-08-08T11:58:36Z</time>
      </trkpt>
      <trkpt lat="44.94089" lon="5.57187">
        <ele>1033.3</ele>
        <time>2021-08-08T11:58:37Z</time>
      </trkpt>
      <trkpt lat="44.94085" lon="5.57189">
        <ele>1033.6</ele>
        <time>2021-08-08T11:58:38Z</time>
      </trkpt>
      <trkpt lat="44.94081" lon="5.57191">
        <ele>1033.9</ele>
        <time>2021-08-08T11:58:40Z</time>
      </trkpt>
      <trkpt lat="44.94079" lon="5.57191">
        <ele>1034.1</ele>
        <time>2021-08-08T11:58:41Z</time>
      </trkpt>
      <trkpt lat="44.94073" lon="5.57193">
        <ele>1034.6</ele>
        <time>2021-08-08T11:58:43Z</time>
      </trkpt>
      <trkpt lat="44.9407" lon="5.57195">
        <ele>1034.8</ele>
        <time>2021-08-08T11:58:44Z</time>
      </trkpt>
      <trkpt lat="44.94065" lon="5.57196">
        <ele>1035.3</ele>
        <time>2021-08-08T11:58:46Z</time>
      </trkpt>
      <trkpt lat="44.94062" lon="5.57197">
        <ele>1035.5</ele>
        <time>2021-08-08T11:58:47Z</time>
      </trkpt>
      <trkpt lat="44.94058" lon="5.57197">
        <ele>1035.8</ele>
        <time>2021-08-08T11:58:49Z</time>
      </trkpt>
      <trkpt lat="44.94052" lon="5.57197">
        <ele>1036.3</ele>
        <time>2021-08-08T11:58:52Z</time>
      </trkpt>
      <trkpt lat="44.94049" lon="5.57197">
        <ele>1036.5</ele>
        <time>2021-08-08T11:58:53Z</time>
      </trkpt>
      <trkpt lat="44.94043" lon="5.57197">
        <ele>1036.8</ele>
        <time>2021-08-08T11:58:54Z</time>
      </trkpt>
      <trkpt lat="44.9404" lon="5.57196">
        <ele>1037.1</ele>
        <time>2021-08-08T11:58:55Z</time>
      </trkpt>
      <trkpt lat="44.94036" lon="5.57194">
        <ele>1037.4</ele>
        <time>2021-08-08T11:58:57Z</time>
      </trkpt>
      <trkpt lat="44.94032" lon="5.57193">
        <ele>1037.6</ele>
        <time>2021-08-08T11:58:58Z</time>
      </trkpt>
      <trkpt lat="44.94029" lon="5.57193">
        <ele>1037.8</ele>
        <time>2021-08-08T11:58:59Z</time>
      </trkpt>
      <trkpt lat="44.94023" lon="5.5719">
        <ele>1038.2</ele>
        <time>2021-08-08T11:59:01Z</time>
      </trkpt>
      <trkpt lat="44.9402" lon="5.5719">
        <ele>1038.4</ele>
        <time>2021-08-08T11:59:02Z</time>
      </trkpt>
      <trkpt lat="44.94015" lon="5.57188">
        <ele>1038.7</ele>
        <time>2021-08-08T11:59:03Z</time>
      </trkpt>
      <trkpt lat="44.94011" lon="5.57186">
        <ele>1039</ele>
        <time>2021-08-08T11:59:05Z</time>
      </trkpt>
      <trkpt lat="44.94007" lon="5.57185">
        <ele>1039.2</ele>
        <time>2021-08-08T11:59:06Z</time>
      </trkpt>
      <trkpt lat="44.94004" lon="5.57185">
        <ele>1039.4</ele>
        <time>2021-08-08T11:59:07Z</time>
      </trkpt>
      <trkpt lat="44.94" lon="5.57185">
        <ele>1039.6</ele>
        <time>2021-08-08T11:59:08Z</time>
      </trkpt>
      <trkpt lat="44.93998" lon="5.57185">
        <ele>1039.8</ele>
        <time>2021-08-08T11:59:10Z</time>
      </trkpt>
      <trkpt lat="44.93995" lon="5.57185">
        <ele>1040</ele>
        <time>2021-08-08T11:59:11Z</time>
      </trkpt>
      <trkpt lat="44.9399" lon="5.57184">
        <ele>1040.4</ele>
        <time>2021-08-08T11:59:12Z</time>
      </trkpt>
      <trkpt lat="44.93986" lon="5.57184">
        <ele>1040.6</ele>
        <time>2021-08-08T11:59:13Z</time>
      </trkpt>
      <trkpt lat="44.93982" lon="5.57184">
        <ele>1040.9</ele>
        <time>2021-08-08T11:59:15Z</time>
      </trkpt>
      <trkpt lat="44.93978" lon="5.57184">
        <ele>1041.2</ele>
        <time>2021-08-08T11:59:17Z</time>
      </trkpt>
      <trkpt lat="44.93974" lon="5.57184">
        <ele>1041.5</ele>
        <time>2021-08-08T11:59:18Z</time>
      </trkpt>
      <trkpt lat="44.9397" lon="5.57184">
        <ele>1041.8</ele>
        <time>2021-08-08T11:59:19Z</time>
      </trkpt>
      <trkpt lat="44.93967" lon="5.57183">
        <ele>1042.1</ele>
        <time>2021-08-08T11:59:21Z</time>
      </trkpt>
      <trkpt lat="44.93962" lon="5.57183">
        <ele>1042.4</ele>
        <time>2021-08-08T11:59:22Z</time>
      </trkpt>
      <trkpt lat="44.93958" lon="5.57182">
        <ele>1042.7</ele>
        <time>2021-08-08T11:59:23Z</time>
      </trkpt>
      <trkpt lat="44.93954" lon="5.57181">
        <ele>1043</ele>
        <time>2021-08-08T11:59:24Z</time>
      </trkpt>
      <trkpt lat="44.93948" lon="5.5718">
        <ele>1043.4</ele>
        <time>2021-08-08T11:59:26Z</time>
      </trkpt>
      <trkpt lat="44.93943" lon="5.57178">
        <ele>1043.7</ele>
        <time>2021-08-08T11:59:28Z</time>
      </trkpt>
      <trkpt lat="44.93941" lon="5.57177">
        <ele>1043.8</ele>
        <time>2021-08-08T11:59:29Z</time>
      </trkpt>
      <trkpt lat="44.93939" lon="5.57174">
        <ele>1044</ele>
        <time>2021-08-08T11:59:31Z</time>
      </trkpt>
      <trkpt lat="44.93931" lon="5.57168">
        <ele>1044.4</ele>
        <time>2021-08-08T11:59:33Z</time>
      </trkpt>
      <trkpt lat="44.93927" lon="5.57164">
        <ele>1044.6</ele>
        <time>2021-08-08T11:59:35Z</time>
      </trkpt>
      <trkpt lat="44.93923" lon="5.57161">
        <ele>1044.7</ele>
        <time>2021-08-08T11:59:36Z</time>
      </trkpt>
      <trkpt lat="44.93919" lon="5.57159">
        <ele>1044.9</ele>
        <time>2021-08-08T11:59:37Z</time>
      </trkpt>
      <trkpt lat="44.93914" lon="5.57157">
        <ele>1045</ele>
        <time>2021-08-08T11:59:39Z</time>
      </trkpt>
      <trkpt lat="44.93911" lon="5.57156">
        <ele>1045.1</ele>
        <time>2021-08-08T11:59:40Z</time>
      </trkpt>
      <trkpt lat="44.93905" lon="5.57156">
        <ele>1045.2</ele>
        <time>2021-08-08T11:59:41Z</time>
      </trkpt>
      <trkpt lat="44.939" lon="5.57157">
        <ele>1045.3</ele>
        <time>2021-08-08T11:59:43Z</time>
      </trkpt>
      <trkpt lat="44.93895" lon="5.57158">
        <ele>1045.4</ele>
        <time>2021-08-08T11:59:44Z</time>
      </trkpt>
      <trkpt lat="44.9389" lon="5.5716">
        <ele>1045.5</ele>
        <time>2021-08-08T11:59:45Z</time>
      </trkpt>
      <trkpt lat="44.93885" lon="5.57161">
        <ele>1045.5</ele>
        <time>2021-08-08T11:59:46Z</time>
      </trkpt>
      <trkpt lat="44.93879" lon="5.57163">
        <ele>1045.5</ele>
        <time>2021-08-08T11:59:48Z</time>
      </trkpt>
      <trkpt lat="44.9387" lon="5.57164">
        <ele>1045.6</ele>
        <time>2021-08-08T11:59:49Z</time>
      </trkpt>
      <trkpt lat="44.93864" lon="5.57164">
        <ele>1045.6</ele>
        <time>2021-08-08T11:59:50Z</time>
      </trkpt>
      <trkpt lat="44.93855" lon="5.57166">
        <ele>1045.7</ele>
        <time>2021-08-08T11:59:53Z</time>
      </trkpt>
      <trkpt lat="44.93844" lon="5.57167">
        <ele>1045.8</ele>
        <time>2021-08-08T11:59:54Z</time>
      </trkpt>
      <trkpt lat="44.93835" lon="5.5717">
        <ele>1045.9</ele>
        <time>2021-08-08T11:59:57Z</time>
      </trkpt>
      <trkpt lat="44.9383" lon="5.57171">
        <ele>1046</ele>
        <time>2021-08-08T11:59:58Z</time>
      </trkpt>
      <trkpt lat="44.93825" lon="5.57173">
        <ele>1046.1</ele>
        <time>2021-08-08T11:59:59Z</time>
      </trkpt>
      <trkpt lat="44.93815" lon="5.57175">
        <ele>1046.3</ele>
        <time>2021-08-08T12:00:01Z</time>
      </trkpt>
      <trkpt lat="44.93809" lon="5.57176">
        <ele>1046.3</ele>
        <time>2021-08-08T12:00:02Z</time>
      </trkpt>
      <trkpt lat="44.93793" lon="5.57179">
        <ele>1046.6</ele>
        <time>2021-08-08T12:00:04Z</time>
      </trkpt>
      <trkpt lat="44.93782" lon="5.5718">
        <ele>1046.9</ele>
        <time>2021-08-08T12:00:07Z</time>
      </trkpt>
      <trkpt lat="44.93771" lon="5.57181">
        <ele>1047.1</ele>
        <time>2021-08-08T12:00:08Z</time>
      </trkpt>
      <trkpt lat="44.93761" lon="5.57181">
        <ele>1047.4</ele>
        <time>2021-08-08T12:00:10Z</time>
      </trkpt>
      <trkpt lat="44.93756" lon="5.57181">
        <ele>1047.5</ele>
        <time>2021-08-08T12:00:11Z</time>
      </trkpt>
      <trkpt lat="44.93751" lon="5.57181">
        <ele>1047.6</ele>
        <time>2021-08-08T12:00:12Z</time>
      </trkpt>
      <trkpt lat="44.93743" lon="5.57183">
        <ele>1047.9</ele>
        <time>2021-08-08T12:00:14Z</time>
      </trkpt>
      <trkpt lat="44.93738" lon="5.57182">
        <ele>1048</ele>
        <time>2021-08-08T12:00:16Z</time>
      </trkpt>
      <trkpt lat="44.93736" lon="5.57182">
        <ele>1048.1</ele>
        <time>2021-08-08T12:00:17Z</time>
      </trkpt>
      <trkpt lat="44.93731" lon="5.57182">
        <ele>1048.3</ele>
        <time>2021-08-08T12:00:18Z</time>
      </trkpt>
      <trkpt lat="44.93728" lon="5.57181">
        <ele>1048.4</ele>
        <time>2021-08-08T12:00:19Z</time>
      </trkpt>
      <trkpt lat="44.9372" lon="5.57183">
        <ele>1048.6</ele>
        <time>2021-08-08T12:00:21Z</time>
      </trkpt>
      <trkpt lat="44.93712" lon="5.57186">
        <ele>1048.7</ele>
        <time>2021-08-08T12:00:23Z</time>
      </trkpt>
      <trkpt lat="44.93708" lon="5.57186">
        <ele>1048.7</ele>
        <time>2021-08-08T12:00:24Z</time>
      </trkpt>
      <trkpt lat="44.93706" lon="5.57187">
        <ele>1048.8</ele>
        <time>2021-08-08T12:00:25Z</time>
      </trkpt>
      <trkpt lat="44.93701" lon="5.57192">
        <ele>1048.9</ele>
        <time>2021-08-08T12:00:26Z</time>
      </trkpt>
      <trkpt lat="44.9369" lon="5.57199">
        <ele>1049</ele>
        <time>2021-08-08T12:00:29Z</time>
      </trkpt>
      <trkpt lat="44.93686" lon="5.57197">
        <ele>1049.1</ele>
        <time>2021-08-08T12:00:30Z</time>
      </trkpt>
      <trkpt lat="44.93683" lon="5.57196">
        <ele>1049.2</ele>
        <time>2021-08-08T12:00:31Z</time>
      </trkpt>
      <trkpt lat="44.93679" lon="5.57198">
        <ele>1049.3</ele>
        <time>2021-08-08T12:00:32Z</time>
      </trkpt>
      <trkpt lat="44.93676" lon="5.572">
        <ele>1049.5</ele>
        <time>2021-08-08T12:00:33Z</time>
      </trkpt>
      <trkpt lat="44.93668" lon="5.57205">
        <ele>1049.7</ele>
        <time>2021-08-08T12:00:35Z</time>
      </trkpt>
      <trkpt lat="44.93664" lon="5.57207">
        <ele>1049.9</ele>
        <time>2021-08-08T12:00:36Z</time>
      </trkpt>
      <trkpt lat="44.93655" lon="5.57209">
        <ele>1050.2</ele>
        <time>2021-08-08T12:00:37Z</time>
      </trkpt>
      <trkpt lat="44.93648" lon="5.57208">
        <ele>1050.4</ele>
        <time>2021-08-08T12:00:38Z</time>
      </trkpt>
      <trkpt lat="44.93636" lon="5.57211">
        <ele>1050.7</ele>
        <time>2021-08-08T12:00:40Z</time>
      </trkpt>
      <trkpt lat="44.93625" lon="5.57213">
        <ele>1050.9</ele>
        <time>2021-08-08T12:00:43Z</time>
      </trkpt>
      <trkpt lat="44.93619" lon="5.57215">
        <ele>1051.1</ele>
        <time>2021-08-08T12:00:44Z</time>
      </trkpt>
      <trkpt lat="44.93612" lon="5.57216">
        <ele>1051.2</ele>
        <time>2021-08-08T12:00:46Z</time>
      </trkpt>
      <trkpt lat="44.93609" lon="5.57219">
        <ele>1051.3</ele>
        <time>2021-08-08T12:00:47Z</time>
      </trkpt>
      <trkpt lat="44.93604" lon="5.57222">
        <ele>1051.4</ele>
        <time>2021-08-08T12:00:48Z</time>
      </trkpt>
      <trkpt lat="44.93598" lon="5.57224">
        <ele>1051.5</ele>
        <time>2021-08-08T12:00:49Z</time>
      </trkpt>
      <trkpt lat="44.93593" lon="5.57225">
        <ele>1051.6</ele>
        <time>2021-08-08T12:00:51Z</time>
      </trkpt>
      <trkpt lat="44.93575" lon="5.57227">
        <ele>1051.6</ele>
        <time>2021-08-08T12:00:53Z</time>
      </trkpt>
      <trkpt lat="44.93565" lon="5.57229">
        <ele>1051.6</ele>
        <time>2021-08-08T12:00:56Z</time>
      </trkpt>
      <trkpt lat="44.93555" lon="5.57233">
        <ele>1051.6</ele>
        <time>2021-08-08T12:00:57Z</time>
      </trkpt>
      <trkpt lat="44.93544" lon="5.57235">
        <ele>1051.6</ele>
        <time>2021-08-08T12:01:00Z</time>
      </trkpt>
      <trkpt lat="44.93534" lon="5.57241">
        <ele>1051.7</ele>
        <time>2021-08-08T12:01:01Z</time>
      </trkpt>
      <trkpt lat="44.93529" lon="5.57245">
        <ele>1051.8</ele>
        <time>2021-08-08T12:01:03Z</time>
      </trkpt>
      <trkpt lat="44.93518" lon="5.57249">
        <ele>1051.9</ele>
        <time>2021-08-08T12:01:04Z</time>
      </trkpt>
      <trkpt lat="44.93513" lon="5.57252">
        <ele>1051.9</ele>
        <time>2021-08-08T12:01:06Z</time>
      </trkpt>
      <trkpt lat="44.93504" lon="5.57257">
        <ele>1052</ele>
        <time>2021-08-08T12:01:07Z</time>
      </trkpt>
      <trkpt lat="44.93499" lon="5.5726">
        <ele>1052.1</ele>
        <time>2021-08-08T12:01:08Z</time>
      </trkpt>
      <trkpt lat="44.93488" lon="5.57263">
        <ele>1052.3</ele>
        <time>2021-08-08T12:01:10Z</time>
      </trkpt>
      <trkpt lat="44.93479" lon="5.57265">
        <ele>1052.5</ele>
        <time>2021-08-08T12:01:12Z</time>
      </trkpt>
      <trkpt lat="44.93469" lon="5.57268">
        <ele>1052.8</ele>
        <time>2021-08-08T12:01:14Z</time>
      </trkpt>
      <trkpt lat="44.93464" lon="5.57269">
        <ele>1053</ele>
        <time>2021-08-08T12:01:15Z</time>
      </trkpt>
      <trkpt lat="44.93459" lon="5.57271">
        <ele>1053.2</ele>
        <time>2021-08-08T12:01:16Z</time>
      </trkpt>
      <trkpt lat="44.93453" lon="5.57273">
        <ele>1053.3</ele>
        <time>2021-08-08T12:01:18Z</time>
      </trkpt>
      <trkpt lat="44.93448" lon="5.57274">
        <ele>1053.5</ele>
        <time>2021-08-08T12:01:19Z</time>
      </trkpt>
      <trkpt lat="44.93439" lon="5.57277">
        <ele>1053.9</ele>
        <time>2021-08-08T12:01:20Z</time>
      </trkpt>
      <trkpt lat="44.9343" lon="5.57279">
        <ele>1054.2</ele>
        <time>2021-08-08T12:01:23Z</time>
      </trkpt>
      <trkpt lat="44.93423" lon="5.5728">
        <ele>1054.5</ele>
        <time>2021-08-08T12:01:25Z</time>
      </trkpt>
      <trkpt lat="44.93415" lon="5.57283">
        <ele>1054.8</ele>
        <time>2021-08-08T12:01:26Z</time>
      </trkpt>
      <trkpt lat="44.93411" lon="5.57286">
        <ele>1055</ele>
        <time>2021-08-08T12:01:28Z</time>
      </trkpt>
      <trkpt lat="44.93407" lon="5.57288">
        <ele>1055.1</ele>
        <time>2021-08-08T12:01:29Z</time>
      </trkpt>
      <trkpt lat="44.93404" lon="5.57285">
        <ele>1055.3</ele>
        <time>2021-08-08T12:01:30Z</time>
      </trkpt>
      <trkpt lat="44.934" lon="5.57287">
        <ele>1055.5</ele>
        <time>2021-08-08T12:01:31Z</time>
      </trkpt>
      <trkpt lat="44.93397" lon="5.5729">
        <ele>1055.7</ele>
        <time>2021-08-08T12:01:33Z</time>
      </trkpt>
      <trkpt lat="44.93392" lon="5.57294">
        <ele>1056</ele>
        <time>2021-08-08T12:01:34Z</time>
      </trkpt>
      <trkpt lat="44.93388" lon="5.57297">
        <ele>1056.2</ele>
        <time>2021-08-08T12:01:36Z</time>
      </trkpt>
      <trkpt lat="44.93384" lon="5.57299">
        <ele>1056.5</ele>
        <time>2021-08-08T12:01:37Z</time>
      </trkpt>
      <trkpt lat="44.93379" lon="5.57301">
        <ele>1056.8</ele>
        <time>2021-08-08T12:01:38Z</time>
      </trkpt>
      <trkpt lat="44.93375" lon="5.57303">
        <ele>1057.1</ele>
        <time>2021-08-08T12:01:39Z</time>
      </trkpt>
      <trkpt lat="44.9337" lon="5.57305">
        <ele>1057.3</ele>
        <time>2021-08-08T12:01:41Z</time>
      </trkpt>
      <trkpt lat="44.93365" lon="5.57307">
        <ele>1057.7</ele>
        <time>2021-08-08T12:01:42Z</time>
      </trkpt>
      <trkpt lat="44.93361" lon="5.57309">
        <ele>1058</ele>
        <time>2021-08-08T12:01:43Z</time>
      </trkpt>
      <trkpt lat="44.93357" lon="5.5731">
        <ele>1058.3</ele>
        <time>2021-08-08T12:01:45Z</time>
      </trkpt>
      <trkpt lat="44.93351" lon="5.5731">
        <ele>1058.7</ele>
        <time>2021-08-08T12:01:46Z</time>
      </trkpt>
      <trkpt lat="44.93348" lon="5.57309">
        <ele>1058.9</ele>
        <time>2021-08-08T12:01:47Z</time>
      </trkpt>
      <trkpt lat="44.93344" lon="5.57309">
        <ele>1059.2</ele>
        <time>2021-08-08T12:01:48Z</time>
      </trkpt>
      <trkpt lat="44.9334" lon="5.57308">
        <ele>1059.5</ele>
        <time>2021-08-08T12:01:50Z</time>
      </trkpt>
      <trkpt lat="44.93337" lon="5.57307">
        <ele>1059.7</ele>
        <time>2021-08-08T12:01:51Z</time>
      </trkpt>
      <trkpt lat="44.93331" lon="5.57306">
        <ele>1060.1</ele>
        <time>2021-08-08T12:01:52Z</time>
      </trkpt>
      <trkpt lat="44.93328" lon="5.57306">
        <ele>1060.3</ele>
        <time>2021-08-08T12:01:53Z</time>
      </trkpt>
      <trkpt lat="44.93324" lon="5.57304">
        <ele>1060.5</ele>
        <time>2021-08-08T12:01:54Z</time>
      </trkpt>
      <trkpt lat="44.93319" lon="5.573">
        <ele>1060.8</ele>
        <time>2021-08-08T12:01:56Z</time>
      </trkpt>
      <trkpt lat="44.93316" lon="5.57297">
        <ele>1061</ele>
        <time>2021-08-08T12:01:57Z</time>
      </trkpt>
      <trkpt lat="44.93313" lon="5.57294">
        <ele>1061.1</ele>
        <time>2021-08-08T12:01:58Z</time>
      </trkpt>
      <trkpt lat="44.9331" lon="5.57291">
        <ele>1061.3</ele>
        <time>2021-08-08T12:01:59Z</time>
      </trkpt>
      <trkpt lat="44.93307" lon="5.57288">
        <ele>1061.4</ele>
        <time>2021-08-08T12:02:00Z</time>
      </trkpt>
      <trkpt lat="44.93305" lon="5.57285">
        <ele>1061.5</ele>
        <time>2021-08-08T12:02:01Z</time>
      </trkpt>
      <trkpt lat="44.93302" lon="5.5728">
        <ele>1061.7</ele>
        <time>2021-08-08T12:02:03Z</time>
      </trkpt>
      <trkpt lat="44.933" lon="5.57276">
        <ele>1061.9</ele>
        <time>2021-08-08T12:02:04Z</time>
      </trkpt>
      <trkpt lat="44.93297" lon="5.57272">
        <ele>1062.1</ele>
        <time>2021-08-08T12:02:06Z</time>
      </trkpt>
      <trkpt lat="44.93295" lon="5.57268">
        <ele>1062.2</ele>
        <time>2021-08-08T12:02:07Z</time>
      </trkpt>
      <trkpt lat="44.93293" lon="5.57264">
        <ele>1062.4</ele>
        <time>2021-08-08T12:02:08Z</time>
      </trkpt>
      <trkpt lat="44.9329" lon="5.5726">
        <ele>1062.6</ele>
        <time>2021-08-08T12:02:10Z</time>
      </trkpt>
      <trkpt lat="44.93286" lon="5.57254">
        <ele>1062.9</ele>
        <time>2021-08-08T12:02:11Z</time>
      </trkpt>
      <trkpt lat="44.93283" lon="5.5725">
        <ele>1063.1</ele>
        <time>2021-08-08T12:02:13Z</time>
      </trkpt>
      <trkpt lat="44.93281" lon="5.57247">
        <ele>1063.3</ele>
        <time>2021-08-08T12:02:14Z</time>
      </trkpt>
      <trkpt lat="44.93279" lon="5.57245">
        <ele>1063.4</ele>
        <time>2021-08-08T12:02:15Z</time>
      </trkpt>
      <trkpt lat="44.93276" lon="5.57241">
        <ele>1063.6</ele>
        <time>2021-08-08T12:02:16Z</time>
      </trkpt>
      <trkpt lat="44.93273" lon="5.57239">
        <ele>1063.9</ele>
        <time>2021-08-08T12:02:18Z</time>
      </trkpt>
      <trkpt lat="44.9327" lon="5.57237">
        <ele>1064.1</ele>
        <time>2021-08-08T12:02:19Z</time>
      </trkpt>
      <trkpt lat="44.93266" lon="5.57234">
        <ele>1064.3</ele>
        <time>2021-08-08T12:02:20Z</time>
      </trkpt>
      <trkpt lat="44.93262" lon="5.57231">
        <ele>1064.6</ele>
        <time>2021-08-08T12:02:21Z</time>
      </trkpt>
      <trkpt lat="44.93258" lon="5.57228">
        <ele>1065</ele>
        <time>2021-08-08T12:02:23Z</time>
      </trkpt>
      <trkpt lat="44.93255" lon="5.57226">
        <ele>1065.2</ele>
        <time>2021-08-08T12:02:24Z</time>
      </trkpt>
      <trkpt lat="44.93252" lon="5.57225">
        <ele>1065.4</ele>
        <time>2021-08-08T12:02:25Z</time>
      </trkpt>
      <trkpt lat="44.93247" lon="5.57223">
        <ele>1065.7</ele>
        <time>2021-08-08T12:02:27Z</time>
      </trkpt>
      <trkpt lat="44.93243" lon="5.57221">
        <ele>1066</ele>
        <time>2021-08-08T12:02:28Z</time>
      </trkpt>
      <trkpt lat="44.93241" lon="5.5722">
        <ele>1066.2</ele>
        <time>2021-08-08T12:02:29Z</time>
      </trkpt>
      <trkpt lat="44.93237" lon="5.57218">
        <ele>1066.5</ele>
        <time>2021-08-08T12:02:31Z</time>
      </trkpt>
      <trkpt lat="44.93233" lon="5.57217">
        <ele>1066.8</ele>
        <time>2021-08-08T12:02:32Z</time>
      </trkpt>
      <trkpt lat="44.93227" lon="5.57214">
        <ele>1067.3</ele>
        <time>2021-08-08T12:02:34Z</time>
      </trkpt>
      <trkpt lat="44.93224" lon="5.57213">
        <ele>1067.5</ele>
        <time>2021-08-08T12:02:35Z</time>
      </trkpt>
      <trkpt lat="44.93219" lon="5.57211">
        <ele>1067.9</ele>
        <time>2021-08-08T12:02:37Z</time>
      </trkpt>
      <trkpt lat="44.93217" lon="5.57211">
        <ele>1068.1</ele>
        <time>2021-08-08T12:02:38Z</time>
      </trkpt>
      <trkpt lat="44.93213" lon="5.57209">
        <ele>1068.3</ele>
        <time>2021-08-08T12:02:39Z</time>
      </trkpt>
      <trkpt lat="44.9321" lon="5.57208">
        <ele>1068.6</ele>
        <time>2021-08-08T12:02:40Z</time>
      </trkpt>
      <trkpt lat="44.93206" lon="5.57206">
        <ele>1068.9</ele>
        <time>2021-08-08T12:02:42Z</time>
      </trkpt>
      <trkpt lat="44.93203" lon="5.57203">
        <ele>1069.1</ele>
        <time>2021-08-08T12:02:43Z</time>
      </trkpt>
      <trkpt lat="44.93201" lon="5.57202">
        <ele>1069.2</ele>
        <time>2021-08-08T12:02:44Z</time>
      </trkpt>
      <trkpt lat="44.93198" lon="5.57199">
        <ele>1069.5</ele>
        <time>2021-08-08T12:02:46Z</time>
      </trkpt>
      <trkpt lat="44.93194" lon="5.57197">
        <ele>1069.7</ele>
        <time>2021-08-08T12:02:47Z</time>
      </trkpt>
      <trkpt lat="44.93192" lon="5.57195">
        <ele>1069.9</ele>
        <time>2021-08-08T12:02:48Z</time>
      </trkpt>
      <trkpt lat="44.93189" lon="5.57193">
        <ele>1070.1</ele>
        <time>2021-08-08T12:02:49Z</time>
      </trkpt>
      <trkpt lat="44.93185" lon="5.57189">
        <ele>1070.4</ele>
        <time>2021-08-08T12:02:51Z</time>
      </trkpt>
      <trkpt lat="44.93182" lon="5.57188">
        <ele>1070.6</ele>
        <time>2021-08-08T12:02:52Z</time>
      </trkpt>
      <trkpt lat="44.93179" lon="5.57186">
        <ele>1070.8</ele>
        <time>2021-08-08T12:02:53Z</time>
      </trkpt>
      <trkpt lat="44.93177" lon="5.57184">
        <ele>1071</ele>
        <time>2021-08-08T12:02:54Z</time>
      </trkpt>
      <trkpt lat="44.93174" lon="5.57182">
        <ele>1071.2</ele>
        <time>2021-08-08T12:02:55Z</time>
      </trkpt>
      <trkpt lat="44.93169" lon="5.57178">
        <ele>1071.6</ele>
        <time>2021-08-08T12:02:57Z</time>
      </trkpt>
      <trkpt lat="44.93166" lon="5.57175">
        <ele>1071.9</ele>
        <time>2021-08-08T12:02:59Z</time>
      </trkpt>
      <trkpt lat="44.93163" lon="5.57173">
        <ele>1072.1</ele>
        <time>2021-08-08T12:03:00Z</time>
      </trkpt>
      <trkpt lat="44.93159" lon="5.5717">
        <ele>1072.4</ele>
        <time>2021-08-08T12:03:01Z</time>
      </trkpt>
      <trkpt lat="44.93156" lon="5.57168">
        <ele>1072.6</ele>
        <time>2021-08-08T12:03:02Z</time>
      </trkpt>
      <trkpt lat="44.93154" lon="5.57166">
        <ele>1072.9</ele>
        <time>2021-08-08T12:03:03Z</time>
      </trkpt>
      <trkpt lat="44.93151" lon="5.57164">
        <ele>1073.1</ele>
        <time>2021-08-08T12:03:04Z</time>
      </trkpt>
      <trkpt lat="44.93148" lon="5.57162">
        <ele>1073.4</ele>
        <time>2021-08-08T12:03:06Z</time>
      </trkpt>
      <trkpt lat="44.93144" lon="5.5716">
        <ele>1073.6</ele>
        <time>2021-08-08T12:03:07Z</time>
      </trkpt>
      <trkpt lat="44.93142" lon="5.57158">
        <ele>1073.9</ele>
        <time>2021-08-08T12:03:09Z</time>
      </trkpt>
      <trkpt lat="44.93138" lon="5.57157">
        <ele>1074.2</ele>
        <time>2021-08-08T12:03:10Z</time>
      </trkpt>
      <trkpt lat="44.93135" lon="5.57155">
        <ele>1074.4</ele>
        <time>2021-08-08T12:03:11Z</time>
      </trkpt>
      <trkpt lat="44.93132" lon="5.57153">
        <ele>1074.6</ele>
        <time>2021-08-08T12:03:12Z</time>
      </trkpt>
      <trkpt lat="44.93129" lon="5.57151">
        <ele>1074.9</ele>
        <time>2021-08-08T12:03:13Z</time>
      </trkpt>
      <trkpt lat="44.93123" lon="5.57148">
        <ele>1075.4</ele>
        <time>2021-08-08T12:03:15Z</time>
      </trkpt>
      <trkpt lat="44.93119" lon="5.57145">
        <ele>1075.7</ele>
        <time>2021-08-08T12:03:17Z</time>
      </trkpt>
      <trkpt lat="44.93116" lon="5.57143">
        <ele>1075.9</ele>
        <time>2021-08-08T12:03:18Z</time>
      </trkpt>
      <trkpt lat="44.93111" lon="5.57139">
        <ele>1076.4</ele>
        <time>2021-08-08T12:03:20Z</time>
      </trkpt>
      <trkpt lat="44.93109" lon="5.57137">
        <ele>1076.6</ele>
        <time>2021-08-08T12:03:21Z</time>
      </trkpt>
      <trkpt lat="44.93107" lon="5.57135">
        <ele>1076.9</ele>
        <time>2021-08-08T12:03:22Z</time>
      </trkpt>
      <trkpt lat="44.93104" lon="5.57132">
        <ele>1077.2</ele>
        <time>2021-08-08T12:03:24Z</time>
      </trkpt>
      <trkpt lat="44.931" lon="5.57129">
        <ele>1077.5</ele>
        <time>2021-08-08T12:03:25Z</time>
      </trkpt>
      <trkpt lat="44.93097" lon="5.57126">
        <ele>1077.8</ele>
        <time>2021-08-08T12:03:27Z</time>
      </trkpt>
      <trkpt lat="44.93093" lon="5.57122">
        <ele>1078.2</ele>
        <time>2021-08-08T12:03:28Z</time>
      </trkpt>
      <trkpt lat="44.9309" lon="5.57119">
        <ele>1078.5</ele>
        <time>2021-08-08T12:03:29Z</time>
      </trkpt>
      <trkpt lat="44.93087" lon="5.57116">
        <ele>1078.7</ele>
        <time>2021-08-08T12:03:31Z</time>
      </trkpt>
      <trkpt lat="44.93085" lon="5.57114">
        <ele>1078.9</ele>
        <time>2021-08-08T12:03:32Z</time>
      </trkpt>
      <trkpt lat="44.93082" lon="5.57113">
        <ele>1079.2</ele>
        <time>2021-08-08T12:03:33Z</time>
      </trkpt>
      <trkpt lat="44.93079" lon="5.57111">
        <ele>1079.4</ele>
        <time>2021-08-08T12:03:34Z</time>
      </trkpt>
      <trkpt lat="44.93074" lon="5.5711">
        <ele>1079.7</ele>
        <time>2021-08-08T12:03:35Z</time>
      </trkpt>
      <trkpt lat="44.93071" lon="5.5711">
        <ele>1080</ele>
        <time>2021-08-08T12:03:37Z</time>
      </trkpt>
      <trkpt lat="44.93066" lon="5.57109">
        <ele>1080.3</ele>
        <time>2021-08-08T12:03:38Z</time>
      </trkpt>
      <trkpt lat="44.93062" lon="5.57108">
        <ele>1080.7</ele>
        <time>2021-08-08T12:03:40Z</time>
      </trkpt>
      <trkpt lat="44.93058" lon="5.57108">
        <ele>1081</ele>
        <time>2021-08-08T12:03:41Z</time>
      </trkpt>
      <trkpt lat="44.93054" lon="5.57108">
        <ele>1081.3</ele>
        <time>2021-08-08T12:03:43Z</time>
      </trkpt>
      <trkpt lat="44.9305" lon="5.57108">
        <ele>1081.6</ele>
        <time>2021-08-08T12:03:44Z</time>
      </trkpt>
      <trkpt lat="44.93046" lon="5.57108">
        <ele>1081.9</ele>
        <time>2021-08-08T12:03:45Z</time>
      </trkpt>
      <trkpt lat="44.93043" lon="5.57108">
        <ele>1082.2</ele>
        <time>2021-08-08T12:03:46Z</time>
      </trkpt>
      <trkpt lat="44.9304" lon="5.57108">
        <ele>1082.4</ele>
        <time>2021-08-08T12:03:47Z</time>
      </trkpt>
      <trkpt lat="44.93036" lon="5.57109">
        <ele>1082.7</ele>
        <time>2021-08-08T12:03:49Z</time>
      </trkpt>
      <trkpt lat="44.93033" lon="5.57109">
        <ele>1082.9</ele>
        <time>2021-08-08T12:03:50Z</time>
      </trkpt>
      <trkpt lat="44.9303" lon="5.57109">
        <ele>1083.2</ele>
        <time>2021-08-08T12:03:51Z</time>
      </trkpt>
      <trkpt lat="44.93024" lon="5.5711">
        <ele>1083.6</ele>
        <time>2021-08-08T12:03:53Z</time>
      </trkpt>
      <trkpt lat="44.93022" lon="5.5711">
        <ele>1083.8</ele>
        <time>2021-08-08T12:03:54Z</time>
      </trkpt>
      <trkpt lat="44.93019" lon="5.5711">
        <ele>1084</ele>
        <time>2021-08-08T12:03:56Z</time>
      </trkpt>
      <trkpt lat="44.93015" lon="5.57109">
        <ele>1084.3</ele>
        <time>2021-08-08T12:03:57Z</time>
      </trkpt>
      <trkpt lat="44.93011" lon="5.57109">
        <ele>1084.6</ele>
        <time>2021-08-08T12:03:58Z</time>
      </trkpt>
      <trkpt lat="44.93008" lon="5.57108">
        <ele>1084.8</ele>
        <time>2021-08-08T12:03:59Z</time>
      </trkpt>
      <trkpt lat="44.93005" lon="5.57106">
        <ele>1085.1</ele>
        <time>2021-08-08T12:04:00Z</time>
      </trkpt>
      <trkpt lat="44.92999" lon="5.57103">
        <ele>1085.5</ele>
        <time>2021-08-08T12:04:02Z</time>
      </trkpt>
      <trkpt lat="44.92997" lon="5.57102">
        <ele>1085.6</ele>
        <time>2021-08-08T12:04:03Z</time>
      </trkpt>
      <trkpt lat="44.92991" lon="5.57099">
        <ele>1086</ele>
        <time>2021-08-08T12:04:05Z</time>
      </trkpt>
      <trkpt lat="44.92989" lon="5.57097">
        <ele>1086.2</ele>
        <time>2021-08-08T12:04:06Z</time>
      </trkpt>
      <trkpt lat="44.92985" lon="5.57097">
        <ele>1086.5</ele>
        <time>2021-08-08T12:04:08Z</time>
      </trkpt>
      <trkpt lat="44.92982" lon="5.57096">
        <ele>1086.7</ele>
        <time>2021-08-08T12:04:09Z</time>
      </trkpt>
      <trkpt lat="44.92978" lon="5.57096">
        <ele>1086.9</ele>
        <time>2021-08-08T12:04:10Z</time>
      </trkpt>
      <trkpt lat="44.92976" lon="5.57096">
        <ele>1087.1</ele>
        <time>2021-08-08T12:04:11Z</time>
      </trkpt>
      <trkpt lat="44.92972" lon="5.57097">
        <ele>1087.3</ele>
        <time>2021-08-08T12:04:12Z</time>
      </trkpt>
      <trkpt lat="44.92969" lon="5.57098">
        <ele>1087.5</ele>
        <time>2021-08-08T12:04:13Z</time>
      </trkpt>
      <trkpt lat="44.92966" lon="5.57098">
        <ele>1087.8</ele>
        <time>2021-08-08T12:04:14Z</time>
      </trkpt>
      <trkpt lat="44.92962" lon="5.57099">
        <ele>1088.1</ele>
        <time>2021-08-08T12:04:16Z</time>
      </trkpt>
      <trkpt lat="44.92958" lon="5.57099">
        <ele>1088.4</ele>
        <time>2021-08-08T12:04:17Z</time>
      </trkpt>
      <trkpt lat="44.92956" lon="5.571">
        <ele>1088.6</ele>
        <time>2021-08-08T12:04:18Z</time>
      </trkpt>
      <trkpt lat="44.92952" lon="5.57101">
        <ele>1088.9</ele>
        <time>2021-08-08T12:04:19Z</time>
      </trkpt>
      <trkpt lat="44.92948" lon="5.57101">
        <ele>1089.1</ele>
        <time>2021-08-08T12:04:21Z</time>
      </trkpt>
      <trkpt lat="44.92944" lon="5.57102">
        <ele>1089.5</ele>
        <time>2021-08-08T12:04:22Z</time>
      </trkpt>
      <trkpt lat="44.92941" lon="5.57103">
        <ele>1089.7</ele>
        <time>2021-08-08T12:04:23Z</time>
      </trkpt>
      <trkpt lat="44.92934" lon="5.57104">
        <ele>1090.1</ele>
        <time>2021-08-08T12:04:25Z</time>
      </trkpt>
      <trkpt lat="44.92931" lon="5.57104">
        <ele>1090.3</ele>
        <time>2021-08-08T12:04:26Z</time>
      </trkpt>
      <trkpt lat="44.92928" lon="5.57105">
        <ele>1090.6</ele>
        <time>2021-08-08T12:04:28Z</time>
      </trkpt>
      <trkpt lat="44.92924" lon="5.57106">
        <ele>1090.9</ele>
        <time>2021-08-08T12:04:29Z</time>
      </trkpt>
      <trkpt lat="44.92921" lon="5.57107">
        <ele>1091.1</ele>
        <time>2021-08-08T12:04:30Z</time>
      </trkpt>
      <trkpt lat="44.92917" lon="5.57108">
        <ele>1091.4</ele>
        <time>2021-08-08T12:04:31Z</time>
      </trkpt>
      <trkpt lat="44.92912" lon="5.57111">
        <ele>1091.8</ele>
        <time>2021-08-08T12:04:33Z</time>
      </trkpt>
      <trkpt lat="44.92909" lon="5.57112">
        <ele>1092</ele>
        <time>2021-08-08T12:04:34Z</time>
      </trkpt>
      <trkpt lat="44.92906" lon="5.57113">
        <ele>1092.2</ele>
        <time>2021-08-08T12:04:35Z</time>
      </trkpt>
      <trkpt lat="44.92902" lon="5.57113">
        <ele>1092.4</ele>
        <time>2021-08-08T12:04:36Z</time>
      </trkpt>
      <trkpt lat="44.92899" lon="5.57114">
        <ele>1092.7</ele>
        <time>2021-08-08T12:04:37Z</time>
      </trkpt>
      <trkpt lat="44.92895" lon="5.57115">
        <ele>1093</ele>
        <time>2021-08-08T12:04:39Z</time>
      </trkpt>
      <trkpt lat="44.92891" lon="5.57116">
        <ele>1093.2</ele>
        <time>2021-08-08T12:04:40Z</time>
      </trkpt>
      <trkpt lat="44.92887" lon="5.57117">
        <ele>1093.4</ele>
        <time>2021-08-08T12:04:41Z</time>
      </trkpt>
      <trkpt lat="44.92884" lon="5.57118">
        <ele>1093.6</ele>
        <time>2021-08-08T12:04:43Z</time>
      </trkpt>
      <trkpt lat="44.9288" lon="5.57119">
        <ele>1093.8</ele>
        <time>2021-08-08T12:04:44Z</time>
      </trkpt>
      <trkpt lat="44.92876" lon="5.5712">
        <ele>1094</ele>
        <time>2021-08-08T12:04:45Z</time>
      </trkpt>
      <trkpt lat="44.92873" lon="5.57119">
        <ele>1094.2</ele>
        <time>2021-08-08T12:04:46Z</time>
      </trkpt>
      <trkpt lat="44.92869" lon="5.57119">
        <ele>1094.4</ele>
        <time>2021-08-08T12:04:47Z</time>
      </trkpt>
      <trkpt lat="44.92865" lon="5.57119">
        <ele>1094.6</ele>
        <time>2021-08-08T12:04:48Z</time>
      </trkpt>
      <trkpt lat="44.9286" lon="5.57118">
        <ele>1094.8</ele>
        <time>2021-08-08T12:04:50Z</time>
      </trkpt>
      <trkpt lat="44.92857" lon="5.57117">
        <ele>1094.9</ele>
        <time>2021-08-08T12:04:51Z</time>
      </trkpt>
      <trkpt lat="44.92852" lon="5.57116">
        <ele>1095.1</ele>
        <time>2021-08-08T12:04:52Z</time>
      </trkpt>
      <trkpt lat="44.92848" lon="5.57114">
        <ele>1095.3</ele>
        <time>2021-08-08T12:04:54Z</time>
      </trkpt>
      <trkpt lat="44.92843" lon="5.57113">
        <ele>1095.5</ele>
        <time>2021-08-08T12:04:55Z</time>
      </trkpt>
      <trkpt lat="44.92839" lon="5.57111">
        <ele>1095.7</ele>
        <time>2021-08-08T12:04:56Z</time>
      </trkpt>
      <trkpt lat="44.92836" lon="5.5711">
        <ele>1095.8</ele>
        <time>2021-08-08T12:04:57Z</time>
      </trkpt>
      <trkpt lat="44.92831" lon="5.57108">
        <ele>1096</ele>
        <time>2021-08-08T12:04:59Z</time>
      </trkpt>
      <trkpt lat="44.92828" lon="5.57106">
        <ele>1096.2</ele>
        <time>2021-08-08T12:05:01Z</time>
      </trkpt>
      <trkpt lat="44.92824" lon="5.57106">
        <ele>1096.3</ele>
        <time>2021-08-08T12:05:02Z</time>
      </trkpt>
      <trkpt lat="44.92821" lon="5.57106">
        <ele>1096.5</ele>
        <time>2021-08-08T12:05:03Z</time>
      </trkpt>
      <trkpt lat="44.92817" lon="5.57105">
        <ele>1096.6</ele>
        <time>2021-08-08T12:05:04Z</time>
      </trkpt>
      <trkpt lat="44.92813" lon="5.57103">
        <ele>1096.8</ele>
        <time>2021-08-08T12:05:05Z</time>
      </trkpt>
      <trkpt lat="44.9281" lon="5.57102">
        <ele>1097</ele>
        <time>2021-08-08T12:05:06Z</time>
      </trkpt>
      <trkpt lat="44.92807" lon="5.57101">
        <ele>1097.1</ele>
        <time>2021-08-08T12:05:07Z</time>
      </trkpt>
      <trkpt lat="44.92804" lon="5.57101">
        <ele>1097.3</ele>
        <time>2021-08-08T12:05:08Z</time>
      </trkpt>
      <trkpt lat="44.92798" lon="5.571">
        <ele>1097.6</ele>
        <time>2021-08-08T12:05:10Z</time>
      </trkpt>
      <trkpt lat="44.92793" lon="5.57099">
        <ele>1097.8</ele>
        <time>2021-08-08T12:05:11Z</time>
      </trkpt>
      <trkpt lat="44.92787" lon="5.57099">
        <ele>1098.1</ele>
        <time>2021-08-08T12:05:13Z</time>
      </trkpt>
      <trkpt lat="44.92783" lon="5.57099">
        <ele>1098.3</ele>
        <time>2021-08-08T12:05:14Z</time>
      </trkpt>
      <trkpt lat="44.92777" lon="5.57099">
        <ele>1098.6</ele>
        <time>2021-08-08T12:05:16Z</time>
      </trkpt>
      <trkpt lat="44.92772" lon="5.57098">
        <ele>1098.8</ele>
        <time>2021-08-08T12:05:18Z</time>
      </trkpt>
      <trkpt lat="44.92768" lon="5.57098">
        <ele>1099.1</ele>
        <time>2021-08-08T12:05:19Z</time>
      </trkpt>
      <trkpt lat="44.9276" lon="5.57097">
        <ele>1099.3</ele>
        <time>2021-08-08T12:05:20Z</time>
      </trkpt>
      <trkpt lat="44.92755" lon="5.57096">
        <ele>1099.5</ele>
        <time>2021-08-08T12:05:22Z</time>
      </trkpt>
      <trkpt lat="44.92751" lon="5.57094">
        <ele>1099.6</ele>
        <time>2021-08-08T12:05:23Z</time>
      </trkpt>
      <trkpt lat="44.92744" lon="5.5709">
        <ele>1099.9</ele>
        <time>2021-08-08T12:05:25Z</time>
      </trkpt>
      <trkpt lat="44.92738" lon="5.57088">
        <ele>1100.1</ele>
        <time>2021-08-08T12:05:26Z</time>
      </trkpt>
      <trkpt lat="44.92732" lon="5.57084">
        <ele>1100.3</ele>
        <time>2021-08-08T12:05:27Z</time>
      </trkpt>
      <trkpt lat="44.92729" lon="5.57082">
        <ele>1100.5</ele>
        <time>2021-08-08T12:05:29Z</time>
      </trkpt>
      <trkpt lat="44.92725" lon="5.57078">
        <ele>1100.7</ele>
        <time>2021-08-08T12:05:30Z</time>
      </trkpt>
      <trkpt lat="44.92722" lon="5.57075">
        <ele>1100.8</ele>
        <time>2021-08-08T12:05:31Z</time>
      </trkpt>
      <trkpt lat="44.92719" lon="5.57072">
        <ele>1101</ele>
        <time>2021-08-08T12:05:32Z</time>
      </trkpt>
      <trkpt lat="44.92716" lon="5.5707">
        <ele>1101.1</ele>
        <time>2021-08-08T12:05:33Z</time>
      </trkpt>
      <trkpt lat="44.92712" lon="5.57067">
        <ele>1101.3</ele>
        <time>2021-08-08T12:05:34Z</time>
      </trkpt>
      <trkpt lat="44.92708" lon="5.57065">
        <ele>1101.5</ele>
        <time>2021-08-08T12:05:36Z</time>
      </trkpt>
      <trkpt lat="44.92703" lon="5.57062">
        <ele>1101.7</ele>
        <time>2021-08-08T12:05:37Z</time>
      </trkpt>
      <trkpt lat="44.92697" lon="5.5706">
        <ele>1101.9</ele>
        <time>2021-08-08T12:05:38Z</time>
      </trkpt>
      <trkpt lat="44.92694" lon="5.57058">
        <ele>1102</ele>
        <time>2021-08-08T12:05:39Z</time>
      </trkpt>
      <trkpt lat="44.92691" lon="5.57056">
        <ele>1102.1</ele>
        <time>2021-08-08T12:05:40Z</time>
      </trkpt>
      <trkpt lat="44.92686" lon="5.57054">
        <ele>1102.2</ele>
        <time>2021-08-08T12:05:41Z</time>
      </trkpt>
      <trkpt lat="44.92681" lon="5.57051">
        <ele>1102.4</ele>
        <time>2021-08-08T12:05:43Z</time>
      </trkpt>
      <trkpt lat="44.92674" lon="5.57048">
        <ele>1102.6</ele>
        <time>2021-08-08T12:05:44Z</time>
      </trkpt>
      <trkpt lat="44.92669" lon="5.57046">
        <ele>1102.7</ele>
        <time>2021-08-08T12:05:46Z</time>
      </trkpt>
      <trkpt lat="44.92661" lon="5.57042">
        <ele>1103</ele>
        <time>2021-08-08T12:05:47Z</time>
      </trkpt>
      <trkpt lat="44.92656" lon="5.57041">
        <ele>1103.2</ele>
        <time>2021-08-08T12:05:48Z</time>
      </trkpt>
      <trkpt lat="44.92647" lon="5.57038">
        <ele>1103.5</ele>
        <time>2021-08-08T12:05:50Z</time>
      </trkpt>
      <trkpt lat="44.92642" lon="5.57036">
        <ele>1103.6</ele>
        <time>2021-08-08T12:05:51Z</time>
      </trkpt>
      <trkpt lat="44.92638" lon="5.57034">
        <ele>1103.8</ele>
        <time>2021-08-08T12:05:53Z</time>
      </trkpt>
      <trkpt lat="44.92633" lon="5.57031">
        <ele>1104</ele>
        <time>2021-08-08T12:05:54Z</time>
      </trkpt>
      <trkpt lat="44.92629" lon="5.57028">
        <ele>1104.2</ele>
        <time>2021-08-08T12:05:55Z</time>
      </trkpt>
      <trkpt lat="44.92624" lon="5.57026">
        <ele>1104.4</ele>
        <time>2021-08-08T12:05:56Z</time>
      </trkpt>
      <trkpt lat="44.9262" lon="5.57024">
        <ele>1104.5</ele>
        <time>2021-08-08T12:05:57Z</time>
      </trkpt>
      <trkpt lat="44.92616" lon="5.57022">
        <ele>1104.8</ele>
        <time>2021-08-08T12:05:59Z</time>
      </trkpt>
      <trkpt lat="44.92611" lon="5.57019">
        <ele>1105</ele>
        <time>2021-08-08T12:06:00Z</time>
      </trkpt>
      <trkpt lat="44.92607" lon="5.57016">
        <ele>1105.2</ele>
        <time>2021-08-08T12:06:01Z</time>
      </trkpt>
      <trkpt lat="44.92603" lon="5.57014">
        <ele>1105.4</ele>
        <time>2021-08-08T12:06:02Z</time>
      </trkpt>
      <trkpt lat="44.92599" lon="5.57012">
        <ele>1105.6</ele>
        <time>2021-08-08T12:06:04Z</time>
      </trkpt>
      <trkpt lat="44.92595" lon="5.57009">
        <ele>1105.8</ele>
        <time>2021-08-08T12:06:05Z</time>
      </trkpt>
      <trkpt lat="44.9259" lon="5.57006">
        <ele>1106</ele>
        <time>2021-08-08T12:06:06Z</time>
      </trkpt>
      <trkpt lat="44.92586" lon="5.57004">
        <ele>1106.2</ele>
        <time>2021-08-08T12:06:07Z</time>
      </trkpt>
      <trkpt lat="44.92583" lon="5.57002">
        <ele>1106.4</ele>
        <time>2021-08-08T12:06:08Z</time>
      </trkpt>
      <trkpt lat="44.92577" lon="5.56998">
        <ele>1106.7</ele>
        <time>2021-08-08T12:06:10Z</time>
      </trkpt>
      <trkpt lat="44.92573" lon="5.56996">
        <ele>1106.9</ele>
        <time>2021-08-08T12:06:11Z</time>
      </trkpt>
      <trkpt lat="44.9257" lon="5.56994">
        <ele>1107</ele>
        <time>2021-08-08T12:06:12Z</time>
      </trkpt>
      <trkpt lat="44.92563" lon="5.56991">
        <ele>1107.4</ele>
        <time>2021-08-08T12:06:14Z</time>
      </trkpt>
      <trkpt lat="44.92559" lon="5.56989">
        <ele>1107.6</ele>
        <time>2021-08-08T12:06:15Z</time>
      </trkpt>
      <trkpt lat="44.92554" lon="5.56986">
        <ele>1107.9</ele>
        <time>2021-08-08T12:06:17Z</time>
      </trkpt>
      <trkpt lat="44.92549" lon="5.56983">
        <ele>1108.1</ele>
        <time>2021-08-08T12:06:18Z</time>
      </trkpt>
      <trkpt lat="44.92545" lon="5.5698">
        <ele>1108.4</ele>
        <time>2021-08-08T12:06:19Z</time>
      </trkpt>
      <trkpt lat="44.92542" lon="5.56978">
        <ele>1108.6</ele>
        <time>2021-08-08T12:06:21Z</time>
      </trkpt>
      <trkpt lat="44.92536" lon="5.56973">
        <ele>1108.9</ele>
        <time>2021-08-08T12:06:22Z</time>
      </trkpt>
      <trkpt lat="44.92533" lon="5.5697">
        <ele>1109.1</ele>
        <time>2021-08-08T12:06:23Z</time>
      </trkpt>
      <trkpt lat="44.92528" lon="5.56963">
        <ele>1109.5</ele>
        <time>2021-08-08T12:06:25Z</time>
      </trkpt>
      <trkpt lat="44.92525" lon="5.56959">
        <ele>1109.7</ele>
        <time>2021-08-08T12:06:26Z</time>
      </trkpt>
      <trkpt lat="44.92522" lon="5.56956">
        <ele>1110</ele>
        <time>2021-08-08T12:06:27Z</time>
      </trkpt>
      <trkpt lat="44.92518" lon="5.56951">
        <ele>1110.2</ele>
        <time>2021-08-08T12:06:29Z</time>
      </trkpt>
      <trkpt lat="44.92515" lon="5.56948">
        <ele>1110.5</ele>
        <time>2021-08-08T12:06:30Z</time>
      </trkpt>
      <trkpt lat="44.92512" lon="5.56945">
        <ele>1110.6</ele>
        <time>2021-08-08T12:06:31Z</time>
      </trkpt>
      <trkpt lat="44.92508" lon="5.56942">
        <ele>1110.9</ele>
        <time>2021-08-08T12:06:32Z</time>
      </trkpt>
      <trkpt lat="44.92505" lon="5.56939">
        <ele>1111</ele>
        <time>2021-08-08T12:06:33Z</time>
      </trkpt>
      <trkpt lat="44.925" lon="5.56934">
        <ele>1111.2</ele>
        <time>2021-08-08T12:06:35Z</time>
      </trkpt>
      <trkpt lat="44.92494" lon="5.5693">
        <ele>1111.4</ele>
        <time>2021-08-08T12:06:37Z</time>
      </trkpt>
      <trkpt lat="44.92488" lon="5.56928">
        <ele>1111.6</ele>
        <time>2021-08-08T12:06:39Z</time>
      </trkpt>
      <trkpt lat="44.92484" lon="5.56928">
        <ele>1111.7</ele>
        <time>2021-08-08T12:06:40Z</time>
      </trkpt>
      <trkpt lat="44.92479" lon="5.56929">
        <ele>1111.8</ele>
        <time>2021-08-08T12:06:42Z</time>
      </trkpt>
      <trkpt lat="44.9247" lon="5.56931">
        <ele>1112</ele>
        <time>2021-08-08T12:06:43Z</time>
      </trkpt>
      <trkpt lat="44.92466" lon="5.56933">
        <ele>1112.1</ele>
        <time>2021-08-08T12:06:44Z</time>
      </trkpt>
      <trkpt lat="44.92461" lon="5.56937">
        <ele>1112.2</ele>
        <time>2021-08-08T12:06:46Z</time>
      </trkpt>
      <trkpt lat="44.92455" lon="5.5694">
        <ele>1112.4</ele>
        <time>2021-08-08T12:06:47Z</time>
      </trkpt>
      <trkpt lat="44.92452" lon="5.56943">
        <ele>1112.5</ele>
        <time>2021-08-08T12:06:48Z</time>
      </trkpt>
      <trkpt lat="44.92444" lon="5.5695">
        <ele>1112.8</ele>
        <time>2021-08-08T12:06:50Z</time>
      </trkpt>
      <trkpt lat="44.92439" lon="5.56956">
        <ele>1113</ele>
        <time>2021-08-08T12:06:52Z</time>
      </trkpt>
      <trkpt lat="44.92435" lon="5.56959">
        <ele>1113.1</ele>
        <time>2021-08-08T12:06:53Z</time>
      </trkpt>
      <trkpt lat="44.9243" lon="5.56964">
        <ele>1113.3</ele>
        <time>2021-08-08T12:06:54Z</time>
      </trkpt>
      <trkpt lat="44.92424" lon="5.56969">
        <ele>1113.6</ele>
        <time>2021-08-08T12:06:56Z</time>
      </trkpt>
      <trkpt lat="44.92418" lon="5.56973">
        <ele>1113.8</ele>
        <time>2021-08-08T12:06:57Z</time>
      </trkpt>
      <trkpt lat="44.92412" lon="5.56977">
        <ele>1114</ele>
        <time>2021-08-08T12:06:59Z</time>
      </trkpt>
      <trkpt lat="44.92408" lon="5.56979">
        <ele>1114.2</ele>
        <time>2021-08-08T12:07:00Z</time>
      </trkpt>
      <trkpt lat="44.92403" lon="5.56981">
        <ele>1114.4</ele>
        <time>2021-08-08T12:07:01Z</time>
      </trkpt>
      <trkpt lat="44.92395" lon="5.56984">
        <ele>1114.7</ele>
        <time>2021-08-08T12:07:03Z</time>
      </trkpt>
      <trkpt lat="44.92391" lon="5.56985">
        <ele>1114.9</ele>
        <time>2021-08-08T12:07:04Z</time>
      </trkpt>
      <trkpt lat="44.92387" lon="5.56986">
        <ele>1115.1</ele>
        <time>2021-08-08T12:07:05Z</time>
      </trkpt>
      <trkpt lat="44.92381" lon="5.56987">
        <ele>1115.4</ele>
        <time>2021-08-08T12:07:07Z</time>
      </trkpt>
      <trkpt lat="44.92377" lon="5.56988">
        <ele>1115.6</ele>
        <time>2021-08-08T12:07:08Z</time>
      </trkpt>
      <trkpt lat="44.92373" lon="5.56988">
        <ele>1115.8</ele>
        <time>2021-08-08T12:07:09Z</time>
      </trkpt>
      <trkpt lat="44.92369" lon="5.56989">
        <ele>1116</ele>
        <time>2021-08-08T12:07:10Z</time>
      </trkpt>
      <trkpt lat="44.92362" lon="5.56989">
        <ele>1116.4</ele>
        <time>2021-08-08T12:07:12Z</time>
      </trkpt>
      <trkpt lat="44.92359" lon="5.5699">
        <ele>1116.5</ele>
        <time>2021-08-08T12:07:13Z</time>
      </trkpt>
      <trkpt lat="44.92352" lon="5.5699">
        <ele>1116.9</ele>
        <time>2021-08-08T12:07:15Z</time>
      </trkpt>
      <trkpt lat="44.92348" lon="5.5699">
        <ele>1117.1</ele>
        <time>2021-08-08T12:07:17Z</time>
      </trkpt>
      <trkpt lat="44.92343" lon="5.5699">
        <ele>1117.4</ele>
        <time>2021-08-08T12:07:18Z</time>
      </trkpt>
      <trkpt lat="44.92339" lon="5.5699">
        <ele>1117.6</ele>
        <time>2021-08-08T12:07:19Z</time>
      </trkpt>
      <trkpt lat="44.92336" lon="5.56991">
        <ele>1117.8</ele>
        <time>2021-08-08T12:07:20Z</time>
      </trkpt>
      <trkpt lat="44.92331" lon="5.5699">
        <ele>1118.1</ele>
        <time>2021-08-08T12:07:22Z</time>
      </trkpt>
      <trkpt lat="44.92327" lon="5.56989">
        <ele>1118.3</ele>
        <time>2021-08-08T12:07:23Z</time>
      </trkpt>
      <trkpt lat="44.92323" lon="5.56989">
        <ele>1118.6</ele>
        <time>2021-08-08T12:07:24Z</time>
      </trkpt>
      <trkpt lat="44.9232" lon="5.56989">
        <ele>1118.7</ele>
        <time>2021-08-08T12:07:26Z</time>
      </trkpt>
      <trkpt lat="44.92315" lon="5.56987">
        <ele>1119</ele>
        <time>2021-08-08T12:07:27Z</time>
      </trkpt>
      <trkpt lat="44.92312" lon="5.56986">
        <ele>1119.2</ele>
        <time>2021-08-08T12:07:28Z</time>
      </trkpt>
      <trkpt lat="44.92309" lon="5.56985">
        <ele>1119.4</ele>
        <time>2021-08-08T12:07:29Z</time>
      </trkpt>
      <trkpt lat="44.92304" lon="5.56983">
        <ele>1119.6</ele>
        <time>2021-08-08T12:07:31Z</time>
      </trkpt>
      <trkpt lat="44.92301" lon="5.56981">
        <ele>1119.8</ele>
        <time>2021-08-08T12:07:32Z</time>
      </trkpt>
      <trkpt lat="44.92296" lon="5.56978">
        <ele>1120.1</ele>
        <time>2021-08-08T12:07:33Z</time>
      </trkpt>
      <trkpt lat="44.92293" lon="5.56974">
        <ele>1120.3</ele>
        <time>2021-08-08T12:07:34Z</time>
      </trkpt>
      <trkpt lat="44.92288" lon="5.5697">
        <ele>1120.5</ele>
        <time>2021-08-08T12:07:36Z</time>
      </trkpt>
      <trkpt lat="44.92285" lon="5.56968">
        <ele>1120.7</ele>
        <time>2021-08-08T12:07:37Z</time>
      </trkpt>
      <trkpt lat="44.92281" lon="5.56965">
        <ele>1120.8</ele>
        <time>2021-08-08T12:07:38Z</time>
      </trkpt>
      <trkpt lat="44.92277" lon="5.56963">
        <ele>1121</ele>
        <time>2021-08-08T12:07:39Z</time>
      </trkpt>
      <trkpt lat="44.92274" lon="5.56961">
        <ele>1121.2</ele>
        <time>2021-08-08T12:07:40Z</time>
      </trkpt>
      <trkpt lat="44.92271" lon="5.56959">
        <ele>1121.3</ele>
        <time>2021-08-08T12:07:41Z</time>
      </trkpt>
      <trkpt lat="44.92268" lon="5.56957">
        <ele>1121.4</ele>
        <time>2021-08-08T12:07:42Z</time>
      </trkpt>
      <trkpt lat="44.92263" lon="5.56955">
        <ele>1121.6</ele>
        <time>2021-08-08T12:07:44Z</time>
      </trkpt>
      <trkpt lat="44.92258" lon="5.56953">
        <ele>1121.8</ele>
        <time>2021-08-08T12:07:45Z</time>
      </trkpt>
      <trkpt lat="44.92255" lon="5.56951">
        <ele>1122</ele>
        <time>2021-08-08T12:07:46Z</time>
      </trkpt>
      <trkpt lat="44.92249" lon="5.56948">
        <ele>1122.3</ele>
        <time>2021-08-08T12:07:48Z</time>
      </trkpt>
      <trkpt lat="44.92244" lon="5.56946">
        <ele>1122.5</ele>
        <time>2021-08-08T12:07:49Z</time>
      </trkpt>
      <trkpt lat="44.92241" lon="5.56945">
        <ele>1122.7</ele>
        <time>2021-08-08T12:07:51Z</time>
      </trkpt>
      <trkpt lat="44.92236" lon="5.56942">
        <ele>1122.9</ele>
        <time>2021-08-08T12:07:52Z</time>
      </trkpt>
      <trkpt lat="44.92231" lon="5.5694">
        <ele>1123.2</ele>
        <time>2021-08-08T12:07:53Z</time>
      </trkpt>
      <trkpt lat="44.92227" lon="5.56938">
        <ele>1123.3</ele>
        <time>2021-08-08T12:07:54Z</time>
      </trkpt>
      <trkpt lat="44.92224" lon="5.56937">
        <ele>1123.5</ele>
        <time>2021-08-08T12:07:55Z</time>
      </trkpt>
      <trkpt lat="44.9222" lon="5.56935">
        <ele>1123.6</ele>
        <time>2021-08-08T12:07:56Z</time>
      </trkpt>
      <trkpt lat="44.92217" lon="5.56934">
        <ele>1123.8</ele>
        <time>2021-08-08T12:07:58Z</time>
      </trkpt>
      <trkpt lat="44.92212" lon="5.56932">
        <ele>1124</ele>
        <time>2021-08-08T12:07:59Z</time>
      </trkpt>
      <trkpt lat="44.92208" lon="5.5693">
        <ele>1124.2</ele>
        <time>2021-08-08T12:08:00Z</time>
      </trkpt>
      <trkpt lat="44.92204" lon="5.56928">
        <ele>1124.4</ele>
        <time>2021-08-08T12:08:01Z</time>
      </trkpt>
      <trkpt lat="44.922" lon="5.56926">
        <ele>1124.6</ele>
        <time>2021-08-08T12:08:02Z</time>
      </trkpt>
      <trkpt lat="44.92196" lon="5.56925">
        <ele>1124.8</ele>
        <time>2021-08-08T12:08:03Z</time>
      </trkpt>
      <trkpt lat="44.92193" lon="5.56923">
        <ele>1125</ele>
        <time>2021-08-08T12:08:05Z</time>
      </trkpt>
      <trkpt lat="44.92188" lon="5.5692">
        <ele>1125.2</ele>
        <time>2021-08-08T12:08:06Z</time>
      </trkpt>
      <trkpt lat="44.92185" lon="5.56918">
        <ele>1125.4</ele>
        <time>2021-08-08T12:08:07Z</time>
      </trkpt>
      <trkpt lat="44.92182" lon="5.56916">
        <ele>1125.6</ele>
        <time>2021-08-08T12:08:08Z</time>
      </trkpt>
      <trkpt lat="44.92178" lon="5.56914">
        <ele>1125.8</ele>
        <time>2021-08-08T12:08:09Z</time>
      </trkpt>
      <trkpt lat="44.92172" lon="5.5691">
        <ele>1126.1</ele>
        <time>2021-08-08T12:08:11Z</time>
      </trkpt>
      <trkpt lat="44.92167" lon="5.56907">
        <ele>1126.4</ele>
        <time>2021-08-08T12:08:13Z</time>
      </trkpt>
      <trkpt lat="44.92164" lon="5.56905">
        <ele>1126.5</ele>
        <time>2021-08-08T12:08:14Z</time>
      </trkpt>
      <trkpt lat="44.92157" lon="5.56902">
        <ele>1126.9</ele>
        <time>2021-08-08T12:08:16Z</time>
      </trkpt>
      <trkpt lat="44.92154" lon="5.56901">
        <ele>1127.1</ele>
        <time>2021-08-08T12:08:17Z</time>
      </trkpt>
      <trkpt lat="44.92151" lon="5.56899">
        <ele>1127.3</ele>
        <time>2021-08-08T12:08:18Z</time>
      </trkpt>
      <trkpt lat="44.92145" lon="5.56896">
        <ele>1127.6</ele>
        <time>2021-08-08T12:08:20Z</time>
      </trkpt>
      <trkpt lat="44.92141" lon="5.56895">
        <ele>1127.8</ele>
        <time>2021-08-08T12:08:21Z</time>
      </trkpt>
      <trkpt lat="44.92138" lon="5.56894">
        <ele>1128.1</ele>
        <time>2021-08-08T12:08:22Z</time>
      </trkpt>
      <trkpt lat="44.92133" lon="5.56894">
        <ele>1128.4</ele>
        <time>2021-08-08T12:08:24Z</time>
      </trkpt>
      <trkpt lat="44.92129" lon="5.56894">
        <ele>1128.7</ele>
        <time>2021-08-08T12:08:25Z</time>
      </trkpt>
      <trkpt lat="44.92125" lon="5.56893">
        <ele>1129</ele>
        <time>2021-08-08T12:08:27Z</time>
      </trkpt>
      <trkpt lat="44.92122" lon="5.56894">
        <ele>1129.2</ele>
        <time>2021-08-08T12:08:28Z</time>
      </trkpt>
      <trkpt lat="44.92118" lon="5.56894">
        <ele>1129.4</ele>
        <time>2021-08-08T12:08:29Z</time>
      </trkpt>
      <trkpt lat="44.92114" lon="5.56895">
        <ele>1129.7</ele>
        <time>2021-08-08T12:08:30Z</time>
      </trkpt>
      <trkpt lat="44.92111" lon="5.56897">
        <ele>1130</ele>
        <time>2021-08-08T12:08:32Z</time>
      </trkpt>
      <trkpt lat="44.92107" lon="5.56899">
        <ele>1130.3</ele>
        <time>2021-08-08T12:08:33Z</time>
      </trkpt>
      <trkpt lat="44.92104" lon="5.569">
        <ele>1130.5</ele>
        <time>2021-08-08T12:08:35Z</time>
      </trkpt>
      <trkpt lat="44.92101" lon="5.56903">
        <ele>1130.7</ele>
        <time>2021-08-08T12:08:36Z</time>
      </trkpt>
      <trkpt lat="44.92098" lon="5.56905">
        <ele>1130.9</ele>
        <time>2021-08-08T12:08:37Z</time>
      </trkpt>
      <trkpt lat="44.92095" lon="5.56908">
        <ele>1131.1</ele>
        <time>2021-08-08T12:08:38Z</time>
      </trkpt>
      <trkpt lat="44.92091" lon="5.56911">
        <ele>1131.4</ele>
        <time>2021-08-08T12:08:39Z</time>
      </trkpt>
      <trkpt lat="44.92088" lon="5.56915">
        <ele>1131.6</ele>
        <time>2021-08-08T12:08:41Z</time>
      </trkpt>
      <trkpt lat="44.92084" lon="5.5692">
        <ele>1131.9</ele>
        <time>2021-08-08T12:08:42Z</time>
      </trkpt>
      <trkpt lat="44.92081" lon="5.56923">
        <ele>1132.1</ele>
        <time>2021-08-08T12:08:43Z</time>
      </trkpt>
      <trkpt lat="44.92079" lon="5.56927">
        <ele>1132.3</ele>
        <time>2021-08-08T12:08:45Z</time>
      </trkpt>
      <trkpt lat="44.92075" lon="5.56932">
        <ele>1132.5</ele>
        <time>2021-08-08T12:08:46Z</time>
      </trkpt>
      <trkpt lat="44.92072" lon="5.56937">
        <ele>1132.7</ele>
        <time>2021-08-08T12:08:48Z</time>
      </trkpt>
      <trkpt lat="44.92069" lon="5.5694">
        <ele>1132.8</ele>
        <time>2021-08-08T12:08:49Z</time>
      </trkpt>
      <trkpt lat="44.92065" lon="5.56946">
        <ele>1133</ele>
        <time>2021-08-08T12:08:50Z</time>
      </trkpt>
      <trkpt lat="44.92061" lon="5.56951">
        <ele>1133.1</ele>
        <time>2021-08-08T12:08:51Z</time>
      </trkpt>
      <trkpt lat="44.92058" lon="5.56955">
        <ele>1133.2</ele>
        <time>2021-08-08T12:08:52Z</time>
      </trkpt>
      <trkpt lat="44.92055" lon="5.5696">
        <ele>1133.4</ele>
        <time>2021-08-08T12:08:53Z</time>
      </trkpt>
      <trkpt lat="44.92052" lon="5.56965">
        <ele>1133.5</ele>
        <time>2021-08-08T12:08:55Z</time>
      </trkpt>
      <trkpt lat="44.92047" lon="5.56971">
        <ele>1133.6</ele>
        <time>2021-08-08T12:08:56Z</time>
      </trkpt>
      <trkpt lat="44.92043" lon="5.56978">
        <ele>1133.8</ele>
        <time>2021-08-08T12:08:57Z</time>
      </trkpt>
      <trkpt lat="44.92037" lon="5.56985">
        <ele>1134</ele>
        <time>2021-08-08T12:08:58Z</time>
      </trkpt>
      <trkpt lat="44.92034" lon="5.5699">
        <ele>1134.1</ele>
        <time>2021-08-08T12:09:00Z</time>
      </trkpt>
      <trkpt lat="44.92028" lon="5.57">
        <ele>1134.3</ele>
        <time>2021-08-08T12:09:02Z</time>
      </trkpt>
      <trkpt lat="44.9202" lon="5.57011">
        <ele>1134.6</ele>
        <time>2021-08-08T12:09:04Z</time>
      </trkpt>
      <trkpt lat="44.92017" lon="5.57017">
        <ele>1134.7</ele>
        <time>2021-08-08T12:09:06Z</time>
      </trkpt>
      <trkpt lat="44.92009" lon="5.57028">
        <ele>1135.1</ele>
        <time>2021-08-08T12:09:07Z</time>
      </trkpt>
      <trkpt lat="44.92005" lon="5.57033">
        <ele>1135.2</ele>
        <time>2021-08-08T12:09:08Z</time>
      </trkpt>
      <trkpt lat="44.91998" lon="5.57044">
        <ele>1135.5</ele>
        <time>2021-08-08T12:09:10Z</time>
      </trkpt>
      <trkpt lat="44.91994" lon="5.57049">
        <ele>1135.6</ele>
        <time>2021-08-08T12:09:12Z</time>
      </trkpt>
      <trkpt lat="44.91985" lon="5.57057">
        <ele>1135.9</ele>
        <time>2021-08-08T12:09:14Z</time>
      </trkpt>
      <trkpt lat="44.91972" lon="5.57067">
        <ele>1136.4</ele>
        <time>2021-08-08T12:09:16Z</time>
      </trkpt>
      <trkpt lat="44.91963" lon="5.57074">
        <ele>1136.7</ele>
        <time>2021-08-08T12:09:18Z</time>
      </trkpt>
      <trkpt lat="44.91954" lon="5.57081">
        <ele>1137</ele>
        <time>2021-08-08T12:09:20Z</time>
      </trkpt>
      <trkpt lat="44.91949" lon="5.57083">
        <ele>1137.1</ele>
        <time>2021-08-08T12:09:21Z</time>
      </trkpt>
      <trkpt lat="44.91939" lon="5.57084">
        <ele>1137.3</ele>
        <time>2021-08-08T12:09:24Z</time>
      </trkpt>
      <trkpt lat="44.91935" lon="5.57084">
        <ele>1137.4</ele>
        <time>2021-08-08T12:09:25Z</time>
      </trkpt>
      <trkpt lat="44.91931" lon="5.57083">
        <ele>1137.5</ele>
        <time>2021-08-08T12:09:26Z</time>
      </trkpt>
      <trkpt lat="44.91924" lon="5.57078">
        <ele>1137.6</ele>
        <time>2021-08-08T12:09:27Z</time>
      </trkpt>
      <trkpt lat="44.91917" lon="5.57071">
        <ele>1137.8</ele>
        <time>2021-08-08T12:09:30Z</time>
      </trkpt>
      <trkpt lat="44.91912" lon="5.57064">
        <ele>1137.8</ele>
        <time>2021-08-08T12:09:31Z</time>
      </trkpt>
      <trkpt lat="44.91909" lon="5.57059">
        <ele>1137.9</ele>
        <time>2021-08-08T12:09:32Z</time>
      </trkpt>
      <trkpt lat="44.91907" lon="5.57052">
        <ele>1137.9</ele>
        <time>2021-08-08T12:09:33Z</time>
      </trkpt>
      <trkpt lat="44.91906" lon="5.57043">
        <ele>1138</ele>
        <time>2021-08-08T12:09:35Z</time>
      </trkpt>
      <trkpt lat="44.91905" lon="5.57036">
        <ele>1138</ele>
        <time>2021-08-08T12:09:36Z</time>
      </trkpt>
      <trkpt lat="44.91905" lon="5.57027">
        <ele>1138.1</ele>
        <time>2021-08-08T12:09:37Z</time>
      </trkpt>
      <trkpt lat="44.91905" lon="5.57015">
        <ele>1138.2</ele>
        <time>2021-08-08T12:09:39Z</time>
      </trkpt>
      <trkpt lat="44.91905" lon="5.57009">
        <ele>1138.2</ele>
        <time>2021-08-08T12:09:40Z</time>
      </trkpt>
      <trkpt lat="44.91904" lon="5.57001">
        <ele>1138.3</ele>
        <time>2021-08-08T12:09:41Z</time>
      </trkpt>
      <trkpt lat="44.91904" lon="5.56993">
        <ele>1138.3</ele>
        <time>2021-08-08T12:09:43Z</time>
      </trkpt>
      <trkpt lat="44.91902" lon="5.56981">
        <ele>1138.5</ele>
        <time>2021-08-08T12:09:44Z</time>
      </trkpt>
      <trkpt lat="44.91901" lon="5.56974">
        <ele>1138.6</ele>
        <time>2021-08-08T12:09:46Z</time>
      </trkpt>
      <trkpt lat="44.91898" lon="5.56963">
        <ele>1138.7</ele>
        <time>2021-08-08T12:09:48Z</time>
      </trkpt>
      <trkpt lat="44.91891" lon="5.56954">
        <ele>1138.9</ele>
        <time>2021-08-08T12:09:49Z</time>
      </trkpt>
      <trkpt lat="44.91887" lon="5.56949">
        <ele>1139</ele>
        <time>2021-08-08T12:09:50Z</time>
      </trkpt>
      <trkpt lat="44.91879" lon="5.56942">
        <ele>1139.2</ele>
        <time>2021-08-08T12:09:53Z</time>
      </trkpt>
      <trkpt lat="44.9187" lon="5.56935">
        <ele>1139.4</ele>
        <time>2021-08-08T12:09:54Z</time>
      </trkpt>
      <trkpt lat="44.91865" lon="5.56931">
        <ele>1139.6</ele>
        <time>2021-08-08T12:09:55Z</time>
      </trkpt>
      <trkpt lat="44.91861" lon="5.56927">
        <ele>1139.7</ele>
        <time>2021-08-08T12:09:56Z</time>
      </trkpt>
      <trkpt lat="44.91856" lon="5.56924">
        <ele>1139.9</ele>
        <time>2021-08-08T12:09:57Z</time>
      </trkpt>
      <trkpt lat="44.91846" lon="5.56919">
        <ele>1140.1</ele>
        <time>2021-08-08T12:09:59Z</time>
      </trkpt>
      <trkpt lat="44.91842" lon="5.56915">
        <ele>1140.3</ele>
        <time>2021-08-08T12:10:00Z</time>
      </trkpt>
      <trkpt lat="44.91833" lon="5.56907">
        <ele>1140.6</ele>
        <time>2021-08-08T12:10:02Z</time>
      </trkpt>
      <trkpt lat="44.9183" lon="5.56902">
        <ele>1140.7</ele>
        <time>2021-08-08T12:10:04Z</time>
      </trkpt>
      <trkpt lat="44.91825" lon="5.56891">
        <ele>1141</ele>
        <time>2021-08-08T12:10:05Z</time>
      </trkpt>
      <trkpt lat="44.91822" lon="5.56888">
        <ele>1141.1</ele>
        <time>2021-08-08T12:10:06Z</time>
      </trkpt>
      <trkpt lat="44.91815" lon="5.56882">
        <ele>1141.4</ele>
        <time>2021-08-08T12:10:09Z</time>
      </trkpt>
      <trkpt lat="44.91813" lon="5.56878">
        <ele>1141.5</ele>
        <time>2021-08-08T12:10:10Z</time>
      </trkpt>
      <trkpt lat="44.91809" lon="5.56872">
        <ele>1141.7</ele>
        <time>2021-08-08T12:10:11Z</time>
      </trkpt>
      <trkpt lat="44.91804" lon="5.56872">
        <ele>1141.8</ele>
        <time>2021-08-08T12:10:12Z</time>
      </trkpt>
      <trkpt lat="44.918" lon="5.56869">
        <ele>1141.9</ele>
        <time>2021-08-08T12:10:13Z</time>
      </trkpt>
      <trkpt lat="44.91795" lon="5.56866">
        <ele>1142</ele>
        <time>2021-08-08T12:10:14Z</time>
      </trkpt>
      <trkpt lat="44.91788" lon="5.56862">
        <ele>1142.1</ele>
        <time>2021-08-08T12:10:16Z</time>
      </trkpt>
      <trkpt lat="44.91783" lon="5.5686">
        <ele>1142.2</ele>
        <time>2021-08-08T12:10:17Z</time>
      </trkpt>
      <trkpt lat="44.91773" lon="5.56859">
        <ele>1142.4</ele>
        <time>2021-08-08T12:10:18Z</time>
      </trkpt>
      <trkpt lat="44.91767" lon="5.56859">
        <ele>1142.5</ele>
        <time>2021-08-08T12:10:19Z</time>
      </trkpt>
      <trkpt lat="44.91757" lon="5.56861">
        <ele>1142.6</ele>
        <time>2021-08-08T12:10:22Z</time>
      </trkpt>
      <trkpt lat="44.91747" lon="5.56863">
        <ele>1142.8</ele>
        <time>2021-08-08T12:10:23Z</time>
      </trkpt>
      <trkpt lat="44.91741" lon="5.56864">
        <ele>1142.9</ele>
        <time>2021-08-08T12:10:24Z</time>
      </trkpt>
      <trkpt lat="44.91731" lon="5.56863">
        <ele>1143.1</ele>
        <time>2021-08-08T12:10:27Z</time>
      </trkpt>
      <trkpt lat="44.9172" lon="5.56862">
        <ele>1143.3</ele>
        <time>2021-08-08T12:10:28Z</time>
      </trkpt>
      <trkpt lat="44.9171" lon="5.56861">
        <ele>1143.5</ele>
        <time>2021-08-08T12:10:30Z</time>
      </trkpt>
      <trkpt lat="44.917" lon="5.56859">
        <ele>1143.8</ele>
        <time>2021-08-08T12:10:33Z</time>
      </trkpt>
      <trkpt lat="44.91689" lon="5.56857">
        <ele>1144</ele>
        <time>2021-08-08T12:10:34Z</time>
      </trkpt>
      <trkpt lat="44.91679" lon="5.56853">
        <ele>1144.2</ele>
        <time>2021-08-08T12:10:36Z</time>
      </trkpt>
      <trkpt lat="44.91669" lon="5.56851">
        <ele>1144.5</ele>
        <time>2021-08-08T12:10:38Z</time>
      </trkpt>
      <trkpt lat="44.91658" lon="5.56848">
        <ele>1144.7</ele>
        <time>2021-08-08T12:10:40Z</time>
      </trkpt>
      <trkpt lat="44.91649" lon="5.56843">
        <ele>1145</ele>
        <time>2021-08-08T12:10:42Z</time>
      </trkpt>
      <trkpt lat="44.91644" lon="5.56841">
        <ele>1145.1</ele>
        <time>2021-08-08T12:10:44Z</time>
      </trkpt>
      <trkpt lat="44.9163" lon="5.56834">
        <ele>1145.5</ele>
        <time>2021-08-08T12:10:46Z</time>
      </trkpt>
      <trkpt lat="44.91625" lon="5.56832">
        <ele>1145.6</ele>
        <time>2021-08-08T12:10:48Z</time>
      </trkpt>
      <trkpt lat="44.91616" lon="5.56827">
        <ele>1145.8</ele>
        <time>2021-08-08T12:10:49Z</time>
      </trkpt>
      <trkpt lat="44.91611" lon="5.56825">
        <ele>1146</ele>
        <time>2021-08-08T12:10:50Z</time>
      </trkpt>
      <trkpt lat="44.91603" lon="5.5682">
        <ele>1146.2</ele>
        <time>2021-08-08T12:10:52Z</time>
      </trkpt>
      <trkpt lat="44.91598" lon="5.56817">
        <ele>1146.3</ele>
        <time>2021-08-08T12:10:53Z</time>
      </trkpt>
      <trkpt lat="44.91594" lon="5.56815">
        <ele>1146.4</ele>
        <time>2021-08-08T12:10:55Z</time>
      </trkpt>
      <trkpt lat="44.91585" lon="5.56811">
        <ele>1146.7</ele>
        <time>2021-08-08T12:10:56Z</time>
      </trkpt>
      <trkpt lat="44.9158" lon="5.5681">
        <ele>1146.8</ele>
        <time>2021-08-08T12:10:58Z</time>
      </trkpt>
      <trkpt lat="44.91571" lon="5.56807">
        <ele>1147</ele>
        <time>2021-08-08T12:10:59Z</time>
      </trkpt>
      <trkpt lat="44.91561" lon="5.56805">
        <ele>1147.2</ele>
        <time>2021-08-08T12:11:01Z</time>
      </trkpt>
      <trkpt lat="44.91557" lon="5.56804">
        <ele>1147.3</ele>
        <time>2021-08-08T12:11:03Z</time>
      </trkpt>
      <trkpt lat="44.91548" lon="5.56803">
        <ele>1147.4</ele>
        <time>2021-08-08T12:11:04Z</time>
      </trkpt>
      <trkpt lat="44.91537" lon="5.56801">
        <ele>1147.6</ele>
        <time>2021-08-08T12:11:06Z</time>
      </trkpt>
      <trkpt lat="44.91526" lon="5.568">
        <ele>1147.7</ele>
        <time>2021-08-08T12:11:08Z</time>
      </trkpt>
      <trkpt lat="44.91521" lon="5.568">
        <ele>1147.8</ele>
        <time>2021-08-08T12:11:10Z</time>
      </trkpt>
      <trkpt lat="44.9151" lon="5.568">
        <ele>1147.9</ele>
        <time>2021-08-08T12:11:12Z</time>
      </trkpt>
      <trkpt lat="44.915" lon="5.56801">
        <ele>1148</ele>
        <time>2021-08-08T12:11:13Z</time>
      </trkpt>
      <trkpt lat="44.91485" lon="5.56805">
        <ele>1148.2</ele>
        <time>2021-08-08T12:11:16Z</time>
      </trkpt>
      <trkpt lat="44.9147" lon="5.56806">
        <ele>1148.5</ele>
        <time>2021-08-08T12:11:19Z</time>
      </trkpt>
      <trkpt lat="44.91461" lon="5.56809">
        <ele>1148.7</ele>
        <time>2021-08-08T12:11:22Z</time>
      </trkpt>
      <trkpt lat="44.91451" lon="5.56811">
        <ele>1148.9</ele>
        <time>2021-08-08T12:11:23Z</time>
      </trkpt>
      <trkpt lat="44.91446" lon="5.56812">
        <ele>1149</ele>
        <time>2021-08-08T12:11:25Z</time>
      </trkpt>
      <trkpt lat="44.91434" lon="5.56814">
        <ele>1149.2</ele>
        <time>2021-08-08T12:11:27Z</time>
      </trkpt>
      <trkpt lat="44.91424" lon="5.56816">
        <ele>1149.5</ele>
        <time>2021-08-08T12:11:28Z</time>
      </trkpt>
      <trkpt lat="44.91414" lon="5.56818">
        <ele>1149.8</ele>
        <time>2021-08-08T12:11:30Z</time>
      </trkpt>
      <trkpt lat="44.91409" lon="5.56818">
        <ele>1149.9</ele>
        <time>2021-08-08T12:11:31Z</time>
      </trkpt>
      <trkpt lat="44.91393" lon="5.56822">
        <ele>1150.3</ele>
        <time>2021-08-08T12:11:34Z</time>
      </trkpt>
      <trkpt lat="44.91387" lon="5.56822">
        <ele>1150.5</ele>
        <time>2021-08-08T12:11:35Z</time>
      </trkpt>
      <trkpt lat="44.91377" lon="5.56824">
        <ele>1150.8</ele>
        <time>2021-08-08T12:11:37Z</time>
      </trkpt>
      <trkpt lat="44.91372" lon="5.56825">
        <ele>1150.9</ele>
        <time>2021-08-08T12:11:38Z</time>
      </trkpt>
      <trkpt lat="44.91367" lon="5.56825">
        <ele>1151</ele>
        <time>2021-08-08T12:11:40Z</time>
      </trkpt>
      <trkpt lat="44.91358" lon="5.56827">
        <ele>1151.3</ele>
        <time>2021-08-08T12:11:41Z</time>
      </trkpt>
      <trkpt lat="44.9135" lon="5.56831">
        <ele>1151.6</ele>
        <time>2021-08-08T12:11:43Z</time>
      </trkpt>
      <trkpt lat="44.91346" lon="5.56833">
        <ele>1151.7</ele>
        <time>2021-08-08T12:11:44Z</time>
      </trkpt>
      <trkpt lat="44.91335" lon="5.56835">
        <ele>1152</ele>
        <time>2021-08-08T12:11:46Z</time>
      </trkpt>
      <trkpt lat="44.91327" lon="5.56838">
        <ele>1152.3</ele>
        <time>2021-08-08T12:11:49Z</time>
      </trkpt>
      <trkpt lat="44.91317" lon="5.56841">
        <ele>1152.6</ele>
        <time>2021-08-08T12:11:50Z</time>
      </trkpt>
      <trkpt lat="44.91312" lon="5.56842">
        <ele>1152.7</ele>
        <time>2021-08-08T12:11:52Z</time>
      </trkpt>
      <trkpt lat="44.91305" lon="5.56843">
        <ele>1153</ele>
        <time>2021-08-08T12:11:53Z</time>
      </trkpt>
      <trkpt lat="44.91296" lon="5.56844">
        <ele>1153.3</ele>
        <time>2021-08-08T12:11:55Z</time>
      </trkpt>
      <trkpt lat="44.91291" lon="5.56845">
        <ele>1153.5</ele>
        <time>2021-08-08T12:11:56Z</time>
      </trkpt>
      <trkpt lat="44.91282" lon="5.56847">
        <ele>1153.8</ele>
        <time>2021-08-08T12:11:59Z</time>
      </trkpt>
      <trkpt lat="44.91284" lon="5.56849">
        <ele>1153.8</ele>
        <time>2021-08-08T12:12:00Z</time>
      </trkpt>
      <trkpt lat="44.91281" lon="5.56842">
        <ele>1154.1</ele>
        <time>2021-08-08T12:12:01Z</time>
      </trkpt>
      <trkpt lat="44.91277" lon="5.56831">
        <ele>1154</ele>
        <time>2021-08-08T12:12:02Z</time>
      </trkpt>
      <trkpt lat="44.91276" lon="5.56823">
        <ele>1154</ele>
        <time>2021-08-08T12:12:03Z</time>
      </trkpt>
      <trkpt lat="44.91274" lon="5.56813">
        <ele>1153.9</ele>
        <time>2021-08-08T12:12:05Z</time>
      </trkpt>
      <trkpt lat="44.91272" lon="5.56803">
        <ele>1153.9</ele>
        <time>2021-08-08T12:12:06Z</time>
      </trkpt>
      <trkpt lat="44.91271" lon="5.56797">
        <ele>1153.9</ele>
        <time>2021-08-08T12:12:08Z</time>
      </trkpt>
      <trkpt lat="44.91269" lon="5.56789">
        <ele>1154</ele>
        <time>2021-08-08T12:12:09Z</time>
      </trkpt>
      <trkpt lat="44.91268" lon="5.56783">
        <ele>1154</ele>
        <time>2021-08-08T12:12:10Z</time>
      </trkpt>
      <trkpt lat="44.91266" lon="5.56774">
        <ele>1154.1</ele>
        <time>2021-08-08T12:12:11Z</time>
      </trkpt>
      <trkpt lat="44.91265" lon="5.56767">
        <ele>1154.2</ele>
        <time>2021-08-08T12:12:12Z</time>
      </trkpt>
      <trkpt lat="44.91263" lon="5.56759">
        <ele>1154.3</ele>
        <time>2021-08-08T12:12:14Z</time>
      </trkpt>
      <trkpt lat="44.91261" lon="5.56751">
        <ele>1154.4</ele>
        <time>2021-08-08T12:12:15Z</time>
      </trkpt>
      <trkpt lat="44.91259" lon="5.56745">
        <ele>1154.5</ele>
        <time>2021-08-08T12:12:16Z</time>
      </trkpt>
      <trkpt lat="44.91256" lon="5.5674">
        <ele>1154.6</ele>
        <time>2021-08-08T12:12:18Z</time>
      </trkpt>
      <trkpt lat="44.91254" lon="5.56733">
        <ele>1154.8</ele>
        <time>2021-08-08T12:12:19Z</time>
      </trkpt>
      <trkpt lat="44.91251" lon="5.56728">
        <ele>1154.9</ele>
        <time>2021-08-08T12:12:20Z</time>
      </trkpt>
      <trkpt lat="44.91249" lon="5.56724">
        <ele>1155</ele>
        <time>2021-08-08T12:12:21Z</time>
      </trkpt>
      <trkpt lat="44.91244" lon="5.56717">
        <ele>1155.2</ele>
        <time>2021-08-08T12:12:23Z</time>
      </trkpt>
      <trkpt lat="44.91241" lon="5.56713">
        <ele>1155.3</ele>
        <time>2021-08-08T12:12:24Z</time>
      </trkpt>
      <trkpt lat="44.91238" lon="5.56706">
        <ele>1155.5</ele>
        <time>2021-08-08T12:12:26Z</time>
      </trkpt>
      <trkpt lat="44.91235" lon="5.56701">
        <ele>1155.7</ele>
        <time>2021-08-08T12:12:27Z</time>
      </trkpt>
      <trkpt lat="44.91232" lon="5.56695">
        <ele>1155.8</ele>
        <time>2021-08-08T12:12:28Z</time>
      </trkpt>
      <trkpt lat="44.91227" lon="5.56687">
        <ele>1156</ele>
        <time>2021-08-08T12:12:30Z</time>
      </trkpt>
      <trkpt lat="44.91224" lon="5.5668">
        <ele>1156.2</ele>
        <time>2021-08-08T12:12:32Z</time>
      </trkpt>
      <trkpt lat="44.9122" lon="5.56674">
        <ele>1156.4</ele>
        <time>2021-08-08T12:12:33Z</time>
      </trkpt>
      <trkpt lat="44.91215" lon="5.56666">
        <ele>1156.6</ele>
        <time>2021-08-08T12:12:35Z</time>
      </trkpt>
      <trkpt lat="44.91211" lon="5.5666">
        <ele>1156.8</ele>
        <time>2021-08-08T12:12:37Z</time>
      </trkpt>
      <trkpt lat="44.91208" lon="5.56655">
        <ele>1157.1</ele>
        <time>2021-08-08T12:12:39Z</time>
      </trkpt>
      <trkpt lat="44.91206" lon="5.56651">
        <ele>1157.2</ele>
        <time>2021-08-08T12:12:40Z</time>
      </trkpt>
      <trkpt lat="44.91202" lon="5.56645">
        <ele>1157.5</ele>
        <time>2021-08-08T12:12:41Z</time>
      </trkpt>
      <trkpt lat="44.91198" lon="5.56644">
        <ele>1157.6</ele>
        <time>2021-08-08T12:12:42Z</time>
      </trkpt>
      <trkpt lat="44.91195" lon="5.56642">
        <ele>1157.8</ele>
        <time>2021-08-08T12:12:43Z</time>
      </trkpt>
      <trkpt lat="44.91194" lon="5.56637">
        <ele>1157.9</ele>
        <time>2021-08-08T12:12:44Z</time>
      </trkpt>
      <trkpt lat="44.91194" lon="5.56636">
        <ele>1158</ele>
        <time>2021-08-08T12:12:45Z</time>
      </trkpt>
      <trkpt lat="44.91194" lon="5.56636">
        <ele>1158</ele>
        <time>2021-08-08T12:12:47Z</time>
      </trkpt>
      <trkpt lat="44.91195" lon="5.56637">
        <ele>1158</ele>
        <time>2021-08-08T12:12:48Z</time>
      </trkpt>
      <trkpt lat="44.91195" lon="5.56638">
        <ele>1158.1</ele>
        <time>2021-08-08T12:12:50Z</time>
      </trkpt>
      <trkpt lat="44.91196" lon="5.56638">
        <ele>1158.1</ele>
        <time>2021-08-08T12:12:51Z</time>
      </trkpt>
      <trkpt lat="44.91196" lon="5.56639">
        <ele>1158.1</ele>
        <time>2021-08-08T12:12:52Z</time>
      </trkpt>
      <trkpt lat="44.91196" lon="5.56639">
        <ele>1158.1</ele>
        <time>2021-08-08T12:12:54Z</time>
      </trkpt>
      <trkpt lat="44.91196" lon="5.56639">
        <ele>1158.1</ele>
        <time>2021-08-08T12:12:56Z</time>
      </trkpt>
      <trkpt lat="44.91194" lon="5.56642">
        <ele>1158.2</ele>
        <time>2021-08-08T12:13:23Z</time>
      </trkpt>
      <trkpt lat="44.91191" lon="5.56636">
        <ele>1158.5</ele>
        <time>2021-08-08T12:13:25Z</time>
      </trkpt>
      <trkpt lat="44.91189" lon="5.56631">
        <ele>1158.6</ele>
        <time>2021-08-08T12:13:26Z</time>
      </trkpt>
      <trkpt lat="44.91188" lon="5.56627">
        <ele>1158.8</ele>
        <time>2021-08-08T12:13:27Z</time>
      </trkpt>
      <trkpt lat="44.91185" lon="5.5662">
        <ele>1159.1</ele>
        <time>2021-08-08T12:13:29Z</time>
      </trkpt>
      <trkpt lat="44.91183" lon="5.56615">
        <ele>1159.3</ele>
        <time>2021-08-08T12:13:30Z</time>
      </trkpt>
      <trkpt lat="44.9118" lon="5.56611">
        <ele>1159.5</ele>
        <time>2021-08-08T12:13:31Z</time>
      </trkpt>
      <trkpt lat="44.91177" lon="5.56607">
        <ele>1159.7</ele>
        <time>2021-08-08T12:13:32Z</time>
      </trkpt>
      <trkpt lat="44.91174" lon="5.56603">
        <ele>1160</ele>
        <time>2021-08-08T12:13:34Z</time>
      </trkpt>
      <trkpt lat="44.9117" lon="5.56599">
        <ele>1160.2</ele>
        <time>2021-08-08T12:13:35Z</time>
      </trkpt>
      <trkpt lat="44.91166" lon="5.56594">
        <ele>1160.5</ele>
        <time>2021-08-08T12:13:37Z</time>
      </trkpt>
      <trkpt lat="44.91164" lon="5.56591">
        <ele>1160.7</ele>
        <time>2021-08-08T12:13:38Z</time>
      </trkpt>
      <trkpt lat="44.91161" lon="5.56589">
        <ele>1160.9</ele>
        <time>2021-08-08T12:13:39Z</time>
      </trkpt>
      <trkpt lat="44.91159" lon="5.56586">
        <ele>1161.1</ele>
        <time>2021-08-08T12:13:40Z</time>
      </trkpt>
      <trkpt lat="44.91155" lon="5.56582">
        <ele>1161.4</ele>
        <time>2021-08-08T12:13:42Z</time>
      </trkpt>
      <trkpt lat="44.91152" lon="5.56579">
        <ele>1161.6</ele>
        <time>2021-08-08T12:13:44Z</time>
      </trkpt>
      <trkpt lat="44.91148" lon="5.56575">
        <ele>1161.9</ele>
        <time>2021-08-08T12:13:45Z</time>
      </trkpt>
      <trkpt lat="44.91145" lon="5.56572">
        <ele>1162.1</ele>
        <time>2021-08-08T12:13:46Z</time>
      </trkpt>
      <trkpt lat="44.91141" lon="5.56568">
        <ele>1162.4</ele>
        <time>2021-08-08T12:13:48Z</time>
      </trkpt>
      <trkpt lat="44.91137" lon="5.56564">
        <ele>1162.7</ele>
        <time>2021-08-08T12:13:50Z</time>
      </trkpt>
      <trkpt lat="44.91135" lon="5.56563">
        <ele>1162.8</ele>
        <time>2021-08-08T12:13:51Z</time>
      </trkpt>
      <trkpt lat="44.91132" lon="5.5656">
        <ele>1163</ele>
        <time>2021-08-08T12:13:53Z</time>
      </trkpt>
      <trkpt lat="44.91129" lon="5.56557">
        <ele>1163.2</ele>
        <time>2021-08-08T12:13:54Z</time>
      </trkpt>
      <trkpt lat="44.91126" lon="5.56554">
        <ele>1163.3</ele>
        <time>2021-08-08T12:13:55Z</time>
      </trkpt>
      <trkpt lat="44.91123" lon="5.56551">
        <ele>1163.5</ele>
        <time>2021-08-08T12:13:56Z</time>
      </trkpt>
      <trkpt lat="44.9112" lon="5.56549">
        <ele>1163.7</ele>
        <time>2021-08-08T12:13:57Z</time>
      </trkpt>
      <trkpt lat="44.91117" lon="5.56545">
        <ele>1164</ele>
        <time>2021-08-08T12:13:59Z</time>
      </trkpt>
      <trkpt lat="44.91114" lon="5.56542">
        <ele>1164.1</ele>
        <time>2021-08-08T12:14:00Z</time>
      </trkpt>
      <trkpt lat="44.91111" lon="5.56538">
        <ele>1164.3</ele>
        <time>2021-08-08T12:14:01Z</time>
      </trkpt>
      <trkpt lat="44.91108" lon="5.56535">
        <ele>1164.5</ele>
        <time>2021-08-08T12:14:03Z</time>
      </trkpt>
      <trkpt lat="44.91105" lon="5.56531">
        <ele>1164.7</ele>
        <time>2021-08-08T12:14:04Z</time>
      </trkpt>
      <trkpt lat="44.91102" lon="5.56528">
        <ele>1164.9</ele>
        <time>2021-08-08T12:14:06Z</time>
      </trkpt>
      <trkpt lat="44.91099" lon="5.56525">
        <ele>1165</ele>
        <time>2021-08-08T12:14:07Z</time>
      </trkpt>
      <trkpt lat="44.91096" lon="5.56522">
        <ele>1165.1</ele>
        <time>2021-08-08T12:14:08Z</time>
      </trkpt>
      <trkpt lat="44.91094" lon="5.56519">
        <ele>1165.3</ele>
        <time>2021-08-08T12:14:09Z</time>
      </trkpt>
      <trkpt lat="44.91091" lon="5.56516">
        <ele>1165.4</ele>
        <time>2021-08-08T12:14:10Z</time>
      </trkpt>
      <trkpt lat="44.91089" lon="5.56513">
        <ele>1165.5</ele>
        <time>2021-08-08T12:14:11Z</time>
      </trkpt>
      <trkpt lat="44.91086" lon="5.56509">
        <ele>1165.6</ele>
        <time>2021-08-08T12:14:12Z</time>
      </trkpt>
      <trkpt lat="44.91082" lon="5.56505">
        <ele>1165.8</ele>
        <time>2021-08-08T12:14:14Z</time>
      </trkpt>
      <trkpt lat="44.91079" lon="5.56501">
        <ele>1165.9</ele>
        <time>2021-08-08T12:14:15Z</time>
      </trkpt>
      <trkpt lat="44.91073" lon="5.56494">
        <ele>1166.1</ele>
        <time>2021-08-08T12:14:17Z</time>
      </trkpt>
      <trkpt lat="44.91071" lon="5.56491">
        <ele>1166.2</ele>
        <time>2021-08-08T12:14:18Z</time>
      </trkpt>
      <trkpt lat="44.91067" lon="5.56485">
        <ele>1166.4</ele>
        <time>2021-08-08T12:14:20Z</time>
      </trkpt>
      <trkpt lat="44.91064" lon="5.56481">
        <ele>1166.5</ele>
        <time>2021-08-08T12:14:21Z</time>
      </trkpt>
      <trkpt lat="44.91061" lon="5.56477">
        <ele>1166.6</ele>
        <time>2021-08-08T12:14:22Z</time>
      </trkpt>
      <trkpt lat="44.91058" lon="5.56474">
        <ele>1166.7</ele>
        <time>2021-08-08T12:14:23Z</time>
      </trkpt>
      <trkpt lat="44.91054" lon="5.56468">
        <ele>1166.8</ele>
        <time>2021-08-08T12:14:25Z</time>
      </trkpt>
      <trkpt lat="44.91051" lon="5.56464">
        <ele>1166.9</ele>
        <time>2021-08-08T12:14:26Z</time>
      </trkpt>
      <trkpt lat="44.91048" lon="5.5646">
        <ele>1167</ele>
        <time>2021-08-08T12:14:28Z</time>
      </trkpt>
      <trkpt lat="44.91043" lon="5.56454">
        <ele>1167.2</ele>
        <time>2021-08-08T12:14:29Z</time>
      </trkpt>
      <trkpt lat="44.91039" lon="5.56449">
        <ele>1167.4</ele>
        <time>2021-08-08T12:14:31Z</time>
      </trkpt>
      <trkpt lat="44.91036" lon="5.56444">
        <ele>1167.6</ele>
        <time>2021-08-08T12:14:32Z</time>
      </trkpt>
      <trkpt lat="44.91034" lon="5.56439">
        <ele>1167.7</ele>
        <time>2021-08-08T12:14:33Z</time>
      </trkpt>
      <trkpt lat="44.91031" lon="5.56433">
        <ele>1167.9</ele>
        <time>2021-08-08T12:14:35Z</time>
      </trkpt>
      <trkpt lat="44.91027" lon="5.56427">
        <ele>1167.9</ele>
        <time>2021-08-08T12:14:36Z</time>
      </trkpt>
      <trkpt lat="44.91025" lon="5.56422">
        <ele>1167.9</ele>
        <time>2021-08-08T12:14:37Z</time>
      </trkpt>
      <trkpt lat="44.91023" lon="5.56417">
        <ele>1167.9</ele>
        <time>2021-08-08T12:14:38Z</time>
      </trkpt>
      <trkpt lat="44.91021" lon="5.56411">
        <ele>1167.9</ele>
        <time>2021-08-08T12:14:39Z</time>
      </trkpt>
      <trkpt lat="44.91018" lon="5.56406">
        <ele>1167.9</ele>
        <time>2021-08-08T12:14:41Z</time>
      </trkpt>
      <trkpt lat="44.91016" lon="5.56401">
        <ele>1168</ele>
        <time>2021-08-08T12:14:42Z</time>
      </trkpt>
      <trkpt lat="44.91012" lon="5.56394">
        <ele>1168.2</ele>
        <time>2021-08-08T12:14:43Z</time>
      </trkpt>
      <trkpt lat="44.9101" lon="5.56388">
        <ele>1168.3</ele>
        <time>2021-08-08T12:14:44Z</time>
      </trkpt>
      <trkpt lat="44.91006" lon="5.56381">
        <ele>1168.5</ele>
        <time>2021-08-08T12:14:46Z</time>
      </trkpt>
      <trkpt lat="44.91004" lon="5.56375">
        <ele>1168.7</ele>
        <time>2021-08-08T12:14:47Z</time>
      </trkpt>
      <trkpt lat="44.91001" lon="5.56371">
        <ele>1168.8</ele>
        <time>2021-08-08T12:14:48Z</time>
      </trkpt>
      <trkpt lat="44.90999" lon="5.56365">
        <ele>1168.9</ele>
        <time>2021-08-08T12:14:49Z</time>
      </trkpt>
      <trkpt lat="44.90996" lon="5.5636">
        <ele>1169.1</ele>
        <time>2021-08-08T12:14:51Z</time>
      </trkpt>
      <trkpt lat="44.90992" lon="5.56353">
        <ele>1169.3</ele>
        <time>2021-08-08T12:14:52Z</time>
      </trkpt>
      <trkpt lat="44.9099" lon="5.56347">
        <ele>1169.4</ele>
        <time>2021-08-08T12:14:53Z</time>
      </trkpt>
      <trkpt lat="44.90986" lon="5.5634">
        <ele>1169.7</ele>
        <time>2021-08-08T12:14:55Z</time>
      </trkpt>
      <trkpt lat="44.90983" lon="5.56335">
        <ele>1169.8</ele>
        <time>2021-08-08T12:14:56Z</time>
      </trkpt>
      <trkpt lat="44.90979" lon="5.56326">
        <ele>1170.1</ele>
        <time>2021-08-08T12:14:58Z</time>
      </trkpt>
      <trkpt lat="44.90976" lon="5.56319">
        <ele>1170.4</ele>
        <time>2021-08-08T12:15:00Z</time>
      </trkpt>
      <trkpt lat="44.90973" lon="5.56314">
        <ele>1170.5</ele>
        <time>2021-08-08T12:15:01Z</time>
      </trkpt>
      <trkpt lat="44.90971" lon="5.56308">
        <ele>1170.7</ele>
        <time>2021-08-08T12:15:02Z</time>
      </trkpt>
      <trkpt lat="44.90967" lon="5.563">
        <ele>1170.9</ele>
        <time>2021-08-08T12:15:04Z</time>
      </trkpt>
      <trkpt lat="44.90966" lon="5.56297">
        <ele>1171</ele>
        <time>2021-08-08T12:15:05Z</time>
      </trkpt>
      <trkpt lat="44.90963" lon="5.56291">
        <ele>1171.2</ele>
        <time>2021-08-08T12:15:06Z</time>
      </trkpt>
      <trkpt lat="44.90961" lon="5.56287">
        <ele>1171.3</ele>
        <time>2021-08-08T12:15:08Z</time>
      </trkpt>
      <trkpt lat="44.90958" lon="5.56282">
        <ele>1171.5</ele>
        <time>2021-08-08T12:15:09Z</time>
      </trkpt>
      <trkpt lat="44.90955" lon="5.56277">
        <ele>1171.7</ele>
        <time>2021-08-08T12:15:10Z</time>
      </trkpt>
      <trkpt lat="44.90951" lon="5.56273">
        <ele>1171.9</ele>
        <time>2021-08-08T12:15:11Z</time>
      </trkpt>
      <trkpt lat="44.90949" lon="5.56269">
        <ele>1172</ele>
        <time>2021-08-08T12:15:13Z</time>
      </trkpt>
      <trkpt lat="44.90945" lon="5.56263">
        <ele>1172.2</ele>
        <time>2021-08-08T12:15:14Z</time>
      </trkpt>
      <trkpt lat="44.90943" lon="5.56259">
        <ele>1172.3</ele>
        <time>2021-08-08T12:15:15Z</time>
      </trkpt>
      <trkpt lat="44.90939" lon="5.56254">
        <ele>1172.5</ele>
        <time>2021-08-08T12:15:16Z</time>
      </trkpt>
      <trkpt lat="44.90936" lon="5.5625">
        <ele>1172.6</ele>
        <time>2021-08-08T12:15:17Z</time>
      </trkpt>
      <trkpt lat="44.90931" lon="5.56244">
        <ele>1172.8</ele>
        <time>2021-08-08T12:15:19Z</time>
      </trkpt>
      <trkpt lat="44.90928" lon="5.5624">
        <ele>1173</ele>
        <time>2021-08-08T12:15:20Z</time>
      </trkpt>
      <trkpt lat="44.90926" lon="5.56237">
        <ele>1173.1</ele>
        <time>2021-08-08T12:15:21Z</time>
      </trkpt>
      <trkpt lat="44.90921" lon="5.56231">
        <ele>1173.3</ele>
        <time>2021-08-08T12:15:23Z</time>
      </trkpt>
      <trkpt lat="44.90918" lon="5.56227">
        <ele>1173.5</ele>
        <time>2021-08-08T12:15:24Z</time>
      </trkpt>
      <trkpt lat="44.90913" lon="5.56221">
        <ele>1173.7</ele>
        <time>2021-08-08T12:15:26Z</time>
      </trkpt>
      <trkpt lat="44.90908" lon="5.56215">
        <ele>1174</ele>
        <time>2021-08-08T12:15:28Z</time>
      </trkpt>
      <trkpt lat="44.90904" lon="5.56211">
        <ele>1174.2</ele>
        <time>2021-08-08T12:15:29Z</time>
      </trkpt>
      <trkpt lat="44.909" lon="5.56205">
        <ele>1174.4</ele>
        <time>2021-08-08T12:15:31Z</time>
      </trkpt>
      <trkpt lat="44.90897" lon="5.562">
        <ele>1174.6</ele>
        <time>2021-08-08T12:15:33Z</time>
      </trkpt>
      <trkpt lat="44.90893" lon="5.56193">
        <ele>1174.9</ele>
        <time>2021-08-08T12:15:34Z</time>
      </trkpt>
      <trkpt lat="44.9089" lon="5.56188">
        <ele>1175.1</ele>
        <time>2021-08-08T12:15:35Z</time>
      </trkpt>
      <trkpt lat="44.90888" lon="5.56184">
        <ele>1175.2</ele>
        <time>2021-08-08T12:15:37Z</time>
      </trkpt>
      <trkpt lat="44.90886" lon="5.56181">
        <ele>1175.4</ele>
        <time>2021-08-08T12:15:38Z</time>
      </trkpt>
      <trkpt lat="44.90881" lon="5.56174">
        <ele>1175.7</ele>
        <time>2021-08-08T12:15:39Z</time>
      </trkpt>
      <trkpt lat="44.90879" lon="5.56169">
        <ele>1175.9</ele>
        <time>2021-08-08T12:15:41Z</time>
      </trkpt>
      <trkpt lat="44.90877" lon="5.56165">
        <ele>1176.1</ele>
        <time>2021-08-08T12:15:42Z</time>
      </trkpt>
      <trkpt lat="44.90874" lon="5.56159">
        <ele>1176.4</ele>
        <time>2021-08-08T12:15:43Z</time>
      </trkpt>
      <trkpt lat="44.90872" lon="5.56155">
        <ele>1176.5</ele>
        <time>2021-08-08T12:15:44Z</time>
      </trkpt>
      <trkpt lat="44.90869" lon="5.5615">
        <ele>1176.8</ele>
        <time>2021-08-08T12:15:46Z</time>
      </trkpt>
      <trkpt lat="44.90867" lon="5.56146">
        <ele>1176.9</ele>
        <time>2021-08-08T12:15:47Z</time>
      </trkpt>
      <trkpt lat="44.90864" lon="5.56141">
        <ele>1177.2</ele>
        <time>2021-08-08T12:15:48Z</time>
      </trkpt>
      <trkpt lat="44.90862" lon="5.56137">
        <ele>1177.4</ele>
        <time>2021-08-08T12:15:49Z</time>
      </trkpt>
      <trkpt lat="44.9086" lon="5.56133">
        <ele>1177.5</ele>
        <time>2021-08-08T12:15:50Z</time>
      </trkpt>
      <trkpt lat="44.90857" lon="5.56125">
        <ele>1177.9</ele>
        <time>2021-08-08T12:15:52Z</time>
      </trkpt>
      <trkpt lat="44.90855" lon="5.56119">
        <ele>1178.1</ele>
        <time>2021-08-08T12:15:54Z</time>
      </trkpt>
      <trkpt lat="44.90853" lon="5.56113">
        <ele>1178.3</ele>
        <time>2021-08-08T12:15:55Z</time>
      </trkpt>
      <trkpt lat="44.90851" lon="5.56108">
        <ele>1178.6</ele>
        <time>2021-08-08T12:15:56Z</time>
      </trkpt>
      <trkpt lat="44.90849" lon="5.56103">
        <ele>1178.8</ele>
        <time>2021-08-08T12:15:57Z</time>
      </trkpt>
      <trkpt lat="44.90846" lon="5.56094">
        <ele>1179.2</ele>
        <time>2021-08-08T12:15:59Z</time>
      </trkpt>
      <trkpt lat="44.90845" lon="5.56087">
        <ele>1179.6</ele>
        <time>2021-08-08T12:16:01Z</time>
      </trkpt>
      <trkpt lat="44.90843" lon="5.56081">
        <ele>1179.9</ele>
        <time>2021-08-08T12:16:02Z</time>
      </trkpt>
      <trkpt lat="44.90842" lon="5.56077">
        <ele>1180.1</ele>
        <time>2021-08-08T12:16:03Z</time>
      </trkpt>
      <trkpt lat="44.90841" lon="5.5607">
        <ele>1180.5</ele>
        <time>2021-08-08T12:16:05Z</time>
      </trkpt>
      <trkpt lat="44.9084" lon="5.56064">
        <ele>1180.8</ele>
        <time>2021-08-08T12:16:06Z</time>
      </trkpt>
      <trkpt lat="44.90839" lon="5.56059">
        <ele>1181.1</ele>
        <time>2021-08-08T12:16:07Z</time>
      </trkpt>
      <trkpt lat="44.90838" lon="5.56055">
        <ele>1181.3</ele>
        <time>2021-08-08T12:16:08Z</time>
      </trkpt>
      <trkpt lat="44.90837" lon="5.56047">
        <ele>1181.8</ele>
        <time>2021-08-08T12:16:10Z</time>
      </trkpt>
      <trkpt lat="44.90837" lon="5.56043">
        <ele>1182.1</ele>
        <time>2021-08-08T12:16:11Z</time>
      </trkpt>
      <trkpt lat="44.90836" lon="5.56035">
        <ele>1182.5</ele>
        <time>2021-08-08T12:16:13Z</time>
      </trkpt>
      <trkpt lat="44.90836" lon="5.56028">
        <ele>1182.9</ele>
        <time>2021-08-08T12:16:15Z</time>
      </trkpt>
      <trkpt lat="44.90836" lon="5.56023">
        <ele>1183.1</ele>
        <time>2021-08-08T12:16:16Z</time>
      </trkpt>
      <trkpt lat="44.90836" lon="5.56018">
        <ele>1183.4</ele>
        <time>2021-08-08T12:16:18Z</time>
      </trkpt>
      <trkpt lat="44.90837" lon="5.56013">
        <ele>1183.6</ele>
        <time>2021-08-08T12:16:19Z</time>
      </trkpt>
      <trkpt lat="44.90838" lon="5.56009">
        <ele>1183.9</ele>
        <time>2021-08-08T12:16:20Z</time>
      </trkpt>
      <trkpt lat="44.90839" lon="5.56004">
        <ele>1184.1</ele>
        <time>2021-08-08T12:16:21Z</time>
      </trkpt>
      <trkpt lat="44.9084" lon="5.55999">
        <ele>1184.5</ele>
        <time>2021-08-08T12:16:23Z</time>
      </trkpt>
      <trkpt lat="44.90841" lon="5.55995">
        <ele>1184.7</ele>
        <time>2021-08-08T12:16:24Z</time>
      </trkpt>
      <trkpt lat="44.90842" lon="5.55991">
        <ele>1184.9</ele>
        <time>2021-08-08T12:16:25Z</time>
      </trkpt>
      <trkpt lat="44.90843" lon="5.55987">
        <ele>1185.2</ele>
        <time>2021-08-08T12:16:26Z</time>
      </trkpt>
      <trkpt lat="44.90844" lon="5.55982">
        <ele>1185.5</ele>
        <time>2021-08-08T12:16:28Z</time>
      </trkpt>
      <trkpt lat="44.90846" lon="5.55977">
        <ele>1185.9</ele>
        <time>2021-08-08T12:16:29Z</time>
      </trkpt>
      <trkpt lat="44.90847" lon="5.55974">
        <ele>1186.1</ele>
        <time>2021-08-08T12:16:31Z</time>
      </trkpt>
      <trkpt lat="44.90848" lon="5.55969">
        <ele>1186.4</ele>
        <time>2021-08-08T12:16:32Z</time>
      </trkpt>
      <trkpt lat="44.9085" lon="5.55966">
        <ele>1186.7</ele>
        <time>2021-08-08T12:16:33Z</time>
      </trkpt>
      <trkpt lat="44.90851" lon="5.5596">
        <ele>1187</ele>
        <time>2021-08-08T12:16:34Z</time>
      </trkpt>
      <trkpt lat="44.90852" lon="5.55955">
        <ele>1187.4</ele>
        <time>2021-08-08T12:16:36Z</time>
      </trkpt>
      <trkpt lat="44.90853" lon="5.55952">
        <ele>1187.6</ele>
        <time>2021-08-08T12:16:37Z</time>
      </trkpt>
      <trkpt lat="44.90853" lon="5.55948">
        <ele>1187.9</ele>
        <time>2021-08-08T12:16:38Z</time>
      </trkpt>
      <trkpt lat="44.90855" lon="5.55942">
        <ele>1188.3</ele>
        <time>2021-08-08T12:16:40Z</time>
      </trkpt>
      <trkpt lat="44.90855" lon="5.55938">
        <ele>1188.5</ele>
        <time>2021-08-08T12:16:41Z</time>
      </trkpt>
      <trkpt lat="44.90856" lon="5.55933">
        <ele>1188.9</ele>
        <time>2021-08-08T12:16:43Z</time>
      </trkpt>
      <trkpt lat="44.90856" lon="5.55928">
        <ele>1189.1</ele>
        <time>2021-08-08T12:16:44Z</time>
      </trkpt>
      <trkpt lat="44.90857" lon="5.55924">
        <ele>1189.4</ele>
        <time>2021-08-08T12:16:45Z</time>
      </trkpt>
      <trkpt lat="44.90857" lon="5.55923">
        <ele>1189.5</ele>
        <time>2021-08-08T12:16:46Z</time>
      </trkpt>
      <trkpt lat="44.90857" lon="5.55917">
        <ele>1189.8</ele>
        <time>2021-08-08T12:16:48Z</time>
      </trkpt>
      <trkpt lat="44.90856" lon="5.55913">
        <ele>1190</ele>
        <time>2021-08-08T12:16:49Z</time>
      </trkpt>
      <trkpt lat="44.90856" lon="5.55909">
        <ele>1190.3</ele>
        <time>2021-08-08T12:16:50Z</time>
      </trkpt>
      <trkpt lat="44.90855" lon="5.55903">
        <ele>1190.6</ele>
        <time>2021-08-08T12:16:51Z</time>
      </trkpt>
      <trkpt lat="44.90855" lon="5.55901">
        <ele>1190.8</ele>
        <time>2021-08-08T12:16:52Z</time>
      </trkpt>
      <trkpt lat="44.90854" lon="5.55893">
        <ele>1191.2</ele>
        <time>2021-08-08T12:16:54Z</time>
      </trkpt>
      <trkpt lat="44.90853" lon="5.55889">
        <ele>1191.5</ele>
        <time>2021-08-08T12:16:55Z</time>
      </trkpt>
      <trkpt lat="44.90852" lon="5.55884">
        <ele>1191.8</ele>
        <time>2021-08-08T12:16:56Z</time>
      </trkpt>
      <trkpt lat="44.90851" lon="5.5588">
        <ele>1192</ele>
        <time>2021-08-08T12:16:57Z</time>
      </trkpt>
      <trkpt lat="44.9085" lon="5.55873">
        <ele>1192.4</ele>
        <time>2021-08-08T12:16:59Z</time>
      </trkpt>
      <trkpt lat="44.90849" lon="5.55867">
        <ele>1192.8</ele>
        <time>2021-08-08T12:17:00Z</time>
      </trkpt>
      <trkpt lat="44.90849" lon="5.55865">
        <ele>1192.9</ele>
        <time>2021-08-08T12:17:01Z</time>
      </trkpt>
      <trkpt lat="44.90848" lon="5.55859">
        <ele>1193.2</ele>
        <time>2021-08-08T12:17:03Z</time>
      </trkpt>
      <trkpt lat="44.90847" lon="5.55855">
        <ele>1193.5</ele>
        <time>2021-08-08T12:17:04Z</time>
      </trkpt>
      <trkpt lat="44.90846" lon="5.55849">
        <ele>1193.8</ele>
        <time>2021-08-08T12:17:05Z</time>
      </trkpt>
      <trkpt lat="44.90846" lon="5.55846">
        <ele>1194</ele>
        <time>2021-08-08T12:17:06Z</time>
      </trkpt>
      <trkpt lat="44.90846" lon="5.5584">
        <ele>1194.4</ele>
        <time>2021-08-08T12:17:08Z</time>
      </trkpt>
      <trkpt lat="44.90844" lon="5.55834">
        <ele>1194.7</ele>
        <time>2021-08-08T12:17:10Z</time>
      </trkpt>
      <trkpt lat="44.90843" lon="5.5583">
        <ele>1195</ele>
        <time>2021-08-08T12:17:11Z</time>
      </trkpt>
      <trkpt lat="44.90842" lon="5.55826">
        <ele>1195.3</ele>
        <time>2021-08-08T12:17:12Z</time>
      </trkpt>
      <trkpt lat="44.90841" lon="5.55823">
        <ele>1195.5</ele>
        <time>2021-08-08T12:17:13Z</time>
      </trkpt>
      <trkpt lat="44.9084" lon="5.55819">
        <ele>1195.7</ele>
        <time>2021-08-08T12:17:15Z</time>
      </trkpt>
      <trkpt lat="44.90839" lon="5.55815">
        <ele>1196</ele>
        <time>2021-08-08T12:17:16Z</time>
      </trkpt>
      <trkpt lat="44.90837" lon="5.55811">
        <ele>1196.3</ele>
        <time>2021-08-08T12:17:18Z</time>
      </trkpt>
      <trkpt lat="44.90836" lon="5.55806">
        <ele>1196.6</ele>
        <time>2021-08-08T12:17:19Z</time>
      </trkpt>
      <trkpt lat="44.90834" lon="5.55801">
        <ele>1196.9</ele>
        <time>2021-08-08T12:17:20Z</time>
      </trkpt>
      <trkpt lat="44.90833" lon="5.55796">
        <ele>1197.2</ele>
        <time>2021-08-08T12:17:22Z</time>
      </trkpt>
      <trkpt lat="44.90831" lon="5.5579">
        <ele>1197.6</ele>
        <time>2021-08-08T12:17:23Z</time>
      </trkpt>
      <trkpt lat="44.9083" lon="5.55786">
        <ele>1197.8</ele>
        <time>2021-08-08T12:17:25Z</time>
      </trkpt>
      <trkpt lat="44.90829" lon="5.55781">
        <ele>1198.1</ele>
        <time>2021-08-08T12:17:26Z</time>
      </trkpt>
      <trkpt lat="44.90828" lon="5.55776">
        <ele>1198.3</ele>
        <time>2021-08-08T12:17:27Z</time>
      </trkpt>
      <trkpt lat="44.90827" lon="5.55772">
        <ele>1198.5</ele>
        <time>2021-08-08T12:17:28Z</time>
      </trkpt>
      <trkpt lat="44.90827" lon="5.55768">
        <ele>1198.7</ele>
        <time>2021-08-08T12:17:30Z</time>
      </trkpt>
      <trkpt lat="44.90826" lon="5.55764">
        <ele>1198.9</ele>
        <time>2021-08-08T12:17:31Z</time>
      </trkpt>
      <trkpt lat="44.90825" lon="5.55758">
        <ele>1199.2</ele>
        <time>2021-08-08T12:17:32Z</time>
      </trkpt>
      <trkpt lat="44.90825" lon="5.55752">
        <ele>1199.4</ele>
        <time>2021-08-08T12:17:33Z</time>
      </trkpt>
      <trkpt lat="44.90824" lon="5.55746">
        <ele>1199.7</ele>
        <time>2021-08-08T12:17:34Z</time>
      </trkpt>
      <trkpt lat="44.90824" lon="5.55742">
        <ele>1199.9</ele>
        <time>2021-08-08T12:17:35Z</time>
      </trkpt>
      <trkpt lat="44.90823" lon="5.55735">
        <ele>1200.1</ele>
        <time>2021-08-08T12:17:37Z</time>
      </trkpt>
      <trkpt lat="44.90823" lon="5.5573">
        <ele>1200.4</ele>
        <time>2021-08-08T12:17:38Z</time>
      </trkpt>
      <trkpt lat="44.90823" lon="5.55725">
        <ele>1200.6</ele>
        <time>2021-08-08T12:17:39Z</time>
      </trkpt>
      <trkpt lat="44.90823" lon="5.5572">
        <ele>1200.8</ele>
        <time>2021-08-08T12:17:41Z</time>
      </trkpt>
      <trkpt lat="44.90823" lon="5.55713">
        <ele>1201.1</ele>
        <time>2021-08-08T12:17:42Z</time>
      </trkpt>
      <trkpt lat="44.90823" lon="5.55708">
        <ele>1201.3</ele>
        <time>2021-08-08T12:17:43Z</time>
      </trkpt>
      <trkpt lat="44.90823" lon="5.55703">
        <ele>1201.5</ele>
        <time>2021-08-08T12:17:45Z</time>
      </trkpt>
      <trkpt lat="44.90823" lon="5.55699">
        <ele>1201.7</ele>
        <time>2021-08-08T12:17:46Z</time>
      </trkpt>
      <trkpt lat="44.90823" lon="5.55693">
        <ele>1201.9</ele>
        <time>2021-08-08T12:17:47Z</time>
      </trkpt>
      <trkpt lat="44.90823" lon="5.55687">
        <ele>1202.2</ele>
        <time>2021-08-08T12:17:48Z</time>
      </trkpt>
      <trkpt lat="44.90822" lon="5.55681">
        <ele>1202.4</ele>
        <time>2021-08-08T12:17:49Z</time>
      </trkpt>
      <trkpt lat="44.90822" lon="5.55676">
        <ele>1202.5</ele>
        <time>2021-08-08T12:17:50Z</time>
      </trkpt>
      <trkpt lat="44.90822" lon="5.55671">
        <ele>1202.7</ele>
        <time>2021-08-08T12:17:51Z</time>
      </trkpt>
      <trkpt lat="44.90821" lon="5.55666">
        <ele>1202.9</ele>
        <time>2021-08-08T12:17:52Z</time>
      </trkpt>
      <trkpt lat="44.90821" lon="5.55661">
        <ele>1203.1</ele>
        <time>2021-08-08T12:17:53Z</time>
      </trkpt>
      <trkpt lat="44.9082" lon="5.55654">
        <ele>1203.3</ele>
        <time>2021-08-08T12:17:55Z</time>
      </trkpt>
      <trkpt lat="44.90819" lon="5.55649">
        <ele>1203.5</ele>
        <time>2021-08-08T12:17:56Z</time>
      </trkpt>
      <trkpt lat="44.90818" lon="5.55643">
        <ele>1203.7</ele>
        <time>2021-08-08T12:17:57Z</time>
      </trkpt>
      <trkpt lat="44.90818" lon="5.55639">
        <ele>1203.8</ele>
        <time>2021-08-08T12:17:58Z</time>
      </trkpt>
      <trkpt lat="44.90817" lon="5.55631">
        <ele>1204.1</ele>
        <time>2021-08-08T12:18:00Z</time>
      </trkpt>
      <trkpt lat="44.90816" lon="5.55625">
        <ele>1204.2</ele>
        <time>2021-08-08T12:18:01Z</time>
      </trkpt>
      <trkpt lat="44.90816" lon="5.55619">
        <ele>1204.4</ele>
        <time>2021-08-08T12:18:03Z</time>
      </trkpt>
      <trkpt lat="44.90815" lon="5.55613">
        <ele>1204.6</ele>
        <time>2021-08-08T12:18:04Z</time>
      </trkpt>
      <trkpt lat="44.90814" lon="5.55607">
        <ele>1204.8</ele>
        <time>2021-08-08T12:18:06Z</time>
      </trkpt>
      <trkpt lat="44.90814" lon="5.55602">
        <ele>1204.9</ele>
        <time>2021-08-08T12:18:07Z</time>
      </trkpt>
      <trkpt lat="44.90813" lon="5.55597">
        <ele>1205</ele>
        <time>2021-08-08T12:18:08Z</time>
      </trkpt>
      <trkpt lat="44.90813" lon="5.5559">
        <ele>1205.1</ele>
        <time>2021-08-08T12:18:09Z</time>
      </trkpt>
      <trkpt lat="44.90812" lon="5.55583">
        <ele>1205.2</ele>
        <time>2021-08-08T12:18:11Z</time>
      </trkpt>
      <trkpt lat="44.90812" lon="5.55577">
        <ele>1205.3</ele>
        <time>2021-08-08T12:18:12Z</time>
      </trkpt>
      <trkpt lat="44.90812" lon="5.5557">
        <ele>1205.5</ele>
        <time>2021-08-08T12:18:13Z</time>
      </trkpt>
      <trkpt lat="44.90811" lon="5.55563">
        <ele>1205.6</ele>
        <time>2021-08-08T12:18:14Z</time>
      </trkpt>
      <trkpt lat="44.90811" lon="5.55555">
        <ele>1205.7</ele>
        <time>2021-08-08T12:18:16Z</time>
      </trkpt>
      <trkpt lat="44.9081" lon="5.55547">
        <ele>1205.8</ele>
        <time>2021-08-08T12:18:17Z</time>
      </trkpt>
      <trkpt lat="44.9081" lon="5.5554">
        <ele>1205.9</ele>
        <time>2021-08-08T12:18:18Z</time>
      </trkpt>
      <trkpt lat="44.9081" lon="5.55533">
        <ele>1206</ele>
        <time>2021-08-08T12:18:20Z</time>
      </trkpt>
      <trkpt lat="44.9081" lon="5.55525">
        <ele>1206.1</ele>
        <time>2021-08-08T12:18:21Z</time>
      </trkpt>
      <trkpt lat="44.90809" lon="5.55519">
        <ele>1206.2</ele>
        <time>2021-08-08T12:18:22Z</time>
      </trkpt>
      <trkpt lat="44.90809" lon="5.55512">
        <ele>1206.3</ele>
        <time>2021-08-08T12:18:23Z</time>
      </trkpt>
      <trkpt lat="44.90809" lon="5.55506">
        <ele>1206.4</ele>
        <time>2021-08-08T12:18:24Z</time>
      </trkpt>
      <trkpt lat="44.90809" lon="5.55496">
        <ele>1206.6</ele>
        <time>2021-08-08T12:18:26Z</time>
      </trkpt>
      <trkpt lat="44.90808" lon="5.55484">
        <ele>1207</ele>
        <time>2021-08-08T12:18:28Z</time>
      </trkpt>
      <trkpt lat="44.90808" lon="5.55474">
        <ele>1207.3</ele>
        <time>2021-08-08T12:18:30Z</time>
      </trkpt>
      <trkpt lat="44.90808" lon="5.55465">
        <ele>1207.5</ele>
        <time>2021-08-08T12:18:32Z</time>
      </trkpt>
      <trkpt lat="44.90808" lon="5.55459">
        <ele>1207.6</ele>
        <time>2021-08-08T12:18:33Z</time>
      </trkpt>
      <trkpt lat="44.90808" lon="5.55453">
        <ele>1207.8</ele>
        <time>2021-08-08T12:18:34Z</time>
      </trkpt>
      <trkpt lat="44.90809" lon="5.55446">
        <ele>1208</ele>
        <time>2021-08-08T12:18:36Z</time>
      </trkpt>
      <trkpt lat="44.90809" lon="5.55441">
        <ele>1208.1</ele>
        <time>2021-08-08T12:18:37Z</time>
      </trkpt>
      <trkpt lat="44.90808" lon="5.55434">
        <ele>1208.3</ele>
        <time>2021-08-08T12:18:38Z</time>
      </trkpt>
      <trkpt lat="44.9081" lon="5.55426">
        <ele>1208.5</ele>
        <time>2021-08-08T12:18:40Z</time>
      </trkpt>
      <trkpt lat="44.9081" lon="5.55421">
        <ele>1208.7</ele>
        <time>2021-08-08T12:18:41Z</time>
      </trkpt>
      <trkpt lat="44.90811" lon="5.55417">
        <ele>1208.8</ele>
        <time>2021-08-08T12:18:42Z</time>
      </trkpt>
      <trkpt lat="44.90812" lon="5.55409">
        <ele>1209</ele>
        <time>2021-08-08T12:18:44Z</time>
      </trkpt>
      <trkpt lat="44.90812" lon="5.55403">
        <ele>1209.2</ele>
        <time>2021-08-08T12:18:45Z</time>
      </trkpt>
      <trkpt lat="44.90813" lon="5.55397">
        <ele>1209.3</ele>
        <time>2021-08-08T12:18:47Z</time>
      </trkpt>
      <trkpt lat="44.90814" lon="5.55392">
        <ele>1209.5</ele>
        <time>2021-08-08T12:18:48Z</time>
      </trkpt>
      <trkpt lat="44.90814" lon="5.55387">
        <ele>1209.7</ele>
        <time>2021-08-08T12:18:49Z</time>
      </trkpt>
      <trkpt lat="44.90815" lon="5.5538">
        <ele>1209.9</ele>
        <time>2021-08-08T12:18:50Z</time>
      </trkpt>
      <trkpt lat="44.90816" lon="5.55374">
        <ele>1210.1</ele>
        <time>2021-08-08T12:18:51Z</time>
      </trkpt>
      <trkpt lat="44.90817" lon="5.55367">
        <ele>1210.3</ele>
        <time>2021-08-08T12:18:53Z</time>
      </trkpt>
      <trkpt lat="44.90818" lon="5.55359">
        <ele>1210.6</ele>
        <time>2021-08-08T12:18:54Z</time>
      </trkpt>
      <trkpt lat="44.90818" lon="5.55354">
        <ele>1210.8</ele>
        <time>2021-08-08T12:18:55Z</time>
      </trkpt>
      <trkpt lat="44.90818" lon="5.55346">
        <ele>1211.1</ele>
        <time>2021-08-08T12:18:57Z</time>
      </trkpt>
      <trkpt lat="44.90819" lon="5.5534">
        <ele>1211.3</ele>
        <time>2021-08-08T12:18:58Z</time>
      </trkpt>
      <trkpt lat="44.9082" lon="5.55334">
        <ele>1211.6</ele>
        <time>2021-08-08T12:19:00Z</time>
      </trkpt>
      <trkpt lat="44.9082" lon="5.55328">
        <ele>1211.8</ele>
        <time>2021-08-08T12:19:01Z</time>
      </trkpt>
      <trkpt lat="44.90821" lon="5.55322">
        <ele>1212.1</ele>
        <time>2021-08-08T12:19:02Z</time>
      </trkpt>
      <trkpt lat="44.90821" lon="5.55317">
        <ele>1212.3</ele>
        <time>2021-08-08T12:19:04Z</time>
      </trkpt>
      <trkpt lat="44.90822" lon="5.55311">
        <ele>1212.6</ele>
        <time>2021-08-08T12:19:05Z</time>
      </trkpt>
      <trkpt lat="44.90824" lon="5.55305">
        <ele>1212.9</ele>
        <time>2021-08-08T12:19:06Z</time>
      </trkpt>
      <trkpt lat="44.90825" lon="5.553">
        <ele>1213.1</ele>
        <time>2021-08-08T12:19:07Z</time>
      </trkpt>
      <trkpt lat="44.90827" lon="5.55296">
        <ele>1213.4</ele>
        <time>2021-08-08T12:19:09Z</time>
      </trkpt>
      <trkpt lat="44.90828" lon="5.55292">
        <ele>1213.6</ele>
        <time>2021-08-08T12:19:10Z</time>
      </trkpt>
      <trkpt lat="44.90831" lon="5.55289">
        <ele>1214</ele>
        <time>2021-08-08T12:19:11Z</time>
      </trkpt>
      <trkpt lat="44.90833" lon="5.55287">
        <ele>1214.2</ele>
        <time>2021-08-08T12:19:12Z</time>
      </trkpt>
      <trkpt lat="44.90837" lon="5.55286">
        <ele>1214.5</ele>
        <time>2021-08-08T12:19:14Z</time>
      </trkpt>
      <trkpt lat="44.90842" lon="5.55286">
        <ele>1215.1</ele>
        <time>2021-08-08T12:19:15Z</time>
      </trkpt>
      <trkpt lat="44.90845" lon="5.55286">
        <ele>1215.4</ele>
        <time>2021-08-08T12:19:16Z</time>
      </trkpt>
      <trkpt lat="44.9085" lon="5.55287">
        <ele>1215.8</ele>
        <time>2021-08-08T12:19:18Z</time>
      </trkpt>
      <trkpt lat="44.90852" lon="5.55287">
        <ele>1216</ele>
        <time>2021-08-08T12:19:19Z</time>
      </trkpt>
      <trkpt lat="44.90854" lon="5.55287">
        <ele>1216.1</ele>
        <time>2021-08-08T12:19:20Z</time>
      </trkpt>
      <trkpt lat="44.90858" lon="5.55287">
        <ele>1216.5</ele>
        <time>2021-08-08T12:19:22Z</time>
      </trkpt>
      <trkpt lat="44.90863" lon="5.55287">
        <ele>1217</ele>
        <time>2021-08-08T12:19:24Z</time>
      </trkpt>
      <trkpt lat="44.90865" lon="5.55287">
        <ele>1217.1</ele>
        <time>2021-08-08T12:19:25Z</time>
      </trkpt>
      <trkpt lat="44.90866" lon="5.55287">
        <ele>1217.2</ele>
        <time>2021-08-08T12:19:26Z</time>
      </trkpt>
      <trkpt lat="44.9087" lon="5.55288">
        <ele>1217.6</ele>
        <time>2021-08-08T12:19:28Z</time>
      </trkpt>
      <trkpt lat="44.90872" lon="5.55288">
        <ele>1217.8</ele>
        <time>2021-08-08T12:19:29Z</time>
      </trkpt>
      <trkpt lat="44.90874" lon="5.55289">
        <ele>1217.9</ele>
        <time>2021-08-08T12:19:30Z</time>
      </trkpt>
      <trkpt lat="44.90876" lon="5.5529">
        <ele>1218.1</ele>
        <time>2021-08-08T12:19:31Z</time>
      </trkpt>
      <trkpt lat="44.90878" lon="5.5529">
        <ele>1218.4</ele>
        <time>2021-08-08T12:19:33Z</time>
      </trkpt>
      <trkpt lat="44.90882" lon="5.55291">
        <ele>1218.7</ele>
        <time>2021-08-08T12:19:34Z</time>
      </trkpt>
      <trkpt lat="44.90884" lon="5.55291">
        <ele>1218.8</ele>
        <time>2021-08-08T12:19:35Z</time>
      </trkpt>
      <trkpt lat="44.90888" lon="5.55292">
        <ele>1219.2</ele>
        <time>2021-08-08T12:19:37Z</time>
      </trkpt>
      <trkpt lat="44.90889" lon="5.55293">
        <ele>1219.3</ele>
        <time>2021-08-08T12:19:38Z</time>
      </trkpt>
      <trkpt lat="44.90891" lon="5.55293">
        <ele>1219.5</ele>
        <time>2021-08-08T12:19:39Z</time>
      </trkpt>
      <trkpt lat="44.90894" lon="5.55294">
        <ele>1219.7</ele>
        <time>2021-08-08T12:19:40Z</time>
      </trkpt>
      <trkpt lat="44.90897" lon="5.55294">
        <ele>1220</ele>
        <time>2021-08-08T12:19:41Z</time>
      </trkpt>
      <trkpt lat="44.90898" lon="5.55294">
        <ele>1220.1</ele>
        <time>2021-08-08T12:19:42Z</time>
      </trkpt>
      <trkpt lat="44.909" lon="5.55294">
        <ele>1220.2</ele>
        <time>2021-08-08T12:19:43Z</time>
      </trkpt>
      <trkpt lat="44.90903" lon="5.55294">
        <ele>1220.5</ele>
        <time>2021-08-08T12:19:45Z</time>
      </trkpt>
      <trkpt lat="44.90906" lon="5.55294">
        <ele>1220.7</ele>
        <time>2021-08-08T12:19:46Z</time>
      </trkpt>
      <trkpt lat="44.90908" lon="5.55294">
        <ele>1220.9</ele>
        <time>2021-08-08T12:19:47Z</time>
      </trkpt>
      <trkpt lat="44.90911" lon="5.55293">
        <ele>1221.2</ele>
        <time>2021-08-08T12:19:49Z</time>
      </trkpt>
      <trkpt lat="44.90914" lon="5.55293">
        <ele>1221.4</ele>
        <time>2021-08-08T12:19:50Z</time>
      </trkpt>
      <trkpt lat="44.90917" lon="5.55291">
        <ele>1221.7</ele>
        <time>2021-08-08T12:19:52Z</time>
      </trkpt>
      <trkpt lat="44.9092" lon="5.55289">
        <ele>1222</ele>
        <time>2021-08-08T12:19:53Z</time>
      </trkpt>
      <trkpt lat="44.90921" lon="5.55289">
        <ele>1222.1</ele>
        <time>2021-08-08T12:19:54Z</time>
      </trkpt>
      <trkpt lat="44.90924" lon="5.55286">
        <ele>1222.4</ele>
        <time>2021-08-08T12:19:56Z</time>
      </trkpt>
      <trkpt lat="44.90925" lon="5.55285">
        <ele>1222.5</ele>
        <time>2021-08-08T12:19:57Z</time>
      </trkpt>
      <trkpt lat="44.90928" lon="5.55284">
        <ele>1222.7</ele>
        <time>2021-08-08T12:19:58Z</time>
      </trkpt>
      <trkpt lat="44.90929" lon="5.55284">
        <ele>1222.8</ele>
        <time>2021-08-08T12:19:59Z</time>
      </trkpt>
      <trkpt lat="44.90932" lon="5.55281">
        <ele>1223.1</ele>
        <time>2021-08-08T12:20:00Z</time>
      </trkpt>
      <trkpt lat="44.90934" lon="5.55279">
        <ele>1223.3</ele>
        <time>2021-08-08T12:20:01Z</time>
      </trkpt>
      <trkpt lat="44.90936" lon="5.55277">
        <ele>1223.6</ele>
        <time>2021-08-08T12:20:03Z</time>
      </trkpt>
      <trkpt lat="44.90939" lon="5.55274">
        <ele>1223.8</ele>
        <time>2021-08-08T12:20:04Z</time>
      </trkpt>
      <trkpt lat="44.90941" lon="5.55273">
        <ele>1224</ele>
        <time>2021-08-08T12:20:05Z</time>
      </trkpt>
      <trkpt lat="44.90944" lon="5.55271">
        <ele>1224.3</ele>
        <time>2021-08-08T12:20:06Z</time>
      </trkpt>
      <trkpt lat="44.90946" lon="5.55268">
        <ele>1224.5</ele>
        <time>2021-08-08T12:20:07Z</time>
      </trkpt>
      <trkpt lat="44.9095" lon="5.55265">
        <ele>1224.8</ele>
        <time>2021-08-08T12:20:09Z</time>
      </trkpt>
      <trkpt lat="44.90952" lon="5.55262">
        <ele>1225</ele>
        <time>2021-08-08T12:20:10Z</time>
      </trkpt>
      <trkpt lat="44.90955" lon="5.55259">
        <ele>1225.2</ele>
        <time>2021-08-08T12:20:11Z</time>
      </trkpt>
      <trkpt lat="44.9096" lon="5.55256">
        <ele>1225.5</ele>
        <time>2021-08-08T12:20:13Z</time>
      </trkpt>
      <trkpt lat="44.90962" lon="5.55254">
        <ele>1225.6</ele>
        <time>2021-08-08T12:20:14Z</time>
      </trkpt>
      <trkpt lat="44.90966" lon="5.55251">
        <ele>1225.9</ele>
        <time>2021-08-08T12:20:16Z</time>
      </trkpt>
      <trkpt lat="44.90969" lon="5.55248">
        <ele>1226.1</ele>
        <time>2021-08-08T12:20:17Z</time>
      </trkpt>
      <trkpt lat="44.90972" lon="5.55245">
        <ele>1226.2</ele>
        <time>2021-08-08T12:20:18Z</time>
      </trkpt>
      <trkpt lat="44.90974" lon="5.55242">
        <ele>1226.3</ele>
        <time>2021-08-08T12:20:19Z</time>
      </trkpt>
      <trkpt lat="44.90978" lon="5.55237">
        <ele>1226.6</ele>
        <time>2021-08-08T12:20:21Z</time>
      </trkpt>
      <trkpt lat="44.90982" lon="5.55232">
        <ele>1226.7</ele>
        <time>2021-08-08T12:20:23Z</time>
      </trkpt>
      <trkpt lat="44.90984" lon="5.55229">
        <ele>1226.8</ele>
        <time>2021-08-08T12:20:24Z</time>
      </trkpt>
      <trkpt lat="44.90987" lon="5.55224">
        <ele>1227</ele>
        <time>2021-08-08T12:20:25Z</time>
      </trkpt>
      <trkpt lat="44.9099" lon="5.5522">
        <ele>1227.1</ele>
        <time>2021-08-08T12:20:27Z</time>
      </trkpt>
      <trkpt lat="44.90993" lon="5.55215">
        <ele>1227.2</ele>
        <time>2021-08-08T12:20:28Z</time>
      </trkpt>
      <trkpt lat="44.90997" lon="5.55209">
        <ele>1227.3</ele>
        <time>2021-08-08T12:20:29Z</time>
      </trkpt>
      <trkpt lat="44.91001" lon="5.55203">
        <ele>1227.4</ele>
        <time>2021-08-08T12:20:31Z</time>
      </trkpt>
      <trkpt lat="44.91004" lon="5.552">
        <ele>1227.5</ele>
        <time>2021-08-08T12:20:32Z</time>
      </trkpt>
      <trkpt lat="44.91008" lon="5.55195">
        <ele>1227.5</ele>
        <time>2021-08-08T12:20:33Z</time>
      </trkpt>
      <trkpt lat="44.91012" lon="5.5519">
        <ele>1227.5</ele>
        <time>2021-08-08T12:20:35Z</time>
      </trkpt>
      <trkpt lat="44.91015" lon="5.55186">
        <ele>1227.5</ele>
        <time>2021-08-08T12:20:36Z</time>
      </trkpt>
      <trkpt lat="44.9102" lon="5.55181">
        <ele>1227.5</ele>
        <time>2021-08-08T12:20:37Z</time>
      </trkpt>
      <trkpt lat="44.91024" lon="5.55177">
        <ele>1227.4</ele>
        <time>2021-08-08T12:20:38Z</time>
      </trkpt>
      <trkpt lat="44.91028" lon="5.55172">
        <ele>1227.4</ele>
        <time>2021-08-08T12:20:40Z</time>
      </trkpt>
      <trkpt lat="44.91032" lon="5.55168">
        <ele>1227.3</ele>
        <time>2021-08-08T12:20:41Z</time>
      </trkpt>
      <trkpt lat="44.91036" lon="5.55164">
        <ele>1227.2</ele>
        <time>2021-08-08T12:20:42Z</time>
      </trkpt>
      <trkpt lat="44.91041" lon="5.5516">
        <ele>1227</ele>
        <time>2021-08-08T12:20:43Z</time>
      </trkpt>
      <trkpt lat="44.91046" lon="5.55154">
        <ele>1226.7</ele>
        <time>2021-08-08T12:20:44Z</time>
      </trkpt>
      <trkpt lat="44.91054" lon="5.55145">
        <ele>1225.9</ele>
        <time>2021-08-08T12:20:46Z</time>
      </trkpt>
      <trkpt lat="44.91058" lon="5.5514">
        <ele>1225.4</ele>
        <time>2021-08-08T12:20:47Z</time>
      </trkpt>
      <trkpt lat="44.91075" lon="5.55123">
        <ele>1222.7</ele>
        <time>2021-08-08T12:20:50Z</time>
      </trkpt>
      <trkpt lat="44.9109" lon="5.5511">
        <ele>1220.5</ele>
        <time>2021-08-08T12:20:52Z</time>
      </trkpt>
      <trkpt lat="44.9111" lon="5.55103">
        <ele>1218.1</ele>
        <time>2021-08-08T12:20:54Z</time>
      </trkpt>
      <trkpt lat="44.91131" lon="5.55094">
        <ele>1215.6</ele>
        <time>2021-08-08T12:20:56Z</time>
      </trkpt>
      <trkpt lat="44.91149" lon="5.55077">
        <ele>1212.8</ele>
        <time>2021-08-08T12:20:58Z</time>
      </trkpt>
      <trkpt lat="44.91161" lon="5.55051">
        <ele>1210</ele>
        <time>2021-08-08T12:21:00Z</time>
      </trkpt>
      <trkpt lat="44.91167" lon="5.55036">
        <ele>1208.3</ele>
        <time>2021-08-08T12:21:01Z</time>
      </trkpt>
      <trkpt lat="44.91186" lon="5.55">
        <ele>1204.1</ele>
        <time>2021-08-08T12:21:04Z</time>
      </trkpt>
      <trkpt lat="44.91194" lon="5.54989">
        <ele>1202.8</ele>
        <time>2021-08-08T12:21:05Z</time>
      </trkpt>
      <trkpt lat="44.91211" lon="5.54974">
        <ele>1200.1</ele>
        <time>2021-08-08T12:21:07Z</time>
      </trkpt>
      <trkpt lat="44.91221" lon="5.5497">
        <ele>1198.5</ele>
        <time>2021-08-08T12:21:08Z</time>
      </trkpt>
      <trkpt lat="44.91243" lon="5.54961">
        <ele>1195.4</ele>
        <time>2021-08-08T12:21:10Z</time>
      </trkpt>
      <trkpt lat="44.91254" lon="5.54957">
        <ele>1193.9</ele>
        <time>2021-08-08T12:21:12Z</time>
      </trkpt>
      <trkpt lat="44.91278" lon="5.54949">
        <ele>1190.5</ele>
        <time>2021-08-08T12:21:13Z</time>
      </trkpt>
      <trkpt lat="44.91306" lon="5.54943">
        <ele>1186.6</ele>
        <time>2021-08-08T12:21:15Z</time>
      </trkpt>
      <trkpt lat="44.91331" lon="5.54944">
        <ele>1183.1</ele>
        <time>2021-08-08T12:21:17Z</time>
      </trkpt>
      <trkpt lat="44.91341" lon="5.54946">
        <ele>1181.8</ele>
        <time>2021-08-08T12:21:18Z</time>
      </trkpt>
      <trkpt lat="44.9135" lon="5.54948">
        <ele>1180.6</ele>
        <time>2021-08-08T12:21:19Z</time>
      </trkpt>
      <trkpt lat="44.91364" lon="5.54958">
        <ele>1178.5</ele>
        <time>2021-08-08T12:21:21Z</time>
      </trkpt>
      <trkpt lat="44.91368" lon="5.54967">
        <ele>1177.4</ele>
        <time>2021-08-08T12:21:22Z</time>
      </trkpt>
      <trkpt lat="44.91373" lon="5.54973">
        <ele>1176.5</ele>
        <time>2021-08-08T12:21:24Z</time>
      </trkpt>
      <trkpt lat="44.91389" lon="5.54974">
        <ele>1174.3</ele>
        <time>2021-08-08T12:21:26Z</time>
      </trkpt>
      <trkpt lat="44.91407" lon="5.54966">
        <ele>1171.7</ele>
        <time>2021-08-08T12:21:27Z</time>
      </trkpt>
      <trkpt lat="44.91418" lon="5.54962">
        <ele>1170.3</ele>
        <time>2021-08-08T12:21:28Z</time>
      </trkpt>
      <trkpt lat="44.9145" lon="5.5494">
        <ele>1165.7</ele>
        <time>2021-08-08T12:21:31Z</time>
      </trkpt>
      <trkpt lat="44.9147" lon="5.54919">
        <ele>1162.5</ele>
        <time>2021-08-08T12:21:33Z</time>
      </trkpt>
      <trkpt lat="44.9149" lon="5.54894">
        <ele>1159.1</ele>
        <time>2021-08-08T12:21:35Z</time>
      </trkpt>
      <trkpt lat="44.91509" lon="5.54865">
        <ele>1155.6</ele>
        <time>2021-08-08T12:21:37Z</time>
      </trkpt>
      <trkpt lat="44.91527" lon="5.54839">
        <ele>1152</ele>
        <time>2021-08-08T12:21:39Z</time>
      </trkpt>
      <trkpt lat="44.91546" lon="5.54823">
        <ele>1148.8</ele>
        <time>2021-08-08T12:21:41Z</time>
      </trkpt>
      <trkpt lat="44.91556" lon="5.54819">
        <ele>1147.1</ele>
        <time>2021-08-08T12:21:42Z</time>
      </trkpt>
      <trkpt lat="44.91577" lon="5.54811">
        <ele>1143.6</ele>
        <time>2021-08-08T12:21:45Z</time>
      </trkpt>
      <trkpt lat="44.91602" lon="5.54802">
        <ele>1140.1</ele>
        <time>2021-08-08T12:21:46Z</time>
      </trkpt>
      <trkpt lat="44.91616" lon="5.548">
        <ele>1138.5</ele>
        <time>2021-08-08T12:21:47Z</time>
      </trkpt>
      <trkpt lat="44.91643" lon="5.54793">
        <ele>1135.5</ele>
        <time>2021-08-08T12:21:49Z</time>
      </trkpt>
      <trkpt lat="44.91653" lon="5.5479">
        <ele>1134.1</ele>
        <time>2021-08-08T12:21:51Z</time>
      </trkpt>
      <trkpt lat="44.91672" lon="5.54791">
        <ele>1131.6</ele>
        <time>2021-08-08T12:21:52Z</time>
      </trkpt>
      <trkpt lat="44.91681" lon="5.54783">
        <ele>1130.2</ele>
        <time>2021-08-08T12:21:55Z</time>
      </trkpt>
      <trkpt lat="44.9167" lon="5.54776">
        <ele>1129.3</ele>
        <time>2021-08-08T12:21:57Z</time>
      </trkpt>
      <trkpt lat="44.91662" lon="5.54775">
        <ele>1128.4</ele>
        <time>2021-08-08T12:21:58Z</time>
      </trkpt>
      <trkpt lat="44.91654" lon="5.54773">
        <ele>1127.4</ele>
        <time>2021-08-08T12:21:59Z</time>
      </trkpt>
      <trkpt lat="44.91637" lon="5.5477">
        <ele>1125.2</ele>
        <time>2021-08-08T12:22:01Z</time>
      </trkpt>
      <trkpt lat="44.91617" lon="5.5477">
        <ele>1122.8</ele>
        <time>2021-08-08T12:22:03Z</time>
      </trkpt>
      <trkpt lat="44.91606" lon="5.54769">
        <ele>1121.7</ele>
        <time>2021-08-08T12:22:04Z</time>
      </trkpt>
      <trkpt lat="44.91583" lon="5.54763">
        <ele>1119.7</ele>
        <time>2021-08-08T12:22:07Z</time>
      </trkpt>
      <trkpt lat="44.9156" lon="5.54759">
        <ele>1117.7</ele>
        <time>2021-08-08T12:22:09Z</time>
      </trkpt>
      <trkpt lat="44.91538" lon="5.54756">
        <ele>1115.5</ele>
        <time>2021-08-08T12:22:10Z</time>
      </trkpt>
      <trkpt lat="44.91526" lon="5.54751">
        <ele>1114.3</ele>
        <time>2021-08-08T12:22:11Z</time>
      </trkpt>
      <trkpt lat="44.91505" lon="5.54735">
        <ele>1111.5</ele>
        <time>2021-08-08T12:22:13Z</time>
      </trkpt>
      <trkpt lat="44.91493" lon="5.54728">
        <ele>1110.2</ele>
        <time>2021-08-08T12:22:15Z</time>
      </trkpt>
      <trkpt lat="44.91462" lon="5.54721">
        <ele>1107.8</ele>
        <time>2021-08-08T12:22:17Z</time>
      </trkpt>
      <trkpt lat="44.91455" lon="5.54721">
        <ele>1107.2</ele>
        <time>2021-08-08T12:22:19Z</time>
      </trkpt>
      <trkpt lat="44.91453" lon="5.54713">
        <ele>1106.6</ele>
        <time>2021-08-08T12:22:21Z</time>
      </trkpt>
      <trkpt lat="44.91456" lon="5.54709">
        <ele>1105.6</ele>
        <time>2021-08-08T12:22:22Z</time>
      </trkpt>
      <trkpt lat="44.9146" lon="5.54704">
        <ele>1104.9</ele>
        <time>2021-08-08T12:22:23Z</time>
      </trkpt>
      <trkpt lat="44.91472" lon="5.54702">
        <ele>1103.6</ele>
        <time>2021-08-08T12:22:25Z</time>
      </trkpt>
      <trkpt lat="44.91478" lon="5.54701">
        <ele>1103</ele>
        <time>2021-08-08T12:22:27Z</time>
      </trkpt>
      <trkpt lat="44.9148" lon="5.54698">
        <ele>1102.6</ele>
        <time>2021-08-08T12:22:28Z</time>
      </trkpt>
      <trkpt lat="44.91478" lon="5.54701">
        <ele>1102.3</ele>
        <time>2021-08-08T12:22:30Z</time>
      </trkpt>
      <trkpt lat="44.91478" lon="5.54702">
        <ele>1102.3</ele>
        <time>2021-08-08T12:22:31Z</time>
      </trkpt>
      <trkpt lat="44.91478" lon="5.54702">
        <ele>1102.2</ele>
        <time>2021-08-08T12:22:33Z</time>
      </trkpt>
      <trkpt lat="44.91479" lon="5.54703">
        <ele>1102.2</ele>
        <time>2021-08-08T12:22:34Z</time>
      </trkpt>
      <trkpt lat="44.91479" lon="5.54703">
        <ele>1102.2</ele>
        <time>2021-08-08T12:22:36Z</time>
      </trkpt>
      <trkpt lat="44.91479" lon="5.54703">
        <ele>1102.2</ele>
        <time>2021-08-08T12:22:38Z</time>
      </trkpt>
      <trkpt lat="44.91486" lon="5.54702">
        <ele>1101.5</ele>
        <time>2021-08-08T12:22:54Z</time>
      </trkpt>
      <trkpt lat="44.9149" lon="5.54702">
        <ele>1101.2</ele>
        <time>2021-08-08T12:22:55Z</time>
      </trkpt>
      <trkpt lat="44.91501" lon="5.54703">
        <ele>1100.1</ele>
        <time>2021-08-08T12:22:56Z</time>
      </trkpt>
      <trkpt lat="44.91507" lon="5.54701">
        <ele>1099.4</ele>
        <time>2021-08-08T12:22:57Z</time>
      </trkpt>
      <trkpt lat="44.9152" lon="5.54699">
        <ele>1098.1</ele>
        <time>2021-08-08T12:23:00Z</time>
      </trkpt>
      <trkpt lat="44.91527" lon="5.54696">
        <ele>1097.3</ele>
        <time>2021-08-08T12:23:01Z</time>
      </trkpt>
      <trkpt lat="44.91534" lon="5.54692">
        <ele>1096.5</ele>
        <time>2021-08-08T12:23:02Z</time>
      </trkpt>
      <trkpt lat="44.9155" lon="5.54681">
        <ele>1094.8</ele>
        <time>2021-08-08T12:23:03Z</time>
      </trkpt>
      <trkpt lat="44.91567" lon="5.5467">
        <ele>1092.9</ele>
        <time>2021-08-08T12:23:06Z</time>
      </trkpt>
      <trkpt lat="44.91576" lon="5.54665">
        <ele>1092</ele>
        <time>2021-08-08T12:23:07Z</time>
      </trkpt>
      <trkpt lat="44.91596" lon="5.54657">
        <ele>1090</ele>
        <time>2021-08-08T12:23:08Z</time>
      </trkpt>
      <trkpt lat="44.91617" lon="5.5465">
        <ele>1087.7</ele>
        <time>2021-08-08T12:23:11Z</time>
      </trkpt>
      <trkpt lat="44.91639" lon="5.54646">
        <ele>1085.6</ele>
        <time>2021-08-08T12:23:12Z</time>
      </trkpt>
      <trkpt lat="44.91661" lon="5.54644">
        <ele>1083.6</ele>
        <time>2021-08-08T12:23:14Z</time>
      </trkpt>
      <trkpt lat="44.91685" lon="5.5464">
        <ele>1081.3</ele>
        <time>2021-08-08T12:23:17Z</time>
      </trkpt>
      <trkpt lat="44.91697" lon="5.54637">
        <ele>1080.1</ele>
        <time>2021-08-08T12:23:18Z</time>
      </trkpt>
      <trkpt lat="44.91709" lon="5.54636">
        <ele>1078.8</ele>
        <time>2021-08-08T12:23:19Z</time>
      </trkpt>
      <trkpt lat="44.91734" lon="5.54634">
        <ele>1076.6</ele>
        <time>2021-08-08T12:23:20Z</time>
      </trkpt>
      <trkpt lat="44.91758" lon="5.54634">
        <ele>1074.4</ele>
        <time>2021-08-08T12:23:22Z</time>
      </trkpt>
      <trkpt lat="44.91783" lon="5.54633">
        <ele>1072.1</ele>
        <time>2021-08-08T12:23:24Z</time>
      </trkpt>
      <trkpt lat="44.91795" lon="5.5463">
        <ele>1070.9</ele>
        <time>2021-08-08T12:23:25Z</time>
      </trkpt>
      <trkpt lat="44.9182" lon="5.5462">
        <ele>1068.7</ele>
        <time>2021-08-08T12:23:27Z</time>
      </trkpt>
      <trkpt lat="44.91832" lon="5.5461">
        <ele>1067.5</ele>
        <time>2021-08-08T12:23:29Z</time>
      </trkpt>
      <trkpt lat="44.91842" lon="5.54598">
        <ele>1066.2</ele>
        <time>2021-08-08T12:23:30Z</time>
      </trkpt>
      <trkpt lat="44.91859" lon="5.54575">
        <ele>1063.8</ele>
        <time>2021-08-08T12:23:31Z</time>
      </trkpt>
      <trkpt lat="44.91869" lon="5.54568">
        <ele>1062.6</ele>
        <time>2021-08-08T12:23:33Z</time>
      </trkpt>
      <trkpt lat="44.91894" lon="5.54557">
        <ele>1060.1</ele>
        <time>2021-08-08T12:23:34Z</time>
      </trkpt>
      <trkpt lat="44.91907" lon="5.54552">
        <ele>1058.9</ele>
        <time>2021-08-08T12:23:36Z</time>
      </trkpt>
      <trkpt lat="44.9193" lon="5.54539">
        <ele>1056.4</ele>
        <time>2021-08-08T12:23:37Z</time>
      </trkpt>
      <trkpt lat="44.91955" lon="5.54528">
        <ele>1053.6</ele>
        <time>2021-08-08T12:23:39Z</time>
      </trkpt>
      <trkpt lat="44.91981" lon="5.5452">
        <ele>1050.9</ele>
        <time>2021-08-08T12:23:42Z</time>
      </trkpt>
      <trkpt lat="44.92005" lon="5.54521">
        <ele>1049.2</ele>
        <time>2021-08-08T12:23:43Z</time>
      </trkpt>
      <trkpt lat="44.9203" lon="5.54521">
        <ele>1048</ele>
        <time>2021-08-08T12:23:45Z</time>
      </trkpt>
      <trkpt lat="44.92042" lon="5.54521">
        <ele>1047.5</ele>
        <time>2021-08-08T12:23:46Z</time>
      </trkpt>
      <trkpt lat="44.92054" lon="5.54521">
        <ele>1047</ele>
        <time>2021-08-08T12:23:48Z</time>
      </trkpt>
      <trkpt lat="44.92077" lon="5.54518">
        <ele>1046</ele>
        <time>2021-08-08T12:23:49Z</time>
      </trkpt>
      <trkpt lat="44.92088" lon="5.54516">
        <ele>1045.2</ele>
        <time>2021-08-08T12:23:50Z</time>
      </trkpt>
      <trkpt lat="44.92111" lon="5.54514">
        <ele>1043.5</ele>
        <time>2021-08-08T12:23:53Z</time>
      </trkpt>
      <trkpt lat="44.92122" lon="5.54513">
        <ele>1042.8</ele>
        <time>2021-08-08T12:23:54Z</time>
      </trkpt>
      <trkpt lat="44.92143" lon="5.54505">
        <ele>1041.4</ele>
        <time>2021-08-08T12:23:55Z</time>
      </trkpt>
      <trkpt lat="44.92152" lon="5.54499">
        <ele>1040.6</ele>
        <time>2021-08-08T12:23:56Z</time>
      </trkpt>
      <trkpt lat="44.92162" lon="5.54493">
        <ele>1039.7</ele>
        <time>2021-08-08T12:23:58Z</time>
      </trkpt>
      <trkpt lat="44.92184" lon="5.54484">
        <ele>1037.2</ele>
        <time>2021-08-08T12:24:00Z</time>
      </trkpt>
      <trkpt lat="44.92207" lon="5.5448">
        <ele>1034.7</ele>
        <time>2021-08-08T12:24:02Z</time>
      </trkpt>
      <trkpt lat="44.9223" lon="5.54478">
        <ele>1032.1</ele>
        <time>2021-08-08T12:24:03Z</time>
      </trkpt>
      <trkpt lat="44.92252" lon="5.54471">
        <ele>1029.5</ele>
        <time>2021-08-08T12:24:06Z</time>
      </trkpt>
      <trkpt lat="44.92272" lon="5.54475">
        <ele>1027.3</ele>
        <time>2021-08-08T12:24:07Z</time>
      </trkpt>
      <trkpt lat="44.92284" lon="5.5448">
        <ele>1026.1</ele>
        <time>2021-08-08T12:24:08Z</time>
      </trkpt>
      <trkpt lat="44.92308" lon="5.54484">
        <ele>1023.7</ele>
        <time>2021-08-08T12:24:10Z</time>
      </trkpt>
      <trkpt lat="44.92321" lon="5.54484">
        <ele>1022.4</ele>
        <time>2021-08-08T12:24:12Z</time>
      </trkpt>
      <trkpt lat="44.92346" lon="5.5449">
        <ele>1019.8</ele>
        <time>2021-08-08T12:24:13Z</time>
      </trkpt>
      <trkpt lat="44.92359" lon="5.54495">
        <ele>1018.4</ele>
        <time>2021-08-08T12:24:14Z</time>
      </trkpt>
      <trkpt lat="44.92384" lon="5.54504">
        <ele>1016</ele>
        <time>2021-08-08T12:24:16Z</time>
      </trkpt>
      <trkpt lat="44.92398" lon="5.54508">
        <ele>1015</ele>
        <time>2021-08-08T12:24:18Z</time>
      </trkpt>
      <trkpt lat="44.92411" lon="5.54511">
        <ele>1014.2</ele>
        <time>2021-08-08T12:24:19Z</time>
      </trkpt>
      <trkpt lat="44.92444" lon="5.54523">
        <ele>1012.7</ele>
        <time>2021-08-08T12:24:21Z</time>
      </trkpt>
      <trkpt lat="44.92454" lon="5.54525">
        <ele>1012.3</ele>
        <time>2021-08-08T12:24:22Z</time>
      </trkpt>
      <trkpt lat="44.92465" lon="5.54528">
        <ele>1011.8</ele>
        <time>2021-08-08T12:24:24Z</time>
      </trkpt>
      <trkpt lat="44.92486" lon="5.54535">
        <ele>1010.6</ele>
        <time>2021-08-08T12:24:25Z</time>
      </trkpt>
      <trkpt lat="44.92496" lon="5.54541">
        <ele>1009.9</ele>
        <time>2021-08-08T12:24:26Z</time>
      </trkpt>
      <trkpt lat="44.92513" lon="5.54557">
        <ele>1008.5</ele>
        <time>2021-08-08T12:24:29Z</time>
      </trkpt>
      <trkpt lat="44.92523" lon="5.54564">
        <ele>1007.8</ele>
        <time>2021-08-08T12:24:30Z</time>
      </trkpt>
      <trkpt lat="44.92544" lon="5.54569">
        <ele>1006.6</ele>
        <time>2021-08-08T12:24:31Z</time>
      </trkpt>
      <trkpt lat="44.92564" lon="5.54561">
        <ele>1006.5</ele>
        <time>2021-08-08T12:24:33Z</time>
      </trkpt>
      <trkpt lat="44.92574" lon="5.54556">
        <ele>1006.4</ele>
        <time>2021-08-08T12:24:35Z</time>
      </trkpt>
      <trkpt lat="44.92583" lon="5.54551">
        <ele>1006.3</ele>
        <time>2021-08-08T12:24:36Z</time>
      </trkpt>
      <trkpt lat="44.92603" lon="5.5455">
        <ele>1006.3</ele>
        <time>2021-08-08T12:24:37Z</time>
      </trkpt>
      <trkpt lat="44.92613" lon="5.54552">
        <ele>1006.3</ele>
        <time>2021-08-08T12:24:38Z</time>
      </trkpt>
      <trkpt lat="44.92629" lon="5.54561">
        <ele>1006.4</ele>
        <time>2021-08-08T12:24:40Z</time>
      </trkpt>
      <trkpt lat="44.92637" lon="5.54565">
        <ele>1006.5</ele>
        <time>2021-08-08T12:24:42Z</time>
      </trkpt>
      <trkpt lat="44.92652" lon="5.54574">
        <ele>1006.6</ele>
        <time>2021-08-08T12:24:43Z</time>
      </trkpt>
      <trkpt lat="44.92666" lon="5.54578">
        <ele>1006.6</ele>
        <time>2021-08-08T12:24:45Z</time>
      </trkpt>
      <trkpt lat="44.92672" lon="5.54579">
        <ele>1006.6</ele>
        <time>2021-08-08T12:24:46Z</time>
      </trkpt>
      <trkpt lat="44.92687" lon="5.54579">
        <ele>1006.6</ele>
        <time>2021-08-08T12:24:48Z</time>
      </trkpt>
      <trkpt lat="44.927" lon="5.54579">
        <ele>1006.7</ele>
        <time>2021-08-08T12:24:50Z</time>
      </trkpt>
      <trkpt lat="44.92713" lon="5.54576">
        <ele>1006.7</ele>
        <time>2021-08-08T12:24:52Z</time>
      </trkpt>
      <trkpt lat="44.92725" lon="5.54568">
        <ele>1006.7</ele>
        <time>2021-08-08T12:24:54Z</time>
      </trkpt>
      <trkpt lat="44.9273" lon="5.54562">
        <ele>1006.7</ele>
        <time>2021-08-08T12:24:55Z</time>
      </trkpt>
      <trkpt lat="44.92742" lon="5.54555">
        <ele>1006.7</ele>
        <time>2021-08-08T12:24:57Z</time>
      </trkpt>
      <trkpt lat="44.92749" lon="5.54554">
        <ele>1006.6</ele>
        <time>2021-08-08T12:24:58Z</time>
      </trkpt>
      <trkpt lat="44.92763" lon="5.54556">
        <ele>1006.5</ele>
        <time>2021-08-08T12:25:00Z</time>
      </trkpt>
      <trkpt lat="44.92778" lon="5.54557">
        <ele>1006.5</ele>
        <time>2021-08-08T12:25:02Z</time>
      </trkpt>
      <trkpt lat="44.92791" lon="5.54552">
        <ele>1006.6</ele>
        <time>2021-08-08T12:25:04Z</time>
      </trkpt>
      <trkpt lat="44.92803" lon="5.54546">
        <ele>1006.7</ele>
        <time>2021-08-08T12:25:06Z</time>
      </trkpt>
      <trkpt lat="44.92814" lon="5.5454">
        <ele>1006.8</ele>
        <time>2021-08-08T12:25:09Z</time>
      </trkpt>
      <trkpt lat="44.92826" lon="5.54534">
        <ele>1007</ele>
        <time>2021-08-08T12:25:10Z</time>
      </trkpt>
      <trkpt lat="44.92837" lon="5.54529">
        <ele>1007.2</ele>
        <time>2021-08-08T12:25:12Z</time>
      </trkpt>
      <trkpt lat="44.92843" lon="5.54527">
        <ele>1007.3</ele>
        <time>2021-08-08T12:25:14Z</time>
      </trkpt>
      <trkpt lat="44.92855" lon="5.54522">
        <ele>1007.5</ele>
        <time>2021-08-08T12:25:15Z</time>
      </trkpt>
      <trkpt lat="44.92861" lon="5.5452">
        <ele>1007.6</ele>
        <time>2021-08-08T12:25:17Z</time>
      </trkpt>
      <trkpt lat="44.92871" lon="5.54517">
        <ele>1007.8</ele>
        <time>2021-08-08T12:25:18Z</time>
      </trkpt>
      <trkpt lat="44.92881" lon="5.54517">
        <ele>1007.9</ele>
        <time>2021-08-08T12:25:20Z</time>
      </trkpt>
      <trkpt lat="44.92886" lon="5.54517">
        <ele>1008</ele>
        <time>2021-08-08T12:25:22Z</time>
      </trkpt>
      <trkpt lat="44.92891" lon="5.54519">
        <ele>1008.1</ele>
        <time>2021-08-08T12:25:23Z</time>
      </trkpt>
      <trkpt lat="44.929" lon="5.54524">
        <ele>1008.2</ele>
        <time>2021-08-08T12:25:25Z</time>
      </trkpt>
      <trkpt lat="44.92905" lon="5.54526">
        <ele>1008.2</ele>
        <time>2021-08-08T12:25:26Z</time>
      </trkpt>
      <trkpt lat="44.92914" lon="5.5453">
        <ele>1008.3</ele>
        <time>2021-08-08T12:25:28Z</time>
      </trkpt>
      <trkpt lat="44.92918" lon="5.5453">
        <ele>1008.3</ele>
        <time>2021-08-08T12:25:29Z</time>
      </trkpt>
      <trkpt lat="44.92927" lon="5.54529">
        <ele>1008.4</ele>
        <time>2021-08-08T12:25:30Z</time>
      </trkpt>
      <trkpt lat="44.92933" lon="5.54529">
        <ele>1008.5</ele>
        <time>2021-08-08T12:25:31Z</time>
      </trkpt>
      <trkpt lat="44.92938" lon="5.54527">
        <ele>1008.5</ele>
        <time>2021-08-08T12:25:32Z</time>
      </trkpt>
      <trkpt lat="44.92949" lon="5.54525">
        <ele>1008.7</ele>
        <time>2021-08-08T12:25:34Z</time>
      </trkpt>
      <trkpt lat="44.92959" lon="5.54523">
        <ele>1008.8</ele>
        <time>2021-08-08T12:25:37Z</time>
      </trkpt>
      <trkpt lat="44.9297" lon="5.54522">
        <ele>1009</ele>
        <time>2021-08-08T12:25:38Z</time>
      </trkpt>
      <trkpt lat="44.92979" lon="5.54522">
        <ele>1009</ele>
        <time>2021-08-08T12:25:40Z</time>
      </trkpt>
      <trkpt lat="44.92983" lon="5.54522">
        <ele>1009.1</ele>
        <time>2021-08-08T12:25:41Z</time>
      </trkpt>
      <trkpt lat="44.92988" lon="5.54521">
        <ele>1009.1</ele>
        <time>2021-08-08T12:25:42Z</time>
      </trkpt>
      <trkpt lat="44.92997" lon="5.54523">
        <ele>1009.2</ele>
        <time>2021-08-08T12:25:44Z</time>
      </trkpt>
      <trkpt lat="44.93007" lon="5.54526">
        <ele>1009.3</ele>
        <time>2021-08-08T12:25:46Z</time>
      </trkpt>
      <trkpt lat="44.93012" lon="5.54528">
        <ele>1009.3</ele>
        <time>2021-08-08T12:25:48Z</time>
      </trkpt>
      <trkpt lat="44.93021" lon="5.54532">
        <ele>1009.3</ele>
        <time>2021-08-08T12:25:49Z</time>
      </trkpt>
      <trkpt lat="44.93026" lon="5.54535">
        <ele>1009.3</ele>
        <time>2021-08-08T12:25:50Z</time>
      </trkpt>
      <trkpt lat="44.93035" lon="5.54538">
        <ele>1009.4</ele>
        <time>2021-08-08T12:25:53Z</time>
      </trkpt>
      <trkpt lat="44.93045" lon="5.54541">
        <ele>1009.4</ele>
        <time>2021-08-08T12:25:54Z</time>
      </trkpt>
      <trkpt lat="44.9305" lon="5.54541">
        <ele>1009.4</ele>
        <time>2021-08-08T12:25:55Z</time>
      </trkpt>
      <trkpt lat="44.93059" lon="5.54539">
        <ele>1009.4</ele>
        <time>2021-08-08T12:25:57Z</time>
      </trkpt>
      <trkpt lat="44.9307" lon="5.54536">
        <ele>1009.4</ele>
        <time>2021-08-08T12:26:00Z</time>
      </trkpt>
      <trkpt lat="44.93078" lon="5.54526">
        <ele>1009.3</ele>
        <time>2021-08-08T12:26:01Z</time>
      </trkpt>
      <trkpt lat="44.93081" lon="5.5452">
        <ele>1009.3</ele>
        <time>2021-08-08T12:26:02Z</time>
      </trkpt>
      <trkpt lat="44.93086" lon="5.54505">
        <ele>1009.1</ele>
        <time>2021-08-08T12:26:04Z</time>
      </trkpt>
      <trkpt lat="44.93087" lon="5.54498">
        <ele>1009.1</ele>
        <time>2021-08-08T12:26:06Z</time>
      </trkpt>
      <trkpt lat="44.93092" lon="5.54481">
        <ele>1008.9</ele>
        <time>2021-08-08T12:26:07Z</time>
      </trkpt>
      <trkpt lat="44.93095" lon="5.54466">
        <ele>1008.9</ele>
        <time>2021-08-08T12:26:09Z</time>
      </trkpt>
      <trkpt lat="44.93097" lon="5.54457">
        <ele>1008.9</ele>
        <time>2021-08-08T12:26:10Z</time>
      </trkpt>
      <trkpt lat="44.931" lon="5.54448">
        <ele>1008.8</ele>
        <time>2021-08-08T12:26:12Z</time>
      </trkpt>
      <trkpt lat="44.9311" lon="5.54436">
        <ele>1008.7</ele>
        <time>2021-08-08T12:26:13Z</time>
      </trkpt>
      <trkpt lat="44.93117" lon="5.54435">
        <ele>1008.5</ele>
        <time>2021-08-08T12:26:14Z</time>
      </trkpt>
      <trkpt lat="44.9313" lon="5.54446">
        <ele>1008.1</ele>
        <time>2021-08-08T12:26:16Z</time>
      </trkpt>
      <trkpt lat="44.9314" lon="5.54462">
        <ele>1007.9</ele>
        <time>2021-08-08T12:26:18Z</time>
      </trkpt>
      <trkpt lat="44.93148" lon="5.54477">
        <ele>1007.8</ele>
        <time>2021-08-08T12:26:20Z</time>
      </trkpt>
      <trkpt lat="44.93152" lon="5.54485">
        <ele>1007.9</ele>
        <time>2021-08-08T12:26:21Z</time>
      </trkpt>
      <trkpt lat="44.93155" lon="5.54493">
        <ele>1007.9</ele>
        <time>2021-08-08T12:26:22Z</time>
      </trkpt>
      <trkpt lat="44.93162" lon="5.54508">
        <ele>1008.2</ele>
        <time>2021-08-08T12:26:25Z</time>
      </trkpt>
      <trkpt lat="44.93168" lon="5.54522">
        <ele>1008.4</ele>
        <time>2021-08-08T12:26:26Z</time>
      </trkpt>
      <trkpt lat="44.93171" lon="5.54527">
        <ele>1008.6</ele>
        <time>2021-08-08T12:26:27Z</time>
      </trkpt>
      <trkpt lat="44.93174" lon="5.54532">
        <ele>1008.7</ele>
        <time>2021-08-08T12:26:28Z</time>
      </trkpt>
      <trkpt lat="44.93177" lon="5.54537">
        <ele>1008.8</ele>
        <time>2021-08-08T12:26:29Z</time>
      </trkpt>
      <trkpt lat="44.93184" lon="5.54543">
        <ele>1008.9</ele>
        <time>2021-08-08T12:26:32Z</time>
      </trkpt>
      <trkpt lat="44.93188" lon="5.54546">
        <ele>1009</ele>
        <time>2021-08-08T12:26:33Z</time>
      </trkpt>
      <trkpt lat="44.93195" lon="5.54551">
        <ele>1009.2</ele>
        <time>2021-08-08T12:26:34Z</time>
      </trkpt>
      <trkpt lat="44.93198" lon="5.54552">
        <ele>1009.3</ele>
        <time>2021-08-08T12:26:35Z</time>
      </trkpt>
      <trkpt lat="44.93208" lon="5.54552">
        <ele>1009.5</ele>
        <time>2021-08-08T12:26:37Z</time>
      </trkpt>
      <trkpt lat="44.93213" lon="5.54551">
        <ele>1009.7</ele>
        <time>2021-08-08T12:26:39Z</time>
      </trkpt>
      <trkpt lat="44.93216" lon="5.54553">
        <ele>1009.8</ele>
        <time>2021-08-08T12:26:40Z</time>
      </trkpt>
      <trkpt lat="44.93228" lon="5.54551">
        <ele>1010</ele>
        <time>2021-08-08T12:26:43Z</time>
      </trkpt>
      <trkpt lat="44.93233" lon="5.54548">
        <ele>1010.1</ele>
        <time>2021-08-08T12:26:44Z</time>
      </trkpt>
      <trkpt lat="44.93243" lon="5.54547">
        <ele>1010.3</ele>
        <time>2021-08-08T12:26:45Z</time>
      </trkpt>
      <trkpt lat="44.93248" lon="5.54546">
        <ele>1010.3</ele>
        <time>2021-08-08T12:26:46Z</time>
      </trkpt>
      <trkpt lat="44.93259" lon="5.54545">
        <ele>1010.3</ele>
        <time>2021-08-08T12:26:48Z</time>
      </trkpt>
      <trkpt lat="44.93264" lon="5.54544">
        <ele>1010.3</ele>
        <time>2021-08-08T12:26:50Z</time>
      </trkpt>
      <trkpt lat="44.93269" lon="5.54544">
        <ele>1010.4</ele>
        <time>2021-08-08T12:26:51Z</time>
      </trkpt>
      <trkpt lat="44.9328" lon="5.54549">
        <ele>1010.5</ele>
        <time>2021-08-08T12:26:53Z</time>
      </trkpt>
      <trkpt lat="44.93293" lon="5.54555">
        <ele>1010.8</ele>
        <time>2021-08-08T12:26:55Z</time>
      </trkpt>
      <trkpt lat="44.93304" lon="5.54555">
        <ele>1011.3</ele>
        <time>2021-08-08T12:26:58Z</time>
      </trkpt>
      <trkpt lat="44.93308" lon="5.54551">
        <ele>1011.5</ele>
        <time>2021-08-08T12:26:59Z</time>
      </trkpt>
      <trkpt lat="44.93318" lon="5.54547">
        <ele>1011.8</ele>
        <time>2021-08-08T12:27:00Z</time>
      </trkpt>
      <trkpt lat="44.93323" lon="5.54545">
        <ele>1012</ele>
        <time>2021-08-08T12:27:01Z</time>
      </trkpt>
      <trkpt lat="44.93329" lon="5.54539">
        <ele>1012.2</ele>
        <time>2021-08-08T12:27:03Z</time>
      </trkpt>
      <trkpt lat="44.93331" lon="5.54534">
        <ele>1012.3</ele>
        <time>2021-08-08T12:27:05Z</time>
      </trkpt>
      <trkpt lat="44.93334" lon="5.54531">
        <ele>1012.4</ele>
        <time>2021-08-08T12:27:06Z</time>
      </trkpt>
      <trkpt lat="44.93337" lon="5.54524">
        <ele>1012.5</ele>
        <time>2021-08-08T12:27:07Z</time>
      </trkpt>
      <trkpt lat="44.9334" lon="5.54519">
        <ele>1012.6</ele>
        <time>2021-08-08T12:27:08Z</time>
      </trkpt>
      <trkpt lat="44.93342" lon="5.54512">
        <ele>1012.6</ele>
        <time>2021-08-08T12:27:09Z</time>
      </trkpt>
      <trkpt lat="44.93344" lon="5.54505">
        <ele>1012.7</ele>
        <time>2021-08-08T12:27:11Z</time>
      </trkpt>
      <trkpt lat="44.93346" lon="5.54497">
        <ele>1012.7</ele>
        <time>2021-08-08T12:27:12Z</time>
      </trkpt>
      <trkpt lat="44.93349" lon="5.54488">
        <ele>1012.8</ele>
        <time>2021-08-08T12:27:14Z</time>
      </trkpt>
      <trkpt lat="44.93352" lon="5.54481">
        <ele>1012.8</ele>
        <time>2021-08-08T12:27:15Z</time>
      </trkpt>
      <trkpt lat="44.93358" lon="5.54475">
        <ele>1012.9</ele>
        <time>2021-08-08T12:27:17Z</time>
      </trkpt>
      <trkpt lat="44.93367" lon="5.54469">
        <ele>1012.9</ele>
        <time>2021-08-08T12:27:18Z</time>
      </trkpt>
      <trkpt lat="44.93376" lon="5.54463">
        <ele>1012.9</ele>
        <time>2021-08-08T12:27:20Z</time>
      </trkpt>
      <trkpt lat="44.93388" lon="5.54465">
        <ele>1012.8</ele>
        <time>2021-08-08T12:27:23Z</time>
      </trkpt>
      <trkpt lat="44.93397" lon="5.54475">
        <ele>1012.7</ele>
        <time>2021-08-08T12:27:24Z</time>
      </trkpt>
      <trkpt lat="44.93406" lon="5.54487">
        <ele>1012.7</ele>
        <time>2021-08-08T12:27:26Z</time>
      </trkpt>
      <trkpt lat="44.93409" lon="5.54493">
        <ele>1012.8</ele>
        <time>2021-08-08T12:27:28Z</time>
      </trkpt>
      <trkpt lat="44.93416" lon="5.54504">
        <ele>1012.9</ele>
        <time>2021-08-08T12:27:29Z</time>
      </trkpt>
      <trkpt lat="44.93419" lon="5.5451">
        <ele>1013</ele>
        <time>2021-08-08T12:27:30Z</time>
      </trkpt>
      <trkpt lat="44.93422" lon="5.54516">
        <ele>1013.1</ele>
        <time>2021-08-08T12:27:31Z</time>
      </trkpt>
      <trkpt lat="44.93428" lon="5.54529">
        <ele>1013.3</ele>
        <time>2021-08-08T12:27:34Z</time>
      </trkpt>
      <trkpt lat="44.93434" lon="5.54541">
        <ele>1013.6</ele>
        <time>2021-08-08T12:27:35Z</time>
      </trkpt>
      <trkpt lat="44.93438" lon="5.54547">
        <ele>1013.7</ele>
        <time>2021-08-08T12:27:36Z</time>
      </trkpt>
      <trkpt lat="44.93441" lon="5.54551">
        <ele>1013.9</ele>
        <time>2021-08-08T12:27:37Z</time>
      </trkpt>
      <trkpt lat="44.93446" lon="5.54555">
        <ele>1014</ele>
        <time>2021-08-08T12:27:38Z</time>
      </trkpt>
      <trkpt lat="44.93454" lon="5.54558">
        <ele>1014.2</ele>
        <time>2021-08-08T12:27:41Z</time>
      </trkpt>
      <trkpt lat="44.93457" lon="5.54556">
        <ele>1014.2</ele>
        <time>2021-08-08T12:27:42Z</time>
      </trkpt>
      <trkpt lat="44.93466" lon="5.54551">
        <ele>1014.4</ele>
        <time>2021-08-08T12:27:43Z</time>
      </trkpt>
      <trkpt lat="44.93469" lon="5.54548">
        <ele>1014.4</ele>
        <time>2021-08-08T12:27:44Z</time>
      </trkpt>
      <trkpt lat="44.93476" lon="5.54545">
        <ele>1014.5</ele>
        <time>2021-08-08T12:27:46Z</time>
      </trkpt>
      <trkpt lat="44.9348" lon="5.54543">
        <ele>1014.6</ele>
        <time>2021-08-08T12:27:47Z</time>
      </trkpt>
      <trkpt lat="44.93484" lon="5.54544">
        <ele>1014.7</ele>
        <time>2021-08-08T12:27:49Z</time>
      </trkpt>
      <trkpt lat="44.9349" lon="5.54546">
        <ele>1014.8</ele>
        <time>2021-08-08T12:27:50Z</time>
      </trkpt>
      <trkpt lat="44.93494" lon="5.54545">
        <ele>1014.9</ele>
        <time>2021-08-08T12:27:51Z</time>
      </trkpt>
      <trkpt lat="44.93499" lon="5.54545">
        <ele>1015</ele>
        <time>2021-08-08T12:27:52Z</time>
      </trkpt>
      <trkpt lat="44.93503" lon="5.54545">
        <ele>1015.1</ele>
        <time>2021-08-08T12:27:53Z</time>
      </trkpt>
      <trkpt lat="44.93507" lon="5.54546">
        <ele>1015.3</ele>
        <time>2021-08-08T12:27:55Z</time>
      </trkpt>
      <trkpt lat="44.93511" lon="5.54546">
        <ele>1015.4</ele>
        <time>2021-08-08T12:27:56Z</time>
      </trkpt>
      <trkpt lat="44.93516" lon="5.54547">
        <ele>1015.5</ele>
        <time>2021-08-08T12:27:57Z</time>
      </trkpt>
      <trkpt lat="44.93521" lon="5.54547">
        <ele>1015.6</ele>
        <time>2021-08-08T12:27:58Z</time>
      </trkpt>
      <trkpt lat="44.93525" lon="5.54547">
        <ele>1015.8</ele>
        <time>2021-08-08T12:27:59Z</time>
      </trkpt>
      <trkpt lat="44.93531" lon="5.54546">
        <ele>1016</ele>
        <time>2021-08-08T12:28:00Z</time>
      </trkpt>
      <trkpt lat="44.93537" lon="5.54543">
        <ele>1016.2</ele>
        <time>2021-08-08T12:28:02Z</time>
      </trkpt>
      <trkpt lat="44.93543" lon="5.54542">
        <ele>1016.4</ele>
        <time>2021-08-08T12:28:03Z</time>
      </trkpt>
      <trkpt lat="44.93547" lon="5.5454">
        <ele>1016.5</ele>
        <time>2021-08-08T12:28:04Z</time>
      </trkpt>
      <trkpt lat="44.93552" lon="5.54537">
        <ele>1016.7</ele>
        <time>2021-08-08T12:28:06Z</time>
      </trkpt>
      <trkpt lat="44.93556" lon="5.54535">
        <ele>1016.9</ele>
        <time>2021-08-08T12:28:07Z</time>
      </trkpt>
      <trkpt lat="44.9356" lon="5.54532">
        <ele>1017</ele>
        <time>2021-08-08T12:28:08Z</time>
      </trkpt>
      <trkpt lat="44.93564" lon="5.54529">
        <ele>1017.2</ele>
        <time>2021-08-08T12:28:09Z</time>
      </trkpt>
      <trkpt lat="44.9357" lon="5.54524">
        <ele>1017.4</ele>
        <time>2021-08-08T12:28:11Z</time>
      </trkpt>
      <trkpt lat="44.93573" lon="5.5452">
        <ele>1017.5</ele>
        <time>2021-08-08T12:28:12Z</time>
      </trkpt>
      <trkpt lat="44.93576" lon="5.54516">
        <ele>1017.6</ele>
        <time>2021-08-08T12:28:13Z</time>
      </trkpt>
      <trkpt lat="44.93582" lon="5.5451">
        <ele>1017.8</ele>
        <time>2021-08-08T12:28:15Z</time>
      </trkpt>
      <trkpt lat="44.93585" lon="5.54505">
        <ele>1018</ele>
        <time>2021-08-08T12:28:16Z</time>
      </trkpt>
      <trkpt lat="44.93589" lon="5.54502">
        <ele>1018.1</ele>
        <time>2021-08-08T12:28:18Z</time>
      </trkpt>
      <trkpt lat="44.93596" lon="5.54495">
        <ele>1018.4</ele>
        <time>2021-08-08T12:28:19Z</time>
      </trkpt>
      <trkpt lat="44.93602" lon="5.5449">
        <ele>1018.6</ele>
        <time>2021-08-08T12:28:21Z</time>
      </trkpt>
      <trkpt lat="44.93607" lon="5.54486">
        <ele>1018.8</ele>
        <time>2021-08-08T12:28:22Z</time>
      </trkpt>
      <trkpt lat="44.93613" lon="5.54484">
        <ele>1019</ele>
        <time>2021-08-08T12:28:24Z</time>
      </trkpt>
      <trkpt lat="44.93616" lon="5.54482">
        <ele>1019.2</ele>
        <time>2021-08-08T12:28:25Z</time>
      </trkpt>
      <trkpt lat="44.93619" lon="5.5448">
        <ele>1019.4</ele>
        <time>2021-08-08T12:28:26Z</time>
      </trkpt>
      <trkpt lat="44.93624" lon="5.54477">
        <ele>1019.7</ele>
        <time>2021-08-08T12:28:27Z</time>
      </trkpt>
      <trkpt lat="44.93629" lon="5.54474">
        <ele>1019.9</ele>
        <time>2021-08-08T12:28:28Z</time>
      </trkpt>
      <trkpt lat="44.93634" lon="5.54472">
        <ele>1020.2</ele>
        <time>2021-08-08T12:28:30Z</time>
      </trkpt>
      <trkpt lat="44.93639" lon="5.54469">
        <ele>1020.6</ele>
        <time>2021-08-08T12:28:31Z</time>
      </trkpt>
      <trkpt lat="44.93644" lon="5.54467">
        <ele>1020.9</ele>
        <time>2021-08-08T12:28:32Z</time>
      </trkpt>
      <trkpt lat="44.93649" lon="5.54464">
        <ele>1021.2</ele>
        <time>2021-08-08T12:28:34Z</time>
      </trkpt>
      <trkpt lat="44.93652" lon="5.54462">
        <ele>1021.3</ele>
        <time>2021-08-08T12:28:35Z</time>
      </trkpt>
      <trkpt lat="44.93655" lon="5.54459">
        <ele>1021.5</ele>
        <time>2021-08-08T12:28:36Z</time>
      </trkpt>
      <trkpt lat="44.93658" lon="5.54457">
        <ele>1021.7</ele>
        <time>2021-08-08T12:28:37Z</time>
      </trkpt>
      <trkpt lat="44.93662" lon="5.54455">
        <ele>1021.8</ele>
        <time>2021-08-08T12:28:38Z</time>
      </trkpt>
      <trkpt lat="44.93666" lon="5.54454">
        <ele>1022</ele>
        <time>2021-08-08T12:28:39Z</time>
      </trkpt>
      <trkpt lat="44.93671" lon="5.54454">
        <ele>1022.1</ele>
        <time>2021-08-08T12:28:40Z</time>
      </trkpt>
      <trkpt lat="44.93676" lon="5.54456">
        <ele>1022.3</ele>
        <time>2021-08-08T12:28:42Z</time>
      </trkpt>
      <trkpt lat="44.93681" lon="5.5446">
        <ele>1022.4</ele>
        <time>2021-08-08T12:28:43Z</time>
      </trkpt>
      <trkpt lat="44.93684" lon="5.54464">
        <ele>1022.5</ele>
        <time>2021-08-08T12:28:44Z</time>
      </trkpt>
      <trkpt lat="44.93687" lon="5.54469">
        <ele>1022.6</ele>
        <time>2021-08-08T12:28:45Z</time>
      </trkpt>
      <trkpt lat="44.93689" lon="5.54473">
        <ele>1022.8</ele>
        <time>2021-08-08T12:28:46Z</time>
      </trkpt>
      <trkpt lat="44.93691" lon="5.54477">
        <ele>1022.8</ele>
        <time>2021-08-08T12:28:48Z</time>
      </trkpt>
      <trkpt lat="44.93695" lon="5.54483">
        <ele>1023</ele>
        <time>2021-08-08T12:28:49Z</time>
      </trkpt>
      <trkpt lat="44.93699" lon="5.54489">
        <ele>1023.1</ele>
        <time>2021-08-08T12:28:50Z</time>
      </trkpt>
      <trkpt lat="44.93703" lon="5.54494">
        <ele>1023.2</ele>
        <time>2021-08-08T12:28:51Z</time>
      </trkpt>
      <trkpt lat="44.93705" lon="5.54498">
        <ele>1023.3</ele>
        <time>2021-08-08T12:28:52Z</time>
      </trkpt>
      <trkpt lat="44.9371" lon="5.54505">
        <ele>1023.5</ele>
        <time>2021-08-08T12:28:54Z</time>
      </trkpt>
      <trkpt lat="44.93713" lon="5.54509">
        <ele>1023.7</ele>
        <time>2021-08-08T12:28:55Z</time>
      </trkpt>
      <trkpt lat="44.93716" lon="5.54513">
        <ele>1023.8</ele>
        <time>2021-08-08T12:28:56Z</time>
      </trkpt>
      <trkpt lat="44.9372" lon="5.54517">
        <ele>1024</ele>
        <time>2021-08-08T12:28:57Z</time>
      </trkpt>
      <trkpt lat="44.93723" lon="5.54521">
        <ele>1024.2</ele>
        <time>2021-08-08T12:28:58Z</time>
      </trkpt>
      <trkpt lat="44.93726" lon="5.54525">
        <ele>1024.4</ele>
        <time>2021-08-08T12:28:59Z</time>
      </trkpt>
      <trkpt lat="44.93729" lon="5.54529">
        <ele>1024.6</ele>
        <time>2021-08-08T12:29:00Z</time>
      </trkpt>
      <trkpt lat="44.93732" lon="5.54533">
        <ele>1024.8</ele>
        <time>2021-08-08T12:29:01Z</time>
      </trkpt>
      <trkpt lat="44.93734" lon="5.54537">
        <ele>1025</ele>
        <time>2021-08-08T12:29:03Z</time>
      </trkpt>
      <trkpt lat="44.93738" lon="5.5454">
        <ele>1025.2</ele>
        <time>2021-08-08T12:29:04Z</time>
      </trkpt>
      <trkpt lat="44.93742" lon="5.54544">
        <ele>1025.5</ele>
        <time>2021-08-08T12:29:05Z</time>
      </trkpt>
      <trkpt lat="44.93746" lon="5.54547">
        <ele>1025.8</ele>
        <time>2021-08-08T12:29:06Z</time>
      </trkpt>
      <trkpt lat="44.93751" lon="5.54549">
        <ele>1026.1</ele>
        <time>2021-08-08T12:29:08Z</time>
      </trkpt>
      <trkpt lat="44.93755" lon="5.54552">
        <ele>1026.3</ele>
        <time>2021-08-08T12:29:09Z</time>
      </trkpt>
      <trkpt lat="44.93758" lon="5.54555">
        <ele>1026.5</ele>
        <time>2021-08-08T12:29:10Z</time>
      </trkpt>
      <trkpt lat="44.93761" lon="5.54557">
        <ele>1026.7</ele>
        <time>2021-08-08T12:29:11Z</time>
      </trkpt>
      <trkpt lat="44.93764" lon="5.5456">
        <ele>1027</ele>
        <time>2021-08-08T12:29:13Z</time>
      </trkpt>
      <trkpt lat="44.93767" lon="5.54563">
        <ele>1027.2</ele>
        <time>2021-08-08T12:29:14Z</time>
      </trkpt>
      <trkpt lat="44.9377" lon="5.54566">
        <ele>1027.4</ele>
        <time>2021-08-08T12:29:15Z</time>
      </trkpt>
      <trkpt lat="44.93771" lon="5.54567">
        <ele>1027.5</ele>
        <time>2021-08-08T12:29:16Z</time>
      </trkpt>
      <trkpt lat="44.93774" lon="5.54569">
        <ele>1027.7</ele>
        <time>2021-08-08T12:29:18Z</time>
      </trkpt>
      <trkpt lat="44.93777" lon="5.54572">
        <ele>1027.9</ele>
        <time>2021-08-08T12:29:19Z</time>
      </trkpt>
      <trkpt lat="44.9378" lon="5.54575">
        <ele>1028.1</ele>
        <time>2021-08-08T12:29:20Z</time>
      </trkpt>
      <trkpt lat="44.93785" lon="5.54579">
        <ele>1028.5</ele>
        <time>2021-08-08T12:29:22Z</time>
      </trkpt>
      <trkpt lat="44.93788" lon="5.54582">
        <ele>1028.6</ele>
        <time>2021-08-08T12:29:23Z</time>
      </trkpt>
      <trkpt lat="44.93791" lon="5.54585">
        <ele>1028.8</ele>
        <time>2021-08-08T12:29:24Z</time>
      </trkpt>
      <trkpt lat="44.93793" lon="5.54588">
        <ele>1029</ele>
        <time>2021-08-08T12:29:25Z</time>
      </trkpt>
      <trkpt lat="44.93796" lon="5.54591">
        <ele>1029.1</ele>
        <time>2021-08-08T12:29:26Z</time>
      </trkpt>
      <trkpt lat="44.93801" lon="5.54597">
        <ele>1029.3</ele>
        <time>2021-08-08T12:29:29Z</time>
      </trkpt>
      <trkpt lat="44.93806" lon="5.54602">
        <ele>1029.5</ele>
        <time>2021-08-08T12:29:30Z</time>
      </trkpt>
      <trkpt lat="44.93809" lon="5.54604">
        <ele>1029.6</ele>
        <time>2021-08-08T12:29:31Z</time>
      </trkpt>
      <trkpt lat="44.93813" lon="5.54606">
        <ele>1029.6</ele>
        <time>2021-08-08T12:29:32Z</time>
      </trkpt>
      <trkpt lat="44.93818" lon="5.54607">
        <ele>1029.7</ele>
        <time>2021-08-08T12:29:34Z</time>
      </trkpt>
      <trkpt lat="44.93823" lon="5.54607">
        <ele>1029.7</ele>
        <time>2021-08-08T12:29:35Z</time>
      </trkpt>
      <trkpt lat="44.93827" lon="5.54606">
        <ele>1029.7</ele>
        <time>2021-08-08T12:29:36Z</time>
      </trkpt>
      <trkpt lat="44.93835" lon="5.54601">
        <ele>1029.7</ele>
        <time>2021-08-08T12:29:37Z</time>
      </trkpt>
      <trkpt lat="44.93841" lon="5.54591">
        <ele>1029.7</ele>
        <time>2021-08-08T12:29:40Z</time>
      </trkpt>
      <trkpt lat="44.93844" lon="5.54578">
        <ele>1029.8</ele>
        <time>2021-08-08T12:29:42Z</time>
      </trkpt>
      <trkpt lat="44.93847" lon="5.54563">
        <ele>1029.9</ele>
        <time>2021-08-08T12:29:43Z</time>
      </trkpt>
      <trkpt lat="44.93856" lon="5.54549">
        <ele>1030.1</ele>
        <time>2021-08-08T12:29:46Z</time>
      </trkpt>
      <trkpt lat="44.93861" lon="5.54548">
        <ele>1030.2</ele>
        <time>2021-08-08T12:29:48Z</time>
      </trkpt>
      <trkpt lat="44.93866" lon="5.54546">
        <ele>1030.3</ele>
        <time>2021-08-08T12:29:49Z</time>
      </trkpt>
      <trkpt lat="44.93871" lon="5.54545">
        <ele>1030.4</ele>
        <time>2021-08-08T12:29:50Z</time>
      </trkpt>
      <trkpt lat="44.93875" lon="5.54545">
        <ele>1030.4</ele>
        <time>2021-08-08T12:29:51Z</time>
      </trkpt>
      <trkpt lat="44.9388" lon="5.54545">
        <ele>1030.5</ele>
        <time>2021-08-08T12:29:52Z</time>
      </trkpt>
      <trkpt lat="44.93885" lon="5.54546">
        <ele>1030.6</ele>
        <time>2021-08-08T12:29:54Z</time>
      </trkpt>
      <trkpt lat="44.9389" lon="5.54546">
        <ele>1030.6</ele>
        <time>2021-08-08T12:29:55Z</time>
      </trkpt>
      <trkpt lat="44.93896" lon="5.54547">
        <ele>1030.7</ele>
        <time>2021-08-08T12:29:56Z</time>
      </trkpt>
      <trkpt lat="44.939" lon="5.54547">
        <ele>1030.8</ele>
        <time>2021-08-08T12:29:57Z</time>
      </trkpt>
      <trkpt lat="44.93904" lon="5.54549">
        <ele>1030.8</ele>
        <time>2021-08-08T12:29:58Z</time>
      </trkpt>
      <trkpt lat="44.93911" lon="5.54551">
        <ele>1030.9</ele>
        <time>2021-08-08T12:29:59Z</time>
      </trkpt>
      <trkpt lat="44.9392" lon="5.54554">
        <ele>1031.1</ele>
        <time>2021-08-08T12:30:01Z</time>
      </trkpt>
      <trkpt lat="44.93927" lon="5.54556">
        <ele>1031.2</ele>
        <time>2021-08-08T12:30:03Z</time>
      </trkpt>
      <trkpt lat="44.93933" lon="5.54558">
        <ele>1031.3</ele>
        <time>2021-08-08T12:30:04Z</time>
      </trkpt>
      <trkpt lat="44.93936" lon="5.54558">
        <ele>1031.4</ele>
        <time>2021-08-08T12:30:05Z</time>
      </trkpt>
      <trkpt lat="44.93946" lon="5.54556">
        <ele>1031.6</ele>
        <time>2021-08-08T12:30:07Z</time>
      </trkpt>
      <trkpt lat="44.93952" lon="5.54555">
        <ele>1031.7</ele>
        <time>2021-08-08T12:30:08Z</time>
      </trkpt>
      <trkpt lat="44.93962" lon="5.54553">
        <ele>1031.9</ele>
        <time>2021-08-08T12:30:10Z</time>
      </trkpt>
      <trkpt lat="44.93968" lon="5.54549">
        <ele>1032.1</ele>
        <time>2021-08-08T12:30:12Z</time>
      </trkpt>
      <trkpt lat="44.9397" lon="5.54546">
        <ele>1032.1</ele>
        <time>2021-08-08T12:30:13Z</time>
      </trkpt>
      <trkpt lat="44.93972" lon="5.54545">
        <ele>1032.2</ele>
        <time>2021-08-08T12:30:14Z</time>
      </trkpt>
      <trkpt lat="44.93978" lon="5.54542">
        <ele>1032.3</ele>
        <time>2021-08-08T12:30:16Z</time>
      </trkpt>
      <trkpt lat="44.93983" lon="5.54538">
        <ele>1032.5</ele>
        <time>2021-08-08T12:30:17Z</time>
      </trkpt>
      <trkpt lat="44.93988" lon="5.54533">
        <ele>1032.6</ele>
        <time>2021-08-08T12:30:18Z</time>
      </trkpt>
      <trkpt lat="44.93991" lon="5.5453">
        <ele>1032.7</ele>
        <time>2021-08-08T12:30:19Z</time>
      </trkpt>
      <trkpt lat="44.93996" lon="5.54526">
        <ele>1032.9</ele>
        <time>2021-08-08T12:30:21Z</time>
      </trkpt>
      <trkpt lat="44.94" lon="5.54521">
        <ele>1033</ele>
        <time>2021-08-08T12:30:22Z</time>
      </trkpt>
      <trkpt lat="44.94003" lon="5.54516">
        <ele>1033.1</ele>
        <time>2021-08-08T12:30:23Z</time>
      </trkpt>
      <trkpt lat="44.94007" lon="5.54511">
        <ele>1033.2</ele>
        <time>2021-08-08T12:30:25Z</time>
      </trkpt>
      <trkpt lat="44.9401" lon="5.54508">
        <ele>1033.3</ele>
        <time>2021-08-08T12:30:26Z</time>
      </trkpt>
      <trkpt lat="44.94013" lon="5.54503">
        <ele>1033.4</ele>
        <time>2021-08-08T12:30:27Z</time>
      </trkpt>
      <trkpt lat="44.94017" lon="5.54499">
        <ele>1033.4</ele>
        <time>2021-08-08T12:30:28Z</time>
      </trkpt>
      <trkpt lat="44.94021" lon="5.54493">
        <ele>1033.5</ele>
        <time>2021-08-08T12:30:29Z</time>
      </trkpt>
      <trkpt lat="44.94025" lon="5.54488">
        <ele>1033.6</ele>
        <time>2021-08-08T12:30:30Z</time>
      </trkpt>
      <trkpt lat="44.94032" lon="5.5448">
        <ele>1033.8</ele>
        <time>2021-08-08T12:30:33Z</time>
      </trkpt>
      <trkpt lat="44.94041" lon="5.54475">
        <ele>1034</ele>
        <time>2021-08-08T12:30:34Z</time>
      </trkpt>
      <trkpt lat="44.94049" lon="5.54473">
        <ele>1034.1</ele>
        <time>2021-08-08T12:30:36Z</time>
      </trkpt>
      <trkpt lat="44.9406" lon="5.54475">
        <ele>1034.3</ele>
        <time>2021-08-08T12:30:39Z</time>
      </trkpt>
      <trkpt lat="44.94069" lon="5.54478">
        <ele>1034.5</ele>
        <time>2021-08-08T12:30:41Z</time>
      </trkpt>
      <trkpt lat="44.94079" lon="5.5448">
        <ele>1034.6</ele>
        <time>2021-08-08T12:30:43Z</time>
      </trkpt>
      <trkpt lat="44.94089" lon="5.5448">
        <ele>1034.8</ele>
        <time>2021-08-08T12:30:45Z</time>
      </trkpt>
      <trkpt lat="44.94094" lon="5.5448">
        <ele>1034.9</ele>
        <time>2021-08-08T12:30:46Z</time>
      </trkpt>
      <trkpt lat="44.94104" lon="5.54478">
        <ele>1035.1</ele>
        <time>2021-08-08T12:30:47Z</time>
      </trkpt>
      <trkpt lat="44.94118" lon="5.54472">
        <ele>1035.6</ele>
        <time>2021-08-08T12:30:50Z</time>
      </trkpt>
      <trkpt lat="44.94127" lon="5.54467">
        <ele>1035.9</ele>
        <time>2021-08-08T12:30:53Z</time>
      </trkpt>
      <trkpt lat="44.94134" lon="5.54463">
        <ele>1036.1</ele>
        <time>2021-08-08T12:30:54Z</time>
      </trkpt>
      <trkpt lat="44.94141" lon="5.54458">
        <ele>1036.5</ele>
        <time>2021-08-08T12:30:56Z</time>
      </trkpt>
      <trkpt lat="44.94149" lon="5.54453">
        <ele>1036.8</ele>
        <time>2021-08-08T12:30:58Z</time>
      </trkpt>
      <trkpt lat="44.94153" lon="5.54447">
        <ele>1037.1</ele>
        <time>2021-08-08T12:31:00Z</time>
      </trkpt>
      <trkpt lat="44.94157" lon="5.54444">
        <ele>1037.2</ele>
        <time>2021-08-08T12:31:02Z</time>
      </trkpt>
      <trkpt lat="44.94158" lon="5.54439">
        <ele>1037.4</ele>
        <time>2021-08-08T12:31:03Z</time>
      </trkpt>
      <trkpt lat="44.9416" lon="5.54429">
        <ele>1037.6</ele>
        <time>2021-08-08T12:31:04Z</time>
      </trkpt>
      <trkpt lat="44.94161" lon="5.54422">
        <ele>1037.8</ele>
        <time>2021-08-08T12:31:05Z</time>
      </trkpt>
      <trkpt lat="44.9416" lon="5.54417">
        <ele>1038</ele>
        <time>2021-08-08T12:31:06Z</time>
      </trkpt>
      <trkpt lat="44.9416" lon="5.54409">
        <ele>1038.2</ele>
        <time>2021-08-08T12:31:08Z</time>
      </trkpt>
      <trkpt lat="44.94159" lon="5.54403">
        <ele>1038.4</ele>
        <time>2021-08-08T12:31:09Z</time>
      </trkpt>
      <trkpt lat="44.94158" lon="5.54396">
        <ele>1038.6</ele>
        <time>2021-08-08T12:31:10Z</time>
      </trkpt>
      <trkpt lat="44.94157" lon="5.5439">
        <ele>1038.8</ele>
        <time>2021-08-08T12:31:11Z</time>
      </trkpt>
      <trkpt lat="44.94155" lon="5.54384">
        <ele>1039</ele>
        <time>2021-08-08T12:31:13Z</time>
      </trkpt>
      <trkpt lat="44.94154" lon="5.54378">
        <ele>1039.2</ele>
        <time>2021-08-08T12:31:14Z</time>
      </trkpt>
      <trkpt lat="44.9415" lon="5.54372">
        <ele>1039.5</ele>
        <time>2021-08-08T12:31:16Z</time>
      </trkpt>
      <trkpt lat="44.94147" lon="5.54366">
        <ele>1039.7</ele>
        <time>2021-08-08T12:31:18Z</time>
      </trkpt>
      <trkpt lat="44.94145" lon="5.54359">
        <ele>1039.9</ele>
        <time>2021-08-08T12:31:19Z</time>
      </trkpt>
      <trkpt lat="44.94143" lon="5.54354">
        <ele>1040.1</ele>
        <time>2021-08-08T12:31:20Z</time>
      </trkpt>
      <trkpt lat="44.94143" lon="5.54348">
        <ele>1040.2</ele>
        <time>2021-08-08T12:31:21Z</time>
      </trkpt>
      <trkpt lat="44.94145" lon="5.54338">
        <ele>1040.3</ele>
        <time>2021-08-08T12:31:23Z</time>
      </trkpt>
      <trkpt lat="44.9415" lon="5.54333">
        <ele>1040.4</ele>
        <time>2021-08-08T12:31:24Z</time>
      </trkpt>
      <trkpt lat="44.94156" lon="5.54327">
        <ele>1040.6</ele>
        <time>2021-08-08T12:31:26Z</time>
      </trkpt>
      <trkpt lat="44.9416" lon="5.54323">
        <ele>1040.7</ele>
        <time>2021-08-08T12:31:27Z</time>
      </trkpt>
      <trkpt lat="44.94165" lon="5.54318">
        <ele>1040.8</ele>
        <time>2021-08-08T12:31:29Z</time>
      </trkpt>
      <trkpt lat="44.9417" lon="5.54313">
        <ele>1040.8</ele>
        <time>2021-08-08T12:31:30Z</time>
      </trkpt>
      <trkpt lat="44.94174" lon="5.5431">
        <ele>1040.9</ele>
        <time>2021-08-08T12:31:31Z</time>
      </trkpt>
      <trkpt lat="44.94181" lon="5.54306">
        <ele>1041</ele>
        <time>2021-08-08T12:31:33Z</time>
      </trkpt>
      <trkpt lat="44.94189" lon="5.54306">
        <ele>1041.1</ele>
        <time>2021-08-08T12:31:35Z</time>
      </trkpt>
      <trkpt lat="44.94194" lon="5.54309">
        <ele>1041.1</ele>
        <time>2021-08-08T12:31:36Z</time>
      </trkpt>
      <trkpt lat="44.942" lon="5.54316">
        <ele>1041.2</ele>
        <time>2021-08-08T12:31:37Z</time>
      </trkpt>
      <trkpt lat="44.94206" lon="5.54324">
        <ele>1041.3</ele>
        <time>2021-08-08T12:31:39Z</time>
      </trkpt>
      <trkpt lat="44.94209" lon="5.5433">
        <ele>1041.4</ele>
        <time>2021-08-08T12:31:41Z</time>
      </trkpt>
      <trkpt lat="44.94213" lon="5.54336">
        <ele>1041.4</ele>
        <time>2021-08-08T12:31:42Z</time>
      </trkpt>
      <trkpt lat="44.94217" lon="5.54341">
        <ele>1041.4</ele>
        <time>2021-08-08T12:31:43Z</time>
      </trkpt>
      <trkpt lat="44.94222" lon="5.54345">
        <ele>1041.4</ele>
        <time>2021-08-08T12:31:45Z</time>
      </trkpt>
      <trkpt lat="44.9423" lon="5.5435">
        <ele>1041.4</ele>
        <time>2021-08-08T12:31:46Z</time>
      </trkpt>
      <trkpt lat="44.94238" lon="5.54358">
        <ele>1041.4</ele>
        <time>2021-08-08T12:31:48Z</time>
      </trkpt>
      <trkpt lat="44.94241" lon="5.54364">
        <ele>1041.4</ele>
        <time>2021-08-08T12:31:49Z</time>
      </trkpt>
      <trkpt lat="44.94243" lon="5.54369">
        <ele>1041.4</ele>
        <time>2021-08-08T12:31:50Z</time>
      </trkpt>
      <trkpt lat="44.94246" lon="5.54375">
        <ele>1041.3</ele>
        <time>2021-08-08T12:31:51Z</time>
      </trkpt>
      <trkpt lat="44.94256" lon="5.54395">
        <ele>1041.2</ele>
        <time>2021-08-08T12:31:54Z</time>
      </trkpt>
      <trkpt lat="44.94259" lon="5.54402">
        <ele>1041.1</ele>
        <time>2021-08-08T12:31:55Z</time>
      </trkpt>
      <trkpt lat="44.94268" lon="5.54415">
        <ele>1041.1</ele>
        <time>2021-08-08T12:31:57Z</time>
      </trkpt>
      <trkpt lat="44.94272" lon="5.5442">
        <ele>1041</ele>
        <time>2021-08-08T12:31:58Z</time>
      </trkpt>
      <trkpt lat="44.94278" lon="5.54424">
        <ele>1041</ele>
        <time>2021-08-08T12:32:00Z</time>
      </trkpt>
      <trkpt lat="44.94288" lon="5.5443">
        <ele>1040.9</ele>
        <time>2021-08-08T12:32:01Z</time>
      </trkpt>
      <trkpt lat="44.94294" lon="5.54431">
        <ele>1040.9</ele>
        <time>2021-08-08T12:32:02Z</time>
      </trkpt>
      <trkpt lat="44.94306" lon="5.54433">
        <ele>1040.9</ele>
        <time>2021-08-08T12:32:04Z</time>
      </trkpt>
      <trkpt lat="44.94311" lon="5.54435">
        <ele>1040.9</ele>
        <time>2021-08-08T12:32:05Z</time>
      </trkpt>
      <trkpt lat="44.94318" lon="5.54437">
        <ele>1040.9</ele>
        <time>2021-08-08T12:32:06Z</time>
      </trkpt>
      <trkpt lat="44.9433" lon="5.54438">
        <ele>1040.9</ele>
        <time>2021-08-08T12:32:08Z</time>
      </trkpt>
      <trkpt lat="44.94335" lon="5.5444">
        <ele>1040.9</ele>
        <time>2021-08-08T12:32:09Z</time>
      </trkpt>
      <trkpt lat="44.94352" lon="5.54443">
        <ele>1041</ele>
        <time>2021-08-08T12:32:12Z</time>
      </trkpt>
      <trkpt lat="44.94363" lon="5.54443">
        <ele>1041.2</ele>
        <time>2021-08-08T12:32:14Z</time>
      </trkpt>
      <trkpt lat="44.94368" lon="5.54443">
        <ele>1041.3</ele>
        <time>2021-08-08T12:32:15Z</time>
      </trkpt>
      <trkpt lat="44.94373" lon="5.54441">
        <ele>1041.5</ele>
        <time>2021-08-08T12:32:16Z</time>
      </trkpt>
      <trkpt lat="44.94383" lon="5.54438">
        <ele>1041.6</ele>
        <time>2021-08-08T12:32:18Z</time>
      </trkpt>
      <trkpt lat="44.94392" lon="5.54434">
        <ele>1041.8</ele>
        <time>2021-08-08T12:32:20Z</time>
      </trkpt>
      <trkpt lat="44.94396" lon="5.54432">
        <ele>1041.9</ele>
        <time>2021-08-08T12:32:21Z</time>
      </trkpt>
      <trkpt lat="44.944" lon="5.54429">
        <ele>1042</ele>
        <time>2021-08-08T12:32:22Z</time>
      </trkpt>
      <trkpt lat="44.94404" lon="5.54427">
        <ele>1042.1</ele>
        <time>2021-08-08T12:32:24Z</time>
      </trkpt>
      <trkpt lat="44.94411" lon="5.54423">
        <ele>1042.2</ele>
        <time>2021-08-08T12:32:25Z</time>
      </trkpt>
      <trkpt lat="44.94414" lon="5.54421">
        <ele>1042.3</ele>
        <time>2021-08-08T12:32:26Z</time>
      </trkpt>
      <trkpt lat="44.94423" lon="5.54413">
        <ele>1042.3</ele>
        <time>2021-08-08T12:32:28Z</time>
      </trkpt>
      <trkpt lat="44.94427" lon="5.54408">
        <ele>1042.3</ele>
        <time>2021-08-08T12:32:29Z</time>
      </trkpt>
      <trkpt lat="44.94432" lon="5.54403">
        <ele>1042.2</ele>
        <time>2021-08-08T12:32:30Z</time>
      </trkpt>
      <trkpt lat="44.94436" lon="5.54398">
        <ele>1042.2</ele>
        <time>2021-08-08T12:32:31Z</time>
      </trkpt>
      <trkpt lat="44.94446" lon="5.54387">
        <ele>1042.1</ele>
        <time>2021-08-08T12:32:33Z</time>
      </trkpt>
      <trkpt lat="44.94451" lon="5.54383">
        <ele>1042.2</ele>
        <time>2021-08-08T12:32:35Z</time>
      </trkpt>
      <trkpt lat="44.94463" lon="5.54378">
        <ele>1042.4</ele>
        <time>2021-08-08T12:32:36Z</time>
      </trkpt>
      <trkpt lat="44.94469" lon="5.54379">
        <ele>1042.6</ele>
        <time>2021-08-08T12:32:37Z</time>
      </trkpt>
      <trkpt lat="44.9448" lon="5.54386">
        <ele>1043</ele>
        <time>2021-08-08T12:32:39Z</time>
      </trkpt>
      <trkpt lat="44.94484" lon="5.54391">
        <ele>1043.2</ele>
        <time>2021-08-08T12:32:41Z</time>
      </trkpt>
      <trkpt lat="44.9449" lon="5.54399">
        <ele>1043.5</ele>
        <time>2021-08-08T12:32:42Z</time>
      </trkpt>
      <trkpt lat="44.94493" lon="5.54404">
        <ele>1043.6</ele>
        <time>2021-08-08T12:32:43Z</time>
      </trkpt>
      <trkpt lat="44.94499" lon="5.54415">
        <ele>1043.9</ele>
        <time>2021-08-08T12:32:45Z</time>
      </trkpt>
      <trkpt lat="44.94501" lon="5.54421">
        <ele>1044</ele>
        <time>2021-08-08T12:32:47Z</time>
      </trkpt>
      <trkpt lat="44.94506" lon="5.54432">
        <ele>1044.3</ele>
        <time>2021-08-08T12:32:48Z</time>
      </trkpt>
      <trkpt lat="44.9451" lon="5.54444">
        <ele>1044.4</ele>
        <time>2021-08-08T12:32:50Z</time>
      </trkpt>
      <trkpt lat="44.94512" lon="5.54451">
        <ele>1044.4</ele>
        <time>2021-08-08T12:32:51Z</time>
      </trkpt>
      <trkpt lat="44.94514" lon="5.54456">
        <ele>1044.4</ele>
        <time>2021-08-08T12:32:52Z</time>
      </trkpt>
      <trkpt lat="44.94516" lon="5.54462">
        <ele>1044.5</ele>
        <time>2021-08-08T12:32:53Z</time>
      </trkpt>
      <trkpt lat="44.94522" lon="5.54474">
        <ele>1044.4</ele>
        <time>2021-08-08T12:32:55Z</time>
      </trkpt>
      <trkpt lat="44.94525" lon="5.54486">
        <ele>1044.3</ele>
        <time>2021-08-08T12:32:57Z</time>
      </trkpt>
      <trkpt lat="44.94526" lon="5.54492">
        <ele>1044.2</ele>
        <time>2021-08-08T12:32:58Z</time>
      </trkpt>
      <trkpt lat="44.94528" lon="5.545">
        <ele>1044.1</ele>
        <time>2021-08-08T12:32:59Z</time>
      </trkpt>
      <trkpt lat="44.94531" lon="5.54507">
        <ele>1043.9</ele>
        <time>2021-08-08T12:33:00Z</time>
      </trkpt>
      <trkpt lat="44.94537" lon="5.54522">
        <ele>1043.6</ele>
        <time>2021-08-08T12:33:02Z</time>
      </trkpt>
      <trkpt lat="44.94541" lon="5.54529">
        <ele>1043.3</ele>
        <time>2021-08-08T12:33:03Z</time>
      </trkpt>
      <trkpt lat="44.94545" lon="5.54537">
        <ele>1043.1</ele>
        <time>2021-08-08T12:33:04Z</time>
      </trkpt>
      <trkpt lat="44.94549" lon="5.54544">
        <ele>1042.9</ele>
        <time>2021-08-08T12:33:05Z</time>
      </trkpt>
      <trkpt lat="44.94553" lon="5.54551">
        <ele>1042.7</ele>
        <time>2021-08-08T12:33:06Z</time>
      </trkpt>
      <trkpt lat="44.94558" lon="5.54559">
        <ele>1042.5</ele>
        <time>2021-08-08T12:33:07Z</time>
      </trkpt>
      <trkpt lat="44.94568" lon="5.54573">
        <ele>1042</ele>
        <time>2021-08-08T12:33:10Z</time>
      </trkpt>
      <trkpt lat="44.94578" lon="5.54589">
        <ele>1041.5</ele>
        <time>2021-08-08T12:33:11Z</time>
      </trkpt>
      <trkpt lat="44.94582" lon="5.54598">
        <ele>1041.2</ele>
        <time>2021-08-08T12:33:12Z</time>
      </trkpt>
      <trkpt lat="44.94586" lon="5.54607">
        <ele>1040.9</ele>
        <time>2021-08-08T12:33:13Z</time>
      </trkpt>
      <trkpt lat="44.94589" lon="5.54617">
        <ele>1040.7</ele>
        <time>2021-08-08T12:33:14Z</time>
      </trkpt>
      <trkpt lat="44.94593" lon="5.54628">
        <ele>1040.4</ele>
        <time>2021-08-08T12:33:15Z</time>
      </trkpt>
      <trkpt lat="44.94599" lon="5.54649">
        <ele>1039.8</ele>
        <time>2021-08-08T12:33:17Z</time>
      </trkpt>
      <trkpt lat="44.94602" lon="5.5466">
        <ele>1039.5</ele>
        <time>2021-08-08T12:33:18Z</time>
      </trkpt>
      <trkpt lat="44.9461" lon="5.54681">
        <ele>1039</ele>
        <time>2021-08-08T12:33:20Z</time>
      </trkpt>
      <trkpt lat="44.94615" lon="5.5469">
        <ele>1038.8</ele>
        <time>2021-08-08T12:33:22Z</time>
      </trkpt>
      <trkpt lat="44.94626" lon="5.54707">
        <ele>1038.4</ele>
        <time>2021-08-08T12:33:23Z</time>
      </trkpt>
      <trkpt lat="44.94632" lon="5.54714">
        <ele>1038.3</ele>
        <time>2021-08-08T12:33:24Z</time>
      </trkpt>
      <trkpt lat="44.94639" lon="5.54722">
        <ele>1038.1</ele>
        <time>2021-08-08T12:33:25Z</time>
      </trkpt>
      <trkpt lat="44.94651" lon="5.54736">
        <ele>1037.9</ele>
        <time>2021-08-08T12:33:27Z</time>
      </trkpt>
      <trkpt lat="44.94663" lon="5.5475">
        <ele>1037.6</ele>
        <time>2021-08-08T12:33:29Z</time>
      </trkpt>
      <trkpt lat="44.94675" lon="5.54761">
        <ele>1037.4</ele>
        <time>2021-08-08T12:33:31Z</time>
      </trkpt>
      <trkpt lat="44.94682" lon="5.54763">
        <ele>1037.3</ele>
        <time>2021-08-08T12:33:32Z</time>
      </trkpt>
      <trkpt lat="44.9469" lon="5.54763">
        <ele>1037.2</ele>
        <time>2021-08-08T12:33:33Z</time>
      </trkpt>
      <trkpt lat="44.94705" lon="5.54755">
        <ele>1037</ele>
        <time>2021-08-08T12:33:35Z</time>
      </trkpt>
      <trkpt lat="44.94718" lon="5.54744">
        <ele>1036.9</ele>
        <time>2021-08-08T12:33:37Z</time>
      </trkpt>
      <trkpt lat="44.94724" lon="5.54738">
        <ele>1036.8</ele>
        <time>2021-08-08T12:33:38Z</time>
      </trkpt>
      <trkpt lat="44.94735" lon="5.54728">
        <ele>1036.8</ele>
        <time>2021-08-08T12:33:40Z</time>
      </trkpt>
      <trkpt lat="44.94741" lon="5.54721">
        <ele>1036.8</ele>
        <time>2021-08-08T12:33:41Z</time>
      </trkpt>
      <trkpt lat="44.94753" lon="5.54711">
        <ele>1036.8</ele>
        <time>2021-08-08T12:33:43Z</time>
      </trkpt>
      <trkpt lat="44.9476" lon="5.54707">
        <ele>1036.9</ele>
        <time>2021-08-08T12:33:44Z</time>
      </trkpt>
      <trkpt lat="44.94766" lon="5.54703">
        <ele>1036.9</ele>
        <time>2021-08-08T12:33:45Z</time>
      </trkpt>
      <trkpt lat="44.94779" lon="5.54701">
        <ele>1036.9</ele>
        <time>2021-08-08T12:33:47Z</time>
      </trkpt>
      <trkpt lat="44.94792" lon="5.54705">
        <ele>1036.7</ele>
        <time>2021-08-08T12:33:49Z</time>
      </trkpt>
      <trkpt lat="44.94798" lon="5.54708">
        <ele>1036.6</ele>
        <time>2021-08-08T12:33:50Z</time>
      </trkpt>
      <trkpt lat="44.9481" lon="5.54714">
        <ele>1036.4</ele>
        <time>2021-08-08T12:33:52Z</time>
      </trkpt>
      <trkpt lat="44.94816" lon="5.54717">
        <ele>1036.3</ele>
        <time>2021-08-08T12:33:53Z</time>
      </trkpt>
      <trkpt lat="44.94829" lon="5.54724">
        <ele>1035.9</ele>
        <time>2021-08-08T12:33:55Z</time>
      </trkpt>
      <trkpt lat="44.94836" lon="5.54728">
        <ele>1035.7</ele>
        <time>2021-08-08T12:33:56Z</time>
      </trkpt>
      <trkpt lat="44.94847" lon="5.54737">
        <ele>1035.3</ele>
        <time>2021-08-08T12:33:58Z</time>
      </trkpt>
      <trkpt lat="44.94852" lon="5.54742">
        <ele>1035.1</ele>
        <time>2021-08-08T12:33:59Z</time>
      </trkpt>
      <trkpt lat="44.94863" lon="5.54755">
        <ele>1034.7</ele>
        <time>2021-08-08T12:34:01Z</time>
      </trkpt>
      <trkpt lat="44.94869" lon="5.5476">
        <ele>1034.5</ele>
        <time>2021-08-08T12:34:02Z</time>
      </trkpt>
      <trkpt lat="44.9488" lon="5.54773">
        <ele>1034.1</ele>
        <time>2021-08-08T12:34:04Z</time>
      </trkpt>
      <trkpt lat="44.94887" lon="5.54778">
        <ele>1033.9</ele>
        <time>2021-08-08T12:34:05Z</time>
      </trkpt>
      <trkpt lat="44.94893" lon="5.54785">
        <ele>1033.8</ele>
        <time>2021-08-08T12:34:06Z</time>
      </trkpt>
      <trkpt lat="44.94905" lon="5.54798">
        <ele>1033.3</ele>
        <time>2021-08-08T12:34:08Z</time>
      </trkpt>
      <trkpt lat="44.94912" lon="5.54803">
        <ele>1033.1</ele>
        <time>2021-08-08T12:34:09Z</time>
      </trkpt>
      <trkpt lat="44.94927" lon="5.54803">
        <ele>1032.7</ele>
        <time>2021-08-08T12:34:11Z</time>
      </trkpt>
      <trkpt lat="44.94935" lon="5.54798">
        <ele>1032.4</ele>
        <time>2021-08-08T12:34:12Z</time>
      </trkpt>
      <trkpt lat="44.9495" lon="5.54789">
        <ele>1032</ele>
        <time>2021-08-08T12:34:14Z</time>
      </trkpt>
      <trkpt lat="44.94964" lon="5.54782">
        <ele>1031.5</ele>
        <time>2021-08-08T12:34:16Z</time>
      </trkpt>
      <trkpt lat="44.94978" lon="5.54775">
        <ele>1031.1</ele>
        <time>2021-08-08T12:34:18Z</time>
      </trkpt>
      <trkpt lat="44.94986" lon="5.54771">
        <ele>1030.9</ele>
        <time>2021-08-08T12:34:19Z</time>
      </trkpt>
      <trkpt lat="44.94994" lon="5.54768">
        <ele>1030.7</ele>
        <time>2021-08-08T12:34:20Z</time>
      </trkpt>
      <trkpt lat="44.95008" lon="5.54756">
        <ele>1030.3</ele>
        <time>2021-08-08T12:34:22Z</time>
      </trkpt>
      <trkpt lat="44.95013" lon="5.54748">
        <ele>1030.1</ele>
        <time>2021-08-08T12:34:23Z</time>
      </trkpt>
      <trkpt lat="44.95018" lon="5.54739">
        <ele>1029.9</ele>
        <time>2021-08-08T12:34:24Z</time>
      </trkpt>
      <trkpt lat="44.95027" lon="5.5472">
        <ele>1029.6</ele>
        <time>2021-08-08T12:34:26Z</time>
      </trkpt>
      <trkpt lat="44.95031" lon="5.54711">
        <ele>1029.4</ele>
        <time>2021-08-08T12:34:27Z</time>
      </trkpt>
      <trkpt lat="44.95041" lon="5.54692">
        <ele>1029.2</ele>
        <time>2021-08-08T12:34:29Z</time>
      </trkpt>
      <trkpt lat="44.95049" lon="5.54675">
        <ele>1029</ele>
        <time>2021-08-08T12:34:31Z</time>
      </trkpt>
      <trkpt lat="44.95054" lon="5.54665">
        <ele>1028.9</ele>
        <time>2021-08-08T12:34:32Z</time>
      </trkpt>
      <trkpt lat="44.95059" lon="5.54655">
        <ele>1028.8</ele>
        <time>2021-08-08T12:34:34Z</time>
      </trkpt>
      <trkpt lat="44.95067" lon="5.54637">
        <ele>1028.6</ele>
        <time>2021-08-08T12:34:35Z</time>
      </trkpt>
      <trkpt lat="44.95071" lon="5.54627">
        <ele>1028.5</ele>
        <time>2021-08-08T12:34:36Z</time>
      </trkpt>
      <trkpt lat="44.95074" lon="5.54617">
        <ele>1028.5</ele>
        <time>2021-08-08T12:34:37Z</time>
      </trkpt>
      <trkpt lat="44.95077" lon="5.54607">
        <ele>1028.4</ele>
        <time>2021-08-08T12:34:38Z</time>
      </trkpt>
      <trkpt lat="44.95078" lon="5.54596">
        <ele>1028.4</ele>
        <time>2021-08-08T12:34:40Z</time>
      </trkpt>
      <trkpt lat="44.9508" lon="5.54575">
        <ele>1028.4</ele>
        <time>2021-08-08T12:34:41Z</time>
      </trkpt>
      <trkpt lat="44.95082" lon="5.54565">
        <ele>1028.3</ele>
        <time>2021-08-08T12:34:42Z</time>
      </trkpt>
      <trkpt lat="44.95091" lon="5.54547">
        <ele>1028.1</ele>
        <time>2021-08-08T12:34:44Z</time>
      </trkpt>
      <trkpt lat="44.95105" lon="5.54538">
        <ele>1027.8</ele>
        <time>2021-08-08T12:34:46Z</time>
      </trkpt>
      <trkpt lat="44.95113" lon="5.54539">
        <ele>1027.7</ele>
        <time>2021-08-08T12:34:47Z</time>
      </trkpt>
      <trkpt lat="44.95125" lon="5.54548">
        <ele>1027.5</ele>
        <time>2021-08-08T12:34:49Z</time>
      </trkpt>
      <trkpt lat="44.95132" lon="5.54554">
        <ele>1027.3</ele>
        <time>2021-08-08T12:34:50Z</time>
      </trkpt>
      <trkpt lat="44.95139" lon="5.5456">
        <ele>1027.2</ele>
        <time>2021-08-08T12:34:52Z</time>
      </trkpt>
      <trkpt lat="44.95151" lon="5.54572">
        <ele>1027.1</ele>
        <time>2021-08-08T12:34:53Z</time>
      </trkpt>
      <trkpt lat="44.95156" lon="5.54579">
        <ele>1027</ele>
        <time>2021-08-08T12:34:54Z</time>
      </trkpt>
      <trkpt lat="44.95168" lon="5.5459">
        <ele>1026.8</ele>
        <time>2021-08-08T12:34:56Z</time>
      </trkpt>
      <trkpt lat="44.9518" lon="5.54601">
        <ele>1026.7</ele>
        <time>2021-08-08T12:34:58Z</time>
      </trkpt>
      <trkpt lat="44.95191" lon="5.54611">
        <ele>1026.5</ele>
        <time>2021-08-08T12:35:00Z</time>
      </trkpt>
      <trkpt lat="44.95197" lon="5.54616">
        <ele>1026.4</ele>
        <time>2021-08-08T12:35:01Z</time>
      </trkpt>
      <trkpt lat="44.95209" lon="5.54625">
        <ele>1026.3</ele>
        <time>2021-08-08T12:35:03Z</time>
      </trkpt>
      <trkpt lat="44.95216" lon="5.54629">
        <ele>1026.2</ele>
        <time>2021-08-08T12:35:04Z</time>
      </trkpt>
      <trkpt lat="44.95229" lon="5.54635">
        <ele>1026</ele>
        <time>2021-08-08T12:35:06Z</time>
      </trkpt>
      <trkpt lat="44.95236" lon="5.54637">
        <ele>1025.8</ele>
        <time>2021-08-08T12:35:08Z</time>
      </trkpt>
      <trkpt lat="44.95249" lon="5.54643">
        <ele>1025.7</ele>
        <time>2021-08-08T12:35:10Z</time>
      </trkpt>
      <trkpt lat="44.95263" lon="5.54649">
        <ele>1025.6</ele>
        <time>2021-08-08T12:35:11Z</time>
      </trkpt>
      <trkpt lat="44.95277" lon="5.54652">
        <ele>1025.4</ele>
        <time>2021-08-08T12:35:13Z</time>
      </trkpt>
      <trkpt lat="44.9529" lon="5.54654">
        <ele>1025.2</ele>
        <time>2021-08-08T12:35:15Z</time>
      </trkpt>
      <trkpt lat="44.95297" lon="5.54654">
        <ele>1025.1</ele>
        <time>2021-08-08T12:35:16Z</time>
      </trkpt>
      <trkpt lat="44.95304" lon="5.54654">
        <ele>1024.9</ele>
        <time>2021-08-08T12:35:17Z</time>
      </trkpt>
      <trkpt lat="44.9531" lon="5.54655">
        <ele>1024.8</ele>
        <time>2021-08-08T12:35:18Z</time>
      </trkpt>
      <trkpt lat="44.95317" lon="5.54655">
        <ele>1024.6</ele>
        <time>2021-08-08T12:35:19Z</time>
      </trkpt>
      <trkpt lat="44.95331" lon="5.54656">
        <ele>1024.1</ele>
        <time>2021-08-08T12:35:21Z</time>
      </trkpt>
      <trkpt lat="44.95345" lon="5.54656">
        <ele>1023.5</ele>
        <time>2021-08-08T12:35:23Z</time>
      </trkpt>
      <trkpt lat="44.95353" lon="5.54655">
        <ele>1023.2</ele>
        <time>2021-08-08T12:35:24Z</time>
      </trkpt>
      <trkpt lat="44.95361" lon="5.54654">
        <ele>1022.8</ele>
        <time>2021-08-08T12:35:25Z</time>
      </trkpt>
      <trkpt lat="44.95379" lon="5.54654">
        <ele>1022.1</ele>
        <time>2021-08-08T12:35:27Z</time>
      </trkpt>
      <trkpt lat="44.95396" lon="5.54657">
        <ele>1021.5</ele>
        <time>2021-08-08T12:35:29Z</time>
      </trkpt>
      <trkpt lat="44.95411" lon="5.54669">
        <ele>1021</ele>
        <time>2021-08-08T12:35:31Z</time>
      </trkpt>
      <trkpt lat="44.95417" lon="5.54679">
        <ele>1020.8</ele>
        <time>2021-08-08T12:35:33Z</time>
      </trkpt>
      <trkpt lat="44.95429" lon="5.54697">
        <ele>1020.3</ele>
        <time>2021-08-08T12:35:34Z</time>
      </trkpt>
      <trkpt lat="44.95444" lon="5.54708">
        <ele>1019.9</ele>
        <time>2021-08-08T12:35:36Z</time>
      </trkpt>
      <trkpt lat="44.95452" lon="5.54711">
        <ele>1019.7</ele>
        <time>2021-08-08T12:35:37Z</time>
      </trkpt>
      <trkpt lat="44.95461" lon="5.54712">
        <ele>1019.5</ele>
        <time>2021-08-08T12:35:38Z</time>
      </trkpt>
      <trkpt lat="44.95476" lon="5.54708">
        <ele>1019.2</ele>
        <time>2021-08-08T12:35:40Z</time>
      </trkpt>
      <trkpt lat="44.9549" lon="5.54701">
        <ele>1018.8</ele>
        <time>2021-08-08T12:35:42Z</time>
      </trkpt>
      <trkpt lat="44.95506" lon="5.54694">
        <ele>1018.5</ele>
        <time>2021-08-08T12:35:44Z</time>
      </trkpt>
      <trkpt lat="44.95514" lon="5.5469">
        <ele>1018.3</ele>
        <time>2021-08-08T12:35:45Z</time>
      </trkpt>
      <trkpt lat="44.9553" lon="5.54685">
        <ele>1018</ele>
        <time>2021-08-08T12:35:47Z</time>
      </trkpt>
      <trkpt lat="44.95538" lon="5.54685">
        <ele>1017.9</ele>
        <time>2021-08-08T12:35:48Z</time>
      </trkpt>
      <trkpt lat="44.95552" lon="5.54695">
        <ele>1017.5</ele>
        <time>2021-08-08T12:35:50Z</time>
      </trkpt>
      <trkpt lat="44.95561" lon="5.54714">
        <ele>1017.2</ele>
        <time>2021-08-08T12:35:52Z</time>
      </trkpt>
      <trkpt lat="44.9557" lon="5.54732">
        <ele>1016.9</ele>
        <time>2021-08-08T12:35:54Z</time>
      </trkpt>
      <trkpt lat="44.95583" lon="5.54745">
        <ele>1016.6</ele>
        <time>2021-08-08T12:35:56Z</time>
      </trkpt>
      <trkpt lat="44.95589" lon="5.5475">
        <ele>1016.5</ele>
        <time>2021-08-08T12:35:57Z</time>
      </trkpt>
      <trkpt lat="44.95596" lon="5.54754">
        <ele>1016.3</ele>
        <time>2021-08-08T12:35:58Z</time>
      </trkpt>
      <trkpt lat="44.95603" lon="5.54758">
        <ele>1016.3</ele>
        <time>2021-08-08T12:35:59Z</time>
      </trkpt>
      <trkpt lat="44.95611" lon="5.54762">
        <ele>1016.2</ele>
        <time>2021-08-08T12:36:00Z</time>
      </trkpt>
      <trkpt lat="44.95625" lon="5.54771">
        <ele>1016.2</ele>
        <time>2021-08-08T12:36:02Z</time>
      </trkpt>
      <trkpt lat="44.95639" lon="5.54781">
        <ele>1016.2</ele>
        <time>2021-08-08T12:36:04Z</time>
      </trkpt>
      <trkpt lat="44.95645" lon="5.54785">
        <ele>1016.3</ele>
        <time>2021-08-08T12:36:05Z</time>
      </trkpt>
      <trkpt lat="44.95658" lon="5.54793">
        <ele>1016.5</ele>
        <time>2021-08-08T12:36:07Z</time>
      </trkpt>
      <trkpt lat="44.95669" lon="5.54804">
        <ele>1016.7</ele>
        <time>2021-08-08T12:36:09Z</time>
      </trkpt>
      <trkpt lat="44.95674" lon="5.54809">
        <ele>1016.8</ele>
        <time>2021-08-08T12:36:10Z</time>
      </trkpt>
      <trkpt lat="44.95682" lon="5.54821">
        <ele>1017</ele>
        <time>2021-08-08T12:36:12Z</time>
      </trkpt>
      <trkpt lat="44.95686" lon="5.54826">
        <ele>1017</ele>
        <time>2021-08-08T12:36:13Z</time>
      </trkpt>
      <trkpt lat="44.95694" lon="5.54838">
        <ele>1017.2</ele>
        <time>2021-08-08T12:36:15Z</time>
      </trkpt>
      <trkpt lat="44.95698" lon="5.54844">
        <ele>1017.3</ele>
        <time>2021-08-08T12:36:16Z</time>
      </trkpt>
      <trkpt lat="44.95701" lon="5.5485">
        <ele>1017.3</ele>
        <time>2021-08-08T12:36:17Z</time>
      </trkpt>
      <trkpt lat="44.9571" lon="5.54863">
        <ele>1017.6</ele>
        <time>2021-08-08T12:36:19Z</time>
      </trkpt>
      <trkpt lat="44.95717" lon="5.54874">
        <ele>1017.9</ele>
        <time>2021-08-08T12:36:21Z</time>
      </trkpt>
      <trkpt lat="44.95725" lon="5.54886">
        <ele>1018.2</ele>
        <time>2021-08-08T12:36:23Z</time>
      </trkpt>
      <trkpt lat="44.95733" lon="5.54895">
        <ele>1018.6</ele>
        <time>2021-08-08T12:36:25Z</time>
      </trkpt>
      <trkpt lat="44.95738" lon="5.54899">
        <ele>1018.7</ele>
        <time>2021-08-08T12:36:26Z</time>
      </trkpt>
      <trkpt lat="44.95746" lon="5.54906">
        <ele>1018.9</ele>
        <time>2021-08-08T12:36:28Z</time>
      </trkpt>
      <trkpt lat="44.9575" lon="5.54909">
        <ele>1019</ele>
        <time>2021-08-08T12:36:29Z</time>
      </trkpt>
      <trkpt lat="44.95759" lon="5.54914">
        <ele>1019.2</ele>
        <time>2021-08-08T12:36:31Z</time>
      </trkpt>
      <trkpt lat="44.95768" lon="5.54922">
        <ele>1019.2</ele>
        <time>2021-08-08T12:36:33Z</time>
      </trkpt>
      <trkpt lat="44.95777" lon="5.54928">
        <ele>1019.1</ele>
        <time>2021-08-08T12:36:35Z</time>
      </trkpt>
      <trkpt lat="44.95786" lon="5.54936">
        <ele>1019</ele>
        <time>2021-08-08T12:36:37Z</time>
      </trkpt>
      <trkpt lat="44.95796" lon="5.54944">
        <ele>1018.9</ele>
        <time>2021-08-08T12:36:39Z</time>
      </trkpt>
      <trkpt lat="44.95801" lon="5.54948">
        <ele>1018.8</ele>
        <time>2021-08-08T12:36:40Z</time>
      </trkpt>
      <trkpt lat="44.95805" lon="5.54952">
        <ele>1018.7</ele>
        <time>2021-08-08T12:36:41Z</time>
      </trkpt>
      <trkpt lat="44.95814" lon="5.54964">
        <ele>1018.4</ele>
        <time>2021-08-08T12:36:44Z</time>
      </trkpt>
      <trkpt lat="44.95823" lon="5.54977">
        <ele>1018.1</ele>
        <time>2021-08-08T12:36:45Z</time>
      </trkpt>
      <trkpt lat="44.95833" lon="5.54988">
        <ele>1017.8</ele>
        <time>2021-08-08T12:36:47Z</time>
      </trkpt>
      <trkpt lat="44.95838" lon="5.54994">
        <ele>1017.6</ele>
        <time>2021-08-08T12:36:48Z</time>
      </trkpt>
      <trkpt lat="44.95848" lon="5.55006">
        <ele>1017.1</ele>
        <time>2021-08-08T12:36:50Z</time>
      </trkpt>
      <trkpt lat="44.95859" lon="5.55019">
        <ele>1016.7</ele>
        <time>2021-08-08T12:36:52Z</time>
      </trkpt>
      <trkpt lat="44.95871" lon="5.55031">
        <ele>1016.2</ele>
        <time>2021-08-08T12:36:54Z</time>
      </trkpt>
      <trkpt lat="44.95877" lon="5.55038">
        <ele>1016</ele>
        <time>2021-08-08T12:36:55Z</time>
      </trkpt>
      <trkpt lat="44.95889" lon="5.55051">
        <ele>1015.5</ele>
        <time>2021-08-08T12:36:57Z</time>
      </trkpt>
      <trkpt lat="44.95895" lon="5.55057">
        <ele>1015.3</ele>
        <time>2021-08-08T12:36:58Z</time>
      </trkpt>
      <trkpt lat="44.95908" lon="5.55067">
        <ele>1014.7</ele>
        <time>2021-08-08T12:37:00Z</time>
      </trkpt>
      <trkpt lat="44.95922" lon="5.55076">
        <ele>1014.2</ele>
        <time>2021-08-08T12:37:02Z</time>
      </trkpt>
      <trkpt lat="44.95928" lon="5.55081">
        <ele>1013.9</ele>
        <time>2021-08-08T12:37:03Z</time>
      </trkpt>
      <trkpt lat="44.95941" lon="5.55089">
        <ele>1013.6</ele>
        <time>2021-08-08T12:37:05Z</time>
      </trkpt>
      <trkpt lat="44.95962" lon="5.55101">
        <ele>1013</ele>
        <time>2021-08-08T12:37:08Z</time>
      </trkpt>
      <trkpt lat="44.95969" lon="5.55104">
        <ele>1012.8</ele>
        <time>2021-08-08T12:37:09Z</time>
      </trkpt>
      <trkpt lat="44.95985" lon="5.55111">
        <ele>1012.4</ele>
        <time>2021-08-08T12:37:11Z</time>
      </trkpt>
      <trkpt lat="44.95992" lon="5.55114">
        <ele>1012.3</ele>
        <time>2021-08-08T12:37:12Z</time>
      </trkpt>
      <trkpt lat="44.96008" lon="5.5512">
        <ele>1012</ele>
        <time>2021-08-08T12:37:14Z</time>
      </trkpt>
      <trkpt lat="44.96016" lon="5.55123">
        <ele>1012</ele>
        <time>2021-08-08T12:37:15Z</time>
      </trkpt>
      <trkpt lat="44.96031" lon="5.55131">
        <ele>1011.9</ele>
        <time>2021-08-08T12:37:17Z</time>
      </trkpt>
      <trkpt lat="44.96037" lon="5.55136">
        <ele>1012</ele>
        <time>2021-08-08T12:37:18Z</time>
      </trkpt>
      <trkpt lat="44.96048" lon="5.55148">
        <ele>1012.3</ele>
        <time>2021-08-08T12:37:20Z</time>
      </trkpt>
      <trkpt lat="44.96052" lon="5.55155">
        <ele>1012.5</ele>
        <time>2021-08-08T12:37:21Z</time>
      </trkpt>
      <trkpt lat="44.9606" lon="5.55166">
        <ele>1013</ele>
        <time>2021-08-08T12:37:23Z</time>
      </trkpt>
      <trkpt lat="44.96064" lon="5.55171">
        <ele>1013.3</ele>
        <time>2021-08-08T12:37:24Z</time>
      </trkpt>
      <trkpt lat="44.96072" lon="5.5518">
        <ele>1013.7</ele>
        <time>2021-08-08T12:37:26Z</time>
      </trkpt>
      <trkpt lat="44.96078" lon="5.55187">
        <ele>1014.1</ele>
        <time>2021-08-08T12:37:28Z</time>
      </trkpt>
      <trkpt lat="44.96082" lon="5.55191">
        <ele>1014.3</ele>
        <time>2021-08-08T12:37:29Z</time>
      </trkpt>
      <trkpt lat="44.9609" lon="5.55198">
        <ele>1014.8</ele>
        <time>2021-08-08T12:37:31Z</time>
      </trkpt>
      <trkpt lat="44.96099" lon="5.55206">
        <ele>1015.2</ele>
        <time>2021-08-08T12:37:33Z</time>
      </trkpt>
      <trkpt lat="44.96104" lon="5.55211">
        <ele>1015.5</ele>
        <time>2021-08-08T12:37:34Z</time>
      </trkpt>
      <trkpt lat="44.96113" lon="5.5522">
        <ele>1015.9</ele>
        <time>2021-08-08T12:37:36Z</time>
      </trkpt>
      <trkpt lat="44.96116" lon="5.55225">
        <ele>1016.1</ele>
        <time>2021-08-08T12:37:38Z</time>
      </trkpt>
      <trkpt lat="44.96123" lon="5.55237">
        <ele>1016.6</ele>
        <time>2021-08-08T12:37:40Z</time>
      </trkpt>
      <trkpt lat="44.96128" lon="5.55249">
        <ele>1017.1</ele>
        <time>2021-08-08T12:37:42Z</time>
      </trkpt>
      <trkpt lat="44.96132" lon="5.55261">
        <ele>1017.5</ele>
        <time>2021-08-08T12:37:44Z</time>
      </trkpt>
      <trkpt lat="44.96134" lon="5.55267">
        <ele>1017.8</ele>
        <time>2021-08-08T12:37:45Z</time>
      </trkpt>
      <trkpt lat="44.96136" lon="5.55276">
        <ele>1018.2</ele>
        <time>2021-08-08T12:37:46Z</time>
      </trkpt>
      <trkpt lat="44.96138" lon="5.55287">
        <ele>1018.6</ele>
        <time>2021-08-08T12:37:48Z</time>
      </trkpt>
      <trkpt lat="44.96138" lon="5.55292">
        <ele>1018.8</ele>
        <time>2021-08-08T12:37:50Z</time>
      </trkpt>
      <trkpt lat="44.96137" lon="5.55297">
        <ele>1018.9</ele>
        <time>2021-08-08T12:37:51Z</time>
      </trkpt>
      <trkpt lat="44.96134" lon="5.553">
        <ele>1019.1</ele>
        <time>2021-08-08T12:37:52Z</time>
      </trkpt>
      <trkpt lat="44.96134" lon="5.55304">
        <ele>1019.3</ele>
        <time>2021-08-08T12:37:53Z</time>
      </trkpt>
      <trkpt lat="44.96133" lon="5.55315">
        <ele>1019.8</ele>
        <time>2021-08-08T12:37:55Z</time>
      </trkpt>
      <trkpt lat="44.96131" lon="5.55322">
        <ele>1020.1</ele>
        <time>2021-08-08T12:37:56Z</time>
      </trkpt>
      <trkpt lat="44.96129" lon="5.55328">
        <ele>1020</ele>
        <time>2021-08-08T12:37:58Z</time>
      </trkpt>
      <trkpt lat="44.96127" lon="5.55335">
        <ele>1019.9</ele>
        <time>2021-08-08T12:37:59Z</time>
      </trkpt>
      <trkpt lat="44.96123" lon="5.55342">
        <ele>1019.8</ele>
        <time>2021-08-08T12:38:00Z</time>
      </trkpt>
      <trkpt lat="44.96121" lon="5.55348">
        <ele>1019.8</ele>
        <time>2021-08-08T12:38:01Z</time>
      </trkpt>
      <trkpt lat="44.96119" lon="5.55353">
        <ele>1019.7</ele>
        <time>2021-08-08T12:38:02Z</time>
      </trkpt>
      <trkpt lat="44.96118" lon="5.5536">
        <ele>1019.5</ele>
        <time>2021-08-08T12:38:04Z</time>
      </trkpt>
      <trkpt lat="44.96119" lon="5.55368">
        <ele>1019.2</ele>
        <time>2021-08-08T12:38:05Z</time>
      </trkpt>
      <trkpt lat="44.96123" lon="5.55378">
        <ele>1018.9</ele>
        <time>2021-08-08T12:38:07Z</time>
      </trkpt>
      <trkpt lat="44.96128" lon="5.55387">
        <ele>1018.5</ele>
        <time>2021-08-08T12:38:08Z</time>
      </trkpt>
      <trkpt lat="44.96131" lon="5.55394">
        <ele>1018.1</ele>
        <time>2021-08-08T12:38:10Z</time>
      </trkpt>
      <trkpt lat="44.96135" lon="5.55402">
        <ele>1017.8</ele>
        <time>2021-08-08T12:38:11Z</time>
      </trkpt>
      <trkpt lat="44.96155" lon="5.55418">
        <ele>1015.6</ele>
        <time>2021-08-08T12:38:13Z</time>
      </trkpt>
      <trkpt lat="44.96172" lon="5.55425">
        <ele>1013.9</ele>
        <time>2021-08-08T12:38:15Z</time>
      </trkpt>
      <trkpt lat="44.96192" lon="5.5543">
        <ele>1012.1</ele>
        <time>2021-08-08T12:38:17Z</time>
      </trkpt>
      <trkpt lat="44.96211" lon="5.55436">
        <ele>1010.1</ele>
        <time>2021-08-08T12:38:19Z</time>
      </trkpt>
      <trkpt lat="44.96232" lon="5.55441">
        <ele>1007.9</ele>
        <time>2021-08-08T12:38:21Z</time>
      </trkpt>
      <trkpt lat="44.96254" lon="5.55446">
        <ele>1005.3</ele>
        <time>2021-08-08T12:38:23Z</time>
      </trkpt>
      <trkpt lat="44.9629" lon="5.55449">
        <ele>1001</ele>
        <time>2021-08-08T12:38:26Z</time>
      </trkpt>
      <trkpt lat="44.96316" lon="5.5545">
        <ele>997.8</ele>
        <time>2021-08-08T12:38:29Z</time>
      </trkpt>
      <trkpt lat="44.96342" lon="5.55448">
        <ele>994.5</ele>
        <time>2021-08-08T12:38:30Z</time>
      </trkpt>
      <trkpt lat="44.96378" lon="5.55437">
        <ele>990</ele>
        <time>2021-08-08T12:38:33Z</time>
      </trkpt>
      <trkpt lat="44.964" lon="5.55429">
        <ele>987.5</ele>
        <time>2021-08-08T12:38:35Z</time>
      </trkpt>
      <trkpt lat="44.96408" lon="5.55426">
        <ele>986.7</ele>
        <time>2021-08-08T12:38:36Z</time>
      </trkpt>
      <trkpt lat="44.96414" lon="5.55425">
        <ele>986.3</ele>
        <time>2021-08-08T12:38:37Z</time>
      </trkpt>
      <trkpt lat="44.96422" lon="5.55426">
        <ele>985.7</ele>
        <time>2021-08-08T12:38:39Z</time>
      </trkpt>
      <trkpt lat="44.96429" lon="5.55429">
        <ele>985.3</ele>
        <time>2021-08-08T12:38:41Z</time>
      </trkpt>
      <trkpt lat="44.96431" lon="5.5543">
        <ele>985.3</ele>
        <time>2021-08-08T12:38:42Z</time>
      </trkpt>
      <trkpt lat="44.96431" lon="5.5543">
        <ele>985.3</ele>
        <time>2021-08-08T12:38:44Z</time>
      </trkpt>
      <trkpt lat="44.96432" lon="5.5543">
        <ele>985.3</ele>
        <time>2021-08-08T12:38:45Z</time>
      </trkpt>
      <trkpt lat="44.96433" lon="5.55429">
        <ele>985.3</ele>
        <time>2021-08-08T12:38:47Z</time>
      </trkpt>
      <trkpt lat="44.96433" lon="5.55429">
        <ele>985.2</ele>
        <time>2021-08-08T12:38:49Z</time>
      </trkpt>
      <trkpt lat="44.96434" lon="5.55429">
        <ele>985.2</ele>
        <time>2021-08-08T12:38:52Z</time>
      </trkpt>
      <trkpt lat="44.96435" lon="5.55429">
        <ele>985.2</ele>
        <time>2021-08-08T12:38:53Z</time>
      </trkpt>
      <trkpt lat="44.96436" lon="5.55428">
        <ele>985.2</ele>
        <time>2021-08-08T12:38:54Z</time>
      </trkpt>
      <trkpt lat="44.96436" lon="5.55428">
        <ele>985.2</ele>
        <time>2021-08-08T12:38:56Z</time>
      </trkpt>
      <trkpt lat="44.96437" lon="5.55428">
        <ele>985.2</ele>
        <time>2021-08-08T12:40:12Z</time>
      </trkpt>
      <trkpt lat="44.96438" lon="5.55427">
        <ele>985.2</ele>
        <time>2021-08-08T12:40:13Z</time>
      </trkpt>
      <trkpt lat="44.96441" lon="5.55426">
        <ele>985.1</ele>
        <time>2021-08-08T12:40:14Z</time>
      </trkpt>
      <trkpt lat="44.96447" lon="5.55427">
        <ele>985.1</ele>
        <time>2021-08-08T12:40:16Z</time>
      </trkpt>
      <trkpt lat="44.96452" lon="5.55428">
        <ele>985</ele>
        <time>2021-08-08T12:40:17Z</time>
      </trkpt>
      <trkpt lat="44.96462" lon="5.55428">
        <ele>984.9</ele>
        <time>2021-08-08T12:40:19Z</time>
      </trkpt>
      <trkpt lat="44.96467" lon="5.55429">
        <ele>984.8</ele>
        <time>2021-08-08T12:40:20Z</time>
      </trkpt>
      <trkpt lat="44.9648" lon="5.5543">
        <ele>984.8</ele>
        <time>2021-08-08T12:40:23Z</time>
      </trkpt>
      <trkpt lat="44.9649" lon="5.55429">
        <ele>984.8</ele>
        <time>2021-08-08T12:40:25Z</time>
      </trkpt>
      <trkpt lat="44.96495" lon="5.55429">
        <ele>984.8</ele>
        <time>2021-08-08T12:40:26Z</time>
      </trkpt>
      <trkpt lat="44.96506" lon="5.5543">
        <ele>984.9</ele>
        <time>2021-08-08T12:40:28Z</time>
      </trkpt>
      <trkpt lat="44.96511" lon="5.55432">
        <ele>985</ele>
        <time>2021-08-08T12:40:29Z</time>
      </trkpt>
      <trkpt lat="44.96519" lon="5.55434">
        <ele>985</ele>
        <time>2021-08-08T12:40:30Z</time>
      </trkpt>
      <trkpt lat="44.96524" lon="5.55439">
        <ele>984.9</ele>
        <time>2021-08-08T12:40:31Z</time>
      </trkpt>
      <trkpt lat="44.96534" lon="5.55452">
        <ele>984.4</ele>
        <time>2021-08-08T12:40:33Z</time>
      </trkpt>
      <trkpt lat="44.96538" lon="5.55459">
        <ele>984.2</ele>
        <time>2021-08-08T12:40:35Z</time>
      </trkpt>
      <trkpt lat="44.96545" lon="5.55472">
        <ele>983.6</ele>
        <time>2021-08-08T12:40:36Z</time>
      </trkpt>
      <trkpt lat="44.96549" lon="5.5548">
        <ele>983.3</ele>
        <time>2021-08-08T12:40:37Z</time>
      </trkpt>
      <trkpt lat="44.96552" lon="5.55487">
        <ele>983</ele>
        <time>2021-08-08T12:40:38Z</time>
      </trkpt>
      <trkpt lat="44.96555" lon="5.55495">
        <ele>982.9</ele>
        <time>2021-08-08T12:40:39Z</time>
      </trkpt>
      <trkpt lat="44.96562" lon="5.55512">
        <ele>982.2</ele>
        <time>2021-08-08T12:40:41Z</time>
      </trkpt>
      <trkpt lat="44.9657" lon="5.5553">
        <ele>981.4</ele>
        <time>2021-08-08T12:40:43Z</time>
      </trkpt>
      <trkpt lat="44.96574" lon="5.55538">
        <ele>980.9</ele>
        <time>2021-08-08T12:40:44Z</time>
      </trkpt>
      <trkpt lat="44.96584" lon="5.55554">
        <ele>980</ele>
        <time>2021-08-08T12:40:47Z</time>
      </trkpt>
      <trkpt lat="44.96603" lon="5.55581">
        <ele>978.4</ele>
        <time>2021-08-08T12:40:49Z</time>
      </trkpt>
      <trkpt lat="44.96618" lon="5.55597">
        <ele>977.2</ele>
        <time>2021-08-08T12:40:51Z</time>
      </trkpt>
      <trkpt lat="44.96627" lon="5.55604">
        <ele>976.7</ele>
        <time>2021-08-08T12:40:53Z</time>
      </trkpt>
      <trkpt lat="44.96644" lon="5.55621">
        <ele>975.5</ele>
        <time>2021-08-08T12:40:54Z</time>
      </trkpt>
      <trkpt lat="44.9665" lon="5.55632">
        <ele>975</ele>
        <time>2021-08-08T12:40:56Z</time>
      </trkpt>
      <trkpt lat="44.96659" lon="5.5565">
        <ele>974.1</ele>
        <time>2021-08-08T12:40:57Z</time>
      </trkpt>
      <trkpt lat="44.9667" lon="5.55644">
        <ele>973.5</ele>
        <time>2021-08-08T12:40:59Z</time>
      </trkpt>
      <trkpt lat="44.9667" lon="5.55622">
        <ele>972.6</ele>
        <time>2021-08-08T12:41:01Z</time>
      </trkpt>
      <trkpt lat="44.96665" lon="5.55602">
        <ele>971.8</ele>
        <time>2021-08-08T12:41:04Z</time>
      </trkpt>
      <trkpt lat="44.96662" lon="5.55582">
        <ele>971</ele>
        <time>2021-08-08T12:41:05Z</time>
      </trkpt>
      <trkpt lat="44.96666" lon="5.5556">
        <ele>970.1</ele>
        <time>2021-08-08T12:41:07Z</time>
      </trkpt>
      <trkpt lat="44.96677" lon="5.55542">
        <ele>969</ele>
        <time>2021-08-08T12:41:09Z</time>
      </trkpt>
      <trkpt lat="44.96692" lon="5.55528">
        <ele>967.9</ele>
        <time>2021-08-08T12:41:11Z</time>
      </trkpt>
      <trkpt lat="44.96711" lon="5.55522">
        <ele>966.7</ele>
        <time>2021-08-08T12:41:13Z</time>
      </trkpt>
      <trkpt lat="44.96721" lon="5.55519">
        <ele>966</ele>
        <time>2021-08-08T12:41:14Z</time>
      </trkpt>
      <trkpt lat="44.96731" lon="5.55515">
        <ele>965.3</ele>
        <time>2021-08-08T12:41:15Z</time>
      </trkpt>
      <trkpt lat="44.96752" lon="5.55505">
        <ele>963.9</ele>
        <time>2021-08-08T12:41:17Z</time>
      </trkpt>
      <trkpt lat="44.96773" lon="5.55497">
        <ele>962.3</ele>
        <time>2021-08-08T12:41:19Z</time>
      </trkpt>
      <trkpt lat="44.96794" lon="5.55496">
        <ele>960.8</ele>
        <time>2021-08-08T12:41:21Z</time>
      </trkpt>
      <trkpt lat="44.96804" lon="5.55498">
        <ele>960.2</ele>
        <time>2021-08-08T12:41:23Z</time>
      </trkpt>
      <trkpt lat="44.96826" lon="5.555">
        <ele>959.2</ele>
        <time>2021-08-08T12:41:24Z</time>
      </trkpt>
      <trkpt lat="44.96847" lon="5.55501">
        <ele>958.5</ele>
        <time>2021-08-08T12:41:26Z</time>
      </trkpt>
      <trkpt lat="44.96858" lon="5.55503">
        <ele>958.1</ele>
        <time>2021-08-08T12:41:27Z</time>
      </trkpt>
      <trkpt lat="44.96878" lon="5.55509">
        <ele>957.3</ele>
        <time>2021-08-08T12:41:29Z</time>
      </trkpt>
      <trkpt lat="44.96888" lon="5.55509">
        <ele>956.9</ele>
        <time>2021-08-08T12:41:31Z</time>
      </trkpt>
      <trkpt lat="44.96907" lon="5.55506">
        <ele>955.9</ele>
        <time>2021-08-08T12:41:32Z</time>
      </trkpt>
      <trkpt lat="44.96926" lon="5.555">
        <ele>955.1</ele>
        <time>2021-08-08T12:41:35Z</time>
      </trkpt>
      <trkpt lat="44.96937" lon="5.55508">
        <ele>954.5</ele>
        <time>2021-08-08T12:41:36Z</time>
      </trkpt>
      <trkpt lat="44.9694" lon="5.55515">
        <ele>954.4</ele>
        <time>2021-08-08T12:41:37Z</time>
      </trkpt>
      <trkpt lat="44.9695" lon="5.55529">
        <ele>954</ele>
        <time>2021-08-08T12:41:39Z</time>
      </trkpt>
      <trkpt lat="44.96956" lon="5.55532">
        <ele>954</ele>
        <time>2021-08-08T12:41:40Z</time>
      </trkpt>
      <trkpt lat="44.96961" lon="5.55533">
        <ele>954</ele>
        <time>2021-08-08T12:41:41Z</time>
      </trkpt>
      <trkpt lat="44.96972" lon="5.55541">
        <ele>954</ele>
        <time>2021-08-08T12:41:43Z</time>
      </trkpt>
      <trkpt lat="44.96982" lon="5.55553">
        <ele>954.1</ele>
        <time>2021-08-08T12:41:46Z</time>
      </trkpt>
      <trkpt lat="44.96991" lon="5.55565">
        <ele>954.2</ele>
        <time>2021-08-08T12:41:47Z</time>
      </trkpt>
      <trkpt lat="44.96998" lon="5.55579">
        <ele>954.5</ele>
        <time>2021-08-08T12:41:49Z</time>
      </trkpt>
      <trkpt lat="44.97" lon="5.55587">
        <ele>954.6</ele>
        <time>2021-08-08T12:41:51Z</time>
      </trkpt>
      <trkpt lat="44.97003" lon="5.55603">
        <ele>954.8</ele>
        <time>2021-08-08T12:41:52Z</time>
      </trkpt>
      <trkpt lat="44.97005" lon="5.55619">
        <ele>954.9</ele>
        <time>2021-08-08T12:41:54Z</time>
      </trkpt>
      <trkpt lat="44.97006" lon="5.55634">
        <ele>955</ele>
        <time>2021-08-08T12:41:56Z</time>
      </trkpt>
      <trkpt lat="44.97007" lon="5.55641">
        <ele>955.1</ele>
        <time>2021-08-08T12:41:58Z</time>
      </trkpt>
      <trkpt lat="44.97008" lon="5.55656">
        <ele>955.2</ele>
        <time>2021-08-08T12:41:59Z</time>
      </trkpt>
      <trkpt lat="44.97009" lon="5.55663">
        <ele>955.2</ele>
        <time>2021-08-08T12:42:00Z</time>
      </trkpt>
      <trkpt lat="44.9701" lon="5.55677">
        <ele>955.4</ele>
        <time>2021-08-08T12:42:02Z</time>
      </trkpt>
      <trkpt lat="44.97012" lon="5.55692">
        <ele>955.5</ele>
        <time>2021-08-08T12:42:04Z</time>
      </trkpt>
      <trkpt lat="44.97014" lon="5.55698">
        <ele>955.6</ele>
        <time>2021-08-08T12:42:05Z</time>
      </trkpt>
      <trkpt lat="44.97017" lon="5.55711">
        <ele>955.7</ele>
        <time>2021-08-08T12:42:08Z</time>
      </trkpt>
      <trkpt lat="44.97019" lon="5.55726">
        <ele>955.8</ele>
        <time>2021-08-08T12:42:10Z</time>
      </trkpt>
      <trkpt lat="44.9702" lon="5.5574">
        <ele>955.8</ele>
        <time>2021-08-08T12:42:11Z</time>
      </trkpt>
      <trkpt lat="44.97021" lon="5.55747">
        <ele>955.8</ele>
        <time>2021-08-08T12:42:12Z</time>
      </trkpt>
      <trkpt lat="44.97022" lon="5.55761">
        <ele>955.9</ele>
        <time>2021-08-08T12:42:14Z</time>
      </trkpt>
      <trkpt lat="44.97023" lon="5.55769">
        <ele>955.9</ele>
        <time>2021-08-08T12:42:16Z</time>
      </trkpt>
      <trkpt lat="44.97027" lon="5.55783">
        <ele>955.9</ele>
        <time>2021-08-08T12:42:17Z</time>
      </trkpt>
      <trkpt lat="44.9703" lon="5.55789">
        <ele>955.9</ele>
        <time>2021-08-08T12:42:18Z</time>
      </trkpt>
      <trkpt lat="44.97037" lon="5.55801">
        <ele>955.9</ele>
        <time>2021-08-08T12:42:21Z</time>
      </trkpt>
      <trkpt lat="44.97041" lon="5.55806">
        <ele>955.8</ele>
        <time>2021-08-08T12:42:22Z</time>
      </trkpt>
      <trkpt lat="44.97051" lon="5.55815">
        <ele>955.7</ele>
        <time>2021-08-08T12:42:23Z</time>
      </trkpt>
      <trkpt lat="44.97062" lon="5.55823">
        <ele>955.6</ele>
        <time>2021-08-08T12:42:26Z</time>
      </trkpt>
      <trkpt lat="44.97073" lon="5.5583">
        <ele>955.5</ele>
        <time>2021-08-08T12:42:27Z</time>
      </trkpt>
      <trkpt lat="44.97079" lon="5.55835">
        <ele>955.4</ele>
        <time>2021-08-08T12:42:28Z</time>
      </trkpt>
      <trkpt lat="44.97084" lon="5.55841">
        <ele>955.4</ele>
        <time>2021-08-08T12:42:29Z</time>
      </trkpt>
      <trkpt lat="44.97088" lon="5.55849">
        <ele>955.3</ele>
        <time>2021-08-08T12:42:30Z</time>
      </trkpt>
      <trkpt lat="44.97091" lon="5.55858">
        <ele>955.2</ele>
        <time>2021-08-08T12:42:31Z</time>
      </trkpt>
      <trkpt lat="44.97093" lon="5.55887">
        <ele>954.5</ele>
        <time>2021-08-08T12:42:34Z</time>
      </trkpt>
      <trkpt lat="44.97095" lon="5.55905">
        <ele>953.9</ele>
        <time>2021-08-08T12:42:36Z</time>
      </trkpt>
      <trkpt lat="44.97096" lon="5.55914">
        <ele>953.5</ele>
        <time>2021-08-08T12:42:37Z</time>
      </trkpt>
      <trkpt lat="44.97099" lon="5.55924">
        <ele>953.1</ele>
        <time>2021-08-08T12:42:39Z</time>
      </trkpt>
      <trkpt lat="44.97109" lon="5.55942">
        <ele>952.3</ele>
        <time>2021-08-08T12:42:40Z</time>
      </trkpt>
      <trkpt lat="44.97117" lon="5.55947">
        <ele>951.7</ele>
        <time>2021-08-08T12:42:41Z</time>
      </trkpt>
      <trkpt lat="44.97125" lon="5.5595">
        <ele>951.2</ele>
        <time>2021-08-08T12:42:42Z</time>
      </trkpt>
      <trkpt lat="44.97144" lon="5.55953">
        <ele>950.1</ele>
        <time>2021-08-08T12:42:44Z</time>
      </trkpt>
      <trkpt lat="44.97153" lon="5.55955">
        <ele>949.5</ele>
        <time>2021-08-08T12:42:46Z</time>
      </trkpt>
      <trkpt lat="44.97172" lon="5.55962">
        <ele>948.3</ele>
        <time>2021-08-08T12:42:47Z</time>
      </trkpt>
      <trkpt lat="44.9718" lon="5.55969">
        <ele>947.7</ele>
        <time>2021-08-08T12:42:48Z</time>
      </trkpt>
      <trkpt lat="44.97194" lon="5.5599">
        <ele>946.3</ele>
        <time>2021-08-08T12:42:50Z</time>
      </trkpt>
      <trkpt lat="44.972" lon="5.56003">
        <ele>945.6</ele>
        <time>2021-08-08T12:42:52Z</time>
      </trkpt>
      <trkpt lat="44.97204" lon="5.56029">
        <ele>944.3</ele>
        <time>2021-08-08T12:42:53Z</time>
      </trkpt>
      <trkpt lat="44.97205" lon="5.56042">
        <ele>943.6</ele>
        <time>2021-08-08T12:42:54Z</time>
      </trkpt>
      <trkpt lat="44.97213" lon="5.56069">
        <ele>942.4</ele>
        <time>2021-08-08T12:42:56Z</time>
      </trkpt>
      <trkpt lat="44.9722" lon="5.56079">
        <ele>941.8</ele>
        <time>2021-08-08T12:42:58Z</time>
      </trkpt>
      <trkpt lat="44.9724" lon="5.56089">
        <ele>940.7</ele>
        <time>2021-08-08T12:43:00Z</time>
      </trkpt>
      <trkpt lat="44.9726" lon="5.56086">
        <ele>939.7</ele>
        <time>2021-08-08T12:43:01Z</time>
      </trkpt>
      <trkpt lat="44.9727" lon="5.56082">
        <ele>939.4</ele>
        <time>2021-08-08T12:43:02Z</time>
      </trkpt>
      <trkpt lat="44.9728" lon="5.56078">
        <ele>939.1</ele>
        <time>2021-08-08T12:43:04Z</time>
      </trkpt>
      <trkpt lat="44.97298" lon="5.56071">
        <ele>938.6</ele>
        <time>2021-08-08T12:43:05Z</time>
      </trkpt>
      <trkpt lat="44.97307" lon="5.56071">
        <ele>938.4</ele>
        <time>2021-08-08T12:43:06Z</time>
      </trkpt>
      <trkpt lat="44.97317" lon="5.56071">
        <ele>938.2</ele>
        <time>2021-08-08T12:43:08Z</time>
      </trkpt>
      <trkpt lat="44.97326" lon="5.56109">
        <ele>938</ele>
        <time>2021-08-08T12:43:10Z</time>
      </trkpt>
      <trkpt lat="44.97325" lon="5.56122">
        <ele>938</ele>
        <time>2021-08-08T12:43:11Z</time>
      </trkpt>
      <trkpt lat="44.97321" lon="5.56133">
        <ele>937.9</ele>
        <time>2021-08-08T12:43:12Z</time>
      </trkpt>
      <trkpt lat="44.97319" lon="5.56142">
        <ele>937.9</ele>
        <time>2021-08-08T12:43:13Z</time>
      </trkpt>
      <trkpt lat="44.97305" lon="5.56167">
        <ele>937.9</ele>
        <time>2021-08-08T12:43:16Z</time>
      </trkpt>
      <trkpt lat="44.97294" lon="5.56176">
        <ele>937.9</ele>
        <time>2021-08-08T12:43:18Z</time>
      </trkpt>
      <trkpt lat="44.97289" lon="5.56181">
        <ele>937.9</ele>
        <time>2021-08-08T12:43:19Z</time>
      </trkpt>
      <trkpt lat="44.97272" lon="5.56194">
        <ele>938</ele>
        <time>2021-08-08T12:43:22Z</time>
      </trkpt>
      <trkpt lat="44.97266" lon="5.56198">
        <ele>938</ele>
        <time>2021-08-08T12:43:24Z</time>
      </trkpt>
      <trkpt lat="44.97256" lon="5.56207">
        <ele>937.9</ele>
        <time>2021-08-08T12:43:25Z</time>
      </trkpt>
      <trkpt lat="44.97246" lon="5.56214">
        <ele>937.9</ele>
        <time>2021-08-08T12:43:28Z</time>
      </trkpt>
      <trkpt lat="44.97235" lon="5.5622">
        <ele>937.9</ele>
        <time>2021-08-08T12:43:29Z</time>
      </trkpt>
      <trkpt lat="44.97229" lon="5.56224">
        <ele>937.9</ele>
        <time>2021-08-08T12:43:30Z</time>
      </trkpt>
      <trkpt lat="44.97218" lon="5.5623">
        <ele>937.9</ele>
        <time>2021-08-08T12:43:32Z</time>
      </trkpt>
      <trkpt lat="44.97208" lon="5.56236">
        <ele>937.9</ele>
        <time>2021-08-08T12:43:34Z</time>
      </trkpt>
      <trkpt lat="44.97197" lon="5.56242">
        <ele>937.9</ele>
        <time>2021-08-08T12:43:36Z</time>
      </trkpt>
      <trkpt lat="44.97187" lon="5.56248">
        <ele>937.9</ele>
        <time>2021-08-08T12:43:38Z</time>
      </trkpt>
      <trkpt lat="44.97182" lon="5.56251">
        <ele>938</ele>
        <time>2021-08-08T12:43:40Z</time>
      </trkpt>
      <trkpt lat="44.97172" lon="5.56256">
        <ele>938</ele>
        <time>2021-08-08T12:43:41Z</time>
      </trkpt>
      <trkpt lat="44.97162" lon="5.56262">
        <ele>938.1</ele>
        <time>2021-08-08T12:43:43Z</time>
      </trkpt>
      <trkpt lat="44.97157" lon="5.56265">
        <ele>938.1</ele>
        <time>2021-08-08T12:43:44Z</time>
      </trkpt>
      <trkpt lat="44.97147" lon="5.56271">
        <ele>938.1</ele>
        <time>2021-08-08T12:43:46Z</time>
      </trkpt>
      <trkpt lat="44.97137" lon="5.56277">
        <ele>938.2</ele>
        <time>2021-08-08T12:43:48Z</time>
      </trkpt>
      <trkpt lat="44.97132" lon="5.5628">
        <ele>938.2</ele>
        <time>2021-08-08T12:43:49Z</time>
      </trkpt>
      <trkpt lat="44.97127" lon="5.56282">
        <ele>938.2</ele>
        <time>2021-08-08T12:43:50Z</time>
      </trkpt>
      <trkpt lat="44.97122" lon="5.56285">
        <ele>938.2</ele>
        <time>2021-08-08T12:43:52Z</time>
      </trkpt>
      <trkpt lat="44.97116" lon="5.56288">
        <ele>938.2</ele>
        <time>2021-08-08T12:43:53Z</time>
      </trkpt>
      <trkpt lat="44.97111" lon="5.56291">
        <ele>938.3</ele>
        <time>2021-08-08T12:43:54Z</time>
      </trkpt>
      <trkpt lat="44.97101" lon="5.56297">
        <ele>938.3</ele>
        <time>2021-08-08T12:43:55Z</time>
      </trkpt>
      <trkpt lat="44.97087" lon="5.56308">
        <ele>938.4</ele>
        <time>2021-08-08T12:43:58Z</time>
      </trkpt>
      <trkpt lat="44.97083" lon="5.56313">
        <ele>938.5</ele>
        <time>2021-08-08T12:43:59Z</time>
      </trkpt>
      <trkpt lat="44.97074" lon="5.56324">
        <ele>938.6</ele>
        <time>2021-08-08T12:44:01Z</time>
      </trkpt>
      <trkpt lat="44.97064" lon="5.56345">
        <ele>938.9</ele>
        <time>2021-08-08T12:44:04Z</time>
      </trkpt>
      <trkpt lat="44.97061" lon="5.56352">
        <ele>939.1</ele>
        <time>2021-08-08T12:44:05Z</time>
      </trkpt>
      <trkpt lat="44.9706" lon="5.56359">
        <ele>939.2</ele>
        <time>2021-08-08T12:44:06Z</time>
      </trkpt>
      <trkpt lat="44.97057" lon="5.56374">
        <ele>939.5</ele>
        <time>2021-08-08T12:44:08Z</time>
      </trkpt>
      <trkpt lat="44.97056" lon="5.56382">
        <ele>939.7</ele>
        <time>2021-08-08T12:44:10Z</time>
      </trkpt>
      <trkpt lat="44.97053" lon="5.56397">
        <ele>940.1</ele>
        <time>2021-08-08T12:44:11Z</time>
      </trkpt>
      <trkpt lat="44.97052" lon="5.56404">
        <ele>940.3</ele>
        <time>2021-08-08T12:44:12Z</time>
      </trkpt>
      <trkpt lat="44.97049" lon="5.56418">
        <ele>940.7</ele>
        <time>2021-08-08T12:44:14Z</time>
      </trkpt>
      <trkpt lat="44.97048" lon="5.56428">
        <ele>940.9</ele>
        <time>2021-08-08T12:44:16Z</time>
      </trkpt>
      <trkpt lat="44.97047" lon="5.56435">
        <ele>941.1</ele>
        <time>2021-08-08T12:44:18Z</time>
      </trkpt>
      <trkpt lat="44.97045" lon="5.56444">
        <ele>941.4</ele>
        <time>2021-08-08T12:44:19Z</time>
      </trkpt>
      <trkpt lat="44.97044" lon="5.56448">
        <ele>941.5</ele>
        <time>2021-08-08T12:44:20Z</time>
      </trkpt>
      <trkpt lat="44.97042" lon="5.56458">
        <ele>941.8</ele>
        <time>2021-08-08T12:44:22Z</time>
      </trkpt>
      <trkpt lat="44.97041" lon="5.56465">
        <ele>941.9</ele>
        <time>2021-08-08T12:44:24Z</time>
      </trkpt>
      <trkpt lat="44.97039" lon="5.56467">
        <ele>942</ele>
        <time>2021-08-08T12:44:25Z</time>
      </trkpt>
      <trkpt lat="44.97038" lon="5.56475">
        <ele>942.1</ele>
        <time>2021-08-08T12:44:26Z</time>
      </trkpt>
      <trkpt lat="44.97038" lon="5.56481">
        <ele>942.2</ele>
        <time>2021-08-08T12:44:27Z</time>
      </trkpt>
      <trkpt lat="44.97038" lon="5.56488">
        <ele>942.3</ele>
        <time>2021-08-08T12:44:29Z</time>
      </trkpt>
      <trkpt lat="44.97038" lon="5.56494">
        <ele>942.3</ele>
        <time>2021-08-08T12:44:30Z</time>
      </trkpt>
      <trkpt lat="44.9704" lon="5.56503">
        <ele>942.4</ele>
        <time>2021-08-08T12:44:31Z</time>
      </trkpt>
      <trkpt lat="44.97045" lon="5.56512">
        <ele>942.3</ele>
        <time>2021-08-08T12:44:32Z</time>
      </trkpt>
      <trkpt lat="44.97049" lon="5.56518">
        <ele>942.3</ele>
        <time>2021-08-08T12:44:33Z</time>
      </trkpt>
      <trkpt lat="44.97054" lon="5.56523">
        <ele>942.2</ele>
        <time>2021-08-08T12:44:34Z</time>
      </trkpt>
      <trkpt lat="44.97059" lon="5.56527">
        <ele>942.1</ele>
        <time>2021-08-08T12:44:35Z</time>
      </trkpt>
      <trkpt lat="44.97064" lon="5.56531">
        <ele>942</ele>
        <time>2021-08-08T12:44:37Z</time>
      </trkpt>
      <trkpt lat="44.97075" lon="5.56538">
        <ele>941.8</ele>
        <time>2021-08-08T12:44:38Z</time>
      </trkpt>
      <trkpt lat="44.97094" lon="5.56549">
        <ele>941.5</ele>
        <time>2021-08-08T12:44:41Z</time>
      </trkpt>
      <trkpt lat="44.97105" lon="5.56559">
        <ele>941.2</ele>
        <time>2021-08-08T12:44:43Z</time>
      </trkpt>
      <trkpt lat="44.97117" lon="5.56572">
        <ele>940.8</ele>
        <time>2021-08-08T12:44:45Z</time>
      </trkpt>
      <trkpt lat="44.97128" lon="5.56587">
        <ele>940.4</ele>
        <time>2021-08-08T12:44:47Z</time>
      </trkpt>
      <trkpt lat="44.97133" lon="5.56595">
        <ele>940.1</ele>
        <time>2021-08-08T12:44:49Z</time>
      </trkpt>
      <trkpt lat="44.97142" lon="5.56614">
        <ele>939.5</ele>
        <time>2021-08-08T12:44:50Z</time>
      </trkpt>
      <trkpt lat="44.97147" lon="5.56625">
        <ele>939.1</ele>
        <time>2021-08-08T12:44:51Z</time>
      </trkpt>
      <trkpt lat="44.97155" lon="5.56645">
        <ele>938.5</ele>
        <time>2021-08-08T12:44:53Z</time>
      </trkpt>
      <trkpt lat="44.97166" lon="5.56664">
        <ele>937.7</ele>
        <time>2021-08-08T12:44:55Z</time>
      </trkpt>
      <trkpt lat="44.97172" lon="5.56673">
        <ele>937.3</ele>
        <time>2021-08-08T12:44:56Z</time>
      </trkpt>
      <trkpt lat="44.97184" lon="5.5669">
        <ele>936.4</ele>
        <time>2021-08-08T12:44:58Z</time>
      </trkpt>
      <trkpt lat="44.97196" lon="5.56709">
        <ele>935.4</ele>
        <time>2021-08-08T12:45:01Z</time>
      </trkpt>
      <trkpt lat="44.97212" lon="5.56723">
        <ele>934.5</ele>
        <time>2021-08-08T12:45:02Z</time>
      </trkpt>
      <trkpt lat="44.97222" lon="5.56727">
        <ele>934.2</ele>
        <time>2021-08-08T12:45:03Z</time>
      </trkpt>
      <trkpt lat="44.97231" lon="5.5673">
        <ele>933.9</ele>
        <time>2021-08-08T12:45:04Z</time>
      </trkpt>
      <trkpt lat="44.97252" lon="5.56733">
        <ele>933.4</ele>
        <time>2021-08-08T12:45:06Z</time>
      </trkpt>
      <trkpt lat="44.97263" lon="5.56731">
        <ele>933.2</ele>
        <time>2021-08-08T12:45:07Z</time>
      </trkpt>
      <trkpt lat="44.97273" lon="5.5673">
        <ele>933</ele>
        <time>2021-08-08T12:45:08Z</time>
      </trkpt>
      <trkpt lat="44.97303" lon="5.56732">
        <ele>932.3</ele>
        <time>2021-08-08T12:45:11Z</time>
      </trkpt>
      <trkpt lat="44.97321" lon="5.56736">
        <ele>931.8</ele>
        <time>2021-08-08T12:45:13Z</time>
      </trkpt>
      <trkpt lat="44.9733" lon="5.56735">
        <ele>931.6</ele>
        <time>2021-08-08T12:45:14Z</time>
      </trkpt>
      <trkpt lat="44.97348" lon="5.56721">
        <ele>931.1</ele>
        <time>2021-08-08T12:45:16Z</time>
      </trkpt>
      <trkpt lat="44.97365" lon="5.56703">
        <ele>930.8</ele>
        <time>2021-08-08T12:45:19Z</time>
      </trkpt>
      <trkpt lat="44.9738" lon="5.56686">
        <ele>930.7</ele>
        <time>2021-08-08T12:45:20Z</time>
      </trkpt>
      <trkpt lat="44.97395" lon="5.56674">
        <ele>930.5</ele>
        <time>2021-08-08T12:45:22Z</time>
      </trkpt>
      <trkpt lat="44.97401" lon="5.56681">
        <ele>930.4</ele>
        <time>2021-08-08T12:45:23Z</time>
      </trkpt>
      <trkpt lat="44.97406" lon="5.56693">
        <ele>930.4</ele>
        <time>2021-08-08T12:45:25Z</time>
      </trkpt>
      <trkpt lat="44.97401" lon="5.56729">
        <ele>929.8</ele>
        <time>2021-08-08T12:45:27Z</time>
      </trkpt>
      <trkpt lat="44.97394" lon="5.56752">
        <ele>929.5</ele>
        <time>2021-08-08T12:45:29Z</time>
      </trkpt>
      <trkpt lat="44.97388" lon="5.56775">
        <ele>929.3</ele>
        <time>2021-08-08T12:45:31Z</time>
      </trkpt>
      <trkpt lat="44.97384" lon="5.56784">
        <ele>929.2</ele>
        <time>2021-08-08T12:45:32Z</time>
      </trkpt>
      <trkpt lat="44.97379" lon="5.56791">
        <ele>929.2</ele>
        <time>2021-08-08T12:45:33Z</time>
      </trkpt>
      <trkpt lat="44.97368" lon="5.56803">
        <ele>929.1</ele>
        <time>2021-08-08T12:45:35Z</time>
      </trkpt>
      <trkpt lat="44.97356" lon="5.56813">
        <ele>929</ele>
        <time>2021-08-08T12:45:37Z</time>
      </trkpt>
      <trkpt lat="44.9735" lon="5.56817">
        <ele>929</ele>
        <time>2021-08-08T12:45:38Z</time>
      </trkpt>
      <trkpt lat="44.97343" lon="5.56821">
        <ele>928.9</ele>
        <time>2021-08-08T12:45:39Z</time>
      </trkpt>
      <trkpt lat="44.97329" lon="5.56828">
        <ele>928.8</ele>
        <time>2021-08-08T12:45:41Z</time>
      </trkpt>
      <trkpt lat="44.97315" lon="5.56834">
        <ele>928.8</ele>
        <time>2021-08-08T12:45:43Z</time>
      </trkpt>
      <trkpt lat="44.97301" lon="5.56841">
        <ele>928.7</ele>
        <time>2021-08-08T12:45:45Z</time>
      </trkpt>
      <trkpt lat="44.97287" lon="5.56846">
        <ele>928.7</ele>
        <time>2021-08-08T12:45:47Z</time>
      </trkpt>
      <trkpt lat="44.97276" lon="5.56852">
        <ele>928.7</ele>
        <time>2021-08-08T12:45:49Z</time>
      </trkpt>
      <trkpt lat="44.97265" lon="5.56862">
        <ele>928.7</ele>
        <time>2021-08-08T12:45:51Z</time>
      </trkpt>
      <trkpt lat="44.9726" lon="5.56878">
        <ele>928.6</ele>
        <time>2021-08-08T12:45:53Z</time>
      </trkpt>
      <trkpt lat="44.97259" lon="5.56887">
        <ele>928.6</ele>
        <time>2021-08-08T12:45:55Z</time>
      </trkpt>
      <trkpt lat="44.97258" lon="5.56906">
        <ele>928.3</ele>
        <time>2021-08-08T12:45:56Z</time>
      </trkpt>
      <trkpt lat="44.97258" lon="5.56925">
        <ele>927.8</ele>
        <time>2021-08-08T12:45:58Z</time>
      </trkpt>
      <trkpt lat="44.97258" lon="5.56944">
        <ele>927.1</ele>
        <time>2021-08-08T12:46:01Z</time>
      </trkpt>
      <trkpt lat="44.97258" lon="5.56963">
        <ele>925.9</ele>
        <time>2021-08-08T12:46:02Z</time>
      </trkpt>
      <trkpt lat="44.97267" lon="5.56981">
        <ele>924.5</ele>
        <time>2021-08-08T12:46:04Z</time>
      </trkpt>
      <trkpt lat="44.97284" lon="5.56988">
        <ele>923</ele>
        <time>2021-08-08T12:46:07Z</time>
      </trkpt>
      <trkpt lat="44.97301" lon="5.56983">
        <ele>921.6</ele>
        <time>2021-08-08T12:46:08Z</time>
      </trkpt>
      <trkpt lat="44.9731" lon="5.56979">
        <ele>920.9</ele>
        <time>2021-08-08T12:46:09Z</time>
      </trkpt>
      <trkpt lat="44.97321" lon="5.56976">
        <ele>920.1</ele>
        <time>2021-08-08T12:46:10Z</time>
      </trkpt>
      <trkpt lat="44.97343" lon="5.56976">
        <ele>918.6</ele>
        <time>2021-08-08T12:46:13Z</time>
      </trkpt>
      <trkpt lat="44.97355" lon="5.56982">
        <ele>917.8</ele>
        <time>2021-08-08T12:46:14Z</time>
      </trkpt>
      <trkpt lat="44.97371" lon="5.57001">
        <ele>916.5</ele>
        <time>2021-08-08T12:46:15Z</time>
      </trkpt>
      <trkpt lat="44.9738" lon="5.57032">
        <ele>915.2</ele>
        <time>2021-08-08T12:46:17Z</time>
      </trkpt>
      <trkpt lat="44.97383" lon="5.57063">
        <ele>913.8</ele>
        <time>2021-08-08T12:46:19Z</time>
      </trkpt>
      <trkpt lat="44.97384" lon="5.57078">
        <ele>913.2</ele>
        <time>2021-08-08T12:46:20Z</time>
      </trkpt>
      <trkpt lat="44.97385" lon="5.57093">
        <ele>912.7</ele>
        <time>2021-08-08T12:46:21Z</time>
      </trkpt>
      <trkpt lat="44.97389" lon="5.57119">
        <ele>911.8</ele>
        <time>2021-08-08T12:46:23Z</time>
      </trkpt>
      <trkpt lat="44.97394" lon="5.57145">
        <ele>910.9</ele>
        <time>2021-08-08T12:46:25Z</time>
      </trkpt>
      <trkpt lat="44.974" lon="5.57171">
        <ele>910.3</ele>
        <time>2021-08-08T12:46:27Z</time>
      </trkpt>
      <trkpt lat="44.97405" lon="5.57182">
        <ele>910.1</ele>
        <time>2021-08-08T12:46:28Z</time>
      </trkpt>
      <trkpt lat="44.97413" lon="5.57191">
        <ele>909.8</ele>
        <time>2021-08-08T12:46:29Z</time>
      </trkpt>
      <trkpt lat="44.97422" lon="5.57196">
        <ele>909.6</ele>
        <time>2021-08-08T12:46:31Z</time>
      </trkpt>
      <trkpt lat="44.9744" lon="5.57195">
        <ele>908.9</ele>
        <time>2021-08-08T12:46:32Z</time>
      </trkpt>
      <trkpt lat="44.9745" lon="5.57191">
        <ele>908.7</ele>
        <time>2021-08-08T12:46:33Z</time>
      </trkpt>
      <trkpt lat="44.97467" lon="5.57186">
        <ele>908.3</ele>
        <time>2021-08-08T12:46:35Z</time>
      </trkpt>
      <trkpt lat="44.97485" lon="5.57182">
        <ele>907.9</ele>
        <time>2021-08-08T12:46:37Z</time>
      </trkpt>
      <trkpt lat="44.97496" lon="5.57183">
        <ele>907.6</ele>
        <time>2021-08-08T12:46:38Z</time>
      </trkpt>
      <trkpt lat="44.97516" lon="5.57194">
        <ele>906.7</ele>
        <time>2021-08-08T12:46:40Z</time>
      </trkpt>
      <trkpt lat="44.97514" lon="5.57218">
        <ele>906.1</ele>
        <time>2021-08-08T12:46:42Z</time>
      </trkpt>
      <trkpt lat="44.97502" lon="5.57228">
        <ele>905.6</ele>
        <time>2021-08-08T12:46:43Z</time>
      </trkpt>
      <trkpt lat="44.9749" lon="5.57236">
        <ele>905.3</ele>
        <time>2021-08-08T12:46:44Z</time>
      </trkpt>
      <trkpt lat="44.97469" lon="5.57249">
        <ele>904.7</ele>
        <time>2021-08-08T12:46:46Z</time>
      </trkpt>
      <trkpt lat="44.97452" lon="5.57261">
        <ele>904.1</ele>
        <time>2021-08-08T12:46:49Z</time>
      </trkpt>
      <trkpt lat="44.97436" lon="5.57276">
        <ele>903.6</ele>
        <time>2021-08-08T12:46:50Z</time>
      </trkpt>
      <trkpt lat="44.97428" lon="5.57283">
        <ele>903.3</ele>
        <time>2021-08-08T12:46:51Z</time>
      </trkpt>
      <trkpt lat="44.97422" lon="5.57291">
        <ele>903.1</ele>
        <time>2021-08-08T12:46:52Z</time>
      </trkpt>
      <trkpt lat="44.97412" lon="5.57307">
        <ele>902.4</ele>
        <time>2021-08-08T12:46:54Z</time>
      </trkpt>
      <trkpt lat="44.97406" lon="5.57323">
        <ele>901.6</ele>
        <time>2021-08-08T12:46:56Z</time>
      </trkpt>
      <trkpt lat="44.97402" lon="5.57327">
        <ele>901.2</ele>
        <time>2021-08-08T12:46:57Z</time>
      </trkpt>
      <trkpt lat="44.97398" lon="5.57327">
        <ele>900.9</ele>
        <time>2021-08-08T12:46:59Z</time>
      </trkpt>
      <trkpt lat="44.97395" lon="5.57327">
        <ele>900.7</ele>
        <time>2021-08-08T12:47:01Z</time>
      </trkpt>
      <trkpt lat="44.97394" lon="5.57327">
        <ele>900.7</ele>
        <time>2021-08-08T12:47:02Z</time>
      </trkpt>
      <trkpt lat="44.97394" lon="5.57326">
        <ele>900.6</ele>
        <time>2021-08-08T12:47:04Z</time>
      </trkpt>
      <trkpt lat="44.97393" lon="5.57326">
        <ele>900.5</ele>
        <time>2021-08-08T12:47:06Z</time>
      </trkpt>
      <trkpt lat="44.97392" lon="5.57325">
        <ele>900.5</ele>
        <time>2021-08-08T12:47:08Z</time>
      </trkpt>
      <trkpt lat="44.97391" lon="5.57324">
        <ele>900.4</ele>
        <time>2021-08-08T12:47:09Z</time>
      </trkpt>
      <trkpt lat="44.9739" lon="5.57324">
        <ele>900.3</ele>
        <time>2021-08-08T12:47:11Z</time>
      </trkpt>
      <trkpt lat="44.97389" lon="5.57323">
        <ele>900.3</ele>
        <time>2021-08-08T12:47:13Z</time>
      </trkpt>
      <trkpt lat="44.97388" lon="5.57323">
        <ele>900.2</ele>
        <time>2021-08-08T12:47:42Z</time>
      </trkpt>
      <trkpt lat="44.97387" lon="5.57322">
        <ele>900.1</ele>
        <time>2021-08-08T12:47:43Z</time>
      </trkpt>
      <trkpt lat="44.9738" lon="5.57322">
        <ele>899.7</ele>
        <time>2021-08-08T12:47:44Z</time>
      </trkpt>
      <trkpt lat="44.97375" lon="5.5732">
        <ele>899.3</ele>
        <time>2021-08-08T12:47:45Z</time>
      </trkpt>
      <trkpt lat="44.97364" lon="5.57314">
        <ele>898.6</ele>
        <time>2021-08-08T12:47:47Z</time>
      </trkpt>
      <trkpt lat="44.97358" lon="5.57311">
        <ele>898.2</ele>
        <time>2021-08-08T12:47:48Z</time>
      </trkpt>
      <trkpt lat="44.97345" lon="5.57309">
        <ele>897.3</ele>
        <time>2021-08-08T12:47:50Z</time>
      </trkpt>
      <trkpt lat="44.97332" lon="5.57318">
        <ele>896.1</ele>
        <time>2021-08-08T12:47:53Z</time>
      </trkpt>
      <trkpt lat="44.97325" lon="5.57337">
        <ele>894.8</ele>
        <time>2021-08-08T12:47:54Z</time>
      </trkpt>
      <trkpt lat="44.97325" lon="5.57349">
        <ele>894.1</ele>
        <time>2021-08-08T12:47:55Z</time>
      </trkpt>
      <trkpt lat="44.97327" lon="5.5736">
        <ele>893.3</ele>
        <time>2021-08-08T12:47:56Z</time>
      </trkpt>
      <trkpt lat="44.9734" lon="5.57393">
        <ele>891</ele>
        <time>2021-08-08T12:47:59Z</time>
      </trkpt>
      <trkpt lat="44.97352" lon="5.57411">
        <ele>889.5</ele>
        <time>2021-08-08T12:48:01Z</time>
      </trkpt>
      <trkpt lat="44.97358" lon="5.5742">
        <ele>888.7</ele>
        <time>2021-08-08T12:48:02Z</time>
      </trkpt>
      <trkpt lat="44.97365" lon="5.57429">
        <ele>887.9</ele>
        <time>2021-08-08T12:48:03Z</time>
      </trkpt>
      <trkpt lat="44.97371" lon="5.57438">
        <ele>887.2</ele>
        <time>2021-08-08T12:48:04Z</time>
      </trkpt>
      <trkpt lat="44.97378" lon="5.57446">
        <ele>886.5</ele>
        <time>2021-08-08T12:48:05Z</time>
      </trkpt>
      <trkpt lat="44.97394" lon="5.57461">
        <ele>885.2</ele>
        <time>2021-08-08T12:48:07Z</time>
      </trkpt>
      <trkpt lat="44.97404" lon="5.57468">
        <ele>884.7</ele>
        <time>2021-08-08T12:48:08Z</time>
      </trkpt>
      <trkpt lat="44.97432" lon="5.57479">
        <ele>884.3</ele>
        <time>2021-08-08T12:48:11Z</time>
      </trkpt>
      <trkpt lat="44.97444" lon="5.57492">
        <ele>883.9</ele>
        <time>2021-08-08T12:48:13Z</time>
      </trkpt>
      <trkpt lat="44.97446" lon="5.57498">
        <ele>883.7</ele>
        <time>2021-08-08T12:48:14Z</time>
      </trkpt>
      <trkpt lat="44.97434" lon="5.57504">
        <ele>883.1</ele>
        <time>2021-08-08T12:48:17Z</time>
      </trkpt>
      <trkpt lat="44.97418" lon="5.57506">
        <ele>881.7</ele>
        <time>2021-08-08T12:48:18Z</time>
      </trkpt>
      <trkpt lat="44.9741" lon="5.57505">
        <ele>881.1</ele>
        <time>2021-08-08T12:48:19Z</time>
      </trkpt>
      <trkpt lat="44.97401" lon="5.57505">
        <ele>880.5</ele>
        <time>2021-08-08T12:48:20Z</time>
      </trkpt>
      <trkpt lat="44.97385" lon="5.57511">
        <ele>879.4</ele>
        <time>2021-08-08T12:48:22Z</time>
      </trkpt>
      <trkpt lat="44.97376" lon="5.57516">
        <ele>878.8</ele>
        <time>2021-08-08T12:48:23Z</time>
      </trkpt>
      <trkpt lat="44.97361" lon="5.57532">
        <ele>877.6</ele>
        <time>2021-08-08T12:48:25Z</time>
      </trkpt>
      <trkpt lat="44.97344" lon="5.57551">
        <ele>876.6</ele>
        <time>2021-08-08T12:48:27Z</time>
      </trkpt>
      <trkpt lat="44.97335" lon="5.57557">
        <ele>876.3</ele>
        <time>2021-08-08T12:48:29Z</time>
      </trkpt>
      <trkpt lat="44.97316" lon="5.57557">
        <ele>876.1</ele>
        <time>2021-08-08T12:48:30Z</time>
      </trkpt>
      <trkpt lat="44.97307" lon="5.57551">
        <ele>876.1</ele>
        <time>2021-08-08T12:48:31Z</time>
      </trkpt>
      <trkpt lat="44.97292" lon="5.5754">
        <ele>876.1</ele>
        <time>2021-08-08T12:48:33Z</time>
      </trkpt>
      <trkpt lat="44.97286" lon="5.57534">
        <ele>876.1</ele>
        <time>2021-08-08T12:48:35Z</time>
      </trkpt>
      <trkpt lat="44.97277" lon="5.57522">
        <ele>876</ele>
        <time>2021-08-08T12:48:36Z</time>
      </trkpt>
      <trkpt lat="44.97271" lon="5.57514">
        <ele>876</ele>
        <time>2021-08-08T12:48:37Z</time>
      </trkpt>
      <trkpt lat="44.97261" lon="5.57501">
        <ele>875.8</ele>
        <time>2021-08-08T12:48:39Z</time>
      </trkpt>
      <trkpt lat="44.97255" lon="5.57495">
        <ele>875.7</ele>
        <time>2021-08-08T12:48:41Z</time>
      </trkpt>
      <trkpt lat="44.97244" lon="5.57482">
        <ele>875.6</ele>
        <time>2021-08-08T12:48:42Z</time>
      </trkpt>
      <trkpt lat="44.97238" lon="5.57475">
        <ele>875.5</ele>
        <time>2021-08-08T12:48:43Z</time>
      </trkpt>
      <trkpt lat="44.97232" lon="5.57468">
        <ele>875.4</ele>
        <time>2021-08-08T12:48:44Z</time>
      </trkpt>
      <trkpt lat="44.97225" lon="5.57462">
        <ele>875.4</ele>
        <time>2021-08-08T12:48:45Z</time>
      </trkpt>
      <trkpt lat="44.97212" lon="5.5745">
        <ele>875.4</ele>
        <time>2021-08-08T12:48:48Z</time>
      </trkpt>
      <trkpt lat="44.97206" lon="5.57444">
        <ele>875.4</ele>
        <time>2021-08-08T12:48:49Z</time>
      </trkpt>
      <trkpt lat="44.97195" lon="5.57433">
        <ele>875.7</ele>
        <time>2021-08-08T12:48:51Z</time>
      </trkpt>
      <trkpt lat="44.9719" lon="5.57427">
        <ele>875.7</ele>
        <time>2021-08-08T12:48:52Z</time>
      </trkpt>
      <trkpt lat="44.97185" lon="5.57421">
        <ele>875.8</ele>
        <time>2021-08-08T12:48:53Z</time>
      </trkpt>
      <trkpt lat="44.97176" lon="5.5741">
        <ele>875.9</ele>
        <time>2021-08-08T12:48:54Z</time>
      </trkpt>
      <trkpt lat="44.97166" lon="5.574">
        <ele>876</ele>
        <time>2021-08-08T12:48:56Z</time>
      </trkpt>
      <trkpt lat="44.97155" lon="5.57391">
        <ele>876.1</ele>
        <time>2021-08-08T12:48:59Z</time>
      </trkpt>
      <trkpt lat="44.97144" lon="5.57383">
        <ele>876.1</ele>
        <time>2021-08-08T12:49:00Z</time>
      </trkpt>
      <trkpt lat="44.97139" lon="5.5738">
        <ele>876.1</ele>
        <time>2021-08-08T12:49:01Z</time>
      </trkpt>
      <trkpt lat="44.9713" lon="5.57368">
        <ele>876.3</ele>
        <time>2021-08-08T12:49:03Z</time>
      </trkpt>
      <trkpt lat="44.97127" lon="5.57363">
        <ele>876.4</ele>
        <time>2021-08-08T12:49:05Z</time>
      </trkpt>
      <trkpt lat="44.97121" lon="5.57348">
        <ele>876.6</ele>
        <time>2021-08-08T12:49:06Z</time>
      </trkpt>
      <trkpt lat="44.97118" lon="5.57341">
        <ele>876.7</ele>
        <time>2021-08-08T12:49:07Z</time>
      </trkpt>
      <trkpt lat="44.97116" lon="5.57334">
        <ele>876.7</ele>
        <time>2021-08-08T12:49:08Z</time>
      </trkpt>
      <trkpt lat="44.97112" lon="5.57328">
        <ele>876.8</ele>
        <time>2021-08-08T12:49:09Z</time>
      </trkpt>
      <trkpt lat="44.97108" lon="5.57322">
        <ele>876.8</ele>
        <time>2021-08-08T12:49:11Z</time>
      </trkpt>
      <trkpt lat="44.971" lon="5.57312">
        <ele>876.9</ele>
        <time>2021-08-08T12:49:12Z</time>
      </trkpt>
      <trkpt lat="44.9709" lon="5.57304">
        <ele>876.9</ele>
        <time>2021-08-08T12:49:14Z</time>
      </trkpt>
      <trkpt lat="44.97085" lon="5.573">
        <ele>876.8</ele>
        <time>2021-08-08T12:49:15Z</time>
      </trkpt>
      <trkpt lat="44.97079" lon="5.57297">
        <ele>876.8</ele>
        <time>2021-08-08T12:49:17Z</time>
      </trkpt>
      <trkpt lat="44.97063" lon="5.57286">
        <ele>876.7</ele>
        <time>2021-08-08T12:49:19Z</time>
      </trkpt>
      <trkpt lat="44.97053" lon="5.57279">
        <ele>876.8</ele>
        <time>2021-08-08T12:49:21Z</time>
      </trkpt>
      <trkpt lat="44.97042" lon="5.57272">
        <ele>876.8</ele>
        <time>2021-08-08T12:49:23Z</time>
      </trkpt>
      <trkpt lat="44.97037" lon="5.57268">
        <ele>876.9</ele>
        <time>2021-08-08T12:49:24Z</time>
      </trkpt>
      <trkpt lat="44.97031" lon="5.57264">
        <ele>876.9</ele>
        <time>2021-08-08T12:49:25Z</time>
      </trkpt>
      <trkpt lat="44.97021" lon="5.5726">
        <ele>877</ele>
        <time>2021-08-08T12:49:27Z</time>
      </trkpt>
      <trkpt lat="44.97011" lon="5.5726">
        <ele>877</ele>
        <time>2021-08-08T12:49:29Z</time>
      </trkpt>
      <trkpt lat="44.97006" lon="5.57261">
        <ele>877</ele>
        <time>2021-08-08T12:49:30Z</time>
      </trkpt>
      <trkpt lat="44.97" lon="5.57261">
        <ele>877.1</ele>
        <time>2021-08-08T12:49:32Z</time>
      </trkpt>
      <trkpt lat="44.96994" lon="5.5726">
        <ele>877.1</ele>
        <time>2021-08-08T12:49:33Z</time>
      </trkpt>
      <trkpt lat="44.96982" lon="5.57254">
        <ele>877.2</ele>
        <time>2021-08-08T12:49:35Z</time>
      </trkpt>
      <trkpt lat="44.96973" lon="5.57246">
        <ele>877.2</ele>
        <time>2021-08-08T12:49:37Z</time>
      </trkpt>
      <trkpt lat="44.96963" lon="5.57236">
        <ele>877.1</ele>
        <time>2021-08-08T12:49:38Z</time>
      </trkpt>
      <trkpt lat="44.96959" lon="5.57231">
        <ele>877.1</ele>
        <time>2021-08-08T12:49:39Z</time>
      </trkpt>
      <trkpt lat="44.96955" lon="5.57225">
        <ele>877.2</ele>
        <time>2021-08-08T12:49:41Z</time>
      </trkpt>
      <trkpt lat="44.96948" lon="5.57213">
        <ele>877.2</ele>
        <time>2021-08-08T12:49:42Z</time>
      </trkpt>
      <trkpt lat="44.96946" lon="5.57207">
        <ele>877.2</ele>
        <time>2021-08-08T12:49:43Z</time>
      </trkpt>
      <trkpt lat="44.96943" lon="5.572">
        <ele>877.3</ele>
        <time>2021-08-08T12:49:44Z</time>
      </trkpt>
      <trkpt lat="44.9694" lon="5.57194">
        <ele>877.3</ele>
        <time>2021-08-08T12:49:45Z</time>
      </trkpt>
      <trkpt lat="44.96934" lon="5.57183">
        <ele>877.3</ele>
        <time>2021-08-08T12:49:47Z</time>
      </trkpt>
      <trkpt lat="44.96931" lon="5.57178">
        <ele>877.4</ele>
        <time>2021-08-08T12:49:48Z</time>
      </trkpt>
      <trkpt lat="44.96928" lon="5.57173">
        <ele>877.4</ele>
        <time>2021-08-08T12:49:49Z</time>
      </trkpt>
      <trkpt lat="44.96921" lon="5.57165">
        <ele>877.4</ele>
        <time>2021-08-08T12:49:51Z</time>
      </trkpt>
      <trkpt lat="44.96914" lon="5.57158">
        <ele>877.3</ele>
        <time>2021-08-08T12:49:53Z</time>
      </trkpt>
      <trkpt lat="44.96904" lon="5.57152">
        <ele>877.3</ele>
        <time>2021-08-08T12:49:55Z</time>
      </trkpt>
      <trkpt lat="44.96894" lon="5.57149">
        <ele>877.3</ele>
        <time>2021-08-08T12:49:57Z</time>
      </trkpt>
      <trkpt lat="44.96889" lon="5.57147">
        <ele>877.3</ele>
        <time>2021-08-08T12:49:59Z</time>
      </trkpt>
      <trkpt lat="44.96879" lon="5.57141">
        <ele>877.3</ele>
        <time>2021-08-08T12:50:00Z</time>
      </trkpt>
      <trkpt lat="44.96873" lon="5.5714">
        <ele>877.3</ele>
        <time>2021-08-08T12:50:01Z</time>
      </trkpt>
      <trkpt lat="44.96862" lon="5.57136">
        <ele>877.3</ele>
        <time>2021-08-08T12:50:03Z</time>
      </trkpt>
      <trkpt lat="44.96852" lon="5.5713">
        <ele>877.3</ele>
        <time>2021-08-08T12:50:05Z</time>
      </trkpt>
      <trkpt lat="44.96847" lon="5.57126">
        <ele>877.4</ele>
        <time>2021-08-08T12:50:06Z</time>
      </trkpt>
      <trkpt lat="44.96843" lon="5.57122">
        <ele>877.4</ele>
        <time>2021-08-08T12:50:08Z</time>
      </trkpt>
      <trkpt lat="44.96835" lon="5.57114">
        <ele>877.5</ele>
        <time>2021-08-08T12:50:09Z</time>
      </trkpt>
      <trkpt lat="44.96827" lon="5.57107">
        <ele>877.5</ele>
        <time>2021-08-08T12:50:11Z</time>
      </trkpt>
      <trkpt lat="44.96822" lon="5.57103">
        <ele>877.5</ele>
        <time>2021-08-08T12:50:12Z</time>
      </trkpt>
      <trkpt lat="44.96817" lon="5.57101">
        <ele>877.6</ele>
        <time>2021-08-08T12:50:13Z</time>
      </trkpt>
      <trkpt lat="44.96806" lon="5.57097">
        <ele>877.5</ele>
        <time>2021-08-08T12:50:15Z</time>
      </trkpt>
      <trkpt lat="44.96801" lon="5.57094">
        <ele>877.5</ele>
        <time>2021-08-08T12:50:17Z</time>
      </trkpt>
      <trkpt lat="44.9679" lon="5.5709">
        <ele>877.5</ele>
        <time>2021-08-08T12:50:19Z</time>
      </trkpt>
      <trkpt lat="44.96779" lon="5.57086">
        <ele>877.4</ele>
        <time>2021-08-08T12:50:20Z</time>
      </trkpt>
      <trkpt lat="44.96774" lon="5.57084">
        <ele>877.4</ele>
        <time>2021-08-08T12:50:22Z</time>
      </trkpt>
      <trkpt lat="44.96763" lon="5.5708">
        <ele>877.3</ele>
        <time>2021-08-08T12:50:23Z</time>
      </trkpt>
      <trkpt lat="44.96758" lon="5.57078">
        <ele>877.3</ele>
        <time>2021-08-08T12:50:24Z</time>
      </trkpt>
      <trkpt lat="44.96747" lon="5.57076">
        <ele>877.2</ele>
        <time>2021-08-08T12:50:26Z</time>
      </trkpt>
      <trkpt lat="44.96741" lon="5.57076">
        <ele>877.2</ele>
        <time>2021-08-08T12:50:27Z</time>
      </trkpt>
      <trkpt lat="44.96735" lon="5.57076">
        <ele>877.2</ele>
        <time>2021-08-08T12:50:29Z</time>
      </trkpt>
      <trkpt lat="44.96724" lon="5.57077">
        <ele>877.1</ele>
        <time>2021-08-08T12:50:30Z</time>
      </trkpt>
      <trkpt lat="44.96718" lon="5.57078">
        <ele>877</ele>
        <time>2021-08-08T12:50:31Z</time>
      </trkpt>
      <trkpt lat="44.96707" lon="5.57079">
        <ele>877</ele>
        <time>2021-08-08T12:50:33Z</time>
      </trkpt>
      <trkpt lat="44.96695" lon="5.57079">
        <ele>877</ele>
        <time>2021-08-08T12:50:35Z</time>
      </trkpt>
      <trkpt lat="44.96684" lon="5.57078">
        <ele>876.9</ele>
        <time>2021-08-08T12:50:37Z</time>
      </trkpt>
      <trkpt lat="44.96679" lon="5.57078">
        <ele>876.8</ele>
        <time>2021-08-08T12:50:38Z</time>
      </trkpt>
      <trkpt lat="44.96659" lon="5.5708">
        <ele>876.6</ele>
        <time>2021-08-08T12:50:41Z</time>
      </trkpt>
      <trkpt lat="44.96646" lon="5.57082">
        <ele>876.4</ele>
        <time>2021-08-08T12:50:43Z</time>
      </trkpt>
      <trkpt lat="44.96633" lon="5.57084">
        <ele>876.3</ele>
        <time>2021-08-08T12:50:45Z</time>
      </trkpt>
      <trkpt lat="44.96621" lon="5.57085">
        <ele>876.3</ele>
        <time>2021-08-08T12:50:47Z</time>
      </trkpt>
      <trkpt lat="44.96608" lon="5.57086">
        <ele>876.3</ele>
        <time>2021-08-08T12:50:49Z</time>
      </trkpt>
      <trkpt lat="44.96595" lon="5.57087">
        <ele>876.2</ele>
        <time>2021-08-08T12:50:51Z</time>
      </trkpt>
      <trkpt lat="44.96588" lon="5.57088">
        <ele>876.2</ele>
        <time>2021-08-08T12:50:53Z</time>
      </trkpt>
      <trkpt lat="44.96582" lon="5.57088">
        <ele>876.3</ele>
        <time>2021-08-08T12:50:54Z</time>
      </trkpt>
      <trkpt lat="44.9657" lon="5.57087">
        <ele>876.3</ele>
        <time>2021-08-08T12:50:55Z</time>
      </trkpt>
      <trkpt lat="44.96564" lon="5.57085">
        <ele>876.3</ele>
        <time>2021-08-08T12:50:57Z</time>
      </trkpt>
      <trkpt lat="44.96553" lon="5.57083">
        <ele>876.4</ele>
        <time>2021-08-08T12:50:58Z</time>
      </trkpt>
      <trkpt lat="44.96546" lon="5.57081">
        <ele>876.4</ele>
        <time>2021-08-08T12:50:59Z</time>
      </trkpt>
      <trkpt lat="44.9654" lon="5.5708">
        <ele>876.4</ele>
        <time>2021-08-08T12:51:00Z</time>
      </trkpt>
      <trkpt lat="44.96534" lon="5.57079">
        <ele>876.5</ele>
        <time>2021-08-08T12:51:01Z</time>
      </trkpt>
      <trkpt lat="44.96529" lon="5.57078">
        <ele>876.5</ele>
        <time>2021-08-08T12:51:02Z</time>
      </trkpt>
      <trkpt lat="44.96523" lon="5.57076">
        <ele>876.5</ele>
        <time>2021-08-08T12:51:03Z</time>
      </trkpt>
      <trkpt lat="44.96511" lon="5.57072">
        <ele>876.5</ele>
        <time>2021-08-08T12:51:05Z</time>
      </trkpt>
      <trkpt lat="44.96505" lon="5.5707">
        <ele>876.5</ele>
        <time>2021-08-08T12:51:06Z</time>
      </trkpt>
      <trkpt lat="44.96499" lon="5.57068">
        <ele>876.6</ele>
        <time>2021-08-08T12:51:07Z</time>
      </trkpt>
      <trkpt lat="44.96493" lon="5.57066">
        <ele>876.6</ele>
        <time>2021-08-08T12:51:08Z</time>
      </trkpt>
      <trkpt lat="44.96488" lon="5.57065">
        <ele>876.6</ele>
        <time>2021-08-08T12:51:09Z</time>
      </trkpt>
      <trkpt lat="44.96476" lon="5.57061">
        <ele>876.6</ele>
        <time>2021-08-08T12:51:11Z</time>
      </trkpt>
      <trkpt lat="44.9647" lon="5.57059">
        <ele>876.7</ele>
        <time>2021-08-08T12:51:12Z</time>
      </trkpt>
      <trkpt lat="44.96458" lon="5.57056">
        <ele>876.7</ele>
        <time>2021-08-08T12:51:14Z</time>
      </trkpt>
      <trkpt lat="44.96452" lon="5.57054">
        <ele>876.8</ele>
        <time>2021-08-08T12:51:15Z</time>
      </trkpt>
      <trkpt lat="44.96441" lon="5.57049">
        <ele>876.9</ele>
        <time>2021-08-08T12:51:17Z</time>
      </trkpt>
      <trkpt lat="44.96431" lon="5.57047">
        <ele>876.9</ele>
        <time>2021-08-08T12:51:19Z</time>
      </trkpt>
      <trkpt lat="44.96426" lon="5.57045">
        <ele>877</ele>
        <time>2021-08-08T12:51:20Z</time>
      </trkpt>
      <trkpt lat="44.96415" lon="5.57039">
        <ele>877.1</ele>
        <time>2021-08-08T12:51:22Z</time>
      </trkpt>
      <trkpt lat="44.96405" lon="5.57036">
        <ele>877.2</ele>
        <time>2021-08-08T12:51:24Z</time>
      </trkpt>
      <trkpt lat="44.96395" lon="5.57031">
        <ele>877.2</ele>
        <time>2021-08-08T12:51:26Z</time>
      </trkpt>
      <trkpt lat="44.96389" lon="5.57028">
        <ele>877.3</ele>
        <time>2021-08-08T12:51:27Z</time>
      </trkpt>
      <trkpt lat="44.96378" lon="5.57023">
        <ele>877.4</ele>
        <time>2021-08-08T12:51:29Z</time>
      </trkpt>
      <trkpt lat="44.96372" lon="5.57021">
        <ele>877.5</ele>
        <time>2021-08-08T12:51:30Z</time>
      </trkpt>
      <trkpt lat="44.96366" lon="5.5702">
        <ele>877.4</ele>
        <time>2021-08-08T12:51:31Z</time>
      </trkpt>
      <trkpt lat="44.96361" lon="5.57019">
        <ele>877.4</ele>
        <time>2021-08-08T12:51:32Z</time>
      </trkpt>
      <trkpt lat="44.96344" lon="5.57018">
        <ele>877.3</ele>
        <time>2021-08-08T12:51:35Z</time>
      </trkpt>
      <trkpt lat="44.96333" lon="5.5702">
        <ele>877.1</ele>
        <time>2021-08-08T12:51:37Z</time>
      </trkpt>
      <trkpt lat="44.96322" lon="5.57024">
        <ele>876.9</ele>
        <time>2021-08-08T12:51:39Z</time>
      </trkpt>
      <trkpt lat="44.96311" lon="5.5703">
        <ele>876.6</ele>
        <time>2021-08-08T12:51:41Z</time>
      </trkpt>
      <trkpt lat="44.963" lon="5.57038">
        <ele>876.1</ele>
        <time>2021-08-08T12:51:43Z</time>
      </trkpt>
      <trkpt lat="44.96294" lon="5.57042">
        <ele>875.8</ele>
        <time>2021-08-08T12:51:44Z</time>
      </trkpt>
      <trkpt lat="44.96287" lon="5.57045">
        <ele>875.4</ele>
        <time>2021-08-08T12:51:45Z</time>
      </trkpt>
      <trkpt lat="44.96271" lon="5.5705">
        <ele>874.6</ele>
        <time>2021-08-08T12:51:47Z</time>
      </trkpt>
      <trkpt lat="44.96256" lon="5.57053">
        <ele>873.9</ele>
        <time>2021-08-08T12:51:49Z</time>
      </trkpt>
      <trkpt lat="44.96239" lon="5.57057">
        <ele>873.3</ele>
        <time>2021-08-08T12:51:51Z</time>
      </trkpt>
      <trkpt lat="44.96231" lon="5.57058">
        <ele>872.9</ele>
        <time>2021-08-08T12:51:53Z</time>
      </trkpt>
      <trkpt lat="44.96213" lon="5.57062">
        <ele>872.2</ele>
        <time>2021-08-08T12:51:54Z</time>
      </trkpt>
      <trkpt lat="44.96196" lon="5.57066">
        <ele>871.3</ele>
        <time>2021-08-08T12:51:56Z</time>
      </trkpt>
      <trkpt lat="44.9618" lon="5.57073">
        <ele>870.2</ele>
        <time>2021-08-08T12:51:59Z</time>
      </trkpt>
      <trkpt lat="44.96166" lon="5.57088">
        <ele>869</ele>
        <time>2021-08-08T12:52:00Z</time>
      </trkpt>
      <trkpt lat="44.96159" lon="5.57096">
        <ele>868.4</ele>
        <time>2021-08-08T12:52:01Z</time>
      </trkpt>
      <trkpt lat="44.96152" lon="5.57103">
        <ele>867.8</ele>
        <time>2021-08-08T12:52:02Z</time>
      </trkpt>
      <trkpt lat="44.96133" lon="5.57109">
        <ele>866.7</ele>
        <time>2021-08-08T12:52:05Z</time>
      </trkpt>
      <trkpt lat="44.96116" lon="5.57112">
        <ele>865.8</ele>
        <time>2021-08-08T12:52:06Z</time>
      </trkpt>
      <trkpt lat="44.96103" lon="5.57123">
        <ele>864.7</ele>
        <time>2021-08-08T12:52:08Z</time>
      </trkpt>
      <trkpt lat="44.96098" lon="5.57132">
        <ele>864</ele>
        <time>2021-08-08T12:52:09Z</time>
      </trkpt>
      <trkpt lat="44.96095" lon="5.57144">
        <ele>863.2</ele>
        <time>2021-08-08T12:52:11Z</time>
      </trkpt>
      <trkpt lat="44.96089" lon="5.57169">
        <ele>861.1</ele>
        <time>2021-08-08T12:52:12Z</time>
      </trkpt>
      <trkpt lat="44.96077" lon="5.5719">
        <ele>858.9</ele>
        <time>2021-08-08T12:52:14Z</time>
      </trkpt>
      <trkpt lat="44.96063" lon="5.57208">
        <ele>856.7</ele>
        <time>2021-08-08T12:52:17Z</time>
      </trkpt>
      <trkpt lat="44.96048" lon="5.57229">
        <ele>854</ele>
        <time>2021-08-08T12:52:18Z</time>
      </trkpt>
      <trkpt lat="44.96039" lon="5.5724">
        <ele>852.6</ele>
        <time>2021-08-08T12:52:19Z</time>
      </trkpt>
      <trkpt lat="44.96022" lon="5.57264">
        <ele>849.8</ele>
        <time>2021-08-08T12:52:21Z</time>
      </trkpt>
      <trkpt lat="44.96005" lon="5.57289">
        <ele>847.1</ele>
        <time>2021-08-08T12:52:23Z</time>
      </trkpt>
      <trkpt lat="44.95996" lon="5.57302">
        <ele>845.8</ele>
        <time>2021-08-08T12:52:24Z</time>
      </trkpt>
      <trkpt lat="44.95987" lon="5.57315">
        <ele>844.3</ele>
        <time>2021-08-08T12:52:25Z</time>
      </trkpt>
      <trkpt lat="44.95969" lon="5.57339">
        <ele>841.4</ele>
        <time>2021-08-08T12:52:27Z</time>
      </trkpt>
      <trkpt lat="44.95951" lon="5.57362">
        <ele>838.5</ele>
        <time>2021-08-08T12:52:29Z</time>
      </trkpt>
      <trkpt lat="44.95929" lon="5.57383">
        <ele>835.8</ele>
        <time>2021-08-08T12:52:31Z</time>
      </trkpt>
      <trkpt lat="44.95908" lon="5.57401">
        <ele>833.9</ele>
        <time>2021-08-08T12:52:33Z</time>
      </trkpt>
      <trkpt lat="44.95891" lon="5.57417">
        <ele>832.7</ele>
        <time>2021-08-08T12:52:35Z</time>
      </trkpt>
      <trkpt lat="44.95876" lon="5.57433">
        <ele>832</ele>
        <time>2021-08-08T12:52:37Z</time>
      </trkpt>
      <trkpt lat="44.95862" lon="5.57446">
        <ele>831.3</ele>
        <time>2021-08-08T12:52:39Z</time>
      </trkpt>
      <trkpt lat="44.95853" lon="5.57457">
        <ele>830.5</ele>
        <time>2021-08-08T12:52:41Z</time>
      </trkpt>
      <trkpt lat="44.9585" lon="5.57464">
        <ele>830</ele>
        <time>2021-08-08T12:52:42Z</time>
      </trkpt>
      <trkpt lat="44.95849" lon="5.57474">
        <ele>829.1</ele>
        <time>2021-08-08T12:52:44Z</time>
      </trkpt>
      <trkpt lat="44.95849" lon="5.57476">
        <ele>829</ele>
        <time>2021-08-08T12:52:47Z</time>
      </trkpt>
      <trkpt lat="44.9585" lon="5.57477">
        <ele>828.8</ele>
        <time>2021-08-08T12:52:48Z</time>
      </trkpt>
      <trkpt lat="44.9585" lon="5.57477">
        <ele>828.7</ele>
        <time>2021-08-08T12:52:49Z</time>
      </trkpt>
      <trkpt lat="44.95851" lon="5.57478">
        <ele>828.6</ele>
        <time>2021-08-08T12:52:50Z</time>
      </trkpt>
      <trkpt lat="44.95852" lon="5.57479">
        <ele>828.4</ele>
        <time>2021-08-08T12:52:52Z</time>
      </trkpt>
      <trkpt lat="44.95853" lon="5.57479">
        <ele>828.3</ele>
        <time>2021-08-08T12:52:53Z</time>
      </trkpt>
      <trkpt lat="44.95854" lon="5.5748">
        <ele>828.1</ele>
        <time>2021-08-08T12:52:55Z</time>
      </trkpt>
      <trkpt lat="44.95855" lon="5.57481">
        <ele>827.9</ele>
        <time>2021-08-08T12:52:56Z</time>
      </trkpt>
      <trkpt lat="44.95855" lon="5.57481">
        <ele>827.8</ele>
        <time>2021-08-08T12:52:57Z</time>
      </trkpt>
      <trkpt lat="44.95856" lon="5.57482">
        <ele>827.6</ele>
        <time>2021-08-08T12:52:59Z</time>
      </trkpt>
      <trkpt lat="44.95857" lon="5.57483">
        <ele>827.5</ele>
        <time>2021-08-08T12:53:00Z</time>
      </trkpt>
      <trkpt lat="44.95858" lon="5.57483">
        <ele>827.3</ele>
        <time>2021-08-08T12:53:09Z</time>
      </trkpt>
      <trkpt lat="44.95859" lon="5.57484">
        <ele>827.1</ele>
        <time>2021-08-08T12:53:10Z</time>
      </trkpt>
      <trkpt lat="44.95864" lon="5.5749">
        <ele>825.9</ele>
        <time>2021-08-08T12:53:12Z</time>
      </trkpt>
      <trkpt lat="44.95869" lon="5.57495">
        <ele>824.8</ele>
        <time>2021-08-08T12:53:13Z</time>
      </trkpt>
      <trkpt lat="44.95878" lon="5.5751">
        <ele>822.5</ele>
        <time>2021-08-08T12:53:15Z</time>
      </trkpt>
      <trkpt lat="44.95883" lon="5.57528">
        <ele>820.7</ele>
        <time>2021-08-08T12:53:17Z</time>
      </trkpt>
      <trkpt lat="44.95885" lon="5.57538">
        <ele>819.7</ele>
        <time>2021-08-08T12:53:18Z</time>
      </trkpt>
      <trkpt lat="44.95889" lon="5.57548">
        <ele>818.8</ele>
        <time>2021-08-08T12:53:19Z</time>
      </trkpt>
      <trkpt lat="44.95898" lon="5.57568">
        <ele>816.9</ele>
        <time>2021-08-08T12:53:21Z</time>
      </trkpt>
      <trkpt lat="44.95904" lon="5.57576">
        <ele>815.8</ele>
        <time>2021-08-08T12:53:22Z</time>
      </trkpt>
      <trkpt lat="44.95908" lon="5.57586">
        <ele>814.8</ele>
        <time>2021-08-08T12:53:23Z</time>
      </trkpt>
      <trkpt lat="44.95911" lon="5.57598">
        <ele>813.6</ele>
        <time>2021-08-08T12:53:24Z</time>
      </trkpt>
      <trkpt lat="44.95913" lon="5.57625">
        <ele>810.9</ele>
        <time>2021-08-08T12:53:27Z</time>
      </trkpt>
      <trkpt lat="44.95914" lon="5.57654">
        <ele>808.2</ele>
        <time>2021-08-08T12:53:28Z</time>
      </trkpt>
      <trkpt lat="44.95916" lon="5.57684">
        <ele>805.6</ele>
        <time>2021-08-08T12:53:30Z</time>
      </trkpt>
      <trkpt lat="44.95916" lon="5.577">
        <ele>804.2</ele>
        <time>2021-08-08T12:53:31Z</time>
      </trkpt>
      <trkpt lat="44.95917" lon="5.57733">
        <ele>801.1</ele>
        <time>2021-08-08T12:53:33Z</time>
      </trkpt>
      <trkpt lat="44.95918" lon="5.5775">
        <ele>799.7</ele>
        <time>2021-08-08T12:53:34Z</time>
      </trkpt>
      <trkpt lat="44.9592" lon="5.57768">
        <ele>798.4</ele>
        <time>2021-08-08T12:53:35Z</time>
      </trkpt>
      <trkpt lat="44.95923" lon="5.57803">
        <ele>795.6</ele>
        <time>2021-08-08T12:53:37Z</time>
      </trkpt>
      <trkpt lat="44.95925" lon="5.57821">
        <ele>794.2</ele>
        <time>2021-08-08T12:53:38Z</time>
      </trkpt>
      <trkpt lat="44.95929" lon="5.57859">
        <ele>791.4</ele>
        <time>2021-08-08T12:53:40Z</time>
      </trkpt>
      <trkpt lat="44.95933" lon="5.57897">
        <ele>788.6</ele>
        <time>2021-08-08T12:53:42Z</time>
      </trkpt>
      <trkpt lat="44.95936" lon="5.57933">
        <ele>786</ele>
        <time>2021-08-08T12:53:44Z</time>
      </trkpt>
      <trkpt lat="44.95936" lon="5.57951">
        <ele>784.7</ele>
        <time>2021-08-08T12:53:45Z</time>
      </trkpt>
      <trkpt lat="44.95936" lon="5.57988">
        <ele>782.4</ele>
        <time>2021-08-08T12:53:47Z</time>
      </trkpt>
      <trkpt lat="44.95937" lon="5.58008">
        <ele>781.3</ele>
        <time>2021-08-08T12:53:48Z</time>
      </trkpt>
      <trkpt lat="44.95937" lon="5.58027">
        <ele>780.3</ele>
        <time>2021-08-08T12:53:49Z</time>
      </trkpt>
      <trkpt lat="44.95937" lon="5.58045">
        <ele>779.4</ele>
        <time>2021-08-08T12:53:50Z</time>
      </trkpt>
      <trkpt lat="44.95939" lon="5.5806">
        <ele>778.8</ele>
        <time>2021-08-08T12:53:51Z</time>
      </trkpt>
      <trkpt lat="44.9594" lon="5.5809">
        <ele>777.7</ele>
        <time>2021-08-08T12:53:53Z</time>
      </trkpt>
      <trkpt lat="44.95938" lon="5.58103">
        <ele>777.3</ele>
        <time>2021-08-08T12:53:54Z</time>
      </trkpt>
      <trkpt lat="44.95937" lon="5.58115">
        <ele>776.8</ele>
        <time>2021-08-08T12:53:56Z</time>
      </trkpt>
      <trkpt lat="44.95943" lon="5.58137">
        <ele>775.4</ele>
        <time>2021-08-08T12:53:57Z</time>
      </trkpt>
      <trkpt lat="44.95949" lon="5.58145">
        <ele>774.3</ele>
        <time>2021-08-08T12:53:58Z</time>
      </trkpt>
      <trkpt lat="44.95967" lon="5.58156">
        <ele>771.3</ele>
        <time>2021-08-08T12:54:00Z</time>
      </trkpt>
      <trkpt lat="44.95984" lon="5.58169">
        <ele>768.8</ele>
        <time>2021-08-08T12:54:02Z</time>
      </trkpt>
      <trkpt lat="44.95996" lon="5.58192">
        <ele>766.6</ele>
        <time>2021-08-08T12:54:04Z</time>
      </trkpt>
      <trkpt lat="44.96001" lon="5.58207">
        <ele>765.4</ele>
        <time>2021-08-08T12:54:05Z</time>
      </trkpt>
      <trkpt lat="44.96006" lon="5.58222">
        <ele>764.3</ele>
        <time>2021-08-08T12:54:06Z</time>
      </trkpt>
      <trkpt lat="44.96008" lon="5.58237">
        <ele>763.3</ele>
        <time>2021-08-08T12:54:07Z</time>
      </trkpt>
      <trkpt lat="44.9601" lon="5.58251">
        <ele>762.2</ele>
        <time>2021-08-08T12:54:08Z</time>
      </trkpt>
      <trkpt lat="44.96019" lon="5.58272">
        <ele>759.9</ele>
        <time>2021-08-08T12:54:10Z</time>
      </trkpt>
      <trkpt lat="44.96037" lon="5.58285">
        <ele>757.1</ele>
        <time>2021-08-08T12:54:12Z</time>
      </trkpt>
      <trkpt lat="44.96048" lon="5.58291">
        <ele>755.7</ele>
        <time>2021-08-08T12:54:13Z</time>
      </trkpt>
      <trkpt lat="44.96072" lon="5.58298">
        <ele>752.8</ele>
        <time>2021-08-08T12:54:15Z</time>
      </trkpt>
      <trkpt lat="44.96096" lon="5.58307">
        <ele>749.8</ele>
        <time>2021-08-08T12:54:17Z</time>
      </trkpt>
      <trkpt lat="44.96106" lon="5.58314">
        <ele>748.4</ele>
        <time>2021-08-08T12:54:18Z</time>
      </trkpt>
      <trkpt lat="44.96113" lon="5.58325">
        <ele>747</ele>
        <time>2021-08-08T12:54:20Z</time>
      </trkpt>
      <trkpt lat="44.9612" lon="5.58356">
        <ele>744.1</ele>
        <time>2021-08-08T12:54:21Z</time>
      </trkpt>
      <trkpt lat="44.96123" lon="5.58393">
        <ele>741.8</ele>
        <time>2021-08-08T12:54:23Z</time>
      </trkpt>
      <trkpt lat="44.9613" lon="5.58441">
        <ele>739.1</ele>
        <time>2021-08-08T12:54:26Z</time>
      </trkpt>
      <trkpt lat="44.96144" lon="5.58469">
        <ele>737.3</ele>
        <time>2021-08-08T12:54:28Z</time>
      </trkpt>
      <trkpt lat="44.96153" lon="5.58496">
        <ele>735.9</ele>
        <time>2021-08-08T12:54:30Z</time>
      </trkpt>
      <trkpt lat="44.96154" lon="5.58512">
        <ele>735.1</ele>
        <time>2021-08-08T12:54:32Z</time>
      </trkpt>
      <trkpt lat="44.96154" lon="5.58533">
        <ele>733.5</ele>
        <time>2021-08-08T12:54:33Z</time>
      </trkpt>
      <trkpt lat="44.96163" lon="5.58554">
        <ele>731.4</ele>
        <time>2021-08-08T12:54:35Z</time>
      </trkpt>
      <trkpt lat="44.96184" lon="5.58582">
        <ele>728.2</ele>
        <time>2021-08-08T12:54:38Z</time>
      </trkpt>
      <trkpt lat="44.96188" lon="5.58593">
        <ele>727.2</ele>
        <time>2021-08-08T12:54:39Z</time>
      </trkpt>
      <trkpt lat="44.96191" lon="5.5862">
        <ele>725.1</ele>
        <time>2021-08-08T12:54:41Z</time>
      </trkpt>
      <trkpt lat="44.96194" lon="5.58635">
        <ele>723.9</ele>
        <time>2021-08-08T12:54:42Z</time>
      </trkpt>
      <trkpt lat="44.96198" lon="5.58649">
        <ele>722.7</ele>
        <time>2021-08-08T12:54:44Z</time>
      </trkpt>
      <trkpt lat="44.96209" lon="5.58676">
        <ele>720.3</ele>
        <time>2021-08-08T12:54:45Z</time>
      </trkpt>
      <trkpt lat="44.96215" lon="5.58692">
        <ele>718.9</ele>
        <time>2021-08-08T12:54:46Z</time>
      </trkpt>
      <trkpt lat="44.96222" lon="5.58724">
        <ele>716.6</ele>
        <time>2021-08-08T12:54:48Z</time>
      </trkpt>
      <trkpt lat="44.96226" lon="5.58741">
        <ele>715.4</ele>
        <time>2021-08-08T12:54:50Z</time>
      </trkpt>
      <trkpt lat="44.96233" lon="5.58773">
        <ele>713.2</ele>
        <time>2021-08-08T12:54:51Z</time>
      </trkpt>
      <trkpt lat="44.96235" lon="5.58806">
        <ele>710.9</ele>
        <time>2021-08-08T12:54:53Z</time>
      </trkpt>
      <trkpt lat="44.96234" lon="5.58841">
        <ele>708.7</ele>
        <time>2021-08-08T12:54:56Z</time>
      </trkpt>
      <trkpt lat="44.96235" lon="5.58872">
        <ele>707.5</ele>
        <time>2021-08-08T12:54:57Z</time>
      </trkpt>
      <trkpt lat="44.96237" lon="5.58895">
        <ele>705.6</ele>
        <time>2021-08-08T12:54:59Z</time>
      </trkpt>
      <trkpt lat="44.96242" lon="5.5891">
        <ele>705.6</ele>
        <time>2021-08-08T12:55:02Z</time>
      </trkpt>
      <trkpt lat="44.9624" lon="5.58921">
        <ele>704.9</ele>
        <time>2021-08-08T12:55:04Z</time>
      </trkpt>
      <trkpt lat="44.96236" lon="5.58912">
        <ele>703.8</ele>
        <time>2021-08-08T12:55:05Z</time>
      </trkpt>
      <trkpt lat="44.96229" lon="5.58887">
        <ele>701.3</ele>
        <time>2021-08-08T12:55:06Z</time>
      </trkpt>
      <trkpt lat="44.96222" lon="5.58862">
        <ele>698.9</ele>
        <time>2021-08-08T12:55:08Z</time>
      </trkpt>
      <trkpt lat="44.96213" lon="5.58837">
        <ele>696.7</ele>
        <time>2021-08-08T12:55:10Z</time>
      </trkpt>
      <trkpt lat="44.96205" lon="5.58809">
        <ele>694.6</ele>
        <time>2021-08-08T12:55:12Z</time>
      </trkpt>
      <trkpt lat="44.96198" lon="5.58781">
        <ele>692.6</ele>
        <time>2021-08-08T12:55:14Z</time>
      </trkpt>
      <trkpt lat="44.96193" lon="5.58767">
        <ele>691.6</ele>
        <time>2021-08-08T12:55:15Z</time>
      </trkpt>
      <trkpt lat="44.96187" lon="5.58754">
        <ele>690.4</ele>
        <time>2021-08-08T12:55:16Z</time>
      </trkpt>
      <trkpt lat="44.96173" lon="5.5873">
        <ele>688</ele>
        <time>2021-08-08T12:55:18Z</time>
      </trkpt>
      <trkpt lat="44.96159" lon="5.58709">
        <ele>686.2</ele>
        <time>2021-08-08T12:55:20Z</time>
      </trkpt>
      <trkpt lat="44.96147" lon="5.58683">
        <ele>684.4</ele>
        <time>2021-08-08T12:55:22Z</time>
      </trkpt>
      <trkpt lat="44.96141" lon="5.58668">
        <ele>683.5</ele>
        <time>2021-08-08T12:55:23Z</time>
      </trkpt>
      <trkpt lat="44.96137" lon="5.58654">
        <ele>682.7</ele>
        <time>2021-08-08T12:55:24Z</time>
      </trkpt>
      <trkpt lat="44.9613" lon="5.58628">
        <ele>681.8</ele>
        <time>2021-08-08T12:55:26Z</time>
      </trkpt>
      <trkpt lat="44.96128" lon="5.58605">
        <ele>680.8</ele>
        <time>2021-08-08T12:55:28Z</time>
      </trkpt>
      <trkpt lat="44.96125" lon="5.58597">
        <ele>680.3</ele>
        <time>2021-08-08T12:55:29Z</time>
      </trkpt>
      <trkpt lat="44.96121" lon="5.5859">
        <ele>679.5</ele>
        <time>2021-08-08T12:55:30Z</time>
      </trkpt>
      <trkpt lat="44.96116" lon="5.58587">
        <ele>678.7</ele>
        <time>2021-08-08T12:55:32Z</time>
      </trkpt>
      <trkpt lat="44.96111" lon="5.58607">
        <ele>676.2</ele>
        <time>2021-08-08T12:55:33Z</time>
      </trkpt>
      <trkpt lat="44.96111" lon="5.5862">
        <ele>674.9</ele>
        <time>2021-08-08T12:55:34Z</time>
      </trkpt>
      <trkpt lat="44.96114" lon="5.58644">
        <ele>672.9</ele>
        <time>2021-08-08T12:55:36Z</time>
      </trkpt>
      <trkpt lat="44.96115" lon="5.58657">
        <ele>672</ele>
        <time>2021-08-08T12:55:38Z</time>
      </trkpt>
      <trkpt lat="44.96114" lon="5.58682">
        <ele>670.3</ele>
        <time>2021-08-08T12:55:39Z</time>
      </trkpt>
      <trkpt lat="44.96113" lon="5.58709">
        <ele>668.8</ele>
        <time>2021-08-08T12:55:41Z</time>
      </trkpt>
      <trkpt lat="44.96113" lon="5.58723">
        <ele>667.9</ele>
        <time>2021-08-08T12:55:42Z</time>
      </trkpt>
      <trkpt lat="44.96116" lon="5.58752">
        <ele>666.4</ele>
        <time>2021-08-08T12:55:44Z</time>
      </trkpt>
      <trkpt lat="44.96123" lon="5.58779">
        <ele>664.9</ele>
        <time>2021-08-08T12:55:47Z</time>
      </trkpt>
      <trkpt lat="44.96127" lon="5.58805">
        <ele>663.7</ele>
        <time>2021-08-08T12:55:48Z</time>
      </trkpt>
      <trkpt lat="44.96127" lon="5.58833">
        <ele>662.5</ele>
        <time>2021-08-08T12:55:50Z</time>
      </trkpt>
      <trkpt lat="44.96125" lon="5.58847">
        <ele>661.9</ele>
        <time>2021-08-08T12:55:51Z</time>
      </trkpt>
      <trkpt lat="44.96123" lon="5.58858">
        <ele>661.2</ele>
        <time>2021-08-08T12:55:52Z</time>
      </trkpt>
      <trkpt lat="44.9612" lon="5.58865">
        <ele>660.5</ele>
        <time>2021-08-08T12:55:53Z</time>
      </trkpt>
      <trkpt lat="44.96115" lon="5.58873">
        <ele>659.2</ele>
        <time>2021-08-08T12:55:56Z</time>
      </trkpt>
      <trkpt lat="44.96116" lon="5.58854">
        <ele>656.7</ele>
        <time>2021-08-08T12:55:57Z</time>
      </trkpt>
      <trkpt lat="44.96118" lon="5.58825">
        <ele>653.8</ele>
        <time>2021-08-08T12:55:59Z</time>
      </trkpt>
      <trkpt lat="44.96119" lon="5.58811">
        <ele>652.7</ele>
        <time>2021-08-08T12:56:00Z</time>
      </trkpt>
      <trkpt lat="44.9611" lon="5.58769">
        <ele>650.1</ele>
        <time>2021-08-08T12:56:03Z</time>
      </trkpt>
      <trkpt lat="44.96095" lon="5.58751">
        <ele>648.6</ele>
        <time>2021-08-08T12:56:05Z</time>
      </trkpt>
      <trkpt lat="44.96075" lon="5.58749">
        <ele>647.1</ele>
        <time>2021-08-08T12:56:07Z</time>
      </trkpt>
      <trkpt lat="44.96066" lon="5.58754">
        <ele>646.4</ele>
        <time>2021-08-08T12:56:08Z</time>
      </trkpt>
      <trkpt lat="44.96052" lon="5.58767">
        <ele>645.8</ele>
        <time>2021-08-08T12:56:10Z</time>
      </trkpt>
      <trkpt lat="44.9604" lon="5.58779">
        <ele>645.7</ele>
        <time>2021-08-08T12:56:13Z</time>
      </trkpt>
      <trkpt lat="44.96028" lon="5.58788">
        <ele>645.8</ele>
        <time>2021-08-08T12:56:14Z</time>
      </trkpt>
      <trkpt lat="44.96022" lon="5.58794">
        <ele>646</ele>
        <time>2021-08-08T12:56:15Z</time>
      </trkpt>
      <trkpt lat="44.96017" lon="5.58799">
        <ele>646.3</ele>
        <time>2021-08-08T12:56:16Z</time>
      </trkpt>
      <trkpt lat="44.96009" lon="5.58812">
        <ele>647.1</ele>
        <time>2021-08-08T12:56:19Z</time>
      </trkpt>
      <trkpt lat="44.96008" lon="5.58816">
        <ele>647.3</ele>
        <time>2021-08-08T12:56:20Z</time>
      </trkpt>
      <trkpt lat="44.96006" lon="5.58824">
        <ele>647.8</ele>
        <time>2021-08-08T12:56:22Z</time>
      </trkpt>
      <trkpt lat="44.96004" lon="5.58827">
        <ele>648.1</ele>
        <time>2021-08-08T12:56:23Z</time>
      </trkpt>
      <trkpt lat="44.96002" lon="5.58834">
        <ele>648.6</ele>
        <time>2021-08-08T12:56:25Z</time>
      </trkpt>
      <trkpt lat="44.96001" lon="5.58838">
        <ele>648.9</ele>
        <time>2021-08-08T12:56:27Z</time>
      </trkpt>
      <trkpt lat="44.96001" lon="5.5884">
        <ele>649.1</ele>
        <time>2021-08-08T12:56:28Z</time>
      </trkpt>
      <trkpt lat="44.96" lon="5.58846">
        <ele>649.6</ele>
        <time>2021-08-08T12:56:29Z</time>
      </trkpt>
      <trkpt lat="44.96" lon="5.58851">
        <ele>650</ele>
        <time>2021-08-08T12:56:30Z</time>
      </trkpt>
      <trkpt lat="44.95999" lon="5.58856">
        <ele>650.4</ele>
        <time>2021-08-08T12:56:31Z</time>
      </trkpt>
      <trkpt lat="44.95999" lon="5.58861">
        <ele>650.8</ele>
        <time>2021-08-08T12:56:32Z</time>
      </trkpt>
      <trkpt lat="44.95999" lon="5.58867">
        <ele>651.2</ele>
        <time>2021-08-08T12:56:34Z</time>
      </trkpt>
      <trkpt lat="44.95998" lon="5.58872">
        <ele>651.6</ele>
        <time>2021-08-08T12:56:35Z</time>
      </trkpt>
      <trkpt lat="44.95997" lon="5.58876">
        <ele>652</ele>
        <time>2021-08-08T12:56:37Z</time>
      </trkpt>
      <trkpt lat="44.95996" lon="5.5888">
        <ele>652.3</ele>
        <time>2021-08-08T12:56:38Z</time>
      </trkpt>
      <trkpt lat="44.95995" lon="5.58884">
        <ele>652.6</ele>
        <time>2021-08-08T12:56:39Z</time>
      </trkpt>
      <trkpt lat="44.95993" lon="5.58889">
        <ele>653</ele>
        <time>2021-08-08T12:56:40Z</time>
      </trkpt>
      <trkpt lat="44.95992" lon="5.58891">
        <ele>653.1</ele>
        <time>2021-08-08T12:56:41Z</time>
      </trkpt>
      <trkpt lat="44.95991" lon="5.58894">
        <ele>653.4</ele>
        <time>2021-08-08T12:56:42Z</time>
      </trkpt>
      <trkpt lat="44.95988" lon="5.58898">
        <ele>653.7</ele>
        <time>2021-08-08T12:56:44Z</time>
      </trkpt>
      <trkpt lat="44.95987" lon="5.58902">
        <ele>654</ele>
        <time>2021-08-08T12:56:45Z</time>
      </trkpt>
      <trkpt lat="44.95984" lon="5.58905">
        <ele>654.3</ele>
        <time>2021-08-08T12:56:46Z</time>
      </trkpt>
      <trkpt lat="44.95981" lon="5.58908">
        <ele>654.6</ele>
        <time>2021-08-08T12:56:47Z</time>
      </trkpt>
      <trkpt lat="44.9598" lon="5.58908">
        <ele>654.8</ele>
        <time>2021-08-08T12:56:48Z</time>
      </trkpt>
      <trkpt lat="44.95977" lon="5.58912">
        <ele>655.2</ele>
        <time>2021-08-08T12:56:50Z</time>
      </trkpt>
      <trkpt lat="44.95974" lon="5.58914">
        <ele>655.4</ele>
        <time>2021-08-08T12:56:51Z</time>
      </trkpt>
      <trkpt lat="44.95971" lon="5.58916">
        <ele>655.7</ele>
        <time>2021-08-08T12:56:53Z</time>
      </trkpt>
      <trkpt lat="44.95968" lon="5.58917">
        <ele>656</ele>
        <time>2021-08-08T12:56:54Z</time>
      </trkpt>
      <trkpt lat="44.95963" lon="5.58919">
        <ele>656.4</ele>
        <time>2021-08-08T12:56:56Z</time>
      </trkpt>
      <trkpt lat="44.95961" lon="5.58919">
        <ele>656.6</ele>
        <time>2021-08-08T12:56:57Z</time>
      </trkpt>
      <trkpt lat="44.95959" lon="5.5892">
        <ele>656.7</ele>
        <time>2021-08-08T12:56:58Z</time>
      </trkpt>
      <trkpt lat="44.95957" lon="5.5892">
        <ele>656.9</ele>
        <time>2021-08-08T12:56:59Z</time>
      </trkpt>
      <trkpt lat="44.95952" lon="5.5892">
        <ele>657.2</ele>
        <time>2021-08-08T12:57:01Z</time>
      </trkpt>
      <trkpt lat="44.95949" lon="5.5892">
        <ele>657.5</ele>
        <time>2021-08-08T12:57:03Z</time>
      </trkpt>
      <trkpt lat="44.95947" lon="5.5892">
        <ele>657.6</ele>
        <time>2021-08-08T12:57:04Z</time>
      </trkpt>
      <trkpt lat="44.95944" lon="5.58921">
        <ele>657.9</ele>
        <time>2021-08-08T12:57:05Z</time>
      </trkpt>
      <trkpt lat="44.95941" lon="5.58921">
        <ele>658.2</ele>
        <time>2021-08-08T12:57:06Z</time>
      </trkpt>
      <trkpt lat="44.95938" lon="5.58922">
        <ele>658.4</ele>
        <time>2021-08-08T12:57:08Z</time>
      </trkpt>
      <trkpt lat="44.95935" lon="5.58922">
        <ele>658.6</ele>
        <time>2021-08-08T12:57:09Z</time>
      </trkpt>
      <trkpt lat="44.9593" lon="5.58923">
        <ele>659</ele>
        <time>2021-08-08T12:57:10Z</time>
      </trkpt>
      <trkpt lat="44.95928" lon="5.58923">
        <ele>659.1</ele>
        <time>2021-08-08T12:57:11Z</time>
      </trkpt>
      <trkpt lat="44.95925" lon="5.58924">
        <ele>659.4</ele>
        <time>2021-08-08T12:57:13Z</time>
      </trkpt>
      <trkpt lat="44.95922" lon="5.58924">
        <ele>659.6</ele>
        <time>2021-08-08T12:57:14Z</time>
      </trkpt>
      <trkpt lat="44.95918" lon="5.58925">
        <ele>659.8</ele>
        <time>2021-08-08T12:57:15Z</time>
      </trkpt>
      <trkpt lat="44.95914" lon="5.58926">
        <ele>660.1</ele>
        <time>2021-08-08T12:57:17Z</time>
      </trkpt>
      <trkpt lat="44.95911" lon="5.58926">
        <ele>660.3</ele>
        <time>2021-08-08T12:57:18Z</time>
      </trkpt>
      <trkpt lat="44.95908" lon="5.58926">
        <ele>660.6</ele>
        <time>2021-08-08T12:57:19Z</time>
      </trkpt>
      <trkpt lat="44.95903" lon="5.58928">
        <ele>661</ele>
        <time>2021-08-08T12:57:21Z</time>
      </trkpt>
      <trkpt lat="44.959" lon="5.58928">
        <ele>661.1</ele>
        <time>2021-08-08T12:57:22Z</time>
      </trkpt>
      <trkpt lat="44.95894" lon="5.58929">
        <ele>661.5</ele>
        <time>2021-08-08T12:57:24Z</time>
      </trkpt>
      <trkpt lat="44.95891" lon="5.58929">
        <ele>661.7</ele>
        <time>2021-08-08T12:57:25Z</time>
      </trkpt>
      <trkpt lat="44.95888" lon="5.58929">
        <ele>661.8</ele>
        <time>2021-08-08T12:57:26Z</time>
      </trkpt>
      <trkpt lat="44.95884" lon="5.5893">
        <ele>662.1</ele>
        <time>2021-08-08T12:57:28Z</time>
      </trkpt>
      <trkpt lat="44.95881" lon="5.58931">
        <ele>662.3</ele>
        <time>2021-08-08T12:57:29Z</time>
      </trkpt>
      <trkpt lat="44.95877" lon="5.58931">
        <ele>662.5</ele>
        <time>2021-08-08T12:57:30Z</time>
      </trkpt>
      <trkpt lat="44.95872" lon="5.58932">
        <ele>662.8</ele>
        <time>2021-08-08T12:57:32Z</time>
      </trkpt>
      <trkpt lat="44.95865" lon="5.58934">
        <ele>663.3</ele>
        <time>2021-08-08T12:57:34Z</time>
      </trkpt>
      <trkpt lat="44.95862" lon="5.58934">
        <ele>663.5</ele>
        <time>2021-08-08T12:57:35Z</time>
      </trkpt>
      <trkpt lat="44.95859" lon="5.58935">
        <ele>663.7</ele>
        <time>2021-08-08T12:57:36Z</time>
      </trkpt>
      <trkpt lat="44.95854" lon="5.58937">
        <ele>664</ele>
        <time>2021-08-08T12:57:38Z</time>
      </trkpt>
      <trkpt lat="44.9585" lon="5.58938">
        <ele>664.3</ele>
        <time>2021-08-08T12:57:40Z</time>
      </trkpt>
      <trkpt lat="44.95846" lon="5.58939">
        <ele>664.6</ele>
        <time>2021-08-08T12:57:41Z</time>
      </trkpt>
      <trkpt lat="44.95844" lon="5.58939">
        <ele>664.7</ele>
        <time>2021-08-08T12:57:42Z</time>
      </trkpt>
      <trkpt lat="44.95841" lon="5.58938">
        <ele>664.9</ele>
        <time>2021-08-08T12:57:43Z</time>
      </trkpt>
      <trkpt lat="44.95836" lon="5.58939">
        <ele>665.2</ele>
        <time>2021-08-08T12:57:45Z</time>
      </trkpt>
      <trkpt lat="44.95833" lon="5.5894">
        <ele>665.4</ele>
        <time>2021-08-08T12:57:47Z</time>
      </trkpt>
      <trkpt lat="44.9583" lon="5.5894">
        <ele>665.7</ele>
        <time>2021-08-08T12:57:48Z</time>
      </trkpt>
      <trkpt lat="44.95827" lon="5.5894">
        <ele>665.9</ele>
        <time>2021-08-08T12:57:49Z</time>
      </trkpt>
      <trkpt lat="44.95824" lon="5.5894">
        <ele>666.1</ele>
        <time>2021-08-08T12:57:50Z</time>
      </trkpt>
      <trkpt lat="44.95821" lon="5.5894">
        <ele>666.3</ele>
        <time>2021-08-08T12:57:51Z</time>
      </trkpt>
      <trkpt lat="44.95816" lon="5.5894">
        <ele>666.6</ele>
        <time>2021-08-08T12:57:53Z</time>
      </trkpt>
      <trkpt lat="44.95812" lon="5.5894">
        <ele>666.9</ele>
        <time>2021-08-08T12:57:55Z</time>
      </trkpt>
      <trkpt lat="44.95808" lon="5.5894">
        <ele>667.1</ele>
        <time>2021-08-08T12:57:56Z</time>
      </trkpt>
      <trkpt lat="44.95803" lon="5.58939">
        <ele>667.5</ele>
        <time>2021-08-08T12:57:58Z</time>
      </trkpt>
      <trkpt lat="44.95801" lon="5.58939">
        <ele>667.7</ele>
        <time>2021-08-08T12:57:59Z</time>
      </trkpt>
      <trkpt lat="44.95797" lon="5.58939">
        <ele>667.9</ele>
        <time>2021-08-08T12:58:01Z</time>
      </trkpt>
      <trkpt lat="44.95794" lon="5.5894">
        <ele>668.1</ele>
        <time>2021-08-08T12:58:02Z</time>
      </trkpt>
      <trkpt lat="44.95792" lon="5.58941">
        <ele>668.3</ele>
        <time>2021-08-08T12:58:04Z</time>
      </trkpt>
      <trkpt lat="44.95789" lon="5.58941">
        <ele>668.5</ele>
        <time>2021-08-08T12:58:05Z</time>
      </trkpt>
      <trkpt lat="44.95785" lon="5.58941">
        <ele>668.8</ele>
        <time>2021-08-08T12:58:06Z</time>
      </trkpt>
      <trkpt lat="44.95782" lon="5.58941">
        <ele>669</ele>
        <time>2021-08-08T12:58:07Z</time>
      </trkpt>
      <trkpt lat="44.95779" lon="5.58941">
        <ele>669.2</ele>
        <time>2021-08-08T12:58:09Z</time>
      </trkpt>
      <trkpt lat="44.95775" lon="5.58941">
        <ele>669.4</ele>
        <time>2021-08-08T12:58:10Z</time>
      </trkpt>
      <trkpt lat="44.95772" lon="5.58942">
        <ele>669.7</ele>
        <time>2021-08-08T12:58:12Z</time>
      </trkpt>
      <trkpt lat="44.95767" lon="5.58943">
        <ele>670</ele>
        <time>2021-08-08T12:58:13Z</time>
      </trkpt>
      <trkpt lat="44.95764" lon="5.58944">
        <ele>670.2</ele>
        <time>2021-08-08T12:58:14Z</time>
      </trkpt>
      <trkpt lat="44.95762" lon="5.58945">
        <ele>670.4</ele>
        <time>2021-08-08T12:58:15Z</time>
      </trkpt>
      <trkpt lat="44.95758" lon="5.58945">
        <ele>670.7</ele>
        <time>2021-08-08T12:58:17Z</time>
      </trkpt>
      <trkpt lat="44.95755" lon="5.58946">
        <ele>670.9</ele>
        <time>2021-08-08T12:58:18Z</time>
      </trkpt>
      <trkpt lat="44.95751" lon="5.58947">
        <ele>671.1</ele>
        <time>2021-08-08T12:58:19Z</time>
      </trkpt>
      <trkpt lat="44.95747" lon="5.58948">
        <ele>671.4</ele>
        <time>2021-08-08T12:58:21Z</time>
      </trkpt>
      <trkpt lat="44.95744" lon="5.58948">
        <ele>671.6</ele>
        <time>2021-08-08T12:58:23Z</time>
      </trkpt>
      <trkpt lat="44.95739" lon="5.5895">
        <ele>671.9</ele>
        <time>2021-08-08T12:58:24Z</time>
      </trkpt>
      <trkpt lat="44.95735" lon="5.58952">
        <ele>672.1</ele>
        <time>2021-08-08T12:58:26Z</time>
      </trkpt>
      <trkpt lat="44.95732" lon="5.58954">
        <ele>672.3</ele>
        <time>2021-08-08T12:58:27Z</time>
      </trkpt>
      <trkpt lat="44.95728" lon="5.58957">
        <ele>672.6</ele>
        <time>2021-08-08T12:58:28Z</time>
      </trkpt>
      <trkpt lat="44.95724" lon="5.5896">
        <ele>672.8</ele>
        <time>2021-08-08T12:58:30Z</time>
      </trkpt>
      <trkpt lat="44.9572" lon="5.58962">
        <ele>673</ele>
        <time>2021-08-08T12:58:31Z</time>
      </trkpt>
      <trkpt lat="44.95717" lon="5.58964">
        <ele>673.2</ele>
        <time>2021-08-08T12:58:32Z</time>
      </trkpt>
      <trkpt lat="44.95713" lon="5.58966">
        <ele>673.4</ele>
        <time>2021-08-08T12:58:33Z</time>
      </trkpt>
      <trkpt lat="44.95709" lon="5.5897">
        <ele>673.6</ele>
        <time>2021-08-08T12:58:35Z</time>
      </trkpt>
      <trkpt lat="44.95706" lon="5.58974">
        <ele>673.8</ele>
        <time>2021-08-08T12:58:36Z</time>
      </trkpt>
      <trkpt lat="44.95703" lon="5.58978">
        <ele>674</ele>
        <time>2021-08-08T12:58:37Z</time>
      </trkpt>
      <trkpt lat="44.95699" lon="5.58981">
        <ele>674.3</ele>
        <time>2021-08-08T12:58:39Z</time>
      </trkpt>
      <trkpt lat="44.95696" lon="5.58984">
        <ele>674.5</ele>
        <time>2021-08-08T12:58:40Z</time>
      </trkpt>
      <trkpt lat="44.95693" lon="5.58986">
        <ele>674.7</ele>
        <time>2021-08-08T12:58:41Z</time>
      </trkpt>
      <trkpt lat="44.9569" lon="5.58986">
        <ele>675</ele>
        <time>2021-08-08T12:58:42Z</time>
      </trkpt>
      <trkpt lat="44.95685" lon="5.58987">
        <ele>675.4</ele>
        <time>2021-08-08T12:58:44Z</time>
      </trkpt>
      <trkpt lat="44.95681" lon="5.58986">
        <ele>675.7</ele>
        <time>2021-08-08T12:58:45Z</time>
      </trkpt>
      <trkpt lat="44.95677" lon="5.58983">
        <ele>676.1</ele>
        <time>2021-08-08T12:58:47Z</time>
      </trkpt>
      <trkpt lat="44.95675" lon="5.5898">
        <ele>676.5</ele>
        <time>2021-08-08T12:58:48Z</time>
      </trkpt>
      <trkpt lat="44.95673" lon="5.58975">
        <ele>676.9</ele>
        <time>2021-08-08T12:58:49Z</time>
      </trkpt>
      <trkpt lat="44.95672" lon="5.58971">
        <ele>677.2</ele>
        <time>2021-08-08T12:58:50Z</time>
      </trkpt>
      <trkpt lat="44.95671" lon="5.58965">
        <ele>677.6</ele>
        <time>2021-08-08T12:58:52Z</time>
      </trkpt>
      <trkpt lat="44.9567" lon="5.58959">
        <ele>678</ele>
        <time>2021-08-08T12:58:53Z</time>
      </trkpt>
      <trkpt lat="44.9567" lon="5.58954">
        <ele>678.3</ele>
        <time>2021-08-08T12:58:55Z</time>
      </trkpt>
      <trkpt lat="44.95671" lon="5.58948">
        <ele>678.7</ele>
        <time>2021-08-08T12:58:56Z</time>
      </trkpt>
      <trkpt lat="44.95673" lon="5.58942">
        <ele>679.2</ele>
        <time>2021-08-08T12:58:57Z</time>
      </trkpt>
      <trkpt lat="44.95675" lon="5.58936">
        <ele>679.7</ele>
        <time>2021-08-08T12:58:59Z</time>
      </trkpt>
      <trkpt lat="44.95676" lon="5.58932">
        <ele>680</ele>
        <time>2021-08-08T12:59:00Z</time>
      </trkpt>
      <trkpt lat="44.95678" lon="5.58928">
        <ele>680.2</ele>
        <time>2021-08-08T12:59:01Z</time>
      </trkpt>
      <trkpt lat="44.95679" lon="5.58926">
        <ele>680.4</ele>
        <time>2021-08-08T12:59:03Z</time>
      </trkpt>
      <trkpt lat="44.95681" lon="5.5892">
        <ele>680.9</ele>
        <time>2021-08-08T12:59:05Z</time>
      </trkpt>
      <trkpt lat="44.95682" lon="5.58915">
        <ele>681.2</ele>
        <time>2021-08-08T12:59:06Z</time>
      </trkpt>
      <trkpt lat="44.95684" lon="5.58909">
        <ele>681.7</ele>
        <time>2021-08-08T12:59:08Z</time>
      </trkpt>
      <trkpt lat="44.95685" lon="5.58906">
        <ele>681.9</ele>
        <time>2021-08-08T12:59:09Z</time>
      </trkpt>
      <trkpt lat="44.95686" lon="5.58901">
        <ele>682.2</ele>
        <time>2021-08-08T12:59:11Z</time>
      </trkpt>
      <trkpt lat="44.95687" lon="5.58896">
        <ele>682.5</ele>
        <time>2021-08-08T12:59:12Z</time>
      </trkpt>
      <trkpt lat="44.95688" lon="5.58892">
        <ele>682.8</ele>
        <time>2021-08-08T12:59:14Z</time>
      </trkpt>
      <trkpt lat="44.95688" lon="5.58891">
        <ele>682.9</ele>
        <time>2021-08-08T12:59:15Z</time>
      </trkpt>
      <trkpt lat="44.95688" lon="5.58887">
        <ele>683.1</ele>
        <time>2021-08-08T12:59:16Z</time>
      </trkpt>
      <trkpt lat="44.95689" lon="5.58883">
        <ele>683.4</ele>
        <time>2021-08-08T12:59:17Z</time>
      </trkpt>
      <trkpt lat="44.9569" lon="5.58879">
        <ele>683.6</ele>
        <time>2021-08-08T12:59:18Z</time>
      </trkpt>
      <trkpt lat="44.95691" lon="5.58874">
        <ele>683.9</ele>
        <time>2021-08-08T12:59:20Z</time>
      </trkpt>
      <trkpt lat="44.95692" lon="5.58868">
        <ele>684.2</ele>
        <time>2021-08-08T12:59:22Z</time>
      </trkpt>
      <trkpt lat="44.95694" lon="5.58862">
        <ele>684.6</ele>
        <time>2021-08-08T12:59:23Z</time>
      </trkpt>
      <trkpt lat="44.95695" lon="5.58856">
        <ele>684.9</ele>
        <time>2021-08-08T12:59:25Z</time>
      </trkpt>
      <trkpt lat="44.95697" lon="5.58851">
        <ele>685.1</ele>
        <time>2021-08-08T12:59:26Z</time>
      </trkpt>
      <trkpt lat="44.95698" lon="5.58845">
        <ele>685.4</ele>
        <time>2021-08-08T12:59:27Z</time>
      </trkpt>
      <trkpt lat="44.95699" lon="5.58841">
        <ele>685.6</ele>
        <time>2021-08-08T12:59:29Z</time>
      </trkpt>
      <trkpt lat="44.95701" lon="5.58836">
        <ele>685.8</ele>
        <time>2021-08-08T12:59:30Z</time>
      </trkpt>
      <trkpt lat="44.95702" lon="5.5883">
        <ele>686.1</ele>
        <time>2021-08-08T12:59:31Z</time>
      </trkpt>
      <trkpt lat="44.95703" lon="5.58825">
        <ele>686.3</ele>
        <time>2021-08-08T12:59:32Z</time>
      </trkpt>
      <trkpt lat="44.95704" lon="5.58821">
        <ele>686.4</ele>
        <time>2021-08-08T12:59:33Z</time>
      </trkpt>
      <trkpt lat="44.95706" lon="5.58814">
        <ele>686.7</ele>
        <time>2021-08-08T12:59:35Z</time>
      </trkpt>
      <trkpt lat="44.95707" lon="5.58809">
        <ele>686.9</ele>
        <time>2021-08-08T12:59:36Z</time>
      </trkpt>
      <trkpt lat="44.95709" lon="5.58804">
        <ele>687</ele>
        <time>2021-08-08T12:59:37Z</time>
      </trkpt>
      <trkpt lat="44.9571" lon="5.588">
        <ele>687.2</ele>
        <time>2021-08-08T12:59:39Z</time>
      </trkpt>
      <trkpt lat="44.95712" lon="5.58794">
        <ele>687.4</ele>
        <time>2021-08-08T12:59:40Z</time>
      </trkpt>
      <trkpt lat="44.95714" lon="5.58789">
        <ele>687.6</ele>
        <time>2021-08-08T12:59:41Z</time>
      </trkpt>
      <trkpt lat="44.95715" lon="5.58782">
        <ele>687.8</ele>
        <time>2021-08-08T12:59:42Z</time>
      </trkpt>
      <trkpt lat="44.95717" lon="5.58775">
        <ele>688.1</ele>
        <time>2021-08-08T12:59:44Z</time>
      </trkpt>
      <trkpt lat="44.95718" lon="5.5877">
        <ele>688.3</ele>
        <time>2021-08-08T12:59:45Z</time>
      </trkpt>
      <trkpt lat="44.95719" lon="5.58764">
        <ele>688.5</ele>
        <time>2021-08-08T12:59:46Z</time>
      </trkpt>
      <trkpt lat="44.9572" lon="5.5876">
        <ele>688.6</ele>
        <time>2021-08-08T12:59:47Z</time>
      </trkpt>
      <trkpt lat="44.95721" lon="5.58755">
        <ele>688.8</ele>
        <time>2021-08-08T12:59:48Z</time>
      </trkpt>
      <trkpt lat="44.95722" lon="5.58751">
        <ele>689</ele>
        <time>2021-08-08T12:59:49Z</time>
      </trkpt>
      <trkpt lat="44.95723" lon="5.58747">
        <ele>689.2</ele>
        <time>2021-08-08T12:59:51Z</time>
      </trkpt>
      <trkpt lat="44.95724" lon="5.5874">
        <ele>689.4</ele>
        <time>2021-08-08T12:59:52Z</time>
      </trkpt>
      <trkpt lat="44.95724" lon="5.58735">
        <ele>689.7</ele>
        <time>2021-08-08T12:59:53Z</time>
      </trkpt>
      <trkpt lat="44.95721" lon="5.58728">
        <ele>690</ele>
        <time>2021-08-08T12:59:55Z</time>
      </trkpt>
      <trkpt lat="44.9572" lon="5.58724">
        <ele>690.2</ele>
        <time>2021-08-08T12:59:56Z</time>
      </trkpt>
      <trkpt lat="44.95718" lon="5.5872">
        <ele>690.4</ele>
        <time>2021-08-08T12:59:57Z</time>
      </trkpt>
      <trkpt lat="44.95716" lon="5.58716">
        <ele>690.6</ele>
        <time>2021-08-08T12:59:59Z</time>
      </trkpt>
      <trkpt lat="44.95713" lon="5.58714">
        <ele>690.8</ele>
        <time>2021-08-08T13:00:00Z</time>
      </trkpt>
      <trkpt lat="44.95707" lon="5.58715">
        <ele>691.2</ele>
        <time>2021-08-08T13:00:01Z</time>
      </trkpt>
      <trkpt lat="44.95703" lon="5.58717">
        <ele>691.5</ele>
        <time>2021-08-08T13:00:02Z</time>
      </trkpt>
      <trkpt lat="44.95697" lon="5.58722">
        <ele>691.9</ele>
        <time>2021-08-08T13:00:04Z</time>
      </trkpt>
      <trkpt lat="44.95693" lon="5.58727">
        <ele>692.3</ele>
        <time>2021-08-08T13:00:05Z</time>
      </trkpt>
      <trkpt lat="44.95688" lon="5.5873">
        <ele>692.7</ele>
        <time>2021-08-08T13:00:07Z</time>
      </trkpt>
      <trkpt lat="44.95683" lon="5.58733">
        <ele>693</ele>
        <time>2021-08-08T13:00:08Z</time>
      </trkpt>
      <trkpt lat="44.95679" lon="5.58736">
        <ele>693.3</ele>
        <time>2021-08-08T13:00:09Z</time>
      </trkpt>
      <trkpt lat="44.95675" lon="5.58739">
        <ele>693.6</ele>
        <time>2021-08-08T13:00:11Z</time>
      </trkpt>
      <trkpt lat="44.95671" lon="5.58742">
        <ele>693.9</ele>
        <time>2021-08-08T13:00:12Z</time>
      </trkpt>
      <trkpt lat="44.95667" lon="5.58745">
        <ele>694.2</ele>
        <time>2021-08-08T13:00:13Z</time>
      </trkpt>
      <trkpt lat="44.95658" lon="5.58749">
        <ele>694.8</ele>
        <time>2021-08-08T13:00:15Z</time>
      </trkpt>
      <trkpt lat="44.95651" lon="5.58752">
        <ele>695.3</ele>
        <time>2021-08-08T13:00:17Z</time>
      </trkpt>
      <trkpt lat="44.95647" lon="5.58753">
        <ele>695.6</ele>
        <time>2021-08-08T13:00:18Z</time>
      </trkpt>
      <trkpt lat="44.95643" lon="5.58754">
        <ele>695.9</ele>
        <time>2021-08-08T13:00:20Z</time>
      </trkpt>
      <trkpt lat="44.95636" lon="5.58755">
        <ele>696.3</ele>
        <time>2021-08-08T13:00:21Z</time>
      </trkpt>
      <trkpt lat="44.95632" lon="5.58756">
        <ele>696.5</ele>
        <time>2021-08-08T13:00:23Z</time>
      </trkpt>
      <trkpt lat="44.95628" lon="5.58757">
        <ele>696.8</ele>
        <time>2021-08-08T13:00:24Z</time>
      </trkpt>
      <trkpt lat="44.95624" lon="5.58758">
        <ele>697</ele>
        <time>2021-08-08T13:00:25Z</time>
      </trkpt>
      <trkpt lat="44.95618" lon="5.5876">
        <ele>697.4</ele>
        <time>2021-08-08T13:00:26Z</time>
      </trkpt>
      <trkpt lat="44.95614" lon="5.58761">
        <ele>697.7</ele>
        <time>2021-08-08T13:00:27Z</time>
      </trkpt>
      <trkpt lat="44.95609" lon="5.58761">
        <ele>698</ele>
        <time>2021-08-08T13:00:28Z</time>
      </trkpt>
      <trkpt lat="44.95603" lon="5.58762">
        <ele>698.4</ele>
        <time>2021-08-08T13:00:30Z</time>
      </trkpt>
      <trkpt lat="44.956" lon="5.58762">
        <ele>698.6</ele>
        <time>2021-08-08T13:00:32Z</time>
      </trkpt>
      <trkpt lat="44.95594" lon="5.58763">
        <ele>699</ele>
        <time>2021-08-08T13:00:34Z</time>
      </trkpt>
      <trkpt lat="44.95589" lon="5.58765">
        <ele>699.3</ele>
        <time>2021-08-08T13:00:35Z</time>
      </trkpt>
      <trkpt lat="44.95586" lon="5.58766">
        <ele>699.5</ele>
        <time>2021-08-08T13:00:36Z</time>
      </trkpt>
      <trkpt lat="44.95583" lon="5.58767">
        <ele>699.7</ele>
        <time>2021-08-08T13:00:37Z</time>
      </trkpt>
      <trkpt lat="44.95577" lon="5.5877">
        <ele>700.2</ele>
        <time>2021-08-08T13:00:39Z</time>
      </trkpt>
      <trkpt lat="44.95571" lon="5.58773">
        <ele>700.5</ele>
        <time>2021-08-08T13:00:41Z</time>
      </trkpt>
      <trkpt lat="44.95567" lon="5.58774">
        <ele>700.7</ele>
        <time>2021-08-08T13:00:42Z</time>
      </trkpt>
      <trkpt lat="44.95564" lon="5.58775">
        <ele>700.8</ele>
        <time>2021-08-08T13:00:43Z</time>
      </trkpt>
      <trkpt lat="44.95558" lon="5.58781">
        <ele>700.9</ele>
        <time>2021-08-08T13:00:45Z</time>
      </trkpt>
      <trkpt lat="44.95556" lon="5.58798">
        <ele>700.8</ele>
        <time>2021-08-08T13:00:47Z</time>
      </trkpt>
      <trkpt lat="44.95553" lon="5.58814">
        <ele>700.7</ele>
        <time>2021-08-08T13:00:49Z</time>
      </trkpt>
      <trkpt lat="44.95548" lon="5.58829">
        <ele>700.7</ele>
        <time>2021-08-08T13:00:51Z</time>
      </trkpt>
      <trkpt lat="44.95541" lon="5.58839">
        <ele>700.8</ele>
        <time>2021-08-08T13:00:53Z</time>
      </trkpt>
      <trkpt lat="44.95535" lon="5.58849">
        <ele>700.8</ele>
        <time>2021-08-08T13:00:55Z</time>
      </trkpt>
      <trkpt lat="44.95529" lon="5.58859">
        <ele>700.9</ele>
        <time>2021-08-08T13:00:57Z</time>
      </trkpt>
      <trkpt lat="44.95523" lon="5.58868">
        <ele>701</ele>
        <time>2021-08-08T13:01:00Z</time>
      </trkpt>
      <trkpt lat="44.95514" lon="5.58868">
        <ele>701.1</ele>
        <time>2021-08-08T13:01:01Z</time>
      </trkpt>
      <trkpt lat="44.95511" lon="5.58866">
        <ele>701.2</ele>
        <time>2021-08-08T13:01:02Z</time>
      </trkpt>
      <trkpt lat="44.95503" lon="5.58864">
        <ele>701.2</ele>
        <time>2021-08-08T13:01:04Z</time>
      </trkpt>
      <trkpt lat="44.955" lon="5.5886">
        <ele>701.2</ele>
        <time>2021-08-08T13:01:06Z</time>
      </trkpt>
      <trkpt lat="44.95496" lon="5.58858">
        <ele>701.5</ele>
        <time>2021-08-08T13:01:07Z</time>
      </trkpt>
      <trkpt lat="44.95492" lon="5.58858">
        <ele>701.7</ele>
        <time>2021-08-08T13:01:08Z</time>
      </trkpt>
      <trkpt lat="44.95488" lon="5.58857">
        <ele>701.9</ele>
        <time>2021-08-08T13:01:10Z</time>
      </trkpt>
      <trkpt lat="44.95483" lon="5.58857">
        <ele>702.2</ele>
        <time>2021-08-08T13:01:11Z</time>
      </trkpt>
      <trkpt lat="44.95479" lon="5.58857">
        <ele>702.4</ele>
        <time>2021-08-08T13:01:12Z</time>
      </trkpt>
      <trkpt lat="44.95475" lon="5.58856">
        <ele>702.7</ele>
        <time>2021-08-08T13:01:14Z</time>
      </trkpt>
      <trkpt lat="44.95472" lon="5.58857">
        <ele>702.9</ele>
        <time>2021-08-08T13:01:15Z</time>
      </trkpt>
      <trkpt lat="44.95468" lon="5.58857">
        <ele>703.2</ele>
        <time>2021-08-08T13:01:16Z</time>
      </trkpt>
      <trkpt lat="44.95463" lon="5.58857">
        <ele>703.5</ele>
        <time>2021-08-08T13:01:18Z</time>
      </trkpt>
      <trkpt lat="44.95459" lon="5.58857">
        <ele>703.8</ele>
        <time>2021-08-08T13:01:19Z</time>
      </trkpt>
      <trkpt lat="44.95456" lon="5.58857">
        <ele>704.1</ele>
        <time>2021-08-08T13:01:20Z</time>
      </trkpt>
      <trkpt lat="44.95451" lon="5.58857">
        <ele>704.4</ele>
        <time>2021-08-08T13:01:22Z</time>
      </trkpt>
      <trkpt lat="44.95447" lon="5.58857">
        <ele>704.7</ele>
        <time>2021-08-08T13:01:23Z</time>
      </trkpt>
      <trkpt lat="44.95444" lon="5.58858">
        <ele>705</ele>
        <time>2021-08-08T13:01:24Z</time>
      </trkpt>
      <trkpt lat="44.95439" lon="5.5886">
        <ele>705.5</ele>
        <time>2021-08-08T13:01:26Z</time>
      </trkpt>
      <trkpt lat="44.95435" lon="5.58862">
        <ele>705.8</ele>
        <time>2021-08-08T13:01:27Z</time>
      </trkpt>
      <trkpt lat="44.95432" lon="5.58863">
        <ele>706.2</ele>
        <time>2021-08-08T13:01:28Z</time>
      </trkpt>
      <trkpt lat="44.95428" lon="5.58865">
        <ele>706.5</ele>
        <time>2021-08-08T13:01:29Z</time>
      </trkpt>
      <trkpt lat="44.95425" lon="5.58867">
        <ele>706.8</ele>
        <time>2021-08-08T13:01:30Z</time>
      </trkpt>
      <trkpt lat="44.95421" lon="5.5887">
        <ele>707.2</ele>
        <time>2021-08-08T13:01:32Z</time>
      </trkpt>
      <trkpt lat="44.95418" lon="5.58872">
        <ele>707.4</ele>
        <time>2021-08-08T13:01:33Z</time>
      </trkpt>
      <trkpt lat="44.95416" lon="5.58873">
        <ele>707.6</ele>
        <time>2021-08-08T13:01:34Z</time>
      </trkpt>
      <trkpt lat="44.95412" lon="5.58875">
        <ele>707.9</ele>
        <time>2021-08-08T13:01:36Z</time>
      </trkpt>
      <trkpt lat="44.95409" lon="5.58877">
        <ele>708.1</ele>
        <time>2021-08-08T13:01:37Z</time>
      </trkpt>
      <trkpt lat="44.95407" lon="5.5888">
        <ele>708.3</ele>
        <time>2021-08-08T13:01:38Z</time>
      </trkpt>
      <trkpt lat="44.95405" lon="5.58883">
        <ele>708.5</ele>
        <time>2021-08-08T13:01:39Z</time>
      </trkpt>
      <trkpt lat="44.95401" lon="5.58889">
        <ele>708.9</ele>
        <time>2021-08-08T13:01:41Z</time>
      </trkpt>
      <trkpt lat="44.95399" lon="5.58895">
        <ele>709.2</ele>
        <time>2021-08-08T13:01:42Z</time>
      </trkpt>
      <trkpt lat="44.95397" lon="5.58898">
        <ele>709.4</ele>
        <time>2021-08-08T13:01:43Z</time>
      </trkpt>
      <trkpt lat="44.95395" lon="5.58901">
        <ele>709.7</ele>
        <time>2021-08-08T13:01:44Z</time>
      </trkpt>
      <trkpt lat="44.95393" lon="5.58906">
        <ele>710</ele>
        <time>2021-08-08T13:01:46Z</time>
      </trkpt>
      <trkpt lat="44.95392" lon="5.5891">
        <ele>710.3</ele>
        <time>2021-08-08T13:01:47Z</time>
      </trkpt>
      <trkpt lat="44.9539" lon="5.58915">
        <ele>710.5</ele>
        <time>2021-08-08T13:01:48Z</time>
      </trkpt>
      <trkpt lat="44.95388" lon="5.5892">
        <ele>710.9</ele>
        <time>2021-08-08T13:01:49Z</time>
      </trkpt>
      <trkpt lat="44.95386" lon="5.58924">
        <ele>711.2</ele>
        <time>2021-08-08T13:01:51Z</time>
      </trkpt>
      <trkpt lat="44.95385" lon="5.58929">
        <ele>711.5</ele>
        <time>2021-08-08T13:01:52Z</time>
      </trkpt>
      <trkpt lat="44.95384" lon="5.58935">
        <ele>711.8</ele>
        <time>2021-08-08T13:01:54Z</time>
      </trkpt>
      <trkpt lat="44.95383" lon="5.58939">
        <ele>712.1</ele>
        <time>2021-08-08T13:01:55Z</time>
      </trkpt>
      <trkpt lat="44.95382" lon="5.58942">
        <ele>712.2</ele>
        <time>2021-08-08T13:01:56Z</time>
      </trkpt>
      <trkpt lat="44.9538" lon="5.58946">
        <ele>712.5</ele>
        <time>2021-08-08T13:01:57Z</time>
      </trkpt>
      <trkpt lat="44.95378" lon="5.58949">
        <ele>712.7</ele>
        <time>2021-08-08T13:01:58Z</time>
      </trkpt>
      <trkpt lat="44.95377" lon="5.58955">
        <ele>713</ele>
        <time>2021-08-08T13:02:00Z</time>
      </trkpt>
      <trkpt lat="44.95376" lon="5.58957">
        <ele>713.2</ele>
        <time>2021-08-08T13:02:01Z</time>
      </trkpt>
      <trkpt lat="44.95375" lon="5.58961">
        <ele>713.4</ele>
        <time>2021-08-08T13:02:02Z</time>
      </trkpt>
      <trkpt lat="44.95374" lon="5.58964">
        <ele>713.6</ele>
        <time>2021-08-08T13:02:03Z</time>
      </trkpt>
      <trkpt lat="44.95372" lon="5.58968">
        <ele>713.9</ele>
        <time>2021-08-08T13:02:05Z</time>
      </trkpt>
      <trkpt lat="44.95371" lon="5.58974">
        <ele>714.2</ele>
        <time>2021-08-08T13:02:06Z</time>
      </trkpt>
      <trkpt lat="44.95371" lon="5.58976">
        <ele>714.3</ele>
        <time>2021-08-08T13:02:07Z</time>
      </trkpt>
      <trkpt lat="44.9537" lon="5.58979">
        <ele>714.5</ele>
        <time>2021-08-08T13:02:08Z</time>
      </trkpt>
      <trkpt lat="44.95368" lon="5.58984">
        <ele>714.8</ele>
        <time>2021-08-08T13:02:10Z</time>
      </trkpt>
      <trkpt lat="44.95367" lon="5.58988">
        <ele>715.1</ele>
        <time>2021-08-08T13:02:11Z</time>
      </trkpt>
      <trkpt lat="44.95366" lon="5.58994">
        <ele>715.4</ele>
        <time>2021-08-08T13:02:12Z</time>
      </trkpt>
      <trkpt lat="44.95364" lon="5.59">
        <ele>715.7</ele>
        <time>2021-08-08T13:02:14Z</time>
      </trkpt>
      <trkpt lat="44.95363" lon="5.59004">
        <ele>716</ele>
        <time>2021-08-08T13:02:15Z</time>
      </trkpt>
      <trkpt lat="44.95361" lon="5.59011">
        <ele>716.5</ele>
        <time>2021-08-08T13:02:17Z</time>
      </trkpt>
      <trkpt lat="44.9536" lon="5.59015">
        <ele>716.7</ele>
        <time>2021-08-08T13:02:18Z</time>
      </trkpt>
      <trkpt lat="44.95359" lon="5.59019">
        <ele>716.9</ele>
        <time>2021-08-08T13:02:19Z</time>
      </trkpt>
      <trkpt lat="44.95357" lon="5.59024">
        <ele>717.2</ele>
        <time>2021-08-08T13:02:21Z</time>
      </trkpt>
      <trkpt lat="44.95355" lon="5.5903">
        <ele>717.6</ele>
        <time>2021-08-08T13:02:22Z</time>
      </trkpt>
      <trkpt lat="44.95355" lon="5.59032">
        <ele>717.7</ele>
        <time>2021-08-08T13:02:23Z</time>
      </trkpt>
      <trkpt lat="44.95354" lon="5.59038">
        <ele>718</ele>
        <time>2021-08-08T13:02:25Z</time>
      </trkpt>
      <trkpt lat="44.95353" lon="5.59042">
        <ele>718.3</ele>
        <time>2021-08-08T13:02:26Z</time>
      </trkpt>
      <trkpt lat="44.95351" lon="5.59047">
        <ele>718.6</ele>
        <time>2021-08-08T13:02:27Z</time>
      </trkpt>
      <trkpt lat="44.95349" lon="5.59052">
        <ele>718.9</ele>
        <time>2021-08-08T13:02:28Z</time>
      </trkpt>
      <trkpt lat="44.95346" lon="5.59058">
        <ele>719.3</ele>
        <time>2021-08-08T13:02:30Z</time>
      </trkpt>
      <trkpt lat="44.95343" lon="5.59062">
        <ele>719.7</ele>
        <time>2021-08-08T13:02:31Z</time>
      </trkpt>
      <trkpt lat="44.95341" lon="5.59065">
        <ele>719.9</ele>
        <time>2021-08-08T13:02:32Z</time>
      </trkpt>
      <trkpt lat="44.95337" lon="5.59069">
        <ele>720.2</ele>
        <time>2021-08-08T13:02:34Z</time>
      </trkpt>
      <trkpt lat="44.95334" lon="5.59073">
        <ele>720.6</ele>
        <time>2021-08-08T13:02:35Z</time>
      </trkpt>
      <trkpt lat="44.95332" lon="5.59076">
        <ele>720.8</ele>
        <time>2021-08-08T13:02:36Z</time>
      </trkpt>
      <trkpt lat="44.95327" lon="5.59082">
        <ele>721.3</ele>
        <time>2021-08-08T13:02:38Z</time>
      </trkpt>
      <trkpt lat="44.95323" lon="5.59087">
        <ele>721.8</ele>
        <time>2021-08-08T13:02:40Z</time>
      </trkpt>
      <trkpt lat="44.9532" lon="5.59089">
        <ele>722</ele>
        <time>2021-08-08T13:02:41Z</time>
      </trkpt>
      <trkpt lat="44.95317" lon="5.59091">
        <ele>722.3</ele>
        <time>2021-08-08T13:02:42Z</time>
      </trkpt>
      <trkpt lat="44.95312" lon="5.59096">
        <ele>722.7</ele>
        <time>2021-08-08T13:02:44Z</time>
      </trkpt>
      <trkpt lat="44.95308" lon="5.591">
        <ele>723.1</ele>
        <time>2021-08-08T13:02:47Z</time>
      </trkpt>
      <trkpt lat="44.95304" lon="5.59105">
        <ele>723.6</ele>
        <time>2021-08-08T13:02:48Z</time>
      </trkpt>
      <trkpt lat="44.95299" lon="5.59111">
        <ele>724</ele>
        <time>2021-08-08T13:02:50Z</time>
      </trkpt>
      <trkpt lat="44.95296" lon="5.59116">
        <ele>724.4</ele>
        <time>2021-08-08T13:02:52Z</time>
      </trkpt>
      <trkpt lat="44.95293" lon="5.59119">
        <ele>724.6</ele>
        <time>2021-08-08T13:02:54Z</time>
      </trkpt>
      <trkpt lat="44.9529" lon="5.59123">
        <ele>724.9</ele>
        <time>2021-08-08T13:02:55Z</time>
      </trkpt>
      <trkpt lat="44.95287" lon="5.59127">
        <ele>725.2</ele>
        <time>2021-08-08T13:02:57Z</time>
      </trkpt>
      <trkpt lat="44.95285" lon="5.5913">
        <ele>725.5</ele>
        <time>2021-08-08T13:02:58Z</time>
      </trkpt>
      <trkpt lat="44.95283" lon="5.59134">
        <ele>725.8</ele>
        <time>2021-08-08T13:02:59Z</time>
      </trkpt>
      <trkpt lat="44.95282" lon="5.59135">
        <ele>725.9</ele>
        <time>2021-08-08T13:03:00Z</time>
      </trkpt>
      <trkpt lat="44.9528" lon="5.59137">
        <ele>726.1</ele>
        <time>2021-08-08T13:03:01Z</time>
      </trkpt>
      <trkpt lat="44.95278" lon="5.59142">
        <ele>726.4</ele>
        <time>2021-08-08T13:03:03Z</time>
      </trkpt>
      <trkpt lat="44.95276" lon="5.59146">
        <ele>726.6</ele>
        <time>2021-08-08T13:03:04Z</time>
      </trkpt>
      <trkpt lat="44.95274" lon="5.5915">
        <ele>726.9</ele>
        <time>2021-08-08T13:03:05Z</time>
      </trkpt>
      <trkpt lat="44.95273" lon="5.59155">
        <ele>727.2</ele>
        <time>2021-08-08T13:03:06Z</time>
      </trkpt>
      <trkpt lat="44.95272" lon="5.5916">
        <ele>727.5</ele>
        <time>2021-08-08T13:03:07Z</time>
      </trkpt>
      <trkpt lat="44.95272" lon="5.59165">
        <ele>727.8</ele>
        <time>2021-08-08T13:03:08Z</time>
      </trkpt>
      <trkpt lat="44.95272" lon="5.59171">
        <ele>728.1</ele>
        <time>2021-08-08T13:03:10Z</time>
      </trkpt>
      <trkpt lat="44.95271" lon="5.59178">
        <ele>728.5</ele>
        <time>2021-08-08T13:03:11Z</time>
      </trkpt>
      <trkpt lat="44.9527" lon="5.59184">
        <ele>728.8</ele>
        <time>2021-08-08T13:03:12Z</time>
      </trkpt>
      <trkpt lat="44.95269" lon="5.5919">
        <ele>729.1</ele>
        <time>2021-08-08T13:03:14Z</time>
      </trkpt>
      <trkpt lat="44.9527" lon="5.59195">
        <ele>729.4</ele>
        <time>2021-08-08T13:03:15Z</time>
      </trkpt>
      <trkpt lat="44.95271" lon="5.592">
        <ele>729.6</ele>
        <time>2021-08-08T13:03:16Z</time>
      </trkpt>
      <trkpt lat="44.95273" lon="5.59207">
        <ele>730</ele>
        <time>2021-08-08T13:03:18Z</time>
      </trkpt>
      <trkpt lat="44.95275" lon="5.59212">
        <ele>730.3</ele>
        <time>2021-08-08T13:03:20Z</time>
      </trkpt>
      <trkpt lat="44.95277" lon="5.59219">
        <ele>730.6</ele>
        <time>2021-08-08T13:03:22Z</time>
      </trkpt>
      <trkpt lat="44.95277" lon="5.59221">
        <ele>730.7</ele>
        <time>2021-08-08T13:03:23Z</time>
      </trkpt>
      <trkpt lat="44.95278" lon="5.59224">
        <ele>730.9</ele>
        <time>2021-08-08T13:03:24Z</time>
      </trkpt>
      <trkpt lat="44.9528" lon="5.5923">
        <ele>731.2</ele>
        <time>2021-08-08T13:03:25Z</time>
      </trkpt>
      <trkpt lat="44.95281" lon="5.59234">
        <ele>731.4</ele>
        <time>2021-08-08T13:03:27Z</time>
      </trkpt>
      <trkpt lat="44.95283" lon="5.59239">
        <ele>731.7</ele>
        <time>2021-08-08T13:03:28Z</time>
      </trkpt>
      <trkpt lat="44.95284" lon="5.59243">
        <ele>732</ele>
        <time>2021-08-08T13:03:29Z</time>
      </trkpt>
      <trkpt lat="44.95284" lon="5.59251">
        <ele>732.4</ele>
        <time>2021-08-08T13:03:31Z</time>
      </trkpt>
      <trkpt lat="44.95284" lon="5.59253">
        <ele>732.5</ele>
        <time>2021-08-08T13:03:32Z</time>
      </trkpt>
      <trkpt lat="44.95284" lon="5.59256">
        <ele>732.6</ele>
        <time>2021-08-08T13:03:33Z</time>
      </trkpt>
      <trkpt lat="44.95283" lon="5.59261">
        <ele>732.9</ele>
        <time>2021-08-08T13:03:34Z</time>
      </trkpt>
      <trkpt lat="44.95283" lon="5.59263">
        <ele>733</ele>
        <time>2021-08-08T13:03:35Z</time>
      </trkpt>
      <trkpt lat="44.95284" lon="5.59268">
        <ele>733.3</ele>
        <time>2021-08-08T13:03:37Z</time>
      </trkpt>
      <trkpt lat="44.95283" lon="5.5927">
        <ele>733.4</ele>
        <time>2021-08-08T13:03:38Z</time>
      </trkpt>
      <trkpt lat="44.95283" lon="5.59274">
        <ele>733.6</ele>
        <time>2021-08-08T13:03:39Z</time>
      </trkpt>
      <trkpt lat="44.95283" lon="5.59279">
        <ele>733.9</ele>
        <time>2021-08-08T13:03:40Z</time>
      </trkpt>
      <trkpt lat="44.95283" lon="5.59283">
        <ele>734.1</ele>
        <time>2021-08-08T13:03:41Z</time>
      </trkpt>
      <trkpt lat="44.95283" lon="5.59287">
        <ele>734.3</ele>
        <time>2021-08-08T13:03:43Z</time>
      </trkpt>
      <trkpt lat="44.95282" lon="5.59293">
        <ele>734.6</ele>
        <time>2021-08-08T13:03:44Z</time>
      </trkpt>
      <trkpt lat="44.95282" lon="5.59298">
        <ele>734.8</ele>
        <time>2021-08-08T13:03:45Z</time>
      </trkpt>
      <trkpt lat="44.95282" lon="5.59303">
        <ele>735.1</ele>
        <time>2021-08-08T13:03:47Z</time>
      </trkpt>
      <trkpt lat="44.95281" lon="5.59308">
        <ele>735.3</ele>
        <time>2021-08-08T13:03:48Z</time>
      </trkpt>
      <trkpt lat="44.95281" lon="5.59312">
        <ele>735.5</ele>
        <time>2021-08-08T13:03:49Z</time>
      </trkpt>
      <trkpt lat="44.95281" lon="5.59317">
        <ele>735.8</ele>
        <time>2021-08-08T13:03:50Z</time>
      </trkpt>
      <trkpt lat="44.95281" lon="5.59321">
        <ele>736</ele>
        <time>2021-08-08T13:03:52Z</time>
      </trkpt>
      <trkpt lat="44.9528" lon="5.59327">
        <ele>736.3</ele>
        <time>2021-08-08T13:03:53Z</time>
      </trkpt>
      <trkpt lat="44.95279" lon="5.59332">
        <ele>736.5</ele>
        <time>2021-08-08T13:03:54Z</time>
      </trkpt>
      <trkpt lat="44.95278" lon="5.59341">
        <ele>737</ele>
        <time>2021-08-08T13:03:56Z</time>
      </trkpt>
      <trkpt lat="44.95277" lon="5.59344">
        <ele>737.1</ele>
        <time>2021-08-08T13:03:57Z</time>
      </trkpt>
      <trkpt lat="44.95275" lon="5.59351">
        <ele>737.5</ele>
        <time>2021-08-08T13:03:59Z</time>
      </trkpt>
      <trkpt lat="44.95275" lon="5.5936">
        <ele>737.9</ele>
        <time>2021-08-08T13:04:01Z</time>
      </trkpt>
      <trkpt lat="44.95274" lon="5.59364">
        <ele>738.1</ele>
        <time>2021-08-08T13:04:03Z</time>
      </trkpt>
      <trkpt lat="44.95274" lon="5.5937">
        <ele>738.5</ele>
        <time>2021-08-08T13:04:04Z</time>
      </trkpt>
      <trkpt lat="44.95274" lon="5.59375">
        <ele>738.7</ele>
        <time>2021-08-08T13:04:05Z</time>
      </trkpt>
      <trkpt lat="44.95274" lon="5.5938">
        <ele>739</ele>
        <time>2021-08-08T13:04:07Z</time>
      </trkpt>
      <trkpt lat="44.95273" lon="5.59385">
        <ele>739.2</ele>
        <time>2021-08-08T13:04:08Z</time>
      </trkpt>
      <trkpt lat="44.95273" lon="5.5939">
        <ele>739.5</ele>
        <time>2021-08-08T13:04:09Z</time>
      </trkpt>
      <trkpt lat="44.95272" lon="5.59396">
        <ele>739.8</ele>
        <time>2021-08-08T13:04:10Z</time>
      </trkpt>
      <trkpt lat="44.95272" lon="5.59401">
        <ele>740.1</ele>
        <time>2021-08-08T13:04:12Z</time>
      </trkpt>
      <trkpt lat="44.95271" lon="5.59406">
        <ele>740.3</ele>
        <time>2021-08-08T13:04:13Z</time>
      </trkpt>
      <trkpt lat="44.95271" lon="5.59411">
        <ele>740.6</ele>
        <time>2021-08-08T13:04:14Z</time>
      </trkpt>
      <trkpt lat="44.9527" lon="5.59418">
        <ele>740.9</ele>
        <time>2021-08-08T13:04:16Z</time>
      </trkpt>
      <trkpt lat="44.95269" lon="5.59423">
        <ele>741.1</ele>
        <time>2021-08-08T13:04:17Z</time>
      </trkpt>
      <trkpt lat="44.95268" lon="5.59428">
        <ele>741.4</ele>
        <time>2021-08-08T13:04:18Z</time>
      </trkpt>
      <trkpt lat="44.95268" lon="5.59433">
        <ele>741.6</ele>
        <time>2021-08-08T13:04:19Z</time>
      </trkpt>
      <trkpt lat="44.95268" lon="5.59437">
        <ele>741.8</ele>
        <time>2021-08-08T13:04:21Z</time>
      </trkpt>
      <trkpt lat="44.95268" lon="5.59442">
        <ele>742.1</ele>
        <time>2021-08-08T13:04:22Z</time>
      </trkpt>
      <trkpt lat="44.95268" lon="5.59446">
        <ele>742.3</ele>
        <time>2021-08-08T13:04:23Z</time>
      </trkpt>
      <trkpt lat="44.95268" lon="5.59452">
        <ele>742.6</ele>
        <time>2021-08-08T13:04:24Z</time>
      </trkpt>
      <trkpt lat="44.95268" lon="5.59454">
        <ele>742.7</ele>
        <time>2021-08-08T13:04:25Z</time>
      </trkpt>
      <trkpt lat="44.95268" lon="5.59458">
        <ele>742.9</ele>
        <time>2021-08-08T13:04:26Z</time>
      </trkpt>
      <trkpt lat="44.95267" lon="5.59463">
        <ele>743.2</ele>
        <time>2021-08-08T13:04:28Z</time>
      </trkpt>
      <trkpt lat="44.95267" lon="5.59467">
        <ele>743.4</ele>
        <time>2021-08-08T13:04:29Z</time>
      </trkpt>
      <trkpt lat="44.95267" lon="5.59472">
        <ele>743.7</ele>
        <time>2021-08-08T13:04:30Z</time>
      </trkpt>
      <trkpt lat="44.95266" lon="5.59478">
        <ele>744</ele>
        <time>2021-08-08T13:04:31Z</time>
      </trkpt>
      <trkpt lat="44.95266" lon="5.5948">
        <ele>744.1</ele>
        <time>2021-08-08T13:04:32Z</time>
      </trkpt>
      <trkpt lat="44.95266" lon="5.59487">
        <ele>744.5</ele>
        <time>2021-08-08T13:04:34Z</time>
      </trkpt>
      <trkpt lat="44.95265" lon="5.59491">
        <ele>744.8</ele>
        <time>2021-08-08T13:04:35Z</time>
      </trkpt>
      <trkpt lat="44.95266" lon="5.59497">
        <ele>745.2</ele>
        <time>2021-08-08T13:04:37Z</time>
      </trkpt>
      <trkpt lat="44.95266" lon="5.595">
        <ele>745.3</ele>
        <time>2021-08-08T13:04:38Z</time>
      </trkpt>
      <trkpt lat="44.95265" lon="5.59505">
        <ele>745.6</ele>
        <time>2021-08-08T13:04:39Z</time>
      </trkpt>
      <trkpt lat="44.95265" lon="5.59508">
        <ele>745.8</ele>
        <time>2021-08-08T13:04:40Z</time>
      </trkpt>
      <trkpt lat="44.95265" lon="5.59513">
        <ele>746.1</ele>
        <time>2021-08-08T13:04:41Z</time>
      </trkpt>
      <trkpt lat="44.95265" lon="5.59515">
        <ele>746.2</ele>
        <time>2021-08-08T13:04:42Z</time>
      </trkpt>
      <trkpt lat="44.95265" lon="5.59518">
        <ele>746.4</ele>
        <time>2021-08-08T13:04:43Z</time>
      </trkpt>
      <trkpt lat="44.95264" lon="5.59525">
        <ele>746.8</ele>
        <time>2021-08-08T13:04:45Z</time>
      </trkpt>
      <trkpt lat="44.95264" lon="5.59528">
        <ele>747</ele>
        <time>2021-08-08T13:04:46Z</time>
      </trkpt>
      <trkpt lat="44.95262" lon="5.59535">
        <ele>747.4</ele>
        <time>2021-08-08T13:04:48Z</time>
      </trkpt>
      <trkpt lat="44.95261" lon="5.59544">
        <ele>748</ele>
        <time>2021-08-08T13:04:50Z</time>
      </trkpt>
      <trkpt lat="44.9526" lon="5.5955">
        <ele>748.3</ele>
        <time>2021-08-08T13:04:52Z</time>
      </trkpt>
      <trkpt lat="44.9526" lon="5.59554">
        <ele>748.6</ele>
        <time>2021-08-08T13:04:53Z</time>
      </trkpt>
      <trkpt lat="44.95259" lon="5.59559">
        <ele>748.8</ele>
        <time>2021-08-08T13:04:54Z</time>
      </trkpt>
      <trkpt lat="44.95258" lon="5.59563">
        <ele>749</ele>
        <time>2021-08-08T13:04:55Z</time>
      </trkpt>
      <trkpt lat="44.95258" lon="5.59567">
        <ele>749.2</ele>
        <time>2021-08-08T13:04:56Z</time>
      </trkpt>
      <trkpt lat="44.95256" lon="5.59572">
        <ele>749.4</ele>
        <time>2021-08-08T13:04:58Z</time>
      </trkpt>
      <trkpt lat="44.95256" lon="5.59578">
        <ele>749.7</ele>
        <time>2021-08-08T13:04:59Z</time>
      </trkpt>
      <trkpt lat="44.95255" lon="5.59584">
        <ele>750</ele>
        <time>2021-08-08T13:05:01Z</time>
      </trkpt>
      <trkpt lat="44.95253" lon="5.59589">
        <ele>750.2</ele>
        <time>2021-08-08T13:05:02Z</time>
      </trkpt>
      <trkpt lat="44.95251" lon="5.59595">
        <ele>750.5</ele>
        <time>2021-08-08T13:05:03Z</time>
      </trkpt>
      <trkpt lat="44.95249" lon="5.59602">
        <ele>750.8</ele>
        <time>2021-08-08T13:05:05Z</time>
      </trkpt>
      <trkpt lat="44.95247" lon="5.59606">
        <ele>751</ele>
        <time>2021-08-08T13:05:06Z</time>
      </trkpt>
      <trkpt lat="44.95246" lon="5.59609">
        <ele>751.2</ele>
        <time>2021-08-08T13:05:07Z</time>
      </trkpt>
      <trkpt lat="44.95244" lon="5.59613">
        <ele>751.3</ele>
        <time>2021-08-08T13:05:09Z</time>
      </trkpt>
      <trkpt lat="44.95242" lon="5.59619">
        <ele>751.6</ele>
        <time>2021-08-08T13:05:10Z</time>
      </trkpt>
      <trkpt lat="44.9524" lon="5.59624">
        <ele>751.8</ele>
        <time>2021-08-08T13:05:11Z</time>
      </trkpt>
      <trkpt lat="44.95236" lon="5.59629">
        <ele>752</ele>
        <time>2021-08-08T13:05:13Z</time>
      </trkpt>
      <trkpt lat="44.95234" lon="5.59635">
        <ele>752.3</ele>
        <time>2021-08-08T13:05:14Z</time>
      </trkpt>
      <trkpt lat="44.95231" lon="5.59639">
        <ele>752.4</ele>
        <time>2021-08-08T13:05:16Z</time>
      </trkpt>
      <trkpt lat="44.95229" lon="5.59642">
        <ele>752.6</ele>
        <time>2021-08-08T13:05:17Z</time>
      </trkpt>
      <trkpt lat="44.95226" lon="5.59647">
        <ele>752.8</ele>
        <time>2021-08-08T13:05:18Z</time>
      </trkpt>
      <trkpt lat="44.95224" lon="5.59651">
        <ele>753</ele>
        <time>2021-08-08T13:05:19Z</time>
      </trkpt>
      <trkpt lat="44.9522" lon="5.59656">
        <ele>753.2</ele>
        <time>2021-08-08T13:05:21Z</time>
      </trkpt>
      <trkpt lat="44.95216" lon="5.59662">
        <ele>753.5</ele>
        <time>2021-08-08T13:05:22Z</time>
      </trkpt>
      <trkpt lat="44.95213" lon="5.59666">
        <ele>753.7</ele>
        <time>2021-08-08T13:05:23Z</time>
      </trkpt>
      <trkpt lat="44.9521" lon="5.59671">
        <ele>753.9</ele>
        <time>2021-08-08T13:05:24Z</time>
      </trkpt>
      <trkpt lat="44.95207" lon="5.59674">
        <ele>754.1</ele>
        <time>2021-08-08T13:05:26Z</time>
      </trkpt>
      <trkpt lat="44.95205" lon="5.59677">
        <ele>754.3</ele>
        <time>2021-08-08T13:05:27Z</time>
      </trkpt>
      <trkpt lat="44.95202" lon="5.59681">
        <ele>754.5</ele>
        <time>2021-08-08T13:05:28Z</time>
      </trkpt>
      <trkpt lat="44.95199" lon="5.59685">
        <ele>754.7</ele>
        <time>2021-08-08T13:05:30Z</time>
      </trkpt>
      <trkpt lat="44.95197" lon="5.5969">
        <ele>754.9</ele>
        <time>2021-08-08T13:05:31Z</time>
      </trkpt>
      <trkpt lat="44.95194" lon="5.59695">
        <ele>755.2</ele>
        <time>2021-08-08T13:05:32Z</time>
      </trkpt>
      <trkpt lat="44.95191" lon="5.597">
        <ele>755.3</ele>
        <time>2021-08-08T13:05:33Z</time>
      </trkpt>
      <trkpt lat="44.95189" lon="5.59703">
        <ele>755.5</ele>
        <time>2021-08-08T13:05:34Z</time>
      </trkpt>
      <trkpt lat="44.95187" lon="5.59707">
        <ele>755.7</ele>
        <time>2021-08-08T13:05:35Z</time>
      </trkpt>
      <trkpt lat="44.95183" lon="5.59714">
        <ele>755.9</ele>
        <time>2021-08-08T13:05:37Z</time>
      </trkpt>
      <trkpt lat="44.9518" lon="5.59719">
        <ele>756.1</ele>
        <time>2021-08-08T13:05:38Z</time>
      </trkpt>
      <trkpt lat="44.95176" lon="5.59725">
        <ele>756.4</ele>
        <time>2021-08-08T13:05:40Z</time>
      </trkpt>
      <trkpt lat="44.95173" lon="5.59731">
        <ele>756.6</ele>
        <time>2021-08-08T13:05:41Z</time>
      </trkpt>
      <trkpt lat="44.95169" lon="5.59736">
        <ele>756.9</ele>
        <time>2021-08-08T13:05:43Z</time>
      </trkpt>
      <trkpt lat="44.95166" lon="5.5974">
        <ele>757.1</ele>
        <time>2021-08-08T13:05:44Z</time>
      </trkpt>
      <trkpt lat="44.95162" lon="5.59745">
        <ele>757.3</ele>
        <time>2021-08-08T13:05:46Z</time>
      </trkpt>
      <trkpt lat="44.95159" lon="5.59749">
        <ele>757.5</ele>
        <time>2021-08-08T13:05:47Z</time>
      </trkpt>
      <trkpt lat="44.95156" lon="5.59753">
        <ele>757.8</ele>
        <time>2021-08-08T13:05:48Z</time>
      </trkpt>
      <trkpt lat="44.95153" lon="5.59758">
        <ele>758</ele>
        <time>2021-08-08T13:05:49Z</time>
      </trkpt>
      <trkpt lat="44.9515" lon="5.59765">
        <ele>758.4</ele>
        <time>2021-08-08T13:05:51Z</time>
      </trkpt>
      <trkpt lat="44.95148" lon="5.59769">
        <ele>758.6</ele>
        <time>2021-08-08T13:05:52Z</time>
      </trkpt>
      <trkpt lat="44.95146" lon="5.59772">
        <ele>758.8</ele>
        <time>2021-08-08T13:05:53Z</time>
      </trkpt>
      <trkpt lat="44.95144" lon="5.59778">
        <ele>759.2</ele>
        <time>2021-08-08T13:05:55Z</time>
      </trkpt>
      <trkpt lat="44.95143" lon="5.59782">
        <ele>759.4</ele>
        <time>2021-08-08T13:05:56Z</time>
      </trkpt>
      <trkpt lat="44.95142" lon="5.59788">
        <ele>759.7</ele>
        <time>2021-08-08T13:05:58Z</time>
      </trkpt>
      <trkpt lat="44.95141" lon="5.59792">
        <ele>760</ele>
        <time>2021-08-08T13:05:59Z</time>
      </trkpt>
      <trkpt lat="44.95139" lon="5.59799">
        <ele>760.3</ele>
        <time>2021-08-08T13:06:01Z</time>
      </trkpt>
      <trkpt lat="44.95137" lon="5.59805">
        <ele>760.7</ele>
        <time>2021-08-08T13:06:03Z</time>
      </trkpt>
      <trkpt lat="44.95136" lon="5.5981">
        <ele>761</ele>
        <time>2021-08-08T13:06:04Z</time>
      </trkpt>
      <trkpt lat="44.95135" lon="5.59815">
        <ele>761.3</ele>
        <time>2021-08-08T13:06:05Z</time>
      </trkpt>
      <trkpt lat="44.95135" lon="5.59819">
        <ele>761.5</ele>
        <time>2021-08-08T13:06:07Z</time>
      </trkpt>
      <trkpt lat="44.95134" lon="5.59825">
        <ele>761.9</ele>
        <time>2021-08-08T13:06:08Z</time>
      </trkpt>
      <trkpt lat="44.95133" lon="5.5983">
        <ele>762.2</ele>
        <time>2021-08-08T13:06:09Z</time>
      </trkpt>
      <trkpt lat="44.95132" lon="5.59834">
        <ele>762.4</ele>
        <time>2021-08-08T13:06:11Z</time>
      </trkpt>
      <trkpt lat="44.95131" lon="5.59838">
        <ele>762.7</ele>
        <time>2021-08-08T13:06:12Z</time>
      </trkpt>
      <trkpt lat="44.95129" lon="5.59842">
        <ele>762.9</ele>
        <time>2021-08-08T13:06:14Z</time>
      </trkpt>
      <trkpt lat="44.95128" lon="5.59845">
        <ele>763.1</ele>
        <time>2021-08-08T13:06:15Z</time>
      </trkpt>
      <trkpt lat="44.95127" lon="5.5985">
        <ele>763.4</ele>
        <time>2021-08-08T13:06:16Z</time>
      </trkpt>
      <trkpt lat="44.95126" lon="5.59851">
        <ele>763.5</ele>
        <time>2021-08-08T13:06:17Z</time>
      </trkpt>
      <trkpt lat="44.95126" lon="5.59855">
        <ele>763.6</ele>
        <time>2021-08-08T13:06:18Z</time>
      </trkpt>
      <trkpt lat="44.95125" lon="5.59859">
        <ele>763.9</ele>
        <time>2021-08-08T13:06:20Z</time>
      </trkpt>
      <trkpt lat="44.95125" lon="5.59864">
        <ele>764.1</ele>
        <time>2021-08-08T13:06:21Z</time>
      </trkpt>
      <trkpt lat="44.95124" lon="5.59868">
        <ele>764.3</ele>
        <time>2021-08-08T13:06:22Z</time>
      </trkpt>
      <trkpt lat="44.95122" lon="5.59874">
        <ele>764.6</ele>
        <time>2021-08-08T13:06:24Z</time>
      </trkpt>
      <trkpt lat="44.95121" lon="5.59879">
        <ele>764.9</ele>
        <time>2021-08-08T13:06:25Z</time>
      </trkpt>
      <trkpt lat="44.95118" lon="5.59885">
        <ele>765.2</ele>
        <time>2021-08-08T13:06:27Z</time>
      </trkpt>
      <trkpt lat="44.95116" lon="5.59889">
        <ele>765.4</ele>
        <time>2021-08-08T13:06:28Z</time>
      </trkpt>
      <trkpt lat="44.95114" lon="5.59892">
        <ele>765.6</ele>
        <time>2021-08-08T13:06:29Z</time>
      </trkpt>
      <trkpt lat="44.95113" lon="5.59896">
        <ele>765.8</ele>
        <time>2021-08-08T13:06:30Z</time>
      </trkpt>
      <trkpt lat="44.9511" lon="5.599">
        <ele>766</ele>
        <time>2021-08-08T13:06:32Z</time>
      </trkpt>
      <trkpt lat="44.95109" lon="5.59904">
        <ele>766.3</ele>
        <time>2021-08-08T13:06:33Z</time>
      </trkpt>
      <trkpt lat="44.95108" lon="5.59909">
        <ele>766.5</ele>
        <time>2021-08-08T13:06:34Z</time>
      </trkpt>
      <trkpt lat="44.95107" lon="5.59912">
        <ele>766.7</ele>
        <time>2021-08-08T13:06:35Z</time>
      </trkpt>
      <trkpt lat="44.95106" lon="5.59916">
        <ele>767</ele>
        <time>2021-08-08T13:06:37Z</time>
      </trkpt>
      <trkpt lat="44.95106" lon="5.5992">
        <ele>767.2</ele>
        <time>2021-08-08T13:06:38Z</time>
      </trkpt>
      <trkpt lat="44.95105" lon="5.59927">
        <ele>767.7</ele>
        <time>2021-08-08T13:06:40Z</time>
      </trkpt>
      <trkpt lat="44.95105" lon="5.59928">
        <ele>767.9</ele>
        <time>2021-08-08T13:06:41Z</time>
      </trkpt>
      <trkpt lat="44.95105" lon="5.5993">
        <ele>768</ele>
        <time>2021-08-08T13:06:42Z</time>
      </trkpt>
      <trkpt lat="44.95105" lon="5.59934">
        <ele>768.3</ele>
        <time>2021-08-08T13:06:43Z</time>
      </trkpt>
      <trkpt lat="44.95104" lon="5.59938">
        <ele>768.6</ele>
        <time>2021-08-08T13:06:45Z</time>
      </trkpt>
      <trkpt lat="44.95104" lon="5.59942">
        <ele>768.9</ele>
        <time>2021-08-08T13:06:46Z</time>
      </trkpt>
      <trkpt lat="44.95103" lon="5.59947">
        <ele>769.3</ele>
        <time>2021-08-08T13:06:47Z</time>
      </trkpt>
      <trkpt lat="44.95103" lon="5.59948">
        <ele>769.5</ele>
        <time>2021-08-08T13:06:48Z</time>
      </trkpt>
      <trkpt lat="44.95102" lon="5.59953">
        <ele>769.9</ele>
        <time>2021-08-08T13:06:50Z</time>
      </trkpt>
      <trkpt lat="44.95101" lon="5.59956">
        <ele>770.2</ele>
        <time>2021-08-08T13:06:51Z</time>
      </trkpt>
      <trkpt lat="44.95101" lon="5.5996">
        <ele>770.5</ele>
        <time>2021-08-08T13:06:52Z</time>
      </trkpt>
      <trkpt lat="44.951" lon="5.59966">
        <ele>771</ele>
        <time>2021-08-08T13:06:54Z</time>
      </trkpt>
      <trkpt lat="44.95099" lon="5.59972">
        <ele>771.5</ele>
        <time>2021-08-08T13:06:56Z</time>
      </trkpt>
      <trkpt lat="44.95099" lon="5.59975">
        <ele>771.7</ele>
        <time>2021-08-08T13:06:57Z</time>
      </trkpt>
      <trkpt lat="44.95098" lon="5.5998">
        <ele>772.1</ele>
        <time>2021-08-08T13:06:58Z</time>
      </trkpt>
      <trkpt lat="44.95098" lon="5.59981">
        <ele>772.2</ele>
        <time>2021-08-08T13:06:59Z</time>
      </trkpt>
      <trkpt lat="44.95098" lon="5.59986">
        <ele>772.6</ele>
        <time>2021-08-08T13:07:01Z</time>
      </trkpt>
      <trkpt lat="44.95097" lon="5.59988">
        <ele>772.7</ele>
        <time>2021-08-08T13:07:02Z</time>
      </trkpt>
      <trkpt lat="44.95097" lon="5.59992">
        <ele>773</ele>
        <time>2021-08-08T13:07:03Z</time>
      </trkpt>
      <trkpt lat="44.95096" lon="5.59994">
        <ele>773.1</ele>
        <time>2021-08-08T13:07:04Z</time>
      </trkpt>
      <trkpt lat="44.95095" lon="5.59998">
        <ele>773.5</ele>
        <time>2021-08-08T13:07:06Z</time>
      </trkpt>
      <trkpt lat="44.95094" lon="5.59999">
        <ele>773.6</ele>
        <time>2021-08-08T13:07:07Z</time>
      </trkpt>
      <trkpt lat="44.95092" lon="5.60004">
        <ele>773.9</ele>
        <time>2021-08-08T13:07:08Z</time>
      </trkpt>
      <trkpt lat="44.95091" lon="5.60006">
        <ele>774.1</ele>
        <time>2021-08-08T13:07:09Z</time>
      </trkpt>
      <trkpt lat="44.9509" lon="5.6001">
        <ele>774.4</ele>
        <time>2021-08-08T13:07:10Z</time>
      </trkpt>
      <trkpt lat="44.95089" lon="5.60011">
        <ele>774.5</ele>
        <time>2021-08-08T13:07:11Z</time>
      </trkpt>
      <trkpt lat="44.95087" lon="5.60016">
        <ele>774.9</ele>
        <time>2021-08-08T13:07:13Z</time>
      </trkpt>
      <trkpt lat="44.95086" lon="5.6002">
        <ele>775.1</ele>
        <time>2021-08-08T13:07:14Z</time>
      </trkpt>
      <trkpt lat="44.95084" lon="5.60024">
        <ele>775.4</ele>
        <time>2021-08-08T13:07:16Z</time>
      </trkpt>
      <trkpt lat="44.95083" lon="5.60028">
        <ele>775.7</ele>
        <time>2021-08-08T13:07:17Z</time>
      </trkpt>
      <trkpt lat="44.95082" lon="5.60033">
        <ele>775.9</ele>
        <time>2021-08-08T13:07:18Z</time>
      </trkpt>
      <trkpt lat="44.95081" lon="5.60038">
        <ele>776.3</ele>
        <time>2021-08-08T13:07:20Z</time>
      </trkpt>
      <trkpt lat="44.9508" lon="5.60041">
        <ele>776.4</ele>
        <time>2021-08-08T13:07:21Z</time>
      </trkpt>
      <trkpt lat="44.9508" lon="5.60045">
        <ele>776.6</ele>
        <time>2021-08-08T13:07:22Z</time>
      </trkpt>
      <trkpt lat="44.95079" lon="5.6005">
        <ele>777</ele>
        <time>2021-08-08T13:07:24Z</time>
      </trkpt>
      <trkpt lat="44.95079" lon="5.60056">
        <ele>777.3</ele>
        <time>2021-08-08T13:07:25Z</time>
      </trkpt>
      <trkpt lat="44.95079" lon="5.60061">
        <ele>777.6</ele>
        <time>2021-08-08T13:07:26Z</time>
      </trkpt>
      <trkpt lat="44.95079" lon="5.60066">
        <ele>777.8</ele>
        <time>2021-08-08T13:07:27Z</time>
      </trkpt>
      <trkpt lat="44.95078" lon="5.6007">
        <ele>778</ele>
        <time>2021-08-08T13:07:29Z</time>
      </trkpt>
      <trkpt lat="44.95079" lon="5.60075">
        <ele>778.3</ele>
        <time>2021-08-08T13:07:30Z</time>
      </trkpt>
      <trkpt lat="44.95079" lon="5.60079">
        <ele>778.6</ele>
        <time>2021-08-08T13:07:31Z</time>
      </trkpt>
      <trkpt lat="44.9508" lon="5.60084">
        <ele>778.8</ele>
        <time>2021-08-08T13:07:33Z</time>
      </trkpt>
      <trkpt lat="44.95082" lon="5.60089">
        <ele>779.1</ele>
        <time>2021-08-08T13:07:34Z</time>
      </trkpt>
      <trkpt lat="44.95083" lon="5.60093">
        <ele>779.4</ele>
        <time>2021-08-08T13:07:35Z</time>
      </trkpt>
      <trkpt lat="44.95085" lon="5.60097">
        <ele>779.6</ele>
        <time>2021-08-08T13:07:36Z</time>
      </trkpt>
      <trkpt lat="44.95087" lon="5.60103">
        <ele>780</ele>
        <time>2021-08-08T13:07:38Z</time>
      </trkpt>
      <trkpt lat="44.95088" lon="5.60106">
        <ele>780.2</ele>
        <time>2021-08-08T13:07:39Z</time>
      </trkpt>
      <trkpt lat="44.95091" lon="5.6011">
        <ele>780.5</ele>
        <time>2021-08-08T13:07:40Z</time>
      </trkpt>
      <trkpt lat="44.95091" lon="5.60112">
        <ele>780.6</ele>
        <time>2021-08-08T13:07:41Z</time>
      </trkpt>
      <trkpt lat="44.95093" lon="5.60116">
        <ele>780.9</ele>
        <time>2021-08-08T13:07:43Z</time>
      </trkpt>
      <trkpt lat="44.95094" lon="5.60119">
        <ele>781.1</ele>
        <time>2021-08-08T13:07:44Z</time>
      </trkpt>
      <trkpt lat="44.95096" lon="5.60123">
        <ele>781.4</ele>
        <time>2021-08-08T13:07:45Z</time>
      </trkpt>
      <trkpt lat="44.95098" lon="5.60127">
        <ele>781.7</ele>
        <time>2021-08-08T13:07:46Z</time>
      </trkpt>
      <trkpt lat="44.95101" lon="5.60133">
        <ele>782.1</ele>
        <time>2021-08-08T13:07:48Z</time>
      </trkpt>
      <trkpt lat="44.95103" lon="5.60135">
        <ele>782.3</ele>
        <time>2021-08-08T13:07:49Z</time>
      </trkpt>
      <trkpt lat="44.95104" lon="5.60137">
        <ele>782.5</ele>
        <time>2021-08-08T13:07:50Z</time>
      </trkpt>
      <trkpt lat="44.95106" lon="5.60141">
        <ele>782.8</ele>
        <time>2021-08-08T13:07:52Z</time>
      </trkpt>
      <trkpt lat="44.95108" lon="5.60145">
        <ele>783.1</ele>
        <time>2021-08-08T13:07:53Z</time>
      </trkpt>
      <trkpt lat="44.95111" lon="5.6015">
        <ele>783.5</ele>
        <time>2021-08-08T13:07:55Z</time>
      </trkpt>
      <trkpt lat="44.95114" lon="5.60153">
        <ele>783.8</ele>
        <time>2021-08-08T13:07:56Z</time>
      </trkpt>
      <trkpt lat="44.95117" lon="5.60158">
        <ele>784.1</ele>
        <time>2021-08-08T13:07:57Z</time>
      </trkpt>
      <trkpt lat="44.95119" lon="5.60162">
        <ele>784.4</ele>
        <time>2021-08-08T13:07:59Z</time>
      </trkpt>
      <trkpt lat="44.95122" lon="5.60164">
        <ele>784.6</ele>
        <time>2021-08-08T13:08:00Z</time>
      </trkpt>
      <trkpt lat="44.95124" lon="5.60165">
        <ele>784.8</ele>
        <time>2021-08-08T13:08:01Z</time>
      </trkpt>
      <trkpt lat="44.95127" lon="5.60166">
        <ele>785</ele>
        <time>2021-08-08T13:08:03Z</time>
      </trkpt>
      <trkpt lat="44.95132" lon="5.60165">
        <ele>785.3</ele>
        <time>2021-08-08T13:08:04Z</time>
      </trkpt>
      <trkpt lat="44.95136" lon="5.60165">
        <ele>785.6</ele>
        <time>2021-08-08T13:08:06Z</time>
      </trkpt>
      <trkpt lat="44.95139" lon="5.60164">
        <ele>785.8</ele>
        <time>2021-08-08T13:08:07Z</time>
      </trkpt>
      <trkpt lat="44.95143" lon="5.60163">
        <ele>786</ele>
        <time>2021-08-08T13:08:08Z</time>
      </trkpt>
      <trkpt lat="44.95146" lon="5.60163">
        <ele>786.1</ele>
        <time>2021-08-08T13:08:09Z</time>
      </trkpt>
      <trkpt lat="44.95149" lon="5.60163">
        <ele>786.4</ele>
        <time>2021-08-08T13:08:10Z</time>
      </trkpt>
      <trkpt lat="44.95155" lon="5.60165">
        <ele>786.7</ele>
        <time>2021-08-08T13:08:12Z</time>
      </trkpt>
      <trkpt lat="44.95157" lon="5.60166">
        <ele>786.9</ele>
        <time>2021-08-08T13:08:13Z</time>
      </trkpt>
      <trkpt lat="44.9516" lon="5.60167">
        <ele>787</ele>
        <time>2021-08-08T13:08:14Z</time>
      </trkpt>
      <trkpt lat="44.95162" lon="5.6017">
        <ele>787.2</ele>
        <time>2021-08-08T13:08:15Z</time>
      </trkpt>
      <trkpt lat="44.95165" lon="5.60174">
        <ele>787.5</ele>
        <time>2021-08-08T13:08:17Z</time>
      </trkpt>
      <trkpt lat="44.95166" lon="5.60177">
        <ele>787.9</ele>
        <time>2021-08-08T13:08:18Z</time>
      </trkpt>
      <trkpt lat="44.95167" lon="5.6018">
        <ele>788.1</ele>
        <time>2021-08-08T13:08:19Z</time>
      </trkpt>
      <trkpt lat="44.95168" lon="5.60185">
        <ele>788.4</ele>
        <time>2021-08-08T13:08:20Z</time>
      </trkpt>
      <trkpt lat="44.95168" lon="5.60192">
        <ele>788.8</ele>
        <time>2021-08-08T13:08:22Z</time>
      </trkpt>
      <trkpt lat="44.95167" lon="5.60197">
        <ele>789</ele>
        <time>2021-08-08T13:08:23Z</time>
      </trkpt>
      <trkpt lat="44.95166" lon="5.602">
        <ele>789.3</ele>
        <time>2021-08-08T13:08:24Z</time>
      </trkpt>
      <trkpt lat="44.95163" lon="5.60208">
        <ele>789.7</ele>
        <time>2021-08-08T13:08:26Z</time>
      </trkpt>
      <trkpt lat="44.95162" lon="5.60211">
        <ele>790</ele>
        <time>2021-08-08T13:08:27Z</time>
      </trkpt>
      <trkpt lat="44.95161" lon="5.60215">
        <ele>790.2</ele>
        <time>2021-08-08T13:08:28Z</time>
      </trkpt>
      <trkpt lat="44.95159" lon="5.60219">
        <ele>790.5</ele>
        <time>2021-08-08T13:08:30Z</time>
      </trkpt>
      <trkpt lat="44.95157" lon="5.60224">
        <ele>790.8</ele>
        <time>2021-08-08T13:08:31Z</time>
      </trkpt>
      <trkpt lat="44.95156" lon="5.60228">
        <ele>791.1</ele>
        <time>2021-08-08T13:08:32Z</time>
      </trkpt>
      <trkpt lat="44.95154" lon="5.60232">
        <ele>791.4</ele>
        <time>2021-08-08T13:08:34Z</time>
      </trkpt>
      <trkpt lat="44.95153" lon="5.60236">
        <ele>791.6</ele>
        <time>2021-08-08T13:08:35Z</time>
      </trkpt>
      <trkpt lat="44.95151" lon="5.6024">
        <ele>791.9</ele>
        <time>2021-08-08T13:08:36Z</time>
      </trkpt>
      <trkpt lat="44.95149" lon="5.60244">
        <ele>792.2</ele>
        <time>2021-08-08T13:08:37Z</time>
      </trkpt>
      <trkpt lat="44.95148" lon="5.60248">
        <ele>792.4</ele>
        <time>2021-08-08T13:08:39Z</time>
      </trkpt>
      <trkpt lat="44.95147" lon="5.60252">
        <ele>792.7</ele>
        <time>2021-08-08T13:08:40Z</time>
      </trkpt>
      <trkpt lat="44.95145" lon="5.60258">
        <ele>793</ele>
        <time>2021-08-08T13:08:41Z</time>
      </trkpt>
      <trkpt lat="44.95143" lon="5.60262">
        <ele>793.3</ele>
        <time>2021-08-08T13:08:43Z</time>
      </trkpt>
      <trkpt lat="44.95142" lon="5.60266">
        <ele>793.5</ele>
        <time>2021-08-08T13:08:44Z</time>
      </trkpt>
      <trkpt lat="44.9514" lon="5.6027">
        <ele>793.8</ele>
        <time>2021-08-08T13:08:45Z</time>
      </trkpt>
      <trkpt lat="44.95139" lon="5.60273">
        <ele>794</ele>
        <time>2021-08-08T13:08:46Z</time>
      </trkpt>
      <trkpt lat="44.95137" lon="5.60278">
        <ele>794.3</ele>
        <time>2021-08-08T13:08:48Z</time>
      </trkpt>
      <trkpt lat="44.95136" lon="5.60281">
        <ele>794.5</ele>
        <time>2021-08-08T13:08:49Z</time>
      </trkpt>
      <trkpt lat="44.95134" lon="5.60286">
        <ele>794.7</ele>
        <time>2021-08-08T13:08:50Z</time>
      </trkpt>
      <trkpt lat="44.95133" lon="5.6029">
        <ele>795</ele>
        <time>2021-08-08T13:08:51Z</time>
      </trkpt>
      <trkpt lat="44.95132" lon="5.60297">
        <ele>795.3</ele>
        <time>2021-08-08T13:08:52Z</time>
      </trkpt>
      <trkpt lat="44.95131" lon="5.60301">
        <ele>795.5</ele>
        <time>2021-08-08T13:08:54Z</time>
      </trkpt>
      <trkpt lat="44.9513" lon="5.60306">
        <ele>795.8</ele>
        <time>2021-08-08T13:08:55Z</time>
      </trkpt>
      <trkpt lat="44.95129" lon="5.60311">
        <ele>796.1</ele>
        <time>2021-08-08T13:08:56Z</time>
      </trkpt>
      <trkpt lat="44.95129" lon="5.60315">
        <ele>796.3</ele>
        <time>2021-08-08T13:08:57Z</time>
      </trkpt>
      <trkpt lat="44.95129" lon="5.60319">
        <ele>796.5</ele>
        <time>2021-08-08T13:08:59Z</time>
      </trkpt>
      <trkpt lat="44.9513" lon="5.60323">
        <ele>796.7</ele>
        <time>2021-08-08T13:09:00Z</time>
      </trkpt>
      <trkpt lat="44.95131" lon="5.60327">
        <ele>796.9</ele>
        <time>2021-08-08T13:09:01Z</time>
      </trkpt>
      <trkpt lat="44.95133" lon="5.60331">
        <ele>797.2</ele>
        <time>2021-08-08T13:09:03Z</time>
      </trkpt>
      <trkpt lat="44.95134" lon="5.60335">
        <ele>797.3</ele>
        <time>2021-08-08T13:09:04Z</time>
      </trkpt>
      <trkpt lat="44.95135" lon="5.6034">
        <ele>797.6</ele>
        <time>2021-08-08T13:09:05Z</time>
      </trkpt>
      <trkpt lat="44.95137" lon="5.60345">
        <ele>797.9</ele>
        <time>2021-08-08T13:09:06Z</time>
      </trkpt>
      <trkpt lat="44.95139" lon="5.6035">
        <ele>798.1</ele>
        <time>2021-08-08T13:09:07Z</time>
      </trkpt>
      <trkpt lat="44.95143" lon="5.60357">
        <ele>798.5</ele>
        <time>2021-08-08T13:09:10Z</time>
      </trkpt>
      <trkpt lat="44.95145" lon="5.60364">
        <ele>798.9</ele>
        <time>2021-08-08T13:09:11Z</time>
      </trkpt>
      <trkpt lat="44.95147" lon="5.60369">
        <ele>799.1</ele>
        <time>2021-08-08T13:09:12Z</time>
      </trkpt>
      <trkpt lat="44.95149" lon="5.60376">
        <ele>799.4</ele>
        <time>2021-08-08T13:09:14Z</time>
      </trkpt>
      <trkpt lat="44.95151" lon="5.60382">
        <ele>799.8</ele>
        <time>2021-08-08T13:09:16Z</time>
      </trkpt>
      <trkpt lat="44.95153" lon="5.60387">
        <ele>800</ele>
        <time>2021-08-08T13:09:17Z</time>
      </trkpt>
      <trkpt lat="44.95153" lon="5.60392">
        <ele>800.3</ele>
        <time>2021-08-08T13:09:18Z</time>
      </trkpt>
      <trkpt lat="44.95154" lon="5.60396">
        <ele>800.5</ele>
        <time>2021-08-08T13:09:20Z</time>
      </trkpt>
      <trkpt lat="44.95156" lon="5.60401">
        <ele>800.8</ele>
        <time>2021-08-08T13:09:21Z</time>
      </trkpt>
      <trkpt lat="44.95156" lon="5.60405">
        <ele>801.1</ele>
        <time>2021-08-08T13:09:22Z</time>
      </trkpt>
      <trkpt lat="44.95157" lon="5.6041">
        <ele>801.4</ele>
        <time>2021-08-08T13:09:23Z</time>
      </trkpt>
      <trkpt lat="44.95157" lon="5.60414">
        <ele>801.6</ele>
        <time>2021-08-08T13:09:24Z</time>
      </trkpt>
      <trkpt lat="44.95157" lon="5.60421">
        <ele>802.1</ele>
        <time>2021-08-08T13:09:26Z</time>
      </trkpt>
      <trkpt lat="44.95157" lon="5.60427">
        <ele>802.5</ele>
        <time>2021-08-08T13:09:28Z</time>
      </trkpt>
      <trkpt lat="44.95156" lon="5.60434">
        <ele>802.9</ele>
        <time>2021-08-08T13:09:30Z</time>
      </trkpt>
      <trkpt lat="44.95153" lon="5.6044">
        <ele>803.3</ele>
        <time>2021-08-08T13:09:31Z</time>
      </trkpt>
      <trkpt lat="44.9515" lon="5.60446">
        <ele>803.7</ele>
        <time>2021-08-08T13:09:32Z</time>
      </trkpt>
      <trkpt lat="44.95147" lon="5.6045">
        <ele>804.1</ele>
        <time>2021-08-08T13:09:34Z</time>
      </trkpt>
      <trkpt lat="44.95143" lon="5.60455">
        <ele>804.5</ele>
        <time>2021-08-08T13:09:35Z</time>
      </trkpt>
      <trkpt lat="44.95141" lon="5.60458">
        <ele>804.7</ele>
        <time>2021-08-08T13:09:36Z</time>
      </trkpt>
      <trkpt lat="44.95138" lon="5.60462">
        <ele>805</ele>
        <time>2021-08-08T13:09:38Z</time>
      </trkpt>
      <trkpt lat="44.95135" lon="5.60466">
        <ele>805.3</ele>
        <time>2021-08-08T13:09:39Z</time>
      </trkpt>
      <trkpt lat="44.95132" lon="5.60469">
        <ele>805.6</ele>
        <time>2021-08-08T13:09:40Z</time>
      </trkpt>
      <trkpt lat="44.95129" lon="5.60472">
        <ele>805.9</ele>
        <time>2021-08-08T13:09:41Z</time>
      </trkpt>
      <trkpt lat="44.95126" lon="5.60474">
        <ele>806.1</ele>
        <time>2021-08-08T13:09:42Z</time>
      </trkpt>
      <trkpt lat="44.95121" lon="5.60479">
        <ele>806.5</ele>
        <time>2021-08-08T13:09:44Z</time>
      </trkpt>
      <trkpt lat="44.95119" lon="5.60481">
        <ele>806.8</ele>
        <time>2021-08-08T13:09:46Z</time>
      </trkpt>
      <trkpt lat="44.95115" lon="5.60484">
        <ele>807.1</ele>
        <time>2021-08-08T13:09:47Z</time>
      </trkpt>
      <trkpt lat="44.95112" lon="5.60485">
        <ele>807.3</ele>
        <time>2021-08-08T13:09:48Z</time>
      </trkpt>
      <trkpt lat="44.95109" lon="5.60487">
        <ele>807.5</ele>
        <time>2021-08-08T13:09:49Z</time>
      </trkpt>
      <trkpt lat="44.95106" lon="5.6049">
        <ele>807.7</ele>
        <time>2021-08-08T13:09:50Z</time>
      </trkpt>
      <trkpt lat="44.95101" lon="5.60493">
        <ele>808.1</ele>
        <time>2021-08-08T13:09:52Z</time>
      </trkpt>
      <trkpt lat="44.95098" lon="5.60494">
        <ele>808.3</ele>
        <time>2021-08-08T13:09:53Z</time>
      </trkpt>
      <trkpt lat="44.95095" lon="5.60496">
        <ele>808.6</ele>
        <time>2021-08-08T13:09:54Z</time>
      </trkpt>
      <trkpt lat="44.95091" lon="5.60498">
        <ele>808.8</ele>
        <time>2021-08-08T13:09:56Z</time>
      </trkpt>
      <trkpt lat="44.95087" lon="5.605">
        <ele>809.1</ele>
        <time>2021-08-08T13:09:57Z</time>
      </trkpt>
      <trkpt lat="44.95084" lon="5.60502">
        <ele>809.3</ele>
        <time>2021-08-08T13:09:58Z</time>
      </trkpt>
      <trkpt lat="44.95077" lon="5.60505">
        <ele>809.9</ele>
        <time>2021-08-08T13:10:01Z</time>
      </trkpt>
      <trkpt lat="44.95075" lon="5.60506">
        <ele>810</ele>
        <time>2021-08-08T13:10:02Z</time>
      </trkpt>
      <trkpt lat="44.95072" lon="5.60508">
        <ele>810.2</ele>
        <time>2021-08-08T13:10:04Z</time>
      </trkpt>
      <trkpt lat="44.95069" lon="5.6051">
        <ele>810.4</ele>
        <time>2021-08-08T13:10:05Z</time>
      </trkpt>
      <trkpt lat="44.95068" lon="5.60511">
        <ele>810.6</ele>
        <time>2021-08-08T13:10:06Z</time>
      </trkpt>
      <trkpt lat="44.95065" lon="5.60513">
        <ele>810.8</ele>
        <time>2021-08-08T13:10:07Z</time>
      </trkpt>
      <trkpt lat="44.9506" lon="5.60516">
        <ele>811.2</ele>
        <time>2021-08-08T13:10:09Z</time>
      </trkpt>
      <trkpt lat="44.95058" lon="5.60518">
        <ele>811.4</ele>
        <time>2021-08-08T13:10:10Z</time>
      </trkpt>
      <trkpt lat="44.95055" lon="5.6052">
        <ele>811.7</ele>
        <time>2021-08-08T13:10:12Z</time>
      </trkpt>
      <trkpt lat="44.95053" lon="5.60522">
        <ele>811.9</ele>
        <time>2021-08-08T13:10:13Z</time>
      </trkpt>
      <trkpt lat="44.9505" lon="5.60524">
        <ele>812.2</ele>
        <time>2021-08-08T13:10:14Z</time>
      </trkpt>
      <trkpt lat="44.95046" lon="5.60526">
        <ele>812.5</ele>
        <time>2021-08-08T13:10:16Z</time>
      </trkpt>
      <trkpt lat="44.95043" lon="5.60526">
        <ele>812.7</ele>
        <time>2021-08-08T13:10:17Z</time>
      </trkpt>
      <trkpt lat="44.9504" lon="5.60526">
        <ele>813</ele>
        <time>2021-08-08T13:10:18Z</time>
      </trkpt>
      <trkpt lat="44.95036" lon="5.60525">
        <ele>813.4</ele>
        <time>2021-08-08T13:10:19Z</time>
      </trkpt>
      <trkpt lat="44.95032" lon="5.60526">
        <ele>813.7</ele>
        <time>2021-08-08T13:10:20Z</time>
      </trkpt>
      <trkpt lat="44.95029" lon="5.60526">
        <ele>813.9</ele>
        <time>2021-08-08T13:10:21Z</time>
      </trkpt>
      <trkpt lat="44.95023" lon="5.60525">
        <ele>814.3</ele>
        <time>2021-08-08T13:10:23Z</time>
      </trkpt>
      <trkpt lat="44.95019" lon="5.60524">
        <ele>814.6</ele>
        <time>2021-08-08T13:10:24Z</time>
      </trkpt>
      <trkpt lat="44.95015" lon="5.60523">
        <ele>814.9</ele>
        <time>2021-08-08T13:10:25Z</time>
      </trkpt>
      <trkpt lat="44.95009" lon="5.60521">
        <ele>815.3</ele>
        <time>2021-08-08T13:10:27Z</time>
      </trkpt>
      <trkpt lat="44.95005" lon="5.60519">
        <ele>815.6</ele>
        <time>2021-08-08T13:10:29Z</time>
      </trkpt>
      <trkpt lat="44.95002" lon="5.60518">
        <ele>815.7</ele>
        <time>2021-08-08T13:10:30Z</time>
      </trkpt>
      <trkpt lat="44.94998" lon="5.60516">
        <ele>816</ele>
        <time>2021-08-08T13:10:31Z</time>
      </trkpt>
      <trkpt lat="44.94994" lon="5.60514">
        <ele>816.3</ele>
        <time>2021-08-08T13:10:32Z</time>
      </trkpt>
      <trkpt lat="44.94991" lon="5.60513">
        <ele>816.4</ele>
        <time>2021-08-08T13:10:33Z</time>
      </trkpt>
      <trkpt lat="44.94987" lon="5.60511">
        <ele>816.7</ele>
        <time>2021-08-08T13:10:35Z</time>
      </trkpt>
      <trkpt lat="44.94985" lon="5.60509">
        <ele>816.8</ele>
        <time>2021-08-08T13:10:36Z</time>
      </trkpt>
      <trkpt lat="44.94982" lon="5.60508">
        <ele>817</ele>
        <time>2021-08-08T13:10:37Z</time>
      </trkpt>
      <trkpt lat="44.94978" lon="5.60506">
        <ele>817.2</ele>
        <time>2021-08-08T13:10:38Z</time>
      </trkpt>
      <trkpt lat="44.94975" lon="5.60505">
        <ele>817.4</ele>
        <time>2021-08-08T13:10:39Z</time>
      </trkpt>
      <trkpt lat="44.94971" lon="5.60503">
        <ele>817.6</ele>
        <time>2021-08-08T13:10:40Z</time>
      </trkpt>
      <trkpt lat="44.94968" lon="5.60502">
        <ele>817.7</ele>
        <time>2021-08-08T13:10:41Z</time>
      </trkpt>
      <trkpt lat="44.94965" lon="5.60501">
        <ele>817.9</ele>
        <time>2021-08-08T13:10:42Z</time>
      </trkpt>
      <trkpt lat="44.94961" lon="5.60499">
        <ele>818.1</ele>
        <time>2021-08-08T13:10:44Z</time>
      </trkpt>
      <trkpt lat="44.94958" lon="5.60497">
        <ele>818.2</ele>
        <time>2021-08-08T13:10:45Z</time>
      </trkpt>
      <trkpt lat="44.94954" lon="5.60496">
        <ele>818.4</ele>
        <time>2021-08-08T13:10:46Z</time>
      </trkpt>
      <trkpt lat="44.94949" lon="5.60493">
        <ele>818.7</ele>
        <time>2021-08-08T13:10:48Z</time>
      </trkpt>
      <trkpt lat="44.94946" lon="5.60493">
        <ele>818.9</ele>
        <time>2021-08-08T13:10:49Z</time>
      </trkpt>
      <trkpt lat="44.94943" lon="5.60492">
        <ele>819.1</ele>
        <time>2021-08-08T13:10:50Z</time>
      </trkpt>
      <trkpt lat="44.9494" lon="5.60491">
        <ele>819.2</ele>
        <time>2021-08-08T13:10:51Z</time>
      </trkpt>
      <trkpt lat="44.94937" lon="5.6049">
        <ele>819.4</ele>
        <time>2021-08-08T13:10:52Z</time>
      </trkpt>
      <trkpt lat="44.94934" lon="5.60489">
        <ele>819.6</ele>
        <time>2021-08-08T13:10:53Z</time>
      </trkpt>
      <trkpt lat="44.94927" lon="5.60486">
        <ele>819.9</ele>
        <time>2021-08-08T13:10:55Z</time>
      </trkpt>
      <trkpt lat="44.94922" lon="5.60483">
        <ele>820.2</ele>
        <time>2021-08-08T13:10:57Z</time>
      </trkpt>
      <trkpt lat="44.94919" lon="5.60482">
        <ele>820.4</ele>
        <time>2021-08-08T13:10:58Z</time>
      </trkpt>
      <trkpt lat="44.94916" lon="5.60481">
        <ele>820.6</ele>
        <time>2021-08-08T13:10:59Z</time>
      </trkpt>
      <trkpt lat="44.94913" lon="5.6048">
        <ele>820.7</ele>
        <time>2021-08-08T13:11:00Z</time>
      </trkpt>
      <trkpt lat="44.94909" lon="5.60479">
        <ele>820.9</ele>
        <time>2021-08-08T13:11:02Z</time>
      </trkpt>
      <trkpt lat="44.94905" lon="5.60478">
        <ele>821.1</ele>
        <time>2021-08-08T13:11:03Z</time>
      </trkpt>
      <trkpt lat="44.94902" lon="5.60477">
        <ele>821.3</ele>
        <time>2021-08-08T13:11:04Z</time>
      </trkpt>
      <trkpt lat="44.94898" lon="5.60474">
        <ele>821.6</ele>
        <time>2021-08-08T13:11:06Z</time>
      </trkpt>
      <trkpt lat="44.94895" lon="5.60473">
        <ele>821.7</ele>
        <time>2021-08-08T13:11:07Z</time>
      </trkpt>
      <trkpt lat="44.94892" lon="5.60471">
        <ele>821.9</ele>
        <time>2021-08-08T13:11:08Z</time>
      </trkpt>
      <trkpt lat="44.94889" lon="5.60469">
        <ele>822.1</ele>
        <time>2021-08-08T13:11:09Z</time>
      </trkpt>
      <trkpt lat="44.94885" lon="5.60466">
        <ele>822.4</ele>
        <time>2021-08-08T13:11:11Z</time>
      </trkpt>
      <trkpt lat="44.94882" lon="5.60465">
        <ele>822.6</ele>
        <time>2021-08-08T13:11:12Z</time>
      </trkpt>
      <trkpt lat="44.94879" lon="5.60463">
        <ele>822.8</ele>
        <time>2021-08-08T13:11:13Z</time>
      </trkpt>
      <trkpt lat="44.94876" lon="5.60462">
        <ele>823</ele>
        <time>2021-08-08T13:11:14Z</time>
      </trkpt>
      <trkpt lat="44.94873" lon="5.6046">
        <ele>823.2</ele>
        <time>2021-08-08T13:11:15Z</time>
      </trkpt>
      <trkpt lat="44.9487" lon="5.60458">
        <ele>823.4</ele>
        <time>2021-08-08T13:11:16Z</time>
      </trkpt>
      <trkpt lat="44.94867" lon="5.60456">
        <ele>823.7</ele>
        <time>2021-08-08T13:11:18Z</time>
      </trkpt>
      <trkpt lat="44.94863" lon="5.60455">
        <ele>823.9</ele>
        <time>2021-08-08T13:11:19Z</time>
      </trkpt>
      <trkpt lat="44.9486" lon="5.60454">
        <ele>824.1</ele>
        <time>2021-08-08T13:11:20Z</time>
      </trkpt>
      <trkpt lat="44.94856" lon="5.60453">
        <ele>824.4</ele>
        <time>2021-08-08T13:11:21Z</time>
      </trkpt>
      <trkpt lat="44.94852" lon="5.60451">
        <ele>824.7</ele>
        <time>2021-08-08T13:11:23Z</time>
      </trkpt>
      <trkpt lat="44.94848" lon="5.60449">
        <ele>825</ele>
        <time>2021-08-08T13:11:24Z</time>
      </trkpt>
      <trkpt lat="44.94845" lon="5.60448">
        <ele>825.2</ele>
        <time>2021-08-08T13:11:25Z</time>
      </trkpt>
      <trkpt lat="44.94842" lon="5.60448">
        <ele>825.4</ele>
        <time>2021-08-08T13:11:26Z</time>
      </trkpt>
      <trkpt lat="44.94839" lon="5.60447">
        <ele>825.6</ele>
        <time>2021-08-08T13:11:27Z</time>
      </trkpt>
      <trkpt lat="44.94835" lon="5.60446">
        <ele>825.9</ele>
        <time>2021-08-08T13:11:29Z</time>
      </trkpt>
      <trkpt lat="44.94832" lon="5.60445">
        <ele>826.1</ele>
        <time>2021-08-08T13:11:30Z</time>
      </trkpt>
      <trkpt lat="44.94829" lon="5.60443">
        <ele>826.3</ele>
        <time>2021-08-08T13:11:31Z</time>
      </trkpt>
      <trkpt lat="44.94826" lon="5.60441">
        <ele>826.5</ele>
        <time>2021-08-08T13:11:32Z</time>
      </trkpt>
      <trkpt lat="44.94824" lon="5.6044">
        <ele>826.7</ele>
        <time>2021-08-08T13:11:33Z</time>
      </trkpt>
      <trkpt lat="44.94819" lon="5.60438">
        <ele>827</ele>
        <time>2021-08-08T13:11:35Z</time>
      </trkpt>
      <trkpt lat="44.94816" lon="5.60437">
        <ele>827.3</ele>
        <time>2021-08-08T13:11:36Z</time>
      </trkpt>
      <trkpt lat="44.94812" lon="5.60435">
        <ele>827.6</ele>
        <time>2021-08-08T13:11:37Z</time>
      </trkpt>
      <trkpt lat="44.94809" lon="5.60433">
        <ele>827.8</ele>
        <time>2021-08-08T13:11:38Z</time>
      </trkpt>
      <trkpt lat="44.94805" lon="5.60432">
        <ele>828.1</ele>
        <time>2021-08-08T13:11:40Z</time>
      </trkpt>
      <trkpt lat="44.94802" lon="5.6043">
        <ele>828.4</ele>
        <time>2021-08-08T13:11:41Z</time>
      </trkpt>
      <trkpt lat="44.94799" lon="5.60428">
        <ele>828.7</ele>
        <time>2021-08-08T13:11:42Z</time>
      </trkpt>
      <trkpt lat="44.94796" lon="5.60427">
        <ele>828.9</ele>
        <time>2021-08-08T13:11:43Z</time>
      </trkpt>
      <trkpt lat="44.94791" lon="5.60424">
        <ele>829.3</ele>
        <time>2021-08-08T13:11:45Z</time>
      </trkpt>
      <trkpt lat="44.94788" lon="5.60423">
        <ele>829.5</ele>
        <time>2021-08-08T13:11:47Z</time>
      </trkpt>
      <trkpt lat="44.94785" lon="5.60422">
        <ele>829.8</ele>
        <time>2021-08-08T13:11:48Z</time>
      </trkpt>
      <trkpt lat="44.94781" lon="5.60421">
        <ele>830</ele>
        <time>2021-08-08T13:11:49Z</time>
      </trkpt>
      <trkpt lat="44.94778" lon="5.6042">
        <ele>830.3</ele>
        <time>2021-08-08T13:11:50Z</time>
      </trkpt>
      <trkpt lat="44.94775" lon="5.60418">
        <ele>830.5</ele>
        <time>2021-08-08T13:11:51Z</time>
      </trkpt>
      <trkpt lat="44.94772" lon="5.60416">
        <ele>830.7</ele>
        <time>2021-08-08T13:11:53Z</time>
      </trkpt>
      <trkpt lat="44.94767" lon="5.60414">
        <ele>831.1</ele>
        <time>2021-08-08T13:11:54Z</time>
      </trkpt>
      <trkpt lat="44.94763" lon="5.60413">
        <ele>831.4</ele>
        <time>2021-08-08T13:11:55Z</time>
      </trkpt>
      <trkpt lat="44.9476" lon="5.60412">
        <ele>831.6</ele>
        <time>2021-08-08T13:11:56Z</time>
      </trkpt>
      <trkpt lat="44.94756" lon="5.60411">
        <ele>831.9</ele>
        <time>2021-08-08T13:11:58Z</time>
      </trkpt>
      <trkpt lat="44.94753" lon="5.60409">
        <ele>832.2</ele>
        <time>2021-08-08T13:11:59Z</time>
      </trkpt>
      <trkpt lat="44.94749" lon="5.60408">
        <ele>832.4</ele>
        <time>2021-08-08T13:12:00Z</time>
      </trkpt>
      <trkpt lat="44.94745" lon="5.60407">
        <ele>832.7</ele>
        <time>2021-08-08T13:12:01Z</time>
      </trkpt>
      <trkpt lat="44.94741" lon="5.60407">
        <ele>833</ele>
        <time>2021-08-08T13:12:03Z</time>
      </trkpt>
      <trkpt lat="44.94737" lon="5.60407">
        <ele>833.3</ele>
        <time>2021-08-08T13:12:04Z</time>
      </trkpt>
      <trkpt lat="44.94733" lon="5.60405">
        <ele>833.6</ele>
        <time>2021-08-08T13:12:06Z</time>
      </trkpt>
      <trkpt lat="44.9473" lon="5.60404">
        <ele>833.9</ele>
        <time>2021-08-08T13:12:07Z</time>
      </trkpt>
      <trkpt lat="44.94727" lon="5.60403">
        <ele>834.1</ele>
        <time>2021-08-08T13:12:08Z</time>
      </trkpt>
      <trkpt lat="44.94725" lon="5.60399">
        <ele>836.2</ele>
        <time>2021-08-08T13:12:09Z</time>
      </trkpt>
      <trkpt lat="44.94724" lon="5.60394">
        <ele>836.5</ele>
        <time>2021-08-08T13:12:10Z</time>
      </trkpt>
      <trkpt lat="44.94724" lon="5.60392">
        <ele>836.6</ele>
        <time>2021-08-08T13:12:11Z</time>
      </trkpt>
      <trkpt lat="44.94725" lon="5.60388">
        <ele>836.9</ele>
        <time>2021-08-08T13:12:13Z</time>
      </trkpt>
      <trkpt lat="44.94727" lon="5.60385">
        <ele>837.1</ele>
        <time>2021-08-08T13:12:14Z</time>
      </trkpt>
      <trkpt lat="44.94729" lon="5.60382">
        <ele>837.3</ele>
        <time>2021-08-08T13:12:15Z</time>
      </trkpt>
      <trkpt lat="44.94732" lon="5.60376">
        <ele>837.5</ele>
        <time>2021-08-08T13:12:17Z</time>
      </trkpt>
      <trkpt lat="44.94734" lon="5.60372">
        <ele>837.7</ele>
        <time>2021-08-08T13:12:18Z</time>
      </trkpt>
      <trkpt lat="44.94736" lon="5.60369">
        <ele>837.8</ele>
        <time>2021-08-08T13:12:19Z</time>
      </trkpt>
      <trkpt lat="44.94738" lon="5.60365">
        <ele>838.1</ele>
        <time>2021-08-08T13:12:21Z</time>
      </trkpt>
      <trkpt lat="44.9474" lon="5.60362">
        <ele>838.2</ele>
        <time>2021-08-08T13:12:22Z</time>
      </trkpt>
      <trkpt lat="44.94742" lon="5.60358">
        <ele>838.4</ele>
        <time>2021-08-08T13:12:23Z</time>
      </trkpt>
      <trkpt lat="44.94745" lon="5.60353">
        <ele>838.6</ele>
        <time>2021-08-08T13:12:24Z</time>
      </trkpt>
      <trkpt lat="44.94746" lon="5.6035">
        <ele>838.7</ele>
        <time>2021-08-08T13:12:25Z</time>
      </trkpt>
      <trkpt lat="44.94749" lon="5.60344">
        <ele>839</ele>
        <time>2021-08-08T13:12:27Z</time>
      </trkpt>
      <trkpt lat="44.94751" lon="5.6034">
        <ele>839.2</ele>
        <time>2021-08-08T13:12:28Z</time>
      </trkpt>
      <trkpt lat="44.94754" lon="5.60336">
        <ele>839.4</ele>
        <time>2021-08-08T13:12:29Z</time>
      </trkpt>
      <trkpt lat="44.94756" lon="5.6033">
        <ele>839.6</ele>
        <time>2021-08-08T13:12:31Z</time>
      </trkpt>
      <trkpt lat="44.94759" lon="5.60326">
        <ele>839.8</ele>
        <time>2021-08-08T13:12:32Z</time>
      </trkpt>
      <trkpt lat="44.9476" lon="5.60322">
        <ele>840</ele>
        <time>2021-08-08T13:12:33Z</time>
      </trkpt>
      <trkpt lat="44.94763" lon="5.60318">
        <ele>840.2</ele>
        <time>2021-08-08T13:12:34Z</time>
      </trkpt>
      <trkpt lat="44.94766" lon="5.60311">
        <ele>840.5</ele>
        <time>2021-08-08T13:12:36Z</time>
      </trkpt>
      <trkpt lat="44.94771" lon="5.60303">
        <ele>840.9</ele>
        <time>2021-08-08T13:12:38Z</time>
      </trkpt>
      <trkpt lat="44.94772" lon="5.60299">
        <ele>841</ele>
        <time>2021-08-08T13:12:39Z</time>
      </trkpt>
      <trkpt lat="44.94775" lon="5.60296">
        <ele>841.2</ele>
        <time>2021-08-08T13:12:40Z</time>
      </trkpt>
      <trkpt lat="44.94777" lon="5.60292">
        <ele>841.3</ele>
        <time>2021-08-08T13:12:41Z</time>
      </trkpt>
      <trkpt lat="44.94778" lon="5.60288">
        <ele>841.5</ele>
        <time>2021-08-08T13:12:42Z</time>
      </trkpt>
      <trkpt lat="44.9478" lon="5.60284">
        <ele>841.7</ele>
        <time>2021-08-08T13:12:44Z</time>
      </trkpt>
      <trkpt lat="44.94783" lon="5.60278">
        <ele>841.9</ele>
        <time>2021-08-08T13:12:45Z</time>
      </trkpt>
      <trkpt lat="44.94785" lon="5.60273">
        <ele>842.2</ele>
        <time>2021-08-08T13:12:46Z</time>
      </trkpt>
      <trkpt lat="44.94787" lon="5.60267">
        <ele>842.4</ele>
        <time>2021-08-08T13:12:48Z</time>
      </trkpt>
      <trkpt lat="44.94788" lon="5.60263">
        <ele>842.6</ele>
        <time>2021-08-08T13:12:49Z</time>
      </trkpt>
      <trkpt lat="44.9479" lon="5.60258">
        <ele>842.9</ele>
        <time>2021-08-08T13:12:50Z</time>
      </trkpt>
      <trkpt lat="44.94792" lon="5.60252">
        <ele>843.1</ele>
        <time>2021-08-08T13:12:52Z</time>
      </trkpt>
      <trkpt lat="44.94793" lon="5.60246">
        <ele>843.3</ele>
        <time>2021-08-08T13:12:53Z</time>
      </trkpt>
      <trkpt lat="44.94795" lon="5.60241">
        <ele>843.5</ele>
        <time>2021-08-08T13:12:54Z</time>
      </trkpt>
      <trkpt lat="44.94796" lon="5.60236">
        <ele>843.7</ele>
        <time>2021-08-08T13:12:55Z</time>
      </trkpt>
      <trkpt lat="44.94798" lon="5.60231">
        <ele>843.9</ele>
        <time>2021-08-08T13:12:57Z</time>
      </trkpt>
      <trkpt lat="44.94798" lon="5.60226">
        <ele>844.1</ele>
        <time>2021-08-08T13:12:58Z</time>
      </trkpt>
      <trkpt lat="44.948" lon="5.60221">
        <ele>844.3</ele>
        <time>2021-08-08T13:12:59Z</time>
      </trkpt>
      <trkpt lat="44.94801" lon="5.60216">
        <ele>844.5</ele>
        <time>2021-08-08T13:13:00Z</time>
      </trkpt>
      <trkpt lat="44.94802" lon="5.60212">
        <ele>844.6</ele>
        <time>2021-08-08T13:13:01Z</time>
      </trkpt>
      <trkpt lat="44.94805" lon="5.60204">
        <ele>844.9</ele>
        <time>2021-08-08T13:13:03Z</time>
      </trkpt>
      <trkpt lat="44.94806" lon="5.602">
        <ele>845.1</ele>
        <time>2021-08-08T13:13:04Z</time>
      </trkpt>
      <trkpt lat="44.94807" lon="5.60192">
        <ele>845.4</ele>
        <time>2021-08-08T13:13:06Z</time>
      </trkpt>
      <trkpt lat="44.94808" lon="5.60186">
        <ele>845.6</ele>
        <time>2021-08-08T13:13:07Z</time>
      </trkpt>
      <trkpt lat="44.94808" lon="5.60179">
        <ele>845.9</ele>
        <time>2021-08-08T13:13:09Z</time>
      </trkpt>
      <trkpt lat="44.94807" lon="5.60172">
        <ele>846.1</ele>
        <time>2021-08-08T13:13:10Z</time>
      </trkpt>
      <trkpt lat="44.94808" lon="5.60166">
        <ele>846.3</ele>
        <time>2021-08-08T13:13:11Z</time>
      </trkpt>
      <trkpt lat="44.94809" lon="5.60156">
        <ele>846.7</ele>
        <time>2021-08-08T13:13:13Z</time>
      </trkpt>
      <trkpt lat="44.94808" lon="5.6015">
        <ele>846.9</ele>
        <time>2021-08-08T13:13:14Z</time>
      </trkpt>
      <trkpt lat="44.94808" lon="5.60141">
        <ele>847.2</ele>
        <time>2021-08-08T13:13:16Z</time>
      </trkpt>
      <trkpt lat="44.94809" lon="5.60135">
        <ele>847.4</ele>
        <time>2021-08-08T13:13:17Z</time>
      </trkpt>
      <trkpt lat="44.94809" lon="5.60128">
        <ele>847.7</ele>
        <time>2021-08-08T13:13:19Z</time>
      </trkpt>
      <trkpt lat="44.9481" lon="5.60121">
        <ele>847.9</ele>
        <time>2021-08-08T13:13:20Z</time>
      </trkpt>
      <trkpt lat="44.94809" lon="5.60116">
        <ele>848.1</ele>
        <time>2021-08-08T13:13:21Z</time>
      </trkpt>
      <trkpt lat="44.94808" lon="5.60107">
        <ele>848.4</ele>
        <time>2021-08-08T13:13:24Z</time>
      </trkpt>
      <trkpt lat="44.94808" lon="5.60099">
        <ele>848.7</ele>
        <time>2021-08-08T13:13:25Z</time>
      </trkpt>
      <trkpt lat="44.94807" lon="5.60092">
        <ele>849</ele>
        <time>2021-08-08T13:13:27Z</time>
      </trkpt>
      <trkpt lat="44.94807" lon="5.60084">
        <ele>849.3</ele>
        <time>2021-08-08T13:13:28Z</time>
      </trkpt>
      <trkpt lat="44.94806" lon="5.6008">
        <ele>849.5</ele>
        <time>2021-08-08T13:13:29Z</time>
      </trkpt>
      <trkpt lat="44.94805" lon="5.60075">
        <ele>849.6</ele>
        <time>2021-08-08T13:13:31Z</time>
      </trkpt>
      <trkpt lat="44.94804" lon="5.6007">
        <ele>849.8</ele>
        <time>2021-08-08T13:13:32Z</time>
      </trkpt>
      <trkpt lat="44.94804" lon="5.60065">
        <ele>850</ele>
        <time>2021-08-08T13:13:33Z</time>
      </trkpt>
      <trkpt lat="44.94803" lon="5.6006">
        <ele>850.2</ele>
        <time>2021-08-08T13:13:34Z</time>
      </trkpt>
      <trkpt lat="44.94802" lon="5.60055">
        <ele>850.4</ele>
        <time>2021-08-08T13:13:35Z</time>
      </trkpt>
      <trkpt lat="44.94801" lon="5.6005">
        <ele>850.6</ele>
        <time>2021-08-08T13:13:36Z</time>
      </trkpt>
      <trkpt lat="44.948" lon="5.60045">
        <ele>850.8</ele>
        <time>2021-08-08T13:13:37Z</time>
      </trkpt>
      <trkpt lat="44.948" lon="5.6004">
        <ele>851</ele>
        <time>2021-08-08T13:13:38Z</time>
      </trkpt>
      <trkpt lat="44.94799" lon="5.60034">
        <ele>851.2</ele>
        <time>2021-08-08T13:13:40Z</time>
      </trkpt>
      <trkpt lat="44.94798" lon="5.60028">
        <ele>851.5</ele>
        <time>2021-08-08T13:13:41Z</time>
      </trkpt>
      <trkpt lat="44.94798" lon="5.60022">
        <ele>851.7</ele>
        <time>2021-08-08T13:13:42Z</time>
      </trkpt>
      <trkpt lat="44.94797" lon="5.60016">
        <ele>851.9</ele>
        <time>2021-08-08T13:13:44Z</time>
      </trkpt>
      <trkpt lat="44.94797" lon="5.60009">
        <ele>852.2</ele>
        <time>2021-08-08T13:13:45Z</time>
      </trkpt>
      <trkpt lat="44.94796" lon="5.60003">
        <ele>852.4</ele>
        <time>2021-08-08T13:13:46Z</time>
      </trkpt>
      <trkpt lat="44.94796" lon="5.59997">
        <ele>852.6</ele>
        <time>2021-08-08T13:13:47Z</time>
      </trkpt>
      <trkpt lat="44.94796" lon="5.59991">
        <ele>852.9</ele>
        <time>2021-08-08T13:13:49Z</time>
      </trkpt>
      <trkpt lat="44.94797" lon="5.59986">
        <ele>853.1</ele>
        <time>2021-08-08T13:13:50Z</time>
      </trkpt>
      <trkpt lat="44.94797" lon="5.5998">
        <ele>853.3</ele>
        <time>2021-08-08T13:13:51Z</time>
      </trkpt>
      <trkpt lat="44.94797" lon="5.59976">
        <ele>853.4</ele>
        <time>2021-08-08T13:13:52Z</time>
      </trkpt>
      <trkpt lat="44.94798" lon="5.59969">
        <ele>853.7</ele>
        <time>2021-08-08T13:13:54Z</time>
      </trkpt>
      <trkpt lat="44.94799" lon="5.59965">
        <ele>853.9</ele>
        <time>2021-08-08T13:13:55Z</time>
      </trkpt>
      <trkpt lat="44.94799" lon="5.5996">
        <ele>854.1</ele>
        <time>2021-08-08T13:13:56Z</time>
      </trkpt>
      <trkpt lat="44.94799" lon="5.59956">
        <ele>854.2</ele>
        <time>2021-08-08T13:13:57Z</time>
      </trkpt>
      <trkpt lat="44.948" lon="5.59951">
        <ele>854.4</ele>
        <time>2021-08-08T13:13:58Z</time>
      </trkpt>
      <trkpt lat="44.94801" lon="5.59946">
        <ele>854.6</ele>
        <time>2021-08-08T13:13:59Z</time>
      </trkpt>
      <trkpt lat="44.94802" lon="5.59941">
        <ele>854.8</ele>
        <time>2021-08-08T13:14:01Z</time>
      </trkpt>
      <trkpt lat="44.94802" lon="5.59937">
        <ele>855</ele>
        <time>2021-08-08T13:14:02Z</time>
      </trkpt>
      <trkpt lat="44.94803" lon="5.59932">
        <ele>855.1</ele>
        <time>2021-08-08T13:14:03Z</time>
      </trkpt>
      <trkpt lat="44.94803" lon="5.59928">
        <ele>855.3</ele>
        <time>2021-08-08T13:14:04Z</time>
      </trkpt>
      <trkpt lat="44.94803" lon="5.59923">
        <ele>855.4</ele>
        <time>2021-08-08T13:14:06Z</time>
      </trkpt>
      <trkpt lat="44.94804" lon="5.59919">
        <ele>855.6</ele>
        <time>2021-08-08T13:14:07Z</time>
      </trkpt>
      <trkpt lat="44.94804" lon="5.59914">
        <ele>855.9</ele>
        <time>2021-08-08T13:14:08Z</time>
      </trkpt>
      <trkpt lat="44.94804" lon="5.59908">
        <ele>856.2</ele>
        <time>2021-08-08T13:14:09Z</time>
      </trkpt>
      <trkpt lat="44.94804" lon="5.599">
        <ele>856.5</ele>
        <time>2021-08-08T13:14:11Z</time>
      </trkpt>
      <trkpt lat="44.94804" lon="5.59895">
        <ele>856.7</ele>
        <time>2021-08-08T13:14:12Z</time>
      </trkpt>
      <trkpt lat="44.94805" lon="5.59891">
        <ele>857</ele>
        <time>2021-08-08T13:14:13Z</time>
      </trkpt>
      <trkpt lat="44.94806" lon="5.59885">
        <ele>857.2</ele>
        <time>2021-08-08T13:14:14Z</time>
      </trkpt>
      <trkpt lat="44.94806" lon="5.59879">
        <ele>857.6</ele>
        <time>2021-08-08T13:14:15Z</time>
      </trkpt>
      <trkpt lat="44.94806" lon="5.59874">
        <ele>857.8</ele>
        <time>2021-08-08T13:14:16Z</time>
      </trkpt>
      <trkpt lat="44.94807" lon="5.59869">
        <ele>858.1</ele>
        <time>2021-08-08T13:14:17Z</time>
      </trkpt>
      <trkpt lat="44.94807" lon="5.59865">
        <ele>858.2</ele>
        <time>2021-08-08T13:14:18Z</time>
      </trkpt>
      <trkpt lat="44.94806" lon="5.59859">
        <ele>858.6</ele>
        <time>2021-08-08T13:14:20Z</time>
      </trkpt>
      <trkpt lat="44.94806" lon="5.59855">
        <ele>858.7</ele>
        <time>2021-08-08T13:14:21Z</time>
      </trkpt>
      <trkpt lat="44.94805" lon="5.5985">
        <ele>859</ele>
        <time>2021-08-08T13:14:22Z</time>
      </trkpt>
      <trkpt lat="44.94805" lon="5.59845">
        <ele>859.2</ele>
        <time>2021-08-08T13:14:23Z</time>
      </trkpt>
      <trkpt lat="44.94803" lon="5.5984">
        <ele>859.5</ele>
        <time>2021-08-08T13:14:24Z</time>
      </trkpt>
      <trkpt lat="44.94802" lon="5.59836">
        <ele>859.7</ele>
        <time>2021-08-08T13:14:25Z</time>
      </trkpt>
      <trkpt lat="44.94799" lon="5.59828">
        <ele>860</ele>
        <time>2021-08-08T13:14:27Z</time>
      </trkpt>
      <trkpt lat="44.94797" lon="5.59823">
        <ele>860.3</ele>
        <time>2021-08-08T13:14:28Z</time>
      </trkpt>
      <trkpt lat="44.94796" lon="5.59819">
        <ele>860.5</ele>
        <time>2021-08-08T13:14:29Z</time>
      </trkpt>
      <trkpt lat="44.94792" lon="5.59811">
        <ele>860.9</ele>
        <time>2021-08-08T13:14:31Z</time>
      </trkpt>
      <trkpt lat="44.94789" lon="5.59804">
        <ele>861.2</ele>
        <time>2021-08-08T13:14:33Z</time>
      </trkpt>
      <trkpt lat="44.94786" lon="5.59799">
        <ele>861.5</ele>
        <time>2021-08-08T13:14:34Z</time>
      </trkpt>
      <trkpt lat="44.94784" lon="5.59794">
        <ele>861.7</ele>
        <time>2021-08-08T13:14:35Z</time>
      </trkpt>
      <trkpt lat="44.94782" lon="5.5979">
        <ele>861.9</ele>
        <time>2021-08-08T13:14:37Z</time>
      </trkpt>
      <trkpt lat="44.9478" lon="5.59785">
        <ele>862.1</ele>
        <time>2021-08-08T13:14:38Z</time>
      </trkpt>
      <trkpt lat="44.94778" lon="5.59781">
        <ele>862.4</ele>
        <time>2021-08-08T13:14:39Z</time>
      </trkpt>
      <trkpt lat="44.94776" lon="5.59777">
        <ele>862.6</ele>
        <time>2021-08-08T13:14:40Z</time>
      </trkpt>
      <trkpt lat="44.94774" lon="5.59771">
        <ele>862.9</ele>
        <time>2021-08-08T13:14:41Z</time>
      </trkpt>
      <trkpt lat="44.94772" lon="5.59764">
        <ele>863.2</ele>
        <time>2021-08-08T13:14:43Z</time>
      </trkpt>
      <trkpt lat="44.94771" lon="5.59757">
        <ele>863.5</ele>
        <time>2021-08-08T13:14:44Z</time>
      </trkpt>
      <trkpt lat="44.9477" lon="5.59751">
        <ele>863.8</ele>
        <time>2021-08-08T13:14:46Z</time>
      </trkpt>
      <trkpt lat="44.9477" lon="5.59747">
        <ele>863.9</ele>
        <time>2021-08-08T13:14:47Z</time>
      </trkpt>
      <trkpt lat="44.94769" lon="5.59743">
        <ele>864.1</ele>
        <time>2021-08-08T13:14:48Z</time>
      </trkpt>
      <trkpt lat="44.94769" lon="5.59739">
        <ele>864.3</ele>
        <time>2021-08-08T13:14:49Z</time>
      </trkpt>
      <trkpt lat="44.94769" lon="5.59732">
        <ele>864.6</ele>
        <time>2021-08-08T13:14:51Z</time>
      </trkpt>
      <trkpt lat="44.9477" lon="5.59726">
        <ele>864.8</ele>
        <time>2021-08-08T13:14:52Z</time>
      </trkpt>
      <trkpt lat="44.9477" lon="5.5972">
        <ele>865.1</ele>
        <time>2021-08-08T13:14:54Z</time>
      </trkpt>
      <trkpt lat="44.94771" lon="5.59715">
        <ele>865.3</ele>
        <time>2021-08-08T13:14:55Z</time>
      </trkpt>
      <trkpt lat="44.94772" lon="5.59711">
        <ele>865.5</ele>
        <time>2021-08-08T13:14:56Z</time>
      </trkpt>
      <trkpt lat="44.94772" lon="5.59706">
        <ele>865.7</ele>
        <time>2021-08-08T13:14:57Z</time>
      </trkpt>
      <trkpt lat="44.94773" lon="5.59701">
        <ele>865.9</ele>
        <time>2021-08-08T13:14:59Z</time>
      </trkpt>
      <trkpt lat="44.94775" lon="5.59696">
        <ele>866.1</ele>
        <time>2021-08-08T13:15:00Z</time>
      </trkpt>
      <trkpt lat="44.94775" lon="5.59692">
        <ele>866.2</ele>
        <time>2021-08-08T13:15:01Z</time>
      </trkpt>
      <trkpt lat="44.94777" lon="5.59688">
        <ele>866.4</ele>
        <time>2021-08-08T13:15:02Z</time>
      </trkpt>
      <trkpt lat="44.94778" lon="5.59684">
        <ele>866.6</ele>
        <time>2021-08-08T13:15:03Z</time>
      </trkpt>
      <trkpt lat="44.9478" lon="5.59679">
        <ele>866.8</ele>
        <time>2021-08-08T13:15:05Z</time>
      </trkpt>
      <trkpt lat="44.94782" lon="5.59675">
        <ele>867</ele>
        <time>2021-08-08T13:15:06Z</time>
      </trkpt>
      <trkpt lat="44.94783" lon="5.59671">
        <ele>867.2</ele>
        <time>2021-08-08T13:15:07Z</time>
      </trkpt>
      <trkpt lat="44.94785" lon="5.59666">
        <ele>867.4</ele>
        <time>2021-08-08T13:15:09Z</time>
      </trkpt>
      <trkpt lat="44.94786" lon="5.59661">
        <ele>867.6</ele>
        <time>2021-08-08T13:15:10Z</time>
      </trkpt>
      <trkpt lat="44.94787" lon="5.59655">
        <ele>867.9</ele>
        <time>2021-08-08T13:15:12Z</time>
      </trkpt>
      <trkpt lat="44.94787" lon="5.59651">
        <ele>868</ele>
        <time>2021-08-08T13:15:13Z</time>
      </trkpt>
      <trkpt lat="44.94788" lon="5.59645">
        <ele>868.3</ele>
        <time>2021-08-08T13:15:14Z</time>
      </trkpt>
      <trkpt lat="44.94789" lon="5.59641">
        <ele>868.4</ele>
        <time>2021-08-08T13:15:16Z</time>
      </trkpt>
      <trkpt lat="44.94789" lon="5.59635">
        <ele>868.6</ele>
        <time>2021-08-08T13:15:17Z</time>
      </trkpt>
      <trkpt lat="44.94789" lon="5.5963">
        <ele>868.8</ele>
        <time>2021-08-08T13:15:18Z</time>
      </trkpt>
      <trkpt lat="44.94789" lon="5.59626">
        <ele>869</ele>
        <time>2021-08-08T13:15:19Z</time>
      </trkpt>
      <trkpt lat="44.9479" lon="5.59618">
        <ele>869.3</ele>
        <time>2021-08-08T13:15:21Z</time>
      </trkpt>
      <trkpt lat="44.9479" lon="5.59612">
        <ele>869.5</ele>
        <time>2021-08-08T13:15:22Z</time>
      </trkpt>
      <trkpt lat="44.9479" lon="5.59607">
        <ele>869.7</ele>
        <time>2021-08-08T13:15:23Z</time>
      </trkpt>
      <trkpt lat="44.9479" lon="5.59597">
        <ele>870</ele>
        <time>2021-08-08T13:15:25Z</time>
      </trkpt>
      <trkpt lat="44.9479" lon="5.59593">
        <ele>870.2</ele>
        <time>2021-08-08T13:15:27Z</time>
      </trkpt>
      <trkpt lat="44.9479" lon="5.59585">
        <ele>870.5</ele>
        <time>2021-08-08T13:15:28Z</time>
      </trkpt>
      <trkpt lat="44.94791" lon="5.59581">
        <ele>870.7</ele>
        <time>2021-08-08T13:15:29Z</time>
      </trkpt>
      <trkpt lat="44.94791" lon="5.59576">
        <ele>870.9</ele>
        <time>2021-08-08T13:15:30Z</time>
      </trkpt>
      <trkpt lat="44.94791" lon="5.59573">
        <ele>871.1</ele>
        <time>2021-08-08T13:15:31Z</time>
      </trkpt>
      <trkpt lat="44.94791" lon="5.59567">
        <ele>871.3</ele>
        <time>2021-08-08T13:15:33Z</time>
      </trkpt>
      <trkpt lat="44.94791" lon="5.59562">
        <ele>871.5</ele>
        <time>2021-08-08T13:15:34Z</time>
      </trkpt>
      <trkpt lat="44.94791" lon="5.5956">
        <ele>871.6</ele>
        <time>2021-08-08T13:15:35Z</time>
      </trkpt>
      <trkpt lat="44.94792" lon="5.59557">
        <ele>871.8</ele>
        <time>2021-08-08T13:15:36Z</time>
      </trkpt>
      <trkpt lat="44.94791" lon="5.59553">
        <ele>871.9</ele>
        <time>2021-08-08T13:15:38Z</time>
      </trkpt>
      <trkpt lat="44.94791" lon="5.59546">
        <ele>872.2</ele>
        <time>2021-08-08T13:15:39Z</time>
      </trkpt>
      <trkpt lat="44.94791" lon="5.59542">
        <ele>872.4</ele>
        <time>2021-08-08T13:15:40Z</time>
      </trkpt>
      <trkpt lat="44.94791" lon="5.59537">
        <ele>872.5</ele>
        <time>2021-08-08T13:15:41Z</time>
      </trkpt>
      <trkpt lat="44.9479" lon="5.59528">
        <ele>872.9</ele>
        <time>2021-08-08T13:15:43Z</time>
      </trkpt>
      <trkpt lat="44.9479" lon="5.59524">
        <ele>873</ele>
        <time>2021-08-08T13:15:44Z</time>
      </trkpt>
      <trkpt lat="44.94789" lon="5.5952">
        <ele>873.2</ele>
        <time>2021-08-08T13:15:46Z</time>
      </trkpt>
      <trkpt lat="44.94789" lon="5.59516">
        <ele>873.4</ele>
        <time>2021-08-08T13:15:47Z</time>
      </trkpt>
      <trkpt lat="44.94789" lon="5.59511">
        <ele>873.5</ele>
        <time>2021-08-08T13:15:48Z</time>
      </trkpt>
      <trkpt lat="44.94788" lon="5.59504">
        <ele>873.9</ele>
        <time>2021-08-08T13:15:49Z</time>
      </trkpt>
      <trkpt lat="44.94788" lon="5.59499">
        <ele>874.1</ele>
        <time>2021-08-08T13:15:51Z</time>
      </trkpt>
      <trkpt lat="44.94788" lon="5.59494">
        <ele>874.3</ele>
        <time>2021-08-08T13:15:52Z</time>
      </trkpt>
      <trkpt lat="44.94788" lon="5.59489">
        <ele>874.6</ele>
        <time>2021-08-08T13:15:53Z</time>
      </trkpt>
      <trkpt lat="44.94788" lon="5.59485">
        <ele>874.8</ele>
        <time>2021-08-08T13:15:55Z</time>
      </trkpt>
      <trkpt lat="44.94788" lon="5.5948">
        <ele>875</ele>
        <time>2021-08-08T13:15:56Z</time>
      </trkpt>
      <trkpt lat="44.94789" lon="5.59475">
        <ele>875.3</ele>
        <time>2021-08-08T13:15:57Z</time>
      </trkpt>
      <trkpt lat="44.9479" lon="5.5947">
        <ele>875.5</ele>
        <time>2021-08-08T13:15:58Z</time>
      </trkpt>
      <trkpt lat="44.94791" lon="5.59464">
        <ele>875.9</ele>
        <time>2021-08-08T13:15:59Z</time>
      </trkpt>
      <trkpt lat="44.94792" lon="5.59456">
        <ele>876.3</ele>
        <time>2021-08-08T13:16:00Z</time>
      </trkpt>
      <trkpt lat="44.94794" lon="5.59447">
        <ele>876.7</ele>
        <time>2021-08-08T13:16:02Z</time>
      </trkpt>
      <trkpt lat="44.94796" lon="5.5944">
        <ele>877.1</ele>
        <time>2021-08-08T13:16:03Z</time>
      </trkpt>
      <trkpt lat="44.94798" lon="5.59432">
        <ele>877.6</ele>
        <time>2021-08-08T13:16:05Z</time>
      </trkpt>
      <trkpt lat="44.94799" lon="5.59423">
        <ele>878</ele>
        <time>2021-08-08T13:16:06Z</time>
      </trkpt>
      <trkpt lat="44.948" lon="5.59418">
        <ele>878.3</ele>
        <time>2021-08-08T13:16:07Z</time>
      </trkpt>
      <trkpt lat="44.94801" lon="5.59413">
        <ele>878.6</ele>
        <time>2021-08-08T13:16:08Z</time>
      </trkpt>
      <trkpt lat="44.94802" lon="5.59407">
        <ele>878.9</ele>
        <time>2021-08-08T13:16:09Z</time>
      </trkpt>
      <trkpt lat="44.94804" lon="5.59398">
        <ele>879.3</ele>
        <time>2021-08-08T13:16:11Z</time>
      </trkpt>
      <trkpt lat="44.94805" lon="5.59393">
        <ele>879.6</ele>
        <time>2021-08-08T13:16:13Z</time>
      </trkpt>
      <trkpt lat="44.94806" lon="5.59389">
        <ele>879.8</ele>
        <time>2021-08-08T13:16:14Z</time>
      </trkpt>
      <trkpt lat="44.94807" lon="5.59384">
        <ele>880</ele>
        <time>2021-08-08T13:16:15Z</time>
      </trkpt>
      <trkpt lat="44.94808" lon="5.5938">
        <ele>880.2</ele>
        <time>2021-08-08T13:16:16Z</time>
      </trkpt>
      <trkpt lat="44.94808" lon="5.59376">
        <ele>880.4</ele>
        <time>2021-08-08T13:16:17Z</time>
      </trkpt>
      <trkpt lat="44.9481" lon="5.59369">
        <ele>880.7</ele>
        <time>2021-08-08T13:16:19Z</time>
      </trkpt>
      <trkpt lat="44.94811" lon="5.59364">
        <ele>880.9</ele>
        <time>2021-08-08T13:16:20Z</time>
      </trkpt>
      <trkpt lat="44.94811" lon="5.59359">
        <ele>881.1</ele>
        <time>2021-08-08T13:16:21Z</time>
      </trkpt>
      <trkpt lat="44.94812" lon="5.59355">
        <ele>881.3</ele>
        <time>2021-08-08T13:16:22Z</time>
      </trkpt>
      <trkpt lat="44.94812" lon="5.5935">
        <ele>881.5</ele>
        <time>2021-08-08T13:16:23Z</time>
      </trkpt>
      <trkpt lat="44.94812" lon="5.59347">
        <ele>881.6</ele>
        <time>2021-08-08T13:16:24Z</time>
      </trkpt>
      <trkpt lat="44.94813" lon="5.59343">
        <ele>881.8</ele>
        <time>2021-08-08T13:16:25Z</time>
      </trkpt>
      <trkpt lat="44.94814" lon="5.59332">
        <ele>882.2</ele>
        <time>2021-08-08T13:16:27Z</time>
      </trkpt>
      <trkpt lat="44.94814" lon="5.59326">
        <ele>882.4</ele>
        <time>2021-08-08T13:16:29Z</time>
      </trkpt>
      <trkpt lat="44.94814" lon="5.59321">
        <ele>882.6</ele>
        <time>2021-08-08T13:16:30Z</time>
      </trkpt>
      <trkpt lat="44.94815" lon="5.59317">
        <ele>882.8</ele>
        <time>2021-08-08T13:16:31Z</time>
      </trkpt>
      <trkpt lat="44.94815" lon="5.59311">
        <ele>883</ele>
        <time>2021-08-08T13:16:33Z</time>
      </trkpt>
      <trkpt lat="44.94815" lon="5.59306">
        <ele>883.2</ele>
        <time>2021-08-08T13:16:34Z</time>
      </trkpt>
      <trkpt lat="44.94815" lon="5.59304">
        <ele>883.3</ele>
        <time>2021-08-08T13:16:35Z</time>
      </trkpt>
      <trkpt lat="44.94815" lon="5.593">
        <ele>883.5</ele>
        <time>2021-08-08T13:16:36Z</time>
      </trkpt>
      <trkpt lat="44.94816" lon="5.59295">
        <ele>883.7</ele>
        <time>2021-08-08T13:16:37Z</time>
      </trkpt>
      <trkpt lat="44.94816" lon="5.59293">
        <ele>883.8</ele>
        <time>2021-08-08T13:16:38Z</time>
      </trkpt>
      <trkpt lat="44.94816" lon="5.59289">
        <ele>884</ele>
        <time>2021-08-08T13:16:40Z</time>
      </trkpt>
      <trkpt lat="44.94816" lon="5.59285">
        <ele>884.2</ele>
        <time>2021-08-08T13:16:41Z</time>
      </trkpt>
      <trkpt lat="44.94817" lon="5.59279">
        <ele>884.4</ele>
        <time>2021-08-08T13:16:42Z</time>
      </trkpt>
      <trkpt lat="44.94817" lon="5.59274">
        <ele>884.7</ele>
        <time>2021-08-08T13:16:44Z</time>
      </trkpt>
      <trkpt lat="44.94818" lon="5.5927">
        <ele>884.9</ele>
        <time>2021-08-08T13:16:45Z</time>
      </trkpt>
      <trkpt lat="44.94818" lon="5.59265">
        <ele>885.1</ele>
        <time>2021-08-08T13:16:47Z</time>
      </trkpt>
      <trkpt lat="44.94818" lon="5.59261">
        <ele>885.3</ele>
        <time>2021-08-08T13:16:48Z</time>
      </trkpt>
      <trkpt lat="44.94818" lon="5.59256">
        <ele>885.6</ele>
        <time>2021-08-08T13:16:49Z</time>
      </trkpt>
      <trkpt lat="44.94818" lon="5.59251">
        <ele>885.8</ele>
        <time>2021-08-08T13:16:50Z</time>
      </trkpt>
      <trkpt lat="44.94818" lon="5.59246">
        <ele>886</ele>
        <time>2021-08-08T13:16:51Z</time>
      </trkpt>
      <trkpt lat="44.94819" lon="5.59239">
        <ele>886.3</ele>
        <time>2021-08-08T13:16:53Z</time>
      </trkpt>
      <trkpt lat="44.9482" lon="5.59234">
        <ele>886.5</ele>
        <time>2021-08-08T13:16:54Z</time>
      </trkpt>
      <trkpt lat="44.9482" lon="5.59228">
        <ele>886.7</ele>
        <time>2021-08-08T13:16:56Z</time>
      </trkpt>
      <trkpt lat="44.94821" lon="5.59223">
        <ele>886.7</ele>
        <time>2021-08-08T13:16:57Z</time>
      </trkpt>
      <trkpt lat="44.94821" lon="5.5922">
        <ele>886.7</ele>
        <time>2021-08-08T13:16:58Z</time>
      </trkpt>
      <trkpt lat="44.94822" lon="5.59215">
        <ele>886.8</ele>
        <time>2021-08-08T13:17:00Z</time>
      </trkpt>
      <trkpt lat="44.94823" lon="5.5921">
        <ele>886.8</ele>
        <time>2021-08-08T13:17:01Z</time>
      </trkpt>
      <trkpt lat="44.94823" lon="5.59204">
        <ele>886.9</ele>
        <time>2021-08-08T13:17:02Z</time>
      </trkpt>
      <trkpt lat="44.94823" lon="5.59197">
        <ele>887</ele>
        <time>2021-08-08T13:17:04Z</time>
      </trkpt>
      <trkpt lat="44.94824" lon="5.59189">
        <ele>887.3</ele>
        <time>2021-08-08T13:17:06Z</time>
      </trkpt>
      <trkpt lat="44.94824" lon="5.59184">
        <ele>887.6</ele>
        <time>2021-08-08T13:17:07Z</time>
      </trkpt>
      <trkpt lat="44.94823" lon="5.59177">
        <ele>887.8</ele>
        <time>2021-08-08T13:17:08Z</time>
      </trkpt>
      <trkpt lat="44.94823" lon="5.59172">
        <ele>888.1</ele>
        <time>2021-08-08T13:17:09Z</time>
      </trkpt>
      <trkpt lat="44.94822" lon="5.59166">
        <ele>888.3</ele>
        <time>2021-08-08T13:17:10Z</time>
      </trkpt>
      <trkpt lat="44.94821" lon="5.59158">
        <ele>888.7</ele>
        <time>2021-08-08T13:17:12Z</time>
      </trkpt>
      <trkpt lat="44.94821" lon="5.59152">
        <ele>888.9</ele>
        <time>2021-08-08T13:17:13Z</time>
      </trkpt>
      <trkpt lat="44.94821" lon="5.59145">
        <ele>889.2</ele>
        <time>2021-08-08T13:17:14Z</time>
      </trkpt>
      <trkpt lat="44.9482" lon="5.5914">
        <ele>889.4</ele>
        <time>2021-08-08T13:17:15Z</time>
      </trkpt>
      <trkpt lat="44.94819" lon="5.59135">
        <ele>889.6</ele>
        <time>2021-08-08T13:17:16Z</time>
      </trkpt>
      <trkpt lat="44.94816" lon="5.59126">
        <ele>890</ele>
        <time>2021-08-08T13:17:18Z</time>
      </trkpt>
      <trkpt lat="44.94813" lon="5.59118">
        <ele>890.4</ele>
        <time>2021-08-08T13:17:21Z</time>
      </trkpt>
      <trkpt lat="44.94811" lon="5.59112">
        <ele>890.7</ele>
        <time>2021-08-08T13:17:22Z</time>
      </trkpt>
      <trkpt lat="44.94809" lon="5.59104">
        <ele>891</ele>
        <time>2021-08-08T13:17:23Z</time>
      </trkpt>
      <trkpt lat="44.94807" lon="5.59098">
        <ele>891.3</ele>
        <time>2021-08-08T13:17:25Z</time>
      </trkpt>
      <trkpt lat="44.94805" lon="5.59091">
        <ele>891.7</ele>
        <time>2021-08-08T13:17:26Z</time>
      </trkpt>
      <trkpt lat="44.94803" lon="5.59085">
        <ele>891.9</ele>
        <time>2021-08-08T13:17:28Z</time>
      </trkpt>
      <trkpt lat="44.94801" lon="5.5908">
        <ele>892.1</ele>
        <time>2021-08-08T13:17:29Z</time>
      </trkpt>
      <trkpt lat="44.94799" lon="5.59073">
        <ele>892.4</ele>
        <time>2021-08-08T13:17:30Z</time>
      </trkpt>
      <trkpt lat="44.94798" lon="5.59067">
        <ele>892.6</ele>
        <time>2021-08-08T13:17:31Z</time>
      </trkpt>
      <trkpt lat="44.94797" lon="5.59063">
        <ele>892.8</ele>
        <time>2021-08-08T13:17:32Z</time>
      </trkpt>
      <trkpt lat="44.94794" lon="5.59056">
        <ele>893.1</ele>
        <time>2021-08-08T13:17:34Z</time>
      </trkpt>
      <trkpt lat="44.94792" lon="5.5905">
        <ele>893.4</ele>
        <time>2021-08-08T13:17:35Z</time>
      </trkpt>
      <trkpt lat="44.9479" lon="5.59045">
        <ele>893.6</ele>
        <time>2021-08-08T13:17:36Z</time>
      </trkpt>
      <trkpt lat="44.94788" lon="5.59039">
        <ele>893.9</ele>
        <time>2021-08-08T13:17:38Z</time>
      </trkpt>
      <trkpt lat="44.94785" lon="5.59033">
        <ele>894.2</ele>
        <time>2021-08-08T13:17:39Z</time>
      </trkpt>
      <trkpt lat="44.94783" lon="5.59025">
        <ele>894.5</ele>
        <time>2021-08-08T13:17:41Z</time>
      </trkpt>
      <trkpt lat="44.94782" lon="5.5902">
        <ele>894.8</ele>
        <time>2021-08-08T13:17:42Z</time>
      </trkpt>
      <trkpt lat="44.9478" lon="5.59015">
        <ele>895</ele>
        <time>2021-08-08T13:17:43Z</time>
      </trkpt>
      <trkpt lat="44.94779" lon="5.59009">
        <ele>895.3</ele>
        <time>2021-08-08T13:17:44Z</time>
      </trkpt>
      <trkpt lat="44.94777" lon="5.59001">
        <ele>895.7</ele>
        <time>2021-08-08T13:17:46Z</time>
      </trkpt>
      <trkpt lat="44.94776" lon="5.58997">
        <ele>895.9</ele>
        <time>2021-08-08T13:17:47Z</time>
      </trkpt>
      <trkpt lat="44.94775" lon="5.58992">
        <ele>896.1</ele>
        <time>2021-08-08T13:17:48Z</time>
      </trkpt>
      <trkpt lat="44.94775" lon="5.58987">
        <ele>896.3</ele>
        <time>2021-08-08T13:17:49Z</time>
      </trkpt>
      <trkpt lat="44.94774" lon="5.58981">
        <ele>896.6</ele>
        <time>2021-08-08T13:17:51Z</time>
      </trkpt>
      <trkpt lat="44.94774" lon="5.58975">
        <ele>896.8</ele>
        <time>2021-08-08T13:17:52Z</time>
      </trkpt>
      <trkpt lat="44.94773" lon="5.5897">
        <ele>897.1</ele>
        <time>2021-08-08T13:17:54Z</time>
      </trkpt>
      <trkpt lat="44.94772" lon="5.58965">
        <ele>897.3</ele>
        <time>2021-08-08T13:17:55Z</time>
      </trkpt>
      <trkpt lat="44.94771" lon="5.5896">
        <ele>897.5</ele>
        <time>2021-08-08T13:17:56Z</time>
      </trkpt>
      <trkpt lat="44.94771" lon="5.58958">
        <ele>897.6</ele>
        <time>2021-08-08T13:17:57Z</time>
      </trkpt>
      <trkpt lat="44.9477" lon="5.58951">
        <ele>897.9</ele>
        <time>2021-08-08T13:18:00Z</time>
      </trkpt>
      <trkpt lat="44.94771" lon="5.58945">
        <ele>898.2</ele>
        <time>2021-08-08T13:18:01Z</time>
      </trkpt>
      <trkpt lat="44.94771" lon="5.58936">
        <ele>898.6</ele>
        <time>2021-08-08T13:18:03Z</time>
      </trkpt>
      <trkpt lat="44.94771" lon="5.58932">
        <ele>898.7</ele>
        <time>2021-08-08T13:18:04Z</time>
      </trkpt>
      <trkpt lat="44.94771" lon="5.58925">
        <ele>899</ele>
        <time>2021-08-08T13:18:06Z</time>
      </trkpt>
      <trkpt lat="44.94772" lon="5.5892">
        <ele>899.3</ele>
        <time>2021-08-08T13:18:07Z</time>
      </trkpt>
      <trkpt lat="44.94772" lon="5.58915">
        <ele>899.5</ele>
        <time>2021-08-08T13:18:08Z</time>
      </trkpt>
      <trkpt lat="44.94773" lon="5.58909">
        <ele>899.8</ele>
        <time>2021-08-08T13:18:10Z</time>
      </trkpt>
      <trkpt lat="44.94774" lon="5.58905">
        <ele>900</ele>
        <time>2021-08-08T13:18:11Z</time>
      </trkpt>
      <trkpt lat="44.94774" lon="5.58901">
        <ele>900.2</ele>
        <time>2021-08-08T13:18:12Z</time>
      </trkpt>
      <trkpt lat="44.94774" lon="5.58895">
        <ele>900.5</ele>
        <time>2021-08-08T13:18:13Z</time>
      </trkpt>
      <trkpt lat="44.94774" lon="5.58893">
        <ele>900.6</ele>
        <time>2021-08-08T13:18:14Z</time>
      </trkpt>
      <trkpt lat="44.94773" lon="5.58889">
        <ele>900.8</ele>
        <time>2021-08-08T13:18:16Z</time>
      </trkpt>
      <trkpt lat="44.94773" lon="5.58884">
        <ele>901</ele>
        <time>2021-08-08T13:18:17Z</time>
      </trkpt>
      <trkpt lat="44.94772" lon="5.58878">
        <ele>901.4</ele>
        <time>2021-08-08T13:18:19Z</time>
      </trkpt>
      <trkpt lat="44.94771" lon="5.58874">
        <ele>901.5</ele>
        <time>2021-08-08T13:18:20Z</time>
      </trkpt>
      <trkpt lat="44.9477" lon="5.5887">
        <ele>901.8</ele>
        <time>2021-08-08T13:18:21Z</time>
      </trkpt>
      <trkpt lat="44.9477" lon="5.58865">
        <ele>902</ele>
        <time>2021-08-08T13:18:22Z</time>
      </trkpt>
      <trkpt lat="44.94769" lon="5.5886">
        <ele>902.2</ele>
        <time>2021-08-08T13:18:23Z</time>
      </trkpt>
      <trkpt lat="44.94768" lon="5.58856">
        <ele>902.5</ele>
        <time>2021-08-08T13:18:24Z</time>
      </trkpt>
      <trkpt lat="44.94767" lon="5.58852">
        <ele>902.7</ele>
        <time>2021-08-08T13:18:25Z</time>
      </trkpt>
      <trkpt lat="44.94766" lon="5.58846">
        <ele>902.9</ele>
        <time>2021-08-08T13:18:27Z</time>
      </trkpt>
      <trkpt lat="44.94766" lon="5.5884">
        <ele>903.2</ele>
        <time>2021-08-08T13:18:28Z</time>
      </trkpt>
      <trkpt lat="44.94766" lon="5.58836">
        <ele>903.4</ele>
        <time>2021-08-08T13:18:29Z</time>
      </trkpt>
      <trkpt lat="44.94765" lon="5.5883">
        <ele>903.7</ele>
        <time>2021-08-08T13:18:31Z</time>
      </trkpt>
      <trkpt lat="44.94765" lon="5.58826">
        <ele>903.9</ele>
        <time>2021-08-08T13:18:32Z</time>
      </trkpt>
      <trkpt lat="44.94765" lon="5.5882">
        <ele>904.2</ele>
        <time>2021-08-08T13:18:33Z</time>
      </trkpt>
      <trkpt lat="44.94765" lon="5.58819">
        <ele>904.3</ele>
        <time>2021-08-08T13:18:34Z</time>
      </trkpt>
      <trkpt lat="44.94765" lon="5.58812">
        <ele>904.6</ele>
        <time>2021-08-08T13:18:36Z</time>
      </trkpt>
      <trkpt lat="44.94765" lon="5.58808">
        <ele>904.8</ele>
        <time>2021-08-08T13:18:37Z</time>
      </trkpt>
      <trkpt lat="44.94766" lon="5.58803">
        <ele>905</ele>
        <time>2021-08-08T13:18:38Z</time>
      </trkpt>
      <trkpt lat="44.94768" lon="5.58797">
        <ele>905.3</ele>
        <time>2021-08-08T13:18:40Z</time>
      </trkpt>
      <trkpt lat="44.9477" lon="5.58791">
        <ele>905.6</ele>
        <time>2021-08-08T13:18:41Z</time>
      </trkpt>
      <trkpt lat="44.94772" lon="5.58786">
        <ele>906</ele>
        <time>2021-08-08T13:18:43Z</time>
      </trkpt>
      <trkpt lat="44.94774" lon="5.5878">
        <ele>906.2</ele>
        <time>2021-08-08T13:18:44Z</time>
      </trkpt>
      <trkpt lat="44.94776" lon="5.58777">
        <ele>906.5</ele>
        <time>2021-08-08T13:18:45Z</time>
      </trkpt>
      <trkpt lat="44.94777" lon="5.58773">
        <ele>906.7</ele>
        <time>2021-08-08T13:18:46Z</time>
      </trkpt>
      <trkpt lat="44.9478" lon="5.58764">
        <ele>907.2</ele>
        <time>2021-08-08T13:18:48Z</time>
      </trkpt>
      <trkpt lat="44.94782" lon="5.5876">
        <ele>907.5</ele>
        <time>2021-08-08T13:18:49Z</time>
      </trkpt>
      <trkpt lat="44.94784" lon="5.58755">
        <ele>907.7</ele>
        <time>2021-08-08T13:18:50Z</time>
      </trkpt>
      <trkpt lat="44.94787" lon="5.58747">
        <ele>908.2</ele>
        <time>2021-08-08T13:18:52Z</time>
      </trkpt>
      <trkpt lat="44.94788" lon="5.58743">
        <ele>908.5</ele>
        <time>2021-08-08T13:18:53Z</time>
      </trkpt>
      <trkpt lat="44.9479" lon="5.58738">
        <ele>908.8</ele>
        <time>2021-08-08T13:18:54Z</time>
      </trkpt>
      <trkpt lat="44.94793" lon="5.5873">
        <ele>909.2</ele>
        <time>2021-08-08T13:18:56Z</time>
      </trkpt>
      <trkpt lat="44.94794" lon="5.58726">
        <ele>909.5</ele>
        <time>2021-08-08T13:18:57Z</time>
      </trkpt>
      <trkpt lat="44.94796" lon="5.58721">
        <ele>909.7</ele>
        <time>2021-08-08T13:18:58Z</time>
      </trkpt>
      <trkpt lat="44.94797" lon="5.58717">
        <ele>910</ele>
        <time>2021-08-08T13:19:00Z</time>
      </trkpt>
      <trkpt lat="44.94798" lon="5.58712">
        <ele>910.2</ele>
        <time>2021-08-08T13:19:01Z</time>
      </trkpt>
      <trkpt lat="44.948" lon="5.58706">
        <ele>910.6</ele>
        <time>2021-08-08T13:19:02Z</time>
      </trkpt>
      <trkpt lat="44.94802" lon="5.58702">
        <ele>910.9</ele>
        <time>2021-08-08T13:19:03Z</time>
      </trkpt>
      <trkpt lat="44.94805" lon="5.58695">
        <ele>911.3</ele>
        <time>2021-08-08T13:19:05Z</time>
      </trkpt>
      <trkpt lat="44.94806" lon="5.58692">
        <ele>911.5</ele>
        <time>2021-08-08T13:19:06Z</time>
      </trkpt>
      <trkpt lat="44.94808" lon="5.58686">
        <ele>911.8</ele>
        <time>2021-08-08T13:19:08Z</time>
      </trkpt>
      <trkpt lat="44.94809" lon="5.58681">
        <ele>912.1</ele>
        <time>2021-08-08T13:19:09Z</time>
      </trkpt>
      <trkpt lat="44.9481" lon="5.58677">
        <ele>912.3</ele>
        <time>2021-08-08T13:19:10Z</time>
      </trkpt>
      <trkpt lat="44.94811" lon="5.58673">
        <ele>912.5</ele>
        <time>2021-08-08T13:19:11Z</time>
      </trkpt>
      <trkpt lat="44.94811" lon="5.58666">
        <ele>912.9</ele>
        <time>2021-08-08T13:19:13Z</time>
      </trkpt>
      <trkpt lat="44.94811" lon="5.58662">
        <ele>913.1</ele>
        <time>2021-08-08T13:19:14Z</time>
      </trkpt>
      <trkpt lat="44.9481" lon="5.58656">
        <ele>913.4</ele>
        <time>2021-08-08T13:19:16Z</time>
      </trkpt>
      <trkpt lat="44.94809" lon="5.58651">
        <ele>913.7</ele>
        <time>2021-08-08T13:19:17Z</time>
      </trkpt>
      <trkpt lat="44.94807" lon="5.58646">
        <ele>914</ele>
        <time>2021-08-08T13:19:18Z</time>
      </trkpt>
      <trkpt lat="44.94806" lon="5.58642">
        <ele>914.2</ele>
        <time>2021-08-08T13:19:19Z</time>
      </trkpt>
      <trkpt lat="44.94805" lon="5.58638">
        <ele>914.4</ele>
        <time>2021-08-08T13:19:20Z</time>
      </trkpt>
      <trkpt lat="44.94804" lon="5.58634">
        <ele>914.7</ele>
        <time>2021-08-08T13:19:22Z</time>
      </trkpt>
      <trkpt lat="44.94803" lon="5.5863">
        <ele>914.9</ele>
        <time>2021-08-08T13:19:23Z</time>
      </trkpt>
      <trkpt lat="44.94802" lon="5.58626">
        <ele>915.1</ele>
        <time>2021-08-08T13:19:24Z</time>
      </trkpt>
      <trkpt lat="44.94801" lon="5.58622">
        <ele>915.3</ele>
        <time>2021-08-08T13:19:25Z</time>
      </trkpt>
      <trkpt lat="44.948" lon="5.58619">
        <ele>915.5</ele>
        <time>2021-08-08T13:19:26Z</time>
      </trkpt>
      <trkpt lat="44.94799" lon="5.58614">
        <ele>915.8</ele>
        <time>2021-08-08T13:19:27Z</time>
      </trkpt>
      <trkpt lat="44.94797" lon="5.58609">
        <ele>916.1</ele>
        <time>2021-08-08T13:19:29Z</time>
      </trkpt>
      <trkpt lat="44.94796" lon="5.58602">
        <ele>916.5</ele>
        <time>2021-08-08T13:19:30Z</time>
      </trkpt>
      <trkpt lat="44.94795" lon="5.58593">
        <ele>916.9</ele>
        <time>2021-08-08T13:19:32Z</time>
      </trkpt>
      <trkpt lat="44.94796" lon="5.58585">
        <ele>917.2</ele>
        <time>2021-08-08T13:19:34Z</time>
      </trkpt>
      <trkpt lat="44.94797" lon="5.58581">
        <ele>917.4</ele>
        <time>2021-08-08T13:19:35Z</time>
      </trkpt>
      <trkpt lat="44.94798" lon="5.58577">
        <ele>917.6</ele>
        <time>2021-08-08T13:19:36Z</time>
      </trkpt>
      <trkpt lat="44.94799" lon="5.58573">
        <ele>917.7</ele>
        <time>2021-08-08T13:19:37Z</time>
      </trkpt>
      <trkpt lat="44.94802" lon="5.58568">
        <ele>917.9</ele>
        <time>2021-08-08T13:19:39Z</time>
      </trkpt>
      <trkpt lat="44.94804" lon="5.58565">
        <ele>918.1</ele>
        <time>2021-08-08T13:19:40Z</time>
      </trkpt>
      <trkpt lat="44.94807" lon="5.58562">
        <ele>918.2</ele>
        <time>2021-08-08T13:19:41Z</time>
      </trkpt>
      <trkpt lat="44.94808" lon="5.58561">
        <ele>918.3</ele>
        <time>2021-08-08T13:19:42Z</time>
      </trkpt>
      <trkpt lat="44.94812" lon="5.58558">
        <ele>918.5</ele>
        <time>2021-08-08T13:19:43Z</time>
      </trkpt>
      <trkpt lat="44.94813" lon="5.58557">
        <ele>918.5</ele>
        <time>2021-08-08T13:19:44Z</time>
      </trkpt>
      <trkpt lat="44.94818" lon="5.58554">
        <ele>918.7</ele>
        <time>2021-08-08T13:19:46Z</time>
      </trkpt>
      <trkpt lat="44.94821" lon="5.58553">
        <ele>918.8</ele>
        <time>2021-08-08T13:19:47Z</time>
      </trkpt>
      <trkpt lat="44.94823" lon="5.58551">
        <ele>919</ele>
        <time>2021-08-08T13:19:48Z</time>
      </trkpt>
      <trkpt lat="44.94827" lon="5.58547">
        <ele>919.2</ele>
        <time>2021-08-08T13:19:50Z</time>
      </trkpt>
      <trkpt lat="44.9483" lon="5.58545">
        <ele>919.3</ele>
        <time>2021-08-08T13:19:52Z</time>
      </trkpt>
      <trkpt lat="44.94833" lon="5.58542">
        <ele>919.6</ele>
        <time>2021-08-08T13:19:53Z</time>
      </trkpt>
      <trkpt lat="44.94836" lon="5.58537">
        <ele>919.8</ele>
        <time>2021-08-08T13:19:54Z</time>
      </trkpt>
      <trkpt lat="44.94838" lon="5.58534">
        <ele>919.9</ele>
        <time>2021-08-08T13:19:55Z</time>
      </trkpt>
      <trkpt lat="44.9484" lon="5.58531">
        <ele>920.1</ele>
        <time>2021-08-08T13:19:56Z</time>
      </trkpt>
      <trkpt lat="44.94842" lon="5.58526">
        <ele>920.3</ele>
        <time>2021-08-08T13:19:58Z</time>
      </trkpt>
      <trkpt lat="44.94843" lon="5.58522">
        <ele>920.5</ele>
        <time>2021-08-08T13:19:59Z</time>
      </trkpt>
      <trkpt lat="44.94845" lon="5.58519">
        <ele>920.7</ele>
        <time>2021-08-08T13:20:00Z</time>
      </trkpt>
      <trkpt lat="44.94847" lon="5.58514">
        <ele>920.9</ele>
        <time>2021-08-08T13:20:01Z</time>
      </trkpt>
      <trkpt lat="44.94847" lon="5.58512">
        <ele>921.1</ele>
        <time>2021-08-08T13:20:02Z</time>
      </trkpt>
      <trkpt lat="44.94849" lon="5.58506">
        <ele>921.4</ele>
        <time>2021-08-08T13:20:04Z</time>
      </trkpt>
      <trkpt lat="44.9485" lon="5.58503">
        <ele>921.5</ele>
        <time>2021-08-08T13:20:05Z</time>
      </trkpt>
      <trkpt lat="44.9485" lon="5.585">
        <ele>921.6</ele>
        <time>2021-08-08T13:20:06Z</time>
      </trkpt>
      <trkpt lat="44.94851" lon="5.58495">
        <ele>921.9</ele>
        <time>2021-08-08T13:20:07Z</time>
      </trkpt>
      <trkpt lat="44.94851" lon="5.58494">
        <ele>922</ele>
        <time>2021-08-08T13:20:08Z</time>
      </trkpt>
      <trkpt lat="44.94852" lon="5.5849">
        <ele>922.2</ele>
        <time>2021-08-08T13:20:10Z</time>
      </trkpt>
      <trkpt lat="44.94853" lon="5.58485">
        <ele>922.4</ele>
        <time>2021-08-08T13:20:11Z</time>
      </trkpt>
      <trkpt lat="44.94853" lon="5.58481">
        <ele>922.6</ele>
        <time>2021-08-08T13:20:12Z</time>
      </trkpt>
      <trkpt lat="44.94853" lon="5.58477">
        <ele>922.8</ele>
        <time>2021-08-08T13:20:13Z</time>
      </trkpt>
      <trkpt lat="44.94853" lon="5.58472">
        <ele>923</ele>
        <time>2021-08-08T13:20:14Z</time>
      </trkpt>
      <trkpt lat="44.94853" lon="5.58468">
        <ele>923.2</ele>
        <time>2021-08-08T13:20:16Z</time>
      </trkpt>
      <trkpt lat="44.94852" lon="5.58461">
        <ele>923.5</ele>
        <time>2021-08-08T13:20:17Z</time>
      </trkpt>
      <trkpt lat="44.94852" lon="5.58457">
        <ele>923.7</ele>
        <time>2021-08-08T13:20:18Z</time>
      </trkpt>
      <trkpt lat="44.94852" lon="5.5845">
        <ele>924</ele>
        <time>2021-08-08T13:20:20Z</time>
      </trkpt>
      <trkpt lat="44.94852" lon="5.58443">
        <ele>924.4</ele>
        <time>2021-08-08T13:20:21Z</time>
      </trkpt>
      <trkpt lat="44.94852" lon="5.58436">
        <ele>924.7</ele>
        <time>2021-08-08T13:20:23Z</time>
      </trkpt>
      <trkpt lat="44.94853" lon="5.58429">
        <ele>925.1</ele>
        <time>2021-08-08T13:20:24Z</time>
      </trkpt>
      <trkpt lat="44.94854" lon="5.58425">
        <ele>925.4</ele>
        <time>2021-08-08T13:20:25Z</time>
      </trkpt>
      <trkpt lat="44.94857" lon="5.58417">
        <ele>925.8</ele>
        <time>2021-08-08T13:20:27Z</time>
      </trkpt>
      <trkpt lat="44.9486" lon="5.58412">
        <ele>926.1</ele>
        <time>2021-08-08T13:20:29Z</time>
      </trkpt>
      <trkpt lat="44.94862" lon="5.58408">
        <ele>926.4</ele>
        <time>2021-08-08T13:20:30Z</time>
      </trkpt>
      <trkpt lat="44.94864" lon="5.58405">
        <ele>926.6</ele>
        <time>2021-08-08T13:20:31Z</time>
      </trkpt>
      <trkpt lat="44.94867" lon="5.58402">
        <ele>926.8</ele>
        <time>2021-08-08T13:20:32Z</time>
      </trkpt>
      <trkpt lat="44.94869" lon="5.58399">
        <ele>927.1</ele>
        <time>2021-08-08T13:20:33Z</time>
      </trkpt>
      <trkpt lat="44.94872" lon="5.58394">
        <ele>927.4</ele>
        <time>2021-08-08T13:20:35Z</time>
      </trkpt>
      <trkpt lat="44.94874" lon="5.58391">
        <ele>927.6</ele>
        <time>2021-08-08T13:20:36Z</time>
      </trkpt>
      <trkpt lat="44.94878" lon="5.58387">
        <ele>927.9</ele>
        <time>2021-08-08T13:20:38Z</time>
      </trkpt>
      <trkpt lat="44.9488" lon="5.58383">
        <ele>928.1</ele>
        <time>2021-08-08T13:20:39Z</time>
      </trkpt>
      <trkpt lat="44.94882" lon="5.58379">
        <ele>928.3</ele>
        <time>2021-08-08T13:20:40Z</time>
      </trkpt>
      <trkpt lat="44.94883" lon="5.58378">
        <ele>928.4</ele>
        <time>2021-08-08T13:20:41Z</time>
      </trkpt>
      <trkpt lat="44.94885" lon="5.58372">
        <ele>928.7</ele>
        <time>2021-08-08T13:20:43Z</time>
      </trkpt>
      <trkpt lat="44.94887" lon="5.58367">
        <ele>928.9</ele>
        <time>2021-08-08T13:20:44Z</time>
      </trkpt>
      <trkpt lat="44.94888" lon="5.58363">
        <ele>929.1</ele>
        <time>2021-08-08T13:20:45Z</time>
      </trkpt>
      <trkpt lat="44.94889" lon="5.58359">
        <ele>929.4</ele>
        <time>2021-08-08T13:20:47Z</time>
      </trkpt>
      <trkpt lat="44.9489" lon="5.58352">
        <ele>929.7</ele>
        <time>2021-08-08T13:20:48Z</time>
      </trkpt>
      <trkpt lat="44.9489" lon="5.58344">
        <ele>930</ele>
        <time>2021-08-08T13:20:50Z</time>
      </trkpt>
      <trkpt lat="44.9489" lon="5.5834">
        <ele>930.2</ele>
        <time>2021-08-08T13:20:51Z</time>
      </trkpt>
      <trkpt lat="44.94889" lon="5.58337">
        <ele>930.4</ele>
        <time>2021-08-08T13:20:52Z</time>
      </trkpt>
      <trkpt lat="44.94889" lon="5.5833">
        <ele>930.7</ele>
        <time>2021-08-08T13:20:54Z</time>
      </trkpt>
      <trkpt lat="44.94888" lon="5.58325">
        <ele>931</ele>
        <time>2021-08-08T13:20:55Z</time>
      </trkpt>
      <trkpt lat="44.94887" lon="5.5832">
        <ele>931.2</ele>
        <time>2021-08-08T13:20:56Z</time>
      </trkpt>
      <trkpt lat="44.94886" lon="5.58315">
        <ele>931.5</ele>
        <time>2021-08-08T13:20:57Z</time>
      </trkpt>
      <trkpt lat="44.94885" lon="5.58308">
        <ele>931.8</ele>
        <time>2021-08-08T13:20:59Z</time>
      </trkpt>
      <trkpt lat="44.94885" lon="5.58303">
        <ele>932</ele>
        <time>2021-08-08T13:21:00Z</time>
      </trkpt>
      <trkpt lat="44.94885" lon="5.58298">
        <ele>932.2</ele>
        <time>2021-08-08T13:21:01Z</time>
      </trkpt>
      <trkpt lat="44.94885" lon="5.58294">
        <ele>932.4</ele>
        <time>2021-08-08T13:21:02Z</time>
      </trkpt>
      <trkpt lat="44.94886" lon="5.58287">
        <ele>932.7</ele>
        <time>2021-08-08T13:21:04Z</time>
      </trkpt>
      <trkpt lat="44.94888" lon="5.58283">
        <ele>932.9</ele>
        <time>2021-08-08T13:21:05Z</time>
      </trkpt>
      <trkpt lat="44.94891" lon="5.58279">
        <ele>933.1</ele>
        <time>2021-08-08T13:21:07Z</time>
      </trkpt>
      <trkpt lat="44.94894" lon="5.58276">
        <ele>933.2</ele>
        <time>2021-08-08T13:21:08Z</time>
      </trkpt>
      <trkpt lat="44.94896" lon="5.58273">
        <ele>933.4</ele>
        <time>2021-08-08T13:21:09Z</time>
      </trkpt>
      <trkpt lat="44.94899" lon="5.5827">
        <ele>933.5</ele>
        <time>2021-08-08T13:21:10Z</time>
      </trkpt>
      <trkpt lat="44.94901" lon="5.58267">
        <ele>933.6</ele>
        <time>2021-08-08T13:21:11Z</time>
      </trkpt>
      <trkpt lat="44.94903" lon="5.58263">
        <ele>933.8</ele>
        <time>2021-08-08T13:21:12Z</time>
      </trkpt>
      <trkpt lat="44.94905" lon="5.58259">
        <ele>933.9</ele>
        <time>2021-08-08T13:21:13Z</time>
      </trkpt>
      <trkpt lat="44.94907" lon="5.58253">
        <ele>934.1</ele>
        <time>2021-08-08T13:21:15Z</time>
      </trkpt>
      <trkpt lat="44.94908" lon="5.58247">
        <ele>934.2</ele>
        <time>2021-08-08T13:21:16Z</time>
      </trkpt>
      <trkpt lat="44.94909" lon="5.58242">
        <ele>934.3</ele>
        <time>2021-08-08T13:21:18Z</time>
      </trkpt>
      <trkpt lat="44.94909" lon="5.58236">
        <ele>934.4</ele>
        <time>2021-08-08T13:21:19Z</time>
      </trkpt>
      <trkpt lat="44.94909" lon="5.58228">
        <ele>934.6</ele>
        <time>2021-08-08T13:21:21Z</time>
      </trkpt>
      <trkpt lat="44.9491" lon="5.58223">
        <ele>934.7</ele>
        <time>2021-08-08T13:21:23Z</time>
      </trkpt>
      <trkpt lat="44.94912" lon="5.58219">
        <ele>934.8</ele>
        <time>2021-08-08T13:21:24Z</time>
      </trkpt>
      <trkpt lat="44.94914" lon="5.58215">
        <ele>934.9</ele>
        <time>2021-08-08T13:21:25Z</time>
      </trkpt>
      <trkpt lat="44.94916" lon="5.5821">
        <ele>935</ele>
        <time>2021-08-08T13:21:27Z</time>
      </trkpt>
      <trkpt lat="44.94918" lon="5.58207">
        <ele>935</ele>
        <time>2021-08-08T13:21:28Z</time>
      </trkpt>
      <trkpt lat="44.9492" lon="5.58202">
        <ele>935.2</ele>
        <time>2021-08-08T13:21:29Z</time>
      </trkpt>
      <trkpt lat="44.94921" lon="5.58201">
        <ele>935.2</ele>
        <time>2021-08-08T13:21:30Z</time>
      </trkpt>
      <trkpt lat="44.94922" lon="5.58197">
        <ele>935.3</ele>
        <time>2021-08-08T13:21:32Z</time>
      </trkpt>
      <trkpt lat="44.94924" lon="5.58193">
        <ele>935.4</ele>
        <time>2021-08-08T13:21:33Z</time>
      </trkpt>
      <trkpt lat="44.94926" lon="5.58188">
        <ele>935.6</ele>
        <time>2021-08-08T13:21:34Z</time>
      </trkpt>
      <trkpt lat="44.94928" lon="5.58184">
        <ele>935.7</ele>
        <time>2021-08-08T13:21:35Z</time>
      </trkpt>
      <trkpt lat="44.94929" lon="5.5818">
        <ele>935.8</ele>
        <time>2021-08-08T13:21:36Z</time>
      </trkpt>
      <trkpt lat="44.9493" lon="5.58176">
        <ele>935.9</ele>
        <time>2021-08-08T13:21:37Z</time>
      </trkpt>
      <trkpt lat="44.9493" lon="5.58173">
        <ele>936.1</ele>
        <time>2021-08-08T13:21:38Z</time>
      </trkpt>
      <trkpt lat="44.94932" lon="5.58164">
        <ele>936.4</ele>
        <time>2021-08-08T13:21:40Z</time>
      </trkpt>
      <trkpt lat="44.94933" lon="5.5816">
        <ele>936.5</ele>
        <time>2021-08-08T13:21:41Z</time>
      </trkpt>
      <trkpt lat="44.94934" lon="5.58154">
        <ele>936.8</ele>
        <time>2021-08-08T13:21:43Z</time>
      </trkpt>
      <trkpt lat="44.94935" lon="5.58148">
        <ele>937</ele>
        <time>2021-08-08T13:21:44Z</time>
      </trkpt>
      <trkpt lat="44.94937" lon="5.58144">
        <ele>937.1</ele>
        <time>2021-08-08T13:21:45Z</time>
      </trkpt>
      <trkpt lat="44.94938" lon="5.58141">
        <ele>937.3</ele>
        <time>2021-08-08T13:21:46Z</time>
      </trkpt>
      <trkpt lat="44.94939" lon="5.58136">
        <ele>937.5</ele>
        <time>2021-08-08T13:21:48Z</time>
      </trkpt>
      <trkpt lat="44.94941" lon="5.5813">
        <ele>937.7</ele>
        <time>2021-08-08T13:21:49Z</time>
      </trkpt>
      <trkpt lat="44.94942" lon="5.58126">
        <ele>937.9</ele>
        <time>2021-08-08T13:21:50Z</time>
      </trkpt>
      <trkpt lat="44.94942" lon="5.58124">
        <ele>937.9</ele>
        <time>2021-08-08T13:21:51Z</time>
      </trkpt>
      <trkpt lat="44.94943" lon="5.5812">
        <ele>938.1</ele>
        <time>2021-08-08T13:21:52Z</time>
      </trkpt>
      <trkpt lat="44.94943" lon="5.58116">
        <ele>938.2</ele>
        <time>2021-08-08T13:21:53Z</time>
      </trkpt>
      <trkpt lat="44.94944" lon="5.58112">
        <ele>938.4</ele>
        <time>2021-08-08T13:21:54Z</time>
      </trkpt>
      <trkpt lat="44.94945" lon="5.58105">
        <ele>938.7</ele>
        <time>2021-08-08T13:21:56Z</time>
      </trkpt>
      <trkpt lat="44.94946" lon="5.581">
        <ele>938.9</ele>
        <time>2021-08-08T13:21:57Z</time>
      </trkpt>
      <trkpt lat="44.94948" lon="5.58092">
        <ele>939.2</ele>
        <time>2021-08-08T13:21:59Z</time>
      </trkpt>
      <trkpt lat="44.94948" lon="5.58086">
        <ele>939.4</ele>
        <time>2021-08-08T13:22:01Z</time>
      </trkpt>
      <trkpt lat="44.94949" lon="5.58082">
        <ele>939.6</ele>
        <time>2021-08-08T13:22:02Z</time>
      </trkpt>
      <trkpt lat="44.9495" lon="5.58075">
        <ele>939.9</ele>
        <time>2021-08-08T13:22:04Z</time>
      </trkpt>
      <trkpt lat="44.94951" lon="5.58071">
        <ele>940</ele>
        <time>2021-08-08T13:22:05Z</time>
      </trkpt>
      <trkpt lat="44.94951" lon="5.58065">
        <ele>940.3</ele>
        <time>2021-08-08T13:22:07Z</time>
      </trkpt>
      <trkpt lat="44.94951" lon="5.58061">
        <ele>940.4</ele>
        <time>2021-08-08T13:22:08Z</time>
      </trkpt>
      <trkpt lat="44.94951" lon="5.58056">
        <ele>940.6</ele>
        <time>2021-08-08T13:22:09Z</time>
      </trkpt>
      <trkpt lat="44.94951" lon="5.58051">
        <ele>940.8</ele>
        <time>2021-08-08T13:22:11Z</time>
      </trkpt>
      <trkpt lat="44.94952" lon="5.58045">
        <ele>941.1</ele>
        <time>2021-08-08T13:22:12Z</time>
      </trkpt>
      <trkpt lat="44.94952" lon="5.58043">
        <ele>941.2</ele>
        <time>2021-08-08T13:22:13Z</time>
      </trkpt>
      <trkpt lat="44.94953" lon="5.58037">
        <ele>941.5</ele>
        <time>2021-08-08T13:22:14Z</time>
      </trkpt>
      <trkpt lat="44.94954" lon="5.58033">
        <ele>941.7</ele>
        <time>2021-08-08T13:22:15Z</time>
      </trkpt>
      <trkpt lat="44.94955" lon="5.58029">
        <ele>941.9</ele>
        <time>2021-08-08T13:22:16Z</time>
      </trkpt>
      <trkpt lat="44.94956" lon="5.58027">
        <ele>942</ele>
        <time>2021-08-08T13:22:17Z</time>
      </trkpt>
      <trkpt lat="44.94958" lon="5.58021">
        <ele>942.3</ele>
        <time>2021-08-08T13:22:19Z</time>
      </trkpt>
      <trkpt lat="44.94959" lon="5.58017">
        <ele>942.5</ele>
        <time>2021-08-08T13:22:20Z</time>
      </trkpt>
      <trkpt lat="44.9496" lon="5.58013">
        <ele>942.7</ele>
        <time>2021-08-08T13:22:21Z</time>
      </trkpt>
      <trkpt lat="44.9496" lon="5.5801">
        <ele>942.8</ele>
        <time>2021-08-08T13:22:22Z</time>
      </trkpt>
      <trkpt lat="44.94962" lon="5.58003">
        <ele>943.2</ele>
        <time>2021-08-08T13:22:24Z</time>
      </trkpt>
      <trkpt lat="44.94963" lon="5.57999">
        <ele>943.4</ele>
        <time>2021-08-08T13:22:25Z</time>
      </trkpt>
      <trkpt lat="44.94965" lon="5.57992">
        <ele>943.7</ele>
        <time>2021-08-08T13:22:26Z</time>
      </trkpt>
      <trkpt lat="44.94966" lon="5.57987">
        <ele>944</ele>
        <time>2021-08-08T13:22:27Z</time>
      </trkpt>
      <trkpt lat="44.94968" lon="5.57983">
        <ele>944.3</ele>
        <time>2021-08-08T13:22:28Z</time>
      </trkpt>
      <trkpt lat="44.9497" lon="5.57976">
        <ele>944.7</ele>
        <time>2021-08-08T13:22:30Z</time>
      </trkpt>
      <trkpt lat="44.94972" lon="5.57972">
        <ele>944.9</ele>
        <time>2021-08-08T13:22:31Z</time>
      </trkpt>
      <trkpt lat="44.94974" lon="5.57967">
        <ele>945.2</ele>
        <time>2021-08-08T13:22:32Z</time>
      </trkpt>
      <trkpt lat="44.94976" lon="5.57963">
        <ele>945.4</ele>
        <time>2021-08-08T13:22:33Z</time>
      </trkpt>
      <trkpt lat="44.94979" lon="5.57957">
        <ele>945.7</ele>
        <time>2021-08-08T13:22:35Z</time>
      </trkpt>
      <trkpt lat="44.9498" lon="5.57952">
        <ele>946</ele>
        <time>2021-08-08T13:22:36Z</time>
      </trkpt>
      <trkpt lat="44.94982" lon="5.57948">
        <ele>946.1</ele>
        <time>2021-08-08T13:22:37Z</time>
      </trkpt>
      <trkpt lat="44.94984" lon="5.57943">
        <ele>946.3</ele>
        <time>2021-08-08T13:22:38Z</time>
      </trkpt>
      <trkpt lat="44.94985" lon="5.57939">
        <ele>946.5</ele>
        <time>2021-08-08T13:22:39Z</time>
      </trkpt>
      <trkpt lat="44.94987" lon="5.57936">
        <ele>946.7</ele>
        <time>2021-08-08T13:22:40Z</time>
      </trkpt>
      <trkpt lat="44.94989" lon="5.5793">
        <ele>947</ele>
        <time>2021-08-08T13:22:42Z</time>
      </trkpt>
      <trkpt lat="44.94991" lon="5.57924">
        <ele>947.3</ele>
        <time>2021-08-08T13:22:43Z</time>
      </trkpt>
      <trkpt lat="44.94992" lon="5.5792">
        <ele>947.5</ele>
        <time>2021-08-08T13:22:44Z</time>
      </trkpt>
      <trkpt lat="44.94993" lon="5.57916">
        <ele>947.7</ele>
        <time>2021-08-08T13:22:45Z</time>
      </trkpt>
      <trkpt lat="44.94995" lon="5.57912">
        <ele>947.9</ele>
        <time>2021-08-08T13:22:47Z</time>
      </trkpt>
      <trkpt lat="44.94996" lon="5.57908">
        <ele>948.1</ele>
        <time>2021-08-08T13:22:48Z</time>
      </trkpt>
      <trkpt lat="44.94997" lon="5.57903">
        <ele>948.3</ele>
        <time>2021-08-08T13:22:49Z</time>
      </trkpt>
      <trkpt lat="44.94999" lon="5.57899">
        <ele>948.6</ele>
        <time>2021-08-08T13:22:50Z</time>
      </trkpt>
      <trkpt lat="44.95001" lon="5.57895">
        <ele>948.8</ele>
        <time>2021-08-08T13:22:51Z</time>
      </trkpt>
      <trkpt lat="44.95002" lon="5.5789">
        <ele>949.1</ele>
        <time>2021-08-08T13:22:53Z</time>
      </trkpt>
      <trkpt lat="44.95004" lon="5.57886">
        <ele>949.3</ele>
        <time>2021-08-08T13:22:54Z</time>
      </trkpt>
      <trkpt lat="44.95005" lon="5.57881">
        <ele>949.6</ele>
        <time>2021-08-08T13:22:55Z</time>
      </trkpt>
      <trkpt lat="44.95007" lon="5.57877">
        <ele>949.8</ele>
        <time>2021-08-08T13:22:57Z</time>
      </trkpt>
      <trkpt lat="44.95009" lon="5.57873">
        <ele>950</ele>
        <time>2021-08-08T13:22:58Z</time>
      </trkpt>
      <trkpt lat="44.95011" lon="5.57868">
        <ele>950.3</ele>
        <time>2021-08-08T13:22:59Z</time>
      </trkpt>
      <trkpt lat="44.95013" lon="5.57863">
        <ele>950.6</ele>
        <time>2021-08-08T13:23:01Z</time>
      </trkpt>
      <trkpt lat="44.95015" lon="5.57859">
        <ele>950.8</ele>
        <time>2021-08-08T13:23:02Z</time>
      </trkpt>
      <trkpt lat="44.95017" lon="5.57855">
        <ele>951.1</ele>
        <time>2021-08-08T13:23:03Z</time>
      </trkpt>
      <trkpt lat="44.95019" lon="5.57851">
        <ele>951.3</ele>
        <time>2021-08-08T13:23:04Z</time>
      </trkpt>
      <trkpt lat="44.9502" lon="5.57849">
        <ele>951.4</ele>
        <time>2021-08-08T13:23:05Z</time>
      </trkpt>
      <trkpt lat="44.95022" lon="5.57843">
        <ele>951.7</ele>
        <time>2021-08-08T13:23:07Z</time>
      </trkpt>
      <trkpt lat="44.95024" lon="5.57838">
        <ele>952</ele>
        <time>2021-08-08T13:23:08Z</time>
      </trkpt>
      <trkpt lat="44.95025" lon="5.57834">
        <ele>952.1</ele>
        <time>2021-08-08T13:23:09Z</time>
      </trkpt>
      <trkpt lat="44.95027" lon="5.5783">
        <ele>952.3</ele>
        <time>2021-08-08T13:23:11Z</time>
      </trkpt>
      <trkpt lat="44.95028" lon="5.57826">
        <ele>952.5</ele>
        <time>2021-08-08T13:23:12Z</time>
      </trkpt>
      <trkpt lat="44.95029" lon="5.57822">
        <ele>952.7</ele>
        <time>2021-08-08T13:23:13Z</time>
      </trkpt>
      <trkpt lat="44.9503" lon="5.57817">
        <ele>953</ele>
        <time>2021-08-08T13:23:14Z</time>
      </trkpt>
      <trkpt lat="44.9503" lon="5.57815">
        <ele>953</ele>
        <time>2021-08-08T13:23:15Z</time>
      </trkpt>
      <trkpt lat="44.95032" lon="5.57808">
        <ele>953.4</ele>
        <time>2021-08-08T13:23:17Z</time>
      </trkpt>
      <trkpt lat="44.95033" lon="5.57803">
        <ele>953.6</ele>
        <time>2021-08-08T13:23:18Z</time>
      </trkpt>
      <trkpt lat="44.95033" lon="5.57801">
        <ele>953.7</ele>
        <time>2021-08-08T13:23:19Z</time>
      </trkpt>
      <trkpt lat="44.95035" lon="5.57797">
        <ele>953.9</ele>
        <time>2021-08-08T13:23:21Z</time>
      </trkpt>
      <trkpt lat="44.95037" lon="5.57791">
        <ele>954.2</ele>
        <time>2021-08-08T13:23:22Z</time>
      </trkpt>
      <trkpt lat="44.95039" lon="5.57788">
        <ele>954.4</ele>
        <time>2021-08-08T13:23:23Z</time>
      </trkpt>
      <trkpt lat="44.9504" lon="5.57782">
        <ele>954.7</ele>
        <time>2021-08-08T13:23:25Z</time>
      </trkpt>
      <trkpt lat="44.95041" lon="5.57777">
        <ele>954.9</ele>
        <time>2021-08-08T13:23:26Z</time>
      </trkpt>
      <trkpt lat="44.95043" lon="5.57773">
        <ele>955.2</ele>
        <time>2021-08-08T13:23:27Z</time>
      </trkpt>
      <trkpt lat="44.95043" lon="5.57771">
        <ele>955.3</ele>
        <time>2021-08-08T13:23:28Z</time>
      </trkpt>
      <trkpt lat="44.95044" lon="5.57766">
        <ele>955.5</ele>
        <time>2021-08-08T13:23:30Z</time>
      </trkpt>
      <trkpt lat="44.95045" lon="5.5776">
        <ele>955.8</ele>
        <time>2021-08-08T13:23:31Z</time>
      </trkpt>
      <trkpt lat="44.95046" lon="5.57758">
        <ele>955.9</ele>
        <time>2021-08-08T13:23:32Z</time>
      </trkpt>
      <trkpt lat="44.95047" lon="5.57753">
        <ele>956.2</ele>
        <time>2021-08-08T13:23:33Z</time>
      </trkpt>
      <trkpt lat="44.95047" lon="5.57751">
        <ele>956.3</ele>
        <time>2021-08-08T13:23:34Z</time>
      </trkpt>
      <trkpt lat="44.95048" lon="5.57746">
        <ele>956.5</ele>
        <time>2021-08-08T13:23:36Z</time>
      </trkpt>
      <trkpt lat="44.95049" lon="5.57741">
        <ele>956.8</ele>
        <time>2021-08-08T13:23:37Z</time>
      </trkpt>
      <trkpt lat="44.9505" lon="5.57736">
        <ele>957</ele>
        <time>2021-08-08T13:23:38Z</time>
      </trkpt>
      <trkpt lat="44.95052" lon="5.57731">
        <ele>957.3</ele>
        <time>2021-08-08T13:23:40Z</time>
      </trkpt>
      <trkpt lat="44.95053" lon="5.57728">
        <ele>957.4</ele>
        <time>2021-08-08T13:23:41Z</time>
      </trkpt>
      <trkpt lat="44.95053" lon="5.57723">
        <ele>957.6</ele>
        <time>2021-08-08T13:23:42Z</time>
      </trkpt>
      <trkpt lat="44.95054" lon="5.57717">
        <ele>957.9</ele>
        <time>2021-08-08T13:23:44Z</time>
      </trkpt>
      <trkpt lat="44.95054" lon="5.57715">
        <ele>958</ele>
        <time>2021-08-08T13:23:45Z</time>
      </trkpt>
      <trkpt lat="44.95054" lon="5.57711">
        <ele>958.2</ele>
        <time>2021-08-08T13:23:46Z</time>
      </trkpt>
      <trkpt lat="44.95054" lon="5.57705">
        <ele>958.5</ele>
        <time>2021-08-08T13:23:48Z</time>
      </trkpt>
      <trkpt lat="44.95055" lon="5.57703">
        <ele>958.6</ele>
        <time>2021-08-08T13:23:49Z</time>
      </trkpt>
      <trkpt lat="44.95056" lon="5.57695">
        <ele>958.9</ele>
        <time>2021-08-08T13:23:50Z</time>
      </trkpt>
      <trkpt lat="44.95057" lon="5.57689">
        <ele>959.2</ele>
        <time>2021-08-08T13:23:52Z</time>
      </trkpt>
      <trkpt lat="44.95058" lon="5.57682">
        <ele>959.5</ele>
        <time>2021-08-08T13:23:53Z</time>
      </trkpt>
      <trkpt lat="44.95059" lon="5.57677">
        <ele>959.7</ele>
        <time>2021-08-08T13:23:54Z</time>
      </trkpt>
      <trkpt lat="44.9506" lon="5.57673">
        <ele>959.8</ele>
        <time>2021-08-08T13:23:55Z</time>
      </trkpt>
      <trkpt lat="44.95061" lon="5.57667">
        <ele>960.1</ele>
        <time>2021-08-08T13:23:57Z</time>
      </trkpt>
      <trkpt lat="44.95062" lon="5.57662">
        <ele>960.3</ele>
        <time>2021-08-08T13:23:58Z</time>
      </trkpt>
      <trkpt lat="44.95063" lon="5.57656">
        <ele>960.6</ele>
        <time>2021-08-08T13:23:59Z</time>
      </trkpt>
      <trkpt lat="44.95064" lon="5.57651">
        <ele>960.8</ele>
        <time>2021-08-08T13:24:00Z</time>
      </trkpt>
      <trkpt lat="44.95066" lon="5.57644">
        <ele>961.1</ele>
        <time>2021-08-08T13:24:02Z</time>
      </trkpt>
      <trkpt lat="44.95067" lon="5.5764">
        <ele>961.3</ele>
        <time>2021-08-08T13:24:03Z</time>
      </trkpt>
      <trkpt lat="44.95069" lon="5.57634">
        <ele>961.5</ele>
        <time>2021-08-08T13:24:04Z</time>
      </trkpt>
      <trkpt lat="44.95072" lon="5.57627">
        <ele>961.8</ele>
        <time>2021-08-08T13:24:06Z</time>
      </trkpt>
      <trkpt lat="44.95074" lon="5.57623">
        <ele>962</ele>
        <time>2021-08-08T13:24:07Z</time>
      </trkpt>
      <trkpt lat="44.95075" lon="5.57617">
        <ele>962.2</ele>
        <time>2021-08-08T13:24:08Z</time>
      </trkpt>
      <trkpt lat="44.95077" lon="5.57612">
        <ele>962.4</ele>
        <time>2021-08-08T13:24:09Z</time>
      </trkpt>
      <trkpt lat="44.9508" lon="5.57607">
        <ele>962.7</ele>
        <time>2021-08-08T13:24:10Z</time>
      </trkpt>
      <trkpt lat="44.95082" lon="5.57601">
        <ele>962.9</ele>
        <time>2021-08-08T13:24:11Z</time>
      </trkpt>
      <trkpt lat="44.95084" lon="5.57597">
        <ele>963.1</ele>
        <time>2021-08-08T13:24:12Z</time>
      </trkpt>
      <trkpt lat="44.95087" lon="5.57591">
        <ele>963.4</ele>
        <time>2021-08-08T13:24:14Z</time>
      </trkpt>
      <trkpt lat="44.95089" lon="5.57586">
        <ele>963.7</ele>
        <time>2021-08-08T13:24:15Z</time>
      </trkpt>
      <trkpt lat="44.9509" lon="5.5758">
        <ele>964</ele>
        <time>2021-08-08T13:24:16Z</time>
      </trkpt>
      <trkpt lat="44.95092" lon="5.57573">
        <ele>964.3</ele>
        <time>2021-08-08T13:24:18Z</time>
      </trkpt>
      <trkpt lat="44.95093" lon="5.57562">
        <ele>964.7</ele>
        <time>2021-08-08T13:24:20Z</time>
      </trkpt>
      <trkpt lat="44.95094" lon="5.57554">
        <ele>965.1</ele>
        <time>2021-08-08T13:24:22Z</time>
      </trkpt>
      <trkpt lat="44.95094" lon="5.57549">
        <ele>965.3</ele>
        <time>2021-08-08T13:24:23Z</time>
      </trkpt>
      <trkpt lat="44.95095" lon="5.57543">
        <ele>965.5</ele>
        <time>2021-08-08T13:24:25Z</time>
      </trkpt>
      <trkpt lat="44.95095" lon="5.57539">
        <ele>965.7</ele>
        <time>2021-08-08T13:24:26Z</time>
      </trkpt>
      <trkpt lat="44.95095" lon="5.57534">
        <ele>966</ele>
        <time>2021-08-08T13:24:27Z</time>
      </trkpt>
      <trkpt lat="44.95096" lon="5.57528">
        <ele>966.2</ele>
        <time>2021-08-08T13:24:28Z</time>
      </trkpt>
      <trkpt lat="44.95096" lon="5.57521">
        <ele>966.5</ele>
        <time>2021-08-08T13:24:30Z</time>
      </trkpt>
      <trkpt lat="44.95095" lon="5.57515">
        <ele>966.7</ele>
        <time>2021-08-08T13:24:31Z</time>
      </trkpt>
      <trkpt lat="44.95095" lon="5.57511">
        <ele>966.9</ele>
        <time>2021-08-08T13:24:32Z</time>
      </trkpt>
      <trkpt lat="44.95094" lon="5.57506">
        <ele>967.1</ele>
        <time>2021-08-08T13:24:33Z</time>
      </trkpt>
      <trkpt lat="44.95093" lon="5.57501">
        <ele>967.2</ele>
        <time>2021-08-08T13:24:34Z</time>
      </trkpt>
      <trkpt lat="44.95091" lon="5.57495">
        <ele>967.5</ele>
        <time>2021-08-08T13:24:36Z</time>
      </trkpt>
      <trkpt lat="44.95089" lon="5.57491">
        <ele>967.6</ele>
        <time>2021-08-08T13:24:37Z</time>
      </trkpt>
      <trkpt lat="44.95086" lon="5.57487">
        <ele>967.8</ele>
        <time>2021-08-08T13:24:38Z</time>
      </trkpt>
      <trkpt lat="44.95084" lon="5.57484">
        <ele>968</ele>
        <time>2021-08-08T13:24:39Z</time>
      </trkpt>
      <trkpt lat="44.95081" lon="5.57481">
        <ele>968.2</ele>
        <time>2021-08-08T13:24:40Z</time>
      </trkpt>
      <trkpt lat="44.95077" lon="5.57478">
        <ele>968.4</ele>
        <time>2021-08-08T13:24:42Z</time>
      </trkpt>
      <trkpt lat="44.95073" lon="5.57477">
        <ele>968.6</ele>
        <time>2021-08-08T13:24:43Z</time>
      </trkpt>
      <trkpt lat="44.9507" lon="5.57476">
        <ele>968.8</ele>
        <time>2021-08-08T13:24:44Z</time>
      </trkpt>
      <trkpt lat="44.95066" lon="5.57475">
        <ele>969</ele>
        <time>2021-08-08T13:24:45Z</time>
      </trkpt>
      <trkpt lat="44.95062" lon="5.57473">
        <ele>969.3</ele>
        <time>2021-08-08T13:24:47Z</time>
      </trkpt>
      <trkpt lat="44.95059" lon="5.57472">
        <ele>969.5</ele>
        <time>2021-08-08T13:24:48Z</time>
      </trkpt>
      <trkpt lat="44.95057" lon="5.57471">
        <ele>969.6</ele>
        <time>2021-08-08T13:24:49Z</time>
      </trkpt>
      <trkpt lat="44.95052" lon="5.57471">
        <ele>969.8</ele>
        <time>2021-08-08T13:24:51Z</time>
      </trkpt>
      <trkpt lat="44.95048" lon="5.5747">
        <ele>970.1</ele>
        <time>2021-08-08T13:24:53Z</time>
      </trkpt>
      <trkpt lat="44.95046" lon="5.5747">
        <ele>970.2</ele>
        <time>2021-08-08T13:24:54Z</time>
      </trkpt>
      <trkpt lat="44.95042" lon="5.57468">
        <ele>970.4</ele>
        <time>2021-08-08T13:24:56Z</time>
      </trkpt>
      <trkpt lat="44.95041" lon="5.57468">
        <ele>970.5</ele>
        <time>2021-08-08T13:24:57Z</time>
      </trkpt>
      <trkpt lat="44.95039" lon="5.57467">
        <ele>970.6</ele>
        <time>2021-08-08T13:24:58Z</time>
      </trkpt>
      <trkpt lat="44.95036" lon="5.57465">
        <ele>970.8</ele>
        <time>2021-08-08T13:24:59Z</time>
      </trkpt>
      <trkpt lat="44.95032" lon="5.57464">
        <ele>971</ele>
        <time>2021-08-08T13:25:00Z</time>
      </trkpt>
      <trkpt lat="44.95029" lon="5.57462">
        <ele>971.2</ele>
        <time>2021-08-08T13:25:01Z</time>
      </trkpt>
      <trkpt lat="44.95023" lon="5.5746">
        <ele>971.6</ele>
        <time>2021-08-08T13:25:03Z</time>
      </trkpt>
      <trkpt lat="44.95018" lon="5.57458">
        <ele>971.9</ele>
        <time>2021-08-08T13:25:05Z</time>
      </trkpt>
      <trkpt lat="44.95013" lon="5.57456">
        <ele>972.2</ele>
        <time>2021-08-08T13:25:06Z</time>
      </trkpt>
      <trkpt lat="44.95009" lon="5.57453">
        <ele>972.4</ele>
        <time>2021-08-08T13:25:07Z</time>
      </trkpt>
      <trkpt lat="44.95006" lon="5.57452">
        <ele>972.7</ele>
        <time>2021-08-08T13:25:08Z</time>
      </trkpt>
      <trkpt lat="44.95002" lon="5.5745">
        <ele>972.9</ele>
        <time>2021-08-08T13:25:09Z</time>
      </trkpt>
      <trkpt lat="44.94999" lon="5.57449">
        <ele>973.1</ele>
        <time>2021-08-08T13:25:10Z</time>
      </trkpt>
      <trkpt lat="44.94993" lon="5.57447">
        <ele>973.4</ele>
        <time>2021-08-08T13:25:12Z</time>
      </trkpt>
      <trkpt lat="44.94989" lon="5.57445">
        <ele>973.7</ele>
        <time>2021-08-08T13:25:13Z</time>
      </trkpt>
      <trkpt lat="44.94985" lon="5.57442">
        <ele>974</ele>
        <time>2021-08-08T13:25:15Z</time>
      </trkpt>
      <trkpt lat="44.94982" lon="5.57441">
        <ele>974.2</ele>
        <time>2021-08-08T13:25:16Z</time>
      </trkpt>
      <trkpt lat="44.94979" lon="5.57439">
        <ele>974.4</ele>
        <time>2021-08-08T13:25:17Z</time>
      </trkpt>
      <trkpt lat="44.94973" lon="5.57436">
        <ele>974.8</ele>
        <time>2021-08-08T13:25:19Z</time>
      </trkpt>
      <trkpt lat="44.9497" lon="5.57435">
        <ele>975</ele>
        <time>2021-08-08T13:25:20Z</time>
      </trkpt>
      <trkpt lat="44.94964" lon="5.57433">
        <ele>975.4</ele>
        <time>2021-08-08T13:25:22Z</time>
      </trkpt>
      <trkpt lat="44.94961" lon="5.57431">
        <ele>975.6</ele>
        <time>2021-08-08T13:25:23Z</time>
      </trkpt>
      <trkpt lat="44.94956" lon="5.57429">
        <ele>976</ele>
        <time>2021-08-08T13:25:25Z</time>
      </trkpt>
      <trkpt lat="44.94952" lon="5.57428">
        <ele>976.3</ele>
        <time>2021-08-08T13:25:26Z</time>
      </trkpt>
      <trkpt lat="44.94948" lon="5.57427">
        <ele>976.5</ele>
        <time>2021-08-08T13:25:27Z</time>
      </trkpt>
      <trkpt lat="44.94945" lon="5.57427">
        <ele>976.7</ele>
        <time>2021-08-08T13:25:28Z</time>
      </trkpt>
      <trkpt lat="44.94942" lon="5.57426">
        <ele>977</ele>
        <time>2021-08-08T13:25:29Z</time>
      </trkpt>
      <trkpt lat="44.94939" lon="5.57426">
        <ele>977.2</ele>
        <time>2021-08-08T13:25:30Z</time>
      </trkpt>
      <trkpt lat="44.94935" lon="5.57426">
        <ele>977.5</ele>
        <time>2021-08-08T13:25:32Z</time>
      </trkpt>
      <trkpt lat="44.94931" lon="5.57427">
        <ele>977.8</ele>
        <time>2021-08-08T13:25:33Z</time>
      </trkpt>
      <trkpt lat="44.94927" lon="5.57428">
        <ele>978</ele>
        <time>2021-08-08T13:25:35Z</time>
      </trkpt>
      <trkpt lat="44.94923" lon="5.57429">
        <ele>978.2</ele>
        <time>2021-08-08T13:25:36Z</time>
      </trkpt>
      <trkpt lat="44.9492" lon="5.5743">
        <ele>978.5</ele>
        <time>2021-08-08T13:25:37Z</time>
      </trkpt>
      <trkpt lat="44.94918" lon="5.57431">
        <ele>978.6</ele>
        <time>2021-08-08T13:25:38Z</time>
      </trkpt>
      <trkpt lat="44.94915" lon="5.57432">
        <ele>978.8</ele>
        <time>2021-08-08T13:25:39Z</time>
      </trkpt>
      <trkpt lat="44.94911" lon="5.57432">
        <ele>979</ele>
        <time>2021-08-08T13:25:40Z</time>
      </trkpt>
      <trkpt lat="44.94906" lon="5.57432">
        <ele>979.3</ele>
        <time>2021-08-08T13:25:42Z</time>
      </trkpt>
      <trkpt lat="44.94903" lon="5.57432">
        <ele>979.5</ele>
        <time>2021-08-08T13:25:43Z</time>
      </trkpt>
      <trkpt lat="44.949" lon="5.57432">
        <ele>979.7</ele>
        <time>2021-08-08T13:25:44Z</time>
      </trkpt>
      <trkpt lat="44.94897" lon="5.57432">
        <ele>979.8</ele>
        <time>2021-08-08T13:25:46Z</time>
      </trkpt>
      <trkpt lat="44.94893" lon="5.57431">
        <ele>980.1</ele>
        <time>2021-08-08T13:25:47Z</time>
      </trkpt>
      <trkpt lat="44.94888" lon="5.57429">
        <ele>980.4</ele>
        <time>2021-08-08T13:25:48Z</time>
      </trkpt>
      <trkpt lat="44.94885" lon="5.57428">
        <ele>980.5</ele>
        <time>2021-08-08T13:25:49Z</time>
      </trkpt>
      <trkpt lat="44.94881" lon="5.57426">
        <ele>980.7</ele>
        <time>2021-08-08T13:25:51Z</time>
      </trkpt>
      <trkpt lat="44.94877" lon="5.57424">
        <ele>980.9</ele>
        <time>2021-08-08T13:25:52Z</time>
      </trkpt>
      <trkpt lat="44.94873" lon="5.57421">
        <ele>981.2</ele>
        <time>2021-08-08T13:25:53Z</time>
      </trkpt>
      <trkpt lat="44.94869" lon="5.57418">
        <ele>981.4</ele>
        <time>2021-08-08T13:25:55Z</time>
      </trkpt>
      <trkpt lat="44.94866" lon="5.57415">
        <ele>981.7</ele>
        <time>2021-08-08T13:25:56Z</time>
      </trkpt>
      <trkpt lat="44.94862" lon="5.5741">
        <ele>982</ele>
        <time>2021-08-08T13:25:57Z</time>
      </trkpt>
      <trkpt lat="44.94859" lon="5.57407">
        <ele>982.2</ele>
        <time>2021-08-08T13:25:58Z</time>
      </trkpt>
      <trkpt lat="44.94855" lon="5.57403">
        <ele>982.5</ele>
        <time>2021-08-08T13:26:00Z</time>
      </trkpt>
      <trkpt lat="44.94851" lon="5.574">
        <ele>982.7</ele>
        <time>2021-08-08T13:26:01Z</time>
      </trkpt>
      <trkpt lat="44.94847" lon="5.57397">
        <ele>983</ele>
        <time>2021-08-08T13:26:03Z</time>
      </trkpt>
      <trkpt lat="44.9484" lon="5.57394">
        <ele>983.4</ele>
        <time>2021-08-08T13:26:05Z</time>
      </trkpt>
      <trkpt lat="44.94834" lon="5.57392">
        <ele>983.7</ele>
        <time>2021-08-08T13:26:07Z</time>
      </trkpt>
      <trkpt lat="44.94831" lon="5.57391">
        <ele>983.9</ele>
        <time>2021-08-08T13:26:08Z</time>
      </trkpt>
      <trkpt lat="44.94826" lon="5.5739">
        <ele>984.2</ele>
        <time>2021-08-08T13:26:10Z</time>
      </trkpt>
      <trkpt lat="44.94822" lon="5.5739">
        <ele>984.4</ele>
        <time>2021-08-08T13:26:11Z</time>
      </trkpt>
      <trkpt lat="44.9482" lon="5.5739">
        <ele>984.5</ele>
        <time>2021-08-08T13:26:12Z</time>
      </trkpt>
      <trkpt lat="44.94817" lon="5.5739">
        <ele>984.7</ele>
        <time>2021-08-08T13:26:13Z</time>
      </trkpt>
      <trkpt lat="44.94812" lon="5.57389">
        <ele>984.9</ele>
        <time>2021-08-08T13:26:15Z</time>
      </trkpt>
      <trkpt lat="44.94809" lon="5.5739">
        <ele>985.1</ele>
        <time>2021-08-08T13:26:16Z</time>
      </trkpt>
      <trkpt lat="44.94804" lon="5.5739">
        <ele>985.4</ele>
        <time>2021-08-08T13:26:18Z</time>
      </trkpt>
      <trkpt lat="44.948" lon="5.5739">
        <ele>985.6</ele>
        <time>2021-08-08T13:26:19Z</time>
      </trkpt>
      <trkpt lat="44.94797" lon="5.57391">
        <ele>985.8</ele>
        <time>2021-08-08T13:26:20Z</time>
      </trkpt>
      <trkpt lat="44.94794" lon="5.57392">
        <ele>985.9</ele>
        <time>2021-08-08T13:26:21Z</time>
      </trkpt>
      <trkpt lat="44.94789" lon="5.57393">
        <ele>986.2</ele>
        <time>2021-08-08T13:26:23Z</time>
      </trkpt>
      <trkpt lat="44.94786" lon="5.57392">
        <ele>986.4</ele>
        <time>2021-08-08T13:26:24Z</time>
      </trkpt>
      <trkpt lat="44.94782" lon="5.57393">
        <ele>986.6</ele>
        <time>2021-08-08T13:26:26Z</time>
      </trkpt>
      <trkpt lat="44.94778" lon="5.57393">
        <ele>986.9</ele>
        <time>2021-08-08T13:26:27Z</time>
      </trkpt>
      <trkpt lat="44.94775" lon="5.57392">
        <ele>987</ele>
        <time>2021-08-08T13:26:28Z</time>
      </trkpt>
      <trkpt lat="44.94769" lon="5.5739">
        <ele>987.4</ele>
        <time>2021-08-08T13:26:30Z</time>
      </trkpt>
      <trkpt lat="44.94765" lon="5.57389">
        <ele>987.6</ele>
        <time>2021-08-08T13:26:31Z</time>
      </trkpt>
      <trkpt lat="44.94762" lon="5.57389">
        <ele>987.8</ele>
        <time>2021-08-08T13:26:32Z</time>
      </trkpt>
      <trkpt lat="44.94759" lon="5.57388">
        <ele>988</ele>
        <time>2021-08-08T13:26:34Z</time>
      </trkpt>
      <trkpt lat="44.94756" lon="5.57387">
        <ele>988.2</ele>
        <time>2021-08-08T13:26:35Z</time>
      </trkpt>
      <trkpt lat="44.94753" lon="5.57385">
        <ele>988.3</ele>
        <time>2021-08-08T13:26:36Z</time>
      </trkpt>
      <trkpt lat="44.9475" lon="5.57383">
        <ele>988.5</ele>
        <time>2021-08-08T13:26:37Z</time>
      </trkpt>
      <trkpt lat="44.94747" lon="5.57382">
        <ele>988.7</ele>
        <time>2021-08-08T13:26:38Z</time>
      </trkpt>
      <trkpt lat="44.94743" lon="5.57379">
        <ele>989</ele>
        <time>2021-08-08T13:26:39Z</time>
      </trkpt>
      <trkpt lat="44.94738" lon="5.57374">
        <ele>989.3</ele>
        <time>2021-08-08T13:26:41Z</time>
      </trkpt>
      <trkpt lat="44.94734" lon="5.57371">
        <ele>989.6</ele>
        <time>2021-08-08T13:26:42Z</time>
      </trkpt>
      <trkpt lat="44.9473" lon="5.57366">
        <ele>989.9</ele>
        <time>2021-08-08T13:26:43Z</time>
      </trkpt>
      <trkpt lat="44.94727" lon="5.57362">
        <ele>990.1</ele>
        <time>2021-08-08T13:26:44Z</time>
      </trkpt>
      <trkpt lat="44.94722" lon="5.57357">
        <ele>990.5</ele>
        <time>2021-08-08T13:26:46Z</time>
      </trkpt>
      <trkpt lat="44.94717" lon="5.57353">
        <ele>990.8</ele>
        <time>2021-08-08T13:26:47Z</time>
      </trkpt>
      <trkpt lat="44.94711" lon="5.57349">
        <ele>991.2</ele>
        <time>2021-08-08T13:26:49Z</time>
      </trkpt>
      <trkpt lat="44.94707" lon="5.57345">
        <ele>991.5</ele>
        <time>2021-08-08T13:26:50Z</time>
      </trkpt>
      <trkpt lat="44.94704" lon="5.57343">
        <ele>991.7</ele>
        <time>2021-08-08T13:26:51Z</time>
      </trkpt>
      <trkpt lat="44.947" lon="5.5734">
        <ele>991.9</ele>
        <time>2021-08-08T13:26:52Z</time>
      </trkpt>
      <trkpt lat="44.94697" lon="5.57337">
        <ele>992.1</ele>
        <time>2021-08-08T13:26:53Z</time>
      </trkpt>
      <trkpt lat="44.94693" lon="5.57333">
        <ele>992.4</ele>
        <time>2021-08-08T13:26:55Z</time>
      </trkpt>
      <trkpt lat="44.94689" lon="5.5733">
        <ele>992.6</ele>
        <time>2021-08-08T13:26:56Z</time>
      </trkpt>
      <trkpt lat="44.94686" lon="5.57327">
        <ele>992.8</ele>
        <time>2021-08-08T13:26:57Z</time>
      </trkpt>
      <trkpt lat="44.94681" lon="5.57324">
        <ele>993</ele>
        <time>2021-08-08T13:26:58Z</time>
      </trkpt>
      <trkpt lat="44.94678" lon="5.57322">
        <ele>993.2</ele>
        <time>2021-08-08T13:26:59Z</time>
      </trkpt>
      <trkpt lat="44.94675" lon="5.57321">
        <ele>993.3</ele>
        <time>2021-08-08T13:27:00Z</time>
      </trkpt>
      <trkpt lat="44.9467" lon="5.57319">
        <ele>993.6</ele>
        <time>2021-08-08T13:27:02Z</time>
      </trkpt>
      <trkpt lat="44.94666" lon="5.57317">
        <ele>993.8</ele>
        <time>2021-08-08T13:27:03Z</time>
      </trkpt>
      <trkpt lat="44.94662" lon="5.57315">
        <ele>994</ele>
        <time>2021-08-08T13:27:04Z</time>
      </trkpt>
      <trkpt lat="44.94658" lon="5.57313">
        <ele>994.2</ele>
        <time>2021-08-08T13:27:05Z</time>
      </trkpt>
      <trkpt lat="44.94652" lon="5.57311">
        <ele>994.6</ele>
        <time>2021-08-08T13:27:08Z</time>
      </trkpt>
      <trkpt lat="44.94643" lon="5.57307">
        <ele>995</ele>
        <time>2021-08-08T13:27:10Z</time>
      </trkpt>
      <trkpt lat="44.9464" lon="5.57305">
        <ele>995.2</ele>
        <time>2021-08-08T13:27:11Z</time>
      </trkpt>
      <trkpt lat="44.94637" lon="5.57304">
        <ele>995.4</ele>
        <time>2021-08-08T13:27:12Z</time>
      </trkpt>
      <trkpt lat="44.94632" lon="5.57302">
        <ele>995.7</ele>
        <time>2021-08-08T13:27:14Z</time>
      </trkpt>
      <trkpt lat="44.94629" lon="5.573">
        <ele>995.9</ele>
        <time>2021-08-08T13:27:15Z</time>
      </trkpt>
      <trkpt lat="44.94626" lon="5.57299">
        <ele>996.1</ele>
        <time>2021-08-08T13:27:16Z</time>
      </trkpt>
      <trkpt lat="44.94623" lon="5.57298">
        <ele>996.3</ele>
        <time>2021-08-08T13:27:17Z</time>
      </trkpt>
      <trkpt lat="44.94619" lon="5.57296">
        <ele>996.5</ele>
        <time>2021-08-08T13:27:19Z</time>
      </trkpt>
      <trkpt lat="44.94615" lon="5.57294">
        <ele>996.8</ele>
        <time>2021-08-08T13:27:20Z</time>
      </trkpt>
      <trkpt lat="44.94611" lon="5.57293">
        <ele>997</ele>
        <time>2021-08-08T13:27:22Z</time>
      </trkpt>
      <trkpt lat="44.94608" lon="5.57292">
        <ele>997.2</ele>
        <time>2021-08-08T13:27:23Z</time>
      </trkpt>
      <trkpt lat="44.94604" lon="5.57291">
        <ele>997.4</ele>
        <time>2021-08-08T13:27:24Z</time>
      </trkpt>
      <trkpt lat="44.94603" lon="5.57291">
        <ele>997.5</ele>
        <time>2021-08-08T13:27:25Z</time>
      </trkpt>
      <trkpt lat="44.946" lon="5.57289">
        <ele>997.7</ele>
        <time>2021-08-08T13:27:26Z</time>
      </trkpt>
      <trkpt lat="44.94597" lon="5.57288">
        <ele>997.9</ele>
        <time>2021-08-08T13:27:27Z</time>
      </trkpt>
      <trkpt lat="44.94593" lon="5.57287">
        <ele>998.2</ele>
        <time>2021-08-08T13:27:28Z</time>
      </trkpt>
      <trkpt lat="44.94589" lon="5.57286">
        <ele>998.5</ele>
        <time>2021-08-08T13:27:30Z</time>
      </trkpt>
      <trkpt lat="44.94585" lon="5.57286">
        <ele>998.7</ele>
        <time>2021-08-08T13:27:31Z</time>
      </trkpt>
      <trkpt lat="44.94582" lon="5.57285">
        <ele>998.9</ele>
        <time>2021-08-08T13:27:32Z</time>
      </trkpt>
      <trkpt lat="44.94578" lon="5.57285">
        <ele>999.2</ele>
        <time>2021-08-08T13:27:34Z</time>
      </trkpt>
      <trkpt lat="44.94575" lon="5.57285">
        <ele>999.4</ele>
        <time>2021-08-08T13:27:35Z</time>
      </trkpt>
      <trkpt lat="44.94572" lon="5.57284">
        <ele>999.6</ele>
        <time>2021-08-08T13:27:36Z</time>
      </trkpt>
      <trkpt lat="44.94567" lon="5.57284">
        <ele>1000</ele>
        <time>2021-08-08T13:27:38Z</time>
      </trkpt>
      <trkpt lat="44.94563" lon="5.57284">
        <ele>1000.2</ele>
        <time>2021-08-08T13:27:39Z</time>
      </trkpt>
      <trkpt lat="44.94559" lon="5.57284">
        <ele>1000.5</ele>
        <time>2021-08-08T13:27:41Z</time>
      </trkpt>
      <trkpt lat="44.94556" lon="5.57284">
        <ele>1000.7</ele>
        <time>2021-08-08T13:27:42Z</time>
      </trkpt>
      <trkpt lat="44.94552" lon="5.57284">
        <ele>1001</ele>
        <time>2021-08-08T13:27:43Z</time>
      </trkpt>
      <trkpt lat="44.94549" lon="5.57285">
        <ele>1001.2</ele>
        <time>2021-08-08T13:27:44Z</time>
      </trkpt>
      <trkpt lat="44.94545" lon="5.57285">
        <ele>1001.5</ele>
        <time>2021-08-08T13:27:45Z</time>
      </trkpt>
      <trkpt lat="44.94541" lon="5.57286">
        <ele>1001.8</ele>
        <time>2021-08-08T13:27:47Z</time>
      </trkpt>
      <trkpt lat="44.94537" lon="5.57287">
        <ele>1002</ele>
        <time>2021-08-08T13:27:48Z</time>
      </trkpt>
      <trkpt lat="44.94536" lon="5.57287">
        <ele>1002.1</ele>
        <time>2021-08-08T13:27:49Z</time>
      </trkpt>
      <trkpt lat="44.9453" lon="5.57288">
        <ele>1002.5</ele>
        <time>2021-08-08T13:27:51Z</time>
      </trkpt>
      <trkpt lat="44.94528" lon="5.57288">
        <ele>1002.7</ele>
        <time>2021-08-08T13:27:53Z</time>
      </trkpt>
      <trkpt lat="44.94524" lon="5.57288">
        <ele>1002.9</ele>
        <time>2021-08-08T13:27:54Z</time>
      </trkpt>
      <trkpt lat="44.94521" lon="5.57288">
        <ele>1003.2</ele>
        <time>2021-08-08T13:27:55Z</time>
      </trkpt>
      <trkpt lat="44.94516" lon="5.57287">
        <ele>1003.6</ele>
        <time>2021-08-08T13:27:57Z</time>
      </trkpt>
      <trkpt lat="44.94511" lon="5.57288">
        <ele>1003.9</ele>
        <time>2021-08-08T13:27:59Z</time>
      </trkpt>
      <trkpt lat="44.94507" lon="5.57288">
        <ele>1004.2</ele>
        <time>2021-08-08T13:28:00Z</time>
      </trkpt>
      <trkpt lat="44.94504" lon="5.57288">
        <ele>1004.4</ele>
        <time>2021-08-08T13:28:02Z</time>
      </trkpt>
      <trkpt lat="44.94499" lon="5.57288">
        <ele>1004.7</ele>
        <time>2021-08-08T13:28:03Z</time>
      </trkpt>
      <trkpt lat="44.94496" lon="5.57288">
        <ele>1004.9</ele>
        <time>2021-08-08T13:28:04Z</time>
      </trkpt>
      <trkpt lat="44.94493" lon="5.57288">
        <ele>1005.1</ele>
        <time>2021-08-08T13:28:05Z</time>
      </trkpt>
      <trkpt lat="44.94488" lon="5.57288">
        <ele>1005.5</ele>
        <time>2021-08-08T13:28:07Z</time>
      </trkpt>
      <trkpt lat="44.94481" lon="5.57288">
        <ele>1005.9</ele>
        <time>2021-08-08T13:28:10Z</time>
      </trkpt>
      <trkpt lat="44.94477" lon="5.57288">
        <ele>1006.2</ele>
        <time>2021-08-08T13:28:11Z</time>
      </trkpt>
      <trkpt lat="44.94474" lon="5.57289">
        <ele>1006.4</ele>
        <time>2021-08-08T13:28:13Z</time>
      </trkpt>
      <trkpt lat="44.94469" lon="5.57288">
        <ele>1006.7</ele>
        <time>2021-08-08T13:28:15Z</time>
      </trkpt>
      <trkpt lat="44.94466" lon="5.57288">
        <ele>1006.9</ele>
        <time>2021-08-08T13:28:16Z</time>
      </trkpt>
      <trkpt lat="44.94462" lon="5.57287">
        <ele>1007.1</ele>
        <time>2021-08-08T13:28:17Z</time>
      </trkpt>
      <trkpt lat="44.94458" lon="5.57286">
        <ele>1007.3</ele>
        <time>2021-08-08T13:28:18Z</time>
      </trkpt>
      <trkpt lat="44.94454" lon="5.57285">
        <ele>1007.5</ele>
        <time>2021-08-08T13:28:20Z</time>
      </trkpt>
      <trkpt lat="44.94451" lon="5.57283">
        <ele>1007.8</ele>
        <time>2021-08-08T13:28:21Z</time>
      </trkpt>
      <trkpt lat="44.94447" lon="5.57281">
        <ele>1008</ele>
        <time>2021-08-08T13:28:22Z</time>
      </trkpt>
      <trkpt lat="44.94443" lon="5.57278">
        <ele>1008.3</ele>
        <time>2021-08-08T13:28:23Z</time>
      </trkpt>
      <trkpt lat="44.9444" lon="5.57276">
        <ele>1008.4</ele>
        <time>2021-08-08T13:28:25Z</time>
      </trkpt>
      <trkpt lat="44.94436" lon="5.57273">
        <ele>1008.7</ele>
        <time>2021-08-08T13:28:26Z</time>
      </trkpt>
      <trkpt lat="44.94434" lon="5.57271">
        <ele>1008.8</ele>
        <time>2021-08-08T13:28:27Z</time>
      </trkpt>
      <trkpt lat="44.94431" lon="5.57268">
        <ele>1009</ele>
        <time>2021-08-08T13:28:28Z</time>
      </trkpt>
      <trkpt lat="44.94428" lon="5.57266">
        <ele>1009.2</ele>
        <time>2021-08-08T13:28:29Z</time>
      </trkpt>
      <trkpt lat="44.94426" lon="5.57263">
        <ele>1009.3</ele>
        <time>2021-08-08T13:28:30Z</time>
      </trkpt>
      <trkpt lat="44.94423" lon="5.57261">
        <ele>1009.5</ele>
        <time>2021-08-08T13:28:31Z</time>
      </trkpt>
      <trkpt lat="44.94421" lon="5.57258">
        <ele>1009.7</ele>
        <time>2021-08-08T13:28:32Z</time>
      </trkpt>
      <trkpt lat="44.94415" lon="5.57254">
        <ele>1010</ele>
        <time>2021-08-08T13:28:34Z</time>
      </trkpt>
      <trkpt lat="44.94413" lon="5.57252">
        <ele>1010.2</ele>
        <time>2021-08-08T13:28:35Z</time>
      </trkpt>
      <trkpt lat="44.9441" lon="5.5725">
        <ele>1010.4</ele>
        <time>2021-08-08T13:28:37Z</time>
      </trkpt>
      <trkpt lat="44.94406" lon="5.57247">
        <ele>1010.6</ele>
        <time>2021-08-08T13:28:38Z</time>
      </trkpt>
      <trkpt lat="44.94402" lon="5.57245">
        <ele>1010.9</ele>
        <time>2021-08-08T13:28:40Z</time>
      </trkpt>
      <trkpt lat="44.94397" lon="5.57241">
        <ele>1011.3</ele>
        <time>2021-08-08T13:28:42Z</time>
      </trkpt>
      <trkpt lat="44.94395" lon="5.57239">
        <ele>1011.5</ele>
        <time>2021-08-08T13:28:43Z</time>
      </trkpt>
      <trkpt lat="44.94393" lon="5.57238">
        <ele>1011.7</ele>
        <time>2021-08-08T13:28:44Z</time>
      </trkpt>
      <trkpt lat="44.9439" lon="5.57236">
        <ele>1012</ele>
        <time>2021-08-08T13:28:46Z</time>
      </trkpt>
      <trkpt lat="44.94387" lon="5.57234">
        <ele>1012.2</ele>
        <time>2021-08-08T13:28:47Z</time>
      </trkpt>
      <trkpt lat="44.94384" lon="5.57233">
        <ele>1012.4</ele>
        <time>2021-08-08T13:28:48Z</time>
      </trkpt>
      <trkpt lat="44.9438" lon="5.57232">
        <ele>1012.7</ele>
        <time>2021-08-08T13:28:50Z</time>
      </trkpt>
      <trkpt lat="44.94377" lon="5.57231">
        <ele>1012.9</ele>
        <time>2021-08-08T13:28:51Z</time>
      </trkpt>
      <trkpt lat="44.94374" lon="5.5723">
        <ele>1013.2</ele>
        <time>2021-08-08T13:28:52Z</time>
      </trkpt>
      <trkpt lat="44.94372" lon="5.57228">
        <ele>1013.4</ele>
        <time>2021-08-08T13:28:54Z</time>
      </trkpt>
      <trkpt lat="44.94368" lon="5.57227">
        <ele>1013.7</ele>
        <time>2021-08-08T13:28:55Z</time>
      </trkpt>
      <trkpt lat="44.94364" lon="5.57226">
        <ele>1014</ele>
        <time>2021-08-08T13:28:56Z</time>
      </trkpt>
      <trkpt lat="44.94361" lon="5.57225">
        <ele>1014.2</ele>
        <time>2021-08-08T13:28:57Z</time>
      </trkpt>
      <trkpt lat="44.94357" lon="5.57223">
        <ele>1014.6</ele>
        <time>2021-08-08T13:28:59Z</time>
      </trkpt>
      <trkpt lat="44.94352" lon="5.57222">
        <ele>1014.9</ele>
        <time>2021-08-08T13:29:00Z</time>
      </trkpt>
      <trkpt lat="44.94348" lon="5.57221">
        <ele>1015.2</ele>
        <time>2021-08-08T13:29:01Z</time>
      </trkpt>
      <trkpt lat="44.94344" lon="5.57221">
        <ele>1015.5</ele>
        <time>2021-08-08T13:29:02Z</time>
      </trkpt>
      <trkpt lat="44.94341" lon="5.57221">
        <ele>1015.7</ele>
        <time>2021-08-08T13:29:03Z</time>
      </trkpt>
      <trkpt lat="44.94337" lon="5.57221">
        <ele>1015.9</ele>
        <time>2021-08-08T13:29:05Z</time>
      </trkpt>
      <trkpt lat="44.94333" lon="5.5722">
        <ele>1016.1</ele>
        <time>2021-08-08T13:29:06Z</time>
      </trkpt>
      <trkpt lat="44.9433" lon="5.5722">
        <ele>1016.4</ele>
        <time>2021-08-08T13:29:07Z</time>
      </trkpt>
      <trkpt lat="44.94328" lon="5.5722">
        <ele>1016.4</ele>
        <time>2021-08-08T13:29:08Z</time>
      </trkpt>
      <trkpt lat="44.94325" lon="5.57221">
        <ele>1016.7</ele>
        <time>2021-08-08T13:29:10Z</time>
      </trkpt>
      <trkpt lat="44.94321" lon="5.57222">
        <ele>1016.9</ele>
        <time>2021-08-08T13:29:11Z</time>
      </trkpt>
      <trkpt lat="44.94318" lon="5.57222">
        <ele>1017.1</ele>
        <time>2021-08-08T13:29:12Z</time>
      </trkpt>
      <trkpt lat="44.94315" lon="5.57223">
        <ele>1017.2</ele>
        <time>2021-08-08T13:29:14Z</time>
      </trkpt>
      <trkpt lat="44.94312" lon="5.57223">
        <ele>1017.4</ele>
        <time>2021-08-08T13:29:15Z</time>
      </trkpt>
      <trkpt lat="44.94308" lon="5.57223">
        <ele>1017.7</ele>
        <time>2021-08-08T13:29:16Z</time>
      </trkpt>
      <trkpt lat="44.94306" lon="5.57223">
        <ele>1017.8</ele>
        <time>2021-08-08T13:29:17Z</time>
      </trkpt>
      <trkpt lat="44.94302" lon="5.57222">
        <ele>1018</ele>
        <time>2021-08-08T13:29:19Z</time>
      </trkpt>
      <trkpt lat="44.94299" lon="5.57222">
        <ele>1018.2</ele>
        <time>2021-08-08T13:29:20Z</time>
      </trkpt>
      <trkpt lat="44.94295" lon="5.5722">
        <ele>1018.4</ele>
        <time>2021-08-08T13:29:22Z</time>
      </trkpt>
      <trkpt lat="44.94293" lon="5.57219">
        <ele>1018.6</ele>
        <time>2021-08-08T13:29:23Z</time>
      </trkpt>
      <trkpt lat="44.9429" lon="5.57218">
        <ele>1018.8</ele>
        <time>2021-08-08T13:29:25Z</time>
      </trkpt>
      <trkpt lat="44.94287" lon="5.57217">
        <ele>1019</ele>
        <time>2021-08-08T13:29:26Z</time>
      </trkpt>
      <trkpt lat="44.94284" lon="5.57216">
        <ele>1019.1</ele>
        <time>2021-08-08T13:29:27Z</time>
      </trkpt>
      <trkpt lat="44.9428" lon="5.57215">
        <ele>1019.4</ele>
        <time>2021-08-08T13:29:29Z</time>
      </trkpt>
      <trkpt lat="44.94277" lon="5.57214">
        <ele>1019.6</ele>
        <time>2021-08-08T13:29:30Z</time>
      </trkpt>
      <trkpt lat="44.94274" lon="5.57213">
        <ele>1019.8</ele>
        <time>2021-08-08T13:29:31Z</time>
      </trkpt>
      <trkpt lat="44.94268" lon="5.57211">
        <ele>1020.2</ele>
        <time>2021-08-08T13:29:33Z</time>
      </trkpt>
      <trkpt lat="44.94264" lon="5.57209">
        <ele>1020.5</ele>
        <time>2021-08-08T13:29:35Z</time>
      </trkpt>
      <trkpt lat="44.9426" lon="5.57207">
        <ele>1020.7</ele>
        <time>2021-08-08T13:29:36Z</time>
      </trkpt>
      <trkpt lat="44.94259" lon="5.57206">
        <ele>1020.8</ele>
        <time>2021-08-08T13:29:37Z</time>
      </trkpt>
      <trkpt lat="44.94256" lon="5.57205">
        <ele>1021.1</ele>
        <time>2021-08-08T13:29:39Z</time>
      </trkpt>
      <trkpt lat="44.94251" lon="5.57202">
        <ele>1021.4</ele>
        <time>2021-08-08T13:29:40Z</time>
      </trkpt>
      <trkpt lat="44.94248" lon="5.572">
        <ele>1021.6</ele>
        <time>2021-08-08T13:29:41Z</time>
      </trkpt>
      <trkpt lat="44.94245" lon="5.57198">
        <ele>1021.9</ele>
        <time>2021-08-08T13:29:43Z</time>
      </trkpt>
      <trkpt lat="44.9424" lon="5.57196">
        <ele>1022.2</ele>
        <time>2021-08-08T13:29:44Z</time>
      </trkpt>
      <trkpt lat="44.94237" lon="5.57194">
        <ele>1022.4</ele>
        <time>2021-08-08T13:29:45Z</time>
      </trkpt>
      <trkpt lat="44.94235" lon="5.57192">
        <ele>1022.6</ele>
        <time>2021-08-08T13:29:46Z</time>
      </trkpt>
      <trkpt lat="44.94231" lon="5.57191">
        <ele>1022.9</ele>
        <time>2021-08-08T13:29:47Z</time>
      </trkpt>
      <trkpt lat="44.9423" lon="5.5719">
        <ele>1023</ele>
        <time>2021-08-08T13:29:48Z</time>
      </trkpt>
      <trkpt lat="44.94228" lon="5.57189">
        <ele>1023.2</ele>
        <time>2021-08-08T13:29:50Z</time>
      </trkpt>
      <trkpt lat="44.94223" lon="5.57186">
        <ele>1023.5</ele>
        <time>2021-08-08T13:29:51Z</time>
      </trkpt>
      <trkpt lat="44.94218" lon="5.57185">
        <ele>1023.8</ele>
        <time>2021-08-08T13:29:53Z</time>
      </trkpt>
      <trkpt lat="44.94215" lon="5.57184">
        <ele>1024.1</ele>
        <time>2021-08-08T13:29:54Z</time>
      </trkpt>
      <trkpt lat="44.94211" lon="5.57183">
        <ele>1024.3</ele>
        <time>2021-08-08T13:29:56Z</time>
      </trkpt>
      <trkpt lat="44.94209" lon="5.57182">
        <ele>1024.5</ele>
        <time>2021-08-08T13:29:57Z</time>
      </trkpt>
      <trkpt lat="44.94206" lon="5.57181">
        <ele>1024.7</ele>
        <time>2021-08-08T13:29:58Z</time>
      </trkpt>
      <trkpt lat="44.94202" lon="5.57181">
        <ele>1024.9</ele>
        <time>2021-08-08T13:29:59Z</time>
      </trkpt>
      <trkpt lat="44.94199" lon="5.5718">
        <ele>1025.1</ele>
        <time>2021-08-08T13:30:00Z</time>
      </trkpt>
      <trkpt lat="44.94195" lon="5.57177">
        <ele>1025.4</ele>
        <time>2021-08-08T13:30:01Z</time>
      </trkpt>
      <trkpt lat="44.94192" lon="5.57176">
        <ele>1025.6</ele>
        <time>2021-08-08T13:30:02Z</time>
      </trkpt>
      <trkpt lat="44.9419" lon="5.57175">
        <ele>1025.8</ele>
        <time>2021-08-08T13:30:03Z</time>
      </trkpt>
      <trkpt lat="44.94186" lon="5.57173">
        <ele>1026</ele>
        <time>2021-08-08T13:30:05Z</time>
      </trkpt>
      <trkpt lat="44.94183" lon="5.57171">
        <ele>1026.3</ele>
        <time>2021-08-08T13:30:06Z</time>
      </trkpt>
      <trkpt lat="44.94181" lon="5.57171">
        <ele>1026.4</ele>
        <time>2021-08-08T13:30:07Z</time>
      </trkpt>
      <trkpt lat="44.94179" lon="5.5717">
        <ele>1026.5</ele>
        <time>2021-08-08T13:30:08Z</time>
      </trkpt>
      <trkpt lat="44.94176" lon="5.57169">
        <ele>1026.7</ele>
        <time>2021-08-08T13:30:09Z</time>
      </trkpt>
      <trkpt lat="44.94173" lon="5.57167">
        <ele>1027</ele>
        <time>2021-08-08T13:30:10Z</time>
      </trkpt>
      <trkpt lat="44.94168" lon="5.57165">
        <ele>1027.3</ele>
        <time>2021-08-08T13:30:12Z</time>
      </trkpt>
      <trkpt lat="44.94166" lon="5.57165">
        <ele>1027.5</ele>
        <time>2021-08-08T13:30:13Z</time>
      </trkpt>
      <trkpt lat="44.94162" lon="5.57165">
        <ele>1027.7</ele>
        <time>2021-08-08T13:30:15Z</time>
      </trkpt>
      <trkpt lat="44.94159" lon="5.57164">
        <ele>1028</ele>
        <time>2021-08-08T13:30:16Z</time>
      </trkpt>
      <trkpt lat="44.94156" lon="5.57164">
        <ele>1028.2</ele>
        <time>2021-08-08T13:30:17Z</time>
      </trkpt>
      <trkpt lat="44.94153" lon="5.57163">
        <ele>1028.5</ele>
        <time>2021-08-08T13:30:19Z</time>
      </trkpt>
      <trkpt lat="44.9415" lon="5.57164">
        <ele>1028.7</ele>
        <time>2021-08-08T13:30:20Z</time>
      </trkpt>
      <trkpt lat="44.94146" lon="5.57166">
        <ele>1028.9</ele>
        <time>2021-08-08T13:30:21Z</time>
      </trkpt>
      <trkpt lat="44.94142" lon="5.57167">
        <ele>1029.2</ele>
        <time>2021-08-08T13:30:23Z</time>
      </trkpt>
      <trkpt lat="44.94138" lon="5.57168">
        <ele>1029.5</ele>
        <time>2021-08-08T13:30:24Z</time>
      </trkpt>
      <trkpt lat="44.94135" lon="5.5717">
        <ele>1029.7</ele>
        <time>2021-08-08T13:30:25Z</time>
      </trkpt>
      <trkpt lat="44.94132" lon="5.57172">
        <ele>1030</ele>
        <time>2021-08-08T13:30:26Z</time>
      </trkpt>
      <trkpt lat="44.94128" lon="5.57174">
        <ele>1030.2</ele>
        <time>2021-08-08T13:30:27Z</time>
      </trkpt>
      <trkpt lat="44.94124" lon="5.57175">
        <ele>1030.5</ele>
        <time>2021-08-08T13:30:28Z</time>
      </trkpt>
      <trkpt lat="44.94121" lon="5.57177">
        <ele>1030.7</ele>
        <time>2021-08-08T13:30:29Z</time>
      </trkpt>
      <trkpt lat="44.94116" lon="5.57179">
        <ele>1031.1</ele>
        <time>2021-08-08T13:30:31Z</time>
      </trkpt>
      <trkpt lat="44.94112" lon="5.57181">
        <ele>1031.4</ele>
        <time>2021-08-08T13:30:32Z</time>
      </trkpt>
      <trkpt lat="44.94109" lon="5.57181">
        <ele>1031.6</ele>
        <time>2021-08-08T13:30:34Z</time>
      </trkpt>
      <trkpt lat="44.94105" lon="5.57182">
        <ele>1031.9</ele>
        <time>2021-08-08T13:30:35Z</time>
      </trkpt>
      <trkpt lat="44.94101" lon="5.57183">
        <ele>1032.1</ele>
        <time>2021-08-08T13:30:36Z</time>
      </trkpt>
      <trkpt lat="44.94097" lon="5.57185">
        <ele>1032.4</ele>
        <time>2021-08-08T13:30:37Z</time>
      </trkpt>
      <trkpt lat="44.94094" lon="5.57187">
        <ele>1032.7</ele>
        <time>2021-08-08T13:30:38Z</time>
      </trkpt>
      <trkpt lat="44.94089" lon="5.57188">
        <ele>1033.1</ele>
        <time>2021-08-08T13:30:40Z</time>
      </trkpt>
      <trkpt lat="44.94084" lon="5.5719">
        <ele>1033.5</ele>
        <time>2021-08-08T13:30:41Z</time>
      </trkpt>
      <trkpt lat="44.9408" lon="5.57191">
        <ele>1033.8</ele>
        <time>2021-08-08T13:30:42Z</time>
      </trkpt>
      <trkpt lat="44.94077" lon="5.57192">
        <ele>1034.1</ele>
        <time>2021-08-08T13:30:44Z</time>
      </trkpt>
      <trkpt lat="44.94071" lon="5.57193">
        <ele>1034.5</ele>
        <time>2021-08-08T13:30:45Z</time>
      </trkpt>
      <trkpt lat="44.94065" lon="5.57193">
        <ele>1035</ele>
        <time>2021-08-08T13:30:46Z</time>
      </trkpt>
      <trkpt lat="44.94061" lon="5.57194">
        <ele>1035.3</ele>
        <time>2021-08-08T13:30:47Z</time>
      </trkpt>
      <trkpt lat="44.94058" lon="5.57194">
        <ele>1035.5</ele>
        <time>2021-08-08T13:30:48Z</time>
      </trkpt>
      <trkpt lat="44.94054" lon="5.57194">
        <ele>1035.9</ele>
        <time>2021-08-08T13:30:50Z</time>
      </trkpt>
      <trkpt lat="44.9405" lon="5.57194">
        <ele>1036.1</ele>
        <time>2021-08-08T13:30:51Z</time>
      </trkpt>
      <trkpt lat="44.94047" lon="5.57193">
        <ele>1036.4</ele>
        <time>2021-08-08T13:30:52Z</time>
      </trkpt>
      <trkpt lat="44.94044" lon="5.57192">
        <ele>1036.6</ele>
        <time>2021-08-08T13:30:53Z</time>
      </trkpt>
      <trkpt lat="44.9404" lon="5.5719">
        <ele>1036.9</ele>
        <time>2021-08-08T13:30:55Z</time>
      </trkpt>
      <trkpt lat="44.94036" lon="5.57189">
        <ele>1037.2</ele>
        <time>2021-08-08T13:30:56Z</time>
      </trkpt>
      <trkpt lat="44.94033" lon="5.57188">
        <ele>1037.4</ele>
        <time>2021-08-08T13:30:57Z</time>
      </trkpt>
      <trkpt lat="44.94029" lon="5.57187">
        <ele>1037.6</ele>
        <time>2021-08-08T13:30:58Z</time>
      </trkpt>
      <trkpt lat="44.94026" lon="5.57185">
        <ele>1037.9</ele>
        <time>2021-08-08T13:31:00Z</time>
      </trkpt>
      <trkpt lat="44.94022" lon="5.57184">
        <ele>1038.1</ele>
        <time>2021-08-08T13:31:01Z</time>
      </trkpt>
      <trkpt lat="44.94018" lon="5.57183">
        <ele>1038.3</ele>
        <time>2021-08-08T13:31:03Z</time>
      </trkpt>
      <trkpt lat="44.94014" lon="5.57181">
        <ele>1038.6</ele>
        <time>2021-08-08T13:31:04Z</time>
      </trkpt>
      <trkpt lat="44.9401" lon="5.57179">
        <ele>1038.9</ele>
        <time>2021-08-08T13:31:05Z</time>
      </trkpt>
      <trkpt lat="44.94006" lon="5.57178">
        <ele>1039.1</ele>
        <time>2021-08-08T13:31:07Z</time>
      </trkpt>
      <trkpt lat="44.94002" lon="5.57176">
        <ele>1039.4</ele>
        <time>2021-08-08T13:31:08Z</time>
      </trkpt>
      <trkpt lat="44.93999" lon="5.57176">
        <ele>1039.6</ele>
        <time>2021-08-08T13:31:09Z</time>
      </trkpt>
      <trkpt lat="44.93993" lon="5.57177">
        <ele>1040</ele>
        <time>2021-08-08T13:31:11Z</time>
      </trkpt>
      <trkpt lat="44.9399" lon="5.57177">
        <ele>1040.2</ele>
        <time>2021-08-08T13:31:12Z</time>
      </trkpt>
      <trkpt lat="44.93986" lon="5.57176">
        <ele>1040.5</ele>
        <time>2021-08-08T13:31:14Z</time>
      </trkpt>
      <trkpt lat="44.93983" lon="5.57176">
        <ele>1040.8</ele>
        <time>2021-08-08T13:31:15Z</time>
      </trkpt>
      <trkpt lat="44.93979" lon="5.57177">
        <ele>1041</ele>
        <time>2021-08-08T13:31:17Z</time>
      </trkpt>
      <trkpt lat="44.93975" lon="5.57178">
        <ele>1041.4</ele>
        <time>2021-08-08T13:31:18Z</time>
      </trkpt>
      <trkpt lat="44.93973" lon="5.57178">
        <ele>1041.5</ele>
        <time>2021-08-08T13:31:19Z</time>
      </trkpt>
      <trkpt lat="44.9397" lon="5.57178">
        <ele>1041.7</ele>
        <time>2021-08-08T13:31:20Z</time>
      </trkpt>
      <trkpt lat="44.93964" lon="5.57178">
        <ele>1042.2</ele>
        <time>2021-08-08T13:31:22Z</time>
      </trkpt>
      <trkpt lat="44.93958" lon="5.57177">
        <ele>1042.6</ele>
        <time>2021-08-08T13:31:24Z</time>
      </trkpt>
      <trkpt lat="44.93955" lon="5.57177">
        <ele>1042.8</ele>
        <time>2021-08-08T13:31:25Z</time>
      </trkpt>
      <trkpt lat="44.9395" lon="5.57177">
        <ele>1043.2</ele>
        <time>2021-08-08T13:31:27Z</time>
      </trkpt>
      <trkpt lat="44.93946" lon="5.57175">
        <ele>1043.4</ele>
        <time>2021-08-08T13:31:28Z</time>
      </trkpt>
      <trkpt lat="44.93942" lon="5.57174">
        <ele>1043.6</ele>
        <time>2021-08-08T13:31:30Z</time>
      </trkpt>
      <trkpt lat="44.93939" lon="5.57171">
        <ele>1043.8</ele>
        <time>2021-08-08T13:31:31Z</time>
      </trkpt>
      <trkpt lat="44.93936" lon="5.5717">
        <ele>1044</ele>
        <time>2021-08-08T13:31:32Z</time>
      </trkpt>
      <trkpt lat="44.93933" lon="5.57167">
        <ele>1044.2</ele>
        <time>2021-08-08T13:31:34Z</time>
      </trkpt>
      <trkpt lat="44.93929" lon="5.57165">
        <ele>1044.4</ele>
        <time>2021-08-08T13:31:35Z</time>
      </trkpt>
      <trkpt lat="44.93924" lon="5.57161">
        <ele>1044.6</ele>
        <time>2021-08-08T13:31:36Z</time>
      </trkpt>
      <trkpt lat="44.93921" lon="5.57158">
        <ele>1044.8</ele>
        <time>2021-08-08T13:31:37Z</time>
      </trkpt>
      <trkpt lat="44.93917" lon="5.57157">
        <ele>1044.9</ele>
        <time>2021-08-08T13:31:39Z</time>
      </trkpt>
      <trkpt lat="44.93912" lon="5.57156">
        <ele>1045</ele>
        <time>2021-08-08T13:31:40Z</time>
      </trkpt>
      <trkpt lat="44.93907" lon="5.57155">
        <ele>1045.1</ele>
        <time>2021-08-08T13:31:41Z</time>
      </trkpt>
      <trkpt lat="44.93903" lon="5.57156">
        <ele>1045.2</ele>
        <time>2021-08-08T13:31:42Z</time>
      </trkpt>
      <trkpt lat="44.93898" lon="5.57157">
        <ele>1045.3</ele>
        <time>2021-08-08T13:31:43Z</time>
      </trkpt>
      <trkpt lat="44.93895" lon="5.57158">
        <ele>1045.4</ele>
        <time>2021-08-08T13:31:44Z</time>
      </trkpt>
      <trkpt lat="44.9389" lon="5.57161">
        <ele>1045.4</ele>
        <time>2021-08-08T13:31:46Z</time>
      </trkpt>
      <trkpt lat="44.93885" lon="5.57163">
        <ele>1045.5</ele>
        <time>2021-08-08T13:31:47Z</time>
      </trkpt>
      <trkpt lat="44.9388" lon="5.57165">
        <ele>1045.5</ele>
        <time>2021-08-08T13:31:48Z</time>
      </trkpt>
      <trkpt lat="44.93876" lon="5.57166">
        <ele>1045.6</ele>
        <time>2021-08-08T13:31:49Z</time>
      </trkpt>
      <trkpt lat="44.93868" lon="5.57166">
        <ele>1045.6</ele>
        <time>2021-08-08T13:31:50Z</time>
      </trkpt>
      <trkpt lat="44.93858" lon="5.57168">
        <ele>1045.7</ele>
        <time>2021-08-08T13:31:52Z</time>
      </trkpt>
      <trkpt lat="44.93854" lon="5.57168">
        <ele>1045.7</ele>
        <time>2021-08-08T13:31:53Z</time>
      </trkpt>
      <trkpt lat="44.93844" lon="5.57169">
        <ele>1045.8</ele>
        <time>2021-08-08T13:31:55Z</time>
      </trkpt>
      <trkpt lat="44.93839" lon="5.5717">
        <ele>1045.9</ele>
        <time>2021-08-08T13:31:56Z</time>
      </trkpt>
      <trkpt lat="44.93832" lon="5.57172">
        <ele>1046</ele>
        <time>2021-08-08T13:31:58Z</time>
      </trkpt>
      <trkpt lat="44.93829" lon="5.57173">
        <ele>1046</ele>
        <time>2021-08-08T13:31:59Z</time>
      </trkpt>
      <trkpt lat="44.93823" lon="5.57174">
        <ele>1046.1</ele>
        <time>2021-08-08T13:32:01Z</time>
      </trkpt>
      <trkpt lat="44.93808" lon="5.57178">
        <ele>1046.4</ele>
        <time>2021-08-08T13:32:03Z</time>
      </trkpt>
      <trkpt lat="44.93798" lon="5.5718">
        <ele>1046.5</ele>
        <time>2021-08-08T13:32:05Z</time>
      </trkpt>
      <trkpt lat="44.93787" lon="5.5718">
        <ele>1046.7</ele>
        <time>2021-08-08T13:32:07Z</time>
      </trkpt>
      <trkpt lat="44.93781" lon="5.57181">
        <ele>1046.9</ele>
        <time>2021-08-08T13:32:08Z</time>
      </trkpt>
      <trkpt lat="44.93776" lon="5.57181">
        <ele>1047</ele>
        <time>2021-08-08T13:32:10Z</time>
      </trkpt>
      <trkpt lat="44.93765" lon="5.57182">
        <ele>1047.3</ele>
        <time>2021-08-08T13:32:11Z</time>
      </trkpt>
      <trkpt lat="44.9376" lon="5.57183">
        <ele>1047.4</ele>
        <time>2021-08-08T13:32:12Z</time>
      </trkpt>
      <trkpt lat="44.93755" lon="5.57183">
        <ele>1047.5</ele>
        <time>2021-08-08T13:32:13Z</time>
      </trkpt>
      <trkpt lat="44.93746" lon="5.57183">
        <ele>1047.8</ele>
        <time>2021-08-08T13:32:16Z</time>
      </trkpt>
      <trkpt lat="44.93737" lon="5.57183">
        <ele>1048.1</ele>
        <time>2021-08-08T13:32:17Z</time>
      </trkpt>
      <trkpt lat="44.93732" lon="5.57183">
        <ele>1048.3</ele>
        <time>2021-08-08T13:32:18Z</time>
      </trkpt>
      <trkpt lat="44.93729" lon="5.57184">
        <ele>1048.4</ele>
        <time>2021-08-08T13:32:19Z</time>
      </trkpt>
      <trkpt lat="44.9372" lon="5.57185">
        <ele>1048.6</ele>
        <time>2021-08-08T13:32:22Z</time>
      </trkpt>
      <trkpt lat="44.93712" lon="5.57187">
        <ele>1048.7</ele>
        <time>2021-08-08T13:32:23Z</time>
      </trkpt>
      <trkpt lat="44.93709" lon="5.57188">
        <ele>1048.7</ele>
        <time>2021-08-08T13:32:24Z</time>
      </trkpt>
      <trkpt lat="44.93705" lon="5.57188">
        <ele>1048.8</ele>
        <time>2021-08-08T13:32:26Z</time>
      </trkpt>
      <trkpt lat="44.93698" lon="5.57187">
        <ele>1048.9</ele>
        <time>2021-08-08T13:32:27Z</time>
      </trkpt>
      <trkpt lat="44.93688" lon="5.57191">
        <ele>1049.1</ele>
        <time>2021-08-08T13:32:28Z</time>
      </trkpt>
      <trkpt lat="44.93683" lon="5.57193">
        <ele>1049.2</ele>
        <time>2021-08-08T13:32:29Z</time>
      </trkpt>
      <trkpt lat="44.93676" lon="5.57196">
        <ele>1049.4</ele>
        <time>2021-08-08T13:32:31Z</time>
      </trkpt>
      <trkpt lat="44.93673" lon="5.57196">
        <ele>1049.5</ele>
        <time>2021-08-08T13:32:32Z</time>
      </trkpt>
      <trkpt lat="44.93667" lon="5.57198">
        <ele>1049.7</ele>
        <time>2021-08-08T13:32:34Z</time>
      </trkpt>
      <trkpt lat="44.93662" lon="5.57201">
        <ele>1049.9</ele>
        <time>2021-08-08T13:32:35Z</time>
      </trkpt>
      <trkpt lat="44.93656" lon="5.57204">
        <ele>1050.1</ele>
        <time>2021-08-08T13:32:36Z</time>
      </trkpt>
      <trkpt lat="44.93653" lon="5.57206">
        <ele>1050.2</ele>
        <time>2021-08-08T13:32:37Z</time>
      </trkpt>
      <trkpt lat="44.93643" lon="5.5721">
        <ele>1050.6</ele>
        <time>2021-08-08T13:32:39Z</time>
      </trkpt>
      <trkpt lat="44.93628" lon="5.57213">
        <ele>1050.9</ele>
        <time>2021-08-08T13:32:42Z</time>
      </trkpt>
      <trkpt lat="44.93624" lon="5.57215">
        <ele>1051</ele>
        <time>2021-08-08T13:32:43Z</time>
      </trkpt>
      <trkpt lat="44.93618" lon="5.57216">
        <ele>1051.1</ele>
        <time>2021-08-08T13:32:45Z</time>
      </trkpt>
      <trkpt lat="44.93612" lon="5.57217">
        <ele>1051.3</ele>
        <time>2021-08-08T13:32:46Z</time>
      </trkpt>
      <trkpt lat="44.93609" lon="5.57218">
        <ele>1051.3</ele>
        <time>2021-08-08T13:32:47Z</time>
      </trkpt>
      <trkpt lat="44.93606" lon="5.57218">
        <ele>1051.4</ele>
        <time>2021-08-08T13:32:48Z</time>
      </trkpt>
      <trkpt lat="44.93601" lon="5.5722">
        <ele>1051.5</ele>
        <time>2021-08-08T13:32:49Z</time>
      </trkpt>
      <trkpt lat="44.93596" lon="5.57221">
        <ele>1051.6</ele>
        <time>2021-08-08T13:32:50Z</time>
      </trkpt>
      <trkpt lat="44.9359" lon="5.57222">
        <ele>1051.7</ele>
        <time>2021-08-08T13:32:52Z</time>
      </trkpt>
      <trkpt lat="44.93585" lon="5.57224">
        <ele>1051.6</ele>
        <time>2021-08-08T13:32:53Z</time>
      </trkpt>
      <trkpt lat="44.93576" lon="5.57226">
        <ele>1051.6</ele>
        <time>2021-08-08T13:32:54Z</time>
      </trkpt>
      <trkpt lat="44.93571" lon="5.57227">
        <ele>1051.6</ele>
        <time>2021-08-08T13:32:55Z</time>
      </trkpt>
      <trkpt lat="44.93561" lon="5.5723">
        <ele>1051.6</ele>
        <time>2021-08-08T13:32:57Z</time>
      </trkpt>
      <trkpt lat="44.93551" lon="5.57232">
        <ele>1051.6</ele>
        <time>2021-08-08T13:32:59Z</time>
      </trkpt>
      <trkpt lat="44.93545" lon="5.57234">
        <ele>1051.6</ele>
        <time>2021-08-08T13:33:00Z</time>
      </trkpt>
      <trkpt lat="44.9354" lon="5.57235">
        <ele>1051.7</ele>
        <time>2021-08-08T13:33:02Z</time>
      </trkpt>
      <trkpt lat="44.93528" lon="5.57239">
        <ele>1051.8</ele>
        <time>2021-08-08T13:33:03Z</time>
      </trkpt>
      <trkpt lat="44.93517" lon="5.57242">
        <ele>1051.9</ele>
        <time>2021-08-08T13:33:05Z</time>
      </trkpt>
      <trkpt lat="44.935" lon="5.57246">
        <ele>1052.1</ele>
        <time>2021-08-08T13:33:08Z</time>
      </trkpt>
      <trkpt lat="44.93495" lon="5.57248">
        <ele>1052.1</ele>
        <time>2021-08-08T13:33:09Z</time>
      </trkpt>
      <trkpt lat="44.93484" lon="5.57252">
        <ele>1052.3</ele>
        <time>2021-08-08T13:33:11Z</time>
      </trkpt>
      <trkpt lat="44.93468" lon="5.57258">
        <ele>1052.8</ele>
        <time>2021-08-08T13:33:14Z</time>
      </trkpt>
      <trkpt lat="44.93458" lon="5.57262">
        <ele>1053.1</ele>
        <time>2021-08-08T13:33:16Z</time>
      </trkpt>
      <trkpt lat="44.93454" lon="5.57265">
        <ele>1053.3</ele>
        <time>2021-08-08T13:33:17Z</time>
      </trkpt>
      <trkpt lat="44.93441" lon="5.57271">
        <ele>1053.7</ele>
        <time>2021-08-08T13:33:20Z</time>
      </trkpt>
      <trkpt lat="44.93433" lon="5.57275">
        <ele>1054.1</ele>
        <time>2021-08-08T13:33:22Z</time>
      </trkpt>
      <trkpt lat="44.93425" lon="5.57279">
        <ele>1054.4</ele>
        <time>2021-08-08T13:33:24Z</time>
      </trkpt>
      <trkpt lat="44.93419" lon="5.57281">
        <ele>1054.6</ele>
        <time>2021-08-08T13:33:26Z</time>
      </trkpt>
      <trkpt lat="44.93411" lon="5.57284">
        <ele>1054.9</ele>
        <time>2021-08-08T13:33:29Z</time>
      </trkpt>
      <trkpt lat="44.93405" lon="5.57288">
        <ele>1055.2</ele>
        <time>2021-08-08T13:33:30Z</time>
      </trkpt>
      <trkpt lat="44.93402" lon="5.57289">
        <ele>1055.4</ele>
        <time>2021-08-08T13:33:31Z</time>
      </trkpt>
      <trkpt lat="44.93398" lon="5.57292">
        <ele>1055.6</ele>
        <time>2021-08-08T13:33:33Z</time>
      </trkpt>
      <trkpt lat="44.93393" lon="5.57295">
        <ele>1055.9</ele>
        <time>2021-08-08T13:33:34Z</time>
      </trkpt>
      <trkpt lat="44.93387" lon="5.57297">
        <ele>1056.2</ele>
        <time>2021-08-08T13:33:36Z</time>
      </trkpt>
      <trkpt lat="44.93382" lon="5.57299">
        <ele>1056.5</ele>
        <time>2021-08-08T13:33:37Z</time>
      </trkpt>
      <trkpt lat="44.93376" lon="5.57301">
        <ele>1056.9</ele>
        <time>2021-08-08T13:33:38Z</time>
      </trkpt>
      <trkpt lat="44.93369" lon="5.57303">
        <ele>1057.3</ele>
        <time>2021-08-08T13:33:40Z</time>
      </trkpt>
      <trkpt lat="44.93364" lon="5.57304">
        <ele>1057.7</ele>
        <time>2021-08-08T13:33:41Z</time>
      </trkpt>
      <trkpt lat="44.93359" lon="5.57305">
        <ele>1058</ele>
        <time>2021-08-08T13:33:42Z</time>
      </trkpt>
      <trkpt lat="44.93352" lon="5.57306">
        <ele>1058.4</ele>
        <time>2021-08-08T13:33:44Z</time>
      </trkpt>
      <trkpt lat="44.93346" lon="5.57306">
        <ele>1058.9</ele>
        <time>2021-08-08T13:33:45Z</time>
      </trkpt>
      <trkpt lat="44.9334" lon="5.57305">
        <ele>1059.3</ele>
        <time>2021-08-08T13:33:47Z</time>
      </trkpt>
      <trkpt lat="44.93335" lon="5.57303">
        <ele>1059.7</ele>
        <time>2021-08-08T13:33:48Z</time>
      </trkpt>
      <trkpt lat="44.93331" lon="5.57302">
        <ele>1060</ele>
        <time>2021-08-08T13:33:49Z</time>
      </trkpt>
      <trkpt lat="44.93327" lon="5.57301">
        <ele>1060.2</ele>
        <time>2021-08-08T13:33:50Z</time>
      </trkpt>
      <trkpt lat="44.93324" lon="5.57299">
        <ele>1060.4</ele>
        <time>2021-08-08T13:33:51Z</time>
      </trkpt>
      <trkpt lat="44.93319" lon="5.57295">
        <ele>1060.7</ele>
        <time>2021-08-08T13:33:53Z</time>
      </trkpt>
      <trkpt lat="44.93316" lon="5.57293">
        <ele>1060.9</ele>
        <time>2021-08-08T13:33:54Z</time>
      </trkpt>
      <trkpt lat="44.93311" lon="5.57289">
        <ele>1061.1</ele>
        <time>2021-08-08T13:33:56Z</time>
      </trkpt>
      <trkpt lat="44.93308" lon="5.57285">
        <ele>1061.3</ele>
        <time>2021-08-08T13:33:57Z</time>
      </trkpt>
      <trkpt lat="44.93304" lon="5.5728">
        <ele>1061.5</ele>
        <time>2021-08-08T13:33:58Z</time>
      </trkpt>
      <trkpt lat="44.93299" lon="5.57275">
        <ele>1061.8</ele>
        <time>2021-08-08T13:34:00Z</time>
      </trkpt>
      <trkpt lat="44.93297" lon="5.57271">
        <ele>1061.9</ele>
        <time>2021-08-08T13:34:01Z</time>
      </trkpt>
      <trkpt lat="44.93294" lon="5.57269">
        <ele>1062</ele>
        <time>2021-08-08T13:34:02Z</time>
      </trkpt>
      <trkpt lat="44.93292" lon="5.57265">
        <ele>1062.2</ele>
        <time>2021-08-08T13:34:04Z</time>
      </trkpt>
      <trkpt lat="44.9329" lon="5.57262">
        <ele>1062.4</ele>
        <time>2021-08-08T13:34:05Z</time>
      </trkpt>
      <trkpt lat="44.93287" lon="5.57259">
        <ele>1062.5</ele>
        <time>2021-08-08T13:34:06Z</time>
      </trkpt>
      <trkpt lat="44.93284" lon="5.57255">
        <ele>1062.7</ele>
        <time>2021-08-08T13:34:07Z</time>
      </trkpt>
      <trkpt lat="44.93281" lon="5.57252">
        <ele>1062.9</ele>
        <time>2021-08-08T13:34:08Z</time>
      </trkpt>
      <trkpt lat="44.93278" lon="5.57248">
        <ele>1063.2</ele>
        <time>2021-08-08T13:34:10Z</time>
      </trkpt>
      <trkpt lat="44.93275" lon="5.57245">
        <ele>1063.3</ele>
        <time>2021-08-08T13:34:11Z</time>
      </trkpt>
      <trkpt lat="44.93273" lon="5.57242">
        <ele>1063.5</ele>
        <time>2021-08-08T13:34:12Z</time>
      </trkpt>
      <trkpt lat="44.93271" lon="5.57238">
        <ele>1063.7</ele>
        <time>2021-08-08T13:34:13Z</time>
      </trkpt>
      <trkpt lat="44.93268" lon="5.57235">
        <ele>1063.9</ele>
        <time>2021-08-08T13:34:14Z</time>
      </trkpt>
      <trkpt lat="44.93266" lon="5.57233">
        <ele>1064.1</ele>
        <time>2021-08-08T13:34:15Z</time>
      </trkpt>
      <trkpt lat="44.93263" lon="5.5723">
        <ele>1064.3</ele>
        <time>2021-08-08T13:34:16Z</time>
      </trkpt>
      <trkpt lat="44.9326" lon="5.57227">
        <ele>1064.6</ele>
        <time>2021-08-08T13:34:17Z</time>
      </trkpt>
      <trkpt lat="44.93259" lon="5.57226">
        <ele>1064.7</ele>
        <time>2021-08-08T13:34:18Z</time>
      </trkpt>
      <trkpt lat="44.93257" lon="5.57224">
        <ele>1064.9</ele>
        <time>2021-08-08T13:34:19Z</time>
      </trkpt>
      <trkpt lat="44.93253" lon="5.57221">
        <ele>1065.1</ele>
        <time>2021-08-08T13:34:21Z</time>
      </trkpt>
      <trkpt lat="44.93251" lon="5.57219">
        <ele>1065.3</ele>
        <time>2021-08-08T13:34:22Z</time>
      </trkpt>
      <trkpt lat="44.93248" lon="5.57218">
        <ele>1065.6</ele>
        <time>2021-08-08T13:34:23Z</time>
      </trkpt>
      <trkpt lat="44.93244" lon="5.57216">
        <ele>1065.8</ele>
        <time>2021-08-08T13:34:24Z</time>
      </trkpt>
      <trkpt lat="44.93239" lon="5.57213">
        <ele>1066.2</ele>
        <time>2021-08-08T13:34:26Z</time>
      </trkpt>
      <trkpt lat="44.93236" lon="5.57211">
        <ele>1066.4</ele>
        <time>2021-08-08T13:34:27Z</time>
      </trkpt>
      <trkpt lat="44.93232" lon="5.57209">
        <ele>1066.7</ele>
        <time>2021-08-08T13:34:29Z</time>
      </trkpt>
      <trkpt lat="44.93229" lon="5.57207">
        <ele>1067</ele>
        <time>2021-08-08T13:34:30Z</time>
      </trkpt>
      <trkpt lat="44.93226" lon="5.57205">
        <ele>1067.2</ele>
        <time>2021-08-08T13:34:31Z</time>
      </trkpt>
      <trkpt lat="44.93224" lon="5.57203">
        <ele>1067.4</ele>
        <time>2021-08-08T13:34:32Z</time>
      </trkpt>
      <trkpt lat="44.93222" lon="5.57201">
        <ele>1067.6</ele>
        <time>2021-08-08T13:34:33Z</time>
      </trkpt>
      <trkpt lat="44.93218" lon="5.57198">
        <ele>1067.9</ele>
        <time>2021-08-08T13:34:35Z</time>
      </trkpt>
      <trkpt lat="44.93216" lon="5.57197">
        <ele>1068.1</ele>
        <time>2021-08-08T13:34:36Z</time>
      </trkpt>
      <trkpt lat="44.93214" lon="5.57196">
        <ele>1068.3</ele>
        <time>2021-08-08T13:34:38Z</time>
      </trkpt>
      <trkpt lat="44.9321" lon="5.57193">
        <ele>1068.6</ele>
        <time>2021-08-08T13:34:39Z</time>
      </trkpt>
      <trkpt lat="44.93207" lon="5.5719">
        <ele>1068.8</ele>
        <time>2021-08-08T13:34:40Z</time>
      </trkpt>
      <trkpt lat="44.93206" lon="5.5719">
        <ele>1068.9</ele>
        <time>2021-08-08T13:34:41Z</time>
      </trkpt>
      <trkpt lat="44.93203" lon="5.57188">
        <ele>1069.1</ele>
        <time>2021-08-08T13:34:43Z</time>
      </trkpt>
      <trkpt lat="44.932" lon="5.57186">
        <ele>1069.3</ele>
        <time>2021-08-08T13:34:44Z</time>
      </trkpt>
      <trkpt lat="44.93198" lon="5.57183">
        <ele>1069.5</ele>
        <time>2021-08-08T13:34:46Z</time>
      </trkpt>
      <trkpt lat="44.93195" lon="5.57181">
        <ele>1069.7</ele>
        <time>2021-08-08T13:34:47Z</time>
      </trkpt>
      <trkpt lat="44.93193" lon="5.57179">
        <ele>1069.9</ele>
        <time>2021-08-08T13:34:48Z</time>
      </trkpt>
      <trkpt lat="44.9319" lon="5.57176">
        <ele>1070.1</ele>
        <time>2021-08-08T13:34:50Z</time>
      </trkpt>
      <trkpt lat="44.93187" lon="5.57173">
        <ele>1070.4</ele>
        <time>2021-08-08T13:34:51Z</time>
      </trkpt>
      <trkpt lat="44.93185" lon="5.57171">
        <ele>1070.5</ele>
        <time>2021-08-08T13:34:52Z</time>
      </trkpt>
      <trkpt lat="44.9318" lon="5.57168">
        <ele>1070.9</ele>
        <time>2021-08-08T13:34:54Z</time>
      </trkpt>
      <trkpt lat="44.93178" lon="5.57165">
        <ele>1071.1</ele>
        <time>2021-08-08T13:34:55Z</time>
      </trkpt>
      <trkpt lat="44.93176" lon="5.57164">
        <ele>1071.2</ele>
        <time>2021-08-08T13:34:56Z</time>
      </trkpt>
      <trkpt lat="44.93173" lon="5.57162">
        <ele>1071.4</ele>
        <time>2021-08-08T13:34:58Z</time>
      </trkpt>
      <trkpt lat="44.9317" lon="5.57159">
        <ele>1071.7</ele>
        <time>2021-08-08T13:34:59Z</time>
      </trkpt>
      <trkpt lat="44.93166" lon="5.57157">
        <ele>1071.9</ele>
        <time>2021-08-08T13:35:00Z</time>
      </trkpt>
      <trkpt lat="44.93164" lon="5.57155">
        <ele>1072.1</ele>
        <time>2021-08-08T13:35:01Z</time>
      </trkpt>
      <trkpt lat="44.93159" lon="5.57152">
        <ele>1072.6</ele>
        <time>2021-08-08T13:35:03Z</time>
      </trkpt>
      <trkpt lat="44.93156" lon="5.57149">
        <ele>1072.8</ele>
        <time>2021-08-08T13:35:04Z</time>
      </trkpt>
      <trkpt lat="44.93151" lon="5.57146">
        <ele>1073.2</ele>
        <time>2021-08-08T13:35:06Z</time>
      </trkpt>
      <trkpt lat="44.93149" lon="5.57143">
        <ele>1073.4</ele>
        <time>2021-08-08T13:35:07Z</time>
      </trkpt>
      <trkpt lat="44.93146" lon="5.5714">
        <ele>1073.7</ele>
        <time>2021-08-08T13:35:09Z</time>
      </trkpt>
      <trkpt lat="44.93143" lon="5.57138">
        <ele>1074</ele>
        <time>2021-08-08T13:35:10Z</time>
      </trkpt>
      <trkpt lat="44.9314" lon="5.57135">
        <ele>1074.2</ele>
        <time>2021-08-08T13:35:11Z</time>
      </trkpt>
      <trkpt lat="44.93138" lon="5.57133">
        <ele>1074.4</ele>
        <time>2021-08-08T13:35:12Z</time>
      </trkpt>
      <trkpt lat="44.93134" lon="5.57128">
        <ele>1074.8</ele>
        <time>2021-08-08T13:35:14Z</time>
      </trkpt>
      <trkpt lat="44.93131" lon="5.57126">
        <ele>1075</ele>
        <time>2021-08-08T13:35:15Z</time>
      </trkpt>
      <trkpt lat="44.93128" lon="5.57125">
        <ele>1075.3</ele>
        <time>2021-08-08T13:35:16Z</time>
      </trkpt>
      <trkpt lat="44.93126" lon="5.57123">
        <ele>1075.5</ele>
        <time>2021-08-08T13:35:17Z</time>
      </trkpt>
      <trkpt lat="44.93124" lon="5.5712">
        <ele>1075.7</ele>
        <time>2021-08-08T13:35:18Z</time>
      </trkpt>
      <trkpt lat="44.93121" lon="5.57118">
        <ele>1075.9</ele>
        <time>2021-08-08T13:35:20Z</time>
      </trkpt>
      <trkpt lat="44.93116" lon="5.57115">
        <ele>1076.4</ele>
        <time>2021-08-08T13:35:21Z</time>
      </trkpt>
      <trkpt lat="44.93112" lon="5.57112">
        <ele>1076.7</ele>
        <time>2021-08-08T13:35:23Z</time>
      </trkpt>
      <trkpt lat="44.93109" lon="5.57111">
        <ele>1077</ele>
        <time>2021-08-08T13:35:24Z</time>
      </trkpt>
      <trkpt lat="44.93106" lon="5.57109">
        <ele>1077.3</ele>
        <time>2021-08-08T13:35:25Z</time>
      </trkpt>
      <trkpt lat="44.93104" lon="5.57107">
        <ele>1077.5</ele>
        <time>2021-08-08T13:35:27Z</time>
      </trkpt>
      <trkpt lat="44.931" lon="5.57105">
        <ele>1077.8</ele>
        <time>2021-08-08T13:35:28Z</time>
      </trkpt>
      <trkpt lat="44.93098" lon="5.57103">
        <ele>1078</ele>
        <time>2021-08-08T13:35:29Z</time>
      </trkpt>
      <trkpt lat="44.93094" lon="5.57102">
        <ele>1078.3</ele>
        <time>2021-08-08T13:35:31Z</time>
      </trkpt>
      <trkpt lat="44.93092" lon="5.57101">
        <ele>1078.5</ele>
        <time>2021-08-08T13:35:32Z</time>
      </trkpt>
      <trkpt lat="44.93088" lon="5.571">
        <ele>1078.7</ele>
        <time>2021-08-08T13:35:33Z</time>
      </trkpt>
      <trkpt lat="44.93087" lon="5.571">
        <ele>1078.9</ele>
        <time>2021-08-08T13:35:34Z</time>
      </trkpt>
      <trkpt lat="44.93084" lon="5.571">
        <ele>1079.1</ele>
        <time>2021-08-08T13:35:35Z</time>
      </trkpt>
      <trkpt lat="44.9308" lon="5.57101">
        <ele>1079.4</ele>
        <time>2021-08-08T13:35:37Z</time>
      </trkpt>
      <trkpt lat="44.93077" lon="5.57102">
        <ele>1079.6</ele>
        <time>2021-08-08T13:35:38Z</time>
      </trkpt>
      <trkpt lat="44.93073" lon="5.57102">
        <ele>1079.9</ele>
        <time>2021-08-08T13:35:39Z</time>
      </trkpt>
      <trkpt lat="44.9307" lon="5.57103">
        <ele>1080.2</ele>
        <time>2021-08-08T13:35:40Z</time>
      </trkpt>
      <trkpt lat="44.93066" lon="5.57104">
        <ele>1080.4</ele>
        <time>2021-08-08T13:35:41Z</time>
      </trkpt>
      <trkpt lat="44.93061" lon="5.57105">
        <ele>1080.8</ele>
        <time>2021-08-08T13:35:43Z</time>
      </trkpt>
      <trkpt lat="44.93058" lon="5.57106">
        <ele>1081.1</ele>
        <time>2021-08-08T13:35:44Z</time>
      </trkpt>
      <trkpt lat="44.93055" lon="5.57107">
        <ele>1081.3</ele>
        <time>2021-08-08T13:35:45Z</time>
      </trkpt>
      <trkpt lat="44.93051" lon="5.57108">
        <ele>1081.6</ele>
        <time>2021-08-08T13:35:46Z</time>
      </trkpt>
      <trkpt lat="44.93046" lon="5.57109">
        <ele>1082</ele>
        <time>2021-08-08T13:35:48Z</time>
      </trkpt>
      <trkpt lat="44.93043" lon="5.57109">
        <ele>1082.2</ele>
        <time>2021-08-08T13:35:49Z</time>
      </trkpt>
      <trkpt lat="44.9304" lon="5.5711">
        <ele>1082.5</ele>
        <time>2021-08-08T13:35:50Z</time>
      </trkpt>
      <trkpt lat="44.93038" lon="5.57111">
        <ele>1082.7</ele>
        <time>2021-08-08T13:35:51Z</time>
      </trkpt>
      <trkpt lat="44.93033" lon="5.57111">
        <ele>1083</ele>
        <time>2021-08-08T13:35:53Z</time>
      </trkpt>
      <trkpt lat="44.9303" lon="5.57112">
        <ele>1083.3</ele>
        <time>2021-08-08T13:35:54Z</time>
      </trkpt>
      <trkpt lat="44.93026" lon="5.57112">
        <ele>1083.5</ele>
        <time>2021-08-08T13:35:55Z</time>
      </trkpt>
      <trkpt lat="44.93021" lon="5.57113">
        <ele>1083.9</ele>
        <time>2021-08-08T13:35:57Z</time>
      </trkpt>
      <trkpt lat="44.93017" lon="5.57113">
        <ele>1084.2</ele>
        <time>2021-08-08T13:35:58Z</time>
      </trkpt>
      <trkpt lat="44.93014" lon="5.57113">
        <ele>1084.4</ele>
        <time>2021-08-08T13:35:59Z</time>
      </trkpt>
      <trkpt lat="44.93009" lon="5.57113">
        <ele>1084.8</ele>
        <time>2021-08-08T13:36:01Z</time>
      </trkpt>
      <trkpt lat="44.93006" lon="5.57113">
        <ele>1085</ele>
        <time>2021-08-08T13:36:02Z</time>
      </trkpt>
      <trkpt lat="44.93003" lon="5.57113">
        <ele>1085.3</ele>
        <time>2021-08-08T13:36:04Z</time>
      </trkpt>
      <trkpt lat="44.92999" lon="5.57113">
        <ele>1085.6</ele>
        <time>2021-08-08T13:36:05Z</time>
      </trkpt>
      <trkpt lat="44.92995" lon="5.57114">
        <ele>1085.8</ele>
        <time>2021-08-08T13:36:06Z</time>
      </trkpt>
      <trkpt lat="44.92991" lon="5.57113">
        <ele>1086.1</ele>
        <time>2021-08-08T13:36:08Z</time>
      </trkpt>
      <trkpt lat="44.92987" lon="5.57113">
        <ele>1086.3</ele>
        <time>2021-08-08T13:36:09Z</time>
      </trkpt>
      <trkpt lat="44.92984" lon="5.57113">
        <ele>1086.5</ele>
        <time>2021-08-08T13:36:10Z</time>
      </trkpt>
      <trkpt lat="44.9298" lon="5.57113">
        <ele>1086.8</ele>
        <time>2021-08-08T13:36:11Z</time>
      </trkpt>
      <trkpt lat="44.92976" lon="5.57113">
        <ele>1087.1</ele>
        <time>2021-08-08T13:36:12Z</time>
      </trkpt>
      <trkpt lat="44.92972" lon="5.57112">
        <ele>1087.3</ele>
        <time>2021-08-08T13:36:13Z</time>
      </trkpt>
      <trkpt lat="44.92969" lon="5.57112">
        <ele>1087.6</ele>
        <time>2021-08-08T13:36:14Z</time>
      </trkpt>
      <trkpt lat="44.92964" lon="5.57112">
        <ele>1087.9</ele>
        <time>2021-08-08T13:36:16Z</time>
      </trkpt>
      <trkpt lat="44.92961" lon="5.57112">
        <ele>1088.2</ele>
        <time>2021-08-08T13:36:17Z</time>
      </trkpt>
      <trkpt lat="44.92957" lon="5.57112">
        <ele>1088.4</ele>
        <time>2021-08-08T13:36:18Z</time>
      </trkpt>
      <trkpt lat="44.92953" lon="5.57112">
        <ele>1088.7</ele>
        <time>2021-08-08T13:36:19Z</time>
      </trkpt>
      <trkpt lat="44.92949" lon="5.57112">
        <ele>1089.1</ele>
        <time>2021-08-08T13:36:21Z</time>
      </trkpt>
      <trkpt lat="44.92945" lon="5.57112">
        <ele>1089.4</ele>
        <time>2021-08-08T13:36:22Z</time>
      </trkpt>
      <trkpt lat="44.9294" lon="5.57113">
        <ele>1089.7</ele>
        <time>2021-08-08T13:36:23Z</time>
      </trkpt>
      <trkpt lat="44.92935" lon="5.57114">
        <ele>1090.1</ele>
        <time>2021-08-08T13:36:25Z</time>
      </trkpt>
      <trkpt lat="44.92932" lon="5.57115">
        <ele>1090.3</ele>
        <time>2021-08-08T13:36:26Z</time>
      </trkpt>
      <trkpt lat="44.92929" lon="5.57116">
        <ele>1090.5</ele>
        <time>2021-08-08T13:36:27Z</time>
      </trkpt>
      <trkpt lat="44.92926" lon="5.57117">
        <ele>1090.7</ele>
        <time>2021-08-08T13:36:29Z</time>
      </trkpt>
      <trkpt lat="44.92921" lon="5.57118">
        <ele>1091.1</ele>
        <time>2021-08-08T13:36:30Z</time>
      </trkpt>
      <trkpt lat="44.92918" lon="5.57119">
        <ele>1091.3</ele>
        <time>2021-08-08T13:36:31Z</time>
      </trkpt>
      <trkpt lat="44.92913" lon="5.5712">
        <ele>1091.6</ele>
        <time>2021-08-08T13:36:32Z</time>
      </trkpt>
      <trkpt lat="44.9291" lon="5.5712">
        <ele>1091.9</ele>
        <time>2021-08-08T13:36:33Z</time>
      </trkpt>
      <trkpt lat="44.92907" lon="5.57121">
        <ele>1092.1</ele>
        <time>2021-08-08T13:36:34Z</time>
      </trkpt>
      <trkpt lat="44.92904" lon="5.57122">
        <ele>1092.3</ele>
        <time>2021-08-08T13:36:35Z</time>
      </trkpt>
      <trkpt lat="44.929" lon="5.57123">
        <ele>1092.6</ele>
        <time>2021-08-08T13:36:37Z</time>
      </trkpt>
      <trkpt lat="44.92895" lon="5.57124">
        <ele>1093</ele>
        <time>2021-08-08T13:36:39Z</time>
      </trkpt>
      <trkpt lat="44.92891" lon="5.57125">
        <ele>1093.2</ele>
        <time>2021-08-08T13:36:40Z</time>
      </trkpt>
      <trkpt lat="44.92887" lon="5.57125">
        <ele>1093.4</ele>
        <time>2021-08-08T13:36:41Z</time>
      </trkpt>
      <trkpt lat="44.92883" lon="5.57125">
        <ele>1093.7</ele>
        <time>2021-08-08T13:36:42Z</time>
      </trkpt>
      <trkpt lat="44.92879" lon="5.57126">
        <ele>1093.8</ele>
        <time>2021-08-08T13:36:43Z</time>
      </trkpt>
      <trkpt lat="44.92874" lon="5.57126">
        <ele>1094.1</ele>
        <time>2021-08-08T13:36:45Z</time>
      </trkpt>
      <trkpt lat="44.92871" lon="5.57126">
        <ele>1094.3</ele>
        <time>2021-08-08T13:36:46Z</time>
      </trkpt>
      <trkpt lat="44.92866" lon="5.57127">
        <ele>1094.5</ele>
        <time>2021-08-08T13:36:47Z</time>
      </trkpt>
      <trkpt lat="44.92862" lon="5.57127">
        <ele>1094.7</ele>
        <time>2021-08-08T13:36:48Z</time>
      </trkpt>
      <trkpt lat="44.92856" lon="5.57126">
        <ele>1095</ele>
        <time>2021-08-08T13:36:50Z</time>
      </trkpt>
      <trkpt lat="44.92852" lon="5.57124">
        <ele>1095.1</ele>
        <time>2021-08-08T13:36:51Z</time>
      </trkpt>
      <trkpt lat="44.92847" lon="5.57122">
        <ele>1095.3</ele>
        <time>2021-08-08T13:36:53Z</time>
      </trkpt>
      <trkpt lat="44.92844" lon="5.5712">
        <ele>1095.5</ele>
        <time>2021-08-08T13:36:54Z</time>
      </trkpt>
      <trkpt lat="44.9284" lon="5.5712">
        <ele>1095.7</ele>
        <time>2021-08-08T13:36:55Z</time>
      </trkpt>
      <trkpt lat="44.92836" lon="5.5712">
        <ele>1095.8</ele>
        <time>2021-08-08T13:36:56Z</time>
      </trkpt>
      <trkpt lat="44.92833" lon="5.57119">
        <ele>1095.9</ele>
        <time>2021-08-08T13:36:57Z</time>
      </trkpt>
      <trkpt lat="44.92827" lon="5.57118">
        <ele>1096.2</ele>
        <time>2021-08-08T13:36:59Z</time>
      </trkpt>
      <trkpt lat="44.92821" lon="5.57118">
        <ele>1096.4</ele>
        <time>2021-08-08T13:37:01Z</time>
      </trkpt>
      <trkpt lat="44.92817" lon="5.57118">
        <ele>1096.6</ele>
        <time>2021-08-08T13:37:02Z</time>
      </trkpt>
      <trkpt lat="44.92816" lon="5.57118">
        <ele>1096.6</ele>
        <time>2021-08-08T13:37:03Z</time>
      </trkpt>
      <trkpt lat="44.92811" lon="5.57118">
        <ele>1096.9</ele>
        <time>2021-08-08T13:37:05Z</time>
      </trkpt>
      <trkpt lat="44.92808" lon="5.57119">
        <ele>1097</ele>
        <time>2021-08-08T13:37:06Z</time>
      </trkpt>
      <trkpt lat="44.92805" lon="5.5712">
        <ele>1097.2</ele>
        <time>2021-08-08T13:37:08Z</time>
      </trkpt>
      <trkpt lat="44.92801" lon="5.57121">
        <ele>1097.4</ele>
        <time>2021-08-08T13:37:09Z</time>
      </trkpt>
      <trkpt lat="44.92797" lon="5.57121">
        <ele>1097.6</ele>
        <time>2021-08-08T13:37:10Z</time>
      </trkpt>
      <trkpt lat="44.92793" lon="5.57123">
        <ele>1097.8</ele>
        <time>2021-08-08T13:37:11Z</time>
      </trkpt>
      <trkpt lat="44.9279" lon="5.57123">
        <ele>1097.9</ele>
        <time>2021-08-08T13:37:12Z</time>
      </trkpt>
      <trkpt lat="44.92783" lon="5.57123">
        <ele>1098.2</ele>
        <time>2021-08-08T13:37:14Z</time>
      </trkpt>
      <trkpt lat="44.92779" lon="5.57122">
        <ele>1098.5</ele>
        <time>2021-08-08T13:37:15Z</time>
      </trkpt>
      <trkpt lat="44.92776" lon="5.57121">
        <ele>1098.6</ele>
        <time>2021-08-08T13:37:16Z</time>
      </trkpt>
      <trkpt lat="44.92769" lon="5.57119">
        <ele>1098.9</ele>
        <time>2021-08-08T13:37:18Z</time>
      </trkpt>
      <trkpt lat="44.92765" lon="5.57118">
        <ele>1099</ele>
        <time>2021-08-08T13:37:19Z</time>
      </trkpt>
      <trkpt lat="44.92759" lon="5.57114">
        <ele>1099.2</ele>
        <time>2021-08-08T13:37:21Z</time>
      </trkpt>
      <trkpt lat="44.92755" lon="5.57112">
        <ele>1099.3</ele>
        <time>2021-08-08T13:37:22Z</time>
      </trkpt>
      <trkpt lat="44.92751" lon="5.57109">
        <ele>1099.5</ele>
        <time>2021-08-08T13:37:23Z</time>
      </trkpt>
      <trkpt lat="44.92748" lon="5.57106">
        <ele>1099.6</ele>
        <time>2021-08-08T13:37:24Z</time>
      </trkpt>
      <trkpt lat="44.92743" lon="5.57102">
        <ele>1099.8</ele>
        <time>2021-08-08T13:37:25Z</time>
      </trkpt>
      <trkpt lat="44.9274" lon="5.57098">
        <ele>1099.9</ele>
        <time>2021-08-08T13:37:26Z</time>
      </trkpt>
      <trkpt lat="44.92735" lon="5.57093">
        <ele>1100.2</ele>
        <time>2021-08-08T13:37:28Z</time>
      </trkpt>
      <trkpt lat="44.92732" lon="5.57089">
        <ele>1100.3</ele>
        <time>2021-08-08T13:37:29Z</time>
      </trkpt>
      <trkpt lat="44.92728" lon="5.57085">
        <ele>1100.5</ele>
        <time>2021-08-08T13:37:30Z</time>
      </trkpt>
      <trkpt lat="44.92725" lon="5.57082">
        <ele>1100.6</ele>
        <time>2021-08-08T13:37:31Z</time>
      </trkpt>
      <trkpt lat="44.92722" lon="5.57078">
        <ele>1100.8</ele>
        <time>2021-08-08T13:37:32Z</time>
      </trkpt>
      <trkpt lat="44.92719" lon="5.57075">
        <ele>1101</ele>
        <time>2021-08-08T13:37:34Z</time>
      </trkpt>
      <trkpt lat="44.92714" lon="5.5707">
        <ele>1101.2</ele>
        <time>2021-08-08T13:37:35Z</time>
      </trkpt>
      <trkpt lat="44.9271" lon="5.57066">
        <ele>1101.4</ele>
        <time>2021-08-08T13:37:37Z</time>
      </trkpt>
      <trkpt lat="44.92706" lon="5.57063">
        <ele>1101.5</ele>
        <time>2021-08-08T13:37:38Z</time>
      </trkpt>
      <trkpt lat="44.92702" lon="5.5706">
        <ele>1101.7</ele>
        <time>2021-08-08T13:37:40Z</time>
      </trkpt>
      <trkpt lat="44.92698" lon="5.57057">
        <ele>1101.9</ele>
        <time>2021-08-08T13:37:41Z</time>
      </trkpt>
      <trkpt lat="44.92692" lon="5.57054">
        <ele>1102</ele>
        <time>2021-08-08T13:37:42Z</time>
      </trkpt>
      <trkpt lat="44.92687" lon="5.57051">
        <ele>1102.2</ele>
        <time>2021-08-08T13:37:44Z</time>
      </trkpt>
      <trkpt lat="44.92683" lon="5.5705">
        <ele>1102.3</ele>
        <time>2021-08-08T13:37:45Z</time>
      </trkpt>
      <trkpt lat="44.92677" lon="5.57048">
        <ele>1102.5</ele>
        <time>2021-08-08T13:37:46Z</time>
      </trkpt>
      <trkpt lat="44.92673" lon="5.57046">
        <ele>1102.6</ele>
        <time>2021-08-08T13:37:47Z</time>
      </trkpt>
      <trkpt lat="44.92668" lon="5.57045">
        <ele>1102.7</ele>
        <time>2021-08-08T13:37:49Z</time>
      </trkpt>
      <trkpt lat="44.9266" lon="5.57041">
        <ele>1103</ele>
        <time>2021-08-08T13:37:50Z</time>
      </trkpt>
      <trkpt lat="44.92654" lon="5.5704">
        <ele>1103.2</ele>
        <time>2021-08-08T13:37:52Z</time>
      </trkpt>
      <trkpt lat="44.92648" lon="5.57038">
        <ele>1103.4</ele>
        <time>2021-08-08T13:37:53Z</time>
      </trkpt>
      <trkpt lat="44.92642" lon="5.57037">
        <ele>1103.6</ele>
        <time>2021-08-08T13:37:54Z</time>
      </trkpt>
      <trkpt lat="44.92638" lon="5.57035">
        <ele>1103.8</ele>
        <time>2021-08-08T13:37:55Z</time>
      </trkpt>
      <trkpt lat="44.92633" lon="5.57033">
        <ele>1104</ele>
        <time>2021-08-08T13:37:57Z</time>
      </trkpt>
      <trkpt lat="44.92627" lon="5.5703">
        <ele>1104.2</ele>
        <time>2021-08-08T13:37:58Z</time>
      </trkpt>
      <trkpt lat="44.92623" lon="5.57027">
        <ele>1104.4</ele>
        <time>2021-08-08T13:37:59Z</time>
      </trkpt>
      <trkpt lat="44.92617" lon="5.57023">
        <ele>1104.7</ele>
        <time>2021-08-08T13:38:00Z</time>
      </trkpt>
      <trkpt lat="44.92613" lon="5.57021">
        <ele>1104.9</ele>
        <time>2021-08-08T13:38:01Z</time>
      </trkpt>
      <trkpt lat="44.92608" lon="5.57018">
        <ele>1105.1</ele>
        <time>2021-08-08T13:38:03Z</time>
      </trkpt>
      <trkpt lat="44.92603" lon="5.57015">
        <ele>1105.4</ele>
        <time>2021-08-08T13:38:04Z</time>
      </trkpt>
      <trkpt lat="44.92598" lon="5.57012">
        <ele>1105.7</ele>
        <time>2021-08-08T13:38:05Z</time>
      </trkpt>
      <trkpt lat="44.9259" lon="5.57008">
        <ele>1106</ele>
        <time>2021-08-08T13:38:07Z</time>
      </trkpt>
      <trkpt lat="44.92585" lon="5.57005">
        <ele>1106.3</ele>
        <time>2021-08-08T13:38:09Z</time>
      </trkpt>
      <trkpt lat="44.92581" lon="5.57003">
        <ele>1106.4</ele>
        <time>2021-08-08T13:38:10Z</time>
      </trkpt>
      <trkpt lat="44.92578" lon="5.57001">
        <ele>1106.6</ele>
        <time>2021-08-08T13:38:11Z</time>
      </trkpt>
      <trkpt lat="44.92575" lon="5.56999">
        <ele>1106.8</ele>
        <time>2021-08-08T13:38:13Z</time>
      </trkpt>
      <trkpt lat="44.92569" lon="5.56997">
        <ele>1107</ele>
        <time>2021-08-08T13:38:14Z</time>
      </trkpt>
      <trkpt lat="44.92565" lon="5.56994">
        <ele>1107.3</ele>
        <time>2021-08-08T13:38:15Z</time>
      </trkpt>
      <trkpt lat="44.9256" lon="5.56991">
        <ele>1107.5</ele>
        <time>2021-08-08T13:38:17Z</time>
      </trkpt>
      <trkpt lat="44.92557" lon="5.56989">
        <ele>1107.7</ele>
        <time>2021-08-08T13:38:18Z</time>
      </trkpt>
      <trkpt lat="44.92553" lon="5.56987">
        <ele>1107.9</ele>
        <time>2021-08-08T13:38:19Z</time>
      </trkpt>
      <trkpt lat="44.9255" lon="5.56985">
        <ele>1108.1</ele>
        <time>2021-08-08T13:38:20Z</time>
      </trkpt>
      <trkpt lat="44.92547" lon="5.56982">
        <ele>1108.3</ele>
        <time>2021-08-08T13:38:21Z</time>
      </trkpt>
      <trkpt lat="44.92541" lon="5.56978">
        <ele>1108.7</ele>
        <time>2021-08-08T13:38:23Z</time>
      </trkpt>
      <trkpt lat="44.92536" lon="5.56975">
        <ele>1108.9</ele>
        <time>2021-08-08T13:38:24Z</time>
      </trkpt>
      <trkpt lat="44.92533" lon="5.56973">
        <ele>1109.1</ele>
        <time>2021-08-08T13:38:25Z</time>
      </trkpt>
      <trkpt lat="44.9253" lon="5.5697">
        <ele>1109.3</ele>
        <time>2021-08-08T13:38:26Z</time>
      </trkpt>
      <trkpt lat="44.92525" lon="5.56964">
        <ele>1109.7</ele>
        <time>2021-08-08T13:38:28Z</time>
      </trkpt>
      <trkpt lat="44.92519" lon="5.56958">
        <ele>1110.1</ele>
        <time>2021-08-08T13:38:30Z</time>
      </trkpt>
      <trkpt lat="44.92515" lon="5.56954">
        <ele>1110.3</ele>
        <time>2021-08-08T13:38:32Z</time>
      </trkpt>
      <trkpt lat="44.92514" lon="5.56953">
        <ele>1110.4</ele>
        <time>2021-08-08T13:38:33Z</time>
      </trkpt>
      <trkpt lat="44.92513" lon="5.56952">
        <ele>1110.5</ele>
        <time>2021-08-08T13:38:34Z</time>
      </trkpt>
      <trkpt lat="44.9251" lon="5.56949">
        <ele>1110.7</ele>
        <time>2021-08-08T13:38:35Z</time>
      </trkpt>
      <trkpt lat="44.92508" lon="5.56946">
        <ele>1110.8</ele>
        <time>2021-08-08T13:38:36Z</time>
      </trkpt>
      <trkpt lat="44.92505" lon="5.56944">
        <ele>1110.9</ele>
        <time>2021-08-08T13:38:37Z</time>
      </trkpt>
      <trkpt lat="44.925" lon="5.5694">
        <ele>1111.2</ele>
        <time>2021-08-08T13:38:39Z</time>
      </trkpt>
      <trkpt lat="44.92497" lon="5.56938">
        <ele>1111.3</ele>
        <time>2021-08-08T13:38:40Z</time>
      </trkpt>
      <trkpt lat="44.92492" lon="5.56935">
        <ele>1111.4</ele>
        <time>2021-08-08T13:38:41Z</time>
      </trkpt>
      <trkpt lat="44.92487" lon="5.56934">
        <ele>1111.6</ele>
        <time>2021-08-08T13:38:43Z</time>
      </trkpt>
      <trkpt lat="44.92481" lon="5.56934">
        <ele>1111.7</ele>
        <time>2021-08-08T13:38:44Z</time>
      </trkpt>
      <trkpt lat="44.92475" lon="5.56934">
        <ele>1111.8</ele>
        <time>2021-08-08T13:38:45Z</time>
      </trkpt>
      <trkpt lat="44.92469" lon="5.56937">
        <ele>1112</ele>
        <time>2021-08-08T13:38:47Z</time>
      </trkpt>
      <trkpt lat="44.92459" lon="5.56943">
        <ele>1112.2</ele>
        <time>2021-08-08T13:38:48Z</time>
      </trkpt>
      <trkpt lat="44.92455" lon="5.56946">
        <ele>1112.3</ele>
        <time>2021-08-08T13:38:49Z</time>
      </trkpt>
      <trkpt lat="44.92448" lon="5.56951">
        <ele>1112.6</ele>
        <time>2021-08-08T13:38:51Z</time>
      </trkpt>
      <trkpt lat="44.92444" lon="5.56956">
        <ele>1112.7</ele>
        <time>2021-08-08T13:38:52Z</time>
      </trkpt>
      <trkpt lat="44.92437" lon="5.56961">
        <ele>1113</ele>
        <time>2021-08-08T13:38:54Z</time>
      </trkpt>
      <trkpt lat="44.92433" lon="5.56961">
        <ele>1113.1</ele>
        <time>2021-08-08T13:38:55Z</time>
      </trkpt>
      <trkpt lat="44.9243" lon="5.56966">
        <ele>1113.3</ele>
        <time>2021-08-08T13:38:56Z</time>
      </trkpt>
      <trkpt lat="44.92424" lon="5.56971">
        <ele>1113.5</ele>
        <time>2021-08-08T13:38:58Z</time>
      </trkpt>
      <trkpt lat="44.9242" lon="5.56974">
        <ele>1113.6</ele>
        <time>2021-08-08T13:38:59Z</time>
      </trkpt>
      <trkpt lat="44.92415" lon="5.56977">
        <ele>1113.8</ele>
        <time>2021-08-08T13:39:00Z</time>
      </trkpt>
      <trkpt lat="44.9241" lon="5.56981">
        <ele>1114</ele>
        <time>2021-08-08T13:39:01Z</time>
      </trkpt>
      <trkpt lat="44.92406" lon="5.56983">
        <ele>1114.2</ele>
        <time>2021-08-08T13:39:02Z</time>
      </trkpt>
      <trkpt lat="44.92402" lon="5.56985">
        <ele>1114.3</ele>
        <time>2021-08-08T13:39:03Z</time>
      </trkpt>
      <trkpt lat="44.92399" lon="5.56986">
        <ele>1114.5</ele>
        <time>2021-08-08T13:39:04Z</time>
      </trkpt>
      <trkpt lat="44.92394" lon="5.56987">
        <ele>1114.6</ele>
        <time>2021-08-08T13:39:06Z</time>
      </trkpt>
      <trkpt lat="44.92389" lon="5.56989">
        <ele>1114.9</ele>
        <time>2021-08-08T13:39:07Z</time>
      </trkpt>
      <trkpt lat="44.92384" lon="5.5699">
        <ele>1115.1</ele>
        <time>2021-08-08T13:39:08Z</time>
      </trkpt>
      <trkpt lat="44.92379" lon="5.56991">
        <ele>1115.4</ele>
        <time>2021-08-08T13:39:09Z</time>
      </trkpt>
      <trkpt lat="44.92375" lon="5.56991">
        <ele>1115.6</ele>
        <time>2021-08-08T13:39:10Z</time>
      </trkpt>
      <trkpt lat="44.92367" lon="5.56991">
        <ele>1116</ele>
        <time>2021-08-08T13:39:12Z</time>
      </trkpt>
      <trkpt lat="44.92361" lon="5.56992">
        <ele>1116.3</ele>
        <time>2021-08-08T13:39:14Z</time>
      </trkpt>
      <trkpt lat="44.92358" lon="5.56992">
        <ele>1116.5</ele>
        <time>2021-08-08T13:39:15Z</time>
      </trkpt>
      <trkpt lat="44.92354" lon="5.56993">
        <ele>1116.7</ele>
        <time>2021-08-08T13:39:16Z</time>
      </trkpt>
      <trkpt lat="44.9235" lon="5.56993">
        <ele>1116.9</ele>
        <time>2021-08-08T13:39:17Z</time>
      </trkpt>
      <trkpt lat="44.92346" lon="5.56993">
        <ele>1117.1</ele>
        <time>2021-08-08T13:39:18Z</time>
      </trkpt>
      <trkpt lat="44.92339" lon="5.56994">
        <ele>1117.5</ele>
        <time>2021-08-08T13:39:20Z</time>
      </trkpt>
      <trkpt lat="44.92335" lon="5.56994">
        <ele>1117.7</ele>
        <time>2021-08-08T13:39:21Z</time>
      </trkpt>
      <trkpt lat="44.9233" lon="5.56994">
        <ele>1118</ele>
        <time>2021-08-08T13:39:23Z</time>
      </trkpt>
      <trkpt lat="44.92325" lon="5.56993">
        <ele>1118.3</ele>
        <time>2021-08-08T13:39:24Z</time>
      </trkpt>
      <trkpt lat="44.92321" lon="5.56993">
        <ele>1118.5</ele>
        <time>2021-08-08T13:39:25Z</time>
      </trkpt>
      <trkpt lat="44.92315" lon="5.56991">
        <ele>1118.9</ele>
        <time>2021-08-08T13:39:27Z</time>
      </trkpt>
      <trkpt lat="44.92311" lon="5.56989">
        <ele>1119.1</ele>
        <time>2021-08-08T13:39:28Z</time>
      </trkpt>
      <trkpt lat="44.92306" lon="5.56988">
        <ele>1119.4</ele>
        <time>2021-08-08T13:39:29Z</time>
      </trkpt>
      <trkpt lat="44.92303" lon="5.56986">
        <ele>1119.6</ele>
        <time>2021-08-08T13:39:30Z</time>
      </trkpt>
      <trkpt lat="44.92298" lon="5.56984">
        <ele>1119.9</ele>
        <time>2021-08-08T13:39:32Z</time>
      </trkpt>
      <trkpt lat="44.92294" lon="5.56981">
        <ele>1120.1</ele>
        <time>2021-08-08T13:39:33Z</time>
      </trkpt>
      <trkpt lat="44.92291" lon="5.56979">
        <ele>1120.3</ele>
        <time>2021-08-08T13:39:34Z</time>
      </trkpt>
      <trkpt lat="44.92288" lon="5.56976">
        <ele>1120.4</ele>
        <time>2021-08-08T13:39:35Z</time>
      </trkpt>
      <trkpt lat="44.92284" lon="5.56973">
        <ele>1120.6</ele>
        <time>2021-08-08T13:39:36Z</time>
      </trkpt>
      <trkpt lat="44.92281" lon="5.56971">
        <ele>1120.7</ele>
        <time>2021-08-08T13:39:37Z</time>
      </trkpt>
      <trkpt lat="44.92278" lon="5.56969">
        <ele>1120.9</ele>
        <time>2021-08-08T13:39:38Z</time>
      </trkpt>
      <trkpt lat="44.92275" lon="5.56967">
        <ele>1121</ele>
        <time>2021-08-08T13:39:40Z</time>
      </trkpt>
      <trkpt lat="44.92271" lon="5.56964">
        <ele>1121.2</ele>
        <time>2021-08-08T13:39:41Z</time>
      </trkpt>
      <trkpt lat="44.92268" lon="5.56961">
        <ele>1121.3</ele>
        <time>2021-08-08T13:39:42Z</time>
      </trkpt>
      <trkpt lat="44.92264" lon="5.56959">
        <ele>1121.5</ele>
        <time>2021-08-08T13:39:43Z</time>
      </trkpt>
      <trkpt lat="44.92259" lon="5.56957">
        <ele>1121.8</ele>
        <time>2021-08-08T13:39:45Z</time>
      </trkpt>
      <trkpt lat="44.92255" lon="5.56955">
        <ele>1121.9</ele>
        <time>2021-08-08T13:39:47Z</time>
      </trkpt>
      <trkpt lat="44.92251" lon="5.56953">
        <ele>1122.1</ele>
        <time>2021-08-08T13:39:48Z</time>
      </trkpt>
      <trkpt lat="44.92247" lon="5.56952">
        <ele>1122.3</ele>
        <time>2021-08-08T13:39:49Z</time>
      </trkpt>
      <trkpt lat="44.92243" lon="5.56949">
        <ele>1122.5</ele>
        <time>2021-08-08T13:39:50Z</time>
      </trkpt>
      <trkpt lat="44.9224" lon="5.56948">
        <ele>1122.7</ele>
        <time>2021-08-08T13:39:51Z</time>
      </trkpt>
      <trkpt lat="44.92236" lon="5.56947">
        <ele>1122.8</ele>
        <time>2021-08-08T13:39:52Z</time>
      </trkpt>
      <trkpt lat="44.9223" lon="5.56945">
        <ele>1123.1</ele>
        <time>2021-08-08T13:39:54Z</time>
      </trkpt>
      <trkpt lat="44.92226" lon="5.56944">
        <ele>1123.3</ele>
        <time>2021-08-08T13:39:55Z</time>
      </trkpt>
      <trkpt lat="44.9222" lon="5.56942">
        <ele>1123.6</ele>
        <time>2021-08-08T13:39:57Z</time>
      </trkpt>
      <trkpt lat="44.92216" lon="5.56941">
        <ele>1123.7</ele>
        <time>2021-08-08T13:39:58Z</time>
      </trkpt>
      <trkpt lat="44.92211" lon="5.56938">
        <ele>1124</ele>
        <time>2021-08-08T13:39:59Z</time>
      </trkpt>
      <trkpt lat="44.92208" lon="5.56937">
        <ele>1124.2</ele>
        <time>2021-08-08T13:40:00Z</time>
      </trkpt>
      <trkpt lat="44.92204" lon="5.56935">
        <ele>1124.3</ele>
        <time>2021-08-08T13:40:01Z</time>
      </trkpt>
      <trkpt lat="44.922" lon="5.56933">
        <ele>1124.5</ele>
        <time>2021-08-08T13:40:03Z</time>
      </trkpt>
      <trkpt lat="44.92197" lon="5.56931">
        <ele>1124.7</ele>
        <time>2021-08-08T13:40:04Z</time>
      </trkpt>
      <trkpt lat="44.92193" lon="5.56929">
        <ele>1124.9</ele>
        <time>2021-08-08T13:40:05Z</time>
      </trkpt>
      <trkpt lat="44.92189" lon="5.56926">
        <ele>1125.1</ele>
        <time>2021-08-08T13:40:07Z</time>
      </trkpt>
      <trkpt lat="44.92183" lon="5.56922">
        <ele>1125.4</ele>
        <time>2021-08-08T13:40:08Z</time>
      </trkpt>
      <trkpt lat="44.9218" lon="5.5692">
        <ele>1125.6</ele>
        <time>2021-08-08T13:40:09Z</time>
      </trkpt>
      <trkpt lat="44.92177" lon="5.56919">
        <ele>1125.7</ele>
        <time>2021-08-08T13:40:10Z</time>
      </trkpt>
      <trkpt lat="44.92173" lon="5.56916">
        <ele>1126</ele>
        <time>2021-08-08T13:40:12Z</time>
      </trkpt>
      <trkpt lat="44.92168" lon="5.56913">
        <ele>1126.2</ele>
        <time>2021-08-08T13:40:13Z</time>
      </trkpt>
      <trkpt lat="44.92163" lon="5.5691">
        <ele>1126.5</ele>
        <time>2021-08-08T13:40:15Z</time>
      </trkpt>
      <trkpt lat="44.9216" lon="5.56909">
        <ele>1126.7</ele>
        <time>2021-08-08T13:40:16Z</time>
      </trkpt>
      <trkpt lat="44.92157" lon="5.56907">
        <ele>1126.8</ele>
        <time>2021-08-08T13:40:17Z</time>
      </trkpt>
      <trkpt lat="44.92154" lon="5.56905">
        <ele>1127</ele>
        <time>2021-08-08T13:40:18Z</time>
      </trkpt>
      <trkpt lat="44.92151" lon="5.56903">
        <ele>1127.2</ele>
        <time>2021-08-08T13:40:20Z</time>
      </trkpt>
      <trkpt lat="44.92146" lon="5.56901">
        <ele>1127.5</ele>
        <time>2021-08-08T13:40:21Z</time>
      </trkpt>
      <trkpt lat="44.92142" lon="5.56899">
        <ele>1127.7</ele>
        <time>2021-08-08T13:40:22Z</time>
      </trkpt>
      <trkpt lat="44.92138" lon="5.56897">
        <ele>1128.1</ele>
        <time>2021-08-08T13:40:24Z</time>
      </trkpt>
      <trkpt lat="44.92134" lon="5.56896">
        <ele>1128.4</ele>
        <time>2021-08-08T13:40:25Z</time>
      </trkpt>
      <trkpt lat="44.92129" lon="5.56896">
        <ele>1128.7</ele>
        <time>2021-08-08T13:40:27Z</time>
      </trkpt>
      <trkpt lat="44.92125" lon="5.56895">
        <ele>1129</ele>
        <time>2021-08-08T13:40:28Z</time>
      </trkpt>
      <trkpt lat="44.92121" lon="5.56895">
        <ele>1129.3</ele>
        <time>2021-08-08T13:40:29Z</time>
      </trkpt>
      <trkpt lat="44.92118" lon="5.56896">
        <ele>1129.5</ele>
        <time>2021-08-08T13:40:30Z</time>
      </trkpt>
      <trkpt lat="44.92115" lon="5.56897">
        <ele>1129.7</ele>
        <time>2021-08-08T13:40:31Z</time>
      </trkpt>
      <trkpt lat="44.92111" lon="5.56898">
        <ele>1130</ele>
        <time>2021-08-08T13:40:33Z</time>
      </trkpt>
      <trkpt lat="44.92107" lon="5.56899">
        <ele>1130.2</ele>
        <time>2021-08-08T13:40:34Z</time>
      </trkpt>
      <trkpt lat="44.92104" lon="5.56901">
        <ele>1130.4</ele>
        <time>2021-08-08T13:40:35Z</time>
      </trkpt>
      <trkpt lat="44.92101" lon="5.56903">
        <ele>1130.7</ele>
        <time>2021-08-08T13:40:36Z</time>
      </trkpt>
      <trkpt lat="44.92097" lon="5.56906">
        <ele>1131</ele>
        <time>2021-08-08T13:40:37Z</time>
      </trkpt>
      <trkpt lat="44.92092" lon="5.56909">
        <ele>1131.3</ele>
        <time>2021-08-08T13:40:39Z</time>
      </trkpt>
      <trkpt lat="44.92088" lon="5.56913">
        <ele>1131.6</ele>
        <time>2021-08-08T13:40:40Z</time>
      </trkpt>
      <trkpt lat="44.92084" lon="5.56917">
        <ele>1131.9</ele>
        <time>2021-08-08T13:40:42Z</time>
      </trkpt>
      <trkpt lat="44.92081" lon="5.5692">
        <ele>1132.1</ele>
        <time>2021-08-08T13:40:43Z</time>
      </trkpt>
      <trkpt lat="44.92076" lon="5.56927">
        <ele>1132.4</ele>
        <time>2021-08-08T13:40:45Z</time>
      </trkpt>
      <trkpt lat="44.92073" lon="5.56931">
        <ele>1132.6</ele>
        <time>2021-08-08T13:40:46Z</time>
      </trkpt>
      <trkpt lat="44.9207" lon="5.56935">
        <ele>1132.7</ele>
        <time>2021-08-08T13:40:47Z</time>
      </trkpt>
      <trkpt lat="44.92066" lon="5.56941">
        <ele>1132.9</ele>
        <time>2021-08-08T13:40:49Z</time>
      </trkpt>
      <trkpt lat="44.92063" lon="5.56946">
        <ele>1133.1</ele>
        <time>2021-08-08T13:40:50Z</time>
      </trkpt>
      <trkpt lat="44.92059" lon="5.56951">
        <ele>1133.2</ele>
        <time>2021-08-08T13:40:51Z</time>
      </trkpt>
      <trkpt lat="44.92053" lon="5.56955">
        <ele>1133.3</ele>
        <time>2021-08-08T13:40:52Z</time>
      </trkpt>
      <trkpt lat="44.9205" lon="5.56959">
        <ele>1133.5</ele>
        <time>2021-08-08T13:40:53Z</time>
      </trkpt>
      <trkpt lat="44.92042" lon="5.56967">
        <ele>1133.7</ele>
        <time>2021-08-08T13:40:55Z</time>
      </trkpt>
      <trkpt lat="44.92035" lon="5.56976">
        <ele>1133.9</ele>
        <time>2021-08-08T13:40:57Z</time>
      </trkpt>
      <trkpt lat="44.92029" lon="5.56986">
        <ele>1134.1</ele>
        <time>2021-08-08T13:40:59Z</time>
      </trkpt>
      <trkpt lat="44.92026" lon="5.5699">
        <ele>1134.3</ele>
        <time>2021-08-08T13:41:01Z</time>
      </trkpt>
      <trkpt lat="44.92018" lon="5.56999">
        <ele>1134.5</ele>
        <time>2021-08-08T13:41:02Z</time>
      </trkpt>
      <trkpt lat="44.92011" lon="5.5701">
        <ele>1134.8</ele>
        <time>2021-08-08T13:41:04Z</time>
      </trkpt>
      <trkpt lat="44.92007" lon="5.57015">
        <ele>1135</ele>
        <time>2021-08-08T13:41:05Z</time>
      </trkpt>
      <trkpt lat="44.92003" lon="5.5702">
        <ele>1135.1</ele>
        <time>2021-08-08T13:41:07Z</time>
      </trkpt>
      <trkpt lat="44.91995" lon="5.57031">
        <ele>1135.4</ele>
        <time>2021-08-08T13:41:08Z</time>
      </trkpt>
      <trkpt lat="44.91987" lon="5.57041">
        <ele>1135.7</ele>
        <time>2021-08-08T13:41:10Z</time>
      </trkpt>
      <trkpt lat="44.91978" lon="5.57049">
        <ele>1136</ele>
        <time>2021-08-08T13:41:12Z</time>
      </trkpt>
      <trkpt lat="44.91973" lon="5.57053">
        <ele>1136.2</ele>
        <time>2021-08-08T13:41:13Z</time>
      </trkpt>
      <trkpt lat="44.91964" lon="5.57061">
        <ele>1136.5</ele>
        <time>2021-08-08T13:41:15Z</time>
      </trkpt>
      <trkpt lat="44.91954" lon="5.57068">
        <ele>1137</ele>
        <time>2021-08-08T13:41:17Z</time>
      </trkpt>
      <trkpt lat="44.91945" lon="5.57073">
        <ele>1137.2</ele>
        <time>2021-08-08T13:41:19Z</time>
      </trkpt>
      <trkpt lat="44.91936" lon="5.57075">
        <ele>1137.4</ele>
        <time>2021-08-08T13:41:21Z</time>
      </trkpt>
      <trkpt lat="44.91932" lon="5.57075">
        <ele>1137.5</ele>
        <time>2021-08-08T13:41:22Z</time>
      </trkpt>
      <trkpt lat="44.91928" lon="5.57075">
        <ele>1137.5</ele>
        <time>2021-08-08T13:41:23Z</time>
      </trkpt>
      <trkpt lat="44.9192" lon="5.57072">
        <ele>1137.7</ele>
        <time>2021-08-08T13:41:26Z</time>
      </trkpt>
      <trkpt lat="44.91913" lon="5.57064">
        <ele>1137.8</ele>
        <time>2021-08-08T13:41:27Z</time>
      </trkpt>
      <trkpt lat="44.91906" lon="5.57048">
        <ele>1137.9</ele>
        <time>2021-08-08T13:41:30Z</time>
      </trkpt>
      <trkpt lat="44.91903" lon="5.57035">
        <ele>1138</ele>
        <time>2021-08-08T13:41:32Z</time>
      </trkpt>
      <trkpt lat="44.91901" lon="5.57028">
        <ele>1138.1</ele>
        <time>2021-08-08T13:41:33Z</time>
      </trkpt>
      <trkpt lat="44.91899" lon="5.57009">
        <ele>1138.2</ele>
        <time>2021-08-08T13:41:36Z</time>
      </trkpt>
      <trkpt lat="44.91899" lon="5.57002">
        <ele>1138.3</ele>
        <time>2021-08-08T13:41:38Z</time>
      </trkpt>
      <trkpt lat="44.91899" lon="5.56992">
        <ele>1138.3</ele>
        <time>2021-08-08T13:41:39Z</time>
      </trkpt>
      <trkpt lat="44.91897" lon="5.56984">
        <ele>1138.4</ele>
        <time>2021-08-08T13:41:41Z</time>
      </trkpt>
      <trkpt lat="44.91896" lon="5.56975">
        <ele>1138.6</ele>
        <time>2021-08-08T13:41:42Z</time>
      </trkpt>
      <trkpt lat="44.91895" lon="5.56967">
        <ele>1138.7</ele>
        <time>2021-08-08T13:41:43Z</time>
      </trkpt>
      <trkpt lat="44.91891" lon="5.56957">
        <ele>1138.8</ele>
        <time>2021-08-08T13:41:45Z</time>
      </trkpt>
      <trkpt lat="44.91885" lon="5.56948">
        <ele>1139</ele>
        <time>2021-08-08T13:41:47Z</time>
      </trkpt>
      <trkpt lat="44.91878" lon="5.56938">
        <ele>1139.2</ele>
        <time>2021-08-08T13:41:49Z</time>
      </trkpt>
      <trkpt lat="44.9187" lon="5.5693">
        <ele>1139.5</ele>
        <time>2021-08-08T13:41:51Z</time>
      </trkpt>
      <trkpt lat="44.91865" lon="5.56927">
        <ele>1139.6</ele>
        <time>2021-08-08T13:41:53Z</time>
      </trkpt>
      <trkpt lat="44.91855" lon="5.56921">
        <ele>1139.9</ele>
        <time>2021-08-08T13:41:54Z</time>
      </trkpt>
      <trkpt lat="44.91845" lon="5.56914">
        <ele>1140.2</ele>
        <time>2021-08-08T13:41:56Z</time>
      </trkpt>
      <trkpt lat="44.9184" lon="5.56911">
        <ele>1140.3</ele>
        <time>2021-08-08T13:41:57Z</time>
      </trkpt>
      <trkpt lat="44.91831" lon="5.56905">
        <ele>1140.6</ele>
        <time>2021-08-08T13:41:59Z</time>
      </trkpt>
      <trkpt lat="44.91826" lon="5.569">
        <ele>1140.8</ele>
        <time>2021-08-08T13:42:00Z</time>
      </trkpt>
      <trkpt lat="44.91817" lon="5.5689">
        <ele>1141.2</ele>
        <time>2021-08-08T13:42:02Z</time>
      </trkpt>
      <trkpt lat="44.91813" lon="5.56884">
        <ele>1141.4</ele>
        <time>2021-08-08T13:42:03Z</time>
      </trkpt>
      <trkpt lat="44.91806" lon="5.56874">
        <ele>1141.7</ele>
        <time>2021-08-08T13:42:05Z</time>
      </trkpt>
      <trkpt lat="44.91802" lon="5.5687">
        <ele>1141.8</ele>
        <time>2021-08-08T13:42:06Z</time>
      </trkpt>
      <trkpt lat="44.91793" lon="5.56863">
        <ele>1142</ele>
        <time>2021-08-08T13:42:08Z</time>
      </trkpt>
      <trkpt lat="44.91782" lon="5.56861">
        <ele>1142.2</ele>
        <time>2021-08-08T13:42:11Z</time>
      </trkpt>
      <trkpt lat="44.91771" lon="5.5686">
        <ele>1142.4</ele>
        <time>2021-08-08T13:42:13Z</time>
      </trkpt>
      <trkpt lat="44.91759" lon="5.5686">
        <ele>1142.5</ele>
        <time>2021-08-08T13:42:15Z</time>
      </trkpt>
      <trkpt lat="44.91747" lon="5.56861">
        <ele>1142.7</ele>
        <time>2021-08-08T13:42:17Z</time>
      </trkpt>
      <trkpt lat="44.91735" lon="5.56861">
        <ele>1142.9</ele>
        <time>2021-08-08T13:42:19Z</time>
      </trkpt>
      <trkpt lat="44.9173" lon="5.5686">
        <ele>1143.1</ele>
        <time>2021-08-08T13:42:20Z</time>
      </trkpt>
      <trkpt lat="44.91718" lon="5.56859">
        <ele>1143.3</ele>
        <time>2021-08-08T13:42:22Z</time>
      </trkpt>
      <trkpt lat="44.91708" lon="5.56858">
        <ele>1143.5</ele>
        <time>2021-08-08T13:42:24Z</time>
      </trkpt>
      <trkpt lat="44.91696" lon="5.56855">
        <ele>1143.8</ele>
        <time>2021-08-08T13:42:26Z</time>
      </trkpt>
      <trkpt lat="44.91691" lon="5.56854">
        <ele>1143.9</ele>
        <time>2021-08-08T13:42:27Z</time>
      </trkpt>
      <trkpt lat="44.9168" lon="5.56852">
        <ele>1144.2</ele>
        <time>2021-08-08T13:42:29Z</time>
      </trkpt>
      <trkpt lat="44.91674" lon="5.56851">
        <ele>1144.3</ele>
        <time>2021-08-08T13:42:30Z</time>
      </trkpt>
      <trkpt lat="44.91669" lon="5.5685">
        <ele>1144.4</ele>
        <time>2021-08-08T13:42:31Z</time>
      </trkpt>
      <trkpt lat="44.91664" lon="5.56848">
        <ele>1144.6</ele>
        <time>2021-08-08T13:42:32Z</time>
      </trkpt>
      <trkpt lat="44.91647" lon="5.56843">
        <ele>1145</ele>
        <time>2021-08-08T13:42:35Z</time>
      </trkpt>
      <trkpt lat="44.91636" lon="5.56838">
        <ele>1145.3</ele>
        <time>2021-08-08T13:42:37Z</time>
      </trkpt>
      <trkpt lat="44.91625" lon="5.56832">
        <ele>1145.6</ele>
        <time>2021-08-08T13:42:39Z</time>
      </trkpt>
      <trkpt lat="44.91615" lon="5.56826">
        <ele>1145.8</ele>
        <time>2021-08-08T13:42:41Z</time>
      </trkpt>
      <trkpt lat="44.9161" lon="5.56823">
        <ele>1146</ele>
        <time>2021-08-08T13:42:42Z</time>
      </trkpt>
      <trkpt lat="44.91599" lon="5.56817">
        <ele>1146.3</ele>
        <time>2021-08-08T13:42:44Z</time>
      </trkpt>
      <trkpt lat="44.91588" lon="5.56812">
        <ele>1146.6</ele>
        <time>2021-08-08T13:42:47Z</time>
      </trkpt>
      <trkpt lat="44.91576" lon="5.56808">
        <ele>1146.9</ele>
        <time>2021-08-08T13:42:48Z</time>
      </trkpt>
      <trkpt lat="44.91571" lon="5.56806">
        <ele>1147</ele>
        <time>2021-08-08T13:42:49Z</time>
      </trkpt>
      <trkpt lat="44.9156" lon="5.56803">
        <ele>1147.2</ele>
        <time>2021-08-08T13:42:51Z</time>
      </trkpt>
      <trkpt lat="44.9155" lon="5.56802">
        <ele>1147.4</ele>
        <time>2021-08-08T13:42:53Z</time>
      </trkpt>
      <trkpt lat="44.91544" lon="5.56802">
        <ele>1147.5</ele>
        <time>2021-08-08T13:42:54Z</time>
      </trkpt>
      <trkpt lat="44.91539" lon="5.56801">
        <ele>1147.5</ele>
        <time>2021-08-08T13:42:55Z</time>
      </trkpt>
      <trkpt lat="44.91533" lon="5.568">
        <ele>1147.6</ele>
        <time>2021-08-08T13:42:56Z</time>
      </trkpt>
      <trkpt lat="44.91521" lon="5.568">
        <ele>1147.8</ele>
        <time>2021-08-08T13:42:58Z</time>
      </trkpt>
      <trkpt lat="44.91516" lon="5.568">
        <ele>1147.8</ele>
        <time>2021-08-08T13:42:59Z</time>
      </trkpt>
      <trkpt lat="44.91503" lon="5.568">
        <ele>1147.9</ele>
        <time>2021-08-08T13:43:01Z</time>
      </trkpt>
      <trkpt lat="44.91492" lon="5.56802">
        <ele>1148</ele>
        <time>2021-08-08T13:43:03Z</time>
      </trkpt>
      <trkpt lat="44.91486" lon="5.56802">
        <ele>1148.1</ele>
        <time>2021-08-08T13:43:05Z</time>
      </trkpt>
      <trkpt lat="44.91475" lon="5.56804">
        <ele>1148.4</ele>
        <time>2021-08-08T13:43:06Z</time>
      </trkpt>
      <trkpt lat="44.91469" lon="5.56804">
        <ele>1148.5</ele>
        <time>2021-08-08T13:43:07Z</time>
      </trkpt>
      <trkpt lat="44.91458" lon="5.56806">
        <ele>1148.8</ele>
        <time>2021-08-08T13:43:09Z</time>
      </trkpt>
      <trkpt lat="44.91447" lon="5.56808">
        <ele>1149</ele>
        <time>2021-08-08T13:43:11Z</time>
      </trkpt>
      <trkpt lat="44.91442" lon="5.5681">
        <ele>1149.1</ele>
        <time>2021-08-08T13:43:12Z</time>
      </trkpt>
      <trkpt lat="44.91432" lon="5.56813">
        <ele>1149.3</ele>
        <time>2021-08-08T13:43:14Z</time>
      </trkpt>
      <trkpt lat="44.91427" lon="5.56814">
        <ele>1149.5</ele>
        <time>2021-08-08T13:43:15Z</time>
      </trkpt>
      <trkpt lat="44.91417" lon="5.56816">
        <ele>1149.7</ele>
        <time>2021-08-08T13:43:17Z</time>
      </trkpt>
      <trkpt lat="44.91406" lon="5.56818">
        <ele>1150</ele>
        <time>2021-08-08T13:43:19Z</time>
      </trkpt>
      <trkpt lat="44.91396" lon="5.56821">
        <ele>1150.3</ele>
        <time>2021-08-08T13:43:21Z</time>
      </trkpt>
      <trkpt lat="44.9139" lon="5.56822">
        <ele>1150.5</ele>
        <time>2021-08-08T13:43:23Z</time>
      </trkpt>
      <trkpt lat="44.91379" lon="5.56824">
        <ele>1150.7</ele>
        <time>2021-08-08T13:43:24Z</time>
      </trkpt>
      <trkpt lat="44.91369" lon="5.56826">
        <ele>1151</ele>
        <time>2021-08-08T13:43:26Z</time>
      </trkpt>
      <trkpt lat="44.91364" lon="5.56827">
        <ele>1151.2</ele>
        <time>2021-08-08T13:43:27Z</time>
      </trkpt>
      <trkpt lat="44.91359" lon="5.56828">
        <ele>1151.4</ele>
        <time>2021-08-08T13:43:29Z</time>
      </trkpt>
      <trkpt lat="44.91349" lon="5.5683">
        <ele>1151.7</ele>
        <time>2021-08-08T13:43:30Z</time>
      </trkpt>
      <trkpt lat="44.91344" lon="5.56831">
        <ele>1151.8</ele>
        <time>2021-08-08T13:43:31Z</time>
      </trkpt>
      <trkpt lat="44.91334" lon="5.56833">
        <ele>1152.1</ele>
        <time>2021-08-08T13:43:33Z</time>
      </trkpt>
      <trkpt lat="44.91328" lon="5.56835">
        <ele>1152.3</ele>
        <time>2021-08-08T13:43:35Z</time>
      </trkpt>
      <trkpt lat="44.91318" lon="5.56838">
        <ele>1152.7</ele>
        <time>2021-08-08T13:43:36Z</time>
      </trkpt>
      <trkpt lat="44.91305" lon="5.5684">
        <ele>1153.1</ele>
        <time>2021-08-08T13:43:38Z</time>
      </trkpt>
      <trkpt lat="44.91299" lon="5.56841">
        <ele>1153.3</ele>
        <time>2021-08-08T13:43:39Z</time>
      </trkpt>
      <trkpt lat="44.9129" lon="5.56845">
        <ele>1153.6</ele>
        <time>2021-08-08T13:43:41Z</time>
      </trkpt>
      <trkpt lat="44.91285" lon="5.56848">
        <ele>1153.8</ele>
        <time>2021-08-08T13:43:42Z</time>
      </trkpt>
      <trkpt lat="44.91276" lon="5.56853">
        <ele>1154.1</ele>
        <time>2021-08-08T13:43:44Z</time>
      </trkpt>
      <trkpt lat="44.91271" lon="5.56854">
        <ele>1154.2</ele>
        <time>2021-08-08T13:43:45Z</time>
      </trkpt>
      <trkpt lat="44.91266" lon="5.56856">
        <ele>1154.2</ele>
        <time>2021-08-08T13:43:47Z</time>
      </trkpt>
      <trkpt lat="44.91256" lon="5.56861">
        <ele>1154.3</ele>
        <time>2021-08-08T13:43:48Z</time>
      </trkpt>
      <trkpt lat="44.91246" lon="5.56865">
        <ele>1154.5</ele>
        <time>2021-08-08T13:43:50Z</time>
      </trkpt>
      <trkpt lat="44.91241" lon="5.56867">
        <ele>1154.7</ele>
        <time>2021-08-08T13:43:51Z</time>
      </trkpt>
      <trkpt lat="44.91236" lon="5.56868">
        <ele>1154.8</ele>
        <time>2021-08-08T13:43:52Z</time>
      </trkpt>
      <trkpt lat="44.91231" lon="5.5687">
        <ele>1154.9</ele>
        <time>2021-08-08T13:43:53Z</time>
      </trkpt>
      <trkpt lat="44.9122" lon="5.56873">
        <ele>1155.2</ele>
        <time>2021-08-08T13:43:55Z</time>
      </trkpt>
      <trkpt lat="44.91215" lon="5.56874">
        <ele>1155.3</ele>
        <time>2021-08-08T13:43:56Z</time>
      </trkpt>
      <trkpt lat="44.91201" lon="5.5688">
        <ele>1155.7</ele>
        <time>2021-08-08T13:43:59Z</time>
      </trkpt>
      <trkpt lat="44.91196" lon="5.56881">
        <ele>1155.9</ele>
        <time>2021-08-08T13:44:00Z</time>
      </trkpt>
      <trkpt lat="44.91187" lon="5.56885">
        <ele>1156.1</ele>
        <time>2021-08-08T13:44:02Z</time>
      </trkpt>
      <trkpt lat="44.91177" lon="5.56889">
        <ele>1156.4</ele>
        <time>2021-08-08T13:44:05Z</time>
      </trkpt>
      <trkpt lat="44.91166" lon="5.56893">
        <ele>1156.6</ele>
        <time>2021-08-08T13:44:06Z</time>
      </trkpt>
      <trkpt lat="44.91156" lon="5.56897">
        <ele>1156.9</ele>
        <time>2021-08-08T13:44:08Z</time>
      </trkpt>
      <trkpt lat="44.9115" lon="5.56899">
        <ele>1157</ele>
        <time>2021-08-08T13:44:09Z</time>
      </trkpt>
      <trkpt lat="44.91145" lon="5.56901">
        <ele>1157.1</ele>
        <time>2021-08-08T13:44:11Z</time>
      </trkpt>
      <trkpt lat="44.91135" lon="5.56906">
        <ele>1157.4</ele>
        <time>2021-08-08T13:44:12Z</time>
      </trkpt>
      <trkpt lat="44.9113" lon="5.56907">
        <ele>1157.5</ele>
        <time>2021-08-08T13:44:13Z</time>
      </trkpt>
      <trkpt lat="44.91119" lon="5.56911">
        <ele>1157.8</ele>
        <time>2021-08-08T13:44:15Z</time>
      </trkpt>
      <trkpt lat="44.9111" lon="5.56915">
        <ele>1158.1</ele>
        <time>2021-08-08T13:44:17Z</time>
      </trkpt>
      <trkpt lat="44.91104" lon="5.56917">
        <ele>1158.3</ele>
        <time>2021-08-08T13:44:18Z</time>
      </trkpt>
      <trkpt lat="44.91099" lon="5.56918">
        <ele>1158.4</ele>
        <time>2021-08-08T13:44:19Z</time>
      </trkpt>
      <trkpt lat="44.91088" lon="5.56922">
        <ele>1158.7</ele>
        <time>2021-08-08T13:44:21Z</time>
      </trkpt>
      <trkpt lat="44.91078" lon="5.56926">
        <ele>1159</ele>
        <time>2021-08-08T13:44:23Z</time>
      </trkpt>
      <trkpt lat="44.91073" lon="5.56927">
        <ele>1159.1</ele>
        <time>2021-08-08T13:44:24Z</time>
      </trkpt>
      <trkpt lat="44.91062" lon="5.56931">
        <ele>1159.3</ele>
        <time>2021-08-08T13:44:26Z</time>
      </trkpt>
      <trkpt lat="44.91057" lon="5.56933">
        <ele>1159.4</ele>
        <time>2021-08-08T13:44:27Z</time>
      </trkpt>
      <trkpt lat="44.91047" lon="5.56936">
        <ele>1159.6</ele>
        <time>2021-08-08T13:44:29Z</time>
      </trkpt>
      <trkpt lat="44.91042" lon="5.56938">
        <ele>1159.7</ele>
        <time>2021-08-08T13:44:30Z</time>
      </trkpt>
      <trkpt lat="44.91036" lon="5.5694">
        <ele>1159.8</ele>
        <time>2021-08-08T13:44:31Z</time>
      </trkpt>
      <trkpt lat="44.91025" lon="5.56943">
        <ele>1160.1</ele>
        <time>2021-08-08T13:44:33Z</time>
      </trkpt>
      <trkpt lat="44.91014" lon="5.56946">
        <ele>1160.5</ele>
        <time>2021-08-08T13:44:35Z</time>
      </trkpt>
      <trkpt lat="44.91009" lon="5.56947">
        <ele>1160.6</ele>
        <time>2021-08-08T13:44:36Z</time>
      </trkpt>
      <trkpt lat="44.90999" lon="5.56949">
        <ele>1161</ele>
        <time>2021-08-08T13:44:38Z</time>
      </trkpt>
      <trkpt lat="44.90994" lon="5.56949">
        <ele>1161.1</ele>
        <time>2021-08-08T13:44:39Z</time>
      </trkpt>
      <trkpt lat="44.90985" lon="5.5695">
        <ele>1161.4</ele>
        <time>2021-08-08T13:44:41Z</time>
      </trkpt>
      <trkpt lat="44.90976" lon="5.5695">
        <ele>1161.6</ele>
        <time>2021-08-08T13:44:43Z</time>
      </trkpt>
      <trkpt lat="44.90971" lon="5.5695">
        <ele>1161.7</ele>
        <time>2021-08-08T13:44:44Z</time>
      </trkpt>
      <trkpt lat="44.90967" lon="5.5695">
        <ele>1161.9</ele>
        <time>2021-08-08T13:44:45Z</time>
      </trkpt>
      <trkpt lat="44.90957" lon="5.5695">
        <ele>1162</ele>
        <time>2021-08-08T13:44:47Z</time>
      </trkpt>
      <trkpt lat="44.90952" lon="5.5695">
        <ele>1162.1</ele>
        <time>2021-08-08T13:44:48Z</time>
      </trkpt>
      <trkpt lat="44.90941" lon="5.56949">
        <ele>1162.3</ele>
        <time>2021-08-08T13:44:50Z</time>
      </trkpt>
      <trkpt lat="44.90936" lon="5.56949">
        <ele>1162.3</ele>
        <time>2021-08-08T13:44:51Z</time>
      </trkpt>
      <trkpt lat="44.90925" lon="5.56947">
        <ele>1162.4</ele>
        <time>2021-08-08T13:44:53Z</time>
      </trkpt>
      <trkpt lat="44.90919" lon="5.56947">
        <ele>1162.5</ele>
        <time>2021-08-08T13:44:54Z</time>
      </trkpt>
      <trkpt lat="44.90908" lon="5.56946">
        <ele>1162.6</ele>
        <time>2021-08-08T13:44:56Z</time>
      </trkpt>
      <trkpt lat="44.90892" lon="5.56945">
        <ele>1162.7</ele>
        <time>2021-08-08T13:44:59Z</time>
      </trkpt>
      <trkpt lat="44.9088" lon="5.56945">
        <ele>1162.9</ele>
        <time>2021-08-08T13:45:01Z</time>
      </trkpt>
      <trkpt lat="44.90875" lon="5.56944">
        <ele>1163</ele>
        <time>2021-08-08T13:45:02Z</time>
      </trkpt>
      <trkpt lat="44.90864" lon="5.56943">
        <ele>1163.2</ele>
        <time>2021-08-08T13:45:05Z</time>
      </trkpt>
      <trkpt lat="44.90854" lon="5.56943">
        <ele>1163.4</ele>
        <time>2021-08-08T13:45:06Z</time>
      </trkpt>
      <trkpt lat="44.90849" lon="5.56943">
        <ele>1163.5</ele>
        <time>2021-08-08T13:45:07Z</time>
      </trkpt>
      <trkpt lat="44.90844" lon="5.56943">
        <ele>1163.6</ele>
        <time>2021-08-08T13:45:08Z</time>
      </trkpt>
      <trkpt lat="44.90839" lon="5.56942">
        <ele>1163.7</ele>
        <time>2021-08-08T13:45:09Z</time>
      </trkpt>
      <trkpt lat="44.90828" lon="5.56942">
        <ele>1163.9</ele>
        <time>2021-08-08T13:45:11Z</time>
      </trkpt>
      <trkpt lat="44.90824" lon="5.56942">
        <ele>1164</ele>
        <time>2021-08-08T13:45:12Z</time>
      </trkpt>
      <trkpt lat="44.90813" lon="5.56944">
        <ele>1164.3</ele>
        <time>2021-08-08T13:45:14Z</time>
      </trkpt>
      <trkpt lat="44.90798" lon="5.56946">
        <ele>1164.8</ele>
        <time>2021-08-08T13:45:17Z</time>
      </trkpt>
      <trkpt lat="44.90788" lon="5.56949">
        <ele>1165.2</ele>
        <time>2021-08-08T13:45:19Z</time>
      </trkpt>
      <trkpt lat="44.90778" lon="5.56952">
        <ele>1165.5</ele>
        <time>2021-08-08T13:45:21Z</time>
      </trkpt>
      <trkpt lat="44.90769" lon="5.56956">
        <ele>1165.8</ele>
        <time>2021-08-08T13:45:24Z</time>
      </trkpt>
      <trkpt lat="44.90762" lon="5.56959">
        <ele>1166.2</ele>
        <time>2021-08-08T13:45:25Z</time>
      </trkpt>
      <trkpt lat="44.90758" lon="5.56961">
        <ele>1166.3</ele>
        <time>2021-08-08T13:45:26Z</time>
      </trkpt>
      <trkpt lat="44.90751" lon="5.56965">
        <ele>1166.7</ele>
        <time>2021-08-08T13:45:29Z</time>
      </trkpt>
      <trkpt lat="44.90744" lon="5.56968">
        <ele>1167</ele>
        <time>2021-08-08T13:45:30Z</time>
      </trkpt>
      <trkpt lat="44.90738" lon="5.56969">
        <ele>1167.3</ele>
        <time>2021-08-08T13:45:32Z</time>
      </trkpt>
      <trkpt lat="44.90734" lon="5.56972">
        <ele>1167.5</ele>
        <time>2021-08-08T13:45:33Z</time>
      </trkpt>
      <trkpt lat="44.90728" lon="5.56974">
        <ele>1167.7</ele>
        <time>2021-08-08T13:45:35Z</time>
      </trkpt>
      <trkpt lat="44.90724" lon="5.56976">
        <ele>1167.9</ele>
        <time>2021-08-08T13:45:36Z</time>
      </trkpt>
      <trkpt lat="44.90719" lon="5.56978">
        <ele>1168.2</ele>
        <time>2021-08-08T13:45:37Z</time>
      </trkpt>
      <trkpt lat="44.90714" lon="5.5698">
        <ele>1168.3</ele>
        <time>2021-08-08T13:45:38Z</time>
      </trkpt>
      <trkpt lat="44.90711" lon="5.56981">
        <ele>1168.5</ele>
        <time>2021-08-08T13:45:39Z</time>
      </trkpt>
      <trkpt lat="44.90706" lon="5.56982">
        <ele>1168.7</ele>
        <time>2021-08-08T13:45:41Z</time>
      </trkpt>
      <trkpt lat="44.90701" lon="5.56983">
        <ele>1168.9</ele>
        <time>2021-08-08T13:45:42Z</time>
      </trkpt>
      <trkpt lat="44.90697" lon="5.56985">
        <ele>1169.1</ele>
        <time>2021-08-08T13:45:43Z</time>
      </trkpt>
      <trkpt lat="44.90692" lon="5.56987">
        <ele>1169.3</ele>
        <time>2021-08-08T13:45:44Z</time>
      </trkpt>
      <trkpt lat="44.90687" lon="5.56988">
        <ele>1169.5</ele>
        <time>2021-08-08T13:45:45Z</time>
      </trkpt>
      <trkpt lat="44.90683" lon="5.5699">
        <ele>1169.7</ele>
        <time>2021-08-08T13:45:46Z</time>
      </trkpt>
      <trkpt lat="44.90677" lon="5.56992">
        <ele>1170</ele>
        <time>2021-08-08T13:45:48Z</time>
      </trkpt>
      <trkpt lat="44.90672" lon="5.56994">
        <ele>1170.2</ele>
        <time>2021-08-08T13:45:49Z</time>
      </trkpt>
      <trkpt lat="44.90667" lon="5.56995">
        <ele>1170.4</ele>
        <time>2021-08-08T13:45:50Z</time>
      </trkpt>
      <trkpt lat="44.90663" lon="5.56997">
        <ele>1170.6</ele>
        <time>2021-08-08T13:45:51Z</time>
      </trkpt>
      <trkpt lat="44.90657" lon="5.56999">
        <ele>1170.9</ele>
        <time>2021-08-08T13:45:53Z</time>
      </trkpt>
      <trkpt lat="44.90653" lon="5.57001">
        <ele>1171.1</ele>
        <time>2021-08-08T13:45:54Z</time>
      </trkpt>
      <trkpt lat="44.90648" lon="5.57002">
        <ele>1171.4</ele>
        <time>2021-08-08T13:45:55Z</time>
      </trkpt>
      <trkpt lat="44.90643" lon="5.57003">
        <ele>1171.7</ele>
        <time>2021-08-08T13:45:57Z</time>
      </trkpt>
      <trkpt lat="44.90639" lon="5.57004">
        <ele>1171.9</ele>
        <time>2021-08-08T13:45:58Z</time>
      </trkpt>
      <trkpt lat="44.90636" lon="5.57005">
        <ele>1172</ele>
        <time>2021-08-08T13:45:59Z</time>
      </trkpt>
      <trkpt lat="44.9063" lon="5.57006">
        <ele>1172.3</ele>
        <time>2021-08-08T13:46:01Z</time>
      </trkpt>
      <trkpt lat="44.90626" lon="5.57005">
        <ele>1172.5</ele>
        <time>2021-08-08T13:46:02Z</time>
      </trkpt>
      <trkpt lat="44.90622" lon="5.57006">
        <ele>1172.7</ele>
        <time>2021-08-08T13:46:04Z</time>
      </trkpt>
      <trkpt lat="44.90617" lon="5.57006">
        <ele>1173</ele>
        <time>2021-08-08T13:46:05Z</time>
      </trkpt>
      <trkpt lat="44.90613" lon="5.57006">
        <ele>1173.2</ele>
        <time>2021-08-08T13:46:06Z</time>
      </trkpt>
      <trkpt lat="44.9061" lon="5.57006">
        <ele>1173.4</ele>
        <time>2021-08-08T13:46:08Z</time>
      </trkpt>
      <trkpt lat="44.90606" lon="5.57006">
        <ele>1173.5</ele>
        <time>2021-08-08T13:46:09Z</time>
      </trkpt>
      <trkpt lat="44.90603" lon="5.57007">
        <ele>1173.7</ele>
        <time>2021-08-08T13:46:10Z</time>
      </trkpt>
      <trkpt lat="44.90599" lon="5.57006">
        <ele>1173.9</ele>
        <time>2021-08-08T13:46:11Z</time>
      </trkpt>
      <trkpt lat="44.90595" lon="5.57006">
        <ele>1174.1</ele>
        <time>2021-08-08T13:46:12Z</time>
      </trkpt>
      <trkpt lat="44.90592" lon="5.57006">
        <ele>1174.3</ele>
        <time>2021-08-08T13:46:14Z</time>
      </trkpt>
      <trkpt lat="44.90587" lon="5.57005">
        <ele>1174.5</ele>
        <time>2021-08-08T13:46:15Z</time>
      </trkpt>
      <trkpt lat="44.90583" lon="5.57005">
        <ele>1174.7</ele>
        <time>2021-08-08T13:46:16Z</time>
      </trkpt>
      <trkpt lat="44.90578" lon="5.57004">
        <ele>1175</ele>
        <time>2021-08-08T13:46:17Z</time>
      </trkpt>
      <trkpt lat="44.90573" lon="5.57002">
        <ele>1175.2</ele>
        <time>2021-08-08T13:46:19Z</time>
      </trkpt>
      <trkpt lat="44.90568" lon="5.57001">
        <ele>1175.5</ele>
        <time>2021-08-08T13:46:20Z</time>
      </trkpt>
      <trkpt lat="44.90563" lon="5.56998">
        <ele>1175.8</ele>
        <time>2021-08-08T13:46:22Z</time>
      </trkpt>
      <trkpt lat="44.9056" lon="5.56997">
        <ele>1176</ele>
        <time>2021-08-08T13:46:23Z</time>
      </trkpt>
      <trkpt lat="44.90556" lon="5.56994">
        <ele>1176.2</ele>
        <time>2021-08-08T13:46:24Z</time>
      </trkpt>
      <trkpt lat="44.90551" lon="5.56991">
        <ele>1176.5</ele>
        <time>2021-08-08T13:46:26Z</time>
      </trkpt>
      <trkpt lat="44.90548" lon="5.56988">
        <ele>1176.7</ele>
        <time>2021-08-08T13:46:27Z</time>
      </trkpt>
      <trkpt lat="44.90546" lon="5.56987">
        <ele>1176.8</ele>
        <time>2021-08-08T13:46:28Z</time>
      </trkpt>
      <trkpt lat="44.90542" lon="5.56984">
        <ele>1176.8</ele>
        <time>2021-08-08T13:46:29Z</time>
      </trkpt>
      <trkpt lat="44.90537" lon="5.5698">
        <ele>1177</ele>
        <time>2021-08-08T13:46:31Z</time>
      </trkpt>
      <trkpt lat="44.90535" lon="5.56978">
        <ele>1177.2</ele>
        <time>2021-08-08T13:46:32Z</time>
      </trkpt>
      <trkpt lat="44.90531" lon="5.56975">
        <ele>1177.5</ele>
        <time>2021-08-08T13:46:34Z</time>
      </trkpt>
      <trkpt lat="44.90528" lon="5.56973">
        <ele>1177.7</ele>
        <time>2021-08-08T13:46:35Z</time>
      </trkpt>
      <trkpt lat="44.90524" lon="5.56972">
        <ele>1177.9</ele>
        <time>2021-08-08T13:46:37Z</time>
      </trkpt>
      <trkpt lat="44.90522" lon="5.5697">
        <ele>1178.1</ele>
        <time>2021-08-08T13:46:38Z</time>
      </trkpt>
      <trkpt lat="44.90519" lon="5.56969">
        <ele>1178.3</ele>
        <time>2021-08-08T13:46:39Z</time>
      </trkpt>
      <trkpt lat="44.90514" lon="5.56967">
        <ele>1178.6</ele>
        <time>2021-08-08T13:46:40Z</time>
      </trkpt>
      <trkpt lat="44.90511" lon="5.56966">
        <ele>1178.8</ele>
        <time>2021-08-08T13:46:41Z</time>
      </trkpt>
      <trkpt lat="44.90508" lon="5.56966">
        <ele>1179</ele>
        <time>2021-08-08T13:46:42Z</time>
      </trkpt>
      <trkpt lat="44.90503" lon="5.56965">
        <ele>1179.3</ele>
        <time>2021-08-08T13:46:44Z</time>
      </trkpt>
      <trkpt lat="44.90499" lon="5.56964">
        <ele>1179.5</ele>
        <time>2021-08-08T13:46:45Z</time>
      </trkpt>
      <trkpt lat="44.90495" lon="5.56962">
        <ele>1179.8</ele>
        <time>2021-08-08T13:46:47Z</time>
      </trkpt>
      <trkpt lat="44.90489" lon="5.56961">
        <ele>1180.1</ele>
        <time>2021-08-08T13:46:48Z</time>
      </trkpt>
      <trkpt lat="44.90485" lon="5.56961">
        <ele>1180.4</ele>
        <time>2021-08-08T13:46:50Z</time>
      </trkpt>
      <trkpt lat="44.90481" lon="5.56961">
        <ele>1180.6</ele>
        <time>2021-08-08T13:46:51Z</time>
      </trkpt>
      <trkpt lat="44.90476" lon="5.56961">
        <ele>1180.9</ele>
        <time>2021-08-08T13:46:52Z</time>
      </trkpt>
      <trkpt lat="44.90471" lon="5.5696">
        <ele>1181.2</ele>
        <time>2021-08-08T13:46:54Z</time>
      </trkpt>
      <trkpt lat="44.90467" lon="5.5696">
        <ele>1181.5</ele>
        <time>2021-08-08T13:46:55Z</time>
      </trkpt>
      <trkpt lat="44.90462" lon="5.5696">
        <ele>1181.8</ele>
        <time>2021-08-08T13:46:57Z</time>
      </trkpt>
      <trkpt lat="44.90457" lon="5.56959">
        <ele>1182</ele>
        <time>2021-08-08T13:46:58Z</time>
      </trkpt>
      <trkpt lat="44.90453" lon="5.56958">
        <ele>1182.3</ele>
        <time>2021-08-08T13:46:59Z</time>
      </trkpt>
      <trkpt lat="44.90448" lon="5.56957">
        <ele>1182.6</ele>
        <time>2021-08-08T13:47:01Z</time>
      </trkpt>
      <trkpt lat="44.90445" lon="5.56957">
        <ele>1182.8</ele>
        <time>2021-08-08T13:47:02Z</time>
      </trkpt>
      <trkpt lat="44.90441" lon="5.56956">
        <ele>1183</ele>
        <time>2021-08-08T13:47:03Z</time>
      </trkpt>
      <trkpt lat="44.90436" lon="5.56957">
        <ele>1183.3</ele>
        <time>2021-08-08T13:47:05Z</time>
      </trkpt>
      <trkpt lat="44.90432" lon="5.56956">
        <ele>1183.6</ele>
        <time>2021-08-08T13:47:06Z</time>
      </trkpt>
      <trkpt lat="44.90429" lon="5.56956">
        <ele>1183.8</ele>
        <time>2021-08-08T13:47:07Z</time>
      </trkpt>
      <trkpt lat="44.90426" lon="5.56955">
        <ele>1184</ele>
        <time>2021-08-08T13:47:08Z</time>
      </trkpt>
      <trkpt lat="44.90423" lon="5.56955">
        <ele>1184.2</ele>
        <time>2021-08-08T13:47:09Z</time>
      </trkpt>
      <trkpt lat="44.90418" lon="5.56956">
        <ele>1184.4</ele>
        <time>2021-08-08T13:47:11Z</time>
      </trkpt>
      <trkpt lat="44.90414" lon="5.56956">
        <ele>1184.5</ele>
        <time>2021-08-08T13:47:12Z</time>
      </trkpt>
      <trkpt lat="44.90411" lon="5.56956">
        <ele>1184.7</ele>
        <time>2021-08-08T13:47:13Z</time>
      </trkpt>
      <trkpt lat="44.90405" lon="5.56954">
        <ele>1185</ele>
        <time>2021-08-08T13:47:15Z</time>
      </trkpt>
      <trkpt lat="44.90402" lon="5.56953">
        <ele>1185.1</ele>
        <time>2021-08-08T13:47:16Z</time>
      </trkpt>
      <trkpt lat="44.90397" lon="5.56951">
        <ele>1185.4</ele>
        <time>2021-08-08T13:47:18Z</time>
      </trkpt>
      <trkpt lat="44.90393" lon="5.5695">
        <ele>1185.7</ele>
        <time>2021-08-08T13:47:19Z</time>
      </trkpt>
      <trkpt lat="44.90387" lon="5.56949">
        <ele>1185.9</ele>
        <time>2021-08-08T13:47:21Z</time>
      </trkpt>
      <trkpt lat="44.90384" lon="5.56947">
        <ele>1186.1</ele>
        <time>2021-08-08T13:47:22Z</time>
      </trkpt>
      <trkpt lat="44.9038" lon="5.56946">
        <ele>1186.4</ele>
        <time>2021-08-08T13:47:23Z</time>
      </trkpt>
      <trkpt lat="44.90375" lon="5.56944">
        <ele>1186.7</ele>
        <time>2021-08-08T13:47:25Z</time>
      </trkpt>
      <trkpt lat="44.90371" lon="5.56943">
        <ele>1186.9</ele>
        <time>2021-08-08T13:47:26Z</time>
      </trkpt>
      <trkpt lat="44.90368" lon="5.56943">
        <ele>1187</ele>
        <time>2021-08-08T13:47:27Z</time>
      </trkpt>
      <trkpt lat="44.90365" lon="5.56942">
        <ele>1187.2</ele>
        <time>2021-08-08T13:47:29Z</time>
      </trkpt>
      <trkpt lat="44.90361" lon="5.56941">
        <ele>1187.5</ele>
        <time>2021-08-08T13:47:30Z</time>
      </trkpt>
      <trkpt lat="44.90358" lon="5.56939">
        <ele>1187.6</ele>
        <time>2021-08-08T13:47:31Z</time>
      </trkpt>
      <trkpt lat="44.90353" lon="5.56937">
        <ele>1187.9</ele>
        <time>2021-08-08T13:47:33Z</time>
      </trkpt>
      <trkpt lat="44.90349" lon="5.56935">
        <ele>1188.2</ele>
        <time>2021-08-08T13:47:34Z</time>
      </trkpt>
      <trkpt lat="44.90346" lon="5.56932">
        <ele>1188.4</ele>
        <time>2021-08-08T13:47:36Z</time>
      </trkpt>
      <trkpt lat="44.90343" lon="5.5693">
        <ele>1188.5</ele>
        <time>2021-08-08T13:47:37Z</time>
      </trkpt>
      <trkpt lat="44.90341" lon="5.56927">
        <ele>1188.7</ele>
        <time>2021-08-08T13:47:38Z</time>
      </trkpt>
      <trkpt lat="44.90338" lon="5.56924">
        <ele>1188.9</ele>
        <time>2021-08-08T13:47:39Z</time>
      </trkpt>
      <trkpt lat="44.90335" lon="5.56921">
        <ele>1189.1</ele>
        <time>2021-08-08T13:47:40Z</time>
      </trkpt>
      <trkpt lat="44.9033" lon="5.56916">
        <ele>1189.5</ele>
        <time>2021-08-08T13:47:42Z</time>
      </trkpt>
      <trkpt lat="44.90328" lon="5.56914">
        <ele>1189.7</ele>
        <time>2021-08-08T13:47:43Z</time>
      </trkpt>
      <trkpt lat="44.90325" lon="5.56911">
        <ele>1189.9</ele>
        <time>2021-08-08T13:47:44Z</time>
      </trkpt>
      <trkpt lat="44.9032" lon="5.56907">
        <ele>1190.2</ele>
        <time>2021-08-08T13:47:46Z</time>
      </trkpt>
      <trkpt lat="44.90318" lon="5.56905">
        <ele>1190.4</ele>
        <time>2021-08-08T13:47:47Z</time>
      </trkpt>
      <trkpt lat="44.90315" lon="5.56902">
        <ele>1190.5</ele>
        <time>2021-08-08T13:47:48Z</time>
      </trkpt>
      <trkpt lat="44.90312" lon="5.56899">
        <ele>1190.7</ele>
        <time>2021-08-08T13:47:49Z</time>
      </trkpt>
      <trkpt lat="44.90308" lon="5.56894">
        <ele>1191</ele>
        <time>2021-08-08T13:47:51Z</time>
      </trkpt>
      <trkpt lat="44.90305" lon="5.56891">
        <ele>1191.2</ele>
        <time>2021-08-08T13:47:52Z</time>
      </trkpt>
      <trkpt lat="44.90303" lon="5.56888">
        <ele>1191.4</ele>
        <time>2021-08-08T13:47:53Z</time>
      </trkpt>
      <trkpt lat="44.90299" lon="5.56883">
        <ele>1191.7</ele>
        <time>2021-08-08T13:47:55Z</time>
      </trkpt>
      <trkpt lat="44.90296" lon="5.5688">
        <ele>1191.9</ele>
        <time>2021-08-08T13:47:56Z</time>
      </trkpt>
      <trkpt lat="44.90293" lon="5.56877">
        <ele>1192.1</ele>
        <time>2021-08-08T13:47:57Z</time>
      </trkpt>
      <trkpt lat="44.90291" lon="5.56872">
        <ele>1192.4</ele>
        <time>2021-08-08T13:47:59Z</time>
      </trkpt>
      <trkpt lat="44.90287" lon="5.56868">
        <ele>1192.7</ele>
        <time>2021-08-08T13:48:00Z</time>
      </trkpt>
      <trkpt lat="44.90284" lon="5.56864">
        <ele>1192.9</ele>
        <time>2021-08-08T13:48:02Z</time>
      </trkpt>
      <trkpt lat="44.90282" lon="5.56861">
        <ele>1193.1</ele>
        <time>2021-08-08T13:48:03Z</time>
      </trkpt>
      <trkpt lat="44.90279" lon="5.56857">
        <ele>1193.4</ele>
        <time>2021-08-08T13:48:04Z</time>
      </trkpt>
      <trkpt lat="44.90276" lon="5.56853">
        <ele>1193.6</ele>
        <time>2021-08-08T13:48:06Z</time>
      </trkpt>
      <trkpt lat="44.90274" lon="5.56849">
        <ele>1193.8</ele>
        <time>2021-08-08T13:48:07Z</time>
      </trkpt>
      <trkpt lat="44.90271" lon="5.56844">
        <ele>1194.1</ele>
        <time>2021-08-08T13:48:08Z</time>
      </trkpt>
      <trkpt lat="44.90269" lon="5.56841">
        <ele>1194.2</ele>
        <time>2021-08-08T13:48:09Z</time>
      </trkpt>
      <trkpt lat="44.90265" lon="5.56836">
        <ele>1194.5</ele>
        <time>2021-08-08T13:48:11Z</time>
      </trkpt>
      <trkpt lat="44.90262" lon="5.56832">
        <ele>1194.8</ele>
        <time>2021-08-08T13:48:12Z</time>
      </trkpt>
      <trkpt lat="44.90259" lon="5.56829">
        <ele>1195</ele>
        <time>2021-08-08T13:48:13Z</time>
      </trkpt>
      <trkpt lat="44.90257" lon="5.56826">
        <ele>1195.2</ele>
        <time>2021-08-08T13:48:15Z</time>
      </trkpt>
      <trkpt lat="44.90253" lon="5.56822">
        <ele>1195.4</ele>
        <time>2021-08-08T13:48:16Z</time>
      </trkpt>
      <trkpt lat="44.90251" lon="5.56817">
        <ele>1195.7</ele>
        <time>2021-08-08T13:48:17Z</time>
      </trkpt>
      <trkpt lat="44.90249" lon="5.56813">
        <ele>1195.9</ele>
        <time>2021-08-08T13:48:18Z</time>
      </trkpt>
      <trkpt lat="44.90247" lon="5.56809">
        <ele>1196.1</ele>
        <time>2021-08-08T13:48:19Z</time>
      </trkpt>
      <trkpt lat="44.90245" lon="5.56804">
        <ele>1196.4</ele>
        <time>2021-08-08T13:48:21Z</time>
      </trkpt>
      <trkpt lat="44.90244" lon="5.568">
        <ele>1196.6</ele>
        <time>2021-08-08T13:48:22Z</time>
      </trkpt>
      <trkpt lat="44.90244" lon="5.56795">
        <ele>1196.7</ele>
        <time>2021-08-08T13:48:23Z</time>
      </trkpt>
      <trkpt lat="44.90243" lon="5.5679">
        <ele>1196.8</ele>
        <time>2021-08-08T13:48:24Z</time>
      </trkpt>
      <trkpt lat="44.90243" lon="5.56782">
        <ele>1197.1</ele>
        <time>2021-08-08T13:48:26Z</time>
      </trkpt>
      <trkpt lat="44.90242" lon="5.56778">
        <ele>1197.3</ele>
        <time>2021-08-08T13:48:27Z</time>
      </trkpt>
      <trkpt lat="44.90241" lon="5.56773">
        <ele>1197.5</ele>
        <time>2021-08-08T13:48:28Z</time>
      </trkpt>
      <trkpt lat="44.9024" lon="5.56766">
        <ele>1197.8</ele>
        <time>2021-08-08T13:48:30Z</time>
      </trkpt>
      <trkpt lat="44.90238" lon="5.5676">
        <ele>1198</ele>
        <time>2021-08-08T13:48:31Z</time>
      </trkpt>
      <trkpt lat="44.90237" lon="5.56756">
        <ele>1198.2</ele>
        <time>2021-08-08T13:48:32Z</time>
      </trkpt>
      <trkpt lat="44.90235" lon="5.56749">
        <ele>1198.4</ele>
        <time>2021-08-08T13:48:34Z</time>
      </trkpt>
      <trkpt lat="44.90233" lon="5.56744">
        <ele>1198.6</ele>
        <time>2021-08-08T13:48:35Z</time>
      </trkpt>
      <trkpt lat="44.90233" lon="5.56739">
        <ele>1198.8</ele>
        <time>2021-08-08T13:48:37Z</time>
      </trkpt>
      <trkpt lat="44.90232" lon="5.56732">
        <ele>1198.9</ele>
        <time>2021-08-08T13:48:38Z</time>
      </trkpt>
      <trkpt lat="44.90233" lon="5.56727">
        <ele>1198.7</ele>
        <time>2021-08-08T13:48:39Z</time>
      </trkpt>
      <trkpt lat="44.90232" lon="5.5672">
        <ele>1198.6</ele>
        <time>2021-08-08T13:48:41Z</time>
      </trkpt>
      <trkpt lat="44.90228" lon="5.56722">
        <ele>1198.5</ele>
        <time>2021-08-08T13:48:43Z</time>
      </trkpt>
      <trkpt lat="44.90227" lon="5.56724">
        <ele>1198.5</ele>
        <time>2021-08-08T13:48:44Z</time>
      </trkpt>
      <trkpt lat="44.90225" lon="5.56726">
        <ele>1198.4</ele>
        <time>2021-08-08T13:48:45Z</time>
      </trkpt>
      <trkpt lat="44.90225" lon="5.56732">
        <ele>1198.3</ele>
        <time>2021-08-08T13:48:47Z</time>
      </trkpt>
      <trkpt lat="44.90226" lon="5.5674">
        <ele>1198.1</ele>
        <time>2021-08-08T13:48:48Z</time>
      </trkpt>
      <trkpt lat="44.90228" lon="5.56746">
        <ele>1198</ele>
        <time>2021-08-08T13:48:49Z</time>
      </trkpt>
      <trkpt lat="44.90229" lon="5.56752">
        <ele>1197.9</ele>
        <time>2021-08-08T13:48:50Z</time>
      </trkpt>
      <trkpt lat="44.90233" lon="5.56766">
        <ele>1197.5</ele>
        <time>2021-08-08T13:48:53Z</time>
      </trkpt>
      <trkpt lat="44.90235" lon="5.5678">
        <ele>1197.2</ele>
        <time>2021-08-08T13:48:54Z</time>
      </trkpt>
      <trkpt lat="44.90237" lon="5.56788">
        <ele>1197</ele>
        <time>2021-08-08T13:48:55Z</time>
      </trkpt>
      <trkpt lat="44.9024" lon="5.56804">
        <ele>1196.5</ele>
        <time>2021-08-08T13:48:57Z</time>
      </trkpt>
      <trkpt lat="44.90244" lon="5.56812">
        <ele>1196.2</ele>
        <time>2021-08-08T13:48:58Z</time>
      </trkpt>
      <trkpt lat="44.90247" lon="5.5682">
        <ele>1195.8</ele>
        <time>2021-08-08T13:48:59Z</time>
      </trkpt>
      <trkpt lat="44.90256" lon="5.56835">
        <ele>1194.9</ele>
        <time>2021-08-08T13:49:01Z</time>
      </trkpt>
      <trkpt lat="44.90266" lon="5.5685">
        <ele>1194.1</ele>
        <time>2021-08-08T13:49:03Z</time>
      </trkpt>
      <trkpt lat="44.90271" lon="5.56856">
        <ele>1193.7</ele>
        <time>2021-08-08T13:49:04Z</time>
      </trkpt>
      <trkpt lat="44.90282" lon="5.5687">
        <ele>1192.8</ele>
        <time>2021-08-08T13:49:06Z</time>
      </trkpt>
      <trkpt lat="44.90293" lon="5.56885">
        <ele>1191.9</ele>
        <time>2021-08-08T13:49:08Z</time>
      </trkpt>
      <trkpt lat="44.90298" lon="5.56892">
        <ele>1191.5</ele>
        <time>2021-08-08T13:49:10Z</time>
      </trkpt>
      <trkpt lat="44.90311" lon="5.56906">
        <ele>1190.6</ele>
        <time>2021-08-08T13:49:11Z</time>
      </trkpt>
      <trkpt lat="44.90318" lon="5.56913">
        <ele>1190.1</ele>
        <time>2021-08-08T13:49:12Z</time>
      </trkpt>
      <trkpt lat="44.90332" lon="5.56925">
        <ele>1189.2</ele>
        <time>2021-08-08T13:49:14Z</time>
      </trkpt>
      <trkpt lat="44.9034" lon="5.56931">
        <ele>1188.7</ele>
        <time>2021-08-08T13:49:16Z</time>
      </trkpt>
      <trkpt lat="44.90354" lon="5.56943">
        <ele>1187.8</ele>
        <time>2021-08-08T13:49:17Z</time>
      </trkpt>
      <trkpt lat="44.90371" lon="5.5695">
        <ele>1186.9</ele>
        <time>2021-08-08T13:49:19Z</time>
      </trkpt>
      <trkpt lat="44.90379" lon="5.56951">
        <ele>1186.4</ele>
        <time>2021-08-08T13:49:20Z</time>
      </trkpt>
      <trkpt lat="44.90387" lon="5.56953">
        <ele>1185.9</ele>
        <time>2021-08-08T13:49:22Z</time>
      </trkpt>
      <trkpt lat="44.90404" lon="5.56955">
        <ele>1185</ele>
        <time>2021-08-08T13:49:23Z</time>
      </trkpt>
      <trkpt lat="44.90412" lon="5.56957">
        <ele>1184.6</ele>
        <time>2021-08-08T13:49:24Z</time>
      </trkpt>
      <trkpt lat="44.90429" lon="5.5696">
        <ele>1183.8</ele>
        <time>2021-08-08T13:49:26Z</time>
      </trkpt>
      <trkpt lat="44.90437" lon="5.56962">
        <ele>1183.3</ele>
        <time>2021-08-08T13:49:27Z</time>
      </trkpt>
      <trkpt lat="44.90453" lon="5.56964">
        <ele>1182.3</ele>
        <time>2021-08-08T13:49:29Z</time>
      </trkpt>
      <trkpt lat="44.90461" lon="5.56964">
        <ele>1181.8</ele>
        <time>2021-08-08T13:49:30Z</time>
      </trkpt>
      <trkpt lat="44.90477" lon="5.56963">
        <ele>1180.8</ele>
        <time>2021-08-08T13:49:32Z</time>
      </trkpt>
      <trkpt lat="44.90486" lon="5.56964">
        <ele>1180.3</ele>
        <time>2021-08-08T13:49:34Z</time>
      </trkpt>
      <trkpt lat="44.90502" lon="5.56966">
        <ele>1179.3</ele>
        <time>2021-08-08T13:49:35Z</time>
      </trkpt>
      <trkpt lat="44.90519" lon="5.56973">
        <ele>1178.2</ele>
        <time>2021-08-08T13:49:37Z</time>
      </trkpt>
      <trkpt lat="44.90544" lon="5.56989">
        <ele>1176.8</ele>
        <time>2021-08-08T13:49:40Z</time>
      </trkpt>
      <trkpt lat="44.90552" lon="5.56994">
        <ele>1176.4</ele>
        <time>2021-08-08T13:49:41Z</time>
      </trkpt>
      <trkpt lat="44.90568" lon="5.57005">
        <ele>1175.5</ele>
        <time>2021-08-08T13:49:43Z</time>
      </trkpt>
      <trkpt lat="44.90577" lon="5.57009">
        <ele>1175</ele>
        <time>2021-08-08T13:49:44Z</time>
      </trkpt>
      <trkpt lat="44.90594" lon="5.57012">
        <ele>1174.1</ele>
        <time>2021-08-08T13:49:46Z</time>
      </trkpt>
      <trkpt lat="44.90603" lon="5.57012">
        <ele>1173.7</ele>
        <time>2021-08-08T13:49:47Z</time>
      </trkpt>
      <trkpt lat="44.9062" lon="5.57011">
        <ele>1172.8</ele>
        <time>2021-08-08T13:49:49Z</time>
      </trkpt>
      <trkpt lat="44.90629" lon="5.5701">
        <ele>1172.3</ele>
        <time>2021-08-08T13:49:50Z</time>
      </trkpt>
      <trkpt lat="44.90646" lon="5.57007">
        <ele>1171.5</ele>
        <time>2021-08-08T13:49:52Z</time>
      </trkpt>
      <trkpt lat="44.90654" lon="5.57005">
        <ele>1171.1</ele>
        <time>2021-08-08T13:49:53Z</time>
      </trkpt>
      <trkpt lat="44.90672" lon="5.56999">
        <ele>1170.2</ele>
        <time>2021-08-08T13:49:55Z</time>
      </trkpt>
      <trkpt lat="44.9068" lon="5.56996">
        <ele>1169.9</ele>
        <time>2021-08-08T13:49:56Z</time>
      </trkpt>
      <trkpt lat="44.90696" lon="5.5699">
        <ele>1169.1</ele>
        <time>2021-08-08T13:49:58Z</time>
      </trkpt>
      <trkpt lat="44.90713" lon="5.56985">
        <ele>1168.4</ele>
        <time>2021-08-08T13:50:00Z</time>
      </trkpt>
      <trkpt lat="44.90721" lon="5.56983">
        <ele>1168.1</ele>
        <time>2021-08-08T13:50:01Z</time>
      </trkpt>
      <trkpt lat="44.90737" lon="5.56977">
        <ele>1167.4</ele>
        <time>2021-08-08T13:50:04Z</time>
      </trkpt>
      <trkpt lat="44.90753" lon="5.56972">
        <ele>1166.6</ele>
        <time>2021-08-08T13:50:05Z</time>
      </trkpt>
      <trkpt lat="44.90769" lon="5.56966">
        <ele>1165.9</ele>
        <time>2021-08-08T13:50:07Z</time>
      </trkpt>
      <trkpt lat="44.90777" lon="5.56963">
        <ele>1165.6</ele>
        <time>2021-08-08T13:50:08Z</time>
      </trkpt>
      <trkpt lat="44.90785" lon="5.5696">
        <ele>1165.3</ele>
        <time>2021-08-08T13:50:10Z</time>
      </trkpt>
      <trkpt lat="44.90802" lon="5.56955">
        <ele>1164.7</ele>
        <time>2021-08-08T13:50:11Z</time>
      </trkpt>
      <trkpt lat="44.90819" lon="5.56951">
        <ele>1164.2</ele>
        <time>2021-08-08T13:50:13Z</time>
      </trkpt>
      <trkpt lat="44.90827" lon="5.5695">
        <ele>1164</ele>
        <time>2021-08-08T13:50:14Z</time>
      </trkpt>
      <trkpt lat="44.90836" lon="5.56951">
        <ele>1163.8</ele>
        <time>2021-08-08T13:50:16Z</time>
      </trkpt>
      <trkpt lat="44.90852" lon="5.56951">
        <ele>1163.4</ele>
        <time>2021-08-08T13:50:17Z</time>
      </trkpt>
      <trkpt lat="44.90868" lon="5.56953">
        <ele>1163.1</ele>
        <time>2021-08-08T13:50:19Z</time>
      </trkpt>
      <trkpt lat="44.90876" lon="5.56954">
        <ele>1163</ele>
        <time>2021-08-08T13:50:20Z</time>
      </trkpt>
      <trkpt lat="44.90891" lon="5.56955">
        <ele>1162.8</ele>
        <time>2021-08-08T13:50:22Z</time>
      </trkpt>
      <trkpt lat="44.90904" lon="5.56956">
        <ele>1162.6</ele>
        <time>2021-08-08T13:50:24Z</time>
      </trkpt>
      <trkpt lat="44.9091" lon="5.56956">
        <ele>1162.6</ele>
        <time>2021-08-08T13:50:25Z</time>
      </trkpt>
      <trkpt lat="44.9093" lon="5.56956">
        <ele>1162.4</ele>
        <time>2021-08-08T13:50:28Z</time>
      </trkpt>
      <trkpt lat="44.90943" lon="5.56957">
        <ele>1162.2</ele>
        <time>2021-08-08T13:50:30Z</time>
      </trkpt>
      <trkpt lat="44.90957" lon="5.56957">
        <ele>1162</ele>
        <time>2021-08-08T13:50:32Z</time>
      </trkpt>
      <trkpt lat="44.90969" lon="5.56958">
        <ele>1161.8</ele>
        <time>2021-08-08T13:50:34Z</time>
      </trkpt>
      <trkpt lat="44.90976" lon="5.56958">
        <ele>1161.6</ele>
        <time>2021-08-08T13:50:35Z</time>
      </trkpt>
      <trkpt lat="44.90983" lon="5.56957">
        <ele>1161.5</ele>
        <time>2021-08-08T13:50:36Z</time>
      </trkpt>
      <trkpt lat="44.90997" lon="5.56957">
        <ele>1161.1</ele>
        <time>2021-08-08T13:50:38Z</time>
      </trkpt>
      <trkpt lat="44.91004" lon="5.56957">
        <ele>1160.8</ele>
        <time>2021-08-08T13:50:39Z</time>
      </trkpt>
      <trkpt lat="44.91011" lon="5.56955">
        <ele>1160.6</ele>
        <time>2021-08-08T13:50:40Z</time>
      </trkpt>
      <trkpt lat="44.91026" lon="5.56951">
        <ele>1160.1</ele>
        <time>2021-08-08T13:50:42Z</time>
      </trkpt>
      <trkpt lat="44.91033" lon="5.56949">
        <ele>1159.9</ele>
        <time>2021-08-08T13:50:43Z</time>
      </trkpt>
      <trkpt lat="44.9104" lon="5.56947">
        <ele>1159.8</ele>
        <time>2021-08-08T13:50:44Z</time>
      </trkpt>
      <trkpt lat="44.91048" lon="5.56944">
        <ele>1159.6</ele>
        <time>2021-08-08T13:50:46Z</time>
      </trkpt>
      <trkpt lat="44.91063" lon="5.56939">
        <ele>1159.3</ele>
        <time>2021-08-08T13:50:47Z</time>
      </trkpt>
      <trkpt lat="44.9107" lon="5.56936">
        <ele>1159.2</ele>
        <time>2021-08-08T13:50:48Z</time>
      </trkpt>
      <trkpt lat="44.91078" lon="5.56933">
        <ele>1159</ele>
        <time>2021-08-08T13:50:49Z</time>
      </trkpt>
      <trkpt lat="44.91092" lon="5.56928">
        <ele>1158.7</ele>
        <time>2021-08-08T13:50:51Z</time>
      </trkpt>
      <trkpt lat="44.91107" lon="5.56922">
        <ele>1158.2</ele>
        <time>2021-08-08T13:50:53Z</time>
      </trkpt>
      <trkpt lat="44.91122" lon="5.56917">
        <ele>1157.8</ele>
        <time>2021-08-08T13:50:55Z</time>
      </trkpt>
      <trkpt lat="44.9113" lon="5.56914">
        <ele>1157.6</ele>
        <time>2021-08-08T13:50:56Z</time>
      </trkpt>
      <trkpt lat="44.91137" lon="5.56911">
        <ele>1157.4</ele>
        <time>2021-08-08T13:50:58Z</time>
      </trkpt>
      <trkpt lat="44.91152" lon="5.56906">
        <ele>1157</ele>
        <time>2021-08-08T13:50:59Z</time>
      </trkpt>
      <trkpt lat="44.9116" lon="5.56904">
        <ele>1156.8</ele>
        <time>2021-08-08T13:51:00Z</time>
      </trkpt>
      <trkpt lat="44.91174" lon="5.56899">
        <ele>1156.5</ele>
        <time>2021-08-08T13:51:02Z</time>
      </trkpt>
      <trkpt lat="44.91188" lon="5.56893">
        <ele>1156.1</ele>
        <time>2021-08-08T13:51:04Z</time>
      </trkpt>
      <trkpt lat="44.91196" lon="5.5689">
        <ele>1155.9</ele>
        <time>2021-08-08T13:51:05Z</time>
      </trkpt>
      <trkpt lat="44.91203" lon="5.56888">
        <ele>1155.7</ele>
        <time>2021-08-08T13:51:06Z</time>
      </trkpt>
      <trkpt lat="44.91218" lon="5.56883">
        <ele>1155.3</ele>
        <time>2021-08-08T13:51:08Z</time>
      </trkpt>
      <trkpt lat="44.91233" lon="5.56877">
        <ele>1154.9</ele>
        <time>2021-08-08T13:51:10Z</time>
      </trkpt>
      <trkpt lat="44.91249" lon="5.56873">
        <ele>1154.5</ele>
        <time>2021-08-08T13:51:12Z</time>
      </trkpt>
      <trkpt lat="44.91263" lon="5.56868">
        <ele>1154.3</ele>
        <time>2021-08-08T13:51:14Z</time>
      </trkpt>
      <trkpt lat="44.9127" lon="5.56865">
        <ele>1154.2</ele>
        <time>2021-08-08T13:51:15Z</time>
      </trkpt>
      <trkpt lat="44.91285" lon="5.56858">
        <ele>1153.8</ele>
        <time>2021-08-08T13:51:17Z</time>
      </trkpt>
      <trkpt lat="44.91293" lon="5.56855">
        <ele>1153.6</ele>
        <time>2021-08-08T13:51:18Z</time>
      </trkpt>
      <trkpt lat="44.913" lon="5.56853">
        <ele>1153.3</ele>
        <time>2021-08-08T13:51:19Z</time>
      </trkpt>
      <trkpt lat="44.91316" lon="5.56847">
        <ele>1152.8</ele>
        <time>2021-08-08T13:51:21Z</time>
      </trkpt>
      <trkpt lat="44.91323" lon="5.56844">
        <ele>1152.5</ele>
        <time>2021-08-08T13:51:22Z</time>
      </trkpt>
      <trkpt lat="44.9133" lon="5.56843">
        <ele>1152.3</ele>
        <time>2021-08-08T13:51:23Z</time>
      </trkpt>
      <trkpt lat="44.91345" lon="5.56838">
        <ele>1151.8</ele>
        <time>2021-08-08T13:51:25Z</time>
      </trkpt>
      <trkpt lat="44.9136" lon="5.56833">
        <ele>1151.3</ele>
        <time>2021-08-08T13:51:27Z</time>
      </trkpt>
      <trkpt lat="44.91376" lon="5.5683">
        <ele>1150.8</ele>
        <time>2021-08-08T13:51:29Z</time>
      </trkpt>
      <trkpt lat="44.91384" lon="5.56829">
        <ele>1150.6</ele>
        <time>2021-08-08T13:51:30Z</time>
      </trkpt>
      <trkpt lat="44.91408" lon="5.56824">
        <ele>1150</ele>
        <time>2021-08-08T13:51:33Z</time>
      </trkpt>
      <trkpt lat="44.91416" lon="5.56823">
        <ele>1149.8</ele>
        <time>2021-08-08T13:51:34Z</time>
      </trkpt>
      <trkpt lat="44.91424" lon="5.56821">
        <ele>1149.5</ele>
        <time>2021-08-08T13:51:35Z</time>
      </trkpt>
      <trkpt lat="44.91432" lon="5.5682">
        <ele>1149.3</ele>
        <time>2021-08-08T13:51:36Z</time>
      </trkpt>
      <trkpt lat="44.91448" lon="5.56816">
        <ele>1149</ele>
        <time>2021-08-08T13:51:38Z</time>
      </trkpt>
      <trkpt lat="44.91456" lon="5.56814">
        <ele>1148.8</ele>
        <time>2021-08-08T13:51:39Z</time>
      </trkpt>
      <trkpt lat="44.91472" lon="5.56811">
        <ele>1148.5</ele>
        <time>2021-08-08T13:51:41Z</time>
      </trkpt>
      <trkpt lat="44.91488" lon="5.56808">
        <ele>1148.1</ele>
        <time>2021-08-08T13:51:43Z</time>
      </trkpt>
      <trkpt lat="44.91504" lon="5.56806">
        <ele>1147.9</ele>
        <time>2021-08-08T13:51:45Z</time>
      </trkpt>
      <trkpt lat="44.91512" lon="5.56805">
        <ele>1147.9</ele>
        <time>2021-08-08T13:51:46Z</time>
      </trkpt>
      <trkpt lat="44.9152" lon="5.56804">
        <ele>1147.8</ele>
        <time>2021-08-08T13:51:47Z</time>
      </trkpt>
      <trkpt lat="44.91536" lon="5.56805">
        <ele>1147.6</ele>
        <time>2021-08-08T13:51:49Z</time>
      </trkpt>
      <trkpt lat="44.91543" lon="5.56806">
        <ele>1147.5</ele>
        <time>2021-08-08T13:51:51Z</time>
      </trkpt>
      <trkpt lat="44.91558" lon="5.56809">
        <ele>1147.2</ele>
        <time>2021-08-08T13:51:52Z</time>
      </trkpt>
      <trkpt lat="44.91566" lon="5.56811">
        <ele>1147.1</ele>
        <time>2021-08-08T13:51:53Z</time>
      </trkpt>
      <trkpt lat="44.91581" lon="5.56816">
        <ele>1146.7</ele>
        <time>2021-08-08T13:51:55Z</time>
      </trkpt>
      <trkpt lat="44.91588" lon="5.56818">
        <ele>1146.5</ele>
        <time>2021-08-08T13:51:57Z</time>
      </trkpt>
      <trkpt lat="44.91603" lon="5.56825">
        <ele>1146.1</ele>
        <time>2021-08-08T13:51:58Z</time>
      </trkpt>
      <trkpt lat="44.9161" lon="5.56829">
        <ele>1146</ele>
        <time>2021-08-08T13:51:59Z</time>
      </trkpt>
      <trkpt lat="44.91617" lon="5.56833">
        <ele>1145.8</ele>
        <time>2021-08-08T13:52:00Z</time>
      </trkpt>
      <trkpt lat="44.91631" lon="5.56841">
        <ele>1145.4</ele>
        <time>2021-08-08T13:52:03Z</time>
      </trkpt>
      <trkpt lat="44.91647" lon="5.56848">
        <ele>1145</ele>
        <time>2021-08-08T13:52:04Z</time>
      </trkpt>
      <trkpt lat="44.91662" lon="5.56853">
        <ele>1144.6</ele>
        <time>2021-08-08T13:52:06Z</time>
      </trkpt>
      <trkpt lat="44.91671" lon="5.56856">
        <ele>1144.4</ele>
        <time>2021-08-08T13:52:07Z</time>
      </trkpt>
      <trkpt lat="44.91679" lon="5.56858">
        <ele>1144.2</ele>
        <time>2021-08-08T13:52:09Z</time>
      </trkpt>
      <trkpt lat="44.91695" lon="5.56862">
        <ele>1143.8</ele>
        <time>2021-08-08T13:52:10Z</time>
      </trkpt>
      <trkpt lat="44.91711" lon="5.56866">
        <ele>1143.4</ele>
        <time>2021-08-08T13:52:12Z</time>
      </trkpt>
      <trkpt lat="44.91719" lon="5.56867">
        <ele>1143.2</ele>
        <time>2021-08-08T13:52:13Z</time>
      </trkpt>
      <trkpt lat="44.91727" lon="5.56869">
        <ele>1143.1</ele>
        <time>2021-08-08T13:52:15Z</time>
      </trkpt>
      <trkpt lat="44.91742" lon="5.5687">
        <ele>1142.7</ele>
        <time>2021-08-08T13:52:16Z</time>
      </trkpt>
      <trkpt lat="44.91758" lon="5.56869">
        <ele>1142.5</ele>
        <time>2021-08-08T13:52:18Z</time>
      </trkpt>
      <trkpt lat="44.91781" lon="5.56868">
        <ele>1142.2</ele>
        <time>2021-08-08T13:52:21Z</time>
      </trkpt>
      <trkpt lat="44.91796" lon="5.56872">
        <ele>1141.9</ele>
        <time>2021-08-08T13:52:23Z</time>
      </trkpt>
      <trkpt lat="44.91808" lon="5.56885">
        <ele>1141.4</ele>
        <time>2021-08-08T13:52:25Z</time>
      </trkpt>
      <trkpt lat="44.91819" lon="5.56901">
        <ele>1140.9</ele>
        <time>2021-08-08T13:52:27Z</time>
      </trkpt>
      <trkpt lat="44.91832" lon="5.56914">
        <ele>1140.4</ele>
        <time>2021-08-08T13:52:29Z</time>
      </trkpt>
      <trkpt lat="44.91839" lon="5.56919">
        <ele>1140.2</ele>
        <time>2021-08-08T13:52:30Z</time>
      </trkpt>
      <trkpt lat="44.91862" lon="5.56933">
        <ele>1139.5</ele>
        <time>2021-08-08T13:52:33Z</time>
      </trkpt>
      <trkpt lat="44.91869" lon="5.56939">
        <ele>1139.3</ele>
        <time>2021-08-08T13:52:34Z</time>
      </trkpt>
      <trkpt lat="44.91882" lon="5.56953">
        <ele>1139</ele>
        <time>2021-08-08T13:52:36Z</time>
      </trkpt>
      <trkpt lat="44.91888" lon="5.56962">
        <ele>1138.8</ele>
        <time>2021-08-08T13:52:37Z</time>
      </trkpt>
      <trkpt lat="44.91895" lon="5.56983">
        <ele>1138.5</ele>
        <time>2021-08-08T13:52:39Z</time>
      </trkpt>
      <trkpt lat="44.91897" lon="5.56994">
        <ele>1138.3</ele>
        <time>2021-08-08T13:52:40Z</time>
      </trkpt>
      <trkpt lat="44.91897" lon="5.57004">
        <ele>1138.3</ele>
        <time>2021-08-08T13:52:41Z</time>
      </trkpt>
      <trkpt lat="44.91898" lon="5.57036">
        <ele>1138</ele>
        <time>2021-08-08T13:52:44Z</time>
      </trkpt>
      <trkpt lat="44.919" lon="5.57057">
        <ele>1137.9</ele>
        <time>2021-08-08T13:52:46Z</time>
      </trkpt>
      <trkpt lat="44.91903" lon="5.57065">
        <ele>1137.9</ele>
        <time>2021-08-08T13:52:47Z</time>
      </trkpt>
      <trkpt lat="44.91908" lon="5.57073">
        <ele>1137.8</ele>
        <time>2021-08-08T13:52:48Z</time>
      </trkpt>
      <trkpt lat="44.91922" lon="5.57085">
        <ele>1137.6</ele>
        <time>2021-08-08T13:52:50Z</time>
      </trkpt>
      <trkpt lat="44.91938" lon="5.57087">
        <ele>1137.3</ele>
        <time>2021-08-08T13:52:52Z</time>
      </trkpt>
      <trkpt lat="44.91947" lon="5.57084">
        <ele>1137.2</ele>
        <time>2021-08-08T13:52:53Z</time>
      </trkpt>
      <trkpt lat="44.91963" lon="5.57076">
        <ele>1136.7</ele>
        <time>2021-08-08T13:52:56Z</time>
      </trkpt>
      <trkpt lat="44.91979" lon="5.57066">
        <ele>1136.2</ele>
        <time>2021-08-08T13:52:57Z</time>
      </trkpt>
      <trkpt lat="44.91986" lon="5.5706">
        <ele>1135.9</ele>
        <time>2021-08-08T13:52:58Z</time>
      </trkpt>
      <trkpt lat="44.91993" lon="5.57054">
        <ele>1135.7</ele>
        <time>2021-08-08T13:52:59Z</time>
      </trkpt>
      <trkpt lat="44.92005" lon="5.57039">
        <ele>1135.2</ele>
        <time>2021-08-08T13:53:02Z</time>
      </trkpt>
      <trkpt lat="44.92016" lon="5.57024">
        <ele>1134.8</ele>
        <time>2021-08-08T13:53:03Z</time>
      </trkpt>
      <trkpt lat="44.92022" lon="5.57016">
        <ele>1134.6</ele>
        <time>2021-08-08T13:53:04Z</time>
      </trkpt>
      <trkpt lat="44.92027" lon="5.57008">
        <ele>1134.4</ele>
        <time>2021-08-08T13:53:05Z</time>
      </trkpt>
      <trkpt lat="44.92033" lon="5.57">
        <ele>1134.2</ele>
        <time>2021-08-08T13:53:07Z</time>
      </trkpt>
      <trkpt lat="44.92038" lon="5.56992">
        <ele>1134</ele>
        <time>2021-08-08T13:53:08Z</time>
      </trkpt>
      <trkpt lat="44.92048" lon="5.56977">
        <ele>1133.6</ele>
        <time>2021-08-08T13:53:09Z</time>
      </trkpt>
      <trkpt lat="44.92053" lon="5.56969">
        <ele>1133.4</ele>
        <time>2021-08-08T13:53:10Z</time>
      </trkpt>
      <trkpt lat="44.92064" lon="5.56955">
        <ele>1133.1</ele>
        <time>2021-08-08T13:53:12Z</time>
      </trkpt>
      <trkpt lat="44.92069" lon="5.56948">
        <ele>1132.9</ele>
        <time>2021-08-08T13:53:14Z</time>
      </trkpt>
      <trkpt lat="44.92078" lon="5.56932">
        <ele>1132.3</ele>
        <time>2021-08-08T13:53:15Z</time>
      </trkpt>
      <trkpt lat="44.92088" lon="5.56918">
        <ele>1131.6</ele>
        <time>2021-08-08T13:53:17Z</time>
      </trkpt>
      <trkpt lat="44.92094" lon="5.56912">
        <ele>1131.1</ele>
        <time>2021-08-08T13:53:18Z</time>
      </trkpt>
      <trkpt lat="44.92108" lon="5.56902">
        <ele>1130.1</ele>
        <time>2021-08-08T13:53:20Z</time>
      </trkpt>
      <trkpt lat="44.92115" lon="5.569">
        <ele>1129.6</ele>
        <time>2021-08-08T13:53:21Z</time>
      </trkpt>
      <trkpt lat="44.92132" lon="5.56899">
        <ele>1128.4</ele>
        <time>2021-08-08T13:53:23Z</time>
      </trkpt>
      <trkpt lat="44.92141" lon="5.56902">
        <ele>1127.8</ele>
        <time>2021-08-08T13:53:24Z</time>
      </trkpt>
      <trkpt lat="44.92149" lon="5.56906">
        <ele>1127.2</ele>
        <time>2021-08-08T13:53:26Z</time>
      </trkpt>
      <trkpt lat="44.92166" lon="5.56915">
        <ele>1126.3</ele>
        <time>2021-08-08T13:53:27Z</time>
      </trkpt>
      <trkpt lat="44.92184" lon="5.56926">
        <ele>1125.3</ele>
        <time>2021-08-08T13:53:29Z</time>
      </trkpt>
      <trkpt lat="44.92202" lon="5.56937">
        <ele>1124.4</ele>
        <time>2021-08-08T13:53:32Z</time>
      </trkpt>
      <trkpt lat="44.9222" lon="5.56944">
        <ele>1123.5</ele>
        <time>2021-08-08T13:53:33Z</time>
      </trkpt>
      <trkpt lat="44.92229" lon="5.56947">
        <ele>1123.1</ele>
        <time>2021-08-08T13:53:34Z</time>
      </trkpt>
      <trkpt lat="44.92239" lon="5.5695">
        <ele>1122.7</ele>
        <time>2021-08-08T13:53:35Z</time>
      </trkpt>
      <trkpt lat="44.92266" lon="5.56962">
        <ele>1121.4</ele>
        <time>2021-08-08T13:53:38Z</time>
      </trkpt>
      <trkpt lat="44.92283" lon="5.56975">
        <ele>1120.6</ele>
        <time>2021-08-08T13:53:40Z</time>
      </trkpt>
      <trkpt lat="44.92292" lon="5.56981">
        <ele>1120.1</ele>
        <time>2021-08-08T13:53:41Z</time>
      </trkpt>
      <trkpt lat="44.92302" lon="5.56987">
        <ele>1119.6</ele>
        <time>2021-08-08T13:53:42Z</time>
      </trkpt>
      <trkpt lat="44.92312" lon="5.56992">
        <ele>1119.1</ele>
        <time>2021-08-08T13:53:44Z</time>
      </trkpt>
      <trkpt lat="44.92332" lon="5.56996">
        <ele>1117.9</ele>
        <time>2021-08-08T13:53:45Z</time>
      </trkpt>
      <trkpt lat="44.92353" lon="5.56994">
        <ele>1116.7</ele>
        <time>2021-08-08T13:53:47Z</time>
      </trkpt>
      <trkpt lat="44.92374" lon="5.56991">
        <ele>1115.6</ele>
        <time>2021-08-08T13:53:50Z</time>
      </trkpt>
      <trkpt lat="44.92395" lon="5.56987">
        <ele>1114.6</ele>
        <time>2021-08-08T13:53:51Z</time>
      </trkpt>
      <trkpt lat="44.92405" lon="5.56985">
        <ele>1114.1</ele>
        <time>2021-08-08T13:53:52Z</time>
      </trkpt>
      <trkpt lat="44.92415" lon="5.5698">
        <ele>1113.8</ele>
        <time>2021-08-08T13:53:53Z</time>
      </trkpt>
      <trkpt lat="44.92433" lon="5.56968">
        <ele>1113.1</ele>
        <time>2021-08-08T13:53:56Z</time>
      </trkpt>
      <trkpt lat="44.92449" lon="5.56955">
        <ele>1112.5</ele>
        <time>2021-08-08T13:53:57Z</time>
      </trkpt>
      <trkpt lat="44.92457" lon="5.56949">
        <ele>1112.3</ele>
        <time>2021-08-08T13:53:58Z</time>
      </trkpt>
      <trkpt lat="44.92465" lon="5.56944">
        <ele>1112.1</ele>
        <time>2021-08-08T13:53:59Z</time>
      </trkpt>
      <trkpt lat="44.92489" lon="5.56937">
        <ele>1111.5</ele>
        <time>2021-08-08T13:54:02Z</time>
      </trkpt>
      <trkpt lat="44.92497" lon="5.56941">
        <ele>1111.3</ele>
        <time>2021-08-08T13:54:03Z</time>
      </trkpt>
      <trkpt lat="44.92514" lon="5.56956">
        <ele>1110.4</ele>
        <time>2021-08-08T13:54:05Z</time>
      </trkpt>
      <trkpt lat="44.92535" lon="5.56977">
        <ele>1109</ele>
        <time>2021-08-08T13:54:08Z</time>
      </trkpt>
      <trkpt lat="44.92552" lon="5.56988">
        <ele>1108</ele>
        <time>2021-08-08T13:54:10Z</time>
      </trkpt>
      <trkpt lat="44.92569" lon="5.56998">
        <ele>1107.1</ele>
        <time>2021-08-08T13:54:12Z</time>
      </trkpt>
      <trkpt lat="44.92578" lon="5.57003">
        <ele>1106.6</ele>
        <time>2021-08-08T13:54:13Z</time>
      </trkpt>
      <trkpt lat="44.92586" lon="5.57009">
        <ele>1106.2</ele>
        <time>2021-08-08T13:54:14Z</time>
      </trkpt>
      <trkpt lat="44.92595" lon="5.57014">
        <ele>1105.8</ele>
        <time>2021-08-08T13:54:15Z</time>
      </trkpt>
      <trkpt lat="44.92613" lon="5.57026">
        <ele>1104.8</ele>
        <time>2021-08-08T13:54:17Z</time>
      </trkpt>
      <trkpt lat="44.92622" lon="5.57031">
        <ele>1104.4</ele>
        <time>2021-08-08T13:54:18Z</time>
      </trkpt>
      <trkpt lat="44.92639" lon="5.57041">
        <ele>1103.7</ele>
        <time>2021-08-08T13:54:20Z</time>
      </trkpt>
      <trkpt lat="44.92648" lon="5.57044">
        <ele>1103.4</ele>
        <time>2021-08-08T13:54:21Z</time>
      </trkpt>
      <trkpt lat="44.92666" lon="5.5705">
        <ele>1102.8</ele>
        <time>2021-08-08T13:54:23Z</time>
      </trkpt>
      <trkpt lat="44.92685" lon="5.57056">
        <ele>1102.2</ele>
        <time>2021-08-08T13:54:26Z</time>
      </trkpt>
      <trkpt lat="44.92703" lon="5.57066">
        <ele>1101.6</ele>
        <time>2021-08-08T13:54:27Z</time>
      </trkpt>
      <trkpt lat="44.92712" lon="5.57072">
        <ele>1101.3</ele>
        <time>2021-08-08T13:54:28Z</time>
      </trkpt>
      <trkpt lat="44.92727" lon="5.57089">
        <ele>1100.5</ele>
        <time>2021-08-08T13:54:30Z</time>
      </trkpt>
      <trkpt lat="44.92736" lon="5.57097">
        <ele>1100.1</ele>
        <time>2021-08-08T13:54:32Z</time>
      </trkpt>
      <trkpt lat="44.92754" lon="5.57111">
        <ele>1099.4</ele>
        <time>2021-08-08T13:54:33Z</time>
      </trkpt>
      <trkpt lat="44.92764" lon="5.57115">
        <ele>1099.1</ele>
        <time>2021-08-08T13:54:34Z</time>
      </trkpt>
      <trkpt lat="44.92774" lon="5.57117">
        <ele>1098.7</ele>
        <time>2021-08-08T13:54:35Z</time>
      </trkpt>
      <trkpt lat="44.92784" lon="5.57117">
        <ele>1098.2</ele>
        <time>2021-08-08T13:54:36Z</time>
      </trkpt>
      <trkpt lat="44.92803" lon="5.57117">
        <ele>1097.3</ele>
        <time>2021-08-08T13:54:38Z</time>
      </trkpt>
      <trkpt lat="44.92823" lon="5.57121">
        <ele>1096.4</ele>
        <time>2021-08-08T13:54:40Z</time>
      </trkpt>
      <trkpt lat="44.92833" lon="5.57124">
        <ele>1096</ele>
        <time>2021-08-08T13:54:41Z</time>
      </trkpt>
      <trkpt lat="44.92843" lon="5.57127">
        <ele>1095.6</ele>
        <time>2021-08-08T13:54:42Z</time>
      </trkpt>
      <trkpt lat="44.92852" lon="5.5713">
        <ele>1095.1</ele>
        <time>2021-08-08T13:54:44Z</time>
      </trkpt>
      <trkpt lat="44.92871" lon="5.57132">
        <ele>1094.3</ele>
        <time>2021-08-08T13:54:45Z</time>
      </trkpt>
      <trkpt lat="44.92882" lon="5.57131">
        <ele>1093.8</ele>
        <time>2021-08-08T13:54:46Z</time>
      </trkpt>
      <trkpt lat="44.92902" lon="5.57124">
        <ele>1092.5</ele>
        <time>2021-08-08T13:54:48Z</time>
      </trkpt>
      <trkpt lat="44.92922" lon="5.57117">
        <ele>1091</ele>
        <time>2021-08-08T13:54:50Z</time>
      </trkpt>
      <trkpt lat="44.92932" lon="5.57115">
        <ele>1090.3</ele>
        <time>2021-08-08T13:54:51Z</time>
      </trkpt>
      <trkpt lat="44.92953" lon="5.57112">
        <ele>1088.9</ele>
        <time>2021-08-08T13:54:53Z</time>
      </trkpt>
      <trkpt lat="44.92963" lon="5.57112">
        <ele>1088.1</ele>
        <time>2021-08-08T13:54:54Z</time>
      </trkpt>
      <trkpt lat="44.92984" lon="5.57111">
        <ele>1086.6</ele>
        <time>2021-08-08T13:54:56Z</time>
      </trkpt>
      <trkpt lat="44.93007" lon="5.57111">
        <ele>1085.1</ele>
        <time>2021-08-08T13:54:58Z</time>
      </trkpt>
      <trkpt lat="44.93018" lon="5.5711">
        <ele>1084.3</ele>
        <time>2021-08-08T13:54:59Z</time>
      </trkpt>
      <trkpt lat="44.93051" lon="5.57103">
        <ele>1081.8</ele>
        <time>2021-08-08T13:55:02Z</time>
      </trkpt>
      <trkpt lat="44.93074" lon="5.57102">
        <ele>1080</ele>
        <time>2021-08-08T13:55:04Z</time>
      </trkpt>
      <trkpt lat="44.93096" lon="5.57111">
        <ele>1078.2</ele>
        <time>2021-08-08T13:55:06Z</time>
      </trkpt>
      <trkpt lat="44.93107" lon="5.57119">
        <ele>1077.3</ele>
        <time>2021-08-08T13:55:07Z</time>
      </trkpt>
      <trkpt lat="44.93118" lon="5.57128">
        <ele>1076.3</ele>
        <time>2021-08-08T13:55:08Z</time>
      </trkpt>
      <trkpt lat="44.93129" lon="5.57137">
        <ele>1075.3</ele>
        <time>2021-08-08T13:55:10Z</time>
      </trkpt>
      <trkpt lat="44.9315" lon="5.57153">
        <ele>1073.5</ele>
        <time>2021-08-08T13:55:11Z</time>
      </trkpt>
      <trkpt lat="44.93161" lon="5.57161">
        <ele>1072.6</ele>
        <time>2021-08-08T13:55:12Z</time>
      </trkpt>
      <trkpt lat="44.93172" lon="5.57169">
        <ele>1071.7</ele>
        <time>2021-08-08T13:55:14Z</time>
      </trkpt>
      <trkpt lat="44.93192" lon="5.57185">
        <ele>1070.2</ele>
        <time>2021-08-08T13:55:15Z</time>
      </trkpt>
      <trkpt lat="44.93211" lon="5.57199">
        <ele>1068.8</ele>
        <time>2021-08-08T13:55:17Z</time>
      </trkpt>
      <trkpt lat="44.93222" lon="5.57205">
        <ele>1067.9</ele>
        <time>2021-08-08T13:55:18Z</time>
      </trkpt>
      <trkpt lat="44.93243" lon="5.5722">
        <ele>1066.2</ele>
        <time>2021-08-08T13:55:20Z</time>
      </trkpt>
      <trkpt lat="44.93263" lon="5.57238">
        <ele>1064.6</ele>
        <time>2021-08-08T13:55:22Z</time>
      </trkpt>
      <trkpt lat="44.93272" lon="5.57249">
        <ele>1063.8</ele>
        <time>2021-08-08T13:55:23Z</time>
      </trkpt>
      <trkpt lat="44.9329" lon="5.57272">
        <ele>1062.5</ele>
        <time>2021-08-08T13:55:26Z</time>
      </trkpt>
      <trkpt lat="44.93305" lon="5.57293">
        <ele>1061.5</ele>
        <time>2021-08-08T13:55:27Z</time>
      </trkpt>
      <trkpt lat="44.93314" lon="5.57303">
        <ele>1061.1</ele>
        <time>2021-08-08T13:55:28Z</time>
      </trkpt>
      <trkpt lat="44.93322" lon="5.57312">
        <ele>1060.6</ele>
        <time>2021-08-08T13:55:29Z</time>
      </trkpt>
      <trkpt lat="44.93354" lon="5.57323">
        <ele>1058.4</ele>
        <time>2021-08-08T13:55:32Z</time>
      </trkpt>
      <trkpt lat="44.93377" lon="5.57313">
        <ele>1056.8</ele>
        <time>2021-08-08T13:55:34Z</time>
      </trkpt>
      <trkpt lat="44.93398" lon="5.57299">
        <ele>1055.6</ele>
        <time>2021-08-08T13:55:36Z</time>
      </trkpt>
      <trkpt lat="44.93419" lon="5.57288">
        <ele>1054.6</ele>
        <time>2021-08-08T13:55:38Z</time>
      </trkpt>
      <trkpt lat="44.9344" lon="5.57279">
        <ele>1053.8</ele>
        <time>2021-08-08T13:55:40Z</time>
      </trkpt>
      <trkpt lat="44.93451" lon="5.57275">
        <ele>1053.4</ele>
        <time>2021-08-08T13:55:41Z</time>
      </trkpt>
      <trkpt lat="44.93462" lon="5.5727">
        <ele>1053</ele>
        <time>2021-08-08T13:55:42Z</time>
      </trkpt>
      <trkpt lat="44.93473" lon="5.57265">
        <ele>1052.6</ele>
        <time>2021-08-08T13:55:44Z</time>
      </trkpt>
      <trkpt lat="44.93493" lon="5.57259">
        <ele>1052.2</ele>
        <time>2021-08-08T13:55:45Z</time>
      </trkpt>
      <trkpt lat="44.93512" lon="5.57253">
        <ele>1051.9</ele>
        <time>2021-08-08T13:55:47Z</time>
      </trkpt>
      <trkpt lat="44.93521" lon="5.57251">
        <ele>1051.8</ele>
        <time>2021-08-08T13:55:48Z</time>
      </trkpt>
      <trkpt lat="44.93538" lon="5.57245">
        <ele>1051.7</ele>
        <time>2021-08-08T13:55:50Z</time>
      </trkpt>
      <trkpt lat="44.93555" lon="5.57239">
        <ele>1051.6</ele>
        <time>2021-08-08T13:55:52Z</time>
      </trkpt>
      <trkpt lat="44.93562" lon="5.57237">
        <ele>1051.6</ele>
        <time>2021-08-08T13:55:53Z</time>
      </trkpt>
      <trkpt lat="44.93586" lon="5.57231">
        <ele>1051.6</ele>
        <time>2021-08-08T13:55:56Z</time>
      </trkpt>
      <trkpt lat="44.936" lon="5.57227">
        <ele>1051.5</ele>
        <time>2021-08-08T13:55:58Z</time>
      </trkpt>
      <trkpt lat="44.93607" lon="5.57224">
        <ele>1051.4</ele>
        <time>2021-08-08T13:55:59Z</time>
      </trkpt>
      <trkpt lat="44.93622" lon="5.57219">
        <ele>1051</ele>
        <time>2021-08-08T13:56:02Z</time>
      </trkpt>
      <trkpt lat="44.93637" lon="5.57213">
        <ele>1050.7</ele>
        <time>2021-08-08T13:56:03Z</time>
      </trkpt>
      <trkpt lat="44.93645" lon="5.5721">
        <ele>1050.5</ele>
        <time>2021-08-08T13:56:04Z</time>
      </trkpt>
      <trkpt lat="44.93653" lon="5.57207">
        <ele>1050.2</ele>
        <time>2021-08-08T13:56:05Z</time>
      </trkpt>
      <trkpt lat="44.9366" lon="5.57203">
        <ele>1050</ele>
        <time>2021-08-08T13:56:06Z</time>
      </trkpt>
      <trkpt lat="44.93676" lon="5.57197">
        <ele>1049.4</ele>
        <time>2021-08-08T13:56:08Z</time>
      </trkpt>
      <trkpt lat="44.93684" lon="5.57193">
        <ele>1049.2</ele>
        <time>2021-08-08T13:56:09Z</time>
      </trkpt>
      <trkpt lat="44.93692" lon="5.57189">
        <ele>1049</ele>
        <time>2021-08-08T13:56:10Z</time>
      </trkpt>
      <trkpt lat="44.937" lon="5.57187">
        <ele>1048.9</ele>
        <time>2021-08-08T13:56:12Z</time>
      </trkpt>
      <trkpt lat="44.93726" lon="5.57183">
        <ele>1048.4</ele>
        <time>2021-08-08T13:56:14Z</time>
      </trkpt>
      <trkpt lat="44.93733" lon="5.57181">
        <ele>1048.2</ele>
        <time>2021-08-08T13:56:15Z</time>
      </trkpt>
      <trkpt lat="44.93751" lon="5.57182">
        <ele>1047.6</ele>
        <time>2021-08-08T13:56:17Z</time>
      </trkpt>
      <trkpt lat="44.9376" lon="5.57183">
        <ele>1047.4</ele>
        <time>2021-08-08T13:56:18Z</time>
      </trkpt>
      <trkpt lat="44.93774" lon="5.57183">
        <ele>1047</ele>
        <time>2021-08-08T13:56:20Z</time>
      </trkpt>
      <trkpt lat="44.93782" lon="5.57181">
        <ele>1046.8</ele>
        <time>2021-08-08T13:56:21Z</time>
      </trkpt>
      <trkpt lat="44.938" lon="5.57176">
        <ele>1046.5</ele>
        <time>2021-08-08T13:56:23Z</time>
      </trkpt>
      <trkpt lat="44.93829" lon="5.57171">
        <ele>1046</ele>
        <time>2021-08-08T13:56:26Z</time>
      </trkpt>
      <trkpt lat="44.93838" lon="5.5717">
        <ele>1045.9</ele>
        <time>2021-08-08T13:56:27Z</time>
      </trkpt>
      <trkpt lat="44.93854" lon="5.57168">
        <ele>1045.7</ele>
        <time>2021-08-08T13:56:29Z</time>
      </trkpt>
      <trkpt lat="44.93876" lon="5.57163">
        <ele>1045.6</ele>
        <time>2021-08-08T13:56:32Z</time>
      </trkpt>
      <trkpt lat="44.93892" lon="5.57156">
        <ele>1045.4</ele>
        <time>2021-08-08T13:56:34Z</time>
      </trkpt>
      <trkpt lat="44.93907" lon="5.57151">
        <ele>1045.2</ele>
        <time>2021-08-08T13:56:36Z</time>
      </trkpt>
      <trkpt lat="44.93915" lon="5.57154">
        <ele>1045</ele>
        <time>2021-08-08T13:56:38Z</time>
      </trkpt>
      <trkpt lat="44.9393" lon="5.57168">
        <ele>1044.3</ele>
        <time>2021-08-08T13:56:39Z</time>
      </trkpt>
      <trkpt lat="44.93947" lon="5.57179">
        <ele>1043.3</ele>
        <time>2021-08-08T13:56:41Z</time>
      </trkpt>
      <trkpt lat="44.93965" lon="5.57182">
        <ele>1042.1</ele>
        <time>2021-08-08T13:56:43Z</time>
      </trkpt>
      <trkpt lat="44.93975" lon="5.57181">
        <ele>1041.3</ele>
        <time>2021-08-08T13:56:44Z</time>
      </trkpt>
      <trkpt lat="44.93994" lon="5.57181">
        <ele>1039.9</ele>
        <time>2021-08-08T13:56:46Z</time>
      </trkpt>
      <trkpt lat="44.94004" lon="5.57183">
        <ele>1039.3</ele>
        <time>2021-08-08T13:56:47Z</time>
      </trkpt>
      <trkpt lat="44.94024" lon="5.57191">
        <ele>1038</ele>
        <time>2021-08-08T13:56:49Z</time>
      </trkpt>
      <trkpt lat="44.94034" lon="5.57196">
        <ele>1037.3</ele>
        <time>2021-08-08T13:56:50Z</time>
      </trkpt>
      <trkpt lat="44.94045" lon="5.57199">
        <ele>1036.5</ele>
        <time>2021-08-08T13:56:51Z</time>
      </trkpt>
      <trkpt lat="44.94066" lon="5.57202">
        <ele>1034.9</ele>
        <time>2021-08-08T13:56:53Z</time>
      </trkpt>
      <trkpt lat="44.94077" lon="5.57201">
        <ele>1034</ele>
        <time>2021-08-08T13:56:54Z</time>
      </trkpt>
      <trkpt lat="44.94087" lon="5.57196">
        <ele>1033.2</ele>
        <time>2021-08-08T13:56:56Z</time>
      </trkpt>
      <trkpt lat="44.94109" lon="5.57183">
        <ele>1031.5</ele>
        <time>2021-08-08T13:56:57Z</time>
      </trkpt>
      <trkpt lat="44.94119" lon="5.57176">
        <ele>1030.7</ele>
        <time>2021-08-08T13:56:59Z</time>
      </trkpt>
      <trkpt lat="44.94142" lon="5.57166">
        <ele>1029.1</ele>
        <time>2021-08-08T13:57:01Z</time>
      </trkpt>
      <trkpt lat="44.94166" lon="5.57164">
        <ele>1027.5</ele>
        <time>2021-08-08T13:57:02Z</time>
      </trkpt>
      <trkpt lat="44.94177" lon="5.57167">
        <ele>1026.6</ele>
        <time>2021-08-08T13:57:03Z</time>
      </trkpt>
      <trkpt lat="44.94199" lon="5.57175">
        <ele>1025.1</ele>
        <time>2021-08-08T13:57:05Z</time>
      </trkpt>
      <trkpt lat="44.94211" lon="5.57179">
        <ele>1024.4</ele>
        <time>2021-08-08T13:57:06Z</time>
      </trkpt>
      <trkpt lat="44.94233" lon="5.57188">
        <ele>1022.8</ele>
        <time>2021-08-08T13:57:08Z</time>
      </trkpt>
      <trkpt lat="44.94244" lon="5.57196">
        <ele>1021.9</ele>
        <time>2021-08-08T13:57:09Z</time>
      </trkpt>
      <trkpt lat="44.94255" lon="5.57203">
        <ele>1021.1</ele>
        <time>2021-08-08T13:57:11Z</time>
      </trkpt>
      <trkpt lat="44.94277" lon="5.57216">
        <ele>1019.6</ele>
        <time>2021-08-08T13:57:12Z</time>
      </trkpt>
      <trkpt lat="44.94289" lon="5.57221">
        <ele>1018.8</ele>
        <time>2021-08-08T13:57:14Z</time>
      </trkpt>
      <trkpt lat="44.94312" lon="5.57227">
        <ele>1017.4</ele>
        <time>2021-08-08T13:57:16Z</time>
      </trkpt>
      <trkpt lat="44.94336" lon="5.57225">
        <ele>1016</ele>
        <time>2021-08-08T13:57:17Z</time>
      </trkpt>
      <trkpt lat="44.94372" lon="5.57223">
        <ele>1013.4</ele>
        <time>2021-08-08T13:57:20Z</time>
      </trkpt>
      <trkpt lat="44.94396" lon="5.57235">
        <ele>1011.5</ele>
        <time>2021-08-08T13:57:22Z</time>
      </trkpt>
      <trkpt lat="44.94417" lon="5.57254">
        <ele>1009.9</ele>
        <time>2021-08-08T13:57:24Z</time>
      </trkpt>
      <trkpt lat="44.94436" lon="5.57274">
        <ele>1008.7</ele>
        <time>2021-08-08T13:57:26Z</time>
      </trkpt>
      <trkpt lat="44.94457" lon="5.57288">
        <ele>1007.3</ele>
        <time>2021-08-08T13:57:28Z</time>
      </trkpt>
      <trkpt lat="44.94469" lon="5.57292">
        <ele>1006.6</ele>
        <time>2021-08-08T13:57:29Z</time>
      </trkpt>
      <trkpt lat="44.94481" lon="5.57292">
        <ele>1005.9</ele>
        <time>2021-08-08T13:57:30Z</time>
      </trkpt>
      <trkpt lat="44.94503" lon="5.57291">
        <ele>1004.4</ele>
        <time>2021-08-08T13:57:32Z</time>
      </trkpt>
      <trkpt lat="44.94514" lon="5.57289">
        <ele>1003.6</ele>
        <time>2021-08-08T13:57:33Z</time>
      </trkpt>
      <trkpt lat="44.94537" lon="5.57285">
        <ele>1002</ele>
        <time>2021-08-08T13:57:35Z</time>
      </trkpt>
      <trkpt lat="44.94549" lon="5.57284">
        <ele>1001.1</ele>
        <time>2021-08-08T13:57:36Z</time>
      </trkpt>
      <trkpt lat="44.94572" lon="5.57283">
        <ele>999.6</ele>
        <time>2021-08-08T13:57:38Z</time>
      </trkpt>
      <trkpt lat="44.94594" lon="5.57282">
        <ele>998.1</ele>
        <time>2021-08-08T13:57:40Z</time>
      </trkpt>
      <trkpt lat="44.94605" lon="5.57284">
        <ele>997.4</ele>
        <time>2021-08-08T13:57:41Z</time>
      </trkpt>
      <trkpt lat="44.94616" lon="5.57287">
        <ele>996.7</ele>
        <time>2021-08-08T13:57:42Z</time>
      </trkpt>
      <trkpt lat="44.94627" lon="5.57293">
        <ele>996</ele>
        <time>2021-08-08T13:57:44Z</time>
      </trkpt>
      <trkpt lat="44.94648" lon="5.57304">
        <ele>994.7</ele>
        <time>2021-08-08T13:57:45Z</time>
      </trkpt>
      <trkpt lat="44.94659" lon="5.57309">
        <ele>994.1</ele>
        <time>2021-08-08T13:57:46Z</time>
      </trkpt>
      <trkpt lat="44.94681" lon="5.5732">
        <ele>993</ele>
        <time>2021-08-08T13:57:48Z</time>
      </trkpt>
      <trkpt lat="44.94702" lon="5.57334">
        <ele>991.8</ele>
        <time>2021-08-08T13:57:50Z</time>
      </trkpt>
      <trkpt lat="44.94711" lon="5.57342">
        <ele>991.2</ele>
        <time>2021-08-08T13:57:51Z</time>
      </trkpt>
      <trkpt lat="44.94731" lon="5.57359">
        <ele>989.9</ele>
        <time>2021-08-08T13:57:53Z</time>
      </trkpt>
      <trkpt lat="44.9475" lon="5.57375">
        <ele>988.6</ele>
        <time>2021-08-08T13:57:56Z</time>
      </trkpt>
      <trkpt lat="44.94767" lon="5.57386">
        <ele>987.5</ele>
        <time>2021-08-08T13:57:57Z</time>
      </trkpt>
      <trkpt lat="44.94775" lon="5.57389">
        <ele>987</ele>
        <time>2021-08-08T13:57:58Z</time>
      </trkpt>
      <trkpt lat="44.94786" lon="5.5739">
        <ele>986.4</ele>
        <time>2021-08-08T13:57:59Z</time>
      </trkpt>
      <trkpt lat="44.94818" lon="5.57388">
        <ele>984.6</ele>
        <time>2021-08-08T13:58:02Z</time>
      </trkpt>
      <trkpt lat="44.9483" lon="5.57388">
        <ele>984</ele>
        <time>2021-08-08T13:58:03Z</time>
      </trkpt>
      <trkpt lat="44.9485" lon="5.57392">
        <ele>982.8</ele>
        <time>2021-08-08T13:58:05Z</time>
      </trkpt>
      <trkpt lat="44.9486" lon="5.57398">
        <ele>982.2</ele>
        <time>2021-08-08T13:58:06Z</time>
      </trkpt>
      <trkpt lat="44.9487" lon="5.57407">
        <ele>981.6</ele>
        <time>2021-08-08T13:58:07Z</time>
      </trkpt>
      <trkpt lat="44.94889" lon="5.57425">
        <ele>980.3</ele>
        <time>2021-08-08T13:58:09Z</time>
      </trkpt>
      <trkpt lat="44.94899" lon="5.5743">
        <ele>979.7</ele>
        <time>2021-08-08T13:58:10Z</time>
      </trkpt>
      <trkpt lat="44.9491" lon="5.57431">
        <ele>979.1</ele>
        <time>2021-08-08T13:58:11Z</time>
      </trkpt>
      <trkpt lat="44.94922" lon="5.5743">
        <ele>978.4</ele>
        <time>2021-08-08T13:58:12Z</time>
      </trkpt>
      <trkpt lat="44.94933" lon="5.57427">
        <ele>977.6</ele>
        <time>2021-08-08T13:58:13Z</time>
      </trkpt>
      <trkpt lat="44.94945" lon="5.57423">
        <ele>976.8</ele>
        <time>2021-08-08T13:58:14Z</time>
      </trkpt>
      <trkpt lat="44.94968" lon="5.57426">
        <ele>975.2</ele>
        <time>2021-08-08T13:58:16Z</time>
      </trkpt>
      <trkpt lat="44.94979" lon="5.57431">
        <ele>974.5</ele>
        <time>2021-08-08T13:58:18Z</time>
      </trkpt>
      <trkpt lat="44.95002" lon="5.57444">
        <ele>973</ele>
        <time>2021-08-08T13:58:19Z</time>
      </trkpt>
      <trkpt lat="44.95023" lon="5.57457">
        <ele>971.6</ele>
        <time>2021-08-08T13:58:21Z</time>
      </trkpt>
      <trkpt lat="44.95057" lon="5.57472">
        <ele>969.6</ele>
        <time>2021-08-08T13:58:24Z</time>
      </trkpt>
      <trkpt lat="44.95081" lon="5.57481">
        <ele>968.3</ele>
        <time>2021-08-08T13:58:26Z</time>
      </trkpt>
      <trkpt lat="44.95093" lon="5.57487">
        <ele>967.7</ele>
        <time>2021-08-08T13:58:27Z</time>
      </trkpt>
      <trkpt lat="44.95101" lon="5.57497">
        <ele>967.1</ele>
        <time>2021-08-08T13:58:28Z</time>
      </trkpt>
      <trkpt lat="44.95107" lon="5.57511">
        <ele>966.5</ele>
        <time>2021-08-08T13:58:30Z</time>
      </trkpt>
      <trkpt lat="44.95107" lon="5.57542">
        <ele>965.3</ele>
        <time>2021-08-08T13:58:31Z</time>
      </trkpt>
      <trkpt lat="44.95105" lon="5.57557">
        <ele>964.6</ele>
        <time>2021-08-08T13:58:32Z</time>
      </trkpt>
      <trkpt lat="44.95102" lon="5.57571">
        <ele>964</ele>
        <time>2021-08-08T13:58:33Z</time>
      </trkpt>
      <trkpt lat="44.95092" lon="5.57599">
        <ele>962.8</ele>
        <time>2021-08-08T13:58:35Z</time>
      </trkpt>
      <trkpt lat="44.95082" lon="5.57625">
        <ele>961.7</ele>
        <time>2021-08-08T13:58:37Z</time>
      </trkpt>
      <trkpt lat="44.95078" lon="5.57639">
        <ele>961.1</ele>
        <time>2021-08-08T13:58:38Z</time>
      </trkpt>
      <trkpt lat="44.95067" lon="5.5768">
        <ele>959.4</ele>
        <time>2021-08-08T13:58:41Z</time>
      </trkpt>
      <trkpt lat="44.9506" lon="5.57708">
        <ele>958.2</ele>
        <time>2021-08-08T13:58:43Z</time>
      </trkpt>
      <trkpt lat="44.95058" lon="5.57721">
        <ele>957.6</ele>
        <time>2021-08-08T13:58:44Z</time>
      </trkpt>
      <trkpt lat="44.95056" lon="5.57736">
        <ele>956.9</ele>
        <time>2021-08-08T13:58:45Z</time>
      </trkpt>
      <trkpt lat="44.95051" lon="5.57768">
        <ele>955.4</ele>
        <time>2021-08-08T13:58:47Z</time>
      </trkpt>
      <trkpt lat="44.95047" lon="5.57783">
        <ele>954.6</ele>
        <time>2021-08-08T13:58:48Z</time>
      </trkpt>
      <trkpt lat="44.95037" lon="5.57811">
        <ele>953.2</ele>
        <time>2021-08-08T13:58:50Z</time>
      </trkpt>
      <trkpt lat="44.95032" lon="5.57825">
        <ele>952.6</ele>
        <time>2021-08-08T13:58:51Z</time>
      </trkpt>
      <trkpt lat="44.95022" lon="5.57853">
        <ele>951.2</ele>
        <time>2021-08-08T13:58:53Z</time>
      </trkpt>
      <trkpt lat="44.95017" lon="5.57867">
        <ele>950.4</ele>
        <time>2021-08-08T13:58:54Z</time>
      </trkpt>
      <trkpt lat="44.95006" lon="5.57896">
        <ele>948.9</ele>
        <time>2021-08-08T13:58:56Z</time>
      </trkpt>
      <trkpt lat="44.9499" lon="5.5794">
        <ele>946.7</ele>
        <time>2021-08-08T13:58:59Z</time>
      </trkpt>
      <trkpt lat="44.94985" lon="5.57954">
        <ele>945.9</ele>
        <time>2021-08-08T13:59:00Z</time>
      </trkpt>
      <trkpt lat="44.94976" lon="5.57983">
        <ele>944.4</ele>
        <time>2021-08-08T13:59:02Z</time>
      </trkpt>
      <trkpt lat="44.94966" lon="5.58015">
        <ele>942.6</ele>
        <time>2021-08-08T13:59:05Z</time>
      </trkpt>
      <trkpt lat="44.94956" lon="5.58046">
        <ele>941</ele>
        <time>2021-08-08T13:59:06Z</time>
      </trkpt>
      <trkpt lat="44.94948" lon="5.58077">
        <ele>939.7</ele>
        <time>2021-08-08T13:59:08Z</time>
      </trkpt>
      <trkpt lat="44.94944" lon="5.58093">
        <ele>939</ele>
        <time>2021-08-08T13:59:09Z</time>
      </trkpt>
      <trkpt lat="44.94937" lon="5.58125">
        <ele>937.7</ele>
        <time>2021-08-08T13:59:11Z</time>
      </trkpt>
      <trkpt lat="44.94935" lon="5.58141">
        <ele>937.1</ele>
        <time>2021-08-08T13:59:12Z</time>
      </trkpt>
      <trkpt lat="44.9493" lon="5.58175">
        <ele>935.8</ele>
        <time>2021-08-08T13:59:14Z</time>
      </trkpt>
      <trkpt lat="44.94914" lon="5.58218">
        <ele>934.7</ele>
        <time>2021-08-08T13:59:17Z</time>
      </trkpt>
      <trkpt lat="44.9491" lon="5.58231">
        <ele>934.4</ele>
        <time>2021-08-08T13:59:18Z</time>
      </trkpt>
      <trkpt lat="44.94904" lon="5.5826">
        <ele>933.7</ele>
        <time>2021-08-08T13:59:20Z</time>
      </trkpt>
      <trkpt lat="44.94898" lon="5.58273">
        <ele>933.2</ele>
        <time>2021-08-08T13:59:21Z</time>
      </trkpt>
      <trkpt lat="44.94888" lon="5.58303">
        <ele>932</ele>
        <time>2021-08-08T13:59:23Z</time>
      </trkpt>
      <trkpt lat="44.94887" lon="5.58318">
        <ele>931.3</ele>
        <time>2021-08-08T13:59:24Z</time>
      </trkpt>
      <trkpt lat="44.9489" lon="5.58349">
        <ele>929.7</ele>
        <time>2021-08-08T13:59:26Z</time>
      </trkpt>
      <trkpt lat="44.94882" lon="5.58378">
        <ele>928.3</ele>
        <time>2021-08-08T13:59:29Z</time>
      </trkpt>
      <trkpt lat="44.94867" lon="5.58401">
        <ele>926.8</ele>
        <time>2021-08-08T13:59:30Z</time>
      </trkpt>
      <trkpt lat="44.94861" lon="5.58413">
        <ele>926</ele>
        <time>2021-08-08T13:59:31Z</time>
      </trkpt>
      <trkpt lat="44.94855" lon="5.58443">
        <ele>924.4</ele>
        <time>2021-08-08T13:59:33Z</time>
      </trkpt>
      <trkpt lat="44.94856" lon="5.58459">
        <ele>923.6</ele>
        <time>2021-08-08T13:59:34Z</time>
      </trkpt>
      <trkpt lat="44.94857" lon="5.58475">
        <ele>922.8</ele>
        <time>2021-08-08T13:59:36Z</time>
      </trkpt>
      <trkpt lat="44.94854" lon="5.58506">
        <ele>921.3</ele>
        <time>2021-08-08T13:59:37Z</time>
      </trkpt>
      <trkpt lat="44.94844" lon="5.58534">
        <ele>919.9</ele>
        <time>2021-08-08T13:59:39Z</time>
      </trkpt>
      <trkpt lat="44.94836" lon="5.58545">
        <ele>919.3</ele>
        <time>2021-08-08T13:59:40Z</time>
      </trkpt>
      <trkpt lat="44.94816" lon="5.5856">
        <ele>918.3</ele>
        <time>2021-08-08T13:59:42Z</time>
      </trkpt>
      <trkpt lat="44.94807" lon="5.58569">
        <ele>917.8</ele>
        <time>2021-08-08T13:59:43Z</time>
      </trkpt>
      <trkpt lat="44.94801" lon="5.58582">
        <ele>917.2</ele>
        <time>2021-08-08T13:59:44Z</time>
      </trkpt>
      <trkpt lat="44.94798" lon="5.58597">
        <ele>916.5</ele>
        <time>2021-08-08T13:59:45Z</time>
      </trkpt>
      <trkpt lat="44.948" lon="5.58613">
        <ele>915.6</ele>
        <time>2021-08-08T13:59:46Z</time>
      </trkpt>
      <trkpt lat="44.94809" lon="5.58643">
        <ele>913.9</ele>
        <time>2021-08-08T13:59:49Z</time>
      </trkpt>
      <trkpt lat="44.94812" lon="5.58675">
        <ele>912.2</ele>
        <time>2021-08-08T13:59:50Z</time>
      </trkpt>
      <trkpt lat="44.94809" lon="5.5869">
        <ele>911.4</ele>
        <time>2021-08-08T13:59:51Z</time>
      </trkpt>
      <trkpt lat="44.94792" lon="5.58732">
        <ele>908.7</ele>
        <time>2021-08-08T13:59:54Z</time>
      </trkpt>
      <trkpt lat="44.94784" lon="5.58761">
        <ele>907.1</ele>
        <time>2021-08-08T13:59:56Z</time>
      </trkpt>
      <trkpt lat="44.94782" lon="5.58775">
        <ele>906.3</ele>
        <time>2021-08-08T13:59:57Z</time>
      </trkpt>
      <trkpt lat="44.9478" lon="5.58789">
        <ele>905.6</ele>
        <time>2021-08-08T13:59:58Z</time>
      </trkpt>
      <trkpt lat="44.94777" lon="5.58821">
        <ele>904</ele>
        <time>2021-08-08T14:00:00Z</time>
      </trkpt>
      <trkpt lat="44.94776" lon="5.58849">
        <ele>902.7</ele>
        <time>2021-08-08T14:00:02Z</time>
      </trkpt>
      <trkpt lat="44.94777" lon="5.58864">
        <ele>901.9</ele>
        <time>2021-08-08T14:00:03Z</time>
      </trkpt>
      <trkpt lat="44.94779" lon="5.58896">
        <ele>900.3</ele>
        <time>2021-08-08T14:00:05Z</time>
      </trkpt>
      <trkpt lat="44.94783" lon="5.58931">
        <ele>898.6</ele>
        <time>2021-08-08T14:00:07Z</time>
      </trkpt>
      <trkpt lat="44.94784" lon="5.58948">
        <ele>897.8</ele>
        <time>2021-08-08T14:00:08Z</time>
      </trkpt>
      <trkpt lat="44.94785" lon="5.58983">
        <ele>896.3</ele>
        <time>2021-08-08T14:00:10Z</time>
      </trkpt>
      <trkpt lat="44.94789" lon="5.59018">
        <ele>894.7</ele>
        <time>2021-08-08T14:00:12Z</time>
      </trkpt>
      <trkpt lat="44.94792" lon="5.59033">
        <ele>894</ele>
        <time>2021-08-08T14:00:13Z</time>
      </trkpt>
      <trkpt lat="44.94801" lon="5.59063">
        <ele>892.7</ele>
        <time>2021-08-08T14:00:15Z</time>
      </trkpt>
      <trkpt lat="44.9481" lon="5.59094">
        <ele>891.4</ele>
        <time>2021-08-08T14:00:18Z</time>
      </trkpt>
      <trkpt lat="44.94818" lon="5.59125">
        <ele>890.1</ele>
        <time>2021-08-08T14:00:20Z</time>
      </trkpt>
      <trkpt lat="44.94826" lon="5.59155">
        <ele>888.8</ele>
        <time>2021-08-08T14:00:21Z</time>
      </trkpt>
      <trkpt lat="44.94829" lon="5.59188">
        <ele>887.4</ele>
        <time>2021-08-08T14:00:24Z</time>
      </trkpt>
      <trkpt lat="44.94827" lon="5.59222">
        <ele>886.7</ele>
        <time>2021-08-08T14:00:25Z</time>
      </trkpt>
      <trkpt lat="44.94826" lon="5.59239">
        <ele>886.3</ele>
        <time>2021-08-08T14:00:26Z</time>
      </trkpt>
      <trkpt lat="44.94824" lon="5.59256">
        <ele>885.6</ele>
        <time>2021-08-08T14:00:27Z</time>
      </trkpt>
      <trkpt lat="44.9482" lon="5.59308">
        <ele>883.2</ele>
        <time>2021-08-08T14:00:30Z</time>
      </trkpt>
      <trkpt lat="44.94818" lon="5.59325">
        <ele>882.5</ele>
        <time>2021-08-08T14:00:31Z</time>
      </trkpt>
      <trkpt lat="44.94814" lon="5.59357">
        <ele>881.3</ele>
        <time>2021-08-08T14:00:33Z</time>
      </trkpt>
      <trkpt lat="44.94812" lon="5.59373">
        <ele>880.6</ele>
        <time>2021-08-08T14:00:34Z</time>
      </trkpt>
      <trkpt lat="44.94804" lon="5.59407">
        <ele>879</ele>
        <time>2021-08-08T14:00:36Z</time>
      </trkpt>
      <trkpt lat="44.948" lon="5.59423">
        <ele>878.2</ele>
        <time>2021-08-08T14:00:37Z</time>
      </trkpt>
      <trkpt lat="44.94797" lon="5.59438">
        <ele>877.3</ele>
        <time>2021-08-08T14:00:38Z</time>
      </trkpt>
      <trkpt lat="44.94795" lon="5.59454">
        <ele>876.5</ele>
        <time>2021-08-08T14:00:39Z</time>
      </trkpt>
      <trkpt lat="44.94793" lon="5.59471">
        <ele>875.7</ele>
        <time>2021-08-08T14:00:40Z</time>
      </trkpt>
      <trkpt lat="44.94792" lon="5.59486">
        <ele>874.9</ele>
        <time>2021-08-08T14:00:42Z</time>
      </trkpt>
      <trkpt lat="44.94795" lon="5.5952">
        <ele>873.4</ele>
        <time>2021-08-08T14:00:43Z</time>
      </trkpt>
      <trkpt lat="44.94795" lon="5.59538">
        <ele>872.7</ele>
        <time>2021-08-08T14:00:44Z</time>
      </trkpt>
      <trkpt lat="44.94796" lon="5.59574">
        <ele>871.2</ele>
        <time>2021-08-08T14:00:46Z</time>
      </trkpt>
      <trkpt lat="44.94798" lon="5.59608">
        <ele>869.8</ele>
        <time>2021-08-08T14:00:48Z</time>
      </trkpt>
      <trkpt lat="44.94799" lon="5.59624">
        <ele>869.2</ele>
        <time>2021-08-08T14:00:49Z</time>
      </trkpt>
      <trkpt lat="44.94799" lon="5.59641">
        <ele>868.6</ele>
        <time>2021-08-08T14:00:50Z</time>
      </trkpt>
      <trkpt lat="44.94799" lon="5.59657">
        <ele>868</ele>
        <time>2021-08-08T14:00:51Z</time>
      </trkpt>
      <trkpt lat="44.9479" lon="5.59686">
        <ele>866.8</ele>
        <time>2021-08-08T14:00:53Z</time>
      </trkpt>
      <trkpt lat="44.94783" lon="5.597">
        <ele>866.1</ele>
        <time>2021-08-08T14:00:54Z</time>
      </trkpt>
      <trkpt lat="44.94774" lon="5.5973">
        <ele>864.8</ele>
        <time>2021-08-08T14:00:56Z</time>
      </trkpt>
      <trkpt lat="44.94774" lon="5.59746">
        <ele>864.2</ele>
        <time>2021-08-08T14:00:57Z</time>
      </trkpt>
      <trkpt lat="44.94776" lon="5.59762">
        <ele>863.5</ele>
        <time>2021-08-08T14:00:58Z</time>
      </trkpt>
      <trkpt lat="44.94782" lon="5.59777">
        <ele>862.8</ele>
        <time>2021-08-08T14:01:00Z</time>
      </trkpt>
      <trkpt lat="44.94797" lon="5.59803">
        <ele>861.3</ele>
        <time>2021-08-08T14:01:01Z</time>
      </trkpt>
      <trkpt lat="44.94812" lon="5.5983">
        <ele>859.9</ele>
        <time>2021-08-08T14:01:03Z</time>
      </trkpt>
      <trkpt lat="44.94815" lon="5.59847">
        <ele>859.2</ele>
        <time>2021-08-08T14:01:04Z</time>
      </trkpt>
      <trkpt lat="44.94815" lon="5.59864">
        <ele>858.4</ele>
        <time>2021-08-08T14:01:06Z</time>
      </trkpt>
      <trkpt lat="44.94808" lon="5.59898">
        <ele>856.7</ele>
        <time>2021-08-08T14:01:07Z</time>
      </trkpt>
      <trkpt lat="44.94805" lon="5.59914">
        <ele>855.9</ele>
        <time>2021-08-08T14:01:08Z</time>
      </trkpt>
      <trkpt lat="44.94804" lon="5.59931">
        <ele>855.2</ele>
        <time>2021-08-08T14:01:09Z</time>
      </trkpt>
      <trkpt lat="44.94798" lon="5.59964">
        <ele>853.9</ele>
        <time>2021-08-08T14:01:12Z</time>
      </trkpt>
      <trkpt lat="44.94793" lon="5.59997">
        <ele>852.6</ele>
        <time>2021-08-08T14:01:13Z</time>
      </trkpt>
      <trkpt lat="44.94793" lon="5.60014">
        <ele>851.9</ele>
        <time>2021-08-08T14:01:14Z</time>
      </trkpt>
      <trkpt lat="44.94796" lon="5.60048">
        <ele>850.7</ele>
        <time>2021-08-08T14:01:16Z</time>
      </trkpt>
      <trkpt lat="44.94798" lon="5.60065">
        <ele>850</ele>
        <time>2021-08-08T14:01:18Z</time>
      </trkpt>
      <trkpt lat="44.94802" lon="5.60096">
        <ele>848.8</ele>
        <time>2021-08-08T14:01:19Z</time>
      </trkpt>
      <trkpt lat="44.94805" lon="5.60127">
        <ele>847.6</ele>
        <time>2021-08-08T14:01:21Z</time>
      </trkpt>
      <trkpt lat="44.94804" lon="5.60143">
        <ele>847.1</ele>
        <time>2021-08-08T14:01:22Z</time>
      </trkpt>
      <trkpt lat="44.94803" lon="5.60176">
        <ele>845.9</ele>
        <time>2021-08-08T14:01:24Z</time>
      </trkpt>
      <trkpt lat="44.94802" lon="5.60192">
        <ele>845.3</ele>
        <time>2021-08-08T14:01:25Z</time>
      </trkpt>
      <trkpt lat="44.94797" lon="5.60223">
        <ele>844.2</ele>
        <time>2021-08-08T14:01:27Z</time>
      </trkpt>
      <trkpt lat="44.94788" lon="5.60253">
        <ele>843</ele>
        <time>2021-08-08T14:01:30Z</time>
      </trkpt>
      <trkpt lat="44.94778" lon="5.60282">
        <ele>841.7</ele>
        <time>2021-08-08T14:01:31Z</time>
      </trkpt>
      <trkpt lat="44.94772" lon="5.60296">
        <ele>841.1</ele>
        <time>2021-08-08T14:01:32Z</time>
      </trkpt>
      <trkpt lat="44.94758" lon="5.60322">
        <ele>840</ele>
        <time>2021-08-08T14:01:34Z</time>
      </trkpt>
      <trkpt lat="44.94751" lon="5.60334">
        <ele>839.3</ele>
        <time>2021-08-08T14:01:36Z</time>
      </trkpt>
      <trkpt lat="44.94735" lon="5.60359">
        <ele>838.1</ele>
        <time>2021-08-08T14:01:37Z</time>
      </trkpt>
      <trkpt lat="44.94728" lon="5.60372">
        <ele>837.5</ele>
        <time>2021-08-08T14:01:38Z</time>
      </trkpt>
      <trkpt lat="44.94712" lon="5.60395">
        <ele>835.3</ele>
        <time>2021-08-08T14:01:40Z</time>
      </trkpt>
      <trkpt lat="44.94692" lon="5.6041">
        <ele>835.1</ele>
        <time>2021-08-08T14:01:42Z</time>
      </trkpt>
      <trkpt lat="44.94683" lon="5.60415">
        <ele>835.2</ele>
        <time>2021-08-08T14:01:43Z</time>
      </trkpt>
      <trkpt lat="44.94674" lon="5.60423">
        <ele>835.2</ele>
        <time>2021-08-08T14:01:44Z</time>
      </trkpt>
      <trkpt lat="44.94667" lon="5.60432">
        <ele>835.3</ele>
        <time>2021-08-08T14:01:45Z</time>
      </trkpt>
      <trkpt lat="44.94655" lon="5.60453">
        <ele>835.6</ele>
        <time>2021-08-08T14:01:47Z</time>
      </trkpt>
      <trkpt lat="44.94646" lon="5.60472">
        <ele>835.8</ele>
        <time>2021-08-08T14:01:49Z</time>
      </trkpt>
      <trkpt lat="44.94641" lon="5.6048">
        <ele>836</ele>
        <time>2021-08-08T14:01:50Z</time>
      </trkpt>
      <trkpt lat="44.94637" lon="5.60489">
        <ele>836.1</ele>
        <time>2021-08-08T14:01:51Z</time>
      </trkpt>
      <trkpt lat="44.94632" lon="5.60496">
        <ele>836.2</ele>
        <time>2021-08-08T14:01:53Z</time>
      </trkpt>
      <trkpt lat="44.9462" lon="5.6051">
        <ele>836.5</ele>
        <time>2021-08-08T14:01:54Z</time>
      </trkpt>
      <trkpt lat="44.94609" lon="5.60521">
        <ele>836.7</ele>
        <time>2021-08-08T14:01:56Z</time>
      </trkpt>
      <trkpt lat="44.94592" lon="5.60537">
        <ele>836.9</ele>
        <time>2021-08-08T14:01:59Z</time>
      </trkpt>
      <trkpt lat="44.94586" lon="5.60542">
        <ele>837</ele>
        <time>2021-08-08T14:02:00Z</time>
      </trkpt>
      <trkpt lat="44.94575" lon="5.60552">
        <ele>837.2</ele>
        <time>2021-08-08T14:02:02Z</time>
      </trkpt>
      <trkpt lat="44.94569" lon="5.60558">
        <ele>837.3</ele>
        <time>2021-08-08T14:02:03Z</time>
      </trkpt>
      <trkpt lat="44.94558" lon="5.60568">
        <ele>837.5</ele>
        <time>2021-08-08T14:02:05Z</time>
      </trkpt>
      <trkpt lat="44.94546" lon="5.60579">
        <ele>837.7</ele>
        <time>2021-08-08T14:02:07Z</time>
      </trkpt>
      <trkpt lat="44.9454" lon="5.60583">
        <ele>837.7</ele>
        <time>2021-08-08T14:02:08Z</time>
      </trkpt>
      <trkpt lat="44.94535" lon="5.60587">
        <ele>837.8</ele>
        <time>2021-08-08T14:02:09Z</time>
      </trkpt>
      <trkpt lat="44.94524" lon="5.60597">
        <ele>837.9</ele>
        <time>2021-08-08T14:02:11Z</time>
      </trkpt>
      <trkpt lat="44.94513" lon="5.60604">
        <ele>837.9</ele>
        <time>2021-08-08T14:02:13Z</time>
      </trkpt>
      <trkpt lat="44.94507" lon="5.60607">
        <ele>838</ele>
        <time>2021-08-08T14:02:14Z</time>
      </trkpt>
      <trkpt lat="44.94495" lon="5.60614">
        <ele>837.9</ele>
        <time>2021-08-08T14:02:16Z</time>
      </trkpt>
      <trkpt lat="44.94484" lon="5.60622">
        <ele>837.8</ele>
        <time>2021-08-08T14:02:18Z</time>
      </trkpt>
      <trkpt lat="44.94472" lon="5.60628">
        <ele>837.7</ele>
        <time>2021-08-08T14:02:20Z</time>
      </trkpt>
      <trkpt lat="44.94465" lon="5.60631">
        <ele>837.6</ele>
        <time>2021-08-08T14:02:21Z</time>
      </trkpt>
      <trkpt lat="44.94459" lon="5.60634">
        <ele>837.5</ele>
        <time>2021-08-08T14:02:23Z</time>
      </trkpt>
      <trkpt lat="44.94445" lon="5.6064">
        <ele>837.3</ele>
        <time>2021-08-08T14:02:24Z</time>
      </trkpt>
      <trkpt lat="44.94431" lon="5.60644">
        <ele>836.9</ele>
        <time>2021-08-08T14:02:26Z</time>
      </trkpt>
      <trkpt lat="44.94416" lon="5.60645">
        <ele>836.2</ele>
        <time>2021-08-08T14:02:29Z</time>
      </trkpt>
      <trkpt lat="44.944" lon="5.60644">
        <ele>835.3</ele>
        <time>2021-08-08T14:02:30Z</time>
      </trkpt>
      <trkpt lat="44.94392" lon="5.60643">
        <ele>834.9</ele>
        <time>2021-08-08T14:02:31Z</time>
      </trkpt>
      <trkpt lat="44.94375" lon="5.6064">
        <ele>834</ele>
        <time>2021-08-08T14:02:33Z</time>
      </trkpt>
      <trkpt lat="44.94358" lon="5.60638">
        <ele>833.2</ele>
        <time>2021-08-08T14:02:35Z</time>
      </trkpt>
      <trkpt lat="44.9434" lon="5.60636">
        <ele>832.5</ele>
        <time>2021-08-08T14:02:37Z</time>
      </trkpt>
      <trkpt lat="44.94322" lon="5.60637">
        <ele>831.7</ele>
        <time>2021-08-08T14:02:39Z</time>
      </trkpt>
      <trkpt lat="44.94306" lon="5.60645">
        <ele>831.1</ele>
        <time>2021-08-08T14:02:41Z</time>
      </trkpt>
      <trkpt lat="44.94298" lon="5.6065">
        <ele>830.9</ele>
        <time>2021-08-08T14:02:42Z</time>
      </trkpt>
      <trkpt lat="44.94291" lon="5.60657">
        <ele>830.7</ele>
        <time>2021-08-08T14:02:43Z</time>
      </trkpt>
      <trkpt lat="44.94276" lon="5.6067">
        <ele>830.4</ele>
        <time>2021-08-08T14:02:46Z</time>
      </trkpt>
      <trkpt lat="44.94262" lon="5.60684">
        <ele>830.4</ele>
        <time>2021-08-08T14:02:47Z</time>
      </trkpt>
      <trkpt lat="44.94255" lon="5.60691">
        <ele>830.4</ele>
        <time>2021-08-08T14:02:48Z</time>
      </trkpt>
      <trkpt lat="44.94243" lon="5.60703">
        <ele>830.5</ele>
        <time>2021-08-08T14:02:50Z</time>
      </trkpt>
      <trkpt lat="44.94231" lon="5.60715">
        <ele>830.7</ele>
        <time>2021-08-08T14:02:53Z</time>
      </trkpt>
      <trkpt lat="44.9422" lon="5.60726">
        <ele>830.9</ele>
        <time>2021-08-08T14:02:54Z</time>
      </trkpt>
      <trkpt lat="44.94209" lon="5.60739">
        <ele>831.1</ele>
        <time>2021-08-08T14:02:56Z</time>
      </trkpt>
      <trkpt lat="44.94192" lon="5.60755">
        <ele>831.4</ele>
        <time>2021-08-08T14:02:59Z</time>
      </trkpt>
      <trkpt lat="44.94187" lon="5.60759">
        <ele>831.6</ele>
        <time>2021-08-08T14:03:00Z</time>
      </trkpt>
      <trkpt lat="44.94182" lon="5.60762">
        <ele>831.8</ele>
        <time>2021-08-08T14:03:01Z</time>
      </trkpt>
      <trkpt lat="44.94177" lon="5.60765">
        <ele>831.9</ele>
        <time>2021-08-08T14:03:02Z</time>
      </trkpt>
      <trkpt lat="44.94171" lon="5.60768">
        <ele>832.1</ele>
        <time>2021-08-08T14:03:03Z</time>
      </trkpt>
      <trkpt lat="44.9416" lon="5.60775">
        <ele>832.3</ele>
        <time>2021-08-08T14:03:05Z</time>
      </trkpt>
      <trkpt lat="44.94149" lon="5.6078">
        <ele>832.5</ele>
        <time>2021-08-08T14:03:07Z</time>
      </trkpt>
      <trkpt lat="44.94144" lon="5.60783">
        <ele>832.6</ele>
        <time>2021-08-08T14:03:08Z</time>
      </trkpt>
      <trkpt lat="44.94132" lon="5.60788">
        <ele>832.9</ele>
        <time>2021-08-08T14:03:11Z</time>
      </trkpt>
      <trkpt lat="44.94121" lon="5.60794">
        <ele>833.3</ele>
        <time>2021-08-08T14:03:12Z</time>
      </trkpt>
      <trkpt lat="44.9411" lon="5.60798">
        <ele>833.6</ele>
        <time>2021-08-08T14:03:14Z</time>
      </trkpt>
      <trkpt lat="44.94105" lon="5.60801">
        <ele>833.8</ele>
        <time>2021-08-08T14:03:15Z</time>
      </trkpt>
      <trkpt lat="44.94095" lon="5.60807">
        <ele>834</ele>
        <time>2021-08-08T14:03:17Z</time>
      </trkpt>
      <trkpt lat="44.94086" lon="5.60812">
        <ele>834.3</ele>
        <time>2021-08-08T14:03:19Z</time>
      </trkpt>
      <trkpt lat="44.94077" lon="5.60817">
        <ele>834.5</ele>
        <time>2021-08-08T14:03:21Z</time>
      </trkpt>
      <trkpt lat="44.94068" lon="5.60821">
        <ele>834.8</ele>
        <time>2021-08-08T14:03:23Z</time>
      </trkpt>
      <trkpt lat="44.9406" lon="5.60825">
        <ele>835</ele>
        <time>2021-08-08T14:03:25Z</time>
      </trkpt>
      <trkpt lat="44.94056" lon="5.60828">
        <ele>835.1</ele>
        <time>2021-08-08T14:03:26Z</time>
      </trkpt>
      <trkpt lat="44.94047" lon="5.60834">
        <ele>835.3</ele>
        <time>2021-08-08T14:03:29Z</time>
      </trkpt>
      <trkpt lat="44.94039" lon="5.60839">
        <ele>835.6</ele>
        <time>2021-08-08T14:03:30Z</time>
      </trkpt>
      <trkpt lat="44.94035" lon="5.60842">
        <ele>835.8</ele>
        <time>2021-08-08T14:03:31Z</time>
      </trkpt>
      <trkpt lat="44.94031" lon="5.60845">
        <ele>836</ele>
        <time>2021-08-08T14:03:32Z</time>
      </trkpt>
      <trkpt lat="44.94027" lon="5.60849">
        <ele>836.1</ele>
        <time>2021-08-08T14:03:33Z</time>
      </trkpt>
      <trkpt lat="44.94019" lon="5.60855">
        <ele>836.5</ele>
        <time>2021-08-08T14:03:35Z</time>
      </trkpt>
      <trkpt lat="44.94015" lon="5.60858">
        <ele>836.6</ele>
        <time>2021-08-08T14:03:36Z</time>
      </trkpt>
      <trkpt lat="44.94011" lon="5.60861">
        <ele>836.8</ele>
        <time>2021-08-08T14:03:37Z</time>
      </trkpt>
      <trkpt lat="44.94002" lon="5.60868">
        <ele>837.2</ele>
        <time>2021-08-08T14:03:39Z</time>
      </trkpt>
      <trkpt lat="44.93993" lon="5.60875">
        <ele>837.5</ele>
        <time>2021-08-08T14:03:41Z</time>
      </trkpt>
      <trkpt lat="44.93989" lon="5.60878">
        <ele>837.7</ele>
        <time>2021-08-08T14:03:42Z</time>
      </trkpt>
      <trkpt lat="44.93985" lon="5.60882">
        <ele>837.8</ele>
        <time>2021-08-08T14:03:43Z</time>
      </trkpt>
      <trkpt lat="44.93976" lon="5.60888">
        <ele>838.2</ele>
        <time>2021-08-08T14:03:45Z</time>
      </trkpt>
      <trkpt lat="44.93972" lon="5.6089">
        <ele>838.3</ele>
        <time>2021-08-08T14:03:47Z</time>
      </trkpt>
      <trkpt lat="44.93962" lon="5.60895">
        <ele>838.7</ele>
        <time>2021-08-08T14:03:48Z</time>
      </trkpt>
      <trkpt lat="44.93951" lon="5.60899">
        <ele>839.1</ele>
        <time>2021-08-08T14:03:50Z</time>
      </trkpt>
      <trkpt lat="44.93946" lon="5.609">
        <ele>839.2</ele>
        <time>2021-08-08T14:03:51Z</time>
      </trkpt>
      <trkpt lat="44.93937" lon="5.60902">
        <ele>839.6</ele>
        <time>2021-08-08T14:03:53Z</time>
      </trkpt>
      <trkpt lat="44.93928" lon="5.60903">
        <ele>840</ele>
        <time>2021-08-08T14:03:55Z</time>
      </trkpt>
      <trkpt lat="44.93923" lon="5.60904">
        <ele>840.2</ele>
        <time>2021-08-08T14:03:56Z</time>
      </trkpt>
      <trkpt lat="44.9391" lon="5.60905">
        <ele>840.7</ele>
        <time>2021-08-08T14:03:59Z</time>
      </trkpt>
      <trkpt lat="44.93906" lon="5.60906">
        <ele>840.8</ele>
        <time>2021-08-08T14:04:00Z</time>
      </trkpt>
      <trkpt lat="44.93898" lon="5.60907">
        <ele>841.1</ele>
        <time>2021-08-08T14:04:02Z</time>
      </trkpt>
      <trkpt lat="44.9389" lon="5.60907">
        <ele>841.4</ele>
        <time>2021-08-08T14:04:04Z</time>
      </trkpt>
      <trkpt lat="44.93885" lon="5.60907">
        <ele>841.6</ele>
        <time>2021-08-08T14:04:05Z</time>
      </trkpt>
      <trkpt lat="44.93874" lon="5.60908">
        <ele>841.9</ele>
        <time>2021-08-08T14:04:07Z</time>
      </trkpt>
      <trkpt lat="44.93868" lon="5.60909">
        <ele>842</ele>
        <time>2021-08-08T14:04:08Z</time>
      </trkpt>
      <trkpt lat="44.93859" lon="5.60911">
        <ele>842.2</ele>
        <time>2021-08-08T14:04:10Z</time>
      </trkpt>
      <trkpt lat="44.93849" lon="5.60915">
        <ele>842.3</ele>
        <time>2021-08-08T14:04:12Z</time>
      </trkpt>
      <trkpt lat="44.93844" lon="5.60918">
        <ele>842.4</ele>
        <time>2021-08-08T14:04:13Z</time>
      </trkpt>
      <trkpt lat="44.93834" lon="5.60924">
        <ele>842.4</ele>
        <time>2021-08-08T14:04:15Z</time>
      </trkpt>
      <trkpt lat="44.93824" lon="5.60929">
        <ele>842.4</ele>
        <time>2021-08-08T14:04:17Z</time>
      </trkpt>
      <trkpt lat="44.93813" lon="5.60935">
        <ele>842.4</ele>
        <time>2021-08-08T14:04:19Z</time>
      </trkpt>
      <trkpt lat="44.93808" lon="5.60938">
        <ele>842.4</ele>
        <time>2021-08-08T14:04:21Z</time>
      </trkpt>
      <trkpt lat="44.93798" lon="5.60945">
        <ele>842.4</ele>
        <time>2021-08-08T14:04:22Z</time>
      </trkpt>
      <trkpt lat="44.93787" lon="5.60953">
        <ele>842.4</ele>
        <time>2021-08-08T14:04:24Z</time>
      </trkpt>
      <trkpt lat="44.93782" lon="5.60957">
        <ele>842.3</ele>
        <time>2021-08-08T14:04:25Z</time>
      </trkpt>
      <trkpt lat="44.93771" lon="5.60966">
        <ele>842</ele>
        <time>2021-08-08T14:04:27Z</time>
      </trkpt>
      <trkpt lat="44.93759" lon="5.60974">
        <ele>842</ele>
        <time>2021-08-08T14:04:29Z</time>
      </trkpt>
      <trkpt lat="44.93752" lon="5.60977">
        <ele>841.9</ele>
        <time>2021-08-08T14:04:30Z</time>
      </trkpt>
      <trkpt lat="44.93739" lon="5.60981">
        <ele>841.9</ele>
        <time>2021-08-08T14:04:33Z</time>
      </trkpt>
      <trkpt lat="44.93727" lon="5.60984">
        <ele>842</ele>
        <time>2021-08-08T14:04:34Z</time>
      </trkpt>
      <trkpt lat="44.93721" lon="5.60986">
        <ele>842</ele>
        <time>2021-08-08T14:04:35Z</time>
      </trkpt>
      <trkpt lat="44.9371" lon="5.6099">
        <ele>842.1</ele>
        <time>2021-08-08T14:04:37Z</time>
      </trkpt>
      <trkpt lat="44.93704" lon="5.60993">
        <ele>842.2</ele>
        <time>2021-08-08T14:04:39Z</time>
      </trkpt>
      <trkpt lat="44.93693" lon="5.61">
        <ele>842.3</ele>
        <time>2021-08-08T14:04:40Z</time>
      </trkpt>
      <trkpt lat="44.93683" lon="5.61011">
        <ele>842.4</ele>
        <time>2021-08-08T14:04:42Z</time>
      </trkpt>
      <trkpt lat="44.93678" lon="5.61017">
        <ele>842.4</ele>
        <time>2021-08-08T14:04:43Z</time>
      </trkpt>
      <trkpt lat="44.93671" lon="5.6103">
        <ele>842.5</ele>
        <time>2021-08-08T14:04:45Z</time>
      </trkpt>
      <trkpt lat="44.93669" lon="5.61035">
        <ele>842.5</ele>
        <time>2021-08-08T14:04:46Z</time>
      </trkpt>
      <trkpt lat="44.93666" lon="5.6104">
        <ele>842.5</ele>
        <time>2021-08-08T14:04:47Z</time>
      </trkpt>
      <trkpt lat="44.93659" lon="5.61055">
        <ele>842.5</ele>
        <time>2021-08-08T14:04:49Z</time>
      </trkpt>
      <trkpt lat="44.93655" lon="5.61063">
        <ele>842.5</ele>
        <time>2021-08-08T14:04:51Z</time>
      </trkpt>
      <trkpt lat="44.93646" lon="5.61078">
        <ele>842.4</ele>
        <time>2021-08-08T14:04:52Z</time>
      </trkpt>
      <trkpt lat="44.93635" lon="5.61091">
        <ele>842.2</ele>
        <time>2021-08-08T14:04:54Z</time>
      </trkpt>
      <trkpt lat="44.93624" lon="5.61103">
        <ele>842</ele>
        <time>2021-08-08T14:04:56Z</time>
      </trkpt>
      <trkpt lat="44.93618" lon="5.61108">
        <ele>841.9</ele>
        <time>2021-08-08T14:04:57Z</time>
      </trkpt>
      <trkpt lat="44.93612" lon="5.61114">
        <ele>841.8</ele>
        <time>2021-08-08T14:04:58Z</time>
      </trkpt>
      <trkpt lat="44.93601" lon="5.61126">
        <ele>841.6</ele>
        <time>2021-08-08T14:05:00Z</time>
      </trkpt>
      <trkpt lat="44.93595" lon="5.61132">
        <ele>841.5</ele>
        <time>2021-08-08T14:05:01Z</time>
      </trkpt>
      <trkpt lat="44.93589" lon="5.61138">
        <ele>841.4</ele>
        <time>2021-08-08T14:05:03Z</time>
      </trkpt>
      <trkpt lat="44.93578" lon="5.61152">
        <ele>841.1</ele>
        <time>2021-08-08T14:05:04Z</time>
      </trkpt>
      <trkpt lat="44.93572" lon="5.61159">
        <ele>841</ele>
        <time>2021-08-08T14:05:05Z</time>
      </trkpt>
      <trkpt lat="44.93566" lon="5.61165">
        <ele>840.9</ele>
        <time>2021-08-08T14:05:06Z</time>
      </trkpt>
      <trkpt lat="44.93555" lon="5.6118">
        <ele>840.6</ele>
        <time>2021-08-08T14:05:09Z</time>
      </trkpt>
      <trkpt lat="44.93544" lon="5.61195">
        <ele>840.3</ele>
        <time>2021-08-08T14:05:10Z</time>
      </trkpt>
      <trkpt lat="44.93539" lon="5.61202">
        <ele>840.2</ele>
        <time>2021-08-08T14:05:11Z</time>
      </trkpt>
      <trkpt lat="44.93529" lon="5.61218">
        <ele>840</ele>
        <time>2021-08-08T14:05:13Z</time>
      </trkpt>
      <trkpt lat="44.93519" lon="5.61234">
        <ele>839.6</ele>
        <time>2021-08-08T14:05:15Z</time>
      </trkpt>
      <trkpt lat="44.93514" lon="5.61241">
        <ele>839.5</ele>
        <time>2021-08-08T14:05:16Z</time>
      </trkpt>
      <trkpt lat="44.93509" lon="5.61249">
        <ele>839.3</ele>
        <time>2021-08-08T14:05:17Z</time>
      </trkpt>
      <trkpt lat="44.93498" lon="5.61265">
        <ele>839</ele>
        <time>2021-08-08T14:05:19Z</time>
      </trkpt>
      <trkpt lat="44.93489" lon="5.61282">
        <ele>838.7</ele>
        <time>2021-08-08T14:05:21Z</time>
      </trkpt>
      <trkpt lat="44.93485" lon="5.61291">
        <ele>838.6</ele>
        <time>2021-08-08T14:05:22Z</time>
      </trkpt>
      <trkpt lat="44.93482" lon="5.613">
        <ele>838.5</ele>
        <time>2021-08-08T14:05:23Z</time>
      </trkpt>
      <trkpt lat="44.93475" lon="5.61318">
        <ele>838.2</ele>
        <time>2021-08-08T14:05:25Z</time>
      </trkpt>
      <trkpt lat="44.93471" lon="5.61327">
        <ele>838.1</ele>
        <time>2021-08-08T14:05:27Z</time>
      </trkpt>
      <trkpt lat="44.93465" lon="5.61345">
        <ele>837.9</ele>
        <time>2021-08-08T14:05:28Z</time>
      </trkpt>
      <trkpt lat="44.93462" lon="5.61354">
        <ele>837.8</ele>
        <time>2021-08-08T14:05:29Z</time>
      </trkpt>
      <trkpt lat="44.93459" lon="5.61363">
        <ele>837.7</ele>
        <time>2021-08-08T14:05:30Z</time>
      </trkpt>
      <trkpt lat="44.93456" lon="5.61373">
        <ele>837.6</ele>
        <time>2021-08-08T14:05:31Z</time>
      </trkpt>
      <trkpt lat="44.93452" lon="5.61383">
        <ele>837.6</ele>
        <time>2021-08-08T14:05:33Z</time>
      </trkpt>
      <trkpt lat="44.93445" lon="5.61403">
        <ele>837.4</ele>
        <time>2021-08-08T14:05:34Z</time>
      </trkpt>
      <trkpt lat="44.93438" lon="5.61423">
        <ele>836.9</ele>
        <time>2021-08-08T14:05:36Z</time>
      </trkpt>
      <trkpt lat="44.93434" lon="5.61434">
        <ele>836.6</ele>
        <time>2021-08-08T14:05:37Z</time>
      </trkpt>
      <trkpt lat="44.93427" lon="5.61456">
        <ele>836</ele>
        <time>2021-08-08T14:05:39Z</time>
      </trkpt>
      <trkpt lat="44.93423" lon="5.61468">
        <ele>835.7</ele>
        <time>2021-08-08T14:05:40Z</time>
      </trkpt>
      <trkpt lat="44.93417" lon="5.61492">
        <ele>835.1</ele>
        <time>2021-08-08T14:05:42Z</time>
      </trkpt>
      <trkpt lat="44.93413" lon="5.61519">
        <ele>834.4</ele>
        <time>2021-08-08T14:05:45Z</time>
      </trkpt>
      <trkpt lat="44.9341" lon="5.61546">
        <ele>833.7</ele>
        <time>2021-08-08T14:05:46Z</time>
      </trkpt>
      <trkpt lat="44.9341" lon="5.6156">
        <ele>833.4</ele>
        <time>2021-08-08T14:05:47Z</time>
      </trkpt>
      <trkpt lat="44.93408" lon="5.61587">
        <ele>832.8</ele>
        <time>2021-08-08T14:05:49Z</time>
      </trkpt>
      <trkpt lat="44.93407" lon="5.61614">
        <ele>832.1</ele>
        <time>2021-08-08T14:05:51Z</time>
      </trkpt>
      <trkpt lat="44.93406" lon="5.61639">
        <ele>831.5</ele>
        <time>2021-08-08T14:05:53Z</time>
      </trkpt>
      <trkpt lat="44.93406" lon="5.61651">
        <ele>831.2</ele>
        <time>2021-08-08T14:05:54Z</time>
      </trkpt>
      <trkpt lat="44.93407" lon="5.61676">
        <ele>830.6</ele>
        <time>2021-08-08T14:05:57Z</time>
      </trkpt>
      <trkpt lat="44.9341" lon="5.61703">
        <ele>830</ele>
        <time>2021-08-08T14:05:58Z</time>
      </trkpt>
      <trkpt lat="44.9341" lon="5.61718">
        <ele>829.6</ele>
        <time>2021-08-08T14:05:59Z</time>
      </trkpt>
      <trkpt lat="44.9341" lon="5.61747">
        <ele>828.9</ele>
        <time>2021-08-08T14:06:01Z</time>
      </trkpt>
      <trkpt lat="44.9341" lon="5.61777">
        <ele>828.1</ele>
        <time>2021-08-08T14:06:03Z</time>
      </trkpt>
      <trkpt lat="44.9341" lon="5.61792">
        <ele>827.7</ele>
        <time>2021-08-08T14:06:04Z</time>
      </trkpt>
      <trkpt lat="44.9341" lon="5.61822">
        <ele>826.9</ele>
        <time>2021-08-08T14:06:06Z</time>
      </trkpt>
      <trkpt lat="44.93411" lon="5.61852">
        <ele>826.3</ele>
        <time>2021-08-08T14:06:08Z</time>
      </trkpt>
      <trkpt lat="44.93413" lon="5.61883">
        <ele>825.6</ele>
        <time>2021-08-08T14:06:10Z</time>
      </trkpt>
      <trkpt lat="44.93419" lon="5.6191">
        <ele>825.1</ele>
        <time>2021-08-08T14:06:12Z</time>
      </trkpt>
      <trkpt lat="44.93423" lon="5.61924">
        <ele>824.8</ele>
        <time>2021-08-08T14:06:13Z</time>
      </trkpt>
      <trkpt lat="44.93427" lon="5.61936">
        <ele>824.6</ele>
        <time>2021-08-08T14:06:14Z</time>
      </trkpt>
      <trkpt lat="44.93436" lon="5.61961">
        <ele>824.2</ele>
        <time>2021-08-08T14:06:16Z</time>
      </trkpt>
      <trkpt lat="44.93438" lon="5.61988">
        <ele>823.6</ele>
        <time>2021-08-08T14:06:18Z</time>
      </trkpt>
      <trkpt lat="44.93434" lon="5.62001">
        <ele>823.2</ele>
        <time>2021-08-08T14:06:19Z</time>
      </trkpt>
      <trkpt lat="44.93414" lon="5.6201">
        <ele>822.2</ele>
        <time>2021-08-08T14:06:21Z</time>
      </trkpt>
      <trkpt lat="44.93403" lon="5.62007">
        <ele>821.6</ele>
        <time>2021-08-08T14:06:22Z</time>
      </trkpt>
      <trkpt lat="44.93382" lon="5.61998">
        <ele>820.5</ele>
        <time>2021-08-08T14:06:24Z</time>
      </trkpt>
      <trkpt lat="44.93361" lon="5.6199">
        <ele>819.5</ele>
        <time>2021-08-08T14:06:27Z</time>
      </trkpt>
      <trkpt lat="44.93341" lon="5.61982">
        <ele>818.5</ele>
        <time>2021-08-08T14:06:28Z</time>
      </trkpt>
      <trkpt lat="44.9333" lon="5.6198">
        <ele>818</ele>
        <time>2021-08-08T14:06:29Z</time>
      </trkpt>
      <trkpt lat="44.9332" lon="5.6198">
        <ele>817.5</ele>
        <time>2021-08-08T14:06:30Z</time>
      </trkpt>
      <trkpt lat="44.93299" lon="5.61984">
        <ele>816.6</ele>
        <time>2021-08-08T14:06:32Z</time>
      </trkpt>
      <trkpt lat="44.93278" lon="5.61991">
        <ele>815.7</ele>
        <time>2021-08-08T14:06:34Z</time>
      </trkpt>
      <trkpt lat="44.93258" lon="5.62001">
        <ele>814.7</ele>
        <time>2021-08-08T14:06:36Z</time>
      </trkpt>
      <trkpt lat="44.93238" lon="5.62012">
        <ele>813.8</ele>
        <time>2021-08-08T14:06:39Z</time>
      </trkpt>
      <trkpt lat="44.93219" lon="5.62025">
        <ele>812.9</ele>
        <time>2021-08-08T14:06:40Z</time>
      </trkpt>
      <trkpt lat="44.93199" lon="5.62038">
        <ele>812</ele>
        <time>2021-08-08T14:06:42Z</time>
      </trkpt>
      <trkpt lat="44.93189" lon="5.62046">
        <ele>811.5</ele>
        <time>2021-08-08T14:06:43Z</time>
      </trkpt>
      <trkpt lat="44.93169" lon="5.6206">
        <ele>810.4</ele>
        <time>2021-08-08T14:06:45Z</time>
      </trkpt>
      <trkpt lat="44.93159" lon="5.62068">
        <ele>809.9</ele>
        <time>2021-08-08T14:06:46Z</time>
      </trkpt>
      <trkpt lat="44.93149" lon="5.62076">
        <ele>809.4</ele>
        <time>2021-08-08T14:06:47Z</time>
      </trkpt>
      <trkpt lat="44.93133" lon="5.62096">
        <ele>808.3</ele>
        <time>2021-08-08T14:06:49Z</time>
      </trkpt>
      <trkpt lat="44.93127" lon="5.62109">
        <ele>807.8</ele>
        <time>2021-08-08T14:06:50Z</time>
      </trkpt>
      <trkpt lat="44.93122" lon="5.62124">
        <ele>807.3</ele>
        <time>2021-08-08T14:06:51Z</time>
      </trkpt>
      <trkpt lat="44.93119" lon="5.62155">
        <ele>806.7</ele>
        <time>2021-08-08T14:06:53Z</time>
      </trkpt>
      <trkpt lat="44.93119" lon="5.62171">
        <ele>806.5</ele>
        <time>2021-08-08T14:06:54Z</time>
      </trkpt>
      <trkpt lat="44.93121" lon="5.62186">
        <ele>806.3</ele>
        <time>2021-08-08T14:06:55Z</time>
      </trkpt>
      <trkpt lat="44.93124" lon="5.62215">
        <ele>805.6</ele>
        <time>2021-08-08T14:06:57Z</time>
      </trkpt>
      <trkpt lat="44.93127" lon="5.62244">
        <ele>805.1</ele>
        <time>2021-08-08T14:06:59Z</time>
      </trkpt>
      <trkpt lat="44.93128" lon="5.62272">
        <ele>804.7</ele>
        <time>2021-08-08T14:07:01Z</time>
      </trkpt>
      <trkpt lat="44.93123" lon="5.62299">
        <ele>804.3</ele>
        <time>2021-08-08T14:07:03Z</time>
      </trkpt>
      <trkpt lat="44.93119" lon="5.62312">
        <ele>804</ele>
        <time>2021-08-08T14:07:04Z</time>
      </trkpt>
      <trkpt lat="44.93114" lon="5.62324">
        <ele>803.8</ele>
        <time>2021-08-08T14:07:05Z</time>
      </trkpt>
      <trkpt lat="44.93106" lon="5.62348">
        <ele>803.4</ele>
        <time>2021-08-08T14:07:07Z</time>
      </trkpt>
      <trkpt lat="44.93097" lon="5.62371">
        <ele>803.2</ele>
        <time>2021-08-08T14:07:09Z</time>
      </trkpt>
      <trkpt lat="44.93088" lon="5.62395">
        <ele>802.9</ele>
        <time>2021-08-08T14:07:11Z</time>
      </trkpt>
      <trkpt lat="44.93084" lon="5.62407">
        <ele>802.8</ele>
        <time>2021-08-08T14:07:12Z</time>
      </trkpt>
      <trkpt lat="44.93081" lon="5.62419">
        <ele>802.7</ele>
        <time>2021-08-08T14:07:13Z</time>
      </trkpt>
      <trkpt lat="44.93076" lon="5.62443">
        <ele>802.5</ele>
        <time>2021-08-08T14:07:15Z</time>
      </trkpt>
      <trkpt lat="44.93072" lon="5.62455">
        <ele>802.5</ele>
        <time>2021-08-08T14:07:16Z</time>
      </trkpt>
      <trkpt lat="44.93069" lon="5.62466">
        <ele>802.4</ele>
        <time>2021-08-08T14:07:17Z</time>
      </trkpt>
      <trkpt lat="44.93066" lon="5.62478">
        <ele>802.3</ele>
        <time>2021-08-08T14:07:18Z</time>
      </trkpt>
      <trkpt lat="44.93055" lon="5.62513">
        <ele>802.1</ele>
        <time>2021-08-08T14:07:21Z</time>
      </trkpt>
      <trkpt lat="44.93048" lon="5.62535">
        <ele>802.1</ele>
        <time>2021-08-08T14:07:23Z</time>
      </trkpt>
      <trkpt lat="44.93046" lon="5.62555">
        <ele>802.1</ele>
        <time>2021-08-08T14:07:25Z</time>
      </trkpt>
      <trkpt lat="44.93057" lon="5.62563">
        <ele>800.7</ele>
        <time>2021-08-08T14:07:27Z</time>
      </trkpt>
      <trkpt lat="44.9307" lon="5.62568">
        <ele>799.6</ele>
        <time>2021-08-08T14:07:29Z</time>
      </trkpt>
      <trkpt lat="44.93083" lon="5.62573">
        <ele>798.7</ele>
        <time>2021-08-08T14:07:31Z</time>
      </trkpt>
      <trkpt lat="44.93096" lon="5.62584">
        <ele>798.1</ele>
        <time>2021-08-08T14:07:33Z</time>
      </trkpt>
      <trkpt lat="44.93108" lon="5.62593">
        <ele>797.8</ele>
        <time>2021-08-08T14:07:35Z</time>
      </trkpt>
      <trkpt lat="44.93115" lon="5.62596">
        <ele>797.7</ele>
        <time>2021-08-08T14:07:36Z</time>
      </trkpt>
      <trkpt lat="44.93128" lon="5.62598">
        <ele>797.5</ele>
        <time>2021-08-08T14:07:39Z</time>
      </trkpt>
      <trkpt lat="44.93141" lon="5.62594">
        <ele>797.2</ele>
        <time>2021-08-08T14:07:40Z</time>
      </trkpt>
      <trkpt lat="44.93153" lon="5.62588">
        <ele>796.9</ele>
        <time>2021-08-08T14:07:42Z</time>
      </trkpt>
      <trkpt lat="44.93159" lon="5.62584">
        <ele>796.8</ele>
        <time>2021-08-08T14:07:43Z</time>
      </trkpt>
      <trkpt lat="44.93169" lon="5.62579">
        <ele>796.7</ele>
        <time>2021-08-08T14:07:45Z</time>
      </trkpt>
      <trkpt lat="44.9318" lon="5.62577">
        <ele>796.6</ele>
        <time>2021-08-08T14:07:47Z</time>
      </trkpt>
      <trkpt lat="44.93191" lon="5.62574">
        <ele>796.5</ele>
        <time>2021-08-08T14:07:49Z</time>
      </trkpt>
      <trkpt lat="44.93202" lon="5.62574">
        <ele>796.4</ele>
        <time>2021-08-08T14:07:51Z</time>
      </trkpt>
      <trkpt lat="44.93207" lon="5.62572">
        <ele>796.4</ele>
        <time>2021-08-08T14:07:52Z</time>
      </trkpt>
      <trkpt lat="44.93212" lon="5.62571">
        <ele>796.3</ele>
        <time>2021-08-08T14:07:53Z</time>
      </trkpt>
      <trkpt lat="44.93222" lon="5.62569">
        <ele>796.3</ele>
        <time>2021-08-08T14:07:55Z</time>
      </trkpt>
      <trkpt lat="44.93227" lon="5.62568">
        <ele>796.3</ele>
        <time>2021-08-08T14:07:57Z</time>
      </trkpt>
      <trkpt lat="44.93237" lon="5.62564">
        <ele>796.1</ele>
        <time>2021-08-08T14:07:58Z</time>
      </trkpt>
      <trkpt lat="44.93242" lon="5.62562">
        <ele>796</ele>
        <time>2021-08-08T14:07:59Z</time>
      </trkpt>
      <trkpt lat="44.93247" lon="5.6256">
        <ele>795.9</ele>
        <time>2021-08-08T14:08:00Z</time>
      </trkpt>
      <trkpt lat="44.93253" lon="5.62556">
        <ele>795.8</ele>
        <time>2021-08-08T14:08:01Z</time>
      </trkpt>
      <trkpt lat="44.93265" lon="5.62551">
        <ele>795.6</ele>
        <time>2021-08-08T14:08:03Z</time>
      </trkpt>
      <trkpt lat="44.93271" lon="5.62549">
        <ele>795.5</ele>
        <time>2021-08-08T14:08:04Z</time>
      </trkpt>
      <trkpt lat="44.93283" lon="5.62545">
        <ele>795.3</ele>
        <time>2021-08-08T14:08:06Z</time>
      </trkpt>
      <trkpt lat="44.93289" lon="5.62543">
        <ele>795.3</ele>
        <time>2021-08-08T14:08:07Z</time>
      </trkpt>
      <trkpt lat="44.93297" lon="5.62538">
        <ele>795.3</ele>
        <time>2021-08-08T14:08:09Z</time>
      </trkpt>
      <trkpt lat="44.93301" lon="5.62534">
        <ele>795.3</ele>
        <time>2021-08-08T14:08:10Z</time>
      </trkpt>
      <trkpt lat="44.93311" lon="5.62526">
        <ele>795.1</ele>
        <time>2021-08-08T14:08:12Z</time>
      </trkpt>
      <trkpt lat="44.93316" lon="5.62523">
        <ele>795</ele>
        <time>2021-08-08T14:08:13Z</time>
      </trkpt>
      <trkpt lat="44.93323" lon="5.62518">
        <ele>794.9</ele>
        <time>2021-08-08T14:08:15Z</time>
      </trkpt>
      <trkpt lat="44.93327" lon="5.62517">
        <ele>794.8</ele>
        <time>2021-08-08T14:08:16Z</time>
      </trkpt>
      <trkpt lat="44.9333" lon="5.62515">
        <ele>794.7</ele>
        <time>2021-08-08T14:08:17Z</time>
      </trkpt>
      <trkpt lat="44.93332" lon="5.62515">
        <ele>794.7</ele>
        <time>2021-08-08T14:08:18Z</time>
      </trkpt>
      <trkpt lat="44.93335" lon="5.62516">
        <ele>794.6</ele>
        <time>2021-08-08T14:08:20Z</time>
      </trkpt>
      <trkpt lat="44.93335" lon="5.62517">
        <ele>794.6</ele>
        <time>2021-08-08T14:08:22Z</time>
      </trkpt>
      <trkpt lat="44.93335" lon="5.62517">
        <ele>794.5</ele>
        <time>2021-08-08T14:08:24Z</time>
      </trkpt>
      <trkpt lat="44.93335" lon="5.62516">
        <ele>794.5</ele>
        <time>2021-08-08T14:08:26Z</time>
      </trkpt>
      <trkpt lat="44.93335" lon="5.62516">
        <ele>794.5</ele>
        <time>2021-08-08T14:08:27Z</time>
      </trkpt>
      <trkpt lat="44.93336" lon="5.62516">
        <ele>794.5</ele>
        <time>2021-08-08T14:08:29Z</time>
      </trkpt>
      <trkpt lat="44.93336" lon="5.62515">
        <ele>794.5</ele>
        <time>2021-08-08T14:08:31Z</time>
      </trkpt>
      <trkpt lat="44.93336" lon="5.62515">
        <ele>794.5</ele>
        <time>2021-08-08T14:08:32Z</time>
      </trkpt>
      <trkpt lat="44.93336" lon="5.62515">
        <ele>794.5</ele>
        <time>2021-08-08T14:08:34Z</time>
      </trkpt>
      <trkpt lat="44.93336" lon="5.62514">
        <ele>794.5</ele>
        <time>2021-08-08T14:08:35Z</time>
      </trkpt>
      <trkpt lat="44.93336" lon="5.62514">
        <ele>794.5</ele>
        <time>2021-08-08T14:08:37Z</time>
      </trkpt>
    </trkseg>
  </trk>
</gpx>